<?xml version="1.0" encoding="utf-8" standalone="yes"?>
<gpx version="1.1" creator="Locus Map, Android"
 xmlns="http://www.topografix.com/GPX/1/1"
 xmlns:xsi="http://www.w3.org/2001/XMLSchema-instance"
 xsi:schemaLocation="http://www.topografix.com/GPX/1/1 http://www.topografix.com/GPX/1/1/gpx.xsd"
 xmlns:gpxx="http://www.garmin.com/xmlschemas/GpxExtensions/v3"
 xmlns:gpxtrkx="http://www.garmin.com/xmlschemas/TrackStatsExtension/v1"
 xmlns:gpxtpx="http://www.garmin.com/xmlschemas/TrackPointExtension/v2"
 xmlns:locus="http://www.locusmap.eu">
	<metadata>
		<desc>File with points/tracks from Locus Map Classic/3.68.2</desc>
		<time>2023-07-16T16:44:46.066Z</time>
	</metadata>
<trk>
<name>Rifugio Santa Rita</name>
	<extensions>
		<line xmlns="http://www.topografix.com/GPX/gpx_style/0/2">
			<color>0000FF</color>
			<opacity>0.59</opacity>
			<width>6.0</width>
			<extensions>
				<locus:lsColorBase>#960000FF</locus:lsColorBase>
				<locus:lsWidth>6.0</locus:lsWidth>
				<locus:lsUnits>PIXELS</locus:lsUnits>
			</extensions>
		</line>
	</extensions>
<trkseg>
<trkpt lat="46.0421160" lon="9.4026780">
	<ele>1358.80</ele>
	<time>2023-07-15T05:36:18.000Z</time>
</trkpt>
<trkpt lat="46.0421150" lon="9.4026690">
	<ele>1358.80</ele>
	<time>2023-07-15T05:36:19.000Z</time>
</trkpt>
<trkpt lat="46.0421100" lon="9.4026630">
	<ele>1358.80</ele>
	<time>2023-07-15T05:36:30.000Z</time>
</trkpt>
<trkpt lat="46.0421100" lon="9.4026650">
	<ele>1358.80</ele>
	<time>2023-07-15T05:36:31.000Z</time>
</trkpt>
<trkpt lat="46.0420960" lon="9.4026760">
	<ele>1358.80</ele>
	<time>2023-07-15T05:36:48.000Z</time>
</trkpt>
<trkpt lat="46.0420150" lon="9.4027080">
	<ele>1358.80</ele>
	<time>2023-07-15T05:37:04.000Z</time>
</trkpt>
<trkpt lat="46.0419800" lon="9.4027230">
	<ele>1358.80</ele>
	<time>2023-07-15T05:37:10.000Z</time>
</trkpt>
<trkpt lat="46.0419710" lon="9.4027140">
	<ele>1358.80</ele>
	<time>2023-07-15T05:37:17.000Z</time>
</trkpt>
<trkpt lat="46.0419710" lon="9.4027140">
	<ele>1358.80</ele>
	<time>2023-07-15T05:37:24.000Z</time>
</trkpt>
<trkpt lat="46.0419310" lon="9.4027360">
	<ele>1358.80</ele>
	<time>2023-07-15T05:37:32.000Z</time>
</trkpt>
<trkpt lat="46.0419030" lon="9.4027480">
	<ele>1358.80</ele>
	<time>2023-07-15T05:37:34.000Z</time>
</trkpt>
<trkpt lat="46.0418610" lon="9.4027790">
	<ele>1358.80</ele>
	<time>2023-07-15T05:37:38.000Z</time>
</trkpt>
<trkpt lat="46.0418460" lon="9.4027890">
	<ele>1358.80</ele>
	<time>2023-07-15T05:37:39.000Z</time>
</trkpt>
<trkpt lat="46.0418130" lon="9.4028260">
	<ele>1358.80</ele>
	<time>2023-07-15T05:37:47.000Z</time>
</trkpt>
<trkpt lat="46.0418080" lon="9.4028380">
	<ele>1358.80</ele>
	<time>2023-07-15T05:37:54.000Z</time>
</trkpt>
<trkpt lat="46.0418090" lon="9.4028420">
	<ele>1358.80</ele>
	<time>2023-07-15T05:37:56.000Z</time>
</trkpt>
<trkpt lat="46.0417760" lon="9.4028850">
	<ele>1358.80</ele>
	<time>2023-07-15T05:38:05.000Z</time>
</trkpt>
<trkpt lat="46.0417260" lon="9.4028930">
	<ele>1358.80</ele>
	<time>2023-07-15T05:38:10.000Z</time>
</trkpt>
<trkpt lat="46.0417150" lon="9.4028930">
	<ele>1358.80</ele>
	<time>2023-07-15T05:38:11.000Z</time>
</trkpt>
<trkpt lat="46.0416920" lon="9.4028970">
	<ele>1358.80</ele>
	<time>2023-07-15T05:38:13.000Z</time>
</trkpt>
<trkpt lat="46.0416660" lon="9.4029070">
	<ele>1358.80</ele>
	<time>2023-07-15T05:38:16.000Z</time>
</trkpt>
<trkpt lat="46.0416350" lon="9.4029010">
	<ele>1358.80</ele>
	<time>2023-07-15T05:38:20.000Z</time>
</trkpt>
<trkpt lat="46.0416170" lon="9.4029010">
	<ele>1365.20</ele>
	<time>2023-07-15T05:38:22.000Z</time>
</trkpt>
<trkpt lat="46.0415600" lon="9.4029110">
	<ele>1365.40</ele>
	<time>2023-07-15T05:38:27.000Z</time>
</trkpt>
<trkpt lat="46.0415200" lon="9.4029290">
	<ele>1365.80</ele>
	<time>2023-07-15T05:38:31.000Z</time>
</trkpt>
<trkpt lat="46.0414860" lon="9.4029370">
	<ele>1366.20</ele>
	<time>2023-07-15T05:38:34.000Z</time>
</trkpt>
<trkpt lat="46.0414740" lon="9.4029420">
	<ele>1366.40</ele>
	<time>2023-07-15T05:38:36.000Z</time>
</trkpt>
<trkpt lat="46.0414090" lon="9.4029830">
	<ele>1367.00</ele>
	<time>2023-07-15T05:38:42.000Z</time>
</trkpt>
<trkpt lat="46.0413870" lon="9.4029940">
	<ele>1367.20</ele>
	<time>2023-07-15T05:38:43.000Z</time>
</trkpt>
<trkpt lat="46.0413270" lon="9.4030040">
	<ele>1367.60</ele>
	<time>2023-07-15T05:38:47.000Z</time>
</trkpt>
<trkpt lat="46.0413050" lon="9.4030460">
	<ele>1368.20</ele>
	<time>2023-07-15T05:38:52.000Z</time>
</trkpt>
<trkpt lat="46.0413370" lon="9.4030850">
	<ele>1368.60</ele>
	<time>2023-07-15T05:38:55.000Z</time>
</trkpt>
<trkpt lat="46.0413430" lon="9.4031110">
	<ele>1368.80</ele>
	<time>2023-07-15T05:38:57.000Z</time>
</trkpt>
<trkpt lat="46.0412800" lon="9.4031150">
	<ele>1369.40</ele>
	<time>2023-07-15T05:39:01.000Z</time>
</trkpt>
<trkpt lat="46.0412750" lon="9.4031150">
	<ele>1369.40</ele>
	<time>2023-07-15T05:39:02.000Z</time>
</trkpt>
<trkpt lat="46.0412310" lon="9.4031530">
	<ele>1370.00</ele>
	<time>2023-07-15T05:39:06.000Z</time>
</trkpt>
<trkpt lat="46.0412180" lon="9.4031630">
	<ele>1370.00</ele>
	<time>2023-07-15T05:39:07.000Z</time>
</trkpt>
<trkpt lat="46.0411940" lon="9.4031790">
	<ele>1370.40</ele>
	<time>2023-07-15T05:39:09.000Z</time>
</trkpt>
<trkpt lat="46.0411300" lon="9.4032280">
	<ele>1371.00</ele>
	<time>2023-07-15T05:39:14.000Z</time>
</trkpt>
<trkpt lat="46.0411130" lon="9.4032500">
	<ele>1371.40</ele>
	<time>2023-07-15T05:39:16.000Z</time>
</trkpt>
<trkpt lat="46.0410520" lon="9.4033150">
	<ele>1372.40</ele>
	<time>2023-07-15T05:39:22.000Z</time>
</trkpt>
<trkpt lat="46.0410380" lon="9.4033220">
	<ele>1372.40</ele>
	<time>2023-07-15T05:39:23.000Z</time>
</trkpt>
<trkpt lat="46.0410060" lon="9.4033400">
	<ele>1373.20</ele>
	<time>2023-07-15T05:39:27.000Z</time>
</trkpt>
<trkpt lat="46.0410060" lon="9.4033450">
	<ele>1373.20</ele>
	<time>2023-07-15T05:39:28.000Z</time>
</trkpt>
<trkpt lat="46.0410020" lon="9.4033440">
	<ele>1373.40</ele>
	<time>2023-07-15T05:39:29.000Z</time>
</trkpt>
<trkpt lat="46.0409950" lon="9.4033450">
	<ele>1373.60</ele>
	<time>2023-07-15T05:39:30.000Z</time>
</trkpt>
<trkpt lat="46.0409840" lon="9.4033480">
	<ele>1373.80</ele>
	<time>2023-07-15T05:39:31.000Z</time>
</trkpt>
<trkpt lat="46.0409550" lon="9.4033450">
	<ele>1374.40</ele>
	<time>2023-07-15T05:39:35.000Z</time>
</trkpt>
<trkpt lat="46.0409590" lon="9.4033500">
	<ele>1374.60</ele>
	<time>2023-07-15T05:39:37.000Z</time>
</trkpt>
<trkpt lat="46.0409500" lon="9.4033460">
	<ele>1374.80</ele>
	<time>2023-07-15T05:39:38.000Z</time>
</trkpt>
<trkpt lat="46.0409380" lon="9.4033420">
	<ele>1374.80</ele>
	<time>2023-07-15T05:39:39.000Z</time>
</trkpt>
<trkpt lat="46.0409000" lon="9.4033360">
	<ele>1375.20</ele>
	<time>2023-07-15T05:39:41.000Z</time>
</trkpt>
<trkpt lat="46.0408690" lon="9.4033430">
	<ele>1375.40</ele>
	<time>2023-07-15T05:39:44.000Z</time>
</trkpt>
<trkpt lat="46.0408480" lon="9.4033460">
	<ele>1375.60</ele>
	<time>2023-07-15T05:39:46.000Z</time>
</trkpt>
<trkpt lat="46.0408250" lon="9.4033640">
	<ele>1375.80</ele>
	<time>2023-07-15T05:39:48.000Z</time>
</trkpt>
<trkpt lat="46.0408120" lon="9.4033760">
	<ele>1375.80</ele>
	<time>2023-07-15T05:39:49.000Z</time>
</trkpt>
<trkpt lat="46.0407210" lon="9.4034750">
	<ele>1376.80</ele>
	<time>2023-07-15T05:39:55.000Z</time>
</trkpt>
<trkpt lat="46.0407170" lon="9.4034910">
	<ele>1377.00</ele>
	<time>2023-07-15T05:39:56.000Z</time>
</trkpt>
<trkpt lat="46.0406170" lon="9.4035040">
	<ele>1377.80</ele>
	<time>2023-07-15T05:40:04.000Z</time>
</trkpt>
<trkpt lat="46.0406120" lon="9.4035060">
	<ele>1378.00</ele>
	<time>2023-07-15T05:40:05.000Z</time>
</trkpt>
<trkpt lat="46.0406220" lon="9.4035720">
	<ele>1378.60</ele>
	<time>2023-07-15T05:40:08.000Z</time>
</trkpt>
<trkpt lat="46.0406200" lon="9.4035940">
	<ele>1378.80</ele>
	<time>2023-07-15T05:40:10.000Z</time>
</trkpt>
<trkpt lat="46.0406170" lon="9.4036100">
	<ele>1378.80</ele>
	<time>2023-07-15T05:40:11.000Z</time>
</trkpt>
<trkpt lat="46.0406180" lon="9.4036260">
	<ele>1379.00</ele>
	<time>2023-07-15T05:40:12.000Z</time>
</trkpt>
<trkpt lat="46.0405860" lon="9.4036670">
	<ele>1379.80</ele>
	<time>2023-07-15T05:40:17.000Z</time>
</trkpt>
<trkpt lat="46.0405720" lon="9.4036760">
	<ele>1379.80</ele>
	<time>2023-07-15T05:40:18.000Z</time>
</trkpt>
<trkpt lat="46.0405340" lon="9.4036890">
	<ele>1380.20</ele>
	<time>2023-07-15T05:40:21.000Z</time>
</trkpt>
<trkpt lat="46.0405100" lon="9.4036990">
	<ele>1380.60</ele>
	<time>2023-07-15T05:40:23.000Z</time>
</trkpt>
<trkpt lat="46.0404980" lon="9.4037040">
	<ele>1380.80</ele>
	<time>2023-07-15T05:40:24.000Z</time>
</trkpt>
<trkpt lat="46.0404840" lon="9.4037020">
	<ele>1381.20</ele>
	<time>2023-07-15T05:40:26.000Z</time>
</trkpt>
<trkpt lat="46.0404840" lon="9.4037250">
	<ele>1381.20</ele>
	<time>2023-07-15T05:40:28.000Z</time>
</trkpt>
<trkpt lat="46.0404610" lon="9.4036800">
	<ele>1381.00</ele>
	<time>2023-07-15T05:40:30.000Z</time>
</trkpt>
<trkpt lat="46.0404580" lon="9.4036650">
	<ele>1381.00</ele>
	<time>2023-07-15T05:40:31.000Z</time>
</trkpt>
<trkpt lat="46.0404220" lon="9.4036410">
	<ele>1380.80</ele>
	<time>2023-07-15T05:40:33.000Z</time>
</trkpt>
<trkpt lat="46.0403760" lon="9.4036430">
	<ele>1380.80</ele>
	<time>2023-07-15T05:40:35.000Z</time>
</trkpt>
<trkpt lat="46.0403630" lon="9.4036530">
	<ele>1380.80</ele>
	<time>2023-07-15T05:40:36.000Z</time>
</trkpt>
<trkpt lat="46.0402190" lon="9.4037760">
	<ele>1381.00</ele>
	<time>2023-07-15T05:40:46.000Z</time>
</trkpt>
<trkpt lat="46.0401810" lon="9.4037700">
	<ele>1381.60</ele>
	<time>2023-07-15T05:40:51.000Z</time>
</trkpt>
<trkpt lat="46.0401730" lon="9.4037710">
	<ele>1381.80</ele>
	<time>2023-07-15T05:40:53.000Z</time>
</trkpt>
<trkpt lat="46.0401710" lon="9.4037730">
	<ele>1382.00</ele>
	<time>2023-07-15T05:40:54.000Z</time>
</trkpt>
<trkpt lat="46.0401780" lon="9.4037670">
	<ele>1382.20</ele>
	<time>2023-07-15T05:40:59.000Z</time>
</trkpt>
<trkpt lat="46.0401790" lon="9.4037660">
	<ele>1382.20</ele>
	<time>2023-07-15T05:41:00.000Z</time>
</trkpt>
<trkpt lat="46.0401710" lon="9.4037730">
	<ele>1382.40</ele>
	<time>2023-07-15T05:41:01.000Z</time>
</trkpt>
<trkpt lat="46.0401450" lon="9.4037790">
	<ele>1382.20</ele>
	<time>2023-07-15T05:41:06.000Z</time>
</trkpt>
<trkpt lat="46.0401420" lon="9.4037940">
	<ele>1382.00</ele>
	<time>2023-07-15T05:41:09.000Z</time>
</trkpt>
<trkpt lat="46.0401470" lon="9.4037950">
	<ele>1382.00</ele>
	<time>2023-07-15T05:41:10.000Z</time>
</trkpt>
<trkpt lat="46.0401680" lon="9.4038010">
	<ele>1382.00</ele>
	<time>2023-07-15T05:41:12.000Z</time>
</trkpt>
<trkpt lat="46.0401660" lon="9.4038000">
	<ele>1382.20</ele>
	<time>2023-07-15T05:41:15.000Z</time>
</trkpt>
<trkpt lat="46.0401650" lon="9.4037920">
	<ele>1382.60</ele>
	<time>2023-07-15T05:41:18.000Z</time>
</trkpt>
<trkpt lat="46.0401640" lon="9.4037900">
	<ele>1382.80</ele>
	<time>2023-07-15T05:41:20.000Z</time>
</trkpt>
<trkpt lat="46.0401640" lon="9.4037900">
	<ele>1382.80</ele>
	<time>2023-07-15T05:41:24.000Z</time>
</trkpt>
<trkpt lat="46.0401430" lon="9.4037840">
	<ele>1382.40</ele>
	<time>2023-07-15T05:41:32.000Z</time>
</trkpt>
<trkpt lat="46.0401260" lon="9.4037760">
	<ele>1382.40</ele>
	<time>2023-07-15T05:41:34.000Z</time>
</trkpt>
<trkpt lat="46.0400930" lon="9.4037450">
	<ele>1383.00</ele>
	<time>2023-07-15T05:41:38.000Z</time>
</trkpt>
<trkpt lat="46.0400770" lon="9.4037310">
	<ele>1383.40</ele>
	<time>2023-07-15T05:41:41.000Z</time>
</trkpt>
<trkpt lat="46.0400500" lon="9.4037350">
	<ele>1383.80</ele>
	<time>2023-07-15T05:41:45.000Z</time>
</trkpt>
<trkpt lat="46.0400170" lon="9.4036960">
	<ele>1384.20</ele>
	<time>2023-07-15T05:41:47.000Z</time>
</trkpt>
<trkpt lat="46.0399770" lon="9.4036630">
	<ele>1384.60</ele>
	<time>2023-07-15T05:41:49.000Z</time>
</trkpt>
<trkpt lat="46.0399150" lon="9.4036780">
	<ele>1385.20</ele>
	<time>2023-07-15T05:41:55.000Z</time>
</trkpt>
<trkpt lat="46.0399020" lon="9.4036670">
	<ele>1385.40</ele>
	<time>2023-07-15T05:41:57.000Z</time>
</trkpt>
<trkpt lat="46.0398940" lon="9.4036710">
	<ele>1385.40</ele>
	<time>2023-07-15T05:41:58.000Z</time>
</trkpt>
<trkpt lat="46.0398760" lon="9.4036720">
	<ele>1385.60</ele>
	<time>2023-07-15T05:42:00.000Z</time>
</trkpt>
<trkpt lat="46.0398430" lon="9.4036990">
	<ele>1386.00</ele>
	<time>2023-07-15T05:42:02.000Z</time>
</trkpt>
<trkpt lat="46.0398240" lon="9.4037180">
	<ele>1386.20</ele>
	<time>2023-07-15T05:42:03.000Z</time>
</trkpt>
<trkpt lat="46.0397390" lon="9.4038020">
	<ele>1386.80</ele>
	<time>2023-07-15T05:42:09.000Z</time>
</trkpt>
<trkpt lat="46.0396510" lon="9.4038710">
	<ele>1387.20</ele>
	<time>2023-07-15T05:42:13.000Z</time>
</trkpt>
<trkpt lat="46.0396290" lon="9.4038520">
	<ele>1387.40</ele>
	<time>2023-07-15T05:42:15.000Z</time>
</trkpt>
<trkpt lat="46.0396270" lon="9.4038620">
	<ele>1387.80</ele>
	<time>2023-07-15T05:42:17.000Z</time>
</trkpt>
<trkpt lat="46.0396210" lon="9.4038830">
	<ele>1388.00</ele>
	<time>2023-07-15T05:42:19.000Z</time>
</trkpt>
<trkpt lat="46.0395870" lon="9.4038920">
	<ele>1388.40</ele>
	<time>2023-07-15T05:42:21.000Z</time>
</trkpt>
<trkpt lat="46.0395700" lon="9.4038950">
	<ele>1388.60</ele>
	<time>2023-07-15T05:42:22.000Z</time>
</trkpt>
<trkpt lat="46.0394910" lon="9.4039230">
	<ele>1389.20</ele>
	<time>2023-07-15T05:42:28.000Z</time>
</trkpt>
<trkpt lat="46.0394300" lon="9.4039360">
	<ele>1389.60</ele>
	<time>2023-07-15T05:42:34.000Z</time>
</trkpt>
<trkpt lat="46.0394270" lon="9.4039400">
	<ele>1389.80</ele>
	<time>2023-07-15T05:42:35.000Z</time>
</trkpt>
<trkpt lat="46.0393850" lon="9.4039440">
	<ele>1390.20</ele>
	<time>2023-07-15T05:42:39.000Z</time>
</trkpt>
<trkpt lat="46.0393530" lon="9.4039560">
	<ele>1390.80</ele>
	<time>2023-07-15T05:42:42.000Z</time>
</trkpt>
<trkpt lat="46.0393420" lon="9.4039620">
	<ele>1391.00</ele>
	<time>2023-07-15T05:42:44.000Z</time>
</trkpt>
<trkpt lat="46.0393190" lon="9.4039680">
	<ele>1391.00</ele>
	<time>2023-07-15T05:42:45.000Z</time>
</trkpt>
<trkpt lat="46.0392930" lon="9.4039790">
	<ele>1391.20</ele>
	<time>2023-07-15T05:42:46.000Z</time>
</trkpt>
<trkpt lat="46.0392900" lon="9.4040020">
	<ele>1391.60</ele>
	<time>2023-07-15T05:42:49.000Z</time>
</trkpt>
<trkpt lat="46.0392880" lon="9.4040130">
	<ele>1391.80</ele>
	<time>2023-07-15T05:42:51.000Z</time>
</trkpt>
<trkpt lat="46.0392840" lon="9.4040170">
	<ele>1391.80</ele>
	<time>2023-07-15T05:42:52.000Z</time>
</trkpt>
<trkpt lat="46.0392790" lon="9.4040380">
	<ele>1391.80</ele>
	<time>2023-07-15T05:42:54.000Z</time>
</trkpt>
<trkpt lat="46.0392760" lon="9.4040530">
	<ele>1392.00</ele>
	<time>2023-07-15T05:42:56.000Z</time>
</trkpt>
<trkpt lat="46.0392640" lon="9.4040680">
	<ele>1392.00</ele>
	<time>2023-07-15T05:42:57.000Z</time>
</trkpt>
<trkpt lat="46.0392410" lon="9.4040590">
	<ele>1392.20</ele>
	<time>2023-07-15T05:43:01.000Z</time>
</trkpt>
<trkpt lat="46.0392370" lon="9.4040450">
	<ele>1392.20</ele>
	<time>2023-07-15T05:43:02.000Z</time>
</trkpt>
<trkpt lat="46.0391920" lon="9.4040240">
	<ele>1392.40</ele>
	<time>2023-07-15T05:43:04.000Z</time>
</trkpt>
<trkpt lat="46.0391510" lon="9.4040320">
	<ele>1392.40</ele>
	<time>2023-07-15T05:43:05.000Z</time>
</trkpt>
<trkpt lat="46.0391360" lon="9.4040540">
	<ele>1392.60</ele>
	<time>2023-07-15T05:43:07.000Z</time>
</trkpt>
<trkpt lat="46.0391190" lon="9.4040890">
	<ele>1392.60</ele>
	<time>2023-07-15T05:43:09.000Z</time>
</trkpt>
<trkpt lat="46.0391070" lon="9.4040960">
	<ele>1392.60</ele>
	<time>2023-07-15T05:43:10.000Z</time>
</trkpt>
<trkpt lat="46.0391070" lon="9.4041170">
	<ele>1393.00</ele>
	<time>2023-07-15T05:43:11.000Z</time>
</trkpt>
<trkpt lat="46.0391180" lon="9.4041290">
	<ele>1393.20</ele>
	<time>2023-07-15T05:43:12.000Z</time>
</trkpt>
<trkpt lat="46.0391030" lon="9.4041410">
	<ele>1393.40</ele>
	<time>2023-07-15T05:43:13.000Z</time>
</trkpt>
<trkpt lat="46.0390970" lon="9.4041260">
	<ele>1393.60</ele>
	<time>2023-07-15T05:43:15.000Z</time>
</trkpt>
<trkpt lat="46.0390660" lon="9.4040810">
	<ele>1394.00</ele>
	<time>2023-07-15T05:43:18.000Z</time>
</trkpt>
<trkpt lat="46.0390620" lon="9.4040850">
	<ele>1394.00</ele>
	<time>2023-07-15T05:43:19.000Z</time>
</trkpt>
<trkpt lat="46.0390620" lon="9.4040940">
	<ele>1394.20</ele>
	<time>2023-07-15T05:43:20.000Z</time>
</trkpt>
<trkpt lat="46.0390540" lon="9.4041040">
	<ele>1394.40</ele>
	<time>2023-07-15T05:43:23.000Z</time>
</trkpt>
<trkpt lat="46.0390490" lon="9.4041000">
	<ele>1394.60</ele>
	<time>2023-07-15T05:43:25.000Z</time>
</trkpt>
<trkpt lat="46.0390340" lon="9.4040930">
	<ele>1394.80</ele>
	<time>2023-07-15T05:43:27.000Z</time>
</trkpt>
<trkpt lat="46.0390110" lon="9.4040950">
	<ele>1395.00</ele>
	<time>2023-07-15T05:43:28.000Z</time>
</trkpt>
<trkpt lat="46.0389900" lon="9.4040800">
	<ele>1395.20</ele>
	<time>2023-07-15T05:43:29.000Z</time>
</trkpt>
<trkpt lat="46.0389770" lon="9.4040730">
	<ele>1395.40</ele>
	<time>2023-07-15T05:43:30.000Z</time>
</trkpt>
<trkpt lat="46.0389530" lon="9.4040620">
	<ele>1395.60</ele>
	<time>2023-07-15T05:43:32.000Z</time>
</trkpt>
<trkpt lat="46.0389200" lon="9.4040660">
	<ele>1395.80</ele>
	<time>2023-07-15T05:43:34.000Z</time>
</trkpt>
<trkpt lat="46.0389100" lon="9.4040660">
	<ele>1396.20</ele>
	<time>2023-07-15T05:43:35.000Z</time>
</trkpt>
<trkpt lat="46.0389050" lon="9.4040600">
	<ele>1396.20</ele>
	<time>2023-07-15T05:43:36.000Z</time>
</trkpt>
<trkpt lat="46.0389510" lon="9.4040640">
	<ele>1396.40</ele>
	<time>2023-07-15T05:43:37.000Z</time>
</trkpt>
<trkpt lat="46.0389430" lon="9.4040710">
	<ele>1396.80</ele>
	<time>2023-07-15T05:43:40.000Z</time>
</trkpt>
<trkpt lat="46.0389200" lon="9.4041000">
	<ele>1397.00</ele>
	<time>2023-07-15T05:43:42.000Z</time>
</trkpt>
<trkpt lat="46.0389050" lon="9.4041070">
	<ele>1397.20</ele>
	<time>2023-07-15T05:43:43.000Z</time>
</trkpt>
<trkpt lat="46.0388710" lon="9.4041090">
	<ele>1397.60</ele>
	<time>2023-07-15T05:43:46.000Z</time>
</trkpt>
<trkpt lat="46.0388430" lon="9.4041060">
	<ele>1398.20</ele>
	<time>2023-07-15T05:43:49.000Z</time>
</trkpt>
<trkpt lat="46.0388330" lon="9.4041270">
	<ele>1398.40</ele>
	<time>2023-07-15T05:43:51.000Z</time>
</trkpt>
<trkpt lat="46.0388220" lon="9.4041350">
	<ele>1398.60</ele>
	<time>2023-07-15T05:43:53.000Z</time>
</trkpt>
<trkpt lat="46.0387840" lon="9.4041420">
	<ele>1398.80</ele>
	<time>2023-07-15T05:43:55.000Z</time>
</trkpt>
<trkpt lat="46.0387710" lon="9.4041360">
	<ele>1399.00</ele>
	<time>2023-07-15T05:43:56.000Z</time>
</trkpt>
<trkpt lat="46.0387480" lon="9.4041240">
	<ele>1399.20</ele>
	<time>2023-07-15T05:43:58.000Z</time>
</trkpt>
<trkpt lat="46.0387380" lon="9.4041330">
	<ele>1399.40</ele>
	<time>2023-07-15T05:43:59.000Z</time>
</trkpt>
<trkpt lat="46.0387290" lon="9.4041350">
	<ele>1399.40</ele>
	<time>2023-07-15T05:44:00.000Z</time>
</trkpt>
<trkpt lat="46.0387290" lon="9.4041430">
	<ele>1399.80</ele>
	<time>2023-07-15T05:44:03.000Z</time>
</trkpt>
<trkpt lat="46.0387360" lon="9.4041390">
	<ele>1400.20</ele>
	<time>2023-07-15T05:44:06.000Z</time>
</trkpt>
<trkpt lat="46.0387330" lon="9.4041320">
	<ele>1400.40</ele>
	<time>2023-07-15T05:44:07.000Z</time>
</trkpt>
<trkpt lat="46.0387100" lon="9.4041580">
	<ele>1400.60</ele>
	<time>2023-07-15T05:44:09.000Z</time>
</trkpt>
<trkpt lat="46.0386920" lon="9.4041650">
	<ele>1400.80</ele>
	<time>2023-07-15T05:44:10.000Z</time>
</trkpt>
<trkpt lat="46.0386990" lon="9.4041630">
	<ele>1401.00</ele>
	<time>2023-07-15T05:44:12.000Z</time>
</trkpt>
<trkpt lat="46.0386930" lon="9.4041620">
	<ele>1401.20</ele>
	<time>2023-07-15T05:44:13.000Z</time>
</trkpt>
<trkpt lat="46.0386900" lon="9.4041530">
	<ele>1401.20</ele>
	<time>2023-07-15T05:44:14.000Z</time>
</trkpt>
<trkpt lat="46.0386840" lon="9.4041430">
	<ele>1401.60</ele>
	<time>2023-07-15T05:44:15.000Z</time>
</trkpt>
<trkpt lat="46.0386680" lon="9.4041450">
	<ele>1401.80</ele>
	<time>2023-07-15T05:44:16.000Z</time>
</trkpt>
<trkpt lat="46.0386620" lon="9.4041420">
	<ele>1402.00</ele>
	<time>2023-07-15T05:44:17.000Z</time>
</trkpt>
<trkpt lat="46.0386550" lon="9.4041270">
	<ele>1402.20</ele>
	<time>2023-07-15T05:44:19.000Z</time>
</trkpt>
<trkpt lat="46.0386490" lon="9.4041170">
	<ele>1402.40</ele>
	<time>2023-07-15T05:44:21.000Z</time>
</trkpt>
<trkpt lat="46.0386390" lon="9.4041070">
	<ele>1402.60</ele>
	<time>2023-07-15T05:44:23.000Z</time>
</trkpt>
<trkpt lat="46.0385950" lon="9.4041070">
	<ele>1403.00</ele>
	<time>2023-07-15T05:44:25.000Z</time>
</trkpt>
<trkpt lat="46.0385450" lon="9.4040960">
	<ele>1403.40</ele>
	<time>2023-07-15T05:44:29.000Z</time>
</trkpt>
<trkpt lat="46.0384970" lon="9.4040840">
	<ele>1403.60</ele>
	<time>2023-07-15T05:44:32.000Z</time>
</trkpt>
<trkpt lat="46.0384820" lon="9.4040810">
	<ele>1403.80</ele>
	<time>2023-07-15T05:44:34.000Z</time>
</trkpt>
<trkpt lat="46.0384620" lon="9.4040770">
	<ele>1404.00</ele>
	<time>2023-07-15T05:44:35.000Z</time>
</trkpt>
<trkpt lat="46.0384170" lon="9.4040690">
	<ele>1404.40</ele>
	<time>2023-07-15T05:44:38.000Z</time>
</trkpt>
<trkpt lat="46.0383900" lon="9.4040670">
	<ele>1404.40</ele>
	<time>2023-07-15T05:44:39.000Z</time>
</trkpt>
<trkpt lat="46.0383560" lon="9.4040570">
	<ele>1404.60</ele>
	<time>2023-07-15T05:44:41.000Z</time>
</trkpt>
<trkpt lat="46.0383550" lon="9.4040520">
	<ele>1404.60</ele>
	<time>2023-07-15T05:44:42.000Z</time>
</trkpt>
<trkpt lat="46.0383710" lon="9.4040450">
	<ele>1404.60</ele>
	<time>2023-07-15T05:44:43.000Z</time>
</trkpt>
<trkpt lat="46.0383740" lon="9.4040430">
	<ele>1404.60</ele>
	<time>2023-07-15T05:44:44.000Z</time>
</trkpt>
<trkpt lat="46.0383770" lon="9.4040410">
	<ele>1405.20</ele>
	<time>2023-07-15T05:44:47.000Z</time>
</trkpt>
<trkpt lat="46.0383620" lon="9.4040440">
	<ele>1405.60</ele>
	<time>2023-07-15T05:44:51.000Z</time>
</trkpt>
<trkpt lat="46.0383540" lon="9.4040450">
	<ele>1405.60</ele>
	<time>2023-07-15T05:44:54.000Z</time>
</trkpt>
<trkpt lat="46.0383520" lon="9.4040420">
	<ele>1405.60</ele>
	<time>2023-07-15T05:44:55.000Z</time>
</trkpt>
<trkpt lat="46.0383690" lon="9.4040250">
	<ele>1405.00</ele>
	<time>2023-07-15T05:45:00.000Z</time>
</trkpt>
<trkpt lat="46.0383740" lon="9.4040130">
	<ele>1405.00</ele>
	<time>2023-07-15T05:45:05.000Z</time>
</trkpt>
<trkpt lat="46.0383590" lon="9.4040010">
	<ele>1405.20</ele>
	<time>2023-07-15T05:45:09.000Z</time>
</trkpt>
<trkpt lat="46.0383240" lon="9.4040290">
	<ele>1405.60</ele>
	<time>2023-07-15T05:45:15.000Z</time>
</trkpt>
<trkpt lat="46.0383220" lon="9.4040340">
	<ele>1405.80</ele>
	<time>2023-07-15T05:45:16.000Z</time>
</trkpt>
<trkpt lat="46.0382710" lon="9.4040370">
	<ele>1406.60</ele>
	<time>2023-07-15T05:45:21.000Z</time>
</trkpt>
<trkpt lat="46.0382410" lon="9.4040220">
	<ele>1406.80</ele>
	<time>2023-07-15T05:45:24.000Z</time>
</trkpt>
<trkpt lat="46.0382190" lon="9.4040120">
	<ele>1407.00</ele>
	<time>2023-07-15T05:45:26.000Z</time>
</trkpt>
<trkpt lat="46.0381980" lon="9.4040060">
	<ele>1407.20</ele>
	<time>2023-07-15T05:45:27.000Z</time>
</trkpt>
<trkpt lat="46.0381660" lon="9.4039770">
	<ele>1407.40</ele>
	<time>2023-07-15T05:45:29.000Z</time>
</trkpt>
<trkpt lat="46.0381600" lon="9.4039510">
	<ele>1407.80</ele>
	<time>2023-07-15T05:45:32.000Z</time>
</trkpt>
<trkpt lat="46.0381590" lon="9.4039300">
	<ele>1408.00</ele>
	<time>2023-07-15T05:45:33.000Z</time>
</trkpt>
<trkpt lat="46.0381370" lon="9.4038980">
	<ele>1408.00</ele>
	<time>2023-07-15T05:45:35.000Z</time>
</trkpt>
<trkpt lat="46.0381140" lon="9.4038880">
	<ele>1408.20</ele>
	<time>2023-07-15T05:45:36.000Z</time>
</trkpt>
<trkpt lat="46.0380760" lon="9.4038680">
	<ele>1408.80</ele>
	<time>2023-07-15T05:45:40.000Z</time>
</trkpt>
<trkpt lat="46.0380700" lon="9.4038640">
	<ele>1409.00</ele>
	<time>2023-07-15T05:45:41.000Z</time>
</trkpt>
<trkpt lat="46.0380560" lon="9.4038690">
	<ele>1409.00</ele>
	<time>2023-07-15T05:45:42.000Z</time>
</trkpt>
<trkpt lat="46.0380430" lon="9.4038130">
	<ele>1409.40</ele>
	<time>2023-07-15T05:45:44.000Z</time>
</trkpt>
<trkpt lat="46.0380310" lon="9.4037750">
	<ele>1409.60</ele>
	<time>2023-07-15T05:45:46.000Z</time>
</trkpt>
<trkpt lat="46.0380230" lon="9.4037440">
	<ele>1409.80</ele>
	<time>2023-07-15T05:45:48.000Z</time>
</trkpt>
<trkpt lat="46.0380060" lon="9.4037480">
	<ele>1410.00</ele>
	<time>2023-07-15T05:45:49.000Z</time>
</trkpt>
<trkpt lat="46.0379610" lon="9.4037250">
	<ele>1410.40</ele>
	<time>2023-07-15T05:45:51.000Z</time>
</trkpt>
<trkpt lat="46.0379430" lon="9.4036840">
	<ele>1410.60</ele>
	<time>2023-07-15T05:45:52.000Z</time>
</trkpt>
<trkpt lat="46.0379000" lon="9.4036550">
	<ele>1410.80</ele>
	<time>2023-07-15T05:45:54.000Z</time>
</trkpt>
<trkpt lat="46.0378940" lon="9.4036580">
	<ele>1411.00</ele>
	<time>2023-07-15T05:45:55.000Z</time>
</trkpt>
<trkpt lat="46.0378860" lon="9.4036700">
	<ele>1411.00</ele>
	<time>2023-07-15T05:45:56.000Z</time>
</trkpt>
<trkpt lat="46.0378770" lon="9.4036800">
	<ele>1411.20</ele>
	<time>2023-07-15T05:45:57.000Z</time>
</trkpt>
<trkpt lat="46.0378610" lon="9.4036810">
	<ele>1411.60</ele>
	<time>2023-07-15T05:46:00.000Z</time>
</trkpt>
<trkpt lat="46.0378310" lon="9.4036600">
	<ele>1411.60</ele>
	<time>2023-07-15T05:46:03.000Z</time>
</trkpt>
<trkpt lat="46.0378140" lon="9.4036710">
	<ele>1411.60</ele>
	<time>2023-07-15T05:46:04.000Z</time>
</trkpt>
<trkpt lat="46.0377810" lon="9.4037010">
	<ele>1411.60</ele>
	<time>2023-07-15T05:46:07.000Z</time>
</trkpt>
<trkpt lat="46.0377570" lon="9.4037380">
	<ele>1411.60</ele>
	<time>2023-07-15T05:46:09.000Z</time>
</trkpt>
<trkpt lat="46.0377400" lon="9.4037270">
	<ele>1411.60</ele>
	<time>2023-07-15T05:46:10.000Z</time>
</trkpt>
<trkpt lat="46.0377260" lon="9.4037550">
	<ele>1411.80</ele>
	<time>2023-07-15T05:46:11.000Z</time>
</trkpt>
<trkpt lat="46.0377200" lon="9.4037470">
	<ele>1412.00</ele>
	<time>2023-07-15T05:46:13.000Z</time>
</trkpt>
<trkpt lat="46.0377170" lon="9.4037580">
	<ele>1412.00</ele>
	<time>2023-07-15T05:46:14.000Z</time>
</trkpt>
<trkpt lat="46.0376830" lon="9.4037910">
	<ele>1412.20</ele>
	<time>2023-07-15T05:46:16.000Z</time>
</trkpt>
<trkpt lat="46.0376690" lon="9.4037930">
	<ele>1412.20</ele>
	<time>2023-07-15T05:46:17.000Z</time>
</trkpt>
<trkpt lat="46.0376740" lon="9.4038060">
	<ele>1412.00</ele>
	<time>2023-07-15T05:46:19.000Z</time>
</trkpt>
<trkpt lat="46.0376670" lon="9.4038270">
	<ele>1412.20</ele>
	<time>2023-07-15T05:46:21.000Z</time>
</trkpt>
<trkpt lat="46.0376620" lon="9.4038460">
	<ele>1412.20</ele>
	<time>2023-07-15T05:46:22.000Z</time>
</trkpt>
<trkpt lat="46.0376490" lon="9.4038690">
	<ele>1412.20</ele>
	<time>2023-07-15T05:46:23.000Z</time>
</trkpt>
<trkpt lat="46.0375400" lon="9.4039530">
	<ele>1412.20</ele>
	<time>2023-07-15T05:46:28.000Z</time>
</trkpt>
<trkpt lat="46.0375210" lon="9.4039440">
	<ele>1412.20</ele>
	<time>2023-07-15T05:46:29.000Z</time>
</trkpt>
<trkpt lat="46.0374560" lon="9.4039490">
	<ele>1412.40</ele>
	<time>2023-07-15T05:46:33.000Z</time>
</trkpt>
<trkpt lat="46.0374440" lon="9.4039340">
	<ele>1412.60</ele>
	<time>2023-07-15T05:46:35.000Z</time>
</trkpt>
<trkpt lat="46.0374370" lon="9.4039110">
	<ele>1412.80</ele>
	<time>2023-07-15T05:46:36.000Z</time>
</trkpt>
<trkpt lat="46.0374210" lon="9.4039110">
	<ele>1413.00</ele>
	<time>2023-07-15T05:46:37.000Z</time>
</trkpt>
<trkpt lat="46.0373910" lon="9.4039070">
	<ele>1413.00</ele>
	<time>2023-07-15T05:46:39.000Z</time>
</trkpt>
<trkpt lat="46.0373540" lon="9.4038960">
	<ele>1413.00</ele>
	<time>2023-07-15T05:46:43.000Z</time>
</trkpt>
<trkpt lat="46.0373350" lon="9.4039170">
	<ele>1413.00</ele>
	<time>2023-07-15T05:46:44.000Z</time>
</trkpt>
<trkpt lat="46.0372850" lon="9.4039530">
	<ele>1412.80</ele>
	<time>2023-07-15T05:46:46.000Z</time>
</trkpt>
<trkpt lat="46.0371780" lon="9.4040150">
	<ele>1413.00</ele>
	<time>2023-07-15T05:46:50.000Z</time>
</trkpt>
<trkpt lat="46.0371090" lon="9.4040470">
	<ele>1413.00</ele>
	<time>2023-07-15T05:46:52.000Z</time>
</trkpt>
<trkpt lat="46.0370120" lon="9.4041220">
	<ele>1412.60</ele>
	<time>2023-07-15T05:46:58.000Z</time>
</trkpt>
<trkpt lat="46.0370040" lon="9.4041200">
	<ele>1412.60</ele>
	<time>2023-07-15T05:46:59.000Z</time>
</trkpt>
<trkpt lat="46.0370030" lon="9.4041270">
	<ele>1412.60</ele>
	<time>2023-07-15T05:47:00.000Z</time>
</trkpt>
<trkpt lat="46.0369630" lon="9.4041460">
	<ele>1412.40</ele>
	<time>2023-07-15T05:47:02.000Z</time>
</trkpt>
<trkpt lat="46.0369350" lon="9.4041330">
	<ele>1412.40</ele>
	<time>2023-07-15T05:47:06.000Z</time>
</trkpt>
<trkpt lat="46.0368870" lon="9.4041230">
	<ele>1412.40</ele>
	<time>2023-07-15T05:47:08.000Z</time>
</trkpt>
<trkpt lat="46.0368240" lon="9.4040460">
	<ele>1412.60</ele>
	<time>2023-07-15T05:47:13.000Z</time>
</trkpt>
<trkpt lat="46.0367570" lon="9.4040140">
	<ele>1412.80</ele>
	<time>2023-07-15T05:47:19.000Z</time>
</trkpt>
<trkpt lat="46.0367460" lon="9.4040090">
	<ele>1412.80</ele>
	<time>2023-07-15T05:47:20.000Z</time>
</trkpt>
<trkpt lat="46.0367370" lon="9.4039940">
	<ele>1413.00</ele>
	<time>2023-07-15T05:47:23.000Z</time>
</trkpt>
<trkpt lat="46.0366760" lon="9.4040030">
	<ele>1413.40</ele>
	<time>2023-07-15T05:47:28.000Z</time>
</trkpt>
<trkpt lat="46.0366800" lon="9.4040220">
	<ele>1413.80</ele>
	<time>2023-07-15T05:47:33.000Z</time>
</trkpt>
<trkpt lat="46.0366590" lon="9.4039900">
	<ele>1414.20</ele>
	<time>2023-07-15T05:47:37.000Z</time>
</trkpt>
<trkpt lat="46.0366400" lon="9.4039760">
	<ele>1414.40</ele>
	<time>2023-07-15T05:47:39.000Z</time>
</trkpt>
<trkpt lat="46.0366230" lon="9.4039870">
	<ele>1414.80</ele>
	<time>2023-07-15T05:47:44.000Z</time>
</trkpt>
<trkpt lat="46.0366210" lon="9.4039860">
	<ele>1414.60</ele>
	<time>2023-07-15T05:47:46.000Z</time>
</trkpt>
<trkpt lat="46.0366200" lon="9.4039920">
	<ele>1414.60</ele>
	<time>2023-07-15T05:47:47.000Z</time>
</trkpt>
<trkpt lat="46.0366170" lon="9.4040130">
	<ele>1414.40</ele>
	<time>2023-07-15T05:47:49.000Z</time>
</trkpt>
<trkpt lat="46.0365770" lon="9.4040940">
	<ele>1415.00</ele>
	<time>2023-07-15T05:47:55.000Z</time>
</trkpt>
<trkpt lat="46.0365590" lon="9.4041020">
	<ele>1415.20</ele>
	<time>2023-07-15T05:47:57.000Z</time>
</trkpt>
<trkpt lat="46.0365450" lon="9.4041290">
	<ele>1415.60</ele>
	<time>2023-07-15T05:48:00.000Z</time>
</trkpt>
<trkpt lat="46.0364930" lon="9.4042000">
	<ele>1416.00</ele>
	<time>2023-07-15T05:48:05.000Z</time>
</trkpt>
<trkpt lat="46.0365020" lon="9.4042040">
	<ele>1416.40</ele>
	<time>2023-07-15T05:48:07.000Z</time>
</trkpt>
<trkpt lat="46.0364960" lon="9.4042470">
	<ele>1416.60</ele>
	<time>2023-07-15T05:48:09.000Z</time>
</trkpt>
<trkpt lat="46.0364450" lon="9.4042810">
	<ele>1416.80</ele>
	<time>2023-07-15T05:48:13.000Z</time>
</trkpt>
<trkpt lat="46.0364280" lon="9.4042940">
	<ele>1417.00</ele>
	<time>2023-07-15T05:48:16.000Z</time>
</trkpt>
<trkpt lat="46.0364090" lon="9.4042900">
	<ele>1417.00</ele>
	<time>2023-07-15T05:48:18.000Z</time>
</trkpt>
<trkpt lat="46.0364020" lon="9.4042960">
	<ele>1417.00</ele>
	<time>2023-07-15T05:48:19.000Z</time>
</trkpt>
<trkpt lat="46.0363210" lon="9.4043290">
	<ele>1417.20</ele>
	<time>2023-07-15T05:48:24.000Z</time>
</trkpt>
<trkpt lat="46.0363060" lon="9.4043430">
	<ele>1417.20</ele>
	<time>2023-07-15T05:48:25.000Z</time>
</trkpt>
<trkpt lat="46.0362960" lon="9.4043630">
	<ele>1417.00</ele>
	<time>2023-07-15T05:48:28.000Z</time>
</trkpt>
<trkpt lat="46.0362780" lon="9.4043680">
	<ele>1417.00</ele>
	<time>2023-07-15T05:48:30.000Z</time>
</trkpt>
<trkpt lat="46.0362450" lon="9.4044040">
	<ele>1417.00</ele>
	<time>2023-07-15T05:48:33.000Z</time>
</trkpt>
<trkpt lat="46.0362490" lon="9.4044100">
	<ele>1416.80</ele>
	<time>2023-07-15T05:48:34.000Z</time>
</trkpt>
<trkpt lat="46.0362580" lon="9.4043990">
	<ele>1416.80</ele>
	<time>2023-07-15T05:48:35.000Z</time>
</trkpt>
<trkpt lat="46.0362780" lon="9.4043810">
	<ele>1416.80</ele>
	<time>2023-07-15T05:48:37.000Z</time>
</trkpt>
<trkpt lat="46.0362640" lon="9.4043680">
	<ele>1416.60</ele>
	<time>2023-07-15T05:48:39.000Z</time>
</trkpt>
<trkpt lat="46.0362580" lon="9.4043680">
	<ele>1416.60</ele>
	<time>2023-07-15T05:48:41.000Z</time>
</trkpt>
<trkpt lat="46.0362520" lon="9.4043440">
	<ele>1416.40</ele>
	<time>2023-07-15T05:48:43.000Z</time>
</trkpt>
<trkpt lat="46.0362450" lon="9.4043260">
	<ele>1416.40</ele>
	<time>2023-07-15T05:48:45.000Z</time>
</trkpt>
<trkpt lat="46.0362200" lon="9.4043220">
	<ele>1416.20</ele>
	<time>2023-07-15T05:48:48.000Z</time>
</trkpt>
<trkpt lat="46.0361880" lon="9.4043230">
	<ele>1416.00</ele>
	<time>2023-07-15T05:48:52.000Z</time>
</trkpt>
<trkpt lat="46.0361550" lon="9.4043400">
	<ele>1416.00</ele>
	<time>2023-07-15T05:48:54.000Z</time>
</trkpt>
<trkpt lat="46.0360930" lon="9.4043830">
	<ele>1415.80</ele>
	<time>2023-07-15T05:48:58.000Z</time>
</trkpt>
<trkpt lat="46.0360580" lon="9.4043600">
	<ele>1415.80</ele>
	<time>2023-07-15T05:49:02.000Z</time>
</trkpt>
<trkpt lat="46.0360580" lon="9.4043630">
	<ele>1416.00</ele>
	<time>2023-07-15T05:49:03.000Z</time>
</trkpt>
<trkpt lat="46.0360580" lon="9.4043710">
	<ele>1416.00</ele>
	<time>2023-07-15T05:49:05.000Z</time>
</trkpt>
<trkpt lat="46.0360660" lon="9.4043880">
	<ele>1416.40</ele>
	<time>2023-07-15T05:49:08.000Z</time>
</trkpt>
<trkpt lat="46.0359760" lon="9.4044380">
	<ele>1417.00</ele>
	<time>2023-07-15T05:49:13.000Z</time>
</trkpt>
<trkpt lat="46.0359380" lon="9.4044540">
	<ele>1417.20</ele>
	<time>2023-07-15T05:49:15.000Z</time>
</trkpt>
<trkpt lat="46.0359110" lon="9.4044550">
	<ele>1417.40</ele>
	<time>2023-07-15T05:49:16.000Z</time>
</trkpt>
<trkpt lat="46.0358810" lon="9.4044450">
	<ele>1418.20</ele>
	<time>2023-07-15T05:49:22.000Z</time>
</trkpt>
<trkpt lat="46.0358770" lon="9.4044490">
	<ele>1418.40</ele>
	<time>2023-07-15T05:49:23.000Z</time>
</trkpt>
<trkpt lat="46.0358660" lon="9.4044530">
	<ele>1418.40</ele>
	<time>2023-07-15T05:49:24.000Z</time>
</trkpt>
<trkpt lat="46.0358160" lon="9.4044710">
	<ele>1418.80</ele>
	<time>2023-07-15T05:49:28.000Z</time>
</trkpt>
<trkpt lat="46.0358030" lon="9.4044720">
	<ele>1418.80</ele>
	<time>2023-07-15T05:49:29.000Z</time>
</trkpt>
<trkpt lat="46.0357510" lon="9.4044950">
	<ele>1419.20</ele>
	<time>2023-07-15T05:49:33.000Z</time>
</trkpt>
<trkpt lat="46.0356580" lon="9.4044770">
	<ele>1419.40</ele>
	<time>2023-07-15T05:49:37.000Z</time>
</trkpt>
<trkpt lat="46.0355480" lon="9.4045750">
	<ele>1419.00</ele>
	<time>2023-07-15T05:49:43.000Z</time>
</trkpt>
<trkpt lat="46.0355420" lon="9.4045660">
	<ele>1418.80</ele>
	<time>2023-07-15T05:49:44.000Z</time>
</trkpt>
<trkpt lat="46.0355110" lon="9.4045300">
	<ele>1418.40</ele>
	<time>2023-07-15T05:49:48.000Z</time>
</trkpt>
<trkpt lat="46.0354920" lon="9.4045700">
	<ele>1418.40</ele>
	<time>2023-07-15T05:49:49.000Z</time>
</trkpt>
<trkpt lat="46.0354790" lon="9.4045680">
	<ele>1418.60</ele>
	<time>2023-07-15T05:49:51.000Z</time>
</trkpt>
<trkpt lat="46.0354700" lon="9.4045670">
	<ele>1418.60</ele>
	<time>2023-07-15T05:49:52.000Z</time>
</trkpt>
<trkpt lat="46.0354640" lon="9.4045640">
	<ele>1418.40</ele>
	<time>2023-07-15T05:49:53.000Z</time>
</trkpt>
<trkpt lat="46.0354650" lon="9.4045570">
	<ele>1418.20</ele>
	<time>2023-07-15T05:49:55.000Z</time>
</trkpt>
<trkpt lat="46.0354530" lon="9.4045290">
	<ele>1418.00</ele>
	<time>2023-07-15T05:49:58.000Z</time>
</trkpt>
<trkpt lat="46.0354520" lon="9.4045170">
	<ele>1418.20</ele>
	<time>2023-07-15T05:49:59.000Z</time>
</trkpt>
<trkpt lat="46.0354490" lon="9.4045030">
	<ele>1418.60</ele>
	<time>2023-07-15T05:50:02.000Z</time>
</trkpt>
<trkpt lat="46.0354420" lon="9.4044950">
	<ele>1418.60</ele>
	<time>2023-07-15T05:50:03.000Z</time>
</trkpt>
<trkpt lat="46.0354020" lon="9.4044840">
	<ele>1419.00</ele>
	<time>2023-07-15T05:50:07.000Z</time>
</trkpt>
<trkpt lat="46.0353760" lon="9.4044710">
	<ele>1419.20</ele>
	<time>2023-07-15T05:50:10.000Z</time>
</trkpt>
<trkpt lat="46.0353600" lon="9.4044510">
	<ele>1419.60</ele>
	<time>2023-07-15T05:50:13.000Z</time>
</trkpt>
<trkpt lat="46.0353520" lon="9.4044420">
	<ele>1419.60</ele>
	<time>2023-07-15T05:50:14.000Z</time>
</trkpt>
<trkpt lat="46.0353270" lon="9.4044210">
	<ele>1420.00</ele>
	<time>2023-07-15T05:50:17.000Z</time>
</trkpt>
<trkpt lat="46.0352920" lon="9.4044160">
	<ele>1420.20</ele>
	<time>2023-07-15T05:50:19.000Z</time>
</trkpt>
<trkpt lat="46.0352600" lon="9.4044170">
	<ele>1420.60</ele>
	<time>2023-07-15T05:50:21.000Z</time>
</trkpt>
<trkpt lat="46.0352520" lon="9.4044110">
	<ele>1421.00</ele>
	<time>2023-07-15T05:50:23.000Z</time>
</trkpt>
<trkpt lat="46.0352540" lon="9.4044030">
	<ele>1421.20</ele>
	<time>2023-07-15T05:50:24.000Z</time>
</trkpt>
<trkpt lat="46.0352510" lon="9.4043990">
	<ele>1421.20</ele>
	<time>2023-07-15T05:50:25.000Z</time>
</trkpt>
<trkpt lat="46.0352380" lon="9.4043940">
	<ele>1421.60</ele>
	<time>2023-07-15T05:50:27.000Z</time>
</trkpt>
<trkpt lat="46.0352380" lon="9.4043920">
	<ele>1421.60</ele>
	<time>2023-07-15T05:50:28.000Z</time>
</trkpt>
<trkpt lat="46.0352380" lon="9.4043900">
	<ele>1421.80</ele>
	<time>2023-07-15T05:50:29.000Z</time>
</trkpt>
<trkpt lat="46.0352230" lon="9.4043910">
	<ele>1422.00</ele>
	<time>2023-07-15T05:50:31.000Z</time>
</trkpt>
<trkpt lat="46.0351880" lon="9.4043810">
	<ele>1422.40</ele>
	<time>2023-07-15T05:50:34.000Z</time>
</trkpt>
<trkpt lat="46.0351680" lon="9.4043750">
	<ele>1422.60</ele>
	<time>2023-07-15T05:50:36.000Z</time>
</trkpt>
<trkpt lat="46.0351700" lon="9.4043700">
	<ele>1422.80</ele>
	<time>2023-07-15T05:50:38.000Z</time>
</trkpt>
<trkpt lat="46.0351620" lon="9.4043670">
	<ele>1423.00</ele>
	<time>2023-07-15T05:50:39.000Z</time>
</trkpt>
<trkpt lat="46.0351350" lon="9.4043670">
	<ele>1423.20</ele>
	<time>2023-07-15T05:50:41.000Z</time>
</trkpt>
<trkpt lat="46.0351170" lon="9.4043590">
	<ele>1423.20</ele>
	<time>2023-07-15T05:50:43.000Z</time>
</trkpt>
<trkpt lat="46.0351120" lon="9.4043610">
	<ele>1423.80</ele>
	<time>2023-07-15T05:50:45.000Z</time>
</trkpt>
<trkpt lat="46.0351080" lon="9.4043550">
	<ele>1424.00</ele>
	<time>2023-07-15T05:50:46.000Z</time>
</trkpt>
<trkpt lat="46.0350120" lon="9.4043310">
	<ele>1425.00</ele>
	<time>2023-07-15T05:50:52.000Z</time>
</trkpt>
<trkpt lat="46.0350080" lon="9.4043260">
	<ele>1425.00</ele>
	<time>2023-07-15T05:50:53.000Z</time>
</trkpt>
<trkpt lat="46.0350040" lon="9.4043240">
	<ele>1425.20</ele>
	<time>2023-07-15T05:50:54.000Z</time>
</trkpt>
<trkpt lat="46.0349930" lon="9.4043320">
	<ele>1425.20</ele>
	<time>2023-07-15T05:50:55.000Z</time>
</trkpt>
<trkpt lat="46.0349870" lon="9.4043270">
	<ele>1425.60</ele>
	<time>2023-07-15T05:50:58.000Z</time>
</trkpt>
<trkpt lat="46.0349630" lon="9.4043100">
	<ele>1426.00</ele>
	<time>2023-07-15T05:51:00.000Z</time>
</trkpt>
<trkpt lat="46.0349350" lon="9.4043030">
	<ele>1426.20</ele>
	<time>2023-07-15T05:51:02.000Z</time>
</trkpt>
<trkpt lat="46.0349130" lon="9.4043160">
	<ele>1426.40</ele>
	<time>2023-07-15T05:51:04.000Z</time>
</trkpt>
<trkpt lat="46.0349000" lon="9.4043200">
	<ele>1427.00</ele>
	<time>2023-07-15T05:51:06.000Z</time>
</trkpt>
<trkpt lat="46.0348990" lon="9.4043190">
	<ele>1427.40</ele>
	<time>2023-07-15T05:51:08.000Z</time>
</trkpt>
<trkpt lat="46.0348980" lon="9.4043290">
	<ele>1427.60</ele>
	<time>2023-07-15T05:51:10.000Z</time>
</trkpt>
<trkpt lat="46.0348860" lon="9.4043210">
	<ele>1428.00</ele>
	<time>2023-07-15T05:51:12.000Z</time>
</trkpt>
<trkpt lat="46.0348840" lon="9.4043170">
	<ele>1428.20</ele>
	<time>2023-07-15T05:51:13.000Z</time>
</trkpt>
<trkpt lat="46.0348640" lon="9.4043140">
	<ele>1428.40</ele>
	<time>2023-07-15T05:51:15.000Z</time>
</trkpt>
<trkpt lat="46.0348590" lon="9.4043220">
	<ele>1428.80</ele>
	<time>2023-07-15T05:51:17.000Z</time>
</trkpt>
<trkpt lat="46.0348500" lon="9.4043230">
	<ele>1429.00</ele>
	<time>2023-07-15T05:51:19.000Z</time>
</trkpt>
<trkpt lat="46.0348470" lon="9.4043230">
	<ele>1429.20</ele>
	<time>2023-07-15T05:51:20.000Z</time>
</trkpt>
<trkpt lat="46.0348460" lon="9.4043210">
	<ele>1429.40</ele>
	<time>2023-07-15T05:51:21.000Z</time>
</trkpt>
<trkpt lat="46.0348360" lon="9.4043160">
	<ele>1429.40</ele>
	<time>2023-07-15T05:51:22.000Z</time>
</trkpt>
<trkpt lat="46.0348230" lon="9.4043150">
	<ele>1429.60</ele>
	<time>2023-07-15T05:51:23.000Z</time>
</trkpt>
<trkpt lat="46.0347670" lon="9.4043140">
	<ele>1430.00</ele>
	<time>2023-07-15T05:51:27.000Z</time>
</trkpt>
<trkpt lat="46.0347530" lon="9.4043120">
	<ele>1430.20</ele>
	<time>2023-07-15T05:51:28.000Z</time>
</trkpt>
<trkpt lat="46.0346680" lon="9.4042860">
	<ele>1431.00</ele>
	<time>2023-07-15T05:51:33.000Z</time>
</trkpt>
<trkpt lat="46.0346350" lon="9.4042950">
	<ele>1431.20</ele>
	<time>2023-07-15T05:51:35.000Z</time>
</trkpt>
<trkpt lat="46.0345960" lon="9.4042950">
	<ele>1431.80</ele>
	<time>2023-07-15T05:51:38.000Z</time>
</trkpt>
<trkpt lat="46.0345890" lon="9.4042950">
	<ele>1431.80</ele>
	<time>2023-07-15T05:51:39.000Z</time>
</trkpt>
<trkpt lat="46.0345760" lon="9.4042970">
	<ele>1432.00</ele>
	<time>2023-07-15T05:51:40.000Z</time>
</trkpt>
<trkpt lat="46.0345730" lon="9.4042980">
	<ele>1432.20</ele>
	<time>2023-07-15T05:51:41.000Z</time>
</trkpt>
<trkpt lat="46.0345730" lon="9.4042950">
	<ele>1432.40</ele>
	<time>2023-07-15T05:51:42.000Z</time>
</trkpt>
<trkpt lat="46.0345690" lon="9.4042840">
	<ele>1432.40</ele>
	<time>2023-07-15T05:51:43.000Z</time>
</trkpt>
<trkpt lat="46.0345260" lon="9.4042540">
	<ele>1433.00</ele>
	<time>2023-07-15T05:51:47.000Z</time>
</trkpt>
<trkpt lat="46.0345180" lon="9.4042540">
	<ele>1433.20</ele>
	<time>2023-07-15T05:51:48.000Z</time>
</trkpt>
<trkpt lat="46.0345140" lon="9.4042540">
	<ele>1433.40</ele>
	<time>2023-07-15T05:51:49.000Z</time>
</trkpt>
<trkpt lat="46.0344930" lon="9.4042630">
	<ele>1434.20</ele>
	<time>2023-07-15T05:51:54.000Z</time>
</trkpt>
<trkpt lat="46.0344940" lon="9.4042580">
	<ele>1434.40</ele>
	<time>2023-07-15T05:51:55.000Z</time>
</trkpt>
<trkpt lat="46.0344910" lon="9.4042500">
	<ele>1434.80</ele>
	<time>2023-07-15T05:51:57.000Z</time>
</trkpt>
<trkpt lat="46.0344840" lon="9.4042490">
	<ele>1435.00</ele>
	<time>2023-07-15T05:51:59.000Z</time>
</trkpt>
<trkpt lat="46.0344880" lon="9.4042490">
	<ele>1435.40</ele>
	<time>2023-07-15T05:52:01.000Z</time>
</trkpt>
<trkpt lat="46.0344930" lon="9.4042490">
	<ele>1435.40</ele>
	<time>2023-07-15T05:52:02.000Z</time>
</trkpt>
<trkpt lat="46.0345090" lon="9.4042420">
	<ele>1435.40</ele>
	<time>2023-07-15T05:52:05.000Z</time>
</trkpt>
<trkpt lat="46.0345020" lon="9.4042270">
	<ele>1435.60</ele>
	<time>2023-07-15T05:52:08.000Z</time>
</trkpt>
<trkpt lat="46.0344890" lon="9.4042090">
	<ele>1436.00</ele>
	<time>2023-07-15T05:52:10.000Z</time>
</trkpt>
<trkpt lat="46.0344900" lon="9.4042080">
	<ele>1436.00</ele>
	<time>2023-07-15T05:52:11.000Z</time>
</trkpt>
<trkpt lat="46.0344770" lon="9.4042070">
	<ele>1436.40</ele>
	<time>2023-07-15T05:52:14.000Z</time>
</trkpt>
<trkpt lat="46.0344860" lon="9.4042250">
	<ele>1435.60</ele>
	<time>2023-07-15T05:52:22.000Z</time>
</trkpt>
<trkpt lat="46.0344370" lon="9.4042370">
	<ele>1435.80</ele>
	<time>2023-07-15T05:52:26.000Z</time>
</trkpt>
<trkpt lat="46.0343990" lon="9.4042270">
	<ele>1436.20</ele>
	<time>2023-07-15T05:52:30.000Z</time>
</trkpt>
<trkpt lat="46.0343930" lon="9.4042250">
	<ele>1436.40</ele>
	<time>2023-07-15T05:52:31.000Z</time>
</trkpt>
<trkpt lat="46.0343330" lon="9.4042290">
	<ele>1437.00</ele>
	<time>2023-07-15T05:52:34.000Z</time>
</trkpt>
<trkpt lat="46.0342960" lon="9.4042270">
	<ele>1437.40</ele>
	<time>2023-07-15T05:52:36.000Z</time>
</trkpt>
<trkpt lat="46.0342810" lon="9.4042280">
	<ele>1437.40</ele>
	<time>2023-07-15T05:52:37.000Z</time>
</trkpt>
<trkpt lat="46.0342810" lon="9.4042300">
	<ele>1437.60</ele>
	<time>2023-07-15T05:52:38.000Z</time>
</trkpt>
<trkpt lat="46.0342820" lon="9.4042300">
	<ele>1437.80</ele>
	<time>2023-07-15T05:52:40.000Z</time>
</trkpt>
<trkpt lat="46.0342760" lon="9.4042310">
	<ele>1437.80</ele>
	<time>2023-07-15T05:52:41.000Z</time>
</trkpt>
<trkpt lat="46.0342730" lon="9.4042500">
	<ele>1438.20</ele>
	<time>2023-07-15T05:52:45.000Z</time>
</trkpt>
<trkpt lat="46.0342680" lon="9.4042650">
	<ele>1438.60</ele>
	<time>2023-07-15T05:52:47.000Z</time>
</trkpt>
<trkpt lat="46.0342470" lon="9.4042760">
	<ele>1439.00</ele>
	<time>2023-07-15T05:52:50.000Z</time>
</trkpt>
<trkpt lat="46.0342510" lon="9.4042690">
	<ele>1439.40</ele>
	<time>2023-07-15T05:52:52.000Z</time>
</trkpt>
<trkpt lat="46.0342600" lon="9.4042690">
	<ele>1439.60</ele>
	<time>2023-07-15T05:52:53.000Z</time>
</trkpt>
<trkpt lat="46.0342500" lon="9.4042920">
	<ele>1440.40</ele>
	<time>2023-07-15T05:52:57.000Z</time>
</trkpt>
<trkpt lat="46.0342480" lon="9.4043030">
	<ele>1440.60</ele>
	<time>2023-07-15T05:52:58.000Z</time>
</trkpt>
<trkpt lat="46.0342480" lon="9.4043140">
	<ele>1440.80</ele>
	<time>2023-07-15T05:52:59.000Z</time>
</trkpt>
<trkpt lat="46.0341900" lon="9.4043640">
	<ele>1441.40</ele>
	<time>2023-07-15T05:53:02.000Z</time>
</trkpt>
<trkpt lat="46.0341460" lon="9.4043810">
	<ele>1441.80</ele>
	<time>2023-07-15T05:53:04.000Z</time>
</trkpt>
<trkpt lat="46.0340640" lon="9.4043670">
	<ele>1442.60</ele>
	<time>2023-07-15T05:53:09.000Z</time>
</trkpt>
<trkpt lat="46.0340540" lon="9.4043780">
	<ele>1442.80</ele>
	<time>2023-07-15T05:53:11.000Z</time>
</trkpt>
<trkpt lat="46.0340380" lon="9.4044020">
	<ele>1443.60</ele>
	<time>2023-07-15T05:53:15.000Z</time>
</trkpt>
<trkpt lat="46.0340360" lon="9.4044130">
	<ele>1443.80</ele>
	<time>2023-07-15T05:53:17.000Z</time>
</trkpt>
<trkpt lat="46.0340290" lon="9.4044120">
	<ele>1444.00</ele>
	<time>2023-07-15T05:53:18.000Z</time>
</trkpt>
<trkpt lat="46.0340240" lon="9.4044310">
	<ele>1444.20</ele>
	<time>2023-07-15T05:53:19.000Z</time>
</trkpt>
<trkpt lat="46.0340100" lon="9.4044440">
	<ele>1444.20</ele>
	<time>2023-07-15T05:53:20.000Z</time>
</trkpt>
<trkpt lat="46.0339980" lon="9.4044550">
	<ele>1444.60</ele>
	<time>2023-07-15T05:53:21.000Z</time>
</trkpt>
<trkpt lat="46.0339690" lon="9.4044860">
	<ele>1445.00</ele>
	<time>2023-07-15T05:53:24.000Z</time>
</trkpt>
<trkpt lat="46.0339660" lon="9.4044950">
	<ele>1445.20</ele>
	<time>2023-07-15T05:53:25.000Z</time>
</trkpt>
<trkpt lat="46.0339300" lon="9.4045310">
	<ele>1446.00</ele>
	<time>2023-07-15T05:53:29.000Z</time>
</trkpt>
<trkpt lat="46.0339200" lon="9.4045410">
	<ele>1446.40</ele>
	<time>2023-07-15T05:53:30.000Z</time>
</trkpt>
<trkpt lat="46.0339080" lon="9.4045600">
	<ele>1446.60</ele>
	<time>2023-07-15T05:53:32.000Z</time>
</trkpt>
<trkpt lat="46.0338920" lon="9.4045590">
	<ele>1447.00</ele>
	<time>2023-07-15T05:53:34.000Z</time>
</trkpt>
<trkpt lat="46.0338800" lon="9.4045590">
	<ele>1447.20</ele>
	<time>2023-07-15T05:53:35.000Z</time>
</trkpt>
<trkpt lat="46.0338590" lon="9.4045740">
	<ele>1447.60</ele>
	<time>2023-07-15T05:53:37.000Z</time>
</trkpt>
<trkpt lat="46.0338440" lon="9.4045910">
	<ele>1447.80</ele>
	<time>2023-07-15T05:53:38.000Z</time>
</trkpt>
<trkpt lat="46.0338130" lon="9.4046210">
	<ele>1448.00</ele>
	<time>2023-07-15T05:53:40.000Z</time>
</trkpt>
<trkpt lat="46.0337990" lon="9.4046240">
	<ele>1448.40</ele>
	<time>2023-07-15T05:53:43.000Z</time>
</trkpt>
<trkpt lat="46.0337940" lon="9.4046330">
	<ele>1448.60</ele>
	<time>2023-07-15T05:53:44.000Z</time>
</trkpt>
<trkpt lat="46.0337810" lon="9.4046320">
	<ele>1448.80</ele>
	<time>2023-07-15T05:53:46.000Z</time>
</trkpt>
<trkpt lat="46.0337710" lon="9.4046260">
	<ele>1449.20</ele>
	<time>2023-07-15T05:53:49.000Z</time>
</trkpt>
<trkpt lat="46.0337500" lon="9.4046320">
	<ele>1449.40</ele>
	<time>2023-07-15T05:53:50.000Z</time>
</trkpt>
<trkpt lat="46.0337350" lon="9.4046430">
	<ele>1449.60</ele>
	<time>2023-07-15T05:53:51.000Z</time>
</trkpt>
<trkpt lat="46.0337150" lon="9.4046540">
	<ele>1450.00</ele>
	<time>2023-07-15T05:53:53.000Z</time>
</trkpt>
<trkpt lat="46.0337030" lon="9.4046580">
	<ele>1450.40</ele>
	<time>2023-07-15T05:53:56.000Z</time>
</trkpt>
<trkpt lat="46.0336870" lon="9.4046720">
	<ele>1450.60</ele>
	<time>2023-07-15T05:53:58.000Z</time>
</trkpt>
<trkpt lat="46.0336770" lon="9.4046810">
	<ele>1450.60</ele>
	<time>2023-07-15T05:53:59.000Z</time>
</trkpt>
<trkpt lat="46.0336640" lon="9.4046880">
	<ele>1450.60</ele>
	<time>2023-07-15T05:54:00.000Z</time>
</trkpt>
<trkpt lat="46.0336230" lon="9.4047210">
	<ele>1450.80</ele>
	<time>2023-07-15T05:54:05.000Z</time>
</trkpt>
<trkpt lat="46.0336420" lon="9.4047380">
	<ele>1451.00</ele>
	<time>2023-07-15T05:54:08.000Z</time>
</trkpt>
<trkpt lat="46.0336470" lon="9.4047620">
	<ele>1451.20</ele>
	<time>2023-07-15T05:54:10.000Z</time>
</trkpt>
<trkpt lat="46.0336500" lon="9.4047880">
	<ele>1451.60</ele>
	<time>2023-07-15T05:54:13.000Z</time>
</trkpt>
<trkpt lat="46.0336490" lon="9.4048040">
	<ele>1451.60</ele>
	<time>2023-07-15T05:54:15.000Z</time>
</trkpt>
<trkpt lat="46.0336520" lon="9.4048030">
	<ele>1451.80</ele>
	<time>2023-07-15T05:54:16.000Z</time>
</trkpt>
<trkpt lat="46.0336590" lon="9.4048050">
	<ele>1451.80</ele>
	<time>2023-07-15T05:54:17.000Z</time>
</trkpt>
<trkpt lat="46.0335830" lon="9.4048490">
	<ele>1452.20</ele>
	<time>2023-07-15T05:54:22.000Z</time>
</trkpt>
<trkpt lat="46.0334530" lon="9.4048780">
	<ele>1452.80</ele>
	<time>2023-07-15T05:54:29.000Z</time>
</trkpt>
<trkpt lat="46.0334050" lon="9.4048910">
	<ele>1453.00</ele>
	<time>2023-07-15T05:54:32.000Z</time>
</trkpt>
<trkpt lat="46.0333450" lon="9.4049190">
	<ele>1453.20</ele>
	<time>2023-07-15T05:54:35.000Z</time>
</trkpt>
<trkpt lat="46.0333670" lon="9.4049240">
	<ele>1453.40</ele>
	<time>2023-07-15T05:54:38.000Z</time>
</trkpt>
<trkpt lat="46.0333140" lon="9.4048750">
	<ele>1454.00</ele>
	<time>2023-07-15T05:54:45.000Z</time>
</trkpt>
<trkpt lat="46.0333020" lon="9.4048720">
	<ele>1454.20</ele>
	<time>2023-07-15T05:54:46.000Z</time>
</trkpt>
<trkpt lat="46.0332480" lon="9.4048890">
	<ele>1454.80</ele>
	<time>2023-07-15T05:54:50.000Z</time>
</trkpt>
<trkpt lat="46.0332220" lon="9.4048990">
	<ele>1454.80</ele>
	<time>2023-07-15T05:54:52.000Z</time>
</trkpt>
<trkpt lat="46.0332090" lon="9.4049020">
	<ele>1454.80</ele>
	<time>2023-07-15T05:54:54.000Z</time>
</trkpt>
<trkpt lat="46.0331970" lon="9.4049250">
	<ele>1455.00</ele>
	<time>2023-07-15T05:54:59.000Z</time>
</trkpt>
<trkpt lat="46.0331780" lon="9.4049320">
	<ele>1455.00</ele>
	<time>2023-07-15T05:55:00.000Z</time>
</trkpt>
<trkpt lat="46.0331080" lon="9.4049630">
	<ele>1455.60</ele>
	<time>2023-07-15T05:55:04.000Z</time>
</trkpt>
<trkpt lat="46.0330950" lon="9.4049660">
	<ele>1456.00</ele>
	<time>2023-07-15T05:55:05.000Z</time>
</trkpt>
<trkpt lat="46.0330830" lon="9.4049730">
	<ele>1456.00</ele>
	<time>2023-07-15T05:55:06.000Z</time>
</trkpt>
<trkpt lat="46.0330030" lon="9.4050070">
	<ele>1456.80</ele>
	<time>2023-07-15T05:55:13.000Z</time>
</trkpt>
<trkpt lat="46.0329650" lon="9.4050290">
	<ele>1457.00</ele>
	<time>2023-07-15T05:55:16.000Z</time>
</trkpt>
<trkpt lat="46.0328420" lon="9.4050690">
	<ele>1457.40</ele>
	<time>2023-07-15T05:55:21.000Z</time>
</trkpt>
<trkpt lat="46.0328030" lon="9.4051010">
	<ele>1457.80</ele>
	<time>2023-07-15T05:55:24.000Z</time>
</trkpt>
<trkpt lat="46.0328090" lon="9.4051150">
	<ele>1458.00</ele>
	<time>2023-07-15T05:55:27.000Z</time>
</trkpt>
<trkpt lat="46.0327990" lon="9.4051240">
	<ele>1458.20</ele>
	<time>2023-07-15T05:55:28.000Z</time>
</trkpt>
<trkpt lat="46.0327670" lon="9.4051600">
	<ele>1459.00</ele>
	<time>2023-07-15T05:55:34.000Z</time>
</trkpt>
<trkpt lat="46.0327690" lon="9.4051740">
	<ele>1459.40</ele>
	<time>2023-07-15T05:55:36.000Z</time>
</trkpt>
<trkpt lat="46.0326990" lon="9.4051670">
	<ele>1460.20</ele>
	<time>2023-07-15T05:55:43.000Z</time>
</trkpt>
<trkpt lat="46.0326910" lon="9.4051650">
	<ele>1460.40</ele>
	<time>2023-07-15T05:55:44.000Z</time>
</trkpt>
<trkpt lat="46.0326530" lon="9.4051640">
	<ele>1461.20</ele>
	<time>2023-07-15T05:55:50.000Z</time>
</trkpt>
<trkpt lat="46.0326480" lon="9.4052620">
	<ele>1461.40</ele>
	<time>2023-07-15T05:55:55.000Z</time>
</trkpt>
<trkpt lat="46.0326140" lon="9.4052680">
	<ele>1461.80</ele>
	<time>2023-07-15T05:55:59.000Z</time>
</trkpt>
<trkpt lat="46.0325720" lon="9.4052840">
	<ele>1462.60</ele>
	<time>2023-07-15T05:56:03.000Z</time>
</trkpt>
<trkpt lat="46.0325600" lon="9.4052830">
	<ele>1462.80</ele>
	<time>2023-07-15T05:56:04.000Z</time>
</trkpt>
<trkpt lat="46.0325510" lon="9.4052870">
	<ele>1462.80</ele>
	<time>2023-07-15T05:56:07.000Z</time>
</trkpt>
<trkpt lat="46.0325520" lon="9.4052830">
	<ele>1462.80</ele>
	<time>2023-07-15T05:56:08.000Z</time>
</trkpt>
<trkpt lat="46.0325660" lon="9.4052770">
	<ele>1462.40</ele>
	<time>2023-07-15T05:56:10.000Z</time>
</trkpt>
<trkpt lat="46.0325700" lon="9.4052770">
	<ele>1462.40</ele>
	<time>2023-07-15T05:56:11.000Z</time>
</trkpt>
<trkpt lat="46.0325690" lon="9.4052830">
	<ele>1462.40</ele>
	<time>2023-07-15T05:56:13.000Z</time>
</trkpt>
<trkpt lat="46.0325430" lon="9.4052890">
	<ele>1462.40</ele>
	<time>2023-07-15T05:56:16.000Z</time>
</trkpt>
<trkpt lat="46.0325260" lon="9.4052940">
	<ele>1462.40</ele>
	<time>2023-07-15T05:56:17.000Z</time>
</trkpt>
<trkpt lat="46.0324510" lon="9.4053250">
	<ele>1463.20</ele>
	<time>2023-07-15T05:56:23.000Z</time>
</trkpt>
<trkpt lat="46.0324300" lon="9.4053450">
	<ele>1463.60</ele>
	<time>2023-07-15T05:56:25.000Z</time>
</trkpt>
<trkpt lat="46.0324220" lon="9.4053520">
	<ele>1463.60</ele>
	<time>2023-07-15T05:56:26.000Z</time>
</trkpt>
<trkpt lat="46.0324050" lon="9.4053590">
	<ele>1463.80</ele>
	<time>2023-07-15T05:56:28.000Z</time>
</trkpt>
<trkpt lat="46.0323990" lon="9.4053640">
	<ele>1464.00</ele>
	<time>2023-07-15T05:56:29.000Z</time>
</trkpt>
<trkpt lat="46.0323970" lon="9.4053910">
	<ele>1464.20</ele>
	<time>2023-07-15T05:56:31.000Z</time>
</trkpt>
<trkpt lat="46.0324080" lon="9.4054060">
	<ele>1464.40</ele>
	<time>2023-07-15T05:56:33.000Z</time>
</trkpt>
<trkpt lat="46.0323910" lon="9.4054070">
	<ele>1464.80</ele>
	<time>2023-07-15T05:56:35.000Z</time>
</trkpt>
<trkpt lat="46.0322980" lon="9.4054430">
	<ele>1465.60</ele>
	<time>2023-07-15T05:56:42.000Z</time>
</trkpt>
<trkpt lat="46.0322990" lon="9.4054420">
	<ele>1465.80</ele>
	<time>2023-07-15T05:56:44.000Z</time>
</trkpt>
<trkpt lat="46.0323110" lon="9.4054370">
	<ele>1466.40</ele>
	<time>2023-07-15T05:56:47.000Z</time>
</trkpt>
<trkpt lat="46.0323010" lon="9.4054390">
	<ele>1466.80</ele>
	<time>2023-07-15T05:56:51.000Z</time>
</trkpt>
<trkpt lat="46.0322950" lon="9.4054320">
	<ele>1466.80</ele>
	<time>2023-07-15T05:56:54.000Z</time>
</trkpt>
<trkpt lat="46.0322830" lon="9.4054210">
	<ele>1466.80</ele>
	<time>2023-07-15T05:56:56.000Z</time>
</trkpt>
<trkpt lat="46.0322680" lon="9.4054250">
	<ele>1467.00</ele>
	<time>2023-07-15T05:56:58.000Z</time>
</trkpt>
<trkpt lat="46.0322620" lon="9.4054240">
	<ele>1467.00</ele>
	<time>2023-07-15T05:56:59.000Z</time>
</trkpt>
<trkpt lat="46.0322360" lon="9.4054320">
	<ele>1467.00</ele>
	<time>2023-07-15T05:57:01.000Z</time>
</trkpt>
<trkpt lat="46.0321950" lon="9.4054520">
	<ele>1467.40</ele>
	<time>2023-07-15T05:57:04.000Z</time>
</trkpt>
<trkpt lat="46.0321980" lon="9.4054520">
	<ele>1467.60</ele>
	<time>2023-07-15T05:57:05.000Z</time>
</trkpt>
<trkpt lat="46.0321930" lon="9.4054530">
	<ele>1467.60</ele>
	<time>2023-07-15T05:57:07.000Z</time>
</trkpt>
<trkpt lat="46.0321880" lon="9.4054540">
	<ele>1467.80</ele>
	<time>2023-07-15T05:57:08.000Z</time>
</trkpt>
<trkpt lat="46.0321790" lon="9.4054520">
	<ele>1468.00</ele>
	<time>2023-07-15T05:57:09.000Z</time>
</trkpt>
<trkpt lat="46.0321550" lon="9.4054550">
	<ele>1468.60</ele>
	<time>2023-07-15T05:57:13.000Z</time>
</trkpt>
<trkpt lat="46.0321440" lon="9.4054510">
	<ele>1469.00</ele>
	<time>2023-07-15T05:57:15.000Z</time>
</trkpt>
<trkpt lat="46.0321300" lon="9.4054510">
	<ele>1469.00</ele>
	<time>2023-07-15T05:57:16.000Z</time>
</trkpt>
<trkpt lat="46.0321160" lon="9.4054440">
	<ele>1469.00</ele>
	<time>2023-07-15T05:57:17.000Z</time>
</trkpt>
<trkpt lat="46.0320700" lon="9.4054360">
	<ele>1469.20</ele>
	<time>2023-07-15T05:57:20.000Z</time>
</trkpt>
<trkpt lat="46.0320450" lon="9.4054340">
	<ele>1469.40</ele>
	<time>2023-07-15T05:57:22.000Z</time>
</trkpt>
<trkpt lat="46.0320290" lon="9.4054380">
	<ele>1469.60</ele>
	<time>2023-07-15T05:57:23.000Z</time>
</trkpt>
<trkpt lat="46.0320060" lon="9.4054260">
	<ele>1469.80</ele>
	<time>2023-07-15T05:57:26.000Z</time>
</trkpt>
<trkpt lat="46.0320050" lon="9.4054190">
	<ele>1469.80</ele>
	<time>2023-07-15T05:57:27.000Z</time>
</trkpt>
<trkpt lat="46.0320150" lon="9.4054100">
	<ele>1470.00</ele>
	<time>2023-07-15T05:57:28.000Z</time>
</trkpt>
<trkpt lat="46.0320140" lon="9.4054020">
	<ele>1470.20</ele>
	<time>2023-07-15T05:57:31.000Z</time>
</trkpt>
<trkpt lat="46.0319850" lon="9.4053990">
	<ele>1470.40</ele>
	<time>2023-07-15T05:57:33.000Z</time>
</trkpt>
<trkpt lat="46.0319260" lon="9.4053820">
	<ele>1470.60</ele>
	<time>2023-07-15T05:57:36.000Z</time>
</trkpt>
<trkpt lat="46.0318440" lon="9.4053260">
	<ele>1471.00</ele>
	<time>2023-07-15T05:57:42.000Z</time>
</trkpt>
<trkpt lat="46.0317990" lon="9.4053240">
	<ele>1471.00</ele>
	<time>2023-07-15T05:57:44.000Z</time>
</trkpt>
<trkpt lat="46.0316530" lon="9.4052560">
	<ele>1471.40</ele>
	<time>2023-07-15T05:57:51.000Z</time>
</trkpt>
<trkpt lat="46.0316320" lon="9.4052570">
	<ele>1471.40</ele>
	<time>2023-07-15T05:57:52.000Z</time>
</trkpt>
<trkpt lat="46.0315430" lon="9.4052520">
	<ele>1471.40</ele>
	<time>2023-07-15T05:57:57.000Z</time>
</trkpt>
<trkpt lat="46.0314700" lon="9.4051900">
	<ele>1471.80</ele>
	<time>2023-07-15T05:58:05.000Z</time>
</trkpt>
<trkpt lat="46.0314450" lon="9.4051770">
	<ele>1471.80</ele>
	<time>2023-07-15T05:58:07.000Z</time>
</trkpt>
<trkpt lat="46.0314280" lon="9.4051510">
	<ele>1471.80</ele>
	<time>2023-07-15T05:58:10.000Z</time>
</trkpt>
<trkpt lat="46.0314190" lon="9.4051370">
	<ele>1472.00</ele>
	<time>2023-07-15T05:58:11.000Z</time>
</trkpt>
<trkpt lat="46.0313820" lon="9.4051060">
	<ele>1472.00</ele>
	<time>2023-07-15T05:58:15.000Z</time>
</trkpt>
<trkpt lat="46.0313760" lon="9.4050920">
	<ele>1472.00</ele>
	<time>2023-07-15T05:58:16.000Z</time>
</trkpt>
<trkpt lat="46.0313620" lon="9.4050880">
	<ele>1472.00</ele>
	<time>2023-07-15T05:58:17.000Z</time>
</trkpt>
<trkpt lat="46.0313550" lon="9.4050810">
	<ele>1472.00</ele>
	<time>2023-07-15T05:58:18.000Z</time>
</trkpt>
<trkpt lat="46.0313390" lon="9.4050200">
	<ele>1472.20</ele>
	<time>2023-07-15T05:58:22.000Z</time>
</trkpt>
<trkpt lat="46.0313330" lon="9.4050030">
	<ele>1472.20</ele>
	<time>2023-07-15T05:58:24.000Z</time>
</trkpt>
<trkpt lat="46.0313360" lon="9.4049810">
	<ele>1472.20</ele>
	<time>2023-07-15T05:58:27.000Z</time>
</trkpt>
<trkpt lat="46.0313160" lon="9.4049810">
	<ele>1472.20</ele>
	<time>2023-07-15T05:58:29.000Z</time>
</trkpt>
<trkpt lat="46.0312890" lon="9.4049670">
	<ele>1472.20</ele>
	<time>2023-07-15T05:58:31.000Z</time>
</trkpt>
<trkpt lat="46.0312650" lon="9.4049740">
	<ele>1472.00</ele>
	<time>2023-07-15T05:58:34.000Z</time>
</trkpt>
<trkpt lat="46.0312650" lon="9.4049740">
	<ele>1472.00</ele>
	<time>2023-07-15T05:58:35.000Z</time>
</trkpt>
<trkpt lat="46.0312630" lon="9.4049730">
	<ele>1472.00</ele>
	<time>2023-07-15T05:58:36.000Z</time>
</trkpt>
<trkpt lat="46.0312330" lon="9.4049010">
	<ele>1472.00</ele>
	<time>2023-07-15T05:58:40.000Z</time>
</trkpt>
<trkpt lat="46.0311930" lon="9.4048770">
	<ele>1472.20</ele>
	<time>2023-07-15T05:58:44.000Z</time>
</trkpt>
<trkpt lat="46.0311730" lon="9.4048930">
	<ele>1472.40</ele>
	<time>2023-07-15T05:58:47.000Z</time>
</trkpt>
<trkpt lat="46.0311090" lon="9.4049010">
	<ele>1472.40</ele>
	<time>2023-07-15T05:58:53.000Z</time>
</trkpt>
<trkpt lat="46.0311000" lon="9.4049140">
	<ele>1472.80</ele>
	<time>2023-07-15T05:58:58.000Z</time>
</trkpt>
<trkpt lat="46.0309830" lon="9.4049180">
	<ele>1472.80</ele>
	<time>2023-07-15T05:59:05.000Z</time>
</trkpt>
<trkpt lat="46.0309760" lon="9.4049060">
	<ele>1473.00</ele>
	<time>2023-07-15T05:59:07.000Z</time>
</trkpt>
<trkpt lat="46.0309550" lon="9.4048930">
	<ele>1473.20</ele>
	<time>2023-07-15T05:59:09.000Z</time>
</trkpt>
<trkpt lat="46.0309300" lon="9.4048900">
	<ele>1473.40</ele>
	<time>2023-07-15T05:59:11.000Z</time>
</trkpt>
<trkpt lat="46.0309000" lon="9.4048960">
	<ele>1473.40</ele>
	<time>2023-07-15T05:59:13.000Z</time>
</trkpt>
<trkpt lat="46.0308840" lon="9.4048970">
	<ele>1473.60</ele>
	<time>2023-07-15T05:59:14.000Z</time>
</trkpt>
<trkpt lat="46.0307530" lon="9.4049130">
	<ele>1474.20</ele>
	<time>2023-07-15T05:59:20.000Z</time>
</trkpt>
<trkpt lat="46.0307300" lon="9.4049120">
	<ele>1474.60</ele>
	<time>2023-07-15T05:59:22.000Z</time>
</trkpt>
<trkpt lat="46.0307000" lon="9.4049210">
	<ele>1474.40</ele>
	<time>2023-07-15T05:59:25.000Z</time>
</trkpt>
<trkpt lat="46.0306750" lon="9.4049440">
	<ele>1474.40</ele>
	<time>2023-07-15T05:59:27.000Z</time>
</trkpt>
<trkpt lat="46.0306610" lon="9.4049440">
	<ele>1474.40</ele>
	<time>2023-07-15T05:59:28.000Z</time>
</trkpt>
<trkpt lat="46.0306220" lon="9.4049400">
	<ele>1474.40</ele>
	<time>2023-07-15T05:59:31.000Z</time>
</trkpt>
<trkpt lat="46.0305960" lon="9.4049460">
	<ele>1474.80</ele>
	<time>2023-07-15T05:59:35.000Z</time>
</trkpt>
<trkpt lat="46.0305100" lon="9.4049060">
	<ele>1475.20</ele>
	<time>2023-07-15T05:59:40.000Z</time>
</trkpt>
<trkpt lat="46.0304980" lon="9.4049080">
	<ele>1475.20</ele>
	<time>2023-07-15T05:59:41.000Z</time>
</trkpt>
<trkpt lat="46.0304820" lon="9.4049280">
	<ele>1475.60</ele>
	<time>2023-07-15T05:59:45.000Z</time>
</trkpt>
<trkpt lat="46.0304220" lon="9.4049670">
	<ele>1475.80</ele>
	<time>2023-07-15T05:59:49.000Z</time>
</trkpt>
<trkpt lat="46.0303820" lon="9.4049600">
	<ele>1476.20</ele>
	<time>2023-07-15T05:59:53.000Z</time>
</trkpt>
<trkpt lat="46.0303780" lon="9.4049550">
	<ele>1476.20</ele>
	<time>2023-07-15T05:59:54.000Z</time>
</trkpt>
<trkpt lat="46.0303270" lon="9.4049540">
	<ele>1476.20</ele>
	<time>2023-07-15T05:59:57.000Z</time>
</trkpt>
<trkpt lat="46.0303100" lon="9.4049640">
	<ele>1476.20</ele>
	<time>2023-07-15T05:59:58.000Z</time>
</trkpt>
<trkpt lat="46.0302860" lon="9.4049700">
	<ele>1476.40</ele>
	<time>2023-07-15T05:59:59.000Z</time>
</trkpt>
<trkpt lat="46.0302510" lon="9.4049710">
	<ele>1476.40</ele>
	<time>2023-07-15T06:00:02.000Z</time>
</trkpt>
<trkpt lat="46.0302020" lon="9.4049760">
	<ele>1476.80</ele>
	<time>2023-07-15T06:00:07.000Z</time>
</trkpt>
<trkpt lat="46.0301940" lon="9.4049620">
	<ele>1477.00</ele>
	<time>2023-07-15T06:00:10.000Z</time>
</trkpt>
<trkpt lat="46.0301820" lon="9.4049560">
	<ele>1477.00</ele>
	<time>2023-07-15T06:00:11.000Z</time>
</trkpt>
<trkpt lat="46.0301750" lon="9.4049480">
	<ele>1477.00</ele>
	<time>2023-07-15T06:00:12.000Z</time>
</trkpt>
<trkpt lat="46.0301630" lon="9.4049360">
	<ele>1477.00</ele>
	<time>2023-07-15T06:00:17.000Z</time>
</trkpt>
<trkpt lat="46.0301640" lon="9.4049370">
	<ele>1477.40</ele>
	<time>2023-07-15T06:00:19.000Z</time>
</trkpt>
<trkpt lat="46.0301610" lon="9.4049360">
	<ele>1477.80</ele>
	<time>2023-07-15T06:00:24.000Z</time>
</trkpt>
<trkpt lat="46.0300870" lon="9.4049220">
	<ele>1477.80</ele>
	<time>2023-07-15T06:00:32.000Z</time>
</trkpt>
<trkpt lat="46.0300160" lon="9.4049200">
	<ele>1477.80</ele>
	<time>2023-07-15T06:00:38.000Z</time>
</trkpt>
<trkpt lat="46.0299770" lon="9.4048970">
	<ele>1478.20</ele>
	<time>2023-07-15T06:00:43.000Z</time>
</trkpt>
<trkpt lat="46.0299720" lon="9.4048700">
	<ele>1478.20</ele>
	<time>2023-07-15T06:00:46.000Z</time>
</trkpt>
<trkpt lat="46.0299570" lon="9.4048820">
	<ele>1478.40</ele>
	<time>2023-07-15T06:00:51.000Z</time>
</trkpt>
<trkpt lat="46.0299370" lon="9.4048850">
	<ele>1478.60</ele>
	<time>2023-07-15T06:00:56.000Z</time>
</trkpt>
<trkpt lat="46.0298790" lon="9.4048950">
	<ele>1479.00</ele>
	<time>2023-07-15T06:01:02.000Z</time>
</trkpt>
<trkpt lat="46.0298550" lon="9.4048700">
	<ele>1479.40</ele>
	<time>2023-07-15T06:01:05.000Z</time>
</trkpt>
<trkpt lat="46.0298020" lon="9.4048670">
	<ele>1479.60</ele>
	<time>2023-07-15T06:01:09.000Z</time>
</trkpt>
<trkpt lat="46.0297520" lon="9.4048760">
	<ele>1479.80</ele>
	<time>2023-07-15T06:01:13.000Z</time>
</trkpt>
<trkpt lat="46.0296910" lon="9.4048830">
	<ele>1480.00</ele>
	<time>2023-07-15T06:01:16.000Z</time>
</trkpt>
<trkpt lat="46.0296230" lon="9.4048810">
	<ele>1480.60</ele>
	<time>2023-07-15T06:01:21.000Z</time>
</trkpt>
<trkpt lat="46.0295560" lon="9.4048450">
	<ele>1481.00</ele>
	<time>2023-07-15T06:01:27.000Z</time>
</trkpt>
<trkpt lat="46.0295120" lon="9.4048270">
	<ele>1481.20</ele>
	<time>2023-07-15T06:01:34.000Z</time>
</trkpt>
<trkpt lat="46.0294970" lon="9.4048220">
	<ele>1481.20</ele>
	<time>2023-07-15T06:01:36.000Z</time>
</trkpt>
<trkpt lat="46.0294150" lon="9.4048230">
	<ele>1481.20</ele>
	<time>2023-07-15T06:01:40.000Z</time>
</trkpt>
<trkpt lat="46.0293830" lon="9.4048100">
	<ele>1481.60</ele>
	<time>2023-07-15T06:01:42.000Z</time>
</trkpt>
<trkpt lat="46.0293420" lon="9.4047950">
	<ele>1482.20</ele>
	<time>2023-07-15T06:01:48.000Z</time>
</trkpt>
<trkpt lat="46.0293250" lon="9.4047850">
	<ele>1482.20</ele>
	<time>2023-07-15T06:01:51.000Z</time>
</trkpt>
<trkpt lat="46.0292980" lon="9.4047820">
	<ele>1482.40</ele>
	<time>2023-07-15T06:01:53.000Z</time>
</trkpt>
<trkpt lat="46.0292640" lon="9.4047870">
	<ele>1482.80</ele>
	<time>2023-07-15T06:01:56.000Z</time>
</trkpt>
<trkpt lat="46.0292500" lon="9.4047890">
	<ele>1483.20</ele>
	<time>2023-07-15T06:01:59.000Z</time>
</trkpt>
<trkpt lat="46.0291670" lon="9.4047680">
	<ele>1483.60</ele>
	<time>2023-07-15T06:02:06.000Z</time>
</trkpt>
<trkpt lat="46.0290650" lon="9.4047710">
	<ele>1483.80</ele>
	<time>2023-07-15T06:02:16.000Z</time>
</trkpt>
<trkpt lat="46.0290490" lon="9.4047710">
	<ele>1483.80</ele>
	<time>2023-07-15T06:02:17.000Z</time>
</trkpt>
<trkpt lat="46.0289950" lon="9.4047730">
	<ele>1484.60</ele>
	<time>2023-07-15T06:02:25.000Z</time>
</trkpt>
<trkpt lat="46.0289560" lon="9.4047770">
	<ele>1484.60</ele>
	<time>2023-07-15T06:02:28.000Z</time>
</trkpt>
<trkpt lat="46.0289490" lon="9.4047720">
	<ele>1484.80</ele>
	<time>2023-07-15T06:02:29.000Z</time>
</trkpt>
<trkpt lat="46.0289190" lon="9.4047760">
	<ele>1485.20</ele>
	<time>2023-07-15T06:02:32.000Z</time>
</trkpt>
<trkpt lat="46.0287960" lon="9.4048020">
	<ele>1485.60</ele>
	<time>2023-07-15T06:02:41.000Z</time>
</trkpt>
<trkpt lat="46.0287560" lon="9.4048250">
	<ele>1486.00</ele>
	<time>2023-07-15T06:02:46.000Z</time>
</trkpt>
<trkpt lat="46.0287310" lon="9.4048280">
	<ele>1486.60</ele>
	<time>2023-07-15T06:02:49.000Z</time>
</trkpt>
<trkpt lat="46.0286690" lon="9.4048560">
	<ele>1487.20</ele>
	<time>2023-07-15T06:02:57.000Z</time>
</trkpt>
<trkpt lat="46.0286650" lon="9.4048570">
	<ele>1487.20</ele>
	<time>2023-07-15T06:02:58.000Z</time>
</trkpt>
<trkpt lat="46.0286350" lon="9.4048680">
	<ele>1487.60</ele>
	<time>2023-07-15T06:03:01.000Z</time>
</trkpt>
<trkpt lat="46.0286130" lon="9.4048660">
	<ele>1488.20</ele>
	<time>2023-07-15T06:03:04.000Z</time>
</trkpt>
<trkpt lat="46.0285150" lon="9.4049040">
	<ele>1488.80</ele>
	<time>2023-07-15T06:03:14.000Z</time>
</trkpt>
<trkpt lat="46.0284970" lon="9.4049140">
	<ele>1489.20</ele>
	<time>2023-07-15T06:03:16.000Z</time>
</trkpt>
<trkpt lat="46.0284130" lon="9.4049260">
	<ele>1490.20</ele>
	<time>2023-07-15T06:03:23.000Z</time>
</trkpt>
<trkpt lat="46.0284040" lon="9.4049300">
	<ele>1490.40</ele>
	<time>2023-07-15T06:03:24.000Z</time>
</trkpt>
<trkpt lat="46.0283250" lon="9.4049770">
	<ele>1491.40</ele>
	<time>2023-07-15T06:03:30.000Z</time>
</trkpt>
<trkpt lat="46.0282770" lon="9.4049900">
	<ele>1491.40</ele>
	<time>2023-07-15T06:03:33.000Z</time>
</trkpt>
<trkpt lat="46.0281840" lon="9.4050040">
	<ele>1491.60</ele>
	<time>2023-07-15T06:03:39.000Z</time>
</trkpt>
<trkpt lat="46.0281070" lon="9.4050080">
	<ele>1492.00</ele>
	<time>2023-07-15T06:03:46.000Z</time>
</trkpt>
<trkpt lat="46.0279980" lon="9.4049680">
	<ele>1491.60</ele>
	<time>2023-07-15T06:03:57.000Z</time>
</trkpt>
<trkpt lat="46.0279340" lon="9.4049350">
	<ele>1491.40</ele>
	<time>2023-07-15T06:04:03.000Z</time>
</trkpt>
<trkpt lat="46.0279200" lon="9.4049250">
	<ele>1491.40</ele>
	<time>2023-07-15T06:04:04.000Z</time>
</trkpt>
<trkpt lat="46.0278310" lon="9.4048780">
	<ele>1491.60</ele>
	<time>2023-07-15T06:04:12.000Z</time>
</trkpt>
<trkpt lat="46.0278040" lon="9.4048310">
	<ele>1491.60</ele>
	<time>2023-07-15T06:04:16.000Z</time>
</trkpt>
<trkpt lat="46.0277790" lon="9.4048080">
	<ele>1491.60</ele>
	<time>2023-07-15T06:04:18.000Z</time>
</trkpt>
<trkpt lat="46.0277680" lon="9.4048070">
	<ele>1491.60</ele>
	<time>2023-07-15T06:04:19.000Z</time>
</trkpt>
<trkpt lat="46.0277590" lon="9.4048070">
	<ele>1491.60</ele>
	<time>2023-07-15T06:04:21.000Z</time>
</trkpt>
<trkpt lat="46.0276660" lon="9.4048100">
	<ele>1491.60</ele>
	<time>2023-07-15T06:04:27.000Z</time>
</trkpt>
<trkpt lat="46.0276040" lon="9.4048310">
	<ele>1491.60</ele>
	<time>2023-07-15T06:04:34.000Z</time>
</trkpt>
<trkpt lat="46.0275950" lon="9.4048480">
	<ele>1491.80</ele>
	<time>2023-07-15T06:04:36.000Z</time>
</trkpt>
<trkpt lat="46.0275930" lon="9.4048590">
	<ele>1491.80</ele>
	<time>2023-07-15T06:04:38.000Z</time>
</trkpt>
<trkpt lat="46.0275670" lon="9.4049140">
	<ele>1491.80</ele>
	<time>2023-07-15T06:04:42.000Z</time>
</trkpt>
<trkpt lat="46.0275620" lon="9.4049290">
	<ele>1491.80</ele>
	<time>2023-07-15T06:04:46.000Z</time>
</trkpt>
<trkpt lat="46.0275630" lon="9.4049340">
	<ele>1491.80</ele>
	<time>2023-07-15T06:04:48.000Z</time>
</trkpt>
<trkpt lat="46.0275620" lon="9.4049350">
	<ele>1492.00</ele>
	<time>2023-07-15T06:04:49.000Z</time>
</trkpt>
<trkpt lat="46.0275590" lon="9.4049460">
	<ele>1492.20</ele>
	<time>2023-07-15T06:04:52.000Z</time>
</trkpt>
<trkpt lat="46.0275670" lon="9.4049520">
	<ele>1492.20</ele>
	<time>2023-07-15T06:04:53.000Z</time>
</trkpt>
<trkpt lat="46.0275670" lon="9.4049560">
	<ele>1492.40</ele>
	<time>2023-07-15T06:04:54.000Z</time>
</trkpt>
<trkpt lat="46.0275680" lon="9.4049600">
	<ele>1492.60</ele>
	<time>2023-07-15T06:04:56.000Z</time>
</trkpt>
<trkpt lat="46.0275670" lon="9.4049620">
	<ele>1492.80</ele>
	<time>2023-07-15T06:04:59.000Z</time>
</trkpt>
<trkpt lat="46.0275670" lon="9.4049620">
	<ele>1492.80</ele>
	<time>2023-07-15T06:05:01.000Z</time>
</trkpt>
<trkpt lat="46.0275670" lon="9.4049620">
	<ele>1492.80</ele>
	<time>2023-07-15T06:05:07.000Z</time>
</trkpt>
<trkpt lat="46.0275680" lon="9.4049680">
	<ele>1493.00</ele>
	<time>2023-07-15T06:05:10.000Z</time>
</trkpt>
<trkpt lat="46.0275750" lon="9.4050240">
	<ele>1493.60</ele>
	<time>2023-07-15T06:05:14.000Z</time>
</trkpt>
<trkpt lat="46.0275790" lon="9.4050790">
	<ele>1494.40</ele>
	<time>2023-07-15T06:05:18.000Z</time>
</trkpt>
<trkpt lat="46.0275790" lon="9.4050900">
	<ele>1494.60</ele>
	<time>2023-07-15T06:05:19.000Z</time>
</trkpt>
<trkpt lat="46.0275790" lon="9.4050940">
	<ele>1494.80</ele>
	<time>2023-07-15T06:05:21.000Z</time>
</trkpt>
<trkpt lat="46.0275800" lon="9.4051030">
	<ele>1495.00</ele>
	<time>2023-07-15T06:05:22.000Z</time>
</trkpt>
<trkpt lat="46.0275770" lon="9.4051120">
	<ele>1495.00</ele>
	<time>2023-07-15T06:05:24.000Z</time>
</trkpt>
<trkpt lat="46.0275870" lon="9.4051430">
	<ele>1495.00</ele>
	<time>2023-07-15T06:05:26.000Z</time>
</trkpt>
<trkpt lat="46.0275890" lon="9.4051480">
	<ele>1495.00</ele>
	<time>2023-07-15T06:05:27.000Z</time>
</trkpt>
<trkpt lat="46.0275780" lon="9.4052150">
	<ele>1495.60</ele>
	<time>2023-07-15T06:05:31.000Z</time>
</trkpt>
<trkpt lat="46.0275960" lon="9.4052350">
	<ele>1496.20</ele>
	<time>2023-07-15T06:05:34.000Z</time>
</trkpt>
<trkpt lat="46.0276210" lon="9.4052950">
	<ele>1496.60</ele>
	<time>2023-07-15T06:05:39.000Z</time>
</trkpt>
<trkpt lat="46.0276190" lon="9.4053410">
	<ele>1497.80</ele>
	<time>2023-07-15T06:05:45.000Z</time>
</trkpt>
<trkpt lat="46.0276290" lon="9.4053800">
	<ele>1499.00</ele>
	<time>2023-07-15T06:05:50.000Z</time>
</trkpt>
<trkpt lat="46.0276320" lon="9.4054400">
	<ele>1499.60</ele>
	<time>2023-07-15T06:05:54.000Z</time>
</trkpt>
<trkpt lat="46.0275950" lon="9.4055050">
	<ele>1500.00</ele>
	<time>2023-07-15T06:05:58.000Z</time>
</trkpt>
<trkpt lat="46.0275890" lon="9.4055140">
	<ele>1500.20</ele>
	<time>2023-07-15T06:05:59.000Z</time>
</trkpt>
<trkpt lat="46.0275550" lon="9.4055920">
	<ele>1500.60</ele>
	<time>2023-07-15T06:06:06.000Z</time>
</trkpt>
<trkpt lat="46.0275450" lon="9.4056040">
	<ele>1500.80</ele>
	<time>2023-07-15T06:06:07.000Z</time>
</trkpt>
<trkpt lat="46.0275230" lon="9.4056320">
	<ele>1501.20</ele>
	<time>2023-07-15T06:06:09.000Z</time>
</trkpt>
<trkpt lat="46.0275330" lon="9.4056630">
	<ele>1501.60</ele>
	<time>2023-07-15T06:06:13.000Z</time>
</trkpt>
<trkpt lat="46.0275090" lon="9.4057500">
	<ele>1502.40</ele>
	<time>2023-07-15T06:06:20.000Z</time>
</trkpt>
<trkpt lat="46.0274980" lon="9.4057830">
	<ele>1502.60</ele>
	<time>2023-07-15T06:06:22.000Z</time>
</trkpt>
<trkpt lat="46.0274240" lon="9.4058630">
	<ele>1502.80</ele>
	<time>2023-07-15T06:06:28.000Z</time>
</trkpt>
<trkpt lat="46.0273860" lon="9.4059410">
	<ele>1503.20</ele>
	<time>2023-07-15T06:06:36.000Z</time>
</trkpt>
<trkpt lat="46.0273860" lon="9.4059450">
	<ele>1503.20</ele>
	<time>2023-07-15T06:06:37.000Z</time>
</trkpt>
<trkpt lat="46.0273830" lon="9.4059520">
	<ele>1503.20</ele>
	<time>2023-07-15T06:06:40.000Z</time>
</trkpt>
<trkpt lat="46.0273330" lon="9.4059820">
	<ele>1503.20</ele>
	<time>2023-07-15T06:06:43.000Z</time>
</trkpt>
<trkpt lat="46.0273130" lon="9.4060060">
	<ele>1503.40</ele>
	<time>2023-07-15T06:06:45.000Z</time>
</trkpt>
<trkpt lat="46.0272980" lon="9.4060220">
	<ele>1503.40</ele>
	<time>2023-07-15T06:06:46.000Z</time>
</trkpt>
<trkpt lat="46.0272650" lon="9.4060590">
	<ele>1503.20</ele>
	<time>2023-07-15T06:06:49.000Z</time>
</trkpt>
<trkpt lat="46.0272410" lon="9.4061120">
	<ele>1503.20</ele>
	<time>2023-07-15T06:06:52.000Z</time>
</trkpt>
<trkpt lat="46.0272270" lon="9.4061230">
	<ele>1503.40</ele>
	<time>2023-07-15T06:06:54.000Z</time>
</trkpt>
<trkpt lat="46.0272120" lon="9.4061390">
	<ele>1503.60</ele>
	<time>2023-07-15T06:06:56.000Z</time>
</trkpt>
<trkpt lat="46.0271730" lon="9.4061930">
	<ele>1504.00</ele>
	<time>2023-07-15T06:07:01.000Z</time>
</trkpt>
<trkpt lat="46.0271860" lon="9.4062450">
	<ele>1504.40</ele>
	<time>2023-07-15T06:07:04.000Z</time>
</trkpt>
<trkpt lat="46.0271890" lon="9.4062810">
	<ele>1504.60</ele>
	<time>2023-07-15T06:07:06.000Z</time>
</trkpt>
<trkpt lat="46.0271620" lon="9.4063150">
	<ele>1504.60</ele>
	<time>2023-07-15T06:07:08.000Z</time>
</trkpt>
<trkpt lat="46.0271630" lon="9.4063430">
	<ele>1504.80</ele>
	<time>2023-07-15T06:07:09.000Z</time>
</trkpt>
<trkpt lat="46.0271370" lon="9.4063950">
	<ele>1505.00</ele>
	<time>2023-07-15T06:07:12.000Z</time>
</trkpt>
<trkpt lat="46.0271170" lon="9.4064640">
	<ele>1505.20</ele>
	<time>2023-07-15T06:07:16.000Z</time>
</trkpt>
<trkpt lat="46.0271100" lon="9.4064920">
	<ele>1505.20</ele>
	<time>2023-07-15T06:07:18.000Z</time>
</trkpt>
<trkpt lat="46.0270890" lon="9.4065240">
	<ele>1505.40</ele>
	<time>2023-07-15T06:07:21.000Z</time>
</trkpt>
<trkpt lat="46.0270720" lon="9.4065420">
	<ele>1505.40</ele>
	<time>2023-07-15T06:07:23.000Z</time>
</trkpt>
<trkpt lat="46.0270440" lon="9.4065510">
	<ele>1505.80</ele>
	<time>2023-07-15T06:07:26.000Z</time>
</trkpt>
<trkpt lat="46.0270150" lon="9.4066190">
	<ele>1506.40</ele>
	<time>2023-07-15T06:07:32.000Z</time>
</trkpt>
<trkpt lat="46.0270160" lon="9.4066310">
	<ele>1506.60</ele>
	<time>2023-07-15T06:07:33.000Z</time>
</trkpt>
<trkpt lat="46.0270220" lon="9.4066480">
	<ele>1506.80</ele>
	<time>2023-07-15T06:07:34.000Z</time>
</trkpt>
<trkpt lat="46.0270210" lon="9.4066670">
	<ele>1507.20</ele>
	<time>2023-07-15T06:07:36.000Z</time>
</trkpt>
<trkpt lat="46.0270110" lon="9.4066650">
	<ele>1507.60</ele>
	<time>2023-07-15T06:07:38.000Z</time>
</trkpt>
<trkpt lat="46.0269990" lon="9.4066940">
	<ele>1508.40</ele>
	<time>2023-07-15T06:07:42.000Z</time>
</trkpt>
<trkpt lat="46.0269840" lon="9.4067060">
	<ele>1508.80</ele>
	<time>2023-07-15T06:07:44.000Z</time>
</trkpt>
<trkpt lat="46.0269740" lon="9.4067250">
	<ele>1509.60</ele>
	<time>2023-07-15T06:07:47.000Z</time>
</trkpt>
<trkpt lat="46.0269600" lon="9.4067310">
	<ele>1509.80</ele>
	<time>2023-07-15T06:07:49.000Z</time>
</trkpt>
<trkpt lat="46.0269420" lon="9.4067290">
	<ele>1510.00</ele>
	<time>2023-07-15T06:07:50.000Z</time>
</trkpt>
<trkpt lat="46.0269180" lon="9.4067420">
	<ele>1510.20</ele>
	<time>2023-07-15T06:07:52.000Z</time>
</trkpt>
<trkpt lat="46.0269140" lon="9.4067440">
	<ele>1510.40</ele>
	<time>2023-07-15T06:07:53.000Z</time>
</trkpt>
<trkpt lat="46.0268860" lon="9.4067220">
	<ele>1511.00</ele>
	<time>2023-07-15T06:07:56.000Z</time>
</trkpt>
<trkpt lat="46.0268570" lon="9.4066990">
	<ele>1511.60</ele>
	<time>2023-07-15T06:08:00.000Z</time>
</trkpt>
<trkpt lat="46.0268160" lon="9.4066750">
	<ele>1512.00</ele>
	<time>2023-07-15T06:08:03.000Z</time>
</trkpt>
<trkpt lat="46.0267990" lon="9.4066790">
	<ele>1512.20</ele>
	<time>2023-07-15T06:08:04.000Z</time>
</trkpt>
<trkpt lat="46.0267790" lon="9.4066670">
	<ele>1512.80</ele>
	<time>2023-07-15T06:08:10.000Z</time>
</trkpt>
<trkpt lat="46.0267810" lon="9.4066680">
	<ele>1513.00</ele>
	<time>2023-07-15T06:08:11.000Z</time>
</trkpt>
<trkpt lat="46.0267500" lon="9.4066760">
	<ele>1513.20</ele>
	<time>2023-07-15T06:08:13.000Z</time>
</trkpt>
<trkpt lat="46.0267400" lon="9.4066890">
	<ele>1513.80</ele>
	<time>2023-07-15T06:08:16.000Z</time>
</trkpt>
<trkpt lat="46.0267340" lon="9.4066890">
	<ele>1514.00</ele>
	<time>2023-07-15T06:08:17.000Z</time>
</trkpt>
<trkpt lat="46.0267290" lon="9.4066920">
	<ele>1514.00</ele>
	<time>2023-07-15T06:08:18.000Z</time>
</trkpt>
<trkpt lat="46.0267270" lon="9.4066960">
	<ele>1514.20</ele>
	<time>2023-07-15T06:08:20.000Z</time>
</trkpt>
<trkpt lat="46.0267200" lon="9.4066910">
	<ele>1514.20</ele>
	<time>2023-07-15T06:08:22.000Z</time>
</trkpt>
<trkpt lat="46.0266980" lon="9.4066920">
	<ele>1514.20</ele>
	<time>2023-07-15T06:08:24.000Z</time>
</trkpt>
<trkpt lat="46.0266600" lon="9.4066650">
	<ele>1514.40</ele>
	<time>2023-07-15T06:08:27.000Z</time>
</trkpt>
<trkpt lat="46.0266420" lon="9.4066480">
	<ele>1514.40</ele>
	<time>2023-07-15T06:08:29.000Z</time>
</trkpt>
<trkpt lat="46.0266210" lon="9.4066330">
	<ele>1514.00</ele>
	<time>2023-07-15T06:08:31.000Z</time>
</trkpt>
<trkpt lat="46.0266120" lon="9.4066390">
	<ele>1513.80</ele>
	<time>2023-07-15T06:08:33.000Z</time>
</trkpt>
<trkpt lat="46.0265830" lon="9.4066260">
	<ele>1513.60</ele>
	<time>2023-07-15T06:08:38.000Z</time>
</trkpt>
<trkpt lat="46.0265780" lon="9.4066400">
	<ele>1513.80</ele>
	<time>2023-07-15T06:08:39.000Z</time>
</trkpt>
<trkpt lat="46.0265990" lon="9.4067070">
	<ele>1514.00</ele>
	<time>2023-07-15T06:08:42.000Z</time>
</trkpt>
<trkpt lat="46.0265830" lon="9.4066860">
	<ele>1514.40</ele>
	<time>2023-07-15T06:08:45.000Z</time>
</trkpt>
<trkpt lat="46.0265610" lon="9.4066750">
	<ele>1514.40</ele>
	<time>2023-07-15T06:08:46.000Z</time>
</trkpt>
<trkpt lat="46.0264880" lon="9.4066310">
	<ele>1514.40</ele>
	<time>2023-07-15T06:08:50.000Z</time>
</trkpt>
<trkpt lat="46.0264720" lon="9.4066290">
	<ele>1514.80</ele>
	<time>2023-07-15T06:08:52.000Z</time>
</trkpt>
<trkpt lat="46.0264590" lon="9.4066390">
	<ele>1515.00</ele>
	<time>2023-07-15T06:08:53.000Z</time>
</trkpt>
<trkpt lat="46.0264560" lon="9.4066380">
	<ele>1515.20</ele>
	<time>2023-07-15T06:08:54.000Z</time>
</trkpt>
<trkpt lat="46.0264370" lon="9.4066140">
	<ele>1516.20</ele>
	<time>2023-07-15T06:08:57.000Z</time>
</trkpt>
<trkpt lat="46.0264320" lon="9.4066100">
	<ele>1516.40</ele>
	<time>2023-07-15T06:08:58.000Z</time>
</trkpt>
<trkpt lat="46.0264140" lon="9.4065910">
	<ele>1516.60</ele>
	<time>2023-07-15T06:09:00.000Z</time>
</trkpt>
<trkpt lat="46.0263810" lon="9.4065660">
	<ele>1517.00</ele>
	<time>2023-07-15T06:09:03.000Z</time>
</trkpt>
<trkpt lat="46.0263680" lon="9.4065630">
	<ele>1517.00</ele>
	<time>2023-07-15T06:09:04.000Z</time>
</trkpt>
<trkpt lat="46.0263580" lon="9.4065600">
	<ele>1517.00</ele>
	<time>2023-07-15T06:09:05.000Z</time>
</trkpt>
<trkpt lat="46.0263330" lon="9.4065440">
	<ele>1517.20</ele>
	<time>2023-07-15T06:09:09.000Z</time>
</trkpt>
<trkpt lat="46.0263280" lon="9.4065450">
	<ele>1517.40</ele>
	<time>2023-07-15T06:09:10.000Z</time>
</trkpt>
<trkpt lat="46.0263260" lon="9.4065410">
	<ele>1517.60</ele>
	<time>2023-07-15T06:09:11.000Z</time>
</trkpt>
<trkpt lat="46.0263090" lon="9.4065520">
	<ele>1518.00</ele>
	<time>2023-07-15T06:09:13.000Z</time>
</trkpt>
<trkpt lat="46.0262670" lon="9.4065700">
	<ele>1518.60</ele>
	<time>2023-07-15T06:09:16.000Z</time>
</trkpt>
<trkpt lat="46.0262510" lon="9.4065760">
	<ele>1518.80</ele>
	<time>2023-07-15T06:09:17.000Z</time>
</trkpt>
<trkpt lat="46.0261620" lon="9.4065740">
	<ele>1519.20</ele>
	<time>2023-07-15T06:09:23.000Z</time>
</trkpt>
<trkpt lat="46.0261190" lon="9.4065790">
	<ele>1520.00</ele>
	<time>2023-07-15T06:09:29.000Z</time>
</trkpt>
<trkpt lat="46.0261130" lon="9.4065840">
	<ele>1520.20</ele>
	<time>2023-07-15T06:09:30.000Z</time>
</trkpt>
<trkpt lat="46.0261060" lon="9.4065640">
	<ele>1521.00</ele>
	<time>2023-07-15T06:09:37.000Z</time>
</trkpt>
<trkpt lat="46.0261110" lon="9.4065300">
	<ele>1521.20</ele>
	<time>2023-07-15T06:09:43.000Z</time>
</trkpt>
<trkpt lat="46.0260830" lon="9.4065000">
	<ele>1521.20</ele>
	<time>2023-07-15T06:09:47.000Z</time>
</trkpt>
<trkpt lat="46.0260850" lon="9.4064940">
	<ele>1521.60</ele>
	<time>2023-07-15T06:09:51.000Z</time>
</trkpt>
<trkpt lat="46.0260880" lon="9.4064570">
	<ele>1521.60</ele>
	<time>2023-07-15T06:09:56.000Z</time>
</trkpt>
<trkpt lat="46.0260980" lon="9.4064400">
	<ele>1521.20</ele>
	<time>2023-07-15T06:10:00.000Z</time>
</trkpt>
<trkpt lat="46.0260740" lon="9.4064350">
	<ele>1521.40</ele>
	<time>2023-07-15T06:10:06.000Z</time>
</trkpt>
<trkpt lat="46.0260190" lon="9.4064370">
	<ele>1522.00</ele>
	<time>2023-07-15T06:10:11.000Z</time>
</trkpt>
<trkpt lat="46.0260170" lon="9.4064440">
	<ele>1522.20</ele>
	<time>2023-07-15T06:10:12.000Z</time>
</trkpt>
<trkpt lat="46.0259970" lon="9.4064970">
	<ele>1523.20</ele>
	<time>2023-07-15T06:10:18.000Z</time>
</trkpt>
<trkpt lat="46.0259480" lon="9.4064610">
	<ele>1524.40</ele>
	<time>2023-07-15T06:10:24.000Z</time>
</trkpt>
<trkpt lat="46.0259030" lon="9.4064710">
	<ele>1524.60</ele>
	<time>2023-07-15T06:10:28.000Z</time>
</trkpt>
<trkpt lat="46.0258510" lon="9.4064860">
	<ele>1525.40</ele>
	<time>2023-07-15T06:10:31.000Z</time>
</trkpt>
<trkpt lat="46.0258460" lon="9.4064840">
	<ele>1525.80</ele>
	<time>2023-07-15T06:10:33.000Z</time>
</trkpt>
<trkpt lat="46.0258380" lon="9.4065130">
	<ele>1526.20</ele>
	<time>2023-07-15T06:10:38.000Z</time>
</trkpt>
<trkpt lat="46.0258280" lon="9.4065310">
	<ele>1526.40</ele>
	<time>2023-07-15T06:10:40.000Z</time>
</trkpt>
<trkpt lat="46.0258100" lon="9.4065520">
	<ele>1526.40</ele>
	<time>2023-07-15T06:10:42.000Z</time>
</trkpt>
<trkpt lat="46.0257720" lon="9.4065880">
	<ele>1526.40</ele>
	<time>2023-07-15T06:10:44.000Z</time>
</trkpt>
<trkpt lat="46.0257650" lon="9.4065840">
	<ele>1526.40</ele>
	<time>2023-07-15T06:10:45.000Z</time>
</trkpt>
<trkpt lat="46.0256960" lon="9.4066240">
	<ele>1526.60</ele>
	<time>2023-07-15T06:10:52.000Z</time>
</trkpt>
<trkpt lat="46.0256950" lon="9.4066400">
	<ele>1526.60</ele>
	<time>2023-07-15T06:10:53.000Z</time>
</trkpt>
<trkpt lat="46.0256940" lon="9.4066900">
	<ele>1526.60</ele>
	<time>2023-07-15T06:10:55.000Z</time>
</trkpt>
<trkpt lat="46.0256940" lon="9.4067060">
	<ele>1526.60</ele>
	<time>2023-07-15T06:10:56.000Z</time>
</trkpt>
<trkpt lat="46.0256880" lon="9.4067200">
	<ele>1526.80</ele>
	<time>2023-07-15T06:10:57.000Z</time>
</trkpt>
<trkpt lat="46.0256880" lon="9.4067300">
	<ele>1526.80</ele>
	<time>2023-07-15T06:10:59.000Z</time>
</trkpt>
<trkpt lat="46.0256850" lon="9.4067390">
	<ele>1526.80</ele>
	<time>2023-07-15T06:11:00.000Z</time>
</trkpt>
<trkpt lat="46.0256620" lon="9.4067560">
	<ele>1527.00</ele>
	<time>2023-07-15T06:11:04.000Z</time>
</trkpt>
<trkpt lat="46.0256430" lon="9.4067970">
	<ele>1527.20</ele>
	<time>2023-07-15T06:11:08.000Z</time>
</trkpt>
<trkpt lat="46.0256380" lon="9.4068140">
	<ele>1527.40</ele>
	<time>2023-07-15T06:11:09.000Z</time>
</trkpt>
<trkpt lat="46.0256370" lon="9.4068520">
	<ele>1527.40</ele>
	<time>2023-07-15T06:11:11.000Z</time>
</trkpt>
<trkpt lat="46.0256310" lon="9.4068770">
	<ele>1527.60</ele>
	<time>2023-07-15T06:11:13.000Z</time>
</trkpt>
<trkpt lat="46.0256200" lon="9.4068870">
	<ele>1527.60</ele>
	<time>2023-07-15T06:11:14.000Z</time>
</trkpt>
<trkpt lat="46.0256030" lon="9.4069040">
	<ele>1527.80</ele>
	<time>2023-07-15T06:11:16.000Z</time>
</trkpt>
<trkpt lat="46.0255930" lon="9.4069240">
	<ele>1528.00</ele>
	<time>2023-07-15T06:11:18.000Z</time>
</trkpt>
<trkpt lat="46.0255830" lon="9.4069360">
	<ele>1528.00</ele>
	<time>2023-07-15T06:11:19.000Z</time>
</trkpt>
<trkpt lat="46.0255700" lon="9.4069370">
	<ele>1528.00</ele>
	<time>2023-07-15T06:11:20.000Z</time>
</trkpt>
<trkpt lat="46.0255390" lon="9.4069420">
	<ele>1528.40</ele>
	<time>2023-07-15T06:11:23.000Z</time>
</trkpt>
<trkpt lat="46.0255220" lon="9.4069470">
	<ele>1528.60</ele>
	<time>2023-07-15T06:11:24.000Z</time>
</trkpt>
<trkpt lat="46.0254740" lon="9.4069720">
	<ele>1528.80</ele>
	<time>2023-07-15T06:11:28.000Z</time>
</trkpt>
<trkpt lat="46.0254720" lon="9.4069910">
	<ele>1529.00</ele>
	<time>2023-07-15T06:11:30.000Z</time>
</trkpt>
<trkpt lat="46.0254720" lon="9.4069910">
	<ele>1529.20</ele>
	<time>2023-07-15T06:11:31.000Z</time>
</trkpt>
<trkpt lat="46.0254600" lon="9.4069990">
	<ele>1529.20</ele>
	<time>2023-07-15T06:11:33.000Z</time>
</trkpt>
<trkpt lat="46.0254380" lon="9.4070050">
	<ele>1529.40</ele>
	<time>2023-07-15T06:11:35.000Z</time>
</trkpt>
<trkpt lat="46.0254210" lon="9.4070090">
	<ele>1529.60</ele>
	<time>2023-07-15T06:11:36.000Z</time>
</trkpt>
<trkpt lat="46.0254080" lon="9.4070100">
	<ele>1529.80</ele>
	<time>2023-07-15T06:11:37.000Z</time>
</trkpt>
<trkpt lat="46.0253870" lon="9.4070130">
	<ele>1530.00</ele>
	<time>2023-07-15T06:11:39.000Z</time>
</trkpt>
<trkpt lat="46.0253670" lon="9.4070410">
	<ele>1530.20</ele>
	<time>2023-07-15T06:11:41.000Z</time>
</trkpt>
<trkpt lat="46.0253620" lon="9.4070450">
	<ele>1530.40</ele>
	<time>2023-07-15T06:11:42.000Z</time>
</trkpt>
<trkpt lat="46.0253470" lon="9.4070440">
	<ele>1530.60</ele>
	<time>2023-07-15T06:11:44.000Z</time>
</trkpt>
<trkpt lat="46.0253280" lon="9.4070430">
	<ele>1530.80</ele>
	<time>2023-07-15T06:11:45.000Z</time>
</trkpt>
<trkpt lat="46.0252470" lon="9.4070620">
	<ele>1531.40</ele>
	<time>2023-07-15T06:11:52.000Z</time>
</trkpt>
<trkpt lat="46.0252260" lon="9.4070910">
	<ele>1531.60</ele>
	<time>2023-07-15T06:11:54.000Z</time>
</trkpt>
<trkpt lat="46.0251970" lon="9.4071000">
	<ele>1531.00</ele>
	<time>2023-07-15T06:11:56.000Z</time>
</trkpt>
<trkpt lat="46.0251910" lon="9.4071060">
	<ele>1531.00</ele>
	<time>2023-07-15T06:11:57.000Z</time>
</trkpt>
<trkpt lat="46.0251470" lon="9.4071150">
	<ele>1531.00</ele>
	<time>2023-07-15T06:12:01.000Z</time>
</trkpt>
<trkpt lat="46.0251380" lon="9.4071090">
	<ele>1531.00</ele>
	<time>2023-07-15T06:12:02.000Z</time>
</trkpt>
<trkpt lat="46.0251310" lon="9.4071050">
	<ele>1531.00</ele>
	<time>2023-07-15T06:12:03.000Z</time>
</trkpt>
<trkpt lat="46.0250710" lon="9.4071120">
	<ele>1531.00</ele>
	<time>2023-07-15T06:12:06.000Z</time>
</trkpt>
<trkpt lat="46.0250290" lon="9.4071110">
	<ele>1530.80</ele>
	<time>2023-07-15T06:12:10.000Z</time>
</trkpt>
<trkpt lat="46.0250260" lon="9.4071140">
	<ele>1530.80</ele>
	<time>2023-07-15T06:12:11.000Z</time>
</trkpt>
<trkpt lat="46.0250220" lon="9.4071230">
	<ele>1531.00</ele>
	<time>2023-07-15T06:12:13.000Z</time>
</trkpt>
<trkpt lat="46.0250080" lon="9.4071300">
	<ele>1531.20</ele>
	<time>2023-07-15T06:12:15.000Z</time>
</trkpt>
<trkpt lat="46.0249850" lon="9.4071270">
	<ele>1531.40</ele>
	<time>2023-07-15T06:12:17.000Z</time>
</trkpt>
<trkpt lat="46.0249840" lon="9.4071120">
	<ele>1531.60</ele>
	<time>2023-07-15T06:12:18.000Z</time>
</trkpt>
<trkpt lat="46.0249770" lon="9.4070890">
	<ele>1531.60</ele>
	<time>2023-07-15T06:12:19.000Z</time>
</trkpt>
<trkpt lat="46.0249680" lon="9.4070720">
	<ele>1531.60</ele>
	<time>2023-07-15T06:12:20.000Z</time>
</trkpt>
<trkpt lat="46.0249510" lon="9.4070620">
	<ele>1531.80</ele>
	<time>2023-07-15T06:12:22.000Z</time>
</trkpt>
<trkpt lat="46.0249470" lon="9.4070630">
	<ele>1532.00</ele>
	<time>2023-07-15T06:12:23.000Z</time>
</trkpt>
<trkpt lat="46.0249340" lon="9.4070660">
	<ele>1532.00</ele>
	<time>2023-07-15T06:12:24.000Z</time>
</trkpt>
<trkpt lat="46.0248350" lon="9.4070500">
	<ele>1532.80</ele>
	<time>2023-07-15T06:12:29.000Z</time>
</trkpt>
<trkpt lat="46.0248080" lon="9.4070450">
	<ele>1533.00</ele>
	<time>2023-07-15T06:12:30.000Z</time>
</trkpt>
<trkpt lat="46.0247610" lon="9.4070380">
	<ele>1533.40</ele>
	<time>2023-07-15T06:12:34.000Z</time>
</trkpt>
<trkpt lat="46.0247340" lon="9.4069810">
	<ele>1533.60</ele>
	<time>2023-07-15T06:12:37.000Z</time>
</trkpt>
<trkpt lat="46.0247300" lon="9.4069700">
	<ele>1533.80</ele>
	<time>2023-07-15T06:12:38.000Z</time>
</trkpt>
<trkpt lat="46.0246920" lon="9.4069170">
	<ele>1533.80</ele>
	<time>2023-07-15T06:12:45.000Z</time>
</trkpt>
<trkpt lat="46.0246780" lon="9.4069370">
	<ele>1533.80</ele>
	<time>2023-07-15T06:12:50.000Z</time>
</trkpt>
<trkpt lat="46.0246650" lon="9.4069240">
	<ele>1534.00</ele>
	<time>2023-07-15T06:12:51.000Z</time>
</trkpt>
<trkpt lat="46.0245890" lon="9.4069850">
	<ele>1534.40</ele>
	<time>2023-07-15T06:12:56.000Z</time>
</trkpt>
<trkpt lat="46.0245630" lon="9.4069490">
	<ele>1534.80</ele>
	<time>2023-07-15T06:12:58.000Z</time>
</trkpt>
<trkpt lat="46.0245350" lon="9.4069480">
	<ele>1535.00</ele>
	<time>2023-07-15T06:13:00.000Z</time>
</trkpt>
<trkpt lat="46.0245040" lon="9.4069530">
	<ele>1535.20</ele>
	<time>2023-07-15T06:13:02.000Z</time>
</trkpt>
<trkpt lat="46.0244860" lon="9.4069530">
	<ele>1535.20</ele>
	<time>2023-07-15T06:13:03.000Z</time>
</trkpt>
<trkpt lat="46.0244480" lon="9.4070020">
	<ele>1535.20</ele>
	<time>2023-07-15T06:13:08.000Z</time>
</trkpt>
<trkpt lat="46.0244020" lon="9.4070220">
	<ele>1535.40</ele>
	<time>2023-07-15T06:13:13.000Z</time>
</trkpt>
<trkpt lat="46.0243770" lon="9.4070080">
	<ele>1535.20</ele>
	<time>2023-07-15T06:13:15.000Z</time>
</trkpt>
<trkpt lat="46.0243690" lon="9.4070030">
	<ele>1535.00</ele>
	<time>2023-07-15T06:13:16.000Z</time>
</trkpt>
<trkpt lat="46.0243450" lon="9.4069930">
	<ele>1534.80</ele>
	<time>2023-07-15T06:13:20.000Z</time>
</trkpt>
<trkpt lat="46.0243350" lon="9.4070030">
	<ele>1534.40</ele>
	<time>2023-07-15T06:13:23.000Z</time>
</trkpt>
<trkpt lat="46.0243280" lon="9.4070050">
	<ele>1534.20</ele>
	<time>2023-07-15T06:13:24.000Z</time>
</trkpt>
<trkpt lat="46.0243170" lon="9.4070030">
	<ele>1534.20</ele>
	<time>2023-07-15T06:13:27.000Z</time>
</trkpt>
<trkpt lat="46.0243120" lon="9.4070040">
	<ele>1534.40</ele>
	<time>2023-07-15T06:13:29.000Z</time>
</trkpt>
<trkpt lat="46.0243260" lon="9.4070310">
	<ele>1534.40</ele>
	<time>2023-07-15T06:13:32.000Z</time>
</trkpt>
<trkpt lat="46.0243340" lon="9.4070440">
	<ele>1534.40</ele>
	<time>2023-07-15T06:13:33.000Z</time>
</trkpt>
<trkpt lat="46.0243260" lon="9.4070540">
	<ele>1534.40</ele>
	<time>2023-07-15T06:13:35.000Z</time>
</trkpt>
<trkpt lat="46.0242940" lon="9.4070480">
	<ele>1534.40</ele>
	<time>2023-07-15T06:13:37.000Z</time>
</trkpt>
<trkpt lat="46.0242680" lon="9.4070630">
	<ele>1534.40</ele>
	<time>2023-07-15T06:13:39.000Z</time>
</trkpt>
<trkpt lat="46.0241910" lon="9.4071020">
	<ele>1534.40</ele>
	<time>2023-07-15T06:13:43.000Z</time>
</trkpt>
<trkpt lat="46.0241830" lon="9.4071130">
	<ele>1534.40</ele>
	<time>2023-07-15T06:13:44.000Z</time>
</trkpt>
<trkpt lat="46.0241430" lon="9.4071050">
	<ele>1534.20</ele>
	<time>2023-07-15T06:13:47.000Z</time>
</trkpt>
<trkpt lat="46.0241090" lon="9.4070920">
	<ele>1534.20</ele>
	<time>2023-07-15T06:13:48.000Z</time>
</trkpt>
<trkpt lat="46.0240800" lon="9.4070960">
	<ele>1534.20</ele>
	<time>2023-07-15T06:13:50.000Z</time>
</trkpt>
<trkpt lat="46.0240860" lon="9.4071480">
	<ele>1534.00</ele>
	<time>2023-07-15T06:13:53.000Z</time>
</trkpt>
<trkpt lat="46.0240840" lon="9.4071590">
	<ele>1533.80</ele>
	<time>2023-07-15T06:13:55.000Z</time>
</trkpt>
<trkpt lat="46.0239900" lon="9.4071880">
	<ele>1534.20</ele>
	<time>2023-07-15T06:14:01.000Z</time>
</trkpt>
<trkpt lat="46.0239430" lon="9.4072190">
	<ele>1534.20</ele>
	<time>2023-07-15T06:14:05.000Z</time>
</trkpt>
<trkpt lat="46.0239270" lon="9.4072280">
	<ele>1534.60</ele>
	<time>2023-07-15T06:14:07.000Z</time>
</trkpt>
<trkpt lat="46.0238570" lon="9.4072160">
	<ele>1535.40</ele>
	<time>2023-07-15T06:14:14.000Z</time>
</trkpt>
<trkpt lat="46.0238470" lon="9.4072180">
	<ele>1535.60</ele>
	<time>2023-07-15T06:14:16.000Z</time>
</trkpt>
<trkpt lat="46.0238010" lon="9.4072390">
	<ele>1536.20</ele>
	<time>2023-07-15T06:14:19.000Z</time>
</trkpt>
<trkpt lat="46.0237340" lon="9.4072370">
	<ele>1537.20</ele>
	<time>2023-07-15T06:14:24.000Z</time>
</trkpt>
<trkpt lat="46.0237390" lon="9.4072510">
	<ele>1537.40</ele>
	<time>2023-07-15T06:14:26.000Z</time>
</trkpt>
<trkpt lat="46.0237340" lon="9.4072490">
	<ele>1537.60</ele>
	<time>2023-07-15T06:14:27.000Z</time>
</trkpt>
<trkpt lat="46.0237170" lon="9.4072550">
	<ele>1537.80</ele>
	<time>2023-07-15T06:14:29.000Z</time>
</trkpt>
<trkpt lat="46.0236950" lon="9.4072580">
	<ele>1538.00</ele>
	<time>2023-07-15T06:14:31.000Z</time>
</trkpt>
<trkpt lat="46.0237050" lon="9.4072130">
	<ele>1538.20</ele>
	<time>2023-07-15T06:14:33.000Z</time>
</trkpt>
<trkpt lat="46.0237120" lon="9.4071920">
	<ele>1538.40</ele>
	<time>2023-07-15T06:14:34.000Z</time>
</trkpt>
<trkpt lat="46.0237240" lon="9.4071900">
	<ele>1538.60</ele>
	<time>2023-07-15T06:14:35.000Z</time>
</trkpt>
<trkpt lat="46.0237520" lon="9.4072040">
	<ele>1538.60</ele>
	<time>2023-07-15T06:14:37.000Z</time>
</trkpt>
<trkpt lat="46.0237320" lon="9.4071920">
	<ele>1538.80</ele>
	<time>2023-07-15T06:14:39.000Z</time>
</trkpt>
<trkpt lat="46.0237060" lon="9.4071740">
	<ele>1539.00</ele>
	<time>2023-07-15T06:14:41.000Z</time>
</trkpt>
<trkpt lat="46.0236760" lon="9.4071590">
	<ele>1539.20</ele>
	<time>2023-07-15T06:14:43.000Z</time>
</trkpt>
<trkpt lat="46.0236330" lon="9.4071440">
	<ele>1539.60</ele>
	<time>2023-07-15T06:14:46.000Z</time>
</trkpt>
<trkpt lat="46.0236200" lon="9.4071400">
	<ele>1539.80</ele>
	<time>2023-07-15T06:14:47.000Z</time>
</trkpt>
<trkpt lat="46.0235040" lon="9.4071180">
	<ele>1540.00</ele>
	<time>2023-07-15T06:14:52.000Z</time>
</trkpt>
<trkpt lat="46.0234810" lon="9.4070930">
	<ele>1540.00</ele>
	<time>2023-07-15T06:14:53.000Z</time>
</trkpt>
<trkpt lat="46.0234570" lon="9.4070810">
	<ele>1540.00</ele>
	<time>2023-07-15T06:14:54.000Z</time>
</trkpt>
<trkpt lat="46.0233580" lon="9.4070490">
	<ele>1540.00</ele>
	<time>2023-07-15T06:14:58.000Z</time>
</trkpt>
<trkpt lat="46.0232670" lon="9.4069990">
	<ele>1540.00</ele>
	<time>2023-07-15T06:15:03.000Z</time>
</trkpt>
<trkpt lat="46.0232570" lon="9.4070010">
	<ele>1540.00</ele>
	<time>2023-07-15T06:15:04.000Z</time>
</trkpt>
<trkpt lat="46.0232440" lon="9.4069940">
	<ele>1540.40</ele>
	<time>2023-07-15T06:15:06.000Z</time>
</trkpt>
<trkpt lat="46.0232030" lon="9.4069920">
	<ele>1540.80</ele>
	<time>2023-07-15T06:15:09.000Z</time>
</trkpt>
<trkpt lat="46.0231450" lon="9.4070100">
	<ele>1541.20</ele>
	<time>2023-07-15T06:15:12.000Z</time>
</trkpt>
<trkpt lat="46.0231260" lon="9.4070150">
	<ele>1541.60</ele>
	<time>2023-07-15T06:15:13.000Z</time>
</trkpt>
<trkpt lat="46.0230220" lon="9.4070250">
	<ele>1542.40</ele>
	<time>2023-07-15T06:15:19.000Z</time>
</trkpt>
<trkpt lat="46.0229860" lon="9.4070140">
	<ele>1542.60</ele>
	<time>2023-07-15T06:15:22.000Z</time>
</trkpt>
<trkpt lat="46.0229240" lon="9.4069980">
	<ele>1543.00</ele>
	<time>2023-07-15T06:15:26.000Z</time>
</trkpt>
<trkpt lat="46.0228890" lon="9.4069880">
	<ele>1543.60</ele>
	<time>2023-07-15T06:15:30.000Z</time>
</trkpt>
<trkpt lat="46.0228850" lon="9.4069740">
	<ele>1543.60</ele>
	<time>2023-07-15T06:15:31.000Z</time>
</trkpt>
<trkpt lat="46.0228900" lon="9.4069540">
	<ele>1544.00</ele>
	<time>2023-07-15T06:15:33.000Z</time>
</trkpt>
<trkpt lat="46.0228510" lon="9.4069690">
	<ele>1544.00</ele>
	<time>2023-07-15T06:15:35.000Z</time>
</trkpt>
<trkpt lat="46.0228460" lon="9.4069730">
	<ele>1544.20</ele>
	<time>2023-07-15T06:15:38.000Z</time>
</trkpt>
<trkpt lat="46.0228390" lon="9.4069580">
	<ele>1544.80</ele>
	<time>2023-07-15T06:15:42.000Z</time>
</trkpt>
<trkpt lat="46.0228380" lon="9.4069480">
	<ele>1545.20</ele>
	<time>2023-07-15T06:15:44.000Z</time>
</trkpt>
<trkpt lat="46.0228370" lon="9.4069450">
	<ele>1545.40</ele>
	<time>2023-07-15T06:15:45.000Z</time>
</trkpt>
<trkpt lat="46.0228360" lon="9.4069400">
	<ele>1545.60</ele>
	<time>2023-07-15T06:15:52.000Z</time>
</trkpt>
<trkpt lat="46.0228360" lon="9.4069410">
	<ele>1545.00</ele>
	<time>2023-07-15T06:16:06.000Z</time>
</trkpt>
<trkpt lat="46.0228130" lon="9.4069400">
	<ele>1545.60</ele>
	<time>2023-07-15T06:16:16.000Z</time>
</trkpt>
<trkpt lat="46.0228080" lon="9.4069310">
	<ele>1544.80</ele>
	<time>2023-07-15T06:16:27.000Z</time>
</trkpt>
<trkpt lat="46.0228080" lon="9.4069310">
	<ele>1544.80</ele>
	<time>2023-07-15T06:16:28.000Z</time>
</trkpt>
<trkpt lat="46.0228070" lon="9.4069310">
	<ele>1545.00</ele>
	<time>2023-07-15T06:16:31.000Z</time>
</trkpt>
<trkpt lat="46.0228070" lon="9.4069340">
	<ele>1545.20</ele>
	<time>2023-07-15T06:16:35.000Z</time>
</trkpt>
<trkpt lat="46.0228050" lon="9.4069340">
	<ele>1545.20</ele>
	<time>2023-07-15T06:16:39.000Z</time>
</trkpt>
<trkpt lat="46.0228040" lon="9.4069350">
	<ele>1545.00</ele>
	<time>2023-07-15T06:16:46.000Z</time>
</trkpt>
<trkpt lat="46.0228040" lon="9.4069380">
	<ele>1545.00</ele>
	<time>2023-07-15T06:16:50.000Z</time>
</trkpt>
<trkpt lat="46.0228040" lon="9.4069380">
	<ele>1545.00</ele>
	<time>2023-07-15T06:16:51.000Z</time>
</trkpt>
<trkpt lat="46.0228040" lon="9.4069380">
	<ele>1545.00</ele>
	<time>2023-07-15T06:16:54.000Z</time>
</trkpt>
<trkpt lat="46.0228090" lon="9.4069390">
	<ele>1545.20</ele>
	<time>2023-07-15T06:17:06.000Z</time>
</trkpt>
<trkpt lat="46.0227830" lon="9.4069590">
	<ele>1545.20</ele>
	<time>2023-07-15T06:17:13.000Z</time>
</trkpt>
<trkpt lat="46.0227570" lon="9.4069630">
	<ele>1545.20</ele>
	<time>2023-07-15T06:17:16.000Z</time>
</trkpt>
<trkpt lat="46.0227220" lon="9.4069770">
	<ele>1545.20</ele>
	<time>2023-07-15T06:17:20.000Z</time>
</trkpt>
<trkpt lat="46.0226870" lon="9.4069850">
	<ele>1545.20</ele>
	<time>2023-07-15T06:17:24.000Z</time>
</trkpt>
<trkpt lat="46.0226790" lon="9.4069740">
	<ele>1545.20</ele>
	<time>2023-07-15T06:17:26.000Z</time>
</trkpt>
<trkpt lat="46.0226780" lon="9.4069720">
	<ele>1545.20</ele>
	<time>2023-07-15T06:17:27.000Z</time>
</trkpt>
<trkpt lat="46.0226810" lon="9.4069680">
	<ele>1545.20</ele>
	<time>2023-07-15T06:17:31.000Z</time>
</trkpt>
<trkpt lat="46.0226630" lon="9.4069720">
	<ele>1545.20</ele>
	<time>2023-07-15T06:17:33.000Z</time>
</trkpt>
<trkpt lat="46.0226390" lon="9.4069770">
	<ele>1545.20</ele>
	<time>2023-07-15T06:17:36.000Z</time>
</trkpt>
<trkpt lat="46.0226270" lon="9.4069680">
	<ele>1545.20</ele>
	<time>2023-07-15T06:17:40.000Z</time>
</trkpt>
<trkpt lat="46.0225750" lon="9.4069560">
	<ele>1545.20</ele>
	<time>2023-07-15T06:17:47.000Z</time>
</trkpt>
<trkpt lat="46.0225650" lon="9.4069610">
	<ele>1545.20</ele>
	<time>2023-07-15T06:17:48.000Z</time>
</trkpt>
<trkpt lat="46.0225430" lon="9.4069600">
	<ele>1545.20</ele>
	<time>2023-07-15T06:17:50.000Z</time>
</trkpt>
<trkpt lat="46.0225000" lon="9.4069590">
	<ele>1545.20</ele>
	<time>2023-07-15T06:17:55.000Z</time>
</trkpt>
<trkpt lat="46.0224870" lon="9.4069640">
	<ele>1545.20</ele>
	<time>2023-07-15T06:17:56.000Z</time>
</trkpt>
<trkpt lat="46.0224630" lon="9.4069510">
	<ele>1553.60</ele>
	<time>2023-07-15T06:17:59.000Z</time>
</trkpt>
<trkpt lat="46.0223750" lon="9.4069480">
	<ele>1553.80</ele>
	<time>2023-07-15T06:18:07.000Z</time>
</trkpt>
<trkpt lat="46.0223600" lon="9.4069220">
	<ele>1554.60</ele>
	<time>2023-07-15T06:18:10.000Z</time>
</trkpt>
<trkpt lat="46.0223430" lon="9.4069280">
	<ele>1555.20</ele>
	<time>2023-07-15T06:18:13.000Z</time>
</trkpt>
<trkpt lat="46.0223340" lon="9.4069250">
	<ele>1555.80</ele>
	<time>2023-07-15T06:18:15.000Z</time>
</trkpt>
<trkpt lat="46.0222780" lon="9.4069640">
	<ele>1557.00</ele>
	<time>2023-07-15T06:18:23.000Z</time>
</trkpt>
<trkpt lat="46.0222670" lon="9.4069670">
	<ele>1557.20</ele>
	<time>2023-07-15T06:18:24.000Z</time>
</trkpt>
<trkpt lat="46.0222090" lon="9.4069720">
	<ele>1558.20</ele>
	<time>2023-07-15T06:18:30.000Z</time>
</trkpt>
<trkpt lat="46.0221960" lon="9.4069760">
	<ele>1558.40</ele>
	<time>2023-07-15T06:18:31.000Z</time>
</trkpt>
<trkpt lat="46.0221520" lon="9.4069890">
	<ele>1559.20</ele>
	<time>2023-07-15T06:18:37.000Z</time>
</trkpt>
<trkpt lat="46.0221260" lon="9.4069970">
	<ele>1559.60</ele>
	<time>2023-07-15T06:18:40.000Z</time>
</trkpt>
<trkpt lat="46.0220950" lon="9.4070200">
	<ele>1560.40</ele>
	<time>2023-07-15T06:18:44.000Z</time>
</trkpt>
<trkpt lat="46.0220600" lon="9.4070430">
	<ele>1561.20</ele>
	<time>2023-07-15T06:18:49.000Z</time>
</trkpt>
<trkpt lat="46.0220510" lon="9.4070610">
	<ele>1561.40</ele>
	<time>2023-07-15T06:18:51.000Z</time>
</trkpt>
<trkpt lat="46.0220400" lon="9.4071210">
	<ele>1562.40</ele>
	<time>2023-07-15T06:18:57.000Z</time>
</trkpt>
<trkpt lat="46.0220390" lon="9.4071310">
	<ele>1562.60</ele>
	<time>2023-07-15T06:18:58.000Z</time>
</trkpt>
<trkpt lat="46.0220480" lon="9.4071910">
	<ele>1563.60</ele>
	<time>2023-07-15T06:19:05.000Z</time>
</trkpt>
<trkpt lat="46.0220470" lon="9.4072240">
	<ele>1564.00</ele>
	<time>2023-07-15T06:19:08.000Z</time>
</trkpt>
<trkpt lat="46.0220630" lon="9.4072520">
	<ele>1564.60</ele>
	<time>2023-07-15T06:19:11.000Z</time>
</trkpt>
<trkpt lat="46.0220640" lon="9.4072600">
	<ele>1564.60</ele>
	<time>2023-07-15T06:19:12.000Z</time>
</trkpt>
<trkpt lat="46.0220670" lon="9.4073130">
	<ele>1565.40</ele>
	<time>2023-07-15T06:19:17.000Z</time>
</trkpt>
<trkpt lat="46.0220630" lon="9.4073330">
	<ele>1565.80</ele>
	<time>2023-07-15T06:19:19.000Z</time>
</trkpt>
<trkpt lat="46.0220660" lon="9.4073550">
	<ele>1566.00</ele>
	<time>2023-07-15T06:19:21.000Z</time>
</trkpt>
<trkpt lat="46.0220660" lon="9.4073810">
	<ele>1566.40</ele>
	<time>2023-07-15T06:19:24.000Z</time>
</trkpt>
<trkpt lat="46.0220690" lon="9.4073880">
	<ele>1566.60</ele>
	<time>2023-07-15T06:19:25.000Z</time>
</trkpt>
<trkpt lat="46.0220750" lon="9.4074120">
	<ele>1566.80</ele>
	<time>2023-07-15T06:19:28.000Z</time>
</trkpt>
<trkpt lat="46.0220910" lon="9.4074680">
	<ele>1567.60</ele>
	<time>2023-07-15T06:19:33.000Z</time>
</trkpt>
<trkpt lat="46.0220950" lon="9.4074860">
	<ele>1568.00</ele>
	<time>2023-07-15T06:19:35.000Z</time>
</trkpt>
<trkpt lat="46.0221020" lon="9.4076090">
	<ele>1569.00</ele>
	<time>2023-07-15T06:19:43.000Z</time>
</trkpt>
<trkpt lat="46.0220890" lon="9.4077230">
	<ele>1570.00</ele>
	<time>2023-07-15T06:19:51.000Z</time>
</trkpt>
<trkpt lat="46.0220880" lon="9.4077970">
	<ele>1571.20</ele>
	<time>2023-07-15T06:19:58.000Z</time>
</trkpt>
<trkpt lat="46.0220860" lon="9.4078060">
	<ele>1571.20</ele>
	<time>2023-07-15T06:19:59.000Z</time>
</trkpt>
<trkpt lat="46.0220860" lon="9.4078180">
	<ele>1571.20</ele>
	<time>2023-07-15T06:20:00.000Z</time>
</trkpt>
<trkpt lat="46.0220800" lon="9.4078920">
	<ele>1572.20</ele>
	<time>2023-07-15T06:20:07.000Z</time>
</trkpt>
<trkpt lat="46.0220850" lon="9.4079190">
	<ele>1572.60</ele>
	<time>2023-07-15T06:20:10.000Z</time>
</trkpt>
<trkpt lat="46.0220840" lon="9.4079310">
	<ele>1572.80</ele>
	<time>2023-07-15T06:20:11.000Z</time>
</trkpt>
<trkpt lat="46.0220850" lon="9.4079750">
	<ele>1573.20</ele>
	<time>2023-07-15T06:20:15.000Z</time>
</trkpt>
<trkpt lat="46.0220830" lon="9.4079980">
	<ele>1573.40</ele>
	<time>2023-07-15T06:20:17.000Z</time>
</trkpt>
<trkpt lat="46.0220890" lon="9.4080350">
	<ele>1574.00</ele>
	<time>2023-07-15T06:20:20.000Z</time>
</trkpt>
<trkpt lat="46.0220890" lon="9.4080670">
	<ele>1574.40</ele>
	<time>2023-07-15T06:20:22.000Z</time>
</trkpt>
<trkpt lat="46.0220920" lon="9.4080900">
	<ele>1574.60</ele>
	<time>2023-07-15T06:20:24.000Z</time>
</trkpt>
<trkpt lat="46.0220950" lon="9.4081310">
	<ele>1575.00</ele>
	<time>2023-07-15T06:20:28.000Z</time>
</trkpt>
<trkpt lat="46.0220930" lon="9.4081440">
	<ele>1575.20</ele>
	<time>2023-07-15T06:20:30.000Z</time>
</trkpt>
<trkpt lat="46.0220880" lon="9.4081580">
	<ele>1575.40</ele>
	<time>2023-07-15T06:20:32.000Z</time>
</trkpt>
<trkpt lat="46.0220660" lon="9.4082600">
	<ele>1576.60</ele>
	<time>2023-07-15T06:20:39.000Z</time>
</trkpt>
<trkpt lat="46.0220310" lon="9.4083350">
	<ele>1577.40</ele>
	<time>2023-07-15T06:20:46.000Z</time>
</trkpt>
<trkpt lat="46.0220230" lon="9.4083480">
	<ele>1577.60</ele>
	<time>2023-07-15T06:20:47.000Z</time>
</trkpt>
<trkpt lat="46.0219710" lon="9.4084230">
	<ele>1578.60</ele>
	<time>2023-07-15T06:20:55.000Z</time>
</trkpt>
<trkpt lat="46.0219610" lon="9.4084490">
	<ele>1578.80</ele>
	<time>2023-07-15T06:20:57.000Z</time>
</trkpt>
<trkpt lat="46.0219320" lon="9.4085180">
	<ele>1579.60</ele>
	<time>2023-07-15T06:21:03.000Z</time>
</trkpt>
<trkpt lat="46.0219300" lon="9.4085240">
	<ele>1579.80</ele>
	<time>2023-07-15T06:21:04.000Z</time>
</trkpt>
<trkpt lat="46.0219340" lon="9.4085770">
	<ele>1580.60</ele>
	<time>2023-07-15T06:21:09.000Z</time>
</trkpt>
<trkpt lat="46.0219340" lon="9.4086070">
	<ele>1581.00</ele>
	<time>2023-07-15T06:21:11.000Z</time>
</trkpt>
<trkpt lat="46.0219340" lon="9.4086290">
	<ele>1581.20</ele>
	<time>2023-07-15T06:21:12.000Z</time>
</trkpt>
<trkpt lat="46.0219190" lon="9.4086720">
	<ele>1581.60</ele>
	<time>2023-07-15T06:21:15.000Z</time>
</trkpt>
<trkpt lat="46.0219100" lon="9.4086810">
	<ele>1581.80</ele>
	<time>2023-07-15T06:21:16.000Z</time>
</trkpt>
<trkpt lat="46.0218770" lon="9.4087140">
	<ele>1582.20</ele>
	<time>2023-07-15T06:21:20.000Z</time>
</trkpt>
<trkpt lat="46.0218600" lon="9.4087400">
	<ele>1582.80</ele>
	<time>2023-07-15T06:21:23.000Z</time>
</trkpt>
<trkpt lat="46.0218100" lon="9.4088190">
	<ele>1583.40</ele>
	<time>2023-07-15T06:21:29.000Z</time>
</trkpt>
<trkpt lat="46.0218000" lon="9.4088460">
	<ele>1583.80</ele>
	<time>2023-07-15T06:21:32.000Z</time>
</trkpt>
<trkpt lat="46.0217750" lon="9.4089320">
	<ele>1584.80</ele>
	<time>2023-07-15T06:21:40.000Z</time>
</trkpt>
<trkpt lat="46.0217730" lon="9.4089480">
	<ele>1585.00</ele>
	<time>2023-07-15T06:21:41.000Z</time>
</trkpt>
<trkpt lat="46.0217570" lon="9.4090040">
	<ele>1585.80</ele>
	<time>2023-07-15T06:21:48.000Z</time>
</trkpt>
<trkpt lat="46.0217470" lon="9.4090420">
	<ele>1586.20</ele>
	<time>2023-07-15T06:21:51.000Z</time>
</trkpt>
<trkpt lat="46.0217390" lon="9.4090980">
	<ele>1587.00</ele>
	<time>2023-07-15T06:21:56.000Z</time>
</trkpt>
<trkpt lat="46.0217370" lon="9.4091200">
	<ele>1587.20</ele>
	<time>2023-07-15T06:21:58.000Z</time>
</trkpt>
<trkpt lat="46.0217070" lon="9.4091890">
	<ele>1588.40</ele>
	<time>2023-07-15T06:22:05.000Z</time>
</trkpt>
<trkpt lat="46.0216930" lon="9.4092030">
	<ele>1588.80</ele>
	<time>2023-07-15T06:22:07.000Z</time>
</trkpt>
<trkpt lat="46.0216810" lon="9.4092450">
	<ele>1589.40</ele>
	<time>2023-07-15T06:22:11.000Z</time>
</trkpt>
<trkpt lat="46.0216710" lon="9.4092550">
	<ele>1589.60</ele>
	<time>2023-07-15T06:22:12.000Z</time>
</trkpt>
<trkpt lat="46.0216560" lon="9.4092700">
	<ele>1590.00</ele>
	<time>2023-07-15T06:22:16.000Z</time>
</trkpt>
<trkpt lat="46.0216530" lon="9.4092700">
	<ele>1590.00</ele>
	<time>2023-07-15T06:22:17.000Z</time>
</trkpt>
<trkpt lat="46.0216580" lon="9.4092620">
	<ele>1590.40</ele>
	<time>2023-07-15T06:22:24.000Z</time>
</trkpt>
<trkpt lat="46.0216580" lon="9.4092620">
	<ele>1590.40</ele>
	<time>2023-07-15T06:22:29.000Z</time>
</trkpt>
<trkpt lat="46.0216570" lon="9.4092630">
	<ele>1590.60</ele>
	<time>2023-07-15T06:22:36.000Z</time>
</trkpt>
<trkpt lat="46.0215840" lon="9.4093070">
	<ele>1590.80</ele>
	<time>2023-07-15T06:22:41.000Z</time>
</trkpt>
<trkpt lat="46.0215310" lon="9.4093020">
	<ele>1591.60</ele>
	<time>2023-07-15T06:22:44.000Z</time>
</trkpt>
<trkpt lat="46.0214800" lon="9.4093450">
	<ele>1592.40</ele>
	<time>2023-07-15T06:22:48.000Z</time>
</trkpt>
<trkpt lat="46.0214780" lon="9.4093450">
	<ele>1592.60</ele>
	<time>2023-07-15T06:22:49.000Z</time>
</trkpt>
<trkpt lat="46.0214600" lon="9.4093740">
	<ele>1593.00</ele>
	<time>2023-07-15T06:22:51.000Z</time>
</trkpt>
<trkpt lat="46.0214080" lon="9.4094160">
	<ele>1593.20</ele>
	<time>2023-07-15T06:22:56.000Z</time>
</trkpt>
<trkpt lat="46.0213880" lon="9.4094200">
	<ele>1594.00</ele>
	<time>2023-07-15T06:22:58.000Z</time>
</trkpt>
<trkpt lat="46.0213680" lon="9.4094230">
	<ele>1594.60</ele>
	<time>2023-07-15T06:23:01.000Z</time>
</trkpt>
<trkpt lat="46.0213610" lon="9.4094280">
	<ele>1594.60</ele>
	<time>2023-07-15T06:23:02.000Z</time>
</trkpt>
<trkpt lat="46.0213440" lon="9.4094450">
	<ele>1595.20</ele>
	<time>2023-07-15T06:23:05.000Z</time>
</trkpt>
<trkpt lat="46.0212990" lon="9.4094710">
	<ele>1595.80</ele>
	<time>2023-07-15T06:23:10.000Z</time>
</trkpt>
<trkpt lat="46.0212830" lon="9.4094850">
	<ele>1596.20</ele>
	<time>2023-07-15T06:23:12.000Z</time>
</trkpt>
<trkpt lat="46.0212330" lon="9.4095040">
	<ele>1597.40</ele>
	<time>2023-07-15T06:23:18.000Z</time>
</trkpt>
<trkpt lat="46.0211380" lon="9.4095840">
	<ele>1598.20</ele>
	<time>2023-07-15T06:23:28.000Z</time>
</trkpt>
<trkpt lat="46.0211290" lon="9.4095900">
	<ele>1598.60</ele>
	<time>2023-07-15T06:23:29.000Z</time>
</trkpt>
<trkpt lat="46.0210770" lon="9.4096440">
	<ele>1599.60</ele>
	<time>2023-07-15T06:23:37.000Z</time>
</trkpt>
<trkpt lat="46.0210690" lon="9.4096520">
	<ele>1599.80</ele>
	<time>2023-07-15T06:23:38.000Z</time>
</trkpt>
<trkpt lat="46.0210630" lon="9.4096620">
	<ele>1599.80</ele>
	<time>2023-07-15T06:23:39.000Z</time>
</trkpt>
<trkpt lat="46.0210310" lon="9.4097170">
	<ele>1600.60</ele>
	<time>2023-07-15T06:23:44.000Z</time>
</trkpt>
<trkpt lat="46.0210190" lon="9.4097470">
	<ele>1600.80</ele>
	<time>2023-07-15T06:23:47.000Z</time>
</trkpt>
<trkpt lat="46.0209970" lon="9.4098400">
	<ele>1601.60</ele>
	<time>2023-07-15T06:23:55.000Z</time>
</trkpt>
<trkpt lat="46.0209870" lon="9.4098800">
	<ele>1602.20</ele>
	<time>2023-07-15T06:23:58.000Z</time>
</trkpt>
<trkpt lat="46.0209720" lon="9.4099430">
	<ele>1602.80</ele>
	<time>2023-07-15T06:24:03.000Z</time>
</trkpt>
<trkpt lat="46.0209640" lon="9.4099880">
	<ele>1603.00</ele>
	<time>2023-07-15T06:24:06.000Z</time>
</trkpt>
<trkpt lat="46.0209350" lon="9.4100810">
	<ele>1603.80</ele>
	<time>2023-07-15T06:24:13.000Z</time>
</trkpt>
<trkpt lat="46.0209280" lon="9.4101100">
	<ele>1604.00</ele>
	<time>2023-07-15T06:24:15.000Z</time>
</trkpt>
<trkpt lat="46.0209070" lon="9.4101820">
	<ele>1604.80</ele>
	<time>2023-07-15T06:24:21.000Z</time>
</trkpt>
<trkpt lat="46.0208950" lon="9.4102300">
	<ele>1605.40</ele>
	<time>2023-07-15T06:24:24.000Z</time>
</trkpt>
<trkpt lat="46.0208690" lon="9.4103360">
	<ele>1606.00</ele>
	<time>2023-07-15T06:24:32.000Z</time>
</trkpt>
<trkpt lat="46.0208640" lon="9.4103480">
	<ele>1606.00</ele>
	<time>2023-07-15T06:24:33.000Z</time>
</trkpt>
<trkpt lat="46.0208340" lon="9.4104680">
	<ele>1607.00</ele>
	<time>2023-07-15T06:24:42.000Z</time>
</trkpt>
<trkpt lat="46.0208150" lon="9.4105070">
	<ele>1607.40</ele>
	<time>2023-07-15T06:24:46.000Z</time>
</trkpt>
<trkpt lat="46.0208030" lon="9.4105260">
	<ele>1607.60</ele>
	<time>2023-07-15T06:24:48.000Z</time>
</trkpt>
<trkpt lat="46.0208010" lon="9.4105500">
	<ele>1608.00</ele>
	<time>2023-07-15T06:24:50.000Z</time>
</trkpt>
<trkpt lat="46.0208030" lon="9.4106220">
	<ele>1608.40</ele>
	<time>2023-07-15T06:24:54.000Z</time>
</trkpt>
<trkpt lat="46.0207970" lon="9.4106960">
	<ele>1609.20</ele>
	<time>2023-07-15T06:24:59.000Z</time>
</trkpt>
<trkpt lat="46.0207860" lon="9.4107400">
	<ele>1609.60</ele>
	<time>2023-07-15T06:25:03.000Z</time>
</trkpt>
<trkpt lat="46.0207720" lon="9.4107820">
	<ele>1610.20</ele>
	<time>2023-07-15T06:25:07.000Z</time>
</trkpt>
<trkpt lat="46.0207650" lon="9.4108110">
	<ele>1610.40</ele>
	<time>2023-07-15T06:25:09.000Z</time>
</trkpt>
<trkpt lat="46.0207580" lon="9.4108340">
	<ele>1610.80</ele>
	<time>2023-07-15T06:25:12.000Z</time>
</trkpt>
<trkpt lat="46.0207560" lon="9.4108360">
	<ele>1610.80</ele>
	<time>2023-07-15T06:25:13.000Z</time>
</trkpt>
<trkpt lat="46.0207490" lon="9.4108460">
	<ele>1611.20</ele>
	<time>2023-07-15T06:25:15.000Z</time>
</trkpt>
<trkpt lat="46.0207470" lon="9.4108550">
	<ele>1611.20</ele>
	<time>2023-07-15T06:25:16.000Z</time>
</trkpt>
<trkpt lat="46.0207390" lon="9.4108750">
	<ele>1611.20</ele>
	<time>2023-07-15T06:25:18.000Z</time>
</trkpt>
<trkpt lat="46.0207280" lon="9.4108870">
	<ele>1611.40</ele>
	<time>2023-07-15T06:25:19.000Z</time>
</trkpt>
<trkpt lat="46.0206830" lon="9.4109530">
	<ele>1612.40</ele>
	<time>2023-07-15T06:25:25.000Z</time>
</trkpt>
<trkpt lat="46.0206790" lon="9.4109640">
	<ele>1612.60</ele>
	<time>2023-07-15T06:25:26.000Z</time>
</trkpt>
<trkpt lat="46.0206560" lon="9.4110650">
	<ele>1613.40</ele>
	<time>2023-07-15T06:25:33.000Z</time>
</trkpt>
<trkpt lat="46.0206450" lon="9.4110880">
	<ele>1613.60</ele>
	<time>2023-07-15T06:25:35.000Z</time>
</trkpt>
<trkpt lat="46.0206120" lon="9.4111740">
	<ele>1614.20</ele>
	<time>2023-07-15T06:25:40.000Z</time>
</trkpt>
<trkpt lat="46.0206040" lon="9.4111940">
	<ele>1614.40</ele>
	<time>2023-07-15T06:25:42.000Z</time>
</trkpt>
<trkpt lat="46.0205990" lon="9.4112030">
	<ele>1614.60</ele>
	<time>2023-07-15T06:25:43.000Z</time>
</trkpt>
<trkpt lat="46.0205910" lon="9.4112300">
	<ele>1614.80</ele>
	<time>2023-07-15T06:25:45.000Z</time>
</trkpt>
<trkpt lat="46.0205720" lon="9.4112910">
	<ele>1615.40</ele>
	<time>2023-07-15T06:25:50.000Z</time>
</trkpt>
<trkpt lat="46.0205540" lon="9.4113180">
	<ele>1616.00</ele>
	<time>2023-07-15T06:25:53.000Z</time>
</trkpt>
<trkpt lat="46.0205470" lon="9.4113720">
	<ele>1616.60</ele>
	<time>2023-07-15T06:25:57.000Z</time>
</trkpt>
<trkpt lat="46.0205410" lon="9.4113890">
	<ele>1616.60</ele>
	<time>2023-07-15T06:25:58.000Z</time>
</trkpt>
<trkpt lat="46.0205330" lon="9.4114550">
	<ele>1617.60</ele>
	<time>2023-07-15T06:26:03.000Z</time>
</trkpt>
<trkpt lat="46.0205210" lon="9.4114970">
	<ele>1618.00</ele>
	<time>2023-07-15T06:26:07.000Z</time>
</trkpt>
<trkpt lat="46.0205130" lon="9.4115880">
	<ele>1618.80</ele>
	<time>2023-07-15T06:26:13.000Z</time>
</trkpt>
<trkpt lat="46.0205110" lon="9.4116010">
	<ele>1619.00</ele>
	<time>2023-07-15T06:26:14.000Z</time>
</trkpt>
<trkpt lat="46.0205000" lon="9.4116920">
	<ele>1619.80</ele>
	<time>2023-07-15T06:26:21.000Z</time>
</trkpt>
<trkpt lat="46.0204900" lon="9.4117560">
	<ele>1620.20</ele>
	<time>2023-07-15T06:26:25.000Z</time>
</trkpt>
<trkpt lat="46.0204830" lon="9.4118020">
	<ele>1621.00</ele>
	<time>2023-07-15T06:26:29.000Z</time>
</trkpt>
<trkpt lat="46.0204780" lon="9.4118110">
	<ele>1621.20</ele>
	<time>2023-07-15T06:26:30.000Z</time>
</trkpt>
<trkpt lat="46.0204740" lon="9.4118210">
	<ele>1621.60</ele>
	<time>2023-07-15T06:26:32.000Z</time>
</trkpt>
<trkpt lat="46.0204720" lon="9.4118450">
	<ele>1621.80</ele>
	<time>2023-07-15T06:26:34.000Z</time>
</trkpt>
<trkpt lat="46.0204620" lon="9.4119050">
	<ele>1622.00</ele>
	<time>2023-07-15T06:26:38.000Z</time>
</trkpt>
<trkpt lat="46.0204560" lon="9.4119370">
	<ele>1622.40</ele>
	<time>2023-07-15T06:26:41.000Z</time>
</trkpt>
<trkpt lat="46.0204570" lon="9.4119550">
	<ele>1622.60</ele>
	<time>2023-07-15T06:26:42.000Z</time>
</trkpt>
<trkpt lat="46.0204610" lon="9.4120420">
	<ele>1623.20</ele>
	<time>2023-07-15T06:26:49.000Z</time>
</trkpt>
<trkpt lat="46.0204580" lon="9.4120540">
	<ele>1623.40</ele>
	<time>2023-07-15T06:26:50.000Z</time>
</trkpt>
<trkpt lat="46.0204330" lon="9.4121240">
	<ele>1624.00</ele>
	<time>2023-07-15T06:26:57.000Z</time>
</trkpt>
<trkpt lat="46.0204290" lon="9.4121360">
	<ele>1624.20</ele>
	<time>2023-07-15T06:26:58.000Z</time>
</trkpt>
<trkpt lat="46.0204250" lon="9.4122240">
	<ele>1625.20</ele>
	<time>2023-07-15T06:27:04.000Z</time>
</trkpt>
<trkpt lat="46.0204260" lon="9.4122690">
	<ele>1625.40</ele>
	<time>2023-07-15T06:27:07.000Z</time>
</trkpt>
<trkpt lat="46.0204200" lon="9.4123160">
	<ele>1625.60</ele>
	<time>2023-07-15T06:27:10.000Z</time>
</trkpt>
<trkpt lat="46.0204210" lon="9.4123420">
	<ele>1626.20</ele>
	<time>2023-07-15T06:27:12.000Z</time>
</trkpt>
<trkpt lat="46.0204190" lon="9.4123700">
	<ele>1626.60</ele>
	<time>2023-07-15T06:27:14.000Z</time>
</trkpt>
<trkpt lat="46.0204120" lon="9.4123990">
	<ele>1626.80</ele>
	<time>2023-07-15T06:27:16.000Z</time>
</trkpt>
<trkpt lat="46.0204010" lon="9.4124350">
	<ele>1627.20</ele>
	<time>2023-07-15T06:27:19.000Z</time>
</trkpt>
<trkpt lat="46.0203970" lon="9.4124610">
	<ele>1627.60</ele>
	<time>2023-07-15T06:27:21.000Z</time>
</trkpt>
<trkpt lat="46.0203690" lon="9.4125450">
	<ele>1628.20</ele>
	<time>2023-07-15T06:27:29.000Z</time>
</trkpt>
<trkpt lat="46.0203630" lon="9.4125710">
	<ele>1628.40</ele>
	<time>2023-07-15T06:27:31.000Z</time>
</trkpt>
<trkpt lat="46.0203590" lon="9.4126600">
	<ele>1629.40</ele>
	<time>2023-07-15T06:27:37.000Z</time>
</trkpt>
<trkpt lat="46.0203350" lon="9.4127180">
	<ele>1629.60</ele>
	<time>2023-07-15T06:27:41.000Z</time>
</trkpt>
<trkpt lat="46.0203240" lon="9.4127680">
	<ele>1630.40</ele>
	<time>2023-07-15T06:27:45.000Z</time>
</trkpt>
<trkpt lat="46.0202950" lon="9.4128320">
	<ele>1631.40</ele>
	<time>2023-07-15T06:27:51.000Z</time>
</trkpt>
<trkpt lat="46.0202680" lon="9.4129190">
	<ele>1632.40</ele>
	<time>2023-07-15T06:27:58.000Z</time>
</trkpt>
<trkpt lat="46.0202560" lon="9.4129540">
	<ele>1632.80</ele>
	<time>2023-07-15T06:28:01.000Z</time>
</trkpt>
<trkpt lat="46.0202180" lon="9.4130270">
	<ele>1633.40</ele>
	<time>2023-07-15T06:28:07.000Z</time>
</trkpt>
<trkpt lat="46.0202100" lon="9.4130360">
	<ele>1633.40</ele>
	<time>2023-07-15T06:28:08.000Z</time>
</trkpt>
<trkpt lat="46.0202060" lon="9.4130480">
	<ele>1633.60</ele>
	<time>2023-07-15T06:28:09.000Z</time>
</trkpt>
<trkpt lat="46.0202050" lon="9.4130610">
	<ele>1633.60</ele>
	<time>2023-07-15T06:28:10.000Z</time>
</trkpt>
<trkpt lat="46.0201810" lon="9.4131280">
	<ele>1634.60</ele>
	<time>2023-07-15T06:28:16.000Z</time>
</trkpt>
<trkpt lat="46.0201690" lon="9.4131500">
	<ele>1635.00</ele>
	<time>2023-07-15T06:28:20.000Z</time>
</trkpt>
<trkpt lat="46.0201800" lon="9.4131530">
	<ele>1635.00</ele>
	<time>2023-07-15T06:28:29.000Z</time>
</trkpt>
<trkpt lat="46.0201800" lon="9.4131520">
	<ele>1635.60</ele>
	<time>2023-07-15T06:28:38.000Z</time>
</trkpt>
<trkpt lat="46.0201800" lon="9.4131490">
	<ele>1635.60</ele>
	<time>2023-07-15T06:28:42.000Z</time>
</trkpt>
<trkpt lat="46.0201810" lon="9.4131660">
	<ele>1635.60</ele>
	<time>2023-07-15T06:28:49.000Z</time>
</trkpt>
<trkpt lat="46.0201560" lon="9.4131800">
	<ele>1635.80</ele>
	<time>2023-07-15T06:28:51.000Z</time>
</trkpt>
<trkpt lat="46.0201310" lon="9.4132540">
	<ele>1636.00</ele>
	<time>2023-07-15T06:28:56.000Z</time>
</trkpt>
<trkpt lat="46.0201250" lon="9.4132750">
	<ele>1636.00</ele>
	<time>2023-07-15T06:28:57.000Z</time>
</trkpt>
<trkpt lat="46.0201070" lon="9.4132940">
	<ele>1636.20</ele>
	<time>2023-07-15T06:28:59.000Z</time>
</trkpt>
<trkpt lat="46.0200970" lon="9.4133270">
	<ele>1636.40</ele>
	<time>2023-07-15T06:29:01.000Z</time>
</trkpt>
<trkpt lat="46.0200990" lon="9.4133560">
	<ele>1636.60</ele>
	<time>2023-07-15T06:29:03.000Z</time>
</trkpt>
<trkpt lat="46.0201020" lon="9.4133890">
	<ele>1637.00</ele>
	<time>2023-07-15T06:29:05.000Z</time>
</trkpt>
<trkpt lat="46.0200900" lon="9.4134490">
	<ele>1637.80</ele>
	<time>2023-07-15T06:29:09.000Z</time>
</trkpt>
<trkpt lat="46.0200660" lon="9.4135230">
	<ele>1638.20</ele>
	<time>2023-07-15T06:29:14.000Z</time>
</trkpt>
<trkpt lat="46.0200540" lon="9.4135800">
	<ele>1638.80</ele>
	<time>2023-07-15T06:29:18.000Z</time>
</trkpt>
<trkpt lat="46.0200330" lon="9.4137000">
	<ele>1639.60</ele>
	<time>2023-07-15T06:29:26.000Z</time>
</trkpt>
<trkpt lat="46.0200190" lon="9.4137330">
	<ele>1639.80</ele>
	<time>2023-07-15T06:29:29.000Z</time>
</trkpt>
<trkpt lat="46.0200150" lon="9.4138220">
	<ele>1640.00</ele>
	<time>2023-07-15T06:29:34.000Z</time>
</trkpt>
<trkpt lat="46.0200140" lon="9.4138540">
	<ele>1640.40</ele>
	<time>2023-07-15T06:29:36.000Z</time>
</trkpt>
<trkpt lat="46.0200090" lon="9.4138770">
	<ele>1640.80</ele>
	<time>2023-07-15T06:29:38.000Z</time>
</trkpt>
<trkpt lat="46.0199910" lon="9.4139750">
	<ele>1641.80</ele>
	<time>2023-07-15T06:29:45.000Z</time>
</trkpt>
<trkpt lat="46.0199890" lon="9.4139880">
	<ele>1641.80</ele>
	<time>2023-07-15T06:29:46.000Z</time>
</trkpt>
<trkpt lat="46.0199810" lon="9.4140060">
	<ele>1641.80</ele>
	<time>2023-07-15T06:29:48.000Z</time>
</trkpt>
<trkpt lat="46.0199730" lon="9.4140330">
	<ele>1642.20</ele>
	<time>2023-07-15T06:29:50.000Z</time>
</trkpt>
<trkpt lat="46.0199690" lon="9.4140500">
	<ele>1642.40</ele>
	<time>2023-07-15T06:29:51.000Z</time>
</trkpt>
<trkpt lat="46.0199570" lon="9.4140760">
	<ele>1642.60</ele>
	<time>2023-07-15T06:29:53.000Z</time>
</trkpt>
<trkpt lat="46.0199410" lon="9.4141050">
	<ele>1643.20</ele>
	<time>2023-07-15T06:29:56.000Z</time>
</trkpt>
<trkpt lat="46.0199090" lon="9.4141730">
	<ele>1644.20</ele>
	<time>2023-07-15T06:30:03.000Z</time>
</trkpt>
<trkpt lat="46.0199020" lon="9.4142090">
	<ele>1644.20</ele>
	<time>2023-07-15T06:30:06.000Z</time>
</trkpt>
<trkpt lat="46.0198870" lon="9.4142780">
	<ele>1644.60</ele>
	<time>2023-07-15T06:30:14.000Z</time>
</trkpt>
<trkpt lat="46.0198890" lon="9.4142760">
	<ele>1644.80</ele>
	<time>2023-07-15T06:30:17.000Z</time>
</trkpt>
<trkpt lat="46.0198910" lon="9.4142750">
	<ele>1644.60</ele>
	<time>2023-07-15T06:30:23.000Z</time>
</trkpt>
<trkpt lat="46.0198760" lon="9.4143290">
	<ele>1644.80</ele>
	<time>2023-07-15T06:30:37.000Z</time>
</trkpt>
<trkpt lat="46.0198410" lon="9.4144590">
	<ele>1644.80</ele>
	<time>2023-07-15T06:30:43.000Z</time>
</trkpt>
<trkpt lat="46.0198250" lon="9.4145040">
	<ele>1644.80</ele>
	<time>2023-07-15T06:30:46.000Z</time>
</trkpt>
<trkpt lat="46.0198130" lon="9.4145650">
	<ele>1645.20</ele>
	<time>2023-07-15T06:30:50.000Z</time>
</trkpt>
<trkpt lat="46.0198090" lon="9.4145750">
	<ele>1645.40</ele>
	<time>2023-07-15T06:30:51.000Z</time>
</trkpt>
<trkpt lat="46.0197720" lon="9.4146650">
	<ele>1645.40</ele>
	<time>2023-07-15T06:30:57.000Z</time>
</trkpt>
<trkpt lat="46.0197610" lon="9.4146860">
	<ele>1645.60</ele>
	<time>2023-07-15T06:30:59.000Z</time>
</trkpt>
<trkpt lat="46.0197500" lon="9.4147090">
	<ele>1645.60</ele>
	<time>2023-07-15T06:31:01.000Z</time>
</trkpt>
<trkpt lat="46.0197390" lon="9.4147320">
	<ele>1645.80</ele>
	<time>2023-07-15T06:31:03.000Z</time>
</trkpt>
<trkpt lat="46.0197240" lon="9.4147670">
	<ele>1646.20</ele>
	<time>2023-07-15T06:31:06.000Z</time>
</trkpt>
<trkpt lat="46.0197190" lon="9.4147830">
	<ele>1646.40</ele>
	<time>2023-07-15T06:31:07.000Z</time>
</trkpt>
<trkpt lat="46.0196640" lon="9.4148970">
	<ele>1646.80</ele>
	<time>2023-07-15T06:31:17.000Z</time>
</trkpt>
<trkpt lat="46.0196530" lon="9.4149360">
	<ele>1647.00</ele>
	<time>2023-07-15T06:31:20.000Z</time>
</trkpt>
<trkpt lat="46.0196290" lon="9.4150020">
	<ele>1647.20</ele>
	<time>2023-07-15T06:31:25.000Z</time>
</trkpt>
<trkpt lat="46.0196260" lon="9.4150130">
	<ele>1647.40</ele>
	<time>2023-07-15T06:31:26.000Z</time>
</trkpt>
<trkpt lat="46.0195350" lon="9.4151870">
	<ele>1648.20</ele>
	<time>2023-07-15T06:31:39.000Z</time>
</trkpt>
<trkpt lat="46.0195310" lon="9.4151970">
	<ele>1648.40</ele>
	<time>2023-07-15T06:31:40.000Z</time>
</trkpt>
<trkpt lat="46.0194630" lon="9.4152450">
	<ele>1649.00</ele>
	<time>2023-07-15T06:31:47.000Z</time>
</trkpt>
<trkpt lat="46.0194340" lon="9.4152980">
	<ele>1649.80</ele>
	<time>2023-07-15T06:31:51.000Z</time>
</trkpt>
<trkpt lat="46.0194010" lon="9.4153670">
	<ele>1650.00</ele>
	<time>2023-07-15T06:31:57.000Z</time>
</trkpt>
<trkpt lat="46.0193350" lon="9.4154870">
	<ele>1650.60</ele>
	<time>2023-07-15T06:32:07.000Z</time>
</trkpt>
<trkpt lat="46.0193340" lon="9.4155060">
	<ele>1650.60</ele>
	<time>2023-07-15T06:32:08.000Z</time>
</trkpt>
<trkpt lat="46.0193290" lon="9.4156210">
	<ele>1650.80</ele>
	<time>2023-07-15T06:32:15.000Z</time>
</trkpt>
<trkpt lat="46.0193220" lon="9.4156320">
	<ele>1650.80</ele>
	<time>2023-07-15T06:32:16.000Z</time>
</trkpt>
<trkpt lat="46.0193040" lon="9.4157340">
	<ele>1651.20</ele>
	<time>2023-07-15T06:32:23.000Z</time>
</trkpt>
<trkpt lat="46.0192920" lon="9.4157830">
	<ele>1651.60</ele>
	<time>2023-07-15T06:32:26.000Z</time>
</trkpt>
<trkpt lat="46.0192760" lon="9.4158470">
	<ele>1651.60</ele>
	<time>2023-07-15T06:32:30.000Z</time>
</trkpt>
<trkpt lat="46.0192800" lon="9.4159200">
	<ele>1652.00</ele>
	<time>2023-07-15T06:32:34.000Z</time>
</trkpt>
<trkpt lat="46.0192750" lon="9.4160000">
	<ele>1652.40</ele>
	<time>2023-07-15T06:32:39.000Z</time>
</trkpt>
<trkpt lat="46.0192600" lon="9.4160620">
	<ele>1653.00</ele>
	<time>2023-07-15T06:32:43.000Z</time>
</trkpt>
<trkpt lat="46.0192370" lon="9.4161560">
	<ele>1653.60</ele>
	<time>2023-07-15T06:32:49.000Z</time>
</trkpt>
<trkpt lat="46.0192250" lon="9.4162210">
	<ele>1654.20</ele>
	<time>2023-07-15T06:32:53.000Z</time>
</trkpt>
<trkpt lat="46.0191990" lon="9.4162890">
	<ele>1655.00</ele>
	<time>2023-07-15T06:32:58.000Z</time>
</trkpt>
<trkpt lat="46.0191870" lon="9.4163470">
	<ele>1655.20</ele>
	<time>2023-07-15T06:33:02.000Z</time>
</trkpt>
<trkpt lat="46.0191610" lon="9.4164490">
	<ele>1655.80</ele>
	<time>2023-07-15T06:33:08.000Z</time>
</trkpt>
<trkpt lat="46.0191480" lon="9.4166050">
	<ele>1656.20</ele>
	<time>2023-07-15T06:33:17.000Z</time>
</trkpt>
<trkpt lat="46.0191380" lon="9.4166330">
	<ele>1656.40</ele>
	<time>2023-07-15T06:33:19.000Z</time>
</trkpt>
<trkpt lat="46.0190990" lon="9.4167830">
	<ele>1657.20</ele>
	<time>2023-07-15T06:33:29.000Z</time>
</trkpt>
<trkpt lat="46.0190920" lon="9.4167910">
	<ele>1657.40</ele>
	<time>2023-07-15T06:33:30.000Z</time>
</trkpt>
<trkpt lat="46.0190800" lon="9.4168040">
	<ele>1657.60</ele>
	<time>2023-07-15T06:33:34.000Z</time>
</trkpt>
<trkpt lat="46.0190810" lon="9.4168050">
	<ele>1658.20</ele>
	<time>2023-07-15T06:33:37.000Z</time>
</trkpt>
<trkpt lat="46.0190800" lon="9.4168050">
	<ele>1658.40</ele>
	<time>2023-07-15T06:33:38.000Z</time>
</trkpt>
<trkpt lat="46.0190600" lon="9.4168750">
	<ele>1658.20</ele>
	<time>2023-07-15T06:33:48.000Z</time>
</trkpt>
<trkpt lat="46.0190390" lon="9.4169370">
	<ele>1658.40</ele>
	<time>2023-07-15T06:33:52.000Z</time>
</trkpt>
<trkpt lat="46.0190350" lon="9.4169760">
	<ele>1659.00</ele>
	<time>2023-07-15T06:33:55.000Z</time>
</trkpt>
<trkpt lat="46.0190310" lon="9.4170160">
	<ele>1659.40</ele>
	<time>2023-07-15T06:33:58.000Z</time>
</trkpt>
<trkpt lat="46.0190140" lon="9.4170720">
	<ele>1660.00</ele>
	<time>2023-07-15T06:34:02.000Z</time>
</trkpt>
<trkpt lat="46.0189950" lon="9.4171750">
	<ele>1660.80</ele>
	<time>2023-07-15T06:34:09.000Z</time>
</trkpt>
<trkpt lat="46.0189840" lon="9.4172000">
	<ele>1661.60</ele>
	<time>2023-07-15T06:34:12.000Z</time>
</trkpt>
<trkpt lat="46.0189710" lon="9.4172420">
	<ele>1661.60</ele>
	<time>2023-07-15T06:34:17.000Z</time>
</trkpt>
<trkpt lat="46.0189670" lon="9.4172640">
	<ele>1661.60</ele>
	<time>2023-07-15T06:34:19.000Z</time>
</trkpt>
<trkpt lat="46.0189260" lon="9.4173900">
	<ele>1661.40</ele>
	<time>2023-07-15T06:34:27.000Z</time>
</trkpt>
<trkpt lat="46.0189110" lon="9.4174120">
	<ele>1661.40</ele>
	<time>2023-07-15T06:34:29.000Z</time>
</trkpt>
<trkpt lat="46.0188930" lon="9.4174520">
	<ele>1661.60</ele>
	<time>2023-07-15T06:34:32.000Z</time>
</trkpt>
<trkpt lat="46.0188770" lon="9.4174670">
	<ele>1661.80</ele>
	<time>2023-07-15T06:34:34.000Z</time>
</trkpt>
<trkpt lat="46.0188460" lon="9.4175410">
	<ele>1662.00</ele>
	<time>2023-07-15T06:34:39.000Z</time>
</trkpt>
<trkpt lat="46.0188360" lon="9.4175720">
	<ele>1662.00</ele>
	<time>2023-07-15T06:34:41.000Z</time>
</trkpt>
<trkpt lat="46.0188260" lon="9.4176040">
	<ele>1662.20</ele>
	<time>2023-07-15T06:34:43.000Z</time>
</trkpt>
<trkpt lat="46.0188160" lon="9.4176270">
	<ele>1662.20</ele>
	<time>2023-07-15T06:34:45.000Z</time>
</trkpt>
<trkpt lat="46.0187820" lon="9.4177260">
	<ele>1662.60</ele>
	<time>2023-07-15T06:34:51.000Z</time>
</trkpt>
<trkpt lat="46.0187500" lon="9.4177960">
	<ele>1663.00</ele>
	<time>2023-07-15T06:34:56.000Z</time>
</trkpt>
<trkpt lat="46.0187430" lon="9.4178070">
	<ele>1663.00</ele>
	<time>2023-07-15T06:34:57.000Z</time>
</trkpt>
<trkpt lat="46.0186880" lon="9.4179710">
	<ele>1663.60</ele>
	<time>2023-07-15T06:35:08.000Z</time>
</trkpt>
<trkpt lat="46.0186810" lon="9.4179980">
	<ele>1663.80</ele>
	<time>2023-07-15T06:35:10.000Z</time>
</trkpt>
<trkpt lat="46.0186820" lon="9.4180430">
	<ele>1664.00</ele>
	<time>2023-07-15T06:35:13.000Z</time>
</trkpt>
<trkpt lat="46.0186790" lon="9.4180710">
	<ele>1664.00</ele>
	<time>2023-07-15T06:35:15.000Z</time>
</trkpt>
<trkpt lat="46.0186720" lon="9.4181320">
	<ele>1664.20</ele>
	<time>2023-07-15T06:35:19.000Z</time>
</trkpt>
<trkpt lat="46.0186510" lon="9.4182270">
	<ele>1664.80</ele>
	<time>2023-07-15T06:35:25.000Z</time>
</trkpt>
<trkpt lat="46.0185990" lon="9.4183250">
	<ele>1665.00</ele>
	<time>2023-07-15T06:35:31.000Z</time>
</trkpt>
<trkpt lat="46.0185780" lon="9.4183670">
	<ele>1665.00</ele>
	<time>2023-07-15T06:35:34.000Z</time>
</trkpt>
<trkpt lat="46.0184830" lon="9.4184580">
	<ele>1665.20</ele>
	<time>2023-07-15T06:35:42.000Z</time>
</trkpt>
<trkpt lat="46.0184440" lon="9.4185740">
	<ele>1665.80</ele>
	<time>2023-07-15T06:35:49.000Z</time>
</trkpt>
<trkpt lat="46.0184160" lon="9.4186030">
	<ele>1665.80</ele>
	<time>2023-07-15T06:35:52.000Z</time>
</trkpt>
<trkpt lat="46.0183670" lon="9.4186740">
	<ele>1666.00</ele>
	<time>2023-07-15T06:35:58.000Z</time>
</trkpt>
<trkpt lat="46.0183150" lon="9.4187470">
	<ele>1666.40</ele>
	<time>2023-07-15T06:36:04.000Z</time>
</trkpt>
<trkpt lat="46.0182960" lon="9.4187930">
	<ele>1666.40</ele>
	<time>2023-07-15T06:36:07.000Z</time>
</trkpt>
<trkpt lat="46.0182660" lon="9.4188300">
	<ele>1666.80</ele>
	<time>2023-07-15T06:36:11.000Z</time>
</trkpt>
<trkpt lat="46.0182320" lon="9.4188760">
	<ele>1667.00</ele>
	<time>2023-07-15T06:36:15.000Z</time>
</trkpt>
<trkpt lat="46.0181870" lon="9.4188970">
	<ele>1667.00</ele>
	<time>2023-07-15T06:36:18.000Z</time>
</trkpt>
<trkpt lat="46.0181430" lon="9.4189550">
	<ele>1667.00</ele>
	<time>2023-07-15T06:36:24.000Z</time>
</trkpt>
<trkpt lat="46.0181360" lon="9.4189630">
	<ele>1667.00</ele>
	<time>2023-07-15T06:36:25.000Z</time>
</trkpt>
<trkpt lat="46.0180720" lon="9.4189960">
	<ele>1667.60</ele>
	<time>2023-07-15T06:36:31.000Z</time>
</trkpt>
<trkpt lat="46.0180140" lon="9.4190140">
	<ele>1667.60</ele>
	<time>2023-07-15T06:36:35.000Z</time>
</trkpt>
<trkpt lat="46.0179810" lon="9.4190280">
	<ele>1668.00</ele>
	<time>2023-07-15T06:36:38.000Z</time>
</trkpt>
<trkpt lat="46.0179710" lon="9.4190320">
	<ele>1668.20</ele>
	<time>2023-07-15T06:36:39.000Z</time>
</trkpt>
<trkpt lat="46.0179530" lon="9.4190290">
	<ele>1668.20</ele>
	<time>2023-07-15T06:36:40.000Z</time>
</trkpt>
<trkpt lat="46.0179390" lon="9.4190350">
	<ele>1668.20</ele>
	<time>2023-07-15T06:36:41.000Z</time>
</trkpt>
<trkpt lat="46.0178920" lon="9.4190600">
	<ele>1668.40</ele>
	<time>2023-07-15T06:36:45.000Z</time>
</trkpt>
<trkpt lat="46.0178610" lon="9.4190520">
	<ele>1668.60</ele>
	<time>2023-07-15T06:36:48.000Z</time>
</trkpt>
<trkpt lat="46.0177680" lon="9.4190710">
	<ele>1669.20</ele>
	<time>2023-07-15T06:36:54.000Z</time>
</trkpt>
<trkpt lat="46.0177520" lon="9.4190670">
	<ele>1669.40</ele>
	<time>2023-07-15T06:36:55.000Z</time>
</trkpt>
<trkpt lat="46.0177290" lon="9.4190770">
	<ele>1669.60</ele>
	<time>2023-07-15T06:36:57.000Z</time>
</trkpt>
<trkpt lat="46.0177030" lon="9.4190830">
	<ele>1669.80</ele>
	<time>2023-07-15T06:37:00.000Z</time>
</trkpt>
<trkpt lat="46.0176950" lon="9.4190910">
	<ele>1670.00</ele>
	<time>2023-07-15T06:37:01.000Z</time>
</trkpt>
<trkpt lat="46.0176410" lon="9.4191150">
	<ele>1670.20</ele>
	<time>2023-07-15T06:37:07.000Z</time>
</trkpt>
<trkpt lat="46.0176280" lon="9.4191350">
	<ele>1670.40</ele>
	<time>2023-07-15T06:37:09.000Z</time>
</trkpt>
<trkpt lat="46.0175920" lon="9.4191650">
	<ele>1670.60</ele>
	<time>2023-07-15T06:37:13.000Z</time>
</trkpt>
<trkpt lat="46.0175560" lon="9.4191770">
	<ele>1670.80</ele>
	<time>2023-07-15T06:37:16.000Z</time>
</trkpt>
<trkpt lat="46.0175430" lon="9.4191810">
	<ele>1670.80</ele>
	<time>2023-07-15T06:37:17.000Z</time>
</trkpt>
<trkpt lat="46.0174400" lon="9.4191910">
	<ele>1671.20</ele>
	<time>2023-07-15T06:37:25.000Z</time>
</trkpt>
<trkpt lat="46.0173350" lon="9.4192600">
	<ele>1671.20</ele>
	<time>2023-07-15T06:37:34.000Z</time>
</trkpt>
<trkpt lat="46.0173220" lon="9.4192700">
	<ele>1671.20</ele>
	<time>2023-07-15T06:37:35.000Z</time>
</trkpt>
<trkpt lat="46.0172300" lon="9.4193510">
	<ele>1671.40</ele>
	<time>2023-07-15T06:37:45.000Z</time>
</trkpt>
<trkpt lat="46.0171730" lon="9.4193850">
	<ele>1671.40</ele>
	<time>2023-07-15T06:37:50.000Z</time>
</trkpt>
<trkpt lat="46.0171550" lon="9.4194070">
	<ele>1671.40</ele>
	<time>2023-07-15T06:37:52.000Z</time>
</trkpt>
<trkpt lat="46.0171450" lon="9.4194180">
	<ele>1671.40</ele>
	<time>2023-07-15T06:37:53.000Z</time>
</trkpt>
<trkpt lat="46.0170990" lon="9.4194420">
	<ele>1672.00</ele>
	<time>2023-07-15T06:37:59.000Z</time>
</trkpt>
<trkpt lat="46.0170990" lon="9.4194420">
	<ele>1672.00</ele>
	<time>2023-07-15T06:38:00.000Z</time>
</trkpt>
<trkpt lat="46.0170980" lon="9.4194420">
	<ele>1672.40</ele>
	<time>2023-07-15T06:38:02.000Z</time>
</trkpt>
<trkpt lat="46.0170900" lon="9.4194590">
	<ele>1671.80</ele>
	<time>2023-07-15T06:38:09.000Z</time>
</trkpt>
<trkpt lat="46.0170510" lon="9.4195240">
	<ele>1671.60</ele>
	<time>2023-07-15T06:38:15.000Z</time>
</trkpt>
<trkpt lat="46.0170000" lon="9.4196180">
	<ele>1671.80</ele>
	<time>2023-07-15T06:38:22.000Z</time>
</trkpt>
<trkpt lat="46.0169420" lon="9.4196920">
	<ele>1672.20</ele>
	<time>2023-07-15T06:38:28.000Z</time>
</trkpt>
<trkpt lat="46.0169280" lon="9.4197210">
	<ele>1672.00</ele>
	<time>2023-07-15T06:38:30.000Z</time>
</trkpt>
<trkpt lat="46.0168720" lon="9.4198310">
	<ele>1672.00</ele>
	<time>2023-07-15T06:38:38.000Z</time>
</trkpt>
<trkpt lat="46.0168560" lon="9.4198730">
	<ele>1672.00</ele>
	<time>2023-07-15T06:38:41.000Z</time>
</trkpt>
<trkpt lat="46.0168430" lon="9.4199400">
	<ele>1672.00</ele>
	<time>2023-07-15T06:38:45.000Z</time>
</trkpt>
<trkpt lat="46.0168320" lon="9.4199740">
	<ele>1672.00</ele>
	<time>2023-07-15T06:38:47.000Z</time>
</trkpt>
<trkpt lat="46.0168180" lon="9.4200590">
	<ele>1672.00</ele>
	<time>2023-07-15T06:38:52.000Z</time>
</trkpt>
<trkpt lat="46.0168100" lon="9.4201310">
	<ele>1672.20</ele>
	<time>2023-07-15T06:38:56.000Z</time>
</trkpt>
<trkpt lat="46.0168110" lon="9.4201470">
	<ele>1672.40</ele>
	<time>2023-07-15T06:38:57.000Z</time>
</trkpt>
<trkpt lat="46.0167920" lon="9.4203050">
	<ele>1672.60</ele>
	<time>2023-07-15T06:39:06.000Z</time>
</trkpt>
<trkpt lat="46.0167930" lon="9.4203470">
	<ele>1672.60</ele>
	<time>2023-07-15T06:39:08.000Z</time>
</trkpt>
<trkpt lat="46.0167900" lon="9.4203630">
	<ele>1672.60</ele>
	<time>2023-07-15T06:39:09.000Z</time>
</trkpt>
<trkpt lat="46.0167630" lon="9.4204920">
	<ele>1672.80</ele>
	<time>2023-07-15T06:39:17.000Z</time>
</trkpt>
<trkpt lat="46.0167540" lon="9.4206530">
	<ele>1672.80</ele>
	<time>2023-07-15T06:39:26.000Z</time>
</trkpt>
<trkpt lat="46.0167290" lon="9.4207710">
	<ele>1672.80</ele>
	<time>2023-07-15T06:39:33.000Z</time>
</trkpt>
<trkpt lat="46.0167320" lon="9.4207980">
	<ele>1672.80</ele>
	<time>2023-07-15T06:39:35.000Z</time>
</trkpt>
<trkpt lat="46.0166810" lon="9.4209590">
	<ele>1673.40</ele>
	<time>2023-07-15T06:39:45.000Z</time>
</trkpt>
<trkpt lat="46.0166720" lon="9.4209710">
	<ele>1673.40</ele>
	<time>2023-07-15T06:39:46.000Z</time>
</trkpt>
<trkpt lat="46.0166430" lon="9.4210380">
	<ele>1673.60</ele>
	<time>2023-07-15T06:39:50.000Z</time>
</trkpt>
<trkpt lat="46.0166220" lon="9.4210840">
	<ele>1674.00</ele>
	<time>2023-07-15T06:39:54.000Z</time>
</trkpt>
<trkpt lat="46.0165970" lon="9.4211470">
	<ele>1674.40</ele>
	<time>2023-07-15T06:39:58.000Z</time>
</trkpt>
<trkpt lat="46.0165720" lon="9.4211800">
	<ele>1675.00</ele>
	<time>2023-07-15T06:40:01.000Z</time>
</trkpt>
<trkpt lat="46.0165530" lon="9.4212280">
	<ele>1675.40</ele>
	<time>2023-07-15T06:40:05.000Z</time>
</trkpt>
<trkpt lat="46.0165490" lon="9.4212400">
	<ele>1675.40</ele>
	<time>2023-07-15T06:40:06.000Z</time>
</trkpt>
<trkpt lat="46.0165370" lon="9.4212590">
	<ele>1675.60</ele>
	<time>2023-07-15T06:40:08.000Z</time>
</trkpt>
<trkpt lat="46.0164940" lon="9.4213560">
	<ele>1676.60</ele>
	<time>2023-07-15T06:40:16.000Z</time>
</trkpt>
<trkpt lat="46.0164860" lon="9.4213800">
	<ele>1677.20</ele>
	<time>2023-07-15T06:40:18.000Z</time>
</trkpt>
<trkpt lat="46.0164740" lon="9.4214130">
	<ele>1677.60</ele>
	<time>2023-07-15T06:40:21.000Z</time>
</trkpt>
<trkpt lat="46.0164580" lon="9.4214610">
	<ele>1678.60</ele>
	<time>2023-07-15T06:40:25.000Z</time>
</trkpt>
<trkpt lat="46.0164540" lon="9.4214740">
	<ele>1678.80</ele>
	<time>2023-07-15T06:40:26.000Z</time>
</trkpt>
<trkpt lat="46.0164430" lon="9.4214980">
	<ele>1679.00</ele>
	<time>2023-07-15T06:40:28.000Z</time>
</trkpt>
<trkpt lat="46.0164060" lon="9.4215730">
	<ele>1679.80</ele>
	<time>2023-07-15T06:40:34.000Z</time>
</trkpt>
<trkpt lat="46.0164020" lon="9.4215840">
	<ele>1680.00</ele>
	<time>2023-07-15T06:40:35.000Z</time>
</trkpt>
<trkpt lat="46.0163910" lon="9.4216130">
	<ele>1680.20</ele>
	<time>2023-07-15T06:40:37.000Z</time>
</trkpt>
<trkpt lat="46.0163660" lon="9.4216730">
	<ele>1680.80</ele>
	<time>2023-07-15T06:40:42.000Z</time>
</trkpt>
<trkpt lat="46.0163650" lon="9.4216870">
	<ele>1681.00</ele>
	<time>2023-07-15T06:40:43.000Z</time>
</trkpt>
<trkpt lat="46.0163650" lon="9.4217210">
	<ele>1681.20</ele>
	<time>2023-07-15T06:40:45.000Z</time>
</trkpt>
<trkpt lat="46.0163500" lon="9.4218430">
	<ele>1682.00</ele>
	<time>2023-07-15T06:40:53.000Z</time>
</trkpt>
<trkpt lat="46.0162930" lon="9.4219610">
	<ele>1683.00</ele>
	<time>2023-07-15T06:41:02.000Z</time>
</trkpt>
<trkpt lat="46.0162330" lon="9.4220460">
	<ele>1684.20</ele>
	<time>2023-07-15T06:41:10.000Z</time>
</trkpt>
<trkpt lat="46.0161540" lon="9.4221350">
	<ele>1685.20</ele>
	<time>2023-07-15T06:41:19.000Z</time>
</trkpt>
<trkpt lat="46.0161470" lon="9.4221480">
	<ele>1685.20</ele>
	<time>2023-07-15T06:41:20.000Z</time>
</trkpt>
<trkpt lat="46.0161440" lon="9.4221680">
	<ele>1685.20</ele>
	<time>2023-07-15T06:41:22.000Z</time>
</trkpt>
<trkpt lat="46.0161430" lon="9.4221730">
	<ele>1685.20</ele>
	<time>2023-07-15T06:41:24.000Z</time>
</trkpt>
<trkpt lat="46.0161400" lon="9.4221660">
	<ele>1685.60</ele>
	<time>2023-07-15T06:41:27.000Z</time>
</trkpt>
<trkpt lat="46.0161550" lon="9.4222030">
	<ele>1685.80</ele>
	<time>2023-07-15T06:41:32.000Z</time>
</trkpt>
<trkpt lat="46.0161600" lon="9.4222140">
	<ele>1686.40</ele>
	<time>2023-07-15T06:41:35.000Z</time>
</trkpt>
<trkpt lat="46.0161620" lon="9.4222150">
	<ele>1687.20</ele>
	<time>2023-07-15T06:41:40.000Z</time>
</trkpt>
<trkpt lat="46.0161620" lon="9.4222150">
	<ele>1687.20</ele>
	<time>2023-07-15T06:41:41.000Z</time>
</trkpt>
<trkpt lat="46.0161540" lon="9.4222260">
	<ele>1686.40</ele>
	<time>2023-07-15T06:42:00.000Z</time>
</trkpt>
<trkpt lat="46.0161540" lon="9.4222300">
	<ele>1686.20</ele>
	<time>2023-07-15T06:42:06.000Z</time>
</trkpt>
<trkpt lat="46.0161580" lon="9.4222360">
	<ele>1686.60</ele>
	<time>2023-07-15T06:42:19.000Z</time>
</trkpt>
<trkpt lat="46.0161580" lon="9.4222360">
	<ele>1686.80</ele>
	<time>2023-07-15T06:42:22.000Z</time>
</trkpt>
<trkpt lat="46.0161590" lon="9.4222360">
	<ele>1686.60</ele>
	<time>2023-07-15T06:42:26.000Z</time>
</trkpt>
<trkpt lat="46.0161590" lon="9.4222360">
	<ele>1686.60</ele>
	<time>2023-07-15T06:42:29.000Z</time>
</trkpt>
<trkpt lat="46.0161610" lon="9.4222360">
	<ele>1686.40</ele>
	<time>2023-07-15T06:42:35.000Z</time>
</trkpt>
<trkpt lat="46.0161640" lon="9.4222290">
	<ele>1686.00</ele>
	<time>2023-07-15T06:42:46.000Z</time>
</trkpt>
<trkpt lat="46.0161650" lon="9.4222290">
	<ele>1686.00</ele>
	<time>2023-07-15T06:42:50.000Z</time>
</trkpt>
<trkpt lat="46.0161660" lon="9.4222280">
	<ele>1686.00</ele>
	<time>2023-07-15T06:42:53.000Z</time>
</trkpt>
<trkpt lat="46.0161660" lon="9.4222280">
	<ele>1686.00</ele>
	<time>2023-07-15T06:43:01.000Z</time>
</trkpt>
<trkpt lat="46.0161580" lon="9.4222280">
	<ele>1686.00</ele>
	<time>2023-07-15T06:43:12.000Z</time>
</trkpt>
<trkpt lat="46.0161570" lon="9.4222280">
	<ele>1686.00</ele>
	<time>2023-07-15T06:43:16.000Z</time>
</trkpt>
<trkpt lat="46.0161550" lon="9.4222280">
	<ele>1686.00</ele>
	<time>2023-07-15T06:43:19.000Z</time>
</trkpt>
<trkpt lat="46.0161520" lon="9.4222280">
	<ele>1686.00</ele>
	<time>2023-07-15T06:43:25.000Z</time>
</trkpt>
<trkpt lat="46.0161370" lon="9.4222490">
	<ele>1686.00</ele>
	<time>2023-07-15T06:43:41.000Z</time>
</trkpt>
<trkpt lat="46.0161220" lon="9.4222520">
	<ele>1686.00</ele>
	<time>2023-07-15T06:44:08.000Z</time>
</trkpt>
<trkpt lat="46.0161210" lon="9.4222510">
	<ele>1686.00</ele>
	<time>2023-07-15T06:44:16.000Z</time>
</trkpt>
<trkpt lat="46.0161210" lon="9.4222450">
	<ele>1686.00</ele>
	<time>2023-07-15T06:44:30.000Z</time>
</trkpt>
<trkpt lat="46.0161200" lon="9.4222420">
	<ele>1686.00</ele>
	<time>2023-07-15T06:44:42.000Z</time>
</trkpt>
<trkpt lat="46.0161200" lon="9.4222410">
	<ele>1686.00</ele>
	<time>2023-07-15T06:44:48.000Z</time>
</trkpt>
<trkpt lat="46.0161000" lon="9.4223230">
	<ele>1686.00</ele>
	<time>2023-07-15T06:44:53.000Z</time>
</trkpt>
<trkpt lat="46.0160970" lon="9.4224090">
	<ele>1686.00</ele>
	<time>2023-07-15T06:44:57.000Z</time>
</trkpt>
<trkpt lat="46.0160960" lon="9.4224720">
	<ele>1685.20</ele>
	<time>2023-07-15T06:45:00.000Z</time>
</trkpt>
<trkpt lat="46.0160940" lon="9.4224880">
	<ele>1684.80</ele>
	<time>2023-07-15T06:45:01.000Z</time>
</trkpt>
<trkpt lat="46.0160900" lon="9.4225070">
	<ele>1684.20</ele>
	<time>2023-07-15T06:45:03.000Z</time>
</trkpt>
<trkpt lat="46.0160980" lon="9.4225160">
	<ele>1683.80</ele>
	<time>2023-07-15T06:45:05.000Z</time>
</trkpt>
<trkpt lat="46.0161190" lon="9.4225230">
	<ele>1683.60</ele>
	<time>2023-07-15T06:45:07.000Z</time>
</trkpt>
<trkpt lat="46.0161240" lon="9.4225260">
	<ele>1684.00</ele>
	<time>2023-07-15T06:45:13.000Z</time>
</trkpt>
<trkpt lat="46.0160780" lon="9.4225810">
	<ele>1683.40</ele>
	<time>2023-07-15T06:45:21.000Z</time>
</trkpt>
<trkpt lat="46.0160570" lon="9.4226480">
	<ele>1683.00</ele>
	<time>2023-07-15T06:45:26.000Z</time>
</trkpt>
<trkpt lat="46.0160540" lon="9.4226670">
	<ele>1683.00</ele>
	<time>2023-07-15T06:45:27.000Z</time>
</trkpt>
<trkpt lat="46.0160280" lon="9.4227930">
	<ele>1682.80</ele>
	<time>2023-07-15T06:45:36.000Z</time>
</trkpt>
<trkpt lat="46.0160070" lon="9.4228610">
	<ele>1682.60</ele>
	<time>2023-07-15T06:45:42.000Z</time>
</trkpt>
<trkpt lat="46.0159890" lon="9.4228930">
	<ele>1682.60</ele>
	<time>2023-07-15T06:45:47.000Z</time>
</trkpt>
<trkpt lat="46.0159810" lon="9.4229030">
	<ele>1682.60</ele>
	<time>2023-07-15T06:45:49.000Z</time>
</trkpt>
<trkpt lat="46.0159580" lon="9.4229310">
	<ele>1682.60</ele>
	<time>2023-07-15T06:45:51.000Z</time>
</trkpt>
<trkpt lat="46.0159420" lon="9.4230200">
	<ele>1682.60</ele>
	<time>2023-07-15T06:45:56.000Z</time>
</trkpt>
<trkpt lat="46.0159010" lon="9.4231620">
	<ele>1682.60</ele>
	<time>2023-07-15T06:46:06.000Z</time>
</trkpt>
<trkpt lat="46.0158920" lon="9.4231870">
	<ele>1682.60</ele>
	<time>2023-07-15T06:46:08.000Z</time>
</trkpt>
<trkpt lat="46.0158820" lon="9.4232000">
	<ele>1682.60</ele>
	<time>2023-07-15T06:46:09.000Z</time>
</trkpt>
<trkpt lat="46.0158520" lon="9.4232530">
	<ele>1682.60</ele>
	<time>2023-07-15T06:46:13.000Z</time>
</trkpt>
<trkpt lat="46.0157040" lon="9.4233740">
	<ele>1682.60</ele>
	<time>2023-07-15T06:46:23.000Z</time>
</trkpt>
<trkpt lat="46.0156710" lon="9.4233930">
	<ele>1683.20</ele>
	<time>2023-07-15T06:46:28.000Z</time>
</trkpt>
<trkpt lat="46.0156700" lon="9.4233940">
	<ele>1683.20</ele>
	<time>2023-07-15T06:46:30.000Z</time>
</trkpt>
<trkpt lat="46.0155940" lon="9.4234140">
	<ele>1683.60</ele>
	<time>2023-07-15T06:46:38.000Z</time>
</trkpt>
<trkpt lat="46.0155620" lon="9.4234240">
	<ele>1683.60</ele>
	<time>2023-07-15T06:46:40.000Z</time>
</trkpt>
<trkpt lat="46.0155310" lon="9.4234340">
	<ele>1683.60</ele>
	<time>2023-07-15T06:46:42.000Z</time>
</trkpt>
<trkpt lat="46.0154990" lon="9.4234450">
	<ele>1683.60</ele>
	<time>2023-07-15T06:46:44.000Z</time>
</trkpt>
<trkpt lat="46.0154260" lon="9.4234690">
	<ele>1682.80</ele>
	<time>2023-07-15T06:46:50.000Z</time>
</trkpt>
<trkpt lat="46.0153800" lon="9.4234870">
	<ele>1683.00</ele>
	<time>2023-07-15T06:46:54.000Z</time>
</trkpt>
<trkpt lat="46.0152280" lon="9.4235340">
	<ele>1682.80</ele>
	<time>2023-07-15T06:47:06.000Z</time>
</trkpt>
<trkpt lat="46.0151280" lon="9.4235840">
	<ele>1683.20</ele>
	<time>2023-07-15T06:47:14.000Z</time>
</trkpt>
<trkpt lat="46.0151200" lon="9.4235910">
	<ele>1683.20</ele>
	<time>2023-07-15T06:47:15.000Z</time>
</trkpt>
<trkpt lat="46.0150620" lon="9.4236560">
	<ele>1683.40</ele>
	<time>2023-07-15T06:47:21.000Z</time>
</trkpt>
<trkpt lat="46.0149990" lon="9.4237510">
	<ele>1683.40</ele>
	<time>2023-07-15T06:47:29.000Z</time>
</trkpt>
<trkpt lat="46.0149940" lon="9.4237640">
	<ele>1683.40</ele>
	<time>2023-07-15T06:47:30.000Z</time>
</trkpt>
<trkpt lat="46.0149510" lon="9.4238740">
	<ele>1683.20</ele>
	<time>2023-07-15T06:47:36.000Z</time>
</trkpt>
<trkpt lat="46.0148480" lon="9.4240320">
	<ele>1683.40</ele>
	<time>2023-07-15T06:47:47.000Z</time>
</trkpt>
<trkpt lat="46.0147890" lon="9.4241070">
	<ele>1683.20</ele>
	<time>2023-07-15T06:47:54.000Z</time>
</trkpt>
<trkpt lat="46.0147830" lon="9.4241220">
	<ele>1683.20</ele>
	<time>2023-07-15T06:47:55.000Z</time>
</trkpt>
<trkpt lat="46.0147630" lon="9.4241500">
	<ele>1683.40</ele>
	<time>2023-07-15T06:47:57.000Z</time>
</trkpt>
<trkpt lat="46.0146900" lon="9.4242500">
	<ele>1683.20</ele>
	<time>2023-07-15T06:48:04.000Z</time>
</trkpt>
<trkpt lat="46.0146360" lon="9.4243380">
	<ele>1683.20</ele>
	<time>2023-07-15T06:48:11.000Z</time>
</trkpt>
<trkpt lat="46.0146030" lon="9.4243800">
	<ele>1683.20</ele>
	<time>2023-07-15T06:48:14.000Z</time>
</trkpt>
<trkpt lat="46.0145460" lon="9.4245070">
	<ele>1683.40</ele>
	<time>2023-07-15T06:48:22.000Z</time>
</trkpt>
<trkpt lat="46.0144990" lon="9.4246360">
	<ele>1683.60</ele>
	<time>2023-07-15T06:48:30.000Z</time>
</trkpt>
<trkpt lat="46.0144700" lon="9.4247170">
	<ele>1684.00</ele>
	<time>2023-07-15T06:48:35.000Z</time>
</trkpt>
<trkpt lat="46.0144640" lon="9.4247650">
	<ele>1684.40</ele>
	<time>2023-07-15T06:48:38.000Z</time>
</trkpt>
<trkpt lat="46.0144610" lon="9.4248140">
	<ele>1684.20</ele>
	<time>2023-07-15T06:48:41.000Z</time>
</trkpt>
<trkpt lat="46.0144560" lon="9.4249170">
	<ele>1684.20</ele>
	<time>2023-07-15T06:48:46.000Z</time>
</trkpt>
<trkpt lat="46.0144660" lon="9.4250260">
	<ele>1684.40</ele>
	<time>2023-07-15T06:48:52.000Z</time>
</trkpt>
<trkpt lat="46.0144660" lon="9.4250460">
	<ele>1684.40</ele>
	<time>2023-07-15T06:48:53.000Z</time>
</trkpt>
<trkpt lat="46.0144420" lon="9.4251730">
	<ele>1684.20</ele>
	<time>2023-07-15T06:49:01.000Z</time>
</trkpt>
<trkpt lat="46.0144360" lon="9.4252380">
	<ele>1684.20</ele>
	<time>2023-07-15T06:49:05.000Z</time>
</trkpt>
<trkpt lat="46.0144190" lon="9.4253080">
	<ele>1684.20</ele>
	<time>2023-07-15T06:49:09.000Z</time>
</trkpt>
<trkpt lat="46.0144140" lon="9.4254170">
	<ele>1684.40</ele>
	<time>2023-07-15T06:49:16.000Z</time>
</trkpt>
<trkpt lat="46.0144170" lon="9.4254360">
	<ele>1684.40</ele>
	<time>2023-07-15T06:49:17.000Z</time>
</trkpt>
<trkpt lat="46.0144250" lon="9.4255400">
	<ele>1684.20</ele>
	<time>2023-07-15T06:49:22.000Z</time>
</trkpt>
<trkpt lat="46.0144390" lon="9.4255570">
	<ele>1684.20</ele>
	<time>2023-07-15T06:49:23.000Z</time>
</trkpt>
<trkpt lat="46.0144410" lon="9.4255690">
	<ele>1684.20</ele>
	<time>2023-07-15T06:49:24.000Z</time>
</trkpt>
<trkpt lat="46.0144700" lon="9.4257500">
	<ele>1684.40</ele>
	<time>2023-07-15T06:49:34.000Z</time>
</trkpt>
<trkpt lat="46.0144710" lon="9.4257840">
	<ele>1684.60</ele>
	<time>2023-07-15T06:49:36.000Z</time>
</trkpt>
<trkpt lat="46.0144750" lon="9.4258520">
	<ele>1684.60</ele>
	<time>2023-07-15T06:49:40.000Z</time>
</trkpt>
<trkpt lat="46.0144780" lon="9.4259690">
	<ele>1684.00</ele>
	<time>2023-07-15T06:49:47.000Z</time>
</trkpt>
<trkpt lat="46.0145180" lon="9.4260810">
	<ele>1684.20</ele>
	<time>2023-07-15T06:49:54.000Z</time>
</trkpt>
<trkpt lat="46.0145570" lon="9.4261400">
	<ele>1684.40</ele>
	<time>2023-07-15T06:49:59.000Z</time>
</trkpt>
<trkpt lat="46.0145690" lon="9.4261620">
	<ele>1684.40</ele>
	<time>2023-07-15T06:50:01.000Z</time>
</trkpt>
<trkpt lat="46.0145920" lon="9.4262090">
	<ele>1684.40</ele>
	<time>2023-07-15T06:50:04.000Z</time>
</trkpt>
<trkpt lat="46.0146380" lon="9.4262720">
	<ele>1684.40</ele>
	<time>2023-07-15T06:50:09.000Z</time>
</trkpt>
<trkpt lat="46.0146380" lon="9.4262980">
	<ele>1684.40</ele>
	<time>2023-07-15T06:50:10.000Z</time>
</trkpt>
<trkpt lat="46.0146780" lon="9.4264070">
	<ele>1684.60</ele>
	<time>2023-07-15T06:50:17.000Z</time>
</trkpt>
<trkpt lat="46.0147100" lon="9.4264960">
	<ele>1684.60</ele>
	<time>2023-07-15T06:50:22.000Z</time>
</trkpt>
<trkpt lat="46.0147160" lon="9.4265140">
	<ele>1684.60</ele>
	<time>2023-07-15T06:50:23.000Z</time>
</trkpt>
<trkpt lat="46.0147560" lon="9.4265960">
	<ele>1684.60</ele>
	<time>2023-07-15T06:50:28.000Z</time>
</trkpt>
<trkpt lat="46.0148290" lon="9.4267390">
	<ele>1684.80</ele>
	<time>2023-07-15T06:50:37.000Z</time>
</trkpt>
<trkpt lat="46.0148790" lon="9.4268990">
	<ele>1685.00</ele>
	<time>2023-07-15T06:50:46.000Z</time>
</trkpt>
<trkpt lat="46.0148860" lon="9.4269380">
	<ele>1685.20</ele>
	<time>2023-07-15T06:50:48.000Z</time>
</trkpt>
<trkpt lat="46.0148530" lon="9.4270830">
	<ele>1685.20</ele>
	<time>2023-07-15T06:50:56.000Z</time>
</trkpt>
<trkpt lat="46.0147690" lon="9.4272330">
	<ele>1685.40</ele>
	<time>2023-07-15T06:51:06.000Z</time>
</trkpt>
<trkpt lat="46.0147080" lon="9.4273330">
	<ele>1684.80</ele>
	<time>2023-07-15T06:51:13.000Z</time>
</trkpt>
<trkpt lat="46.0146580" lon="9.4274720">
	<ele>1685.00</ele>
	<time>2023-07-15T06:51:22.000Z</time>
</trkpt>
<trkpt lat="46.0146500" lon="9.4275830">
	<ele>1685.00</ele>
	<time>2023-07-15T06:51:29.000Z</time>
</trkpt>
<trkpt lat="46.0146430" lon="9.4276180">
	<ele>1685.00</ele>
	<time>2023-07-15T06:51:31.000Z</time>
</trkpt>
<trkpt lat="46.0146340" lon="9.4277830">
	<ele>1685.00</ele>
	<time>2023-07-15T06:51:41.000Z</time>
</trkpt>
<trkpt lat="46.0146250" lon="9.4277980">
	<ele>1685.00</ele>
	<time>2023-07-15T06:51:42.000Z</time>
</trkpt>
<trkpt lat="46.0145840" lon="9.4279360">
	<ele>1685.00</ele>
	<time>2023-07-15T06:51:50.000Z</time>
</trkpt>
<trkpt lat="46.0145750" lon="9.4280490">
	<ele>1684.80</ele>
	<time>2023-07-15T06:51:57.000Z</time>
</trkpt>
<trkpt lat="46.0145790" lon="9.4280640">
	<ele>1684.80</ele>
	<time>2023-07-15T06:51:58.000Z</time>
</trkpt>
<trkpt lat="46.0145710" lon="9.4282320">
	<ele>1685.20</ele>
	<time>2023-07-15T06:52:07.000Z</time>
</trkpt>
<trkpt lat="46.0145460" lon="9.4283810">
	<ele>1685.40</ele>
	<time>2023-07-15T06:52:15.000Z</time>
</trkpt>
<trkpt lat="46.0145110" lon="9.4284620">
	<ele>1685.80</ele>
	<time>2023-07-15T06:52:20.000Z</time>
</trkpt>
<trkpt lat="46.0145020" lon="9.4284800">
	<ele>1685.80</ele>
	<time>2023-07-15T06:52:21.000Z</time>
</trkpt>
<trkpt lat="46.0144800" lon="9.4285120">
	<ele>1685.60</ele>
	<time>2023-07-15T06:52:23.000Z</time>
</trkpt>
<trkpt lat="46.0143920" lon="9.4285390">
	<ele>1685.60</ele>
	<time>2023-07-15T06:52:31.000Z</time>
</trkpt>
<trkpt lat="46.0143440" lon="9.4285190">
	<ele>1685.00</ele>
	<time>2023-07-15T06:52:35.000Z</time>
</trkpt>
<trkpt lat="46.0143290" lon="9.4285180">
	<ele>1685.00</ele>
	<time>2023-07-15T06:52:37.000Z</time>
</trkpt>
<trkpt lat="46.0143280" lon="9.4285190">
	<ele>1685.00</ele>
	<time>2023-07-15T06:52:39.000Z</time>
</trkpt>
<trkpt lat="46.0143240" lon="9.4285120">
	<ele>1685.20</ele>
	<time>2023-07-15T06:52:45.000Z</time>
</trkpt>
<trkpt lat="46.0142650" lon="9.4284680">
	<ele>1684.40</ele>
	<time>2023-07-15T06:52:50.000Z</time>
</trkpt>
<trkpt lat="46.0141900" lon="9.4284260">
	<ele>1684.00</ele>
	<time>2023-07-15T06:52:55.000Z</time>
</trkpt>
<trkpt lat="46.0141380" lon="9.4283900">
	<ele>1683.80</ele>
	<time>2023-07-15T06:52:59.000Z</time>
</trkpt>
<trkpt lat="46.0140490" lon="9.4283530">
	<ele>1683.00</ele>
	<time>2023-07-15T06:53:07.000Z</time>
</trkpt>
<trkpt lat="46.0139790" lon="9.4283220">
	<ele>1682.00</ele>
	<time>2023-07-15T06:53:12.000Z</time>
</trkpt>
<trkpt lat="46.0139110" lon="9.4282850">
	<ele>1681.40</ele>
	<time>2023-07-15T06:53:16.000Z</time>
</trkpt>
<trkpt lat="46.0138930" lon="9.4282780">
	<ele>1681.20</ele>
	<time>2023-07-15T06:53:17.000Z</time>
</trkpt>
<trkpt lat="46.0138630" lon="9.4282710">
	<ele>1680.80</ele>
	<time>2023-07-15T06:53:19.000Z</time>
</trkpt>
<trkpt lat="46.0138020" lon="9.4282540">
	<ele>1680.20</ele>
	<time>2023-07-15T06:53:23.000Z</time>
</trkpt>
<trkpt lat="46.0136960" lon="9.4282110">
	<ele>1680.00</ele>
	<time>2023-07-15T06:53:32.000Z</time>
</trkpt>
<trkpt lat="46.0136510" lon="9.4281730">
	<ele>1679.80</ele>
	<time>2023-07-15T06:53:37.000Z</time>
</trkpt>
<trkpt lat="46.0136250" lon="9.4281750">
	<ele>1679.80</ele>
	<time>2023-07-15T06:53:39.000Z</time>
</trkpt>
<trkpt lat="46.0135340" lon="9.4281850">
	<ele>1679.60</ele>
	<time>2023-07-15T06:53:47.000Z</time>
</trkpt>
<trkpt lat="46.0134270" lon="9.4282280">
	<ele>1679.60</ele>
	<time>2023-07-15T06:53:55.000Z</time>
</trkpt>
<trkpt lat="46.0133110" lon="9.4283050">
	<ele>1679.00</ele>
	<time>2023-07-15T06:54:05.000Z</time>
</trkpt>
<trkpt lat="46.0132840" lon="9.4283440">
	<ele>1678.80</ele>
	<time>2023-07-15T06:54:08.000Z</time>
</trkpt>
<trkpt lat="46.0132340" lon="9.4283970">
	<ele>1678.00</ele>
	<time>2023-07-15T06:54:14.000Z</time>
</trkpt>
<trkpt lat="46.0132170" lon="9.4284130">
	<ele>1677.80</ele>
	<time>2023-07-15T06:54:16.000Z</time>
</trkpt>
<trkpt lat="46.0132000" lon="9.4284360">
	<ele>1677.60</ele>
	<time>2023-07-15T06:54:18.000Z</time>
</trkpt>
<trkpt lat="46.0131850" lon="9.4284670">
	<ele>1677.60</ele>
	<time>2023-07-15T06:54:20.000Z</time>
</trkpt>
<trkpt lat="46.0131520" lon="9.4285370">
	<ele>1677.20</ele>
	<time>2023-07-15T06:54:25.000Z</time>
</trkpt>
<trkpt lat="46.0131280" lon="9.4285610">
	<ele>1677.00</ele>
	<time>2023-07-15T06:54:27.000Z</time>
</trkpt>
<trkpt lat="46.0130610" lon="9.4286350">
	<ele>1676.80</ele>
	<time>2023-07-15T06:54:34.000Z</time>
</trkpt>
<trkpt lat="46.0130470" lon="9.4286660">
	<ele>1676.60</ele>
	<time>2023-07-15T06:54:36.000Z</time>
</trkpt>
<trkpt lat="46.0130240" lon="9.4287200">
	<ele>1676.20</ele>
	<time>2023-07-15T06:54:39.000Z</time>
</trkpt>
<trkpt lat="46.0129710" lon="9.4287980">
	<ele>1675.60</ele>
	<time>2023-07-15T06:54:45.000Z</time>
</trkpt>
<trkpt lat="46.0129620" lon="9.4287970">
	<ele>1675.60</ele>
	<time>2023-07-15T06:54:46.000Z</time>
</trkpt>
<trkpt lat="46.0129380" lon="9.4288370">
	<ele>1675.40</ele>
	<time>2023-07-15T06:54:49.000Z</time>
</trkpt>
<trkpt lat="46.0128890" lon="9.4289270">
	<ele>1675.00</ele>
	<time>2023-07-15T06:54:55.000Z</time>
</trkpt>
<trkpt lat="46.0128580" lon="9.4289530">
	<ele>1674.60</ele>
	<time>2023-07-15T06:54:58.000Z</time>
</trkpt>
<trkpt lat="46.0128460" lon="9.4289580">
	<ele>1674.40</ele>
	<time>2023-07-15T06:54:59.000Z</time>
</trkpt>
<trkpt lat="46.0128070" lon="9.4289590">
	<ele>1674.20</ele>
	<time>2023-07-15T06:55:02.000Z</time>
</trkpt>
<trkpt lat="46.0127840" lon="9.4289650">
	<ele>1673.80</ele>
	<time>2023-07-15T06:55:04.000Z</time>
</trkpt>
<trkpt lat="46.0127540" lon="9.4289750">
	<ele>1673.60</ele>
	<time>2023-07-15T06:55:06.000Z</time>
</trkpt>
<trkpt lat="46.0127200" lon="9.4289850">
	<ele>1673.40</ele>
	<time>2023-07-15T06:55:08.000Z</time>
</trkpt>
<trkpt lat="46.0126250" lon="9.4290060">
	<ele>1672.80</ele>
	<time>2023-07-15T06:55:15.000Z</time>
</trkpt>
<trkpt lat="46.0126130" lon="9.4290110">
	<ele>1672.80</ele>
	<time>2023-07-15T06:55:16.000Z</time>
</trkpt>
<trkpt lat="46.0125700" lon="9.4290330">
	<ele>1672.60</ele>
	<time>2023-07-15T06:55:20.000Z</time>
</trkpt>
<trkpt lat="46.0125070" lon="9.4290760">
	<ele>1672.00</ele>
	<time>2023-07-15T06:55:25.000Z</time>
</trkpt>
<trkpt lat="46.0124250" lon="9.4291540">
	<ele>1671.40</ele>
	<time>2023-07-15T06:55:33.000Z</time>
</trkpt>
<trkpt lat="46.0123390" lon="9.4292140">
	<ele>1670.40</ele>
	<time>2023-07-15T06:55:39.000Z</time>
</trkpt>
<trkpt lat="46.0123240" lon="9.4292190">
	<ele>1670.20</ele>
	<time>2023-07-15T06:55:40.000Z</time>
</trkpt>
<trkpt lat="46.0122700" lon="9.4292900">
	<ele>1669.60</ele>
	<time>2023-07-15T06:55:47.000Z</time>
</trkpt>
<trkpt lat="46.0122610" lon="9.4292970">
	<ele>1669.60</ele>
	<time>2023-07-15T06:55:48.000Z</time>
</trkpt>
<trkpt lat="46.0122450" lon="9.4293140">
	<ele>1669.40</ele>
	<time>2023-07-15T06:55:50.000Z</time>
</trkpt>
<trkpt lat="46.0122270" lon="9.4293460">
	<ele>1669.40</ele>
	<time>2023-07-15T06:55:53.000Z</time>
</trkpt>
<trkpt lat="46.0122210" lon="9.4293760">
	<ele>1669.00</ele>
	<time>2023-07-15T06:55:55.000Z</time>
</trkpt>
<trkpt lat="46.0121980" lon="9.4294330">
	<ele>1668.60</ele>
	<time>2023-07-15T06:56:00.000Z</time>
</trkpt>
<trkpt lat="46.0121750" lon="9.4294850">
	<ele>1668.40</ele>
	<time>2023-07-15T06:56:03.000Z</time>
</trkpt>
<trkpt lat="46.0121670" lon="9.4295010">
	<ele>1668.40</ele>
	<time>2023-07-15T06:56:04.000Z</time>
</trkpt>
<trkpt lat="46.0121150" lon="9.4296140">
	<ele>1667.80</ele>
	<time>2023-07-15T06:56:12.000Z</time>
</trkpt>
<trkpt lat="46.0120400" lon="9.4297760">
	<ele>1667.80</ele>
	<time>2023-07-15T06:56:23.000Z</time>
</trkpt>
<trkpt lat="46.0119410" lon="9.4298720">
	<ele>1667.60</ele>
	<time>2023-07-15T06:56:32.000Z</time>
</trkpt>
<trkpt lat="46.0119000" lon="9.4299240">
	<ele>1667.40</ele>
	<time>2023-07-15T06:56:37.000Z</time>
</trkpt>
<trkpt lat="46.0119050" lon="9.4299430">
	<ele>1667.20</ele>
	<time>2023-07-15T06:56:39.000Z</time>
</trkpt>
<trkpt lat="46.0119530" lon="9.4301060">
	<ele>1667.20</ele>
	<time>2023-07-15T06:56:48.000Z</time>
</trkpt>
<trkpt lat="46.0119630" lon="9.4301720">
	<ele>1666.80</ele>
	<time>2023-07-15T06:56:52.000Z</time>
</trkpt>
<trkpt lat="46.0119630" lon="9.4302090">
	<ele>1666.60</ele>
	<time>2023-07-15T06:56:54.000Z</time>
</trkpt>
<trkpt lat="46.0119620" lon="9.4302190">
	<ele>1666.60</ele>
	<time>2023-07-15T06:56:55.000Z</time>
</trkpt>
<trkpt lat="46.0119680" lon="9.4302510">
	<ele>1666.20</ele>
	<time>2023-07-15T06:56:57.000Z</time>
</trkpt>
<trkpt lat="46.0119730" lon="9.4302910">
	<ele>1666.00</ele>
	<time>2023-07-15T06:56:59.000Z</time>
</trkpt>
<trkpt lat="46.0119830" lon="9.4303320">
	<ele>1666.00</ele>
	<time>2023-07-15T06:57:02.000Z</time>
</trkpt>
<trkpt lat="46.0119950" lon="9.4303590">
	<ele>1665.80</ele>
	<time>2023-07-15T06:57:05.000Z</time>
</trkpt>
<trkpt lat="46.0120070" lon="9.4303810">
	<ele>1665.80</ele>
	<time>2023-07-15T06:57:07.000Z</time>
</trkpt>
<trkpt lat="46.0120120" lon="9.4303950">
	<ele>1665.80</ele>
	<time>2023-07-15T06:57:08.000Z</time>
</trkpt>
<trkpt lat="46.0120180" lon="9.4304010">
	<ele>1665.60</ele>
	<time>2023-07-15T06:57:09.000Z</time>
</trkpt>
<trkpt lat="46.0120540" lon="9.4304530">
	<ele>1665.40</ele>
	<time>2023-07-15T06:57:14.000Z</time>
</trkpt>
<trkpt lat="46.0120860" lon="9.4304950">
	<ele>1665.00</ele>
	<time>2023-07-15T06:57:18.000Z</time>
</trkpt>
<trkpt lat="46.0121090" lon="9.4305150">
	<ele>1664.80</ele>
	<time>2023-07-15T06:57:20.000Z</time>
</trkpt>
<trkpt lat="46.0121190" lon="9.4305240">
	<ele>1664.80</ele>
	<time>2023-07-15T06:57:21.000Z</time>
</trkpt>
<trkpt lat="46.0121240" lon="9.4305340">
	<ele>1664.80</ele>
	<time>2023-07-15T06:57:22.000Z</time>
</trkpt>
<trkpt lat="46.0121550" lon="9.4306400">
	<ele>1664.20</ele>
	<time>2023-07-15T06:57:29.000Z</time>
</trkpt>
<trkpt lat="46.0121590" lon="9.4306570">
	<ele>1664.00</ele>
	<time>2023-07-15T06:57:30.000Z</time>
</trkpt>
<trkpt lat="46.0121820" lon="9.4307210">
	<ele>1664.00</ele>
	<time>2023-07-15T06:57:34.000Z</time>
</trkpt>
<trkpt lat="46.0121910" lon="9.4307390">
	<ele>1663.80</ele>
	<time>2023-07-15T06:57:35.000Z</time>
</trkpt>
<trkpt lat="46.0121970" lon="9.4307570">
	<ele>1663.80</ele>
	<time>2023-07-15T06:57:36.000Z</time>
</trkpt>
<trkpt lat="46.0122120" lon="9.4308640">
	<ele>1663.20</ele>
	<time>2023-07-15T06:57:41.000Z</time>
</trkpt>
<trkpt lat="46.0122280" lon="9.4309210">
	<ele>1663.00</ele>
	<time>2023-07-15T06:57:44.000Z</time>
</trkpt>
<trkpt lat="46.0122320" lon="9.4309590">
	<ele>1662.80</ele>
	<time>2023-07-15T06:57:47.000Z</time>
</trkpt>
<trkpt lat="46.0122260" lon="9.4310930">
	<ele>1662.60</ele>
	<time>2023-07-15T06:57:53.000Z</time>
</trkpt>
<trkpt lat="46.0122320" lon="9.4311530">
	<ele>1662.40</ele>
	<time>2023-07-15T06:57:56.000Z</time>
</trkpt>
<trkpt lat="46.0122610" lon="9.4312200">
	<ele>1662.00</ele>
	<time>2023-07-15T06:58:00.000Z</time>
</trkpt>
<trkpt lat="46.0122590" lon="9.4312350">
	<ele>1662.00</ele>
	<time>2023-07-15T06:58:01.000Z</time>
</trkpt>
<trkpt lat="46.0122490" lon="9.4312470">
	<ele>1662.00</ele>
	<time>2023-07-15T06:58:02.000Z</time>
</trkpt>
<trkpt lat="46.0122250" lon="9.4312820">
	<ele>1661.60</ele>
	<time>2023-07-15T06:58:04.000Z</time>
</trkpt>
<trkpt lat="46.0121990" lon="9.4313230">
	<ele>1661.00</ele>
	<time>2023-07-15T06:58:06.000Z</time>
</trkpt>
<trkpt lat="46.0121870" lon="9.4313440">
	<ele>1660.80</ele>
	<time>2023-07-15T06:58:07.000Z</time>
</trkpt>
<trkpt lat="46.0121600" lon="9.4314510">
	<ele>1660.20</ele>
	<time>2023-07-15T06:58:13.000Z</time>
</trkpt>
<trkpt lat="46.0121150" lon="9.4315530">
	<ele>1659.80</ele>
	<time>2023-07-15T06:58:19.000Z</time>
</trkpt>
<trkpt lat="46.0121100" lon="9.4315740">
	<ele>1659.80</ele>
	<time>2023-07-15T06:58:20.000Z</time>
</trkpt>
<trkpt lat="46.0121080" lon="9.4315910">
	<ele>1659.60</ele>
	<time>2023-07-15T06:58:21.000Z</time>
</trkpt>
<trkpt lat="46.0120930" lon="9.4316340">
	<ele>1659.00</ele>
	<time>2023-07-15T06:58:24.000Z</time>
</trkpt>
<trkpt lat="46.0120850" lon="9.4316660">
	<ele>1658.40</ele>
	<time>2023-07-15T06:58:26.000Z</time>
</trkpt>
<trkpt lat="46.0120430" lon="9.4317700">
	<ele>1657.40</ele>
	<time>2023-07-15T06:58:33.000Z</time>
</trkpt>
<trkpt lat="46.0120070" lon="9.4318160">
	<ele>1657.20</ele>
	<time>2023-07-15T06:58:36.000Z</time>
</trkpt>
<trkpt lat="46.0119850" lon="9.4318460">
	<ele>1657.00</ele>
	<time>2023-07-15T06:58:39.000Z</time>
</trkpt>
<trkpt lat="46.0119670" lon="9.4319220">
	<ele>1656.60</ele>
	<time>2023-07-15T06:58:43.000Z</time>
</trkpt>
<trkpt lat="46.0119830" lon="9.4319900">
	<ele>1656.40</ele>
	<time>2023-07-15T06:58:47.000Z</time>
</trkpt>
<trkpt lat="46.0119560" lon="9.4321080">
	<ele>1655.40</ele>
	<time>2023-07-15T06:58:54.000Z</time>
</trkpt>
<trkpt lat="46.0119680" lon="9.4321280">
	<ele>1655.20</ele>
	<time>2023-07-15T06:58:56.000Z</time>
</trkpt>
<trkpt lat="46.0119820" lon="9.4321580">
	<ele>1655.20</ele>
	<time>2023-07-15T06:58:58.000Z</time>
</trkpt>
<trkpt lat="46.0119880" lon="9.4322000">
	<ele>1655.00</ele>
	<time>2023-07-15T06:59:01.000Z</time>
</trkpt>
<trkpt lat="46.0120120" lon="9.4322620">
	<ele>1654.60</ele>
	<time>2023-07-15T06:59:05.000Z</time>
</trkpt>
<trkpt lat="46.0120200" lon="9.4322760">
	<ele>1654.40</ele>
	<time>2023-07-15T06:59:06.000Z</time>
</trkpt>
<trkpt lat="46.0120300" lon="9.4322870">
	<ele>1654.20</ele>
	<time>2023-07-15T06:59:07.000Z</time>
</trkpt>
<trkpt lat="46.0120400" lon="9.4323560">
	<ele>1653.80</ele>
	<time>2023-07-15T06:59:12.000Z</time>
</trkpt>
<trkpt lat="46.0120470" lon="9.4324530">
	<ele>1653.20</ele>
	<time>2023-07-15T06:59:17.000Z</time>
</trkpt>
<trkpt lat="46.0120460" lon="9.4324860">
	<ele>1652.80</ele>
	<time>2023-07-15T06:59:19.000Z</time>
</trkpt>
<trkpt lat="46.0120470" lon="9.4325540">
	<ele>1652.00</ele>
	<time>2023-07-15T06:59:24.000Z</time>
</trkpt>
<trkpt lat="46.0120550" lon="9.4325730">
	<ele>1652.00</ele>
	<time>2023-07-15T06:59:25.000Z</time>
</trkpt>
<trkpt lat="46.0121520" lon="9.4326940">
	<ele>1651.20</ele>
	<time>2023-07-15T06:59:32.000Z</time>
</trkpt>
<trkpt lat="46.0121790" lon="9.4327130">
	<ele>1651.00</ele>
	<time>2023-07-15T06:59:34.000Z</time>
</trkpt>
<trkpt lat="46.0121880" lon="9.4327150">
	<ele>1650.80</ele>
	<time>2023-07-15T06:59:35.000Z</time>
</trkpt>
<trkpt lat="46.0121990" lon="9.4327240">
	<ele>1650.40</ele>
	<time>2023-07-15T06:59:36.000Z</time>
</trkpt>
<trkpt lat="46.0122270" lon="9.4327770">
	<ele>1649.80</ele>
	<time>2023-07-15T06:59:39.000Z</time>
</trkpt>
<trkpt lat="46.0122390" lon="9.4328160">
	<ele>1649.40</ele>
	<time>2023-07-15T06:59:41.000Z</time>
</trkpt>
<trkpt lat="46.0122260" lon="9.4328800">
	<ele>1648.80</ele>
	<time>2023-07-15T06:59:45.000Z</time>
</trkpt>
<trkpt lat="46.0122060" lon="9.4329020">
	<ele>1648.80</ele>
	<time>2023-07-15T06:59:47.000Z</time>
</trkpt>
<trkpt lat="46.0121860" lon="9.4329330">
	<ele>1648.20</ele>
	<time>2023-07-15T06:59:50.000Z</time>
</trkpt>
<trkpt lat="46.0121720" lon="9.4329390">
	<ele>1647.80</ele>
	<time>2023-07-15T06:59:51.000Z</time>
</trkpt>
<trkpt lat="46.0121420" lon="9.4329560">
	<ele>1647.20</ele>
	<time>2023-07-15T06:59:53.000Z</time>
</trkpt>
<trkpt lat="46.0120820" lon="9.4329580">
	<ele>1646.60</ele>
	<time>2023-07-15T06:59:56.000Z</time>
</trkpt>
<trkpt lat="46.0120540" lon="9.4329620">
	<ele>1646.40</ele>
	<time>2023-07-15T06:59:59.000Z</time>
</trkpt>
<trkpt lat="46.0120270" lon="9.4329840">
	<ele>1645.80</ele>
	<time>2023-07-15T07:00:02.000Z</time>
</trkpt>
<trkpt lat="46.0120250" lon="9.4329930">
	<ele>1645.40</ele>
	<time>2023-07-15T07:00:03.000Z</time>
</trkpt>
<trkpt lat="46.0119800" lon="9.4330350">
	<ele>1644.40</ele>
	<time>2023-07-15T07:00:07.000Z</time>
</trkpt>
<trkpt lat="46.0119330" lon="9.4329980">
	<ele>1643.80</ele>
	<time>2023-07-15T07:00:11.000Z</time>
</trkpt>
<trkpt lat="46.0118810" lon="9.4330130">
	<ele>1643.20</ele>
	<time>2023-07-15T07:00:16.000Z</time>
</trkpt>
<trkpt lat="46.0118480" lon="9.4330270">
	<ele>1642.20</ele>
	<time>2023-07-15T07:00:19.000Z</time>
</trkpt>
<trkpt lat="46.0118520" lon="9.4330450">
	<ele>1642.00</ele>
	<time>2023-07-15T07:00:20.000Z</time>
</trkpt>
<trkpt lat="46.0118420" lon="9.4330740">
	<ele>1641.60</ele>
	<time>2023-07-15T07:00:23.000Z</time>
</trkpt>
<trkpt lat="46.0118260" lon="9.4330910">
	<ele>1641.00</ele>
	<time>2023-07-15T07:00:26.000Z</time>
</trkpt>
<trkpt lat="46.0118220" lon="9.4331060">
	<ele>1640.80</ele>
	<time>2023-07-15T07:00:27.000Z</time>
</trkpt>
<trkpt lat="46.0118030" lon="9.4331520">
	<ele>1640.20</ele>
	<time>2023-07-15T07:00:31.000Z</time>
</trkpt>
<trkpt lat="46.0118000" lon="9.4331860">
	<ele>1640.00</ele>
	<time>2023-07-15T07:00:34.000Z</time>
</trkpt>
<trkpt lat="46.0118070" lon="9.4332170">
	<ele>1639.60</ele>
	<time>2023-07-15T07:00:36.000Z</time>
</trkpt>
<trkpt lat="46.0118190" lon="9.4332480">
	<ele>1639.40</ele>
	<time>2023-07-15T07:00:38.000Z</time>
</trkpt>
<trkpt lat="46.0118320" lon="9.4333940">
	<ele>1639.20</ele>
	<time>2023-07-15T07:00:47.000Z</time>
</trkpt>
<trkpt lat="46.0118310" lon="9.4335550">
	<ele>1639.60</ele>
	<time>2023-07-15T07:00:55.000Z</time>
</trkpt>
<trkpt lat="46.0118250" lon="9.4335610">
	<ele>1639.40</ele>
	<time>2023-07-15T07:00:56.000Z</time>
</trkpt>
<trkpt lat="46.0118170" lon="9.4336190">
	<ele>1639.00</ele>
	<time>2023-07-15T07:01:00.000Z</time>
</trkpt>
<trkpt lat="46.0118130" lon="9.4336340">
	<ele>1639.00</ele>
	<time>2023-07-15T07:01:01.000Z</time>
</trkpt>
<trkpt lat="46.0117790" lon="9.4337230">
	<ele>1638.60</ele>
	<time>2023-07-15T07:01:06.000Z</time>
</trkpt>
<trkpt lat="46.0117720" lon="9.4337350">
	<ele>1638.40</ele>
	<time>2023-07-15T07:01:07.000Z</time>
</trkpt>
<trkpt lat="46.0117290" lon="9.4337890">
	<ele>1637.80</ele>
	<time>2023-07-15T07:01:12.000Z</time>
</trkpt>
<trkpt lat="46.0117060" lon="9.4338160">
	<ele>1637.40</ele>
	<time>2023-07-15T07:01:15.000Z</time>
</trkpt>
<trkpt lat="46.0116800" lon="9.4338570">
	<ele>1636.80</ele>
	<time>2023-07-15T07:01:18.000Z</time>
</trkpt>
<trkpt lat="46.0116700" lon="9.4338990">
	<ele>1636.00</ele>
	<time>2023-07-15T07:01:21.000Z</time>
</trkpt>
<trkpt lat="46.0116700" lon="9.4339130">
	<ele>1636.00</ele>
	<time>2023-07-15T07:01:22.000Z</time>
</trkpt>
<trkpt lat="46.0116750" lon="9.4339260">
	<ele>1635.80</ele>
	<time>2023-07-15T07:01:23.000Z</time>
</trkpt>
<trkpt lat="46.0116800" lon="9.4339420">
	<ele>1635.60</ele>
	<time>2023-07-15T07:01:24.000Z</time>
</trkpt>
<trkpt lat="46.0116770" lon="9.4339810">
	<ele>1635.40</ele>
	<time>2023-07-15T07:01:27.000Z</time>
</trkpt>
<trkpt lat="46.0116690" lon="9.4339930">
	<ele>1635.20</ele>
	<time>2023-07-15T07:01:28.000Z</time>
</trkpt>
<trkpt lat="46.0116470" lon="9.4340330">
	<ele>1634.40</ele>
	<time>2023-07-15T07:01:31.000Z</time>
</trkpt>
<trkpt lat="46.0116190" lon="9.4341400">
	<ele>1633.40</ele>
	<time>2023-07-15T07:01:37.000Z</time>
</trkpt>
<trkpt lat="46.0116050" lon="9.4341850">
	<ele>1632.80</ele>
	<time>2023-07-15T07:01:40.000Z</time>
</trkpt>
<trkpt lat="46.0115830" lon="9.4342020">
	<ele>1632.20</ele>
	<time>2023-07-15T07:01:42.000Z</time>
</trkpt>
<trkpt lat="46.0115650" lon="9.4342150">
	<ele>1631.80</ele>
	<time>2023-07-15T07:01:44.000Z</time>
</trkpt>
<trkpt lat="46.0115480" lon="9.4342830">
	<ele>1631.20</ele>
	<time>2023-07-15T07:01:47.000Z</time>
</trkpt>
<trkpt lat="46.0115360" lon="9.4343380">
	<ele>1631.00</ele>
	<time>2023-07-15T07:01:50.000Z</time>
</trkpt>
<trkpt lat="46.0115050" lon="9.4343860">
	<ele>1630.00</ele>
	<time>2023-07-15T07:01:55.000Z</time>
</trkpt>
<trkpt lat="46.0115060" lon="9.4343920">
	<ele>1629.60</ele>
	<time>2023-07-15T07:01:56.000Z</time>
</trkpt>
<trkpt lat="46.0115040" lon="9.4343890">
	<ele>1629.60</ele>
	<time>2023-07-15T07:01:57.000Z</time>
</trkpt>
<trkpt lat="46.0114980" lon="9.4344080">
	<ele>1629.60</ele>
	<time>2023-07-15T07:02:01.000Z</time>
</trkpt>
<trkpt lat="46.0114990" lon="9.4344080">
	<ele>1629.60</ele>
	<time>2023-07-15T07:02:04.000Z</time>
</trkpt>
<trkpt lat="46.0114770" lon="9.4344460">
	<ele>1629.20</ele>
	<time>2023-07-15T07:02:09.000Z</time>
</trkpt>
<trkpt lat="46.0114740" lon="9.4344630">
	<ele>1628.80</ele>
	<time>2023-07-15T07:02:11.000Z</time>
</trkpt>
<trkpt lat="46.0114730" lon="9.4344730">
	<ele>1628.60</ele>
	<time>2023-07-15T07:02:12.000Z</time>
</trkpt>
<trkpt lat="46.0114690" lon="9.4344980">
	<ele>1628.20</ele>
	<time>2023-07-15T07:02:15.000Z</time>
</trkpt>
<trkpt lat="46.0114640" lon="9.4345110">
	<ele>1628.00</ele>
	<time>2023-07-15T07:02:17.000Z</time>
</trkpt>
<trkpt lat="46.0114640" lon="9.4345180">
	<ele>1627.80</ele>
	<time>2023-07-15T07:02:18.000Z</time>
</trkpt>
<trkpt lat="46.0114640" lon="9.4345390">
	<ele>1627.40</ele>
	<time>2023-07-15T07:02:20.000Z</time>
</trkpt>
<trkpt lat="46.0114640" lon="9.4345460">
	<ele>1627.20</ele>
	<time>2023-07-15T07:02:21.000Z</time>
</trkpt>
<trkpt lat="46.0114690" lon="9.4345740">
	<ele>1626.80</ele>
	<time>2023-07-15T07:02:25.000Z</time>
</trkpt>
<trkpt lat="46.0114740" lon="9.4346490">
	<ele>1625.80</ele>
	<time>2023-07-15T07:02:32.000Z</time>
</trkpt>
<trkpt lat="46.0114670" lon="9.4346580">
	<ele>1625.60</ele>
	<time>2023-07-15T07:02:33.000Z</time>
</trkpt>
<trkpt lat="46.0114570" lon="9.4346880">
	<ele>1625.20</ele>
	<time>2023-07-15T07:02:38.000Z</time>
</trkpt>
<trkpt lat="46.0114600" lon="9.4346800">
	<ele>1625.20</ele>
	<time>2023-07-15T07:02:47.000Z</time>
</trkpt>
<trkpt lat="46.0114600" lon="9.4346780">
	<ele>1625.00</ele>
	<time>2023-07-15T07:03:01.000Z</time>
</trkpt>
<trkpt lat="46.0114610" lon="9.4346800">
	<ele>1625.00</ele>
	<time>2023-07-15T07:03:12.000Z</time>
</trkpt>
<trkpt lat="46.0114610" lon="9.4346810">
	<ele>1625.00</ele>
	<time>2023-07-15T07:03:17.000Z</time>
</trkpt>
<trkpt lat="46.0114610" lon="9.4346810">
	<ele>1624.80</ele>
	<time>2023-07-15T07:03:21.000Z</time>
</trkpt>
<trkpt lat="46.0114620" lon="9.4346820">
	<ele>1624.80</ele>
	<time>2023-07-15T07:03:23.000Z</time>
</trkpt>
<trkpt lat="46.0114650" lon="9.4347130">
	<ele>1625.40</ele>
	<time>2023-07-15T07:03:45.000Z</time>
</trkpt>
<trkpt lat="46.0114630" lon="9.4347140">
	<ele>1625.40</ele>
	<time>2023-07-15T07:03:47.000Z</time>
</trkpt>
<trkpt lat="46.0114620" lon="9.4347150">
	<ele>1625.40</ele>
	<time>2023-07-15T07:03:51.000Z</time>
</trkpt>
<trkpt lat="46.0114610" lon="9.4347170">
	<ele>1625.40</ele>
	<time>2023-07-15T07:03:57.000Z</time>
</trkpt>
<trkpt lat="46.0114610" lon="9.4347180">
	<ele>1625.40</ele>
	<time>2023-07-15T07:04:01.000Z</time>
</trkpt>
<trkpt lat="46.0114610" lon="9.4347180">
	<ele>1625.40</ele>
	<time>2023-07-15T07:04:05.000Z</time>
</trkpt>
<trkpt lat="46.0114610" lon="9.4347180">
	<ele>1625.40</ele>
	<time>2023-07-15T07:04:09.000Z</time>
</trkpt>
<trkpt lat="46.0114630" lon="9.4347160">
	<ele>1625.40</ele>
	<time>2023-07-15T07:04:20.000Z</time>
</trkpt>
<trkpt lat="46.0114660" lon="9.4347250">
	<ele>1625.40</ele>
	<time>2023-07-15T07:04:45.000Z</time>
</trkpt>
<trkpt lat="46.0114570" lon="9.4347250">
	<ele>1625.40</ele>
	<time>2023-07-15T07:05:00.000Z</time>
</trkpt>
<trkpt lat="46.0114560" lon="9.4347250">
	<ele>1625.40</ele>
	<time>2023-07-15T07:05:01.000Z</time>
</trkpt>
<trkpt lat="46.0114480" lon="9.4347220">
	<ele>1625.40</ele>
	<time>2023-07-15T07:05:21.000Z</time>
</trkpt>
<trkpt lat="46.0114450" lon="9.4347530">
	<ele>1625.40</ele>
	<time>2023-07-15T07:05:28.000Z</time>
</trkpt>
<trkpt lat="46.0114420" lon="9.4347710">
	<ele>1625.40</ele>
	<time>2023-07-15T07:05:29.000Z</time>
</trkpt>
<trkpt lat="46.0114390" lon="9.4348610">
	<ele>1625.40</ele>
	<time>2023-07-15T07:05:38.000Z</time>
</trkpt>
<trkpt lat="46.0114390" lon="9.4348680">
	<ele>1624.40</ele>
	<time>2023-07-15T07:05:41.000Z</time>
</trkpt>
<trkpt lat="46.0114380" lon="9.4348690">
	<ele>1623.80</ele>
	<time>2023-07-15T07:06:02.000Z</time>
</trkpt>
<trkpt lat="46.0114390" lon="9.4348710">
	<ele>1624.00</ele>
	<time>2023-07-15T07:06:11.000Z</time>
</trkpt>
<trkpt lat="46.0114370" lon="9.4348820">
	<ele>1623.80</ele>
	<time>2023-07-15T07:06:22.000Z</time>
</trkpt>
<trkpt lat="46.0114600" lon="9.4349830">
	<ele>1624.60</ele>
	<time>2023-07-15T07:06:57.000Z</time>
</trkpt>
<trkpt lat="46.0115090" lon="9.4351210">
	<ele>1625.00</ele>
	<time>2023-07-15T07:07:04.000Z</time>
</trkpt>
<trkpt lat="46.0115390" lon="9.4351860">
	<ele>1625.40</ele>
	<time>2023-07-15T07:07:10.000Z</time>
</trkpt>
<trkpt lat="46.0115480" lon="9.4352160">
	<ele>1625.60</ele>
	<time>2023-07-15T07:07:12.000Z</time>
</trkpt>
<trkpt lat="46.0115780" lon="9.4352710">
	<ele>1626.00</ele>
	<time>2023-07-15T07:07:16.000Z</time>
</trkpt>
<trkpt lat="46.0115840" lon="9.4352870">
	<ele>1626.20</ele>
	<time>2023-07-15T07:07:17.000Z</time>
</trkpt>
<trkpt lat="46.0116030" lon="9.4353260">
	<ele>1626.20</ele>
	<time>2023-07-15T07:07:20.000Z</time>
</trkpt>
<trkpt lat="46.0116190" lon="9.4353570">
	<ele>1626.40</ele>
	<time>2023-07-15T07:07:23.000Z</time>
</trkpt>
<trkpt lat="46.0116320" lon="9.4353820">
	<ele>1626.40</ele>
	<time>2023-07-15T07:07:25.000Z</time>
</trkpt>
<trkpt lat="46.0116440" lon="9.4354100">
	<ele>1626.40</ele>
	<time>2023-07-15T07:07:27.000Z</time>
</trkpt>
<trkpt lat="46.0116650" lon="9.4354390">
	<ele>1626.80</ele>
	<time>2023-07-15T07:07:30.000Z</time>
</trkpt>
<trkpt lat="46.0116990" lon="9.4355180">
	<ele>1627.00</ele>
	<time>2023-07-15T07:07:36.000Z</time>
</trkpt>
<trkpt lat="46.0117100" lon="9.4355400">
	<ele>1627.20</ele>
	<time>2023-07-15T07:07:38.000Z</time>
</trkpt>
<trkpt lat="46.0117270" lon="9.4355600">
	<ele>1627.60</ele>
	<time>2023-07-15T07:07:40.000Z</time>
</trkpt>
<trkpt lat="46.0117840" lon="9.4356290">
	<ele>1628.40</ele>
	<time>2023-07-15T07:07:47.000Z</time>
</trkpt>
<trkpt lat="46.0117970" lon="9.4356510">
	<ele>1628.80</ele>
	<time>2023-07-15T07:07:49.000Z</time>
</trkpt>
<trkpt lat="46.0118240" lon="9.4356940">
	<ele>1629.20</ele>
	<time>2023-07-15T07:07:53.000Z</time>
</trkpt>
<trkpt lat="46.0118340" lon="9.4357180">
	<ele>1629.60</ele>
	<time>2023-07-15T07:07:55.000Z</time>
</trkpt>
<trkpt lat="46.0118720" lon="9.4357470">
	<ele>1629.80</ele>
	<time>2023-07-15T07:07:58.000Z</time>
</trkpt>
<trkpt lat="46.0118790" lon="9.4357710">
	<ele>1630.00</ele>
	<time>2023-07-15T07:08:00.000Z</time>
</trkpt>
<trkpt lat="46.0119390" lon="9.4358490">
	<ele>1630.80</ele>
	<time>2023-07-15T07:08:07.000Z</time>
</trkpt>
<trkpt lat="46.0119460" lon="9.4358610">
	<ele>1630.80</ele>
	<time>2023-07-15T07:08:08.000Z</time>
</trkpt>
<trkpt lat="46.0119530" lon="9.4358720">
	<ele>1630.80</ele>
	<time>2023-07-15T07:08:09.000Z</time>
</trkpt>
<trkpt lat="46.0119730" lon="9.4360150">
	<ele>1631.80</ele>
	<time>2023-07-15T07:08:17.000Z</time>
</trkpt>
<trkpt lat="46.0119710" lon="9.4360340">
	<ele>1632.00</ele>
	<time>2023-07-15T07:08:18.000Z</time>
</trkpt>
<trkpt lat="46.0119450" lon="9.4361450">
	<ele>1632.20</ele>
	<time>2023-07-15T07:08:25.000Z</time>
</trkpt>
<trkpt lat="46.0119000" lon="9.4363040">
	<ele>1632.60</ele>
	<time>2023-07-15T07:08:35.000Z</time>
</trkpt>
<trkpt lat="46.0118650" lon="9.4363800">
	<ele>1633.00</ele>
	<time>2023-07-15T07:08:40.000Z</time>
</trkpt>
<trkpt lat="46.0118320" lon="9.4364390">
	<ele>1633.00</ele>
	<time>2023-07-15T07:08:44.000Z</time>
</trkpt>
<trkpt lat="46.0117960" lon="9.4364920">
	<ele>1633.20</ele>
	<time>2023-07-15T07:08:48.000Z</time>
</trkpt>
<trkpt lat="46.0117760" lon="9.4365440">
	<ele>1633.20</ele>
	<time>2023-07-15T07:08:51.000Z</time>
</trkpt>
<trkpt lat="46.0117190" lon="9.4366360">
	<ele>1633.40</ele>
	<time>2023-07-15T07:08:57.000Z</time>
</trkpt>
<trkpt lat="46.0117080" lon="9.4366600">
	<ele>1633.20</ele>
	<time>2023-07-15T07:08:59.000Z</time>
</trkpt>
<trkpt lat="46.0116910" lon="9.4367140">
	<ele>1633.20</ele>
	<time>2023-07-15T07:09:02.000Z</time>
</trkpt>
<trkpt lat="46.0116440" lon="9.4367980">
	<ele>1633.20</ele>
	<time>2023-07-15T07:09:08.000Z</time>
</trkpt>
<trkpt lat="46.0116330" lon="9.4368050">
	<ele>1633.20</ele>
	<time>2023-07-15T07:09:09.000Z</time>
</trkpt>
<trkpt lat="46.0115910" lon="9.4368740">
	<ele>1633.40</ele>
	<time>2023-07-15T07:09:16.000Z</time>
</trkpt>
<trkpt lat="46.0115650" lon="9.4369310">
	<ele>1633.40</ele>
	<time>2023-07-15T07:09:19.000Z</time>
</trkpt>
<trkpt lat="46.0115400" lon="9.4369730">
	<ele>1633.60</ele>
	<time>2023-07-15T07:09:23.000Z</time>
</trkpt>
<trkpt lat="46.0115340" lon="9.4369800">
	<ele>1633.60</ele>
	<time>2023-07-15T07:09:24.000Z</time>
</trkpt>
<trkpt lat="46.0115290" lon="9.4369890">
	<ele>1633.80</ele>
	<time>2023-07-15T07:09:25.000Z</time>
</trkpt>
<trkpt lat="46.0114270" lon="9.4370890">
	<ele>1633.60</ele>
	<time>2023-07-15T07:09:35.000Z</time>
</trkpt>
<trkpt lat="46.0113150" lon="9.4371740">
	<ele>1633.60</ele>
	<time>2023-07-15T07:09:44.000Z</time>
</trkpt>
<trkpt lat="46.0112800" lon="9.4372030">
	<ele>1633.60</ele>
	<time>2023-07-15T07:09:47.000Z</time>
</trkpt>
<trkpt lat="46.0112100" lon="9.4372550">
	<ele>1633.80</ele>
	<time>2023-07-15T07:09:53.000Z</time>
</trkpt>
<trkpt lat="46.0111060" lon="9.4373370">
	<ele>1633.60</ele>
	<time>2023-07-15T07:10:03.000Z</time>
</trkpt>
<trkpt lat="46.0110290" lon="9.4374330">
	<ele>1633.60</ele>
	<time>2023-07-15T07:10:12.000Z</time>
</trkpt>
<trkpt lat="46.0110100" lon="9.4374790">
	<ele>1634.00</ele>
	<time>2023-07-15T07:10:16.000Z</time>
</trkpt>
<trkpt lat="46.0109980" lon="9.4375110">
	<ele>1634.00</ele>
	<time>2023-07-15T07:10:18.000Z</time>
</trkpt>
<trkpt lat="46.0109300" lon="9.4376060">
	<ele>1634.00</ele>
	<time>2023-07-15T07:10:26.000Z</time>
</trkpt>
<trkpt lat="46.0108890" lon="9.4377110">
	<ele>1634.40</ele>
	<time>2023-07-15T07:10:33.000Z</time>
</trkpt>
<trkpt lat="46.0108760" lon="9.4377540">
	<ele>1634.60</ele>
	<time>2023-07-15T07:10:36.000Z</time>
</trkpt>
<trkpt lat="46.0108610" lon="9.4378830">
	<ele>1635.00</ele>
	<time>2023-07-15T07:10:43.000Z</time>
</trkpt>
<trkpt lat="46.0108600" lon="9.4378980">
	<ele>1635.00</ele>
	<time>2023-07-15T07:10:44.000Z</time>
</trkpt>
<trkpt lat="46.0108460" lon="9.4380340">
	<ele>1634.80</ele>
	<time>2023-07-15T07:10:53.000Z</time>
</trkpt>
<trkpt lat="46.0108420" lon="9.4380410">
	<ele>1634.80</ele>
	<time>2023-07-15T07:10:54.000Z</time>
</trkpt>
<trkpt lat="46.0108250" lon="9.4381360">
	<ele>1634.80</ele>
	<time>2023-07-15T07:11:00.000Z</time>
</trkpt>
<trkpt lat="46.0107800" lon="9.4382850">
	<ele>1635.00</ele>
	<time>2023-07-15T07:11:09.000Z</time>
</trkpt>
<trkpt lat="46.0107720" lon="9.4383000">
	<ele>1635.00</ele>
	<time>2023-07-15T07:11:10.000Z</time>
</trkpt>
<trkpt lat="46.0107280" lon="9.4384130">
	<ele>1635.20</ele>
	<time>2023-07-15T07:11:18.000Z</time>
</trkpt>
<trkpt lat="46.0107270" lon="9.4384230">
	<ele>1635.20</ele>
	<time>2023-07-15T07:11:21.000Z</time>
</trkpt>
<trkpt lat="46.0107280" lon="9.4384300">
	<ele>1635.60</ele>
	<time>2023-07-15T07:11:23.000Z</time>
</trkpt>
<trkpt lat="46.0106970" lon="9.4384950">
	<ele>1635.20</ele>
	<time>2023-07-15T07:11:34.000Z</time>
</trkpt>
<trkpt lat="46.0106340" lon="9.4385550">
	<ele>1635.40</ele>
	<time>2023-07-15T07:11:41.000Z</time>
</trkpt>
<trkpt lat="46.0106280" lon="9.4385670">
	<ele>1635.40</ele>
	<time>2023-07-15T07:11:42.000Z</time>
</trkpt>
<trkpt lat="46.0105770" lon="9.4386460">
	<ele>1635.60</ele>
	<time>2023-07-15T07:11:48.000Z</time>
</trkpt>
<trkpt lat="46.0105620" lon="9.4386670">
	<ele>1635.60</ele>
	<time>2023-07-15T07:11:50.000Z</time>
</trkpt>
<trkpt lat="46.0105270" lon="9.4387450">
	<ele>1635.60</ele>
	<time>2023-07-15T07:11:57.000Z</time>
</trkpt>
<trkpt lat="46.0105210" lon="9.4387500">
	<ele>1635.60</ele>
	<time>2023-07-15T07:11:58.000Z</time>
</trkpt>
<trkpt lat="46.0105210" lon="9.4387550">
	<ele>1635.60</ele>
	<time>2023-07-15T07:12:00.000Z</time>
</trkpt>
<trkpt lat="46.0105220" lon="9.4387570">
	<ele>1635.80</ele>
	<time>2023-07-15T07:12:02.000Z</time>
</trkpt>
<trkpt lat="46.0105230" lon="9.4387540">
	<ele>1636.00</ele>
	<time>2023-07-15T07:12:04.000Z</time>
</trkpt>
<trkpt lat="46.0105460" lon="9.4387430">
	<ele>1635.40</ele>
	<time>2023-07-15T07:12:09.000Z</time>
</trkpt>
<trkpt lat="46.0105500" lon="9.4387490">
	<ele>1635.20</ele>
	<time>2023-07-15T07:12:13.000Z</time>
</trkpt>
<trkpt lat="46.0105520" lon="9.4387540">
	<ele>1635.20</ele>
	<time>2023-07-15T07:12:15.000Z</time>
</trkpt>
<trkpt lat="46.0105520" lon="9.4387590">
	<ele>1635.40</ele>
	<time>2023-07-15T07:12:21.000Z</time>
</trkpt>
<trkpt lat="46.0105460" lon="9.4387650">
	<ele>1635.40</ele>
	<time>2023-07-15T07:12:26.000Z</time>
</trkpt>
<trkpt lat="46.0105410" lon="9.4387810">
	<ele>1635.40</ele>
	<time>2023-07-15T07:12:38.000Z</time>
</trkpt>
<trkpt lat="46.0105410" lon="9.4387800">
	<ele>1635.40</ele>
	<time>2023-07-15T07:12:42.000Z</time>
</trkpt>
<trkpt lat="46.0105340" lon="9.4387800">
	<ele>1635.40</ele>
	<time>2023-07-15T07:13:01.000Z</time>
</trkpt>
<trkpt lat="46.0104680" lon="9.4388510">
	<ele>1635.20</ele>
	<time>2023-07-15T07:13:53.000Z</time>
</trkpt>
<trkpt lat="46.0104260" lon="9.4389160">
	<ele>1635.20</ele>
	<time>2023-07-15T07:13:57.000Z</time>
</trkpt>
<trkpt lat="46.0103980" lon="9.4389800">
	<ele>1635.20</ele>
	<time>2023-07-15T07:14:02.000Z</time>
</trkpt>
<trkpt lat="46.0103720" lon="9.4390400">
	<ele>1635.20</ele>
	<time>2023-07-15T07:14:09.000Z</time>
</trkpt>
<trkpt lat="46.0103140" lon="9.4391510">
	<ele>1635.20</ele>
	<time>2023-07-15T07:14:18.000Z</time>
</trkpt>
<trkpt lat="46.0103000" lon="9.4392080">
	<ele>1635.20</ele>
	<time>2023-07-15T07:14:22.000Z</time>
</trkpt>
<trkpt lat="46.0102950" lon="9.4392230">
	<ele>1636.40</ele>
	<time>2023-07-15T07:14:25.000Z</time>
</trkpt>
<trkpt lat="46.0102940" lon="9.4392270">
	<ele>1636.80</ele>
	<time>2023-07-15T07:14:26.000Z</time>
</trkpt>
<trkpt lat="46.0102920" lon="9.4392400">
	<ele>1636.80</ele>
	<time>2023-07-15T07:14:28.000Z</time>
</trkpt>
<trkpt lat="46.0102800" lon="9.4392920">
	<ele>1636.60</ele>
	<time>2023-07-15T07:14:36.000Z</time>
</trkpt>
<trkpt lat="46.0102770" lon="9.4392950">
	<ele>1637.40</ele>
	<time>2023-07-15T07:14:42.000Z</time>
</trkpt>
<trkpt lat="46.0102770" lon="9.4393010">
	<ele>1637.00</ele>
	<time>2023-07-15T07:14:48.000Z</time>
</trkpt>
<trkpt lat="46.0102770" lon="9.4393010">
	<ele>1636.80</ele>
	<time>2023-07-15T07:14:50.000Z</time>
</trkpt>
<trkpt lat="46.0102770" lon="9.4393010">
	<ele>1636.60</ele>
	<time>2023-07-15T07:14:59.000Z</time>
</trkpt>
<trkpt lat="46.0102760" lon="9.4393030">
	<ele>1636.80</ele>
	<time>2023-07-15T07:15:05.000Z</time>
</trkpt>
<trkpt lat="46.0102430" lon="9.4393770">
	<ele>1636.80</ele>
	<time>2023-07-15T07:15:11.000Z</time>
</trkpt>
<trkpt lat="46.0101920" lon="9.4394780">
	<ele>1637.40</ele>
	<time>2023-07-15T07:15:20.000Z</time>
</trkpt>
<trkpt lat="46.0101900" lon="9.4394800">
	<ele>1637.60</ele>
	<time>2023-07-15T07:15:21.000Z</time>
</trkpt>
<trkpt lat="46.0101790" lon="9.4394800">
	<ele>1637.60</ele>
	<time>2023-07-15T07:15:26.000Z</time>
</trkpt>
<trkpt lat="46.0101390" lon="9.4395080">
	<ele>1637.80</ele>
	<time>2023-07-15T07:15:32.000Z</time>
</trkpt>
<trkpt lat="46.0101330" lon="9.4395140">
	<ele>1638.00</ele>
	<time>2023-07-15T07:15:33.000Z</time>
</trkpt>
<trkpt lat="46.0101240" lon="9.4395370">
	<ele>1638.60</ele>
	<time>2023-07-15T07:15:36.000Z</time>
</trkpt>
<trkpt lat="46.0101130" lon="9.4395530">
	<ele>1639.20</ele>
	<time>2023-07-15T07:15:39.000Z</time>
</trkpt>
<trkpt lat="46.0100940" lon="9.4395750">
	<ele>1639.80</ele>
	<time>2023-07-15T07:15:43.000Z</time>
</trkpt>
<trkpt lat="46.0100780" lon="9.4395960">
	<ele>1640.20</ele>
	<time>2023-07-15T07:15:48.000Z</time>
</trkpt>
<trkpt lat="46.0100590" lon="9.4396160">
	<ele>1640.80</ele>
	<time>2023-07-15T07:15:52.000Z</time>
</trkpt>
<trkpt lat="46.0100520" lon="9.4396290">
	<ele>1641.40</ele>
	<time>2023-07-15T07:15:55.000Z</time>
</trkpt>
<trkpt lat="46.0100430" lon="9.4396540">
	<ele>1642.00</ele>
	<time>2023-07-15T07:15:59.000Z</time>
</trkpt>
<trkpt lat="46.0100380" lon="9.4396770">
	<ele>1642.60</ele>
	<time>2023-07-15T07:16:02.000Z</time>
</trkpt>
<trkpt lat="46.0100290" lon="9.4396990">
	<ele>1643.20</ele>
	<time>2023-07-15T07:16:05.000Z</time>
</trkpt>
<trkpt lat="46.0100150" lon="9.4397200">
	<ele>1644.20</ele>
	<time>2023-07-15T07:16:10.000Z</time>
</trkpt>
<trkpt lat="46.0099960" lon="9.4397310">
	<ele>1644.80</ele>
	<time>2023-07-15T07:16:14.000Z</time>
</trkpt>
<trkpt lat="46.0099920" lon="9.4397390">
	<ele>1645.20</ele>
	<time>2023-07-15T07:16:16.000Z</time>
</trkpt>
<trkpt lat="46.0099890" lon="9.4397430">
	<ele>1645.40</ele>
	<time>2023-07-15T07:16:17.000Z</time>
</trkpt>
<trkpt lat="46.0099780" lon="9.4397480">
	<ele>1645.80</ele>
	<time>2023-07-15T07:16:19.000Z</time>
</trkpt>
<trkpt lat="46.0099660" lon="9.4397650">
	<ele>1646.40</ele>
	<time>2023-07-15T07:16:22.000Z</time>
</trkpt>
<trkpt lat="46.0099610" lon="9.4397720">
	<ele>1646.60</ele>
	<time>2023-07-15T07:16:23.000Z</time>
</trkpt>
<trkpt lat="46.0099510" lon="9.4398010">
	<ele>1647.20</ele>
	<time>2023-07-15T07:16:27.000Z</time>
</trkpt>
<trkpt lat="46.0099440" lon="9.4398120">
	<ele>1647.80</ele>
	<time>2023-07-15T07:16:29.000Z</time>
</trkpt>
<trkpt lat="46.0099110" lon="9.4398420">
	<ele>1649.00</ele>
	<time>2023-07-15T07:16:36.000Z</time>
</trkpt>
<trkpt lat="46.0099030" lon="9.4398520">
	<ele>1649.40</ele>
	<time>2023-07-15T07:16:38.000Z</time>
</trkpt>
<trkpt lat="46.0098810" lon="9.4398760">
	<ele>1650.00</ele>
	<time>2023-07-15T07:16:43.000Z</time>
</trkpt>
<trkpt lat="46.0098670" lon="9.4399050">
	<ele>1650.80</ele>
	<time>2023-07-15T07:16:47.000Z</time>
</trkpt>
<trkpt lat="46.0098540" lon="9.4399180">
	<ele>1651.20</ele>
	<time>2023-07-15T07:16:49.000Z</time>
</trkpt>
<trkpt lat="46.0098400" lon="9.4399490">
	<ele>1651.80</ele>
	<time>2023-07-15T07:16:53.000Z</time>
</trkpt>
<trkpt lat="46.0098310" lon="9.4399580">
	<ele>1652.20</ele>
	<time>2023-07-15T07:16:55.000Z</time>
</trkpt>
<trkpt lat="46.0098220" lon="9.4399740">
	<ele>1652.60</ele>
	<time>2023-07-15T07:16:57.000Z</time>
</trkpt>
<trkpt lat="46.0097890" lon="9.4400340">
	<ele>1653.40</ele>
	<time>2023-07-15T07:17:03.000Z</time>
</trkpt>
<trkpt lat="46.0097800" lon="9.4400740">
	<ele>1653.80</ele>
	<time>2023-07-15T07:17:06.000Z</time>
</trkpt>
<trkpt lat="46.0097290" lon="9.4401980">
	<ele>1654.00</ele>
	<time>2023-07-15T07:17:16.000Z</time>
</trkpt>
<trkpt lat="46.0097250" lon="9.4402180">
	<ele>1654.00</ele>
	<time>2023-07-15T07:17:17.000Z</time>
</trkpt>
<trkpt lat="46.0096970" lon="9.4403110">
	<ele>1654.20</ele>
	<time>2023-07-15T07:17:25.000Z</time>
</trkpt>
<trkpt lat="46.0096960" lon="9.4403230">
	<ele>1654.20</ele>
	<time>2023-07-15T07:17:26.000Z</time>
</trkpt>
<trkpt lat="46.0096950" lon="9.4403340">
	<ele>1654.40</ele>
	<time>2023-07-15T07:17:27.000Z</time>
</trkpt>
<trkpt lat="46.0096960" lon="9.4403460">
	<ele>1654.60</ele>
	<time>2023-07-15T07:17:28.000Z</time>
</trkpt>
<trkpt lat="46.0096980" lon="9.4403740">
	<ele>1655.00</ele>
	<time>2023-07-15T07:17:31.000Z</time>
</trkpt>
<trkpt lat="46.0096910" lon="9.4403870">
	<ele>1655.40</ele>
	<time>2023-07-15T07:17:33.000Z</time>
</trkpt>
<trkpt lat="46.0096890" lon="9.4403900">
	<ele>1655.60</ele>
	<time>2023-07-15T07:17:34.000Z</time>
</trkpt>
<trkpt lat="46.0096790" lon="9.4403940">
	<ele>1656.00</ele>
	<time>2023-07-15T07:17:36.000Z</time>
</trkpt>
<trkpt lat="46.0096650" lon="9.4404080">
	<ele>1656.80</ele>
	<time>2023-07-15T07:17:40.000Z</time>
</trkpt>
<trkpt lat="46.0096470" lon="9.4404260">
	<ele>1657.60</ele>
	<time>2023-07-15T07:17:44.000Z</time>
</trkpt>
<trkpt lat="46.0096420" lon="9.4404300">
	<ele>1657.80</ele>
	<time>2023-07-15T07:17:45.000Z</time>
</trkpt>
<trkpt lat="46.0096340" lon="9.4404360">
	<ele>1658.40</ele>
	<time>2023-07-15T07:17:48.000Z</time>
</trkpt>
<trkpt lat="46.0096220" lon="9.4404370">
	<ele>1658.80</ele>
	<time>2023-07-15T07:17:51.000Z</time>
</trkpt>
<trkpt lat="46.0096190" lon="9.4404390">
	<ele>1659.00</ele>
	<time>2023-07-15T07:17:52.000Z</time>
</trkpt>
<trkpt lat="46.0096130" lon="9.4404760">
	<ele>1660.00</ele>
	<time>2023-07-15T07:17:58.000Z</time>
</trkpt>
<trkpt lat="46.0096130" lon="9.4404930">
	<ele>1660.20</ele>
	<time>2023-07-15T07:18:00.000Z</time>
</trkpt>
<trkpt lat="46.0096050" lon="9.4405080">
	<ele>1661.20</ele>
	<time>2023-07-15T07:18:03.000Z</time>
</trkpt>
<trkpt lat="46.0095830" lon="9.4405410">
	<ele>1661.80</ele>
	<time>2023-07-15T07:18:08.000Z</time>
</trkpt>
<trkpt lat="46.0095720" lon="9.4405620">
	<ele>1662.20</ele>
	<time>2023-07-15T07:18:11.000Z</time>
</trkpt>
<trkpt lat="46.0095610" lon="9.4405760">
	<ele>1663.20</ele>
	<time>2023-07-15T07:18:15.000Z</time>
</trkpt>
<trkpt lat="46.0095400" lon="9.4405900">
	<ele>1664.60</ele>
	<time>2023-07-15T07:18:22.000Z</time>
</trkpt>
<trkpt lat="46.0095400" lon="9.4405930">
	<ele>1664.80</ele>
	<time>2023-07-15T07:18:23.000Z</time>
</trkpt>
<trkpt lat="46.0095120" lon="9.4405970">
	<ele>1665.60</ele>
	<time>2023-07-15T07:18:28.000Z</time>
</trkpt>
<trkpt lat="46.0095030" lon="9.4406030">
	<ele>1666.00</ele>
	<time>2023-07-15T07:18:30.000Z</time>
</trkpt>
<trkpt lat="46.0094980" lon="9.4406280">
	<ele>1666.60</ele>
	<time>2023-07-15T07:18:35.000Z</time>
</trkpt>
<trkpt lat="46.0094920" lon="9.4406410">
	<ele>1667.20</ele>
	<time>2023-07-15T07:18:39.000Z</time>
</trkpt>
<trkpt lat="46.0094890" lon="9.4406420">
	<ele>1667.80</ele>
	<time>2023-07-15T07:18:41.000Z</time>
</trkpt>
<trkpt lat="46.0094810" lon="9.4406620">
	<ele>1668.40</ele>
	<time>2023-07-15T07:18:45.000Z</time>
</trkpt>
<trkpt lat="46.0094740" lon="9.4406690">
	<ele>1668.80</ele>
	<time>2023-07-15T07:18:47.000Z</time>
</trkpt>
<trkpt lat="46.0094770" lon="9.4407020">
	<ele>1669.80</ele>
	<time>2023-07-15T07:18:52.000Z</time>
</trkpt>
<trkpt lat="46.0094740" lon="9.4407110">
	<ele>1670.00</ele>
	<time>2023-07-15T07:18:53.000Z</time>
</trkpt>
<trkpt lat="46.0094440" lon="9.4407430">
	<ele>1671.00</ele>
	<time>2023-07-15T07:18:59.000Z</time>
</trkpt>
<trkpt lat="46.0094390" lon="9.4407550">
	<ele>1671.20</ele>
	<time>2023-07-15T07:19:01.000Z</time>
</trkpt>
<trkpt lat="46.0094310" lon="9.4407890">
	<ele>1672.00</ele>
	<time>2023-07-15T07:19:06.000Z</time>
</trkpt>
<trkpt lat="46.0094200" lon="9.4408110">
	<ele>1673.00</ele>
	<time>2023-07-15T07:19:10.000Z</time>
</trkpt>
<trkpt lat="46.0094130" lon="9.4408140">
	<ele>1673.00</ele>
	<time>2023-07-15T07:19:11.000Z</time>
</trkpt>
<trkpt lat="46.0093890" lon="9.4408510">
	<ele>1673.80</ele>
	<time>2023-07-15T07:19:17.000Z</time>
</trkpt>
<trkpt lat="46.0093820" lon="9.4408570">
	<ele>1674.00</ele>
	<time>2023-07-15T07:19:18.000Z</time>
</trkpt>
<trkpt lat="46.0093670" lon="9.4408900">
	<ele>1675.00</ele>
	<time>2023-07-15T07:19:23.000Z</time>
</trkpt>
<trkpt lat="46.0093630" lon="9.4408980">
	<ele>1675.40</ele>
	<time>2023-07-15T07:19:24.000Z</time>
</trkpt>
<trkpt lat="46.0093470" lon="9.4409280">
	<ele>1676.20</ele>
	<time>2023-07-15T07:19:28.000Z</time>
</trkpt>
<trkpt lat="46.0093310" lon="9.4409490">
	<ele>1676.60</ele>
	<time>2023-07-15T07:19:31.000Z</time>
</trkpt>
<trkpt lat="46.0093190" lon="9.4409930">
	<ele>1677.20</ele>
	<time>2023-07-15T07:19:35.000Z</time>
</trkpt>
<trkpt lat="46.0093090" lon="9.4410000">
	<ele>1677.40</ele>
	<time>2023-07-15T07:19:39.000Z</time>
</trkpt>
<trkpt lat="46.0093060" lon="9.4410090">
	<ele>1678.20</ele>
	<time>2023-07-15T07:19:44.000Z</time>
</trkpt>
<trkpt lat="46.0092790" lon="9.4410650">
	<ele>1677.80</ele>
	<time>2023-07-15T07:19:50.000Z</time>
</trkpt>
<trkpt lat="46.0092500" lon="9.4411800">
	<ele>1677.40</ele>
	<time>2023-07-15T07:19:58.000Z</time>
</trkpt>
<trkpt lat="46.0092130" lon="9.4412770">
	<ele>1678.40</ele>
	<time>2023-07-15T07:20:07.000Z</time>
</trkpt>
<trkpt lat="46.0092070" lon="9.4412780">
	<ele>1678.60</ele>
	<time>2023-07-15T07:20:08.000Z</time>
</trkpt>
<trkpt lat="46.0091930" lon="9.4412920">
	<ele>1679.20</ele>
	<time>2023-07-15T07:20:12.000Z</time>
</trkpt>
<trkpt lat="46.0091890" lon="9.4412990">
	<ele>1679.40</ele>
	<time>2023-07-15T07:20:13.000Z</time>
</trkpt>
<trkpt lat="46.0091550" lon="9.4413490">
	<ele>1680.40</ele>
	<time>2023-07-15T07:20:19.000Z</time>
</trkpt>
<trkpt lat="46.0091470" lon="9.4413680">
	<ele>1680.80</ele>
	<time>2023-07-15T07:20:21.000Z</time>
</trkpt>
<trkpt lat="46.0091210" lon="9.4414190">
	<ele>1681.40</ele>
	<time>2023-07-15T07:20:26.000Z</time>
</trkpt>
<trkpt lat="46.0090820" lon="9.4414690">
	<ele>1682.20</ele>
	<time>2023-07-15T07:20:31.000Z</time>
</trkpt>
<trkpt lat="46.0090750" lon="9.4414840">
	<ele>1682.60</ele>
	<time>2023-07-15T07:20:33.000Z</time>
</trkpt>
<trkpt lat="46.0090640" lon="9.4414800">
	<ele>1682.80</ele>
	<time>2023-07-15T07:20:35.000Z</time>
</trkpt>
<trkpt lat="46.0090520" lon="9.4415000">
	<ele>1683.00</ele>
	<time>2023-07-15T07:20:38.000Z</time>
</trkpt>
<trkpt lat="46.0090290" lon="9.4415400">
	<ele>1683.80</ele>
	<time>2023-07-15T07:20:43.000Z</time>
</trkpt>
<trkpt lat="46.0090100" lon="9.4415850">
	<ele>1684.40</ele>
	<time>2023-07-15T07:20:47.000Z</time>
</trkpt>
<trkpt lat="46.0090070" lon="9.4415930">
	<ele>1684.80</ele>
	<time>2023-07-15T07:20:48.000Z</time>
</trkpt>
<trkpt lat="46.0089870" lon="9.4416330">
	<ele>1685.40</ele>
	<time>2023-07-15T07:20:53.000Z</time>
</trkpt>
<trkpt lat="46.0089860" lon="9.4416470">
	<ele>1685.60</ele>
	<time>2023-07-15T07:20:54.000Z</time>
</trkpt>
<trkpt lat="46.0089760" lon="9.4416620">
	<ele>1685.80</ele>
	<time>2023-07-15T07:20:56.000Z</time>
</trkpt>
<trkpt lat="46.0089580" lon="9.4416900">
	<ele>1686.40</ele>
	<time>2023-07-15T07:21:00.000Z</time>
</trkpt>
<trkpt lat="46.0089510" lon="9.4417030">
	<ele>1686.80</ele>
	<time>2023-07-15T07:21:02.000Z</time>
</trkpt>
<trkpt lat="46.0089480" lon="9.4417090">
	<ele>1687.00</ele>
	<time>2023-07-15T07:21:03.000Z</time>
</trkpt>
<trkpt lat="46.0089390" lon="9.4417210">
	<ele>1687.40</ele>
	<time>2023-07-15T07:21:05.000Z</time>
</trkpt>
<trkpt lat="46.0089310" lon="9.4417230">
	<ele>1687.80</ele>
	<time>2023-07-15T07:21:07.000Z</time>
</trkpt>
<trkpt lat="46.0089260" lon="9.4417240">
	<ele>1688.00</ele>
	<time>2023-07-15T07:21:08.000Z</time>
</trkpt>
<trkpt lat="46.0089230" lon="9.4417270">
	<ele>1688.00</ele>
	<time>2023-07-15T07:21:09.000Z</time>
</trkpt>
<trkpt lat="46.0089080" lon="9.4417460">
	<ele>1689.00</ele>
	<time>2023-07-15T07:21:14.000Z</time>
</trkpt>
<trkpt lat="46.0088920" lon="9.4417630">
	<ele>1689.80</ele>
	<time>2023-07-15T07:21:19.000Z</time>
</trkpt>
<trkpt lat="46.0088870" lon="9.4417680">
	<ele>1690.00</ele>
	<time>2023-07-15T07:21:20.000Z</time>
</trkpt>
<trkpt lat="46.0088660" lon="9.4418050">
	<ele>1691.20</ele>
	<time>2023-07-15T07:21:26.000Z</time>
</trkpt>
<trkpt lat="46.0088610" lon="9.4418110">
	<ele>1691.60</ele>
	<time>2023-07-15T07:21:28.000Z</time>
</trkpt>
<trkpt lat="46.0088400" lon="9.4418330">
	<ele>1692.40</ele>
	<time>2023-07-15T07:21:32.000Z</time>
</trkpt>
<trkpt lat="46.0088110" lon="9.4418640">
	<ele>1693.40</ele>
	<time>2023-07-15T07:21:38.000Z</time>
</trkpt>
<trkpt lat="46.0087900" lon="9.4419000">
	<ele>1694.40</ele>
	<time>2023-07-15T07:21:44.000Z</time>
</trkpt>
<trkpt lat="46.0087800" lon="9.4419180">
	<ele>1695.00</ele>
	<time>2023-07-15T07:21:47.000Z</time>
</trkpt>
<trkpt lat="46.0087680" lon="9.4419390">
	<ele>1695.60</ele>
	<time>2023-07-15T07:21:50.000Z</time>
</trkpt>
<trkpt lat="46.0087400" lon="9.4419710">
	<ele>1696.80</ele>
	<time>2023-07-15T07:21:56.000Z</time>
</trkpt>
<trkpt lat="46.0087220" lon="9.4419890">
	<ele>1697.20</ele>
	<time>2023-07-15T07:21:59.000Z</time>
</trkpt>
<trkpt lat="46.0087120" lon="9.4420060">
	<ele>1697.80</ele>
	<time>2023-07-15T07:22:02.000Z</time>
</trkpt>
<trkpt lat="46.0086720" lon="9.4420510">
	<ele>1699.20</ele>
	<time>2023-07-15T07:22:11.000Z</time>
</trkpt>
<trkpt lat="46.0086660" lon="9.4420570">
	<ele>1699.20</ele>
	<time>2023-07-15T07:22:12.000Z</time>
</trkpt>
<trkpt lat="46.0086470" lon="9.4420740">
	<ele>1700.40</ele>
	<time>2023-07-15T07:22:16.000Z</time>
</trkpt>
<trkpt lat="46.0086270" lon="9.4420980">
	<ele>1701.40</ele>
	<time>2023-07-15T07:22:21.000Z</time>
</trkpt>
<trkpt lat="46.0086120" lon="9.4421170">
	<ele>1702.00</ele>
	<time>2023-07-15T07:22:25.000Z</time>
</trkpt>
<trkpt lat="46.0086040" lon="9.4421260">
	<ele>1702.40</ele>
	<time>2023-07-15T07:22:29.000Z</time>
</trkpt>
<trkpt lat="46.0085910" lon="9.4421530">
	<ele>1703.60</ele>
	<time>2023-07-15T07:22:34.000Z</time>
</trkpt>
<trkpt lat="46.0085860" lon="9.4421950">
	<ele>1704.60</ele>
	<time>2023-07-15T07:22:40.000Z</time>
</trkpt>
<trkpt lat="46.0085840" lon="9.4421980">
	<ele>1704.80</ele>
	<time>2023-07-15T07:22:41.000Z</time>
</trkpt>
<trkpt lat="46.0085870" lon="9.4422320">
	<ele>1705.80</ele>
	<time>2023-07-15T07:22:46.000Z</time>
</trkpt>
<trkpt lat="46.0085880" lon="9.4422610">
	<ele>1706.40</ele>
	<time>2023-07-15T07:22:49.000Z</time>
</trkpt>
<trkpt lat="46.0085790" lon="9.4422790">
	<ele>1707.00</ele>
	<time>2023-07-15T07:22:52.000Z</time>
</trkpt>
<trkpt lat="46.0085620" lon="9.4423370">
	<ele>1708.00</ele>
	<time>2023-07-15T07:22:59.000Z</time>
</trkpt>
<trkpt lat="46.0085610" lon="9.4423440">
	<ele>1708.20</ele>
	<time>2023-07-15T07:23:00.000Z</time>
</trkpt>
<trkpt lat="46.0085590" lon="9.4424060">
	<ele>1709.00</ele>
	<time>2023-07-15T07:23:06.000Z</time>
</trkpt>
<trkpt lat="46.0085560" lon="9.4424170">
	<ele>1709.20</ele>
	<time>2023-07-15T07:23:07.000Z</time>
</trkpt>
<trkpt lat="46.0085410" lon="9.4424850">
	<ele>1710.00</ele>
	<time>2023-07-15T07:23:14.000Z</time>
</trkpt>
<trkpt lat="46.0085280" lon="9.4425200">
	<ele>1710.60</ele>
	<time>2023-07-15T07:23:19.000Z</time>
</trkpt>
<trkpt lat="46.0085270" lon="9.4425210">
	<ele>1711.00</ele>
	<time>2023-07-15T07:23:24.000Z</time>
</trkpt>
<trkpt lat="46.0085270" lon="9.4425220">
	<ele>1711.40</ele>
	<time>2023-07-15T07:23:26.000Z</time>
</trkpt>
<trkpt lat="46.0085250" lon="9.4425790">
	<ele>1712.40</ele>
	<time>2023-07-15T07:23:41.000Z</time>
</trkpt>
<trkpt lat="46.0085210" lon="9.4426390">
	<ele>1712.60</ele>
	<time>2023-07-15T07:23:44.000Z</time>
</trkpt>
<trkpt lat="46.0085070" lon="9.4427200">
	<ele>1713.40</ele>
	<time>2023-07-15T07:23:50.000Z</time>
</trkpt>
<trkpt lat="46.0085040" lon="9.4427380">
	<ele>1713.80</ele>
	<time>2023-07-15T07:23:52.000Z</time>
</trkpt>
<trkpt lat="46.0084880" lon="9.4427740">
	<ele>1714.40</ele>
	<time>2023-07-15T07:23:56.000Z</time>
</trkpt>
<trkpt lat="46.0084630" lon="9.4428220">
	<ele>1715.20</ele>
	<time>2023-07-15T07:24:01.000Z</time>
</trkpt>
<trkpt lat="46.0084580" lon="9.4428550">
	<ele>1715.60</ele>
	<time>2023-07-15T07:24:04.000Z</time>
</trkpt>
<trkpt lat="46.0084520" lon="9.4429140">
	<ele>1716.40</ele>
	<time>2023-07-15T07:24:09.000Z</time>
</trkpt>
<trkpt lat="46.0084420" lon="9.4429460">
	<ele>1716.80</ele>
	<time>2023-07-15T07:24:12.000Z</time>
</trkpt>
<trkpt lat="46.0084340" lon="9.4430060">
	<ele>1717.80</ele>
	<time>2023-07-15T07:24:18.000Z</time>
</trkpt>
<trkpt lat="46.0084320" lon="9.4430190">
	<ele>1717.80</ele>
	<time>2023-07-15T07:24:19.000Z</time>
</trkpt>
<trkpt lat="46.0084300" lon="9.4431490">
	<ele>1718.60</ele>
	<time>2023-07-15T07:24:29.000Z</time>
</trkpt>
<trkpt lat="46.0084380" lon="9.4432520">
	<ele>1718.80</ele>
	<time>2023-07-15T07:24:36.000Z</time>
</trkpt>
<trkpt lat="46.0084450" lon="9.4433470">
	<ele>1719.20</ele>
	<time>2023-07-15T07:24:43.000Z</time>
</trkpt>
<trkpt lat="46.0084720" lon="9.4434740">
	<ele>1719.00</ele>
	<time>2023-07-15T07:24:52.000Z</time>
</trkpt>
<trkpt lat="46.0084800" lon="9.4435020">
	<ele>1718.80</ele>
	<time>2023-07-15T07:24:54.000Z</time>
</trkpt>
<trkpt lat="46.0084800" lon="9.4436000">
	<ele>1719.20</ele>
	<time>2023-07-15T07:25:01.000Z</time>
</trkpt>
<trkpt lat="46.0084690" lon="9.4436790">
	<ele>1720.00</ele>
	<time>2023-07-15T07:25:08.000Z</time>
</trkpt>
<trkpt lat="46.0084630" lon="9.4437050">
	<ele>1720.20</ele>
	<time>2023-07-15T07:25:10.000Z</time>
</trkpt>
<trkpt lat="46.0084540" lon="9.4437750">
	<ele>1721.20</ele>
	<time>2023-07-15T07:25:16.000Z</time>
</trkpt>
<trkpt lat="46.0084540" lon="9.4438210">
	<ele>1721.60</ele>
	<time>2023-07-15T07:25:20.000Z</time>
</trkpt>
<trkpt lat="46.0084470" lon="9.4438160">
	<ele>1721.60</ele>
	<time>2023-07-15T07:25:23.000Z</time>
</trkpt>
<trkpt lat="46.0084460" lon="9.4438160">
	<ele>1721.80</ele>
	<time>2023-07-15T07:25:24.000Z</time>
</trkpt>
<trkpt lat="46.0084440" lon="9.4438150">
	<ele>1721.80</ele>
	<time>2023-07-15T07:25:26.000Z</time>
</trkpt>
<trkpt lat="46.0084460" lon="9.4438120">
	<ele>1722.00</ele>
	<time>2023-07-15T07:25:34.000Z</time>
</trkpt>
<trkpt lat="46.0084420" lon="9.4438150">
	<ele>1722.00</ele>
	<time>2023-07-15T07:25:50.000Z</time>
</trkpt>
<trkpt lat="46.0084410" lon="9.4438150">
	<ele>1722.00</ele>
	<time>2023-07-15T07:25:53.000Z</time>
</trkpt>
<trkpt lat="46.0084390" lon="9.4438150">
	<ele>1722.20</ele>
	<time>2023-07-15T07:25:55.000Z</time>
</trkpt>
<trkpt lat="46.0084380" lon="9.4438150">
	<ele>1722.20</ele>
	<time>2023-07-15T07:25:57.000Z</time>
</trkpt>
<trkpt lat="46.0084350" lon="9.4438150">
	<ele>1722.00</ele>
	<time>2023-07-15T07:26:06.000Z</time>
</trkpt>
<trkpt lat="46.0084320" lon="9.4438160">
	<ele>1721.60</ele>
	<time>2023-07-15T07:26:13.000Z</time>
</trkpt>
<trkpt lat="46.0084320" lon="9.4438160">
	<ele>1722.00</ele>
	<time>2023-07-15T07:26:17.000Z</time>
</trkpt>
<trkpt lat="46.0084320" lon="9.4438170">
	<ele>1722.00</ele>
	<time>2023-07-15T07:26:22.000Z</time>
</trkpt>
<trkpt lat="46.0084390" lon="9.4439120">
	<ele>1721.80</ele>
	<time>2023-07-15T07:26:30.000Z</time>
</trkpt>
<trkpt lat="46.0084370" lon="9.4439330">
	<ele>1721.80</ele>
	<time>2023-07-15T07:26:31.000Z</time>
</trkpt>
<trkpt lat="46.0084360" lon="9.4439800">
	<ele>1721.80</ele>
	<time>2023-07-15T07:26:33.000Z</time>
</trkpt>
<trkpt lat="46.0084330" lon="9.4440610">
	<ele>1722.00</ele>
	<time>2023-07-15T07:26:37.000Z</time>
</trkpt>
<trkpt lat="46.0084380" lon="9.4440780">
	<ele>1722.00</ele>
	<time>2023-07-15T07:26:38.000Z</time>
</trkpt>
<trkpt lat="46.0084460" lon="9.4441400">
	<ele>1722.60</ele>
	<time>2023-07-15T07:26:42.000Z</time>
</trkpt>
<trkpt lat="46.0084650" lon="9.4442130">
	<ele>1722.80</ele>
	<time>2023-07-15T07:26:47.000Z</time>
</trkpt>
<trkpt lat="46.0084620" lon="9.4442270">
	<ele>1722.20</ele>
	<time>2023-07-15T07:26:52.000Z</time>
</trkpt>
<trkpt lat="46.0084620" lon="9.4442270">
	<ele>1722.20</ele>
	<time>2023-07-15T07:26:53.000Z</time>
</trkpt>
<trkpt lat="46.0084710" lon="9.4443020">
	<ele>1722.80</ele>
	<time>2023-07-15T07:27:02.000Z</time>
</trkpt>
<trkpt lat="46.0085140" lon="9.4444120">
	<ele>1722.60</ele>
	<time>2023-07-15T07:27:10.000Z</time>
</trkpt>
<trkpt lat="46.0085390" lon="9.4444650">
	<ele>1722.40</ele>
	<time>2023-07-15T07:27:14.000Z</time>
</trkpt>
<trkpt lat="46.0085480" lon="9.4444740">
	<ele>1722.20</ele>
	<time>2023-07-15T07:27:17.000Z</time>
</trkpt>
<trkpt lat="46.0085470" lon="9.4444750">
	<ele>1722.60</ele>
	<time>2023-07-15T07:27:30.000Z</time>
</trkpt>
<trkpt lat="46.0085790" lon="9.4445290">
	<ele>1721.60</ele>
	<time>2023-07-15T07:27:35.000Z</time>
</trkpt>
<trkpt lat="46.0086130" lon="9.4445910">
	<ele>1721.20</ele>
	<time>2023-07-15T07:27:39.000Z</time>
</trkpt>
<trkpt lat="46.0086510" lon="9.4446540">
	<ele>1720.40</ele>
	<time>2023-07-15T07:27:44.000Z</time>
</trkpt>
<trkpt lat="46.0086630" lon="9.4446800">
	<ele>1720.20</ele>
	<time>2023-07-15T07:27:46.000Z</time>
</trkpt>
<trkpt lat="46.0087060" lon="9.4447850">
	<ele>1719.80</ele>
	<time>2023-07-15T07:27:54.000Z</time>
</trkpt>
<trkpt lat="46.0087100" lon="9.4448070">
	<ele>1720.00</ele>
	<time>2023-07-15T07:27:56.000Z</time>
</trkpt>
<trkpt lat="46.0087270" lon="9.4448790">
	<ele>1720.20</ele>
	<time>2023-07-15T07:28:02.000Z</time>
</trkpt>
<trkpt lat="46.0087330" lon="9.4449020">
	<ele>1720.40</ele>
	<time>2023-07-15T07:28:04.000Z</time>
</trkpt>
<trkpt lat="46.0087510" lon="9.4449640">
	<ele>1721.00</ele>
	<time>2023-07-15T07:28:10.000Z</time>
</trkpt>
<trkpt lat="46.0087510" lon="9.4449800">
	<ele>1721.20</ele>
	<time>2023-07-15T07:28:12.000Z</time>
</trkpt>
<trkpt lat="46.0087530" lon="9.4449960">
	<ele>1721.60</ele>
	<time>2023-07-15T07:28:14.000Z</time>
</trkpt>
<trkpt lat="46.0087580" lon="9.4450190">
	<ele>1722.20</ele>
	<time>2023-07-15T07:28:17.000Z</time>
</trkpt>
<trkpt lat="46.0087600" lon="9.4450340">
	<ele>1722.60</ele>
	<time>2023-07-15T07:28:19.000Z</time>
</trkpt>
<trkpt lat="46.0087620" lon="9.4450460">
	<ele>1723.00</ele>
	<time>2023-07-15T07:28:21.000Z</time>
</trkpt>
<trkpt lat="46.0087640" lon="9.4450600">
	<ele>1723.20</ele>
	<time>2023-07-15T07:28:23.000Z</time>
</trkpt>
<trkpt lat="46.0087640" lon="9.4450650">
	<ele>1723.60</ele>
	<time>2023-07-15T07:28:24.000Z</time>
</trkpt>
<trkpt lat="46.0087660" lon="9.4450750">
	<ele>1723.60</ele>
	<time>2023-07-15T07:28:25.000Z</time>
</trkpt>
<trkpt lat="46.0087730" lon="9.4451070">
	<ele>1724.00</ele>
	<time>2023-07-15T07:28:28.000Z</time>
</trkpt>
<trkpt lat="46.0087750" lon="9.4451170">
	<ele>1724.60</ele>
	<time>2023-07-15T07:28:30.000Z</time>
</trkpt>
<trkpt lat="46.0087880" lon="9.4451600">
	<ele>1725.40</ele>
	<time>2023-07-15T07:28:35.000Z</time>
</trkpt>
<trkpt lat="46.0087940" lon="9.4451810">
	<ele>1725.60</ele>
	<time>2023-07-15T07:28:37.000Z</time>
</trkpt>
<trkpt lat="46.0088200" lon="9.4452260">
	<ele>1726.60</ele>
	<time>2023-07-15T07:28:43.000Z</time>
</trkpt>
<trkpt lat="46.0088340" lon="9.4452460">
	<ele>1726.60</ele>
	<time>2023-07-15T07:28:45.000Z</time>
</trkpt>
<trkpt lat="46.0088420" lon="9.4452620">
	<ele>1727.20</ele>
	<time>2023-07-15T07:28:48.000Z</time>
</trkpt>
<trkpt lat="46.0088420" lon="9.4452840">
	<ele>1727.80</ele>
	<time>2023-07-15T07:28:51.000Z</time>
</trkpt>
<trkpt lat="46.0088550" lon="9.4453400">
	<ele>1728.80</ele>
	<time>2023-07-15T07:28:58.000Z</time>
</trkpt>
<trkpt lat="46.0088580" lon="9.4453440">
	<ele>1729.00</ele>
	<time>2023-07-15T07:28:59.000Z</time>
</trkpt>
<trkpt lat="46.0088600" lon="9.4453780">
	<ele>1729.80</ele>
	<time>2023-07-15T07:29:03.000Z</time>
</trkpt>
<trkpt lat="46.0088610" lon="9.4453960">
	<ele>1730.60</ele>
	<time>2023-07-15T07:29:06.000Z</time>
</trkpt>
<trkpt lat="46.0088680" lon="9.4454200">
	<ele>1731.00</ele>
	<time>2023-07-15T07:29:09.000Z</time>
</trkpt>
<trkpt lat="46.0088750" lon="9.4454610">
	<ele>1732.00</ele>
	<time>2023-07-15T07:29:14.000Z</time>
</trkpt>
<trkpt lat="46.0088790" lon="9.4454680">
	<ele>1732.20</ele>
	<time>2023-07-15T07:29:15.000Z</time>
</trkpt>
<trkpt lat="46.0088810" lon="9.4455020">
	<ele>1733.20</ele>
	<time>2023-07-15T07:29:20.000Z</time>
</trkpt>
<trkpt lat="46.0088800" lon="9.4455220">
	<ele>1733.80</ele>
	<time>2023-07-15T07:29:24.000Z</time>
</trkpt>
<trkpt lat="46.0088840" lon="9.4455480">
	<ele>1734.40</ele>
	<time>2023-07-15T07:29:27.000Z</time>
</trkpt>
<trkpt lat="46.0088970" lon="9.4455750">
	<ele>1735.00</ele>
	<time>2023-07-15T07:29:31.000Z</time>
</trkpt>
<trkpt lat="46.0089120" lon="9.4455870">
	<ele>1735.60</ele>
	<time>2023-07-15T07:29:35.000Z</time>
</trkpt>
<trkpt lat="46.0089270" lon="9.4456050">
	<ele>1736.00</ele>
	<time>2023-07-15T07:29:39.000Z</time>
</trkpt>
<trkpt lat="46.0089390" lon="9.4456210">
	<ele>1736.60</ele>
	<time>2023-07-15T07:29:43.000Z</time>
</trkpt>
<trkpt lat="46.0089510" lon="9.4456570">
	<ele>1737.60</ele>
	<time>2023-07-15T07:29:48.000Z</time>
</trkpt>
<trkpt lat="46.0089520" lon="9.4456610">
	<ele>1737.80</ele>
	<time>2023-07-15T07:29:49.000Z</time>
</trkpt>
<trkpt lat="46.0089740" lon="9.4456970">
	<ele>1738.80</ele>
	<time>2023-07-15T07:29:55.000Z</time>
</trkpt>
<trkpt lat="46.0089770" lon="9.4457010">
	<ele>1738.80</ele>
	<time>2023-07-15T07:29:56.000Z</time>
</trkpt>
<trkpt lat="46.0090060" lon="9.4457670">
	<ele>1740.00</ele>
	<time>2023-07-15T07:30:05.000Z</time>
</trkpt>
<trkpt lat="46.0090260" lon="9.4457950">
	<ele>1741.00</ele>
	<time>2023-07-15T07:30:11.000Z</time>
</trkpt>
<trkpt lat="46.0090300" lon="9.4458030">
	<ele>1741.20</ele>
	<time>2023-07-15T07:30:13.000Z</time>
</trkpt>
<trkpt lat="46.0090320" lon="9.4458260">
	<ele>1742.00</ele>
	<time>2023-07-15T07:30:18.000Z</time>
</trkpt>
<trkpt lat="46.0090410" lon="9.4458530">
	<ele>1742.40</ele>
	<time>2023-07-15T07:30:22.000Z</time>
</trkpt>
<trkpt lat="46.0090560" lon="9.4458740">
	<ele>1743.00</ele>
	<time>2023-07-15T07:30:26.000Z</time>
</trkpt>
<trkpt lat="46.0090690" lon="9.4459010">
	<ele>1744.00</ele>
	<time>2023-07-15T07:30:33.000Z</time>
</trkpt>
<trkpt lat="46.0090700" lon="9.4459020">
	<ele>1744.20</ele>
	<time>2023-07-15T07:30:34.000Z</time>
</trkpt>
<trkpt lat="46.0090940" lon="9.4459330">
	<ele>1745.40</ele>
	<time>2023-07-15T07:30:40.000Z</time>
</trkpt>
<trkpt lat="46.0091110" lon="9.4459550">
	<ele>1746.00</ele>
	<time>2023-07-15T07:30:46.000Z</time>
</trkpt>
<trkpt lat="46.0091190" lon="9.4459620">
	<ele>1746.40</ele>
	<time>2023-07-15T07:30:49.000Z</time>
</trkpt>
<trkpt lat="46.0091280" lon="9.4459720">
	<ele>1747.40</ele>
	<time>2023-07-15T07:30:54.000Z</time>
</trkpt>
<trkpt lat="46.0091300" lon="9.4459810">
	<ele>1747.60</ele>
	<time>2023-07-15T07:30:55.000Z</time>
</trkpt>
<trkpt lat="46.0091430" lon="9.4460000">
	<ele>1748.60</ele>
	<time>2023-07-15T07:30:59.000Z</time>
</trkpt>
<trkpt lat="46.0091480" lon="9.4460410">
	<ele>1749.00</ele>
	<time>2023-07-15T07:31:05.000Z</time>
</trkpt>
<trkpt lat="46.0091550" lon="9.4460640">
	<ele>1749.60</ele>
	<time>2023-07-15T07:31:08.000Z</time>
</trkpt>
<trkpt lat="46.0091620" lon="9.4460800">
	<ele>1750.60</ele>
	<time>2023-07-15T07:31:13.000Z</time>
</trkpt>
<trkpt lat="46.0091610" lon="9.4460810">
	<ele>1750.80</ele>
	<time>2023-07-15T07:31:14.000Z</time>
</trkpt>
<trkpt lat="46.0091570" lon="9.4461130">
	<ele>1752.00</ele>
	<time>2023-07-15T07:31:20.000Z</time>
</trkpt>
<trkpt lat="46.0091770" lon="9.4461390">
	<ele>1753.00</ele>
	<time>2023-07-15T07:31:26.000Z</time>
</trkpt>
<trkpt lat="46.0091870" lon="9.4461580">
	<ele>1753.40</ele>
	<time>2023-07-15T07:31:29.000Z</time>
</trkpt>
<trkpt lat="46.0092030" lon="9.4461810">
	<ele>1754.20</ele>
	<time>2023-07-15T07:31:33.000Z</time>
</trkpt>
<trkpt lat="46.0092090" lon="9.4462140">
	<ele>1754.60</ele>
	<time>2023-07-15T07:31:36.000Z</time>
</trkpt>
<trkpt lat="46.0092160" lon="9.4462320">
	<ele>1755.40</ele>
	<time>2023-07-15T07:31:39.000Z</time>
</trkpt>
<trkpt lat="46.0092160" lon="9.4462610">
	<ele>1756.20</ele>
	<time>2023-07-15T07:31:44.000Z</time>
</trkpt>
<trkpt lat="46.0092200" lon="9.4462760">
	<ele>1756.60</ele>
	<time>2023-07-15T07:31:46.000Z</time>
</trkpt>
<trkpt lat="46.0092420" lon="9.4463060">
	<ele>1757.60</ele>
	<time>2023-07-15T07:31:52.000Z</time>
</trkpt>
<trkpt lat="46.0092420" lon="9.4463180">
	<ele>1757.80</ele>
	<time>2023-07-15T07:31:53.000Z</time>
</trkpt>
<trkpt lat="46.0092420" lon="9.4463670">
	<ele>1758.80</ele>
	<time>2023-07-15T07:32:00.000Z</time>
</trkpt>
<trkpt lat="46.0092470" lon="9.4463940">
	<ele>1759.60</ele>
	<time>2023-07-15T07:32:05.000Z</time>
</trkpt>
<trkpt lat="46.0092500" lon="9.4464220">
	<ele>1759.80</ele>
	<time>2023-07-15T07:32:08.000Z</time>
</trkpt>
<trkpt lat="46.0092440" lon="9.4464400">
	<ele>1760.40</ele>
	<time>2023-07-15T07:32:12.000Z</time>
</trkpt>
<trkpt lat="46.0092410" lon="9.4464610">
	<ele>1761.00</ele>
	<time>2023-07-15T07:32:15.000Z</time>
</trkpt>
<trkpt lat="46.0092420" lon="9.4464810">
	<ele>1761.20</ele>
	<time>2023-07-15T07:32:18.000Z</time>
</trkpt>
<trkpt lat="46.0092390" lon="9.4465230">
	<ele>1762.00</ele>
	<time>2023-07-15T07:32:23.000Z</time>
</trkpt>
<trkpt lat="46.0092340" lon="9.4465400">
	<ele>1762.60</ele>
	<time>2023-07-15T07:32:27.000Z</time>
</trkpt>
<trkpt lat="46.0092320" lon="9.4465440">
	<ele>1763.00</ele>
	<time>2023-07-15T07:32:48.000Z</time>
</trkpt>
<trkpt lat="46.0092280" lon="9.4465440">
	<ele>1763.00</ele>
	<time>2023-07-15T07:32:57.000Z</time>
</trkpt>
<trkpt lat="46.0092280" lon="9.4465440">
	<ele>1763.00</ele>
	<time>2023-07-15T07:32:58.000Z</time>
</trkpt>
<trkpt lat="46.0092240" lon="9.4465410">
	<ele>1763.00</ele>
	<time>2023-07-15T07:33:05.000Z</time>
</trkpt>
<trkpt lat="46.0092250" lon="9.4465500">
	<ele>1763.60</ele>
	<time>2023-07-15T07:33:17.000Z</time>
</trkpt>
<trkpt lat="46.0092340" lon="9.4466190">
	<ele>1764.20</ele>
	<time>2023-07-15T07:33:21.000Z</time>
</trkpt>
<trkpt lat="46.0092490" lon="9.4467070">
	<ele>1764.80</ele>
	<time>2023-07-15T07:33:26.000Z</time>
</trkpt>
<trkpt lat="46.0092500" lon="9.4467210">
	<ele>1765.20</ele>
	<time>2023-07-15T07:33:28.000Z</time>
</trkpt>
<trkpt lat="46.0092480" lon="9.4467810">
	<ele>1766.60</ele>
	<time>2023-07-15T07:33:34.000Z</time>
</trkpt>
<trkpt lat="46.0092490" lon="9.4467950">
	<ele>1766.80</ele>
	<time>2023-07-15T07:33:36.000Z</time>
</trkpt>
<trkpt lat="46.0092470" lon="9.4468080">
	<ele>1767.60</ele>
	<time>2023-07-15T07:33:39.000Z</time>
</trkpt>
<trkpt lat="46.0092590" lon="9.4468500">
	<ele>1768.80</ele>
	<time>2023-07-15T07:33:45.000Z</time>
</trkpt>
<trkpt lat="46.0092840" lon="9.4468790">
	<ele>1769.60</ele>
	<time>2023-07-15T07:33:51.000Z</time>
</trkpt>
<trkpt lat="46.0092850" lon="9.4468870">
	<ele>1769.80</ele>
	<time>2023-07-15T07:33:53.000Z</time>
</trkpt>
<trkpt lat="46.0092830" lon="9.4469350">
	<ele>1771.00</ele>
	<time>2023-07-15T07:33:59.000Z</time>
</trkpt>
<trkpt lat="46.0092800" lon="9.4469720">
	<ele>1771.40</ele>
	<time>2023-07-15T07:34:03.000Z</time>
</trkpt>
<trkpt lat="46.0092830" lon="9.4469920">
	<ele>1772.20</ele>
	<time>2023-07-15T07:34:06.000Z</time>
</trkpt>
<trkpt lat="46.0092860" lon="9.4470230">
	<ele>1773.20</ele>
	<time>2023-07-15T07:34:12.000Z</time>
</trkpt>
<trkpt lat="46.0092900" lon="9.4470300">
	<ele>1773.60</ele>
	<time>2023-07-15T07:34:15.000Z</time>
</trkpt>
<trkpt lat="46.0092890" lon="9.4470610">
	<ele>1774.40</ele>
	<time>2023-07-15T07:34:20.000Z</time>
</trkpt>
<trkpt lat="46.0092900" lon="9.4470690">
	<ele>1774.60</ele>
	<time>2023-07-15T07:34:21.000Z</time>
</trkpt>
<trkpt lat="46.0092920" lon="9.4470910">
	<ele>1775.40</ele>
	<time>2023-07-15T07:34:26.000Z</time>
</trkpt>
<trkpt lat="46.0092900" lon="9.4471070">
	<ele>1776.00</ele>
	<time>2023-07-15T07:34:30.000Z</time>
</trkpt>
<trkpt lat="46.0092960" lon="9.4471220">
	<ele>1776.60</ele>
	<time>2023-07-15T07:34:33.000Z</time>
</trkpt>
<trkpt lat="46.0093010" lon="9.4471550">
	<ele>1777.60</ele>
	<time>2023-07-15T07:34:38.000Z</time>
</trkpt>
<trkpt lat="46.0093010" lon="9.4471600">
	<ele>1777.80</ele>
	<time>2023-07-15T07:34:39.000Z</time>
</trkpt>
<trkpt lat="46.0093000" lon="9.4471870">
	<ele>1778.40</ele>
	<time>2023-07-15T07:34:45.000Z</time>
</trkpt>
<trkpt lat="46.0092990" lon="9.4471990">
	<ele>1779.00</ele>
	<time>2023-07-15T07:34:48.000Z</time>
</trkpt>
<trkpt lat="46.0092950" lon="9.4472100">
	<ele>1779.80</ele>
	<time>2023-07-15T07:34:54.000Z</time>
</trkpt>
<trkpt lat="46.0092950" lon="9.4472120">
	<ele>1780.00</ele>
	<time>2023-07-15T07:34:55.000Z</time>
</trkpt>
<trkpt lat="46.0092940" lon="9.4472490">
	<ele>1781.20</ele>
	<time>2023-07-15T07:35:02.000Z</time>
</trkpt>
<trkpt lat="46.0092900" lon="9.4473000">
	<ele>1782.20</ele>
	<time>2023-07-15T07:35:10.000Z</time>
</trkpt>
<trkpt lat="46.0092870" lon="9.4473060">
	<ele>1782.60</ele>
	<time>2023-07-15T07:35:11.000Z</time>
</trkpt>
<trkpt lat="46.0092850" lon="9.4473150">
	<ele>1783.20</ele>
	<time>2023-07-15T07:35:14.000Z</time>
</trkpt>
<trkpt lat="46.0092880" lon="9.4473280">
	<ele>1783.80</ele>
	<time>2023-07-15T07:35:18.000Z</time>
</trkpt>
<trkpt lat="46.0092840" lon="9.4473470">
	<ele>1784.40</ele>
	<time>2023-07-15T07:35:22.000Z</time>
</trkpt>
<trkpt lat="46.0092790" lon="9.4473730">
	<ele>1785.20</ele>
	<time>2023-07-15T07:35:27.000Z</time>
</trkpt>
<trkpt lat="46.0092780" lon="9.4473840">
	<ele>1785.60</ele>
	<time>2023-07-15T07:35:30.000Z</time>
</trkpt>
<trkpt lat="46.0092740" lon="9.4473990">
	<ele>1786.80</ele>
	<time>2023-07-15T07:35:35.000Z</time>
</trkpt>
<trkpt lat="46.0092630" lon="9.4474410">
	<ele>1787.60</ele>
	<time>2023-07-15T07:35:43.000Z</time>
</trkpt>
<trkpt lat="46.0092630" lon="9.4474440">
	<ele>1787.80</ele>
	<time>2023-07-15T07:35:44.000Z</time>
</trkpt>
<trkpt lat="46.0092590" lon="9.4474620">
	<ele>1789.00</ele>
	<time>2023-07-15T07:35:51.000Z</time>
</trkpt>
<trkpt lat="46.0092600" lon="9.4474860">
	<ele>1790.20</ele>
	<time>2023-07-15T07:35:57.000Z</time>
</trkpt>
<trkpt lat="46.0092610" lon="9.4474870">
	<ele>1790.40</ele>
	<time>2023-07-15T07:36:00.000Z</time>
</trkpt>
<trkpt lat="46.0092610" lon="9.4474870">
	<ele>1791.20</ele>
	<time>2023-07-15T07:36:04.000Z</time>
</trkpt>
<trkpt lat="46.0092600" lon="9.4474870">
	<ele>1792.20</ele>
	<time>2023-07-15T07:36:11.000Z</time>
</trkpt>
<trkpt lat="46.0092530" lon="9.4474950">
	<ele>1793.20</ele>
	<time>2023-07-15T07:36:17.000Z</time>
</trkpt>
<trkpt lat="46.0092470" lon="9.4475440">
	<ele>1794.40</ele>
	<time>2023-07-15T07:36:25.000Z</time>
</trkpt>
<trkpt lat="46.0092450" lon="9.4475840">
	<ele>1795.40</ele>
	<time>2023-07-15T07:36:33.000Z</time>
</trkpt>
<trkpt lat="46.0092430" lon="9.4476280">
	<ele>1796.60</ele>
	<time>2023-07-15T07:36:41.000Z</time>
</trkpt>
<trkpt lat="46.0092370" lon="9.4476700">
	<ele>1797.60</ele>
	<time>2023-07-15T07:36:48.000Z</time>
</trkpt>
<trkpt lat="46.0092350" lon="9.4477170">
	<ele>1798.60</ele>
	<time>2023-07-15T07:36:55.000Z</time>
</trkpt>
<trkpt lat="46.0092330" lon="9.4477510">
	<ele>1799.60</ele>
	<time>2023-07-15T07:37:01.000Z</time>
</trkpt>
<trkpt lat="46.0091840" lon="9.4478140">
	<ele>1800.00</ele>
	<time>2023-07-15T07:37:24.000Z</time>
</trkpt>
<trkpt lat="46.0091540" lon="9.4477850">
	<ele>1799.40</ele>
	<time>2023-07-15T07:37:32.000Z</time>
</trkpt>
<trkpt lat="46.0091400" lon="9.4477640">
	<ele>1799.40</ele>
	<time>2023-07-15T07:37:40.000Z</time>
</trkpt>
<trkpt lat="46.0091400" lon="9.4477640">
	<ele>1799.40</ele>
	<time>2023-07-15T07:37:47.000Z</time>
</trkpt>
<trkpt lat="46.0091430" lon="9.4477680">
	<ele>1799.80</ele>
	<time>2023-07-15T07:37:56.000Z</time>
</trkpt>
<trkpt lat="46.0091470" lon="9.4477750">
	<ele>1800.20</ele>
	<time>2023-07-15T07:38:01.000Z</time>
</trkpt>
<trkpt lat="46.0091540" lon="9.4477810">
	<ele>1800.00</ele>
	<time>2023-07-15T07:38:07.000Z</time>
</trkpt>
<trkpt lat="46.0091780" lon="9.4478100">
	<ele>1800.00</ele>
	<time>2023-07-15T07:38:14.000Z</time>
</trkpt>
<trkpt lat="46.0092120" lon="9.4478450">
	<ele>1800.00</ele>
	<time>2023-07-15T07:38:29.000Z</time>
</trkpt>
<trkpt lat="46.0092130" lon="9.4478460">
	<ele>1800.00</ele>
	<time>2023-07-15T07:38:32.000Z</time>
</trkpt>
<trkpt lat="46.0092130" lon="9.4478470">
	<ele>1800.00</ele>
	<time>2023-07-15T07:38:35.000Z</time>
</trkpt>
<trkpt lat="46.0092150" lon="9.4478500">
	<ele>1800.00</ele>
	<time>2023-07-15T07:38:41.000Z</time>
</trkpt>
<trkpt lat="46.0092820" lon="9.4479060">
	<ele>1800.00</ele>
	<time>2023-07-15T07:39:01.000Z</time>
</trkpt>
<trkpt lat="46.0093940" lon="9.4479650">
	<ele>1800.00</ele>
	<time>2023-07-15T07:39:09.000Z</time>
</trkpt>
<trkpt lat="46.0094030" lon="9.4479700">
	<ele>1800.00</ele>
	<time>2023-07-15T07:39:10.000Z</time>
</trkpt>
<trkpt lat="46.0094280" lon="9.4479860">
	<ele>1800.20</ele>
	<time>2023-07-15T07:39:13.000Z</time>
</trkpt>
<trkpt lat="46.0094710" lon="9.4480070">
	<ele>1800.20</ele>
	<time>2023-07-15T07:39:18.000Z</time>
</trkpt>
<trkpt lat="46.0095280" lon="9.4480340">
	<ele>1800.60</ele>
	<time>2023-07-15T07:39:24.000Z</time>
</trkpt>
<trkpt lat="46.0095760" lon="9.4480460">
	<ele>1800.80</ele>
	<time>2023-07-15T07:39:29.000Z</time>
</trkpt>
<trkpt lat="46.0096410" lon="9.4480710">
	<ele>1800.40</ele>
	<time>2023-07-15T07:39:35.000Z</time>
</trkpt>
<trkpt lat="46.0096730" lon="9.4480860">
	<ele>1800.40</ele>
	<time>2023-07-15T07:39:38.000Z</time>
</trkpt>
<trkpt lat="46.0096990" lon="9.4481010">
	<ele>1800.60</ele>
	<time>2023-07-15T07:39:42.000Z</time>
</trkpt>
<trkpt lat="46.0097020" lon="9.4481010">
	<ele>1800.60</ele>
	<time>2023-07-15T07:39:43.000Z</time>
</trkpt>
<trkpt lat="46.0097130" lon="9.4481060">
	<ele>1800.60</ele>
	<time>2023-07-15T07:39:45.000Z</time>
</trkpt>
<trkpt lat="46.0097240" lon="9.4481120">
	<ele>1800.40</ele>
	<time>2023-07-15T07:39:47.000Z</time>
</trkpt>
<trkpt lat="46.0097430" lon="9.4481180">
	<ele>1800.40</ele>
	<time>2023-07-15T07:39:49.000Z</time>
</trkpt>
<trkpt lat="46.0097600" lon="9.4481220">
	<ele>1800.40</ele>
	<time>2023-07-15T07:39:51.000Z</time>
</trkpt>
<trkpt lat="46.0098610" lon="9.4481950">
	<ele>1801.60</ele>
	<time>2023-07-15T07:40:01.000Z</time>
</trkpt>
<trkpt lat="46.0098750" lon="9.4482110">
	<ele>1801.80</ele>
	<time>2023-07-15T07:40:03.000Z</time>
</trkpt>
<trkpt lat="46.0099090" lon="9.4482410">
	<ele>1802.40</ele>
	<time>2023-07-15T07:40:07.000Z</time>
</trkpt>
<trkpt lat="46.0099290" lon="9.4482600">
	<ele>1802.80</ele>
	<time>2023-07-15T07:40:10.000Z</time>
</trkpt>
<trkpt lat="46.0099620" lon="9.4482820">
	<ele>1803.00</ele>
	<time>2023-07-15T07:40:13.000Z</time>
</trkpt>
<trkpt lat="46.0100310" lon="9.4483230">
	<ele>1804.00</ele>
	<time>2023-07-15T07:40:21.000Z</time>
</trkpt>
<trkpt lat="46.0100620" lon="9.4483370">
	<ele>1804.20</ele>
	<time>2023-07-15T07:40:24.000Z</time>
</trkpt>
<trkpt lat="46.0101380" lon="9.4483750">
	<ele>1805.00</ele>
	<time>2023-07-15T07:40:32.000Z</time>
</trkpt>
<trkpt lat="46.0101760" lon="9.4484050">
	<ele>1805.80</ele>
	<time>2023-07-15T07:40:36.000Z</time>
</trkpt>
<trkpt lat="46.0101920" lon="9.4484180">
	<ele>1806.20</ele>
	<time>2023-07-15T07:40:38.000Z</time>
</trkpt>
<trkpt lat="46.0102180" lon="9.4484310">
	<ele>1806.60</ele>
	<time>2023-07-15T07:40:41.000Z</time>
</trkpt>
<trkpt lat="46.0102460" lon="9.4484360">
	<ele>1807.00</ele>
	<time>2023-07-15T07:40:44.000Z</time>
</trkpt>
<trkpt lat="46.0102540" lon="9.4484400">
	<ele>1807.20</ele>
	<time>2023-07-15T07:40:45.000Z</time>
</trkpt>
<trkpt lat="46.0102640" lon="9.4484440">
	<ele>1807.40</ele>
	<time>2023-07-15T07:40:46.000Z</time>
</trkpt>
<trkpt lat="46.0103260" lon="9.4484660">
	<ele>1808.20</ele>
	<time>2023-07-15T07:40:52.000Z</time>
</trkpt>
<trkpt lat="46.0103780" lon="9.4484840">
	<ele>1808.60</ele>
	<time>2023-07-15T07:40:57.000Z</time>
</trkpt>
<trkpt lat="46.0104060" lon="9.4484950">
	<ele>1808.60</ele>
	<time>2023-07-15T07:41:00.000Z</time>
</trkpt>
<trkpt lat="46.0104520" lon="9.4485240">
	<ele>1809.20</ele>
	<time>2023-07-15T07:41:05.000Z</time>
</trkpt>
<trkpt lat="46.0104950" lon="9.4485490">
	<ele>1809.80</ele>
	<time>2023-07-15T07:41:10.000Z</time>
</trkpt>
<trkpt lat="46.0105630" lon="9.4485650">
	<ele>1810.40</ele>
	<time>2023-07-15T07:41:17.000Z</time>
</trkpt>
<trkpt lat="46.0105810" lon="9.4485690">
	<ele>1810.80</ele>
	<time>2023-07-15T07:41:19.000Z</time>
</trkpt>
<trkpt lat="46.0106300" lon="9.4485790">
	<ele>1811.40</ele>
	<time>2023-07-15T07:41:24.000Z</time>
</trkpt>
<trkpt lat="46.0106740" lon="9.4485840">
	<ele>1811.80</ele>
	<time>2023-07-15T07:41:29.000Z</time>
</trkpt>
<trkpt lat="46.0107570" lon="9.4485650">
	<ele>1811.40</ele>
	<time>2023-07-15T07:41:37.000Z</time>
</trkpt>
<trkpt lat="46.0107940" lon="9.4485420">
	<ele>1811.60</ele>
	<time>2023-07-15T07:41:41.000Z</time>
</trkpt>
<trkpt lat="46.0108230" lon="9.4485020">
	<ele>1812.00</ele>
	<time>2023-07-15T07:41:45.000Z</time>
</trkpt>
<trkpt lat="46.0108550" lon="9.4484920">
	<ele>1812.60</ele>
	<time>2023-07-15T07:41:49.000Z</time>
</trkpt>
<trkpt lat="46.0108940" lon="9.4484650">
	<ele>1813.20</ele>
	<time>2023-07-15T07:41:54.000Z</time>
</trkpt>
<trkpt lat="46.0109570" lon="9.4484480">
	<ele>1813.60</ele>
	<time>2023-07-15T07:42:01.000Z</time>
</trkpt>
<trkpt lat="46.0109750" lon="9.4484530">
	<ele>1813.60</ele>
	<time>2023-07-15T07:42:03.000Z</time>
</trkpt>
<trkpt lat="46.0110310" lon="9.4484510">
	<ele>1812.60</ele>
	<time>2023-07-15T07:42:09.000Z</time>
</trkpt>
<trkpt lat="46.0110500" lon="9.4484490">
	<ele>1812.40</ele>
	<time>2023-07-15T07:42:11.000Z</time>
</trkpt>
<trkpt lat="46.0110800" lon="9.4484540">
	<ele>1811.60</ele>
	<time>2023-07-15T07:42:15.000Z</time>
</trkpt>
<trkpt lat="46.0111430" lon="9.4484450">
	<ele>1810.40</ele>
	<time>2023-07-15T07:42:22.000Z</time>
</trkpt>
<trkpt lat="46.0111570" lon="9.4484470">
	<ele>1810.20</ele>
	<time>2023-07-15T07:42:23.000Z</time>
</trkpt>
<trkpt lat="46.0112050" lon="9.4484680">
	<ele>1809.40</ele>
	<time>2023-07-15T07:42:28.000Z</time>
</trkpt>
<trkpt lat="46.0112350" lon="9.4484770">
	<ele>1809.00</ele>
	<time>2023-07-15T07:42:31.000Z</time>
</trkpt>
<trkpt lat="46.0112540" lon="9.4484830">
	<ele>1808.40</ele>
	<time>2023-07-15T07:42:34.000Z</time>
</trkpt>
<trkpt lat="46.0112570" lon="9.4484840">
	<ele>1808.40</ele>
	<time>2023-07-15T07:42:35.000Z</time>
</trkpt>
<trkpt lat="46.0112620" lon="9.4484860">
	<ele>1808.20</ele>
	<time>2023-07-15T07:42:36.000Z</time>
</trkpt>
<trkpt lat="46.0112970" lon="9.4484950">
	<ele>1807.60</ele>
	<time>2023-07-15T07:42:41.000Z</time>
</trkpt>
<trkpt lat="46.0113040" lon="9.4484960">
	<ele>1807.40</ele>
	<time>2023-07-15T07:42:42.000Z</time>
</trkpt>
<trkpt lat="46.0113120" lon="9.4485000">
	<ele>1807.20</ele>
	<time>2023-07-15T07:42:43.000Z</time>
</trkpt>
<trkpt lat="46.0113500" lon="9.4485100">
	<ele>1806.20</ele>
	<time>2023-07-15T07:42:48.000Z</time>
</trkpt>
<trkpt lat="46.0113810" lon="9.4485100">
	<ele>1805.20</ele>
	<time>2023-07-15T07:42:52.000Z</time>
</trkpt>
<trkpt lat="46.0113880" lon="9.4485070">
	<ele>1805.00</ele>
	<time>2023-07-15T07:42:53.000Z</time>
</trkpt>
<trkpt lat="46.0114250" lon="9.4485210">
	<ele>1803.80</ele>
	<time>2023-07-15T07:42:58.000Z</time>
</trkpt>
<trkpt lat="46.0114310" lon="9.4485220">
	<ele>1803.60</ele>
	<time>2023-07-15T07:42:59.000Z</time>
</trkpt>
<trkpt lat="46.0114540" lon="9.4485220">
	<ele>1802.80</ele>
	<time>2023-07-15T07:43:02.000Z</time>
</trkpt>
<trkpt lat="46.0114980" lon="9.4485280">
	<ele>1801.80</ele>
	<time>2023-07-15T07:43:08.000Z</time>
</trkpt>
<trkpt lat="46.0115050" lon="9.4485290">
	<ele>1801.40</ele>
	<time>2023-07-15T07:43:09.000Z</time>
</trkpt>
<trkpt lat="46.0115490" lon="9.4485530">
	<ele>1800.40</ele>
	<time>2023-07-15T07:43:14.000Z</time>
</trkpt>
<trkpt lat="46.0115700" lon="9.4485570">
	<ele>1800.20</ele>
	<time>2023-07-15T07:43:16.000Z</time>
</trkpt>
<trkpt lat="46.0115900" lon="9.4485570">
	<ele>1799.60</ele>
	<time>2023-07-15T07:43:20.000Z</time>
</trkpt>
<trkpt lat="46.0116030" lon="9.4485520">
	<ele>1799.20</ele>
	<time>2023-07-15T07:43:22.000Z</time>
</trkpt>
<trkpt lat="46.0116100" lon="9.4485510">
	<ele>1799.00</ele>
	<time>2023-07-15T07:43:23.000Z</time>
</trkpt>
<trkpt lat="46.0116220" lon="9.4485530">
	<ele>1799.00</ele>
	<time>2023-07-15T07:43:24.000Z</time>
</trkpt>
<trkpt lat="46.0116350" lon="9.4485600">
	<ele>1798.80</ele>
	<time>2023-07-15T07:43:26.000Z</time>
</trkpt>
<trkpt lat="46.0116380" lon="9.4485600">
	<ele>1798.40</ele>
	<time>2023-07-15T07:43:28.000Z</time>
</trkpt>
<trkpt lat="46.0116360" lon="9.4485610">
	<ele>1798.20</ele>
	<time>2023-07-15T07:43:29.000Z</time>
</trkpt>
<trkpt lat="46.0116340" lon="9.4485620">
	<ele>1798.00</ele>
	<time>2023-07-15T07:43:30.000Z</time>
</trkpt>
<trkpt lat="46.0116360" lon="9.4485630">
	<ele>1798.00</ele>
	<time>2023-07-15T07:43:38.000Z</time>
</trkpt>
<trkpt lat="46.0116930" lon="9.4485590">
	<ele>1797.80</ele>
	<time>2023-07-15T07:43:46.000Z</time>
</trkpt>
<trkpt lat="46.0117450" lon="9.4485730">
	<ele>1797.00</ele>
	<time>2023-07-15T07:43:52.000Z</time>
</trkpt>
<trkpt lat="46.0117850" lon="9.4485960">
	<ele>1796.40</ele>
	<time>2023-07-15T07:43:57.000Z</time>
</trkpt>
<trkpt lat="46.0118050" lon="9.4485940">
	<ele>1796.00</ele>
	<time>2023-07-15T07:44:00.000Z</time>
</trkpt>
<trkpt lat="46.0118590" lon="9.4486250">
	<ele>1795.60</ele>
	<time>2023-07-15T07:44:05.000Z</time>
</trkpt>
<trkpt lat="46.0118820" lon="9.4486510">
	<ele>1795.00</ele>
	<time>2023-07-15T07:44:10.000Z</time>
</trkpt>
<trkpt lat="46.0118840" lon="9.4486640">
	<ele>1794.80</ele>
	<time>2023-07-15T07:44:12.000Z</time>
</trkpt>
<trkpt lat="46.0118900" lon="9.4486680">
	<ele>1795.00</ele>
	<time>2023-07-15T07:44:20.000Z</time>
</trkpt>
<trkpt lat="46.0118890" lon="9.4486680">
	<ele>1794.80</ele>
	<time>2023-07-15T07:44:35.000Z</time>
</trkpt>
<trkpt lat="46.0118800" lon="9.4486870">
	<ele>1794.40</ele>
	<time>2023-07-15T07:45:01.000Z</time>
</trkpt>
<trkpt lat="46.0118940" lon="9.4487630">
	<ele>1794.20</ele>
	<time>2023-07-15T07:45:05.000Z</time>
</trkpt>
<trkpt lat="46.0119030" lon="9.4488340">
	<ele>1794.00</ele>
	<time>2023-07-15T07:45:08.000Z</time>
</trkpt>
<trkpt lat="46.0119080" lon="9.4488840">
	<ele>1793.60</ele>
	<time>2023-07-15T07:45:11.000Z</time>
</trkpt>
<trkpt lat="46.0119070" lon="9.4488950">
	<ele>1793.40</ele>
	<time>2023-07-15T07:45:12.000Z</time>
</trkpt>
<trkpt lat="46.0119090" lon="9.4489110">
	<ele>1793.40</ele>
	<time>2023-07-15T07:45:13.000Z</time>
</trkpt>
<trkpt lat="46.0119370" lon="9.4490060">
	<ele>1793.00</ele>
	<time>2023-07-15T07:45:20.000Z</time>
</trkpt>
<trkpt lat="46.0119440" lon="9.4490220">
	<ele>1792.80</ele>
	<time>2023-07-15T07:45:21.000Z</time>
</trkpt>
<trkpt lat="46.0119570" lon="9.4491400">
	<ele>1792.40</ele>
	<time>2023-07-15T07:45:29.000Z</time>
</trkpt>
<trkpt lat="46.0119560" lon="9.4491650">
	<ele>1792.60</ele>
	<time>2023-07-15T07:45:31.000Z</time>
</trkpt>
<trkpt lat="46.0119680" lon="9.4492430">
	<ele>1792.40</ele>
	<time>2023-07-15T07:45:36.000Z</time>
</trkpt>
<trkpt lat="46.0119890" lon="9.4493310">
	<ele>1792.00</ele>
	<time>2023-07-15T07:45:42.000Z</time>
</trkpt>
<trkpt lat="46.0119890" lon="9.4493410">
	<ele>1791.60</ele>
	<time>2023-07-15T07:45:44.000Z</time>
</trkpt>
<trkpt lat="46.0119860" lon="9.4493430">
	<ele>1791.60</ele>
	<time>2023-07-15T07:45:45.000Z</time>
</trkpt>
<trkpt lat="46.0119850" lon="9.4493490">
	<ele>1791.40</ele>
	<time>2023-07-15T07:45:47.000Z</time>
</trkpt>
<trkpt lat="46.0119850" lon="9.4493520">
	<ele>1791.40</ele>
	<time>2023-07-15T07:45:48.000Z</time>
</trkpt>
<trkpt lat="46.0119840" lon="9.4493520">
	<ele>1792.00</ele>
	<time>2023-07-15T07:45:54.000Z</time>
</trkpt>
<trkpt lat="46.0119840" lon="9.4493520">
	<ele>1792.00</ele>
	<time>2023-07-15T07:45:57.000Z</time>
</trkpt>
<trkpt lat="46.0119840" lon="9.4493520">
	<ele>1792.00</ele>
	<time>2023-07-15T07:46:01.000Z</time>
</trkpt>
<trkpt lat="46.0119840" lon="9.4493520">
	<ele>1792.20</ele>
	<time>2023-07-15T07:46:04.000Z</time>
</trkpt>
<trkpt lat="46.0119840" lon="9.4493520">
	<ele>1792.00</ele>
	<time>2023-07-15T07:46:06.000Z</time>
</trkpt>
<trkpt lat="46.0119940" lon="9.4493730">
	<ele>1791.60</ele>
	<time>2023-07-15T07:46:08.000Z</time>
</trkpt>
<trkpt lat="46.0120260" lon="9.4494280">
	<ele>1791.20</ele>
	<time>2023-07-15T07:46:11.000Z</time>
</trkpt>
<trkpt lat="46.0120680" lon="9.4495220">
	<ele>1790.60</ele>
	<time>2023-07-15T07:46:16.000Z</time>
</trkpt>
<trkpt lat="46.0120850" lon="9.4495460">
	<ele>1790.60</ele>
	<time>2023-07-15T07:46:18.000Z</time>
</trkpt>
<trkpt lat="46.0121600" lon="9.4496350">
	<ele>1789.60</ele>
	<time>2023-07-15T07:46:25.000Z</time>
</trkpt>
<trkpt lat="46.0121860" lon="9.4496780">
	<ele>1789.20</ele>
	<time>2023-07-15T07:46:28.000Z</time>
</trkpt>
<trkpt lat="46.0122390" lon="9.4497540">
	<ele>1788.60</ele>
	<time>2023-07-15T07:46:34.000Z</time>
</trkpt>
<trkpt lat="46.0122470" lon="9.4497680">
	<ele>1788.40</ele>
	<time>2023-07-15T07:46:35.000Z</time>
</trkpt>
<trkpt lat="46.0123020" lon="9.4499060">
	<ele>1788.20</ele>
	<time>2023-07-15T07:46:45.000Z</time>
</trkpt>
<trkpt lat="46.0123700" lon="9.4500320">
	<ele>1788.40</ele>
	<time>2023-07-15T07:46:54.000Z</time>
</trkpt>
<trkpt lat="46.0124050" lon="9.4500950">
	<ele>1788.20</ele>
	<time>2023-07-15T07:46:59.000Z</time>
</trkpt>
<trkpt lat="46.0124300" lon="9.4501640">
	<ele>1788.20</ele>
	<time>2023-07-15T07:47:03.000Z</time>
</trkpt>
<trkpt lat="46.0124400" lon="9.4501740">
	<ele>1788.00</ele>
	<time>2023-07-15T07:47:04.000Z</time>
</trkpt>
<trkpt lat="46.0124600" lon="9.4502450">
	<ele>1788.00</ele>
	<time>2023-07-15T07:47:09.000Z</time>
</trkpt>
<trkpt lat="46.0125360" lon="9.4504050">
	<ele>1788.00</ele>
	<time>2023-07-15T07:47:20.000Z</time>
</trkpt>
<trkpt lat="46.0125650" lon="9.4505550">
	<ele>1788.20</ele>
	<time>2023-07-15T07:47:29.000Z</time>
</trkpt>
<trkpt lat="46.0125870" lon="9.4506370">
	<ele>1788.20</ele>
	<time>2023-07-15T07:47:34.000Z</time>
</trkpt>
<trkpt lat="46.0125880" lon="9.4506720">
	<ele>1788.20</ele>
	<time>2023-07-15T07:47:37.000Z</time>
</trkpt>
<trkpt lat="46.0126100" lon="9.4507810">
	<ele>1787.60</ele>
	<time>2023-07-15T07:47:43.000Z</time>
</trkpt>
<trkpt lat="46.0126290" lon="9.4508210">
	<ele>1787.80</ele>
	<time>2023-07-15T07:47:46.000Z</time>
</trkpt>
<trkpt lat="46.0126370" lon="9.4508190">
	<ele>1787.80</ele>
	<time>2023-07-15T07:47:47.000Z</time>
</trkpt>
<trkpt lat="46.0126690" lon="9.4508970">
	<ele>1788.00</ele>
	<time>2023-07-15T07:47:53.000Z</time>
</trkpt>
<trkpt lat="46.0127240" lon="9.4510370">
	<ele>1788.60</ele>
	<time>2023-07-15T07:48:04.000Z</time>
</trkpt>
<trkpt lat="46.0127470" lon="9.4511030">
	<ele>1788.80</ele>
	<time>2023-07-15T07:48:10.000Z</time>
</trkpt>
<trkpt lat="46.0127480" lon="9.4511100">
	<ele>1788.80</ele>
	<time>2023-07-15T07:48:11.000Z</time>
</trkpt>
<trkpt lat="46.0127480" lon="9.4511170">
	<ele>1789.00</ele>
	<time>2023-07-15T07:48:14.000Z</time>
</trkpt>
<trkpt lat="46.0127460" lon="9.4511160">
	<ele>1789.20</ele>
	<time>2023-07-15T07:48:16.000Z</time>
</trkpt>
<trkpt lat="46.0127470" lon="9.4511200">
	<ele>1789.20</ele>
	<time>2023-07-15T07:48:20.000Z</time>
</trkpt>
<trkpt lat="46.0127540" lon="9.4511210">
	<ele>1789.40</ele>
	<time>2023-07-15T07:48:26.000Z</time>
</trkpt>
<trkpt lat="46.0127540" lon="9.4511210">
	<ele>1789.40</ele>
	<time>2023-07-15T07:48:27.000Z</time>
</trkpt>
<trkpt lat="46.0127550" lon="9.4511190">
	<ele>1789.20</ele>
	<time>2023-07-15T07:48:34.000Z</time>
</trkpt>
<trkpt lat="46.0127550" lon="9.4511190">
	<ele>1789.20</ele>
	<time>2023-07-15T07:48:44.000Z</time>
</trkpt>
<trkpt lat="46.0127440" lon="9.4511090">
	<ele>1789.00</ele>
	<time>2023-07-15T07:48:54.000Z</time>
</trkpt>
<trkpt lat="46.0127440" lon="9.4511090">
	<ele>1789.00</ele>
	<time>2023-07-15T07:49:02.000Z</time>
</trkpt>
<trkpt lat="46.0127340" lon="9.4511060">
	<ele>1789.00</ele>
	<time>2023-07-15T07:49:06.000Z</time>
</trkpt>
<trkpt lat="46.0127220" lon="9.4510990">
	<ele>1789.00</ele>
	<time>2023-07-15T07:49:18.000Z</time>
</trkpt>
<trkpt lat="46.0127220" lon="9.4510990">
	<ele>1789.20</ele>
	<time>2023-07-15T07:49:25.000Z</time>
</trkpt>
<trkpt lat="46.0127220" lon="9.4510990">
	<ele>1789.20</ele>
	<time>2023-07-15T07:49:26.000Z</time>
</trkpt>
<trkpt lat="46.0127410" lon="9.4511520">
	<ele>1789.60</ele>
	<time>2023-07-15T07:49:29.000Z</time>
</trkpt>
<trkpt lat="46.0127490" lon="9.4511970">
	<ele>1789.80</ele>
	<time>2023-07-15T07:49:31.000Z</time>
</trkpt>
<trkpt lat="46.0127860" lon="9.4513160">
	<ele>1790.60</ele>
	<time>2023-07-15T07:49:38.000Z</time>
</trkpt>
<trkpt lat="46.0127980" lon="9.4513560">
	<ele>1791.00</ele>
	<time>2023-07-15T07:49:41.000Z</time>
</trkpt>
<trkpt lat="46.0128190" lon="9.4514350">
	<ele>1791.80</ele>
	<time>2023-07-15T07:49:47.000Z</time>
</trkpt>
<trkpt lat="46.0128210" lon="9.4514530">
	<ele>1791.80</ele>
	<time>2023-07-15T07:49:49.000Z</time>
</trkpt>
<trkpt lat="46.0128200" lon="9.4514800">
	<ele>1792.20</ele>
	<time>2023-07-15T07:49:52.000Z</time>
</trkpt>
<trkpt lat="46.0128240" lon="9.4515120">
	<ele>1792.80</ele>
	<time>2023-07-15T07:49:55.000Z</time>
</trkpt>
<trkpt lat="46.0128250" lon="9.4515230">
	<ele>1793.00</ele>
	<time>2023-07-15T07:49:56.000Z</time>
</trkpt>
<trkpt lat="46.0128250" lon="9.4515460">
	<ele>1793.40</ele>
	<time>2023-07-15T07:49:58.000Z</time>
</trkpt>
<trkpt lat="46.0128210" lon="9.4515810">
	<ele>1793.80</ele>
	<time>2023-07-15T07:50:01.000Z</time>
</trkpt>
<trkpt lat="46.0128160" lon="9.4516280">
	<ele>1794.40</ele>
	<time>2023-07-15T07:50:05.000Z</time>
</trkpt>
<trkpt lat="46.0128160" lon="9.4516390">
	<ele>1794.60</ele>
	<time>2023-07-15T07:50:06.000Z</time>
</trkpt>
<trkpt lat="46.0128180" lon="9.4516730">
	<ele>1795.00</ele>
	<time>2023-07-15T07:50:09.000Z</time>
</trkpt>
<trkpt lat="46.0128250" lon="9.4517290">
	<ele>1795.80</ele>
	<time>2023-07-15T07:50:14.000Z</time>
</trkpt>
<trkpt lat="46.0128250" lon="9.4517450">
	<ele>1796.20</ele>
	<time>2023-07-15T07:50:16.000Z</time>
</trkpt>
<trkpt lat="46.0128170" lon="9.4518020">
	<ele>1797.00</ele>
	<time>2023-07-15T07:50:21.000Z</time>
</trkpt>
<trkpt lat="46.0128130" lon="9.4518140">
	<ele>1797.20</ele>
	<time>2023-07-15T07:50:22.000Z</time>
</trkpt>
<trkpt lat="46.0128050" lon="9.4518640">
	<ele>1797.80</ele>
	<time>2023-07-15T07:50:26.000Z</time>
</trkpt>
<trkpt lat="46.0127950" lon="9.4519130">
	<ele>1798.40</ele>
	<time>2023-07-15T07:50:30.000Z</time>
</trkpt>
<trkpt lat="46.0127820" lon="9.4519630">
	<ele>1799.40</ele>
	<time>2023-07-15T07:50:34.000Z</time>
</trkpt>
<trkpt lat="46.0127760" lon="9.4519750">
	<ele>1799.40</ele>
	<time>2023-07-15T07:50:35.000Z</time>
</trkpt>
<trkpt lat="46.0127750" lon="9.4519870">
	<ele>1799.60</ele>
	<time>2023-07-15T07:50:36.000Z</time>
</trkpt>
<trkpt lat="46.0127600" lon="9.4520460">
	<ele>1800.00</ele>
	<time>2023-07-15T07:50:41.000Z</time>
</trkpt>
<trkpt lat="46.0127560" lon="9.4520590">
	<ele>1800.20</ele>
	<time>2023-07-15T07:50:42.000Z</time>
</trkpt>
<trkpt lat="46.0127520" lon="9.4520850">
	<ele>1800.60</ele>
	<time>2023-07-15T07:50:44.000Z</time>
</trkpt>
<trkpt lat="46.0127450" lon="9.4521770">
	<ele>1801.40</ele>
	<time>2023-07-15T07:50:51.000Z</time>
</trkpt>
<trkpt lat="46.0127370" lon="9.4522140">
	<ele>1801.60</ele>
	<time>2023-07-15T07:50:54.000Z</time>
</trkpt>
<trkpt lat="46.0127290" lon="9.4522740">
	<ele>1802.40</ele>
	<time>2023-07-15T07:50:59.000Z</time>
</trkpt>
<trkpt lat="46.0127260" lon="9.4522880">
	<ele>1802.40</ele>
	<time>2023-07-15T07:51:00.000Z</time>
</trkpt>
<trkpt lat="46.0127210" lon="9.4522970">
	<ele>1802.60</ele>
	<time>2023-07-15T07:51:01.000Z</time>
</trkpt>
<trkpt lat="46.0127150" lon="9.4523810">
	<ele>1803.80</ele>
	<time>2023-07-15T07:51:09.000Z</time>
</trkpt>
<trkpt lat="46.0127140" lon="9.4523890">
	<ele>1803.80</ele>
	<time>2023-07-15T07:51:10.000Z</time>
</trkpt>
<trkpt lat="46.0127100" lon="9.4524100">
	<ele>1804.60</ele>
	<time>2023-07-15T07:51:13.000Z</time>
</trkpt>
<trkpt lat="46.0127090" lon="9.4524200">
	<ele>1804.80</ele>
	<time>2023-07-15T07:51:14.000Z</time>
</trkpt>
<trkpt lat="46.0127080" lon="9.4524800">
	<ele>1805.60</ele>
	<time>2023-07-15T07:51:19.000Z</time>
</trkpt>
<trkpt lat="46.0127050" lon="9.4525310">
	<ele>1805.80</ele>
	<time>2023-07-15T07:51:23.000Z</time>
</trkpt>
<trkpt lat="46.0126950" lon="9.4525940">
	<ele>1806.40</ele>
	<time>2023-07-15T07:51:28.000Z</time>
</trkpt>
<trkpt lat="46.0126950" lon="9.4526140">
	<ele>1806.80</ele>
	<time>2023-07-15T07:51:30.000Z</time>
</trkpt>
<trkpt lat="46.0126880" lon="9.4526940">
	<ele>1807.60</ele>
	<time>2023-07-15T07:51:37.000Z</time>
</trkpt>
<trkpt lat="46.0126830" lon="9.4527260">
	<ele>1808.00</ele>
	<time>2023-07-15T07:51:40.000Z</time>
</trkpt>
<trkpt lat="46.0126830" lon="9.4527440">
	<ele>1808.40</ele>
	<time>2023-07-15T07:51:42.000Z</time>
</trkpt>
<trkpt lat="46.0126800" lon="9.4527590">
	<ele>1808.60</ele>
	<time>2023-07-15T07:51:44.000Z</time>
</trkpt>
<trkpt lat="46.0126790" lon="9.4527760">
	<ele>1809.00</ele>
	<time>2023-07-15T07:51:46.000Z</time>
</trkpt>
<trkpt lat="46.0126750" lon="9.4527960">
	<ele>1809.40</ele>
	<time>2023-07-15T07:51:48.000Z</time>
</trkpt>
<trkpt lat="46.0126710" lon="9.4528330">
	<ele>1810.00</ele>
	<time>2023-07-15T07:51:52.000Z</time>
</trkpt>
<trkpt lat="46.0126720" lon="9.4528430">
	<ele>1810.20</ele>
	<time>2023-07-15T07:51:53.000Z</time>
</trkpt>
<trkpt lat="46.0126740" lon="9.4528850">
	<ele>1811.00</ele>
	<time>2023-07-15T07:51:59.000Z</time>
</trkpt>
<trkpt lat="46.0126770" lon="9.4528830">
	<ele>1811.20</ele>
	<time>2023-07-15T07:52:01.000Z</time>
</trkpt>
<trkpt lat="46.0127080" lon="9.4528390">
	<ele>1812.00</ele>
	<time>2023-07-15T07:52:09.000Z</time>
</trkpt>
<trkpt lat="46.0127090" lon="9.4528400">
	<ele>1812.20</ele>
	<time>2023-07-15T07:52:10.000Z</time>
</trkpt>
<trkpt lat="46.0127360" lon="9.4528080">
	<ele>1812.60</ele>
	<time>2023-07-15T07:52:17.000Z</time>
</trkpt>
<trkpt lat="46.0127610" lon="9.4527810">
	<ele>1813.20</ele>
	<time>2023-07-15T07:52:21.000Z</time>
</trkpt>
<trkpt lat="46.0127990" lon="9.4527290">
	<ele>1814.00</ele>
	<time>2023-07-15T07:52:27.000Z</time>
</trkpt>
<trkpt lat="46.0128130" lon="9.4527050">
	<ele>1814.40</ele>
	<time>2023-07-15T07:52:30.000Z</time>
</trkpt>
<trkpt lat="46.0128420" lon="9.4526690">
	<ele>1814.60</ele>
	<time>2023-07-15T07:52:35.000Z</time>
</trkpt>
<trkpt lat="46.0128690" lon="9.4526480">
	<ele>1815.40</ele>
	<time>2023-07-15T07:52:39.000Z</time>
</trkpt>
<trkpt lat="46.0128870" lon="9.4526240">
	<ele>1815.80</ele>
	<time>2023-07-15T07:52:43.000Z</time>
</trkpt>
<trkpt lat="46.0129360" lon="9.4525820">
	<ele>1816.40</ele>
	<time>2023-07-15T07:52:51.000Z</time>
</trkpt>
<trkpt lat="46.0129410" lon="9.4525730">
	<ele>1816.60</ele>
	<time>2023-07-15T07:52:52.000Z</time>
</trkpt>
<trkpt lat="46.0129730" lon="9.4525000">
	<ele>1816.40</ele>
	<time>2023-07-15T07:53:00.000Z</time>
</trkpt>
<trkpt lat="46.0130120" lon="9.4524680">
	<ele>1816.80</ele>
	<time>2023-07-15T07:53:07.000Z</time>
</trkpt>
<trkpt lat="46.0130340" lon="9.4524480">
	<ele>1817.80</ele>
	<time>2023-07-15T07:53:11.000Z</time>
</trkpt>
<trkpt lat="46.0130620" lon="9.4524330">
	<ele>1818.60</ele>
	<time>2023-07-15T07:53:16.000Z</time>
</trkpt>
<trkpt lat="46.0130660" lon="9.4524300">
	<ele>1818.80</ele>
	<time>2023-07-15T07:53:17.000Z</time>
</trkpt>
<trkpt lat="46.0130970" lon="9.4524180">
	<ele>1820.20</ele>
	<time>2023-07-15T07:53:22.000Z</time>
</trkpt>
<trkpt lat="46.0131090" lon="9.4524130">
	<ele>1820.40</ele>
	<time>2023-07-15T07:53:24.000Z</time>
</trkpt>
<trkpt lat="46.0131530" lon="9.4524120">
	<ele>1821.20</ele>
	<time>2023-07-15T07:53:31.000Z</time>
</trkpt>
<trkpt lat="46.0131700" lon="9.4524170">
	<ele>1821.80</ele>
	<time>2023-07-15T07:53:35.000Z</time>
</trkpt>
<trkpt lat="46.0131870" lon="9.4524200">
	<ele>1822.40</ele>
	<time>2023-07-15T07:53:39.000Z</time>
</trkpt>
<trkpt lat="46.0132050" lon="9.4524590">
	<ele>1823.40</ele>
	<time>2023-07-15T07:53:45.000Z</time>
</trkpt>
<trkpt lat="46.0131900" lon="9.4525180">
	<ele>1824.40</ele>
	<time>2023-07-15T07:53:52.000Z</time>
</trkpt>
<trkpt lat="46.0131730" lon="9.4525490">
	<ele>1825.20</ele>
	<time>2023-07-15T07:53:56.000Z</time>
</trkpt>
<trkpt lat="46.0131640" lon="9.4525660">
	<ele>1825.40</ele>
	<time>2023-07-15T07:53:58.000Z</time>
</trkpt>
<trkpt lat="46.0131360" lon="9.4526220">
	<ele>1826.20</ele>
	<time>2023-07-15T07:54:04.000Z</time>
</trkpt>
<trkpt lat="46.0131300" lon="9.4526380">
	<ele>1826.40</ele>
	<time>2023-07-15T07:54:06.000Z</time>
</trkpt>
<trkpt lat="46.0131250" lon="9.4526850">
	<ele>1827.40</ele>
	<time>2023-07-15T07:54:12.000Z</time>
</trkpt>
<trkpt lat="46.0131240" lon="9.4526950">
	<ele>1827.60</ele>
	<time>2023-07-15T07:54:13.000Z</time>
</trkpt>
<trkpt lat="46.0131090" lon="9.4527680">
	<ele>1828.80</ele>
	<time>2023-07-15T07:54:21.000Z</time>
</trkpt>
<trkpt lat="46.0131030" lon="9.4528010">
	<ele>1829.00</ele>
	<time>2023-07-15T07:54:24.000Z</time>
</trkpt>
<trkpt lat="46.0130970" lon="9.4528380">
	<ele>1830.00</ele>
	<time>2023-07-15T07:54:28.000Z</time>
</trkpt>
<trkpt lat="46.0130830" lon="9.4529120">
	<ele>1830.80</ele>
	<time>2023-07-15T07:54:34.000Z</time>
</trkpt>
<trkpt lat="46.0130770" lon="9.4529320">
	<ele>1831.00</ele>
	<time>2023-07-15T07:54:36.000Z</time>
</trkpt>
<trkpt lat="46.0130580" lon="9.4530240">
	<ele>1832.20</ele>
	<time>2023-07-15T07:54:44.000Z</time>
</trkpt>
<trkpt lat="46.0130570" lon="9.4530330">
	<ele>1832.20</ele>
	<time>2023-07-15T07:54:45.000Z</time>
</trkpt>
<trkpt lat="46.0130550" lon="9.4530890">
	<ele>1833.20</ele>
	<time>2023-07-15T07:54:50.000Z</time>
</trkpt>
<trkpt lat="46.0130430" lon="9.4531560">
	<ele>1834.20</ele>
	<time>2023-07-15T07:54:56.000Z</time>
</trkpt>
<trkpt lat="46.0130310" lon="9.4532240">
	<ele>1835.40</ele>
	<time>2023-07-15T07:55:02.000Z</time>
</trkpt>
<trkpt lat="46.0130230" lon="9.4532700">
	<ele>1835.80</ele>
	<time>2023-07-15T07:55:07.000Z</time>
</trkpt>
<trkpt lat="46.0130190" lon="9.4533150">
	<ele>1836.40</ele>
	<time>2023-07-15T07:55:11.000Z</time>
</trkpt>
<trkpt lat="46.0129980" lon="9.4533630">
	<ele>1837.00</ele>
	<time>2023-07-15T07:55:16.000Z</time>
</trkpt>
<trkpt lat="46.0129860" lon="9.4534090">
	<ele>1837.40</ele>
	<time>2023-07-15T07:55:20.000Z</time>
</trkpt>
<trkpt lat="46.0129740" lon="9.4534880">
	<ele>1838.60</ele>
	<time>2023-07-15T07:55:27.000Z</time>
</trkpt>
<trkpt lat="46.0129590" lon="9.4535630">
	<ele>1839.60</ele>
	<time>2023-07-15T07:55:34.000Z</time>
</trkpt>
<trkpt lat="46.0129450" lon="9.4535990">
	<ele>1840.00</ele>
	<time>2023-07-15T07:55:37.000Z</time>
</trkpt>
<trkpt lat="46.0129010" lon="9.4536900">
	<ele>1840.60</ele>
	<time>2023-07-15T07:55:46.000Z</time>
</trkpt>
<trkpt lat="46.0128930" lon="9.4537130">
	<ele>1840.60</ele>
	<time>2023-07-15T07:55:48.000Z</time>
</trkpt>
<trkpt lat="46.0128640" lon="9.4537920">
	<ele>1841.20</ele>
	<time>2023-07-15T07:55:56.000Z</time>
</trkpt>
<trkpt lat="46.0128530" lon="9.4538290">
	<ele>1841.60</ele>
	<time>2023-07-15T07:56:00.000Z</time>
</trkpt>
<trkpt lat="46.0128400" lon="9.4538830">
	<ele>1842.40</ele>
	<time>2023-07-15T07:56:05.000Z</time>
</trkpt>
<trkpt lat="46.0128380" lon="9.4538890">
	<ele>1842.40</ele>
	<time>2023-07-15T07:56:06.000Z</time>
</trkpt>
<trkpt lat="46.0128330" lon="9.4539040">
	<ele>1842.80</ele>
	<time>2023-07-15T07:56:08.000Z</time>
</trkpt>
<trkpt lat="46.0128120" lon="9.4539400">
	<ele>1843.80</ele>
	<time>2023-07-15T07:56:13.000Z</time>
</trkpt>
<trkpt lat="46.0128090" lon="9.4539490">
	<ele>1844.00</ele>
	<time>2023-07-15T07:56:14.000Z</time>
</trkpt>
<trkpt lat="46.0127750" lon="9.4540340">
	<ele>1844.80</ele>
	<time>2023-07-15T07:56:23.000Z</time>
</trkpt>
<trkpt lat="46.0127700" lon="9.4540410">
	<ele>1845.00</ele>
	<time>2023-07-15T07:56:24.000Z</time>
</trkpt>
<trkpt lat="46.0127540" lon="9.4540590">
	<ele>1845.40</ele>
	<time>2023-07-15T07:56:30.000Z</time>
</trkpt>
<trkpt lat="46.0127550" lon="9.4540680">
	<ele>1845.80</ele>
	<time>2023-07-15T07:56:39.000Z</time>
</trkpt>
<trkpt lat="46.0127550" lon="9.4540680">
	<ele>1845.60</ele>
	<time>2023-07-15T07:56:46.000Z</time>
</trkpt>
<trkpt lat="46.0127550" lon="9.4540690">
	<ele>1845.60</ele>
	<time>2023-07-15T07:56:53.000Z</time>
</trkpt>
<trkpt lat="46.0127620" lon="9.4540710">
	<ele>1845.60</ele>
	<time>2023-07-15T07:57:03.000Z</time>
</trkpt>
<trkpt lat="46.0127580" lon="9.4540640">
	<ele>1845.00</ele>
	<time>2023-07-15T07:57:19.000Z</time>
</trkpt>
<trkpt lat="46.0127580" lon="9.4540640">
	<ele>1845.00</ele>
	<time>2023-07-15T07:57:20.000Z</time>
</trkpt>
<trkpt lat="46.0127580" lon="9.4540640">
	<ele>1845.00</ele>
	<time>2023-07-15T07:57:25.000Z</time>
</trkpt>
<trkpt lat="46.0127580" lon="9.4540650">
	<ele>1845.20</ele>
	<time>2023-07-15T07:57:30.000Z</time>
</trkpt>
<trkpt lat="46.0127600" lon="9.4540900">
	<ele>1845.20</ele>
	<time>2023-07-15T07:57:48.000Z</time>
</trkpt>
<trkpt lat="46.0127610" lon="9.4540950">
	<ele>1845.20</ele>
	<time>2023-07-15T07:57:52.000Z</time>
</trkpt>
<trkpt lat="46.0127620" lon="9.4541020">
	<ele>1845.20</ele>
	<time>2023-07-15T07:58:00.000Z</time>
</trkpt>
<trkpt lat="46.0127620" lon="9.4541010">
	<ele>1845.20</ele>
	<time>2023-07-15T07:58:18.000Z</time>
</trkpt>
<trkpt lat="46.0127570" lon="9.4540970">
	<ele>1845.20</ele>
	<time>2023-07-15T07:58:38.000Z</time>
</trkpt>
<trkpt lat="46.0127530" lon="9.4540960">
	<ele>1845.20</ele>
	<time>2023-07-15T07:58:45.000Z</time>
</trkpt>
<trkpt lat="46.0127440" lon="9.4540950">
	<ele>1845.20</ele>
	<time>2023-07-15T07:59:00.000Z</time>
</trkpt>
<trkpt lat="46.0127440" lon="9.4540950">
	<ele>1845.20</ele>
	<time>2023-07-15T07:59:04.000Z</time>
</trkpt>
<trkpt lat="46.0127440" lon="9.4540960">
	<ele>1845.20</ele>
	<time>2023-07-15T07:59:07.000Z</time>
</trkpt>
<trkpt lat="46.0127140" lon="9.4541520">
	<ele>1845.20</ele>
	<time>2023-07-15T07:59:12.000Z</time>
</trkpt>
<trkpt lat="46.0126860" lon="9.4542350">
	<ele>1845.20</ele>
	<time>2023-07-15T07:59:18.000Z</time>
</trkpt>
<trkpt lat="46.0126810" lon="9.4542430">
	<ele>1845.20</ele>
	<time>2023-07-15T07:59:19.000Z</time>
</trkpt>
<trkpt lat="46.0126630" lon="9.4542960">
	<ele>1846.00</ele>
	<time>2023-07-15T07:59:23.000Z</time>
</trkpt>
<trkpt lat="46.0126570" lon="9.4543250">
	<ele>1847.00</ele>
	<time>2023-07-15T07:59:25.000Z</time>
</trkpt>
<trkpt lat="46.0126500" lon="9.4543300">
	<ele>1847.20</ele>
	<time>2023-07-15T07:59:26.000Z</time>
</trkpt>
<trkpt lat="46.0126270" lon="9.4543710">
	<ele>1848.40</ele>
	<time>2023-07-15T07:59:31.000Z</time>
</trkpt>
<trkpt lat="46.0126060" lon="9.4543990">
	<ele>1849.40</ele>
	<time>2023-07-15T07:59:35.000Z</time>
</trkpt>
<trkpt lat="46.0126010" lon="9.4544040">
	<ele>1849.60</ele>
	<time>2023-07-15T07:59:36.000Z</time>
</trkpt>
<trkpt lat="46.0125850" lon="9.4544270">
	<ele>1850.20</ele>
	<time>2023-07-15T07:59:40.000Z</time>
</trkpt>
<trkpt lat="46.0125800" lon="9.4544400">
	<ele>1850.80</ele>
	<time>2023-07-15T07:59:42.000Z</time>
</trkpt>
<trkpt lat="46.0125740" lon="9.4544560">
	<ele>1851.20</ele>
	<time>2023-07-15T07:59:44.000Z</time>
</trkpt>
<trkpt lat="46.0125690" lon="9.4544720">
	<ele>1851.40</ele>
	<time>2023-07-15T07:59:46.000Z</time>
</trkpt>
<trkpt lat="46.0125620" lon="9.4544900">
	<ele>1852.00</ele>
	<time>2023-07-15T07:59:48.000Z</time>
</trkpt>
<trkpt lat="46.0125560" lon="9.4545420">
	<ele>1852.60</ele>
	<time>2023-07-15T07:59:52.000Z</time>
</trkpt>
<trkpt lat="46.0125540" lon="9.4545780">
	<ele>1853.00</ele>
	<time>2023-07-15T07:59:55.000Z</time>
</trkpt>
<trkpt lat="46.0125690" lon="9.4546690">
	<ele>1853.80</ele>
	<time>2023-07-15T08:00:04.000Z</time>
</trkpt>
<trkpt lat="46.0125760" lon="9.4546920">
	<ele>1854.00</ele>
	<time>2023-07-15T08:00:06.000Z</time>
</trkpt>
<trkpt lat="46.0125780" lon="9.4547060">
	<ele>1854.20</ele>
	<time>2023-07-15T08:00:07.000Z</time>
</trkpt>
<trkpt lat="46.0125930" lon="9.4547270">
	<ele>1854.40</ele>
	<time>2023-07-15T08:00:09.000Z</time>
</trkpt>
<trkpt lat="46.0126130" lon="9.4547510">
	<ele>1854.80</ele>
	<time>2023-07-15T08:00:11.000Z</time>
</trkpt>
<trkpt lat="46.0126250" lon="9.4547660">
	<ele>1855.00</ele>
	<time>2023-07-15T08:00:13.000Z</time>
</trkpt>
<trkpt lat="46.0126740" lon="9.4547980">
	<ele>1855.60</ele>
	<time>2023-07-15T08:00:18.000Z</time>
</trkpt>
<trkpt lat="46.0126790" lon="9.4548100">
	<ele>1855.60</ele>
	<time>2023-07-15T08:00:19.000Z</time>
</trkpt>
<trkpt lat="46.0127110" lon="9.4548420">
	<ele>1856.00</ele>
	<time>2023-07-15T08:00:23.000Z</time>
</trkpt>
<trkpt lat="46.0127480" lon="9.4548720">
	<ele>1856.00</ele>
	<time>2023-07-15T08:00:27.000Z</time>
</trkpt>
<trkpt lat="46.0128000" lon="9.4549120">
	<ele>1856.00</ele>
	<time>2023-07-15T08:00:32.000Z</time>
</trkpt>
<trkpt lat="46.0128110" lon="9.4549180">
	<ele>1856.00</ele>
	<time>2023-07-15T08:00:33.000Z</time>
</trkpt>
<trkpt lat="46.0128600" lon="9.4549770">
	<ele>1856.40</ele>
	<time>2023-07-15T08:00:39.000Z</time>
</trkpt>
<trkpt lat="46.0129650" lon="9.4550330">
	<ele>1856.80</ele>
	<time>2023-07-15T08:00:49.000Z</time>
</trkpt>
<trkpt lat="46.0129850" lon="9.4550350">
	<ele>1856.80</ele>
	<time>2023-07-15T08:00:51.000Z</time>
</trkpt>
<trkpt lat="46.0130790" lon="9.4550950">
	<ele>1856.80</ele>
	<time>2023-07-15T08:01:00.000Z</time>
</trkpt>
<trkpt lat="46.0131580" lon="9.4551350">
	<ele>1856.80</ele>
	<time>2023-07-15T08:01:07.000Z</time>
</trkpt>
<trkpt lat="46.0131970" lon="9.4551500">
	<ele>1857.00</ele>
	<time>2023-07-15T08:01:10.000Z</time>
</trkpt>
<trkpt lat="46.0133350" lon="9.4552380">
	<ele>1857.80</ele>
	<time>2023-07-15T08:01:23.000Z</time>
</trkpt>
<trkpt lat="46.0133650" lon="9.4552630">
	<ele>1858.20</ele>
	<time>2023-07-15T08:01:26.000Z</time>
</trkpt>
<trkpt lat="46.0134450" lon="9.4553500">
	<ele>1858.40</ele>
	<time>2023-07-15T08:01:34.000Z</time>
</trkpt>
<trkpt lat="46.0135040" lon="9.4554030">
	<ele>1859.20</ele>
	<time>2023-07-15T08:01:41.000Z</time>
</trkpt>
<trkpt lat="46.0135160" lon="9.4554100">
	<ele>1859.40</ele>
	<time>2023-07-15T08:01:43.000Z</time>
</trkpt>
<trkpt lat="46.0135790" lon="9.4554490">
	<ele>1860.20</ele>
	<time>2023-07-15T08:01:49.000Z</time>
</trkpt>
<trkpt lat="46.0136220" lon="9.4555120">
	<ele>1860.60</ele>
	<time>2023-07-15T08:01:55.000Z</time>
</trkpt>
<trkpt lat="46.0137160" lon="9.4555840">
	<ele>1861.20</ele>
	<time>2023-07-15T08:02:04.000Z</time>
</trkpt>
<trkpt lat="46.0137250" lon="9.4555900">
	<ele>1861.40</ele>
	<time>2023-07-15T08:02:05.000Z</time>
</trkpt>
<trkpt lat="46.0137970" lon="9.4556150">
	<ele>1861.80</ele>
	<time>2023-07-15T08:02:11.000Z</time>
</trkpt>
<trkpt lat="46.0138650" lon="9.4556470">
	<ele>1862.40</ele>
	<time>2023-07-15T08:02:18.000Z</time>
</trkpt>
<trkpt lat="46.0138890" lon="9.4556520">
	<ele>1862.60</ele>
	<time>2023-07-15T08:02:20.000Z</time>
</trkpt>
<trkpt lat="46.0139100" lon="9.4556580">
	<ele>1862.80</ele>
	<time>2023-07-15T08:02:22.000Z</time>
</trkpt>
<trkpt lat="46.0139960" lon="9.4556700">
	<ele>1863.20</ele>
	<time>2023-07-15T08:02:28.000Z</time>
</trkpt>
<trkpt lat="46.0141080" lon="9.4556780">
	<ele>1863.40</ele>
	<time>2023-07-15T08:02:37.000Z</time>
</trkpt>
<trkpt lat="46.0141350" lon="9.4556810">
	<ele>1863.40</ele>
	<time>2023-07-15T08:02:39.000Z</time>
</trkpt>
<trkpt lat="46.0141990" lon="9.4556680">
	<ele>1863.60</ele>
	<time>2023-07-15T08:02:44.000Z</time>
</trkpt>
<trkpt lat="46.0143220" lon="9.4556450">
	<ele>1864.00</ele>
	<time>2023-07-15T08:02:54.000Z</time>
</trkpt>
<trkpt lat="46.0144120" lon="9.4556060">
	<ele>1864.00</ele>
	<time>2023-07-15T08:03:02.000Z</time>
</trkpt>
<trkpt lat="46.0144930" lon="9.4555560">
	<ele>1864.40</ele>
	<time>2023-07-15T08:03:09.000Z</time>
</trkpt>
<trkpt lat="46.0145000" lon="9.4555510">
	<ele>1864.40</ele>
	<time>2023-07-15T08:03:10.000Z</time>
</trkpt>
<trkpt lat="46.0145030" lon="9.4555490">
	<ele>1864.60</ele>
	<time>2023-07-15T08:03:11.000Z</time>
</trkpt>
<trkpt lat="46.0145200" lon="9.4555440">
	<ele>1864.80</ele>
	<time>2023-07-15T08:03:17.000Z</time>
</trkpt>
<trkpt lat="46.0145280" lon="9.4555380">
	<ele>1864.80</ele>
	<time>2023-07-15T08:03:18.000Z</time>
</trkpt>
<trkpt lat="46.0145500" lon="9.4555180">
	<ele>1864.40</ele>
	<time>2023-07-15T08:03:20.000Z</time>
</trkpt>
<trkpt lat="46.0146120" lon="9.4554710">
	<ele>1864.40</ele>
	<time>2023-07-15T08:03:25.000Z</time>
</trkpt>
<trkpt lat="46.0146460" lon="9.4554570">
	<ele>1864.60</ele>
	<time>2023-07-15T08:03:28.000Z</time>
</trkpt>
<trkpt lat="46.0146790" lon="9.4554420">
	<ele>1864.80</ele>
	<time>2023-07-15T08:03:31.000Z</time>
</trkpt>
<trkpt lat="46.0146890" lon="9.4554340">
	<ele>1864.80</ele>
	<time>2023-07-15T08:03:32.000Z</time>
</trkpt>
<trkpt lat="46.0147140" lon="9.4554190">
	<ele>1864.80</ele>
	<time>2023-07-15T08:03:34.000Z</time>
</trkpt>
<trkpt lat="46.0147540" lon="9.4554030">
	<ele>1864.80</ele>
	<time>2023-07-15T08:03:37.000Z</time>
</trkpt>
<trkpt lat="46.0148740" lon="9.4553670">
	<ele>1865.20</ele>
	<time>2023-07-15T08:03:47.000Z</time>
</trkpt>
<trkpt lat="46.0148850" lon="9.4553650">
	<ele>1865.40</ele>
	<time>2023-07-15T08:03:48.000Z</time>
</trkpt>
<trkpt lat="46.0149050" lon="9.4553580">
	<ele>1865.40</ele>
	<time>2023-07-15T08:03:50.000Z</time>
</trkpt>
<trkpt lat="46.0150080" lon="9.4553550">
	<ele>1866.20</ele>
	<time>2023-07-15T08:03:59.000Z</time>
</trkpt>
<trkpt lat="46.0151050" lon="9.4553850">
	<ele>1866.60</ele>
	<time>2023-07-15T08:04:07.000Z</time>
</trkpt>
<trkpt lat="46.0151280" lon="9.4553910">
	<ele>1866.60</ele>
	<time>2023-07-15T08:04:10.000Z</time>
</trkpt>
<trkpt lat="46.0151290" lon="9.4553910">
	<ele>1866.40</ele>
	<time>2023-07-15T08:04:12.000Z</time>
</trkpt>
<trkpt lat="46.0151310" lon="9.4553930">
	<ele>1866.20</ele>
	<time>2023-07-15T08:04:16.000Z</time>
</trkpt>
<trkpt lat="46.0151180" lon="9.4553970">
	<ele>1866.20</ele>
	<time>2023-07-15T08:04:29.000Z</time>
</trkpt>
<trkpt lat="46.0151860" lon="9.4554120">
	<ele>1867.40</ele>
	<time>2023-07-15T08:04:37.000Z</time>
</trkpt>
<trkpt lat="46.0152040" lon="9.4554200">
	<ele>1867.60</ele>
	<time>2023-07-15T08:04:38.000Z</time>
</trkpt>
<trkpt lat="46.0152940" lon="9.4554560">
	<ele>1868.20</ele>
	<time>2023-07-15T08:04:45.000Z</time>
</trkpt>
<trkpt lat="46.0153170" lon="9.4554760">
	<ele>1868.40</ele>
	<time>2023-07-15T08:04:47.000Z</time>
</trkpt>
<trkpt lat="46.0153440" lon="9.4554920">
	<ele>1868.60</ele>
	<time>2023-07-15T08:04:49.000Z</time>
</trkpt>
<trkpt lat="46.0153970" lon="9.4555250">
	<ele>1869.00</ele>
	<time>2023-07-15T08:04:54.000Z</time>
</trkpt>
<trkpt lat="46.0154220" lon="9.4555420">
	<ele>1869.20</ele>
	<time>2023-07-15T08:04:57.000Z</time>
</trkpt>
<trkpt lat="46.0155150" lon="9.4555830">
	<ele>1869.60</ele>
	<time>2023-07-15T08:05:05.000Z</time>
</trkpt>
<trkpt lat="46.0155460" lon="9.4556000">
	<ele>1869.60</ele>
	<time>2023-07-15T08:05:08.000Z</time>
</trkpt>
<trkpt lat="46.0156080" lon="9.4556280">
	<ele>1870.00</ele>
	<time>2023-07-15T08:05:13.000Z</time>
</trkpt>
<trkpt lat="46.0156750" lon="9.4556390">
	<ele>1870.40</ele>
	<time>2023-07-15T08:05:19.000Z</time>
</trkpt>
<trkpt lat="46.0157110" lon="9.4556530">
	<ele>1870.60</ele>
	<time>2023-07-15T08:05:22.000Z</time>
</trkpt>
<trkpt lat="46.0157440" lon="9.4556690">
	<ele>1870.80</ele>
	<time>2023-07-15T08:05:25.000Z</time>
</trkpt>
<trkpt lat="46.0158450" lon="9.4557070">
	<ele>1871.20</ele>
	<time>2023-07-15T08:05:35.000Z</time>
</trkpt>
<trkpt lat="46.0159530" lon="9.4557430">
	<ele>1871.60</ele>
	<time>2023-07-15T08:05:44.000Z</time>
</trkpt>
<trkpt lat="46.0159970" lon="9.4557560">
	<ele>1871.80</ele>
	<time>2023-07-15T08:05:48.000Z</time>
</trkpt>
<trkpt lat="46.0161080" lon="9.4558100">
	<ele>1872.40</ele>
	<time>2023-07-15T08:05:58.000Z</time>
</trkpt>
<trkpt lat="46.0161270" lon="9.4558310">
	<ele>1872.40</ele>
	<time>2023-07-15T08:06:00.000Z</time>
</trkpt>
<trkpt lat="46.0161940" lon="9.4559180">
	<ele>1872.60</ele>
	<time>2023-07-15T08:06:07.000Z</time>
</trkpt>
<trkpt lat="46.0162000" lon="9.4559380">
	<ele>1872.60</ele>
	<time>2023-07-15T08:06:08.000Z</time>
</trkpt>
<trkpt lat="46.0162400" lon="9.4560690">
	<ele>1873.00</ele>
	<time>2023-07-15T08:06:17.000Z</time>
</trkpt>
<trkpt lat="46.0162960" lon="9.4562470">
	<ele>1873.60</ele>
	<time>2023-07-15T08:06:28.000Z</time>
</trkpt>
<trkpt lat="46.0163210" lon="9.4563370">
	<ele>1873.80</ele>
	<time>2023-07-15T08:06:33.000Z</time>
</trkpt>
<trkpt lat="46.0163270" lon="9.4564030">
	<ele>1874.00</ele>
	<time>2023-07-15T08:06:37.000Z</time>
</trkpt>
<trkpt lat="46.0163600" lon="9.4565290">
	<ele>1874.80</ele>
	<time>2023-07-15T08:06:45.000Z</time>
</trkpt>
<trkpt lat="46.0163620" lon="9.4565400">
	<ele>1874.80</ele>
	<time>2023-07-15T08:06:46.000Z</time>
</trkpt>
<trkpt lat="46.0163890" lon="9.4566540">
	<ele>1876.00</ele>
	<time>2023-07-15T08:06:54.000Z</time>
</trkpt>
<trkpt lat="46.0164050" lon="9.4568470">
	<ele>1876.80</ele>
	<time>2023-07-15T08:07:05.000Z</time>
</trkpt>
<trkpt lat="46.0164150" lon="9.4569100">
	<ele>1877.00</ele>
	<time>2023-07-15T08:07:09.000Z</time>
</trkpt>
<trkpt lat="46.0164320" lon="9.4570020">
	<ele>1877.40</ele>
	<time>2023-07-15T08:07:15.000Z</time>
</trkpt>
<trkpt lat="46.0164740" lon="9.4571390">
	<ele>1877.60</ele>
	<time>2023-07-15T08:07:24.000Z</time>
</trkpt>
<trkpt lat="46.0164950" lon="9.4572330">
	<ele>1878.20</ele>
	<time>2023-07-15T08:07:30.000Z</time>
</trkpt>
<trkpt lat="46.0165090" lon="9.4573180">
	<ele>1878.80</ele>
	<time>2023-07-15T08:07:35.000Z</time>
</trkpt>
<trkpt lat="46.0165230" lon="9.4573860">
	<ele>1879.20</ele>
	<time>2023-07-15T08:07:39.000Z</time>
</trkpt>
<trkpt lat="46.0165370" lon="9.4574230">
	<ele>1880.20</ele>
	<time>2023-07-15T08:07:43.000Z</time>
</trkpt>
<trkpt lat="46.0165420" lon="9.4574490">
	<ele>1880.40</ele>
	<time>2023-07-15T08:07:45.000Z</time>
</trkpt>
<trkpt lat="46.0165720" lon="9.4575860">
	<ele>1880.80</ele>
	<time>2023-07-15T08:07:54.000Z</time>
</trkpt>
<trkpt lat="46.0165950" lon="9.4576660">
	<ele>1881.00</ele>
	<time>2023-07-15T08:07:59.000Z</time>
</trkpt>
<trkpt lat="46.0166240" lon="9.4577350">
	<ele>1881.20</ele>
	<time>2023-07-15T08:08:04.000Z</time>
</trkpt>
<trkpt lat="46.0166490" lon="9.4577960">
	<ele>1881.40</ele>
	<time>2023-07-15T08:08:08.000Z</time>
</trkpt>
<trkpt lat="46.0166970" lon="9.4578580">
	<ele>1881.40</ele>
	<time>2023-07-15T08:08:13.000Z</time>
</trkpt>
<trkpt lat="46.0167780" lon="9.4579740">
	<ele>1881.80</ele>
	<time>2023-07-15T08:08:22.000Z</time>
</trkpt>
<trkpt lat="46.0168370" lon="9.4580570">
	<ele>1882.40</ele>
	<time>2023-07-15T08:08:29.000Z</time>
</trkpt>
<trkpt lat="46.0168670" lon="9.4581000">
	<ele>1882.40</ele>
	<time>2023-07-15T08:08:32.000Z</time>
</trkpt>
<trkpt lat="46.0169580" lon="9.4582520">
	<ele>1882.60</ele>
	<time>2023-07-15T08:08:43.000Z</time>
</trkpt>
<trkpt lat="46.0169620" lon="9.4582810">
	<ele>1882.60</ele>
	<time>2023-07-15T08:08:45.000Z</time>
</trkpt>
<trkpt lat="46.0169710" lon="9.4583380">
	<ele>1882.60</ele>
	<time>2023-07-15T08:08:48.000Z</time>
</trkpt>
<trkpt lat="46.0169770" lon="9.4583730">
	<ele>1882.60</ele>
	<time>2023-07-15T08:08:50.000Z</time>
</trkpt>
<trkpt lat="46.0170040" lon="9.4584690">
	<ele>1882.80</ele>
	<time>2023-07-15T08:08:56.000Z</time>
</trkpt>
<trkpt lat="46.0170130" lon="9.4584980">
	<ele>1882.80</ele>
	<time>2023-07-15T08:08:58.000Z</time>
</trkpt>
<trkpt lat="46.0170190" lon="9.4586480">
	<ele>1883.40</ele>
	<time>2023-07-15T08:09:07.000Z</time>
</trkpt>
<trkpt lat="46.0170150" lon="9.4586840">
	<ele>1883.40</ele>
	<time>2023-07-15T08:09:09.000Z</time>
</trkpt>
<trkpt lat="46.0170100" lon="9.4588010">
	<ele>1883.80</ele>
	<time>2023-07-15T08:09:16.000Z</time>
</trkpt>
<trkpt lat="46.0170110" lon="9.4588170">
	<ele>1883.80</ele>
	<time>2023-07-15T08:09:17.000Z</time>
</trkpt>
<trkpt lat="46.0170030" lon="9.4589040">
	<ele>1884.40</ele>
	<time>2023-07-15T08:09:22.000Z</time>
</trkpt>
<trkpt lat="46.0170010" lon="9.4589530">
	<ele>1884.60</ele>
	<time>2023-07-15T08:09:25.000Z</time>
</trkpt>
<trkpt lat="46.0169820" lon="9.4591080">
	<ele>1885.60</ele>
	<time>2023-07-15T08:09:34.000Z</time>
</trkpt>
<trkpt lat="46.0169810" lon="9.4591330">
	<ele>1886.00</ele>
	<time>2023-07-15T08:09:36.000Z</time>
</trkpt>
<trkpt lat="46.0169730" lon="9.4591890">
	<ele>1886.60</ele>
	<time>2023-07-15T08:09:40.000Z</time>
</trkpt>
<trkpt lat="46.0169780" lon="9.4592680">
	<ele>1886.80</ele>
	<time>2023-07-15T08:09:46.000Z</time>
</trkpt>
<trkpt lat="46.0170610" lon="9.4593570">
	<ele>1886.80</ele>
	<time>2023-07-15T08:09:56.000Z</time>
</trkpt>
<trkpt lat="46.0171840" lon="9.4594070">
	<ele>1886.00</ele>
	<time>2023-07-15T08:10:06.000Z</time>
</trkpt>
<trkpt lat="46.0172980" lon="9.4594170">
	<ele>1885.80</ele>
	<time>2023-07-15T08:10:15.000Z</time>
</trkpt>
<trkpt lat="46.0173570" lon="9.4594250">
	<ele>1885.40</ele>
	<time>2023-07-15T08:10:20.000Z</time>
</trkpt>
<trkpt lat="46.0174160" lon="9.4594470">
	<ele>1885.00</ele>
	<time>2023-07-15T08:10:25.000Z</time>
</trkpt>
<trkpt lat="46.0174260" lon="9.4594490">
	<ele>1885.00</ele>
	<time>2023-07-15T08:10:26.000Z</time>
</trkpt>
<trkpt lat="46.0175130" lon="9.4594450">
	<ele>1884.80</ele>
	<time>2023-07-15T08:10:33.000Z</time>
</trkpt>
<trkpt lat="46.0175550" lon="9.4594280">
	<ele>1884.60</ele>
	<time>2023-07-15T08:10:37.000Z</time>
</trkpt>
<trkpt lat="46.0176110" lon="9.4594110">
	<ele>1884.40</ele>
	<time>2023-07-15T08:10:42.000Z</time>
</trkpt>
<trkpt lat="46.0176570" lon="9.4593840">
	<ele>1884.00</ele>
	<time>2023-07-15T08:10:47.000Z</time>
</trkpt>
<trkpt lat="46.0177170" lon="9.4593710">
	<ele>1883.20</ele>
	<time>2023-07-15T08:10:53.000Z</time>
</trkpt>
<trkpt lat="46.0177500" lon="9.4593560">
	<ele>1883.00</ele>
	<time>2023-07-15T08:10:56.000Z</time>
</trkpt>
<trkpt lat="46.0178240" lon="9.4593400">
	<ele>1882.40</ele>
	<time>2023-07-15T08:11:02.000Z</time>
</trkpt>
<trkpt lat="46.0178430" lon="9.4593400">
	<ele>1882.20</ele>
	<time>2023-07-15T08:11:04.000Z</time>
</trkpt>
<trkpt lat="46.0178590" lon="9.4593390">
	<ele>1882.00</ele>
	<time>2023-07-15T08:11:05.000Z</time>
</trkpt>
<trkpt lat="46.0179480" lon="9.4593230">
	<ele>1881.00</ele>
	<time>2023-07-15T08:11:13.000Z</time>
</trkpt>
<trkpt lat="46.0179730" lon="9.4593240">
	<ele>1880.80</ele>
	<time>2023-07-15T08:11:16.000Z</time>
</trkpt>
<trkpt lat="46.0180020" lon="9.4593160">
	<ele>1880.60</ele>
	<time>2023-07-15T08:11:19.000Z</time>
</trkpt>
<trkpt lat="46.0181280" lon="9.4592890">
	<ele>1880.20</ele>
	<time>2023-07-15T08:11:30.000Z</time>
</trkpt>
<trkpt lat="46.0181400" lon="9.4592860">
	<ele>1880.00</ele>
	<time>2023-07-15T08:11:31.000Z</time>
</trkpt>
<trkpt lat="46.0181520" lon="9.4592900">
	<ele>1880.00</ele>
	<time>2023-07-15T08:11:32.000Z</time>
</trkpt>
<trkpt lat="46.0182150" lon="9.4593200">
	<ele>1879.80</ele>
	<time>2023-07-15T08:11:37.000Z</time>
</trkpt>
<trkpt lat="46.0183000" lon="9.4593220">
	<ele>1879.60</ele>
	<time>2023-07-15T08:11:44.000Z</time>
</trkpt>
<trkpt lat="46.0183130" lon="9.4593180">
	<ele>1879.60</ele>
	<time>2023-07-15T08:11:45.000Z</time>
</trkpt>
<trkpt lat="46.0183940" lon="9.4593460">
	<ele>1879.20</ele>
	<time>2023-07-15T08:11:52.000Z</time>
</trkpt>
<trkpt lat="46.0184670" lon="9.4593540">
	<ele>1879.00</ele>
	<time>2023-07-15T08:11:57.000Z</time>
</trkpt>
<trkpt lat="46.0184890" lon="9.4593590">
	<ele>1878.80</ele>
	<time>2023-07-15T08:11:59.000Z</time>
</trkpt>
<trkpt lat="46.0185070" lon="9.4593660">
	<ele>1878.40</ele>
	<time>2023-07-15T08:12:01.000Z</time>
</trkpt>
<trkpt lat="46.0185180" lon="9.4593700">
	<ele>1878.20</ele>
	<time>2023-07-15T08:12:02.000Z</time>
</trkpt>
<trkpt lat="46.0185600" lon="9.4593810">
	<ele>1878.00</ele>
	<time>2023-07-15T08:12:06.000Z</time>
</trkpt>
<trkpt lat="46.0185780" lon="9.4593770">
	<ele>1878.00</ele>
	<time>2023-07-15T08:12:08.000Z</time>
</trkpt>
<trkpt lat="46.0185830" lon="9.4593820">
	<ele>1877.80</ele>
	<time>2023-07-15T08:12:09.000Z</time>
</trkpt>
<trkpt lat="46.0186060" lon="9.4594020">
	<ele>1877.60</ele>
	<time>2023-07-15T08:12:12.000Z</time>
</trkpt>
<trkpt lat="46.0186110" lon="9.4594080">
	<ele>1877.60</ele>
	<time>2023-07-15T08:12:13.000Z</time>
</trkpt>
<trkpt lat="46.0186210" lon="9.4594100">
	<ele>1877.60</ele>
	<time>2023-07-15T08:12:16.000Z</time>
</trkpt>
<trkpt lat="46.0186270" lon="9.4594100">
	<ele>1877.80</ele>
	<time>2023-07-15T08:12:23.000Z</time>
</trkpt>
<trkpt lat="46.0186320" lon="9.4594180">
	<ele>1877.20</ele>
	<time>2023-07-15T08:12:29.000Z</time>
</trkpt>
<trkpt lat="46.0186320" lon="9.4594170">
	<ele>1877.40</ele>
	<time>2023-07-15T08:12:39.000Z</time>
</trkpt>
<trkpt lat="46.0186840" lon="9.4594000">
	<ele>1877.40</ele>
	<time>2023-07-15T08:12:49.000Z</time>
</trkpt>
<trkpt lat="46.0187730" lon="9.4593820">
	<ele>1877.40</ele>
	<time>2023-07-15T08:12:55.000Z</time>
</trkpt>
<trkpt lat="46.0188300" lon="9.4593740">
	<ele>1877.00</ele>
	<time>2023-07-15T08:13:01.000Z</time>
</trkpt>
<trkpt lat="46.0188330" lon="9.4593720">
	<ele>1877.00</ele>
	<time>2023-07-15T08:13:02.000Z</time>
</trkpt>
<trkpt lat="46.0188330" lon="9.4593690">
	<ele>1877.00</ele>
	<time>2023-07-15T08:13:05.000Z</time>
</trkpt>
<trkpt lat="46.0188420" lon="9.4593690">
	<ele>1877.00</ele>
	<time>2023-07-15T08:13:06.000Z</time>
</trkpt>
<trkpt lat="46.0188750" lon="9.4593680">
	<ele>1877.00</ele>
	<time>2023-07-15T08:13:09.000Z</time>
</trkpt>
<trkpt lat="46.0189220" lon="9.4593610">
	<ele>1877.00</ele>
	<time>2023-07-15T08:13:13.000Z</time>
</trkpt>
<trkpt lat="46.0189690" lon="9.4593750">
	<ele>1877.00</ele>
	<time>2023-07-15T08:13:17.000Z</time>
</trkpt>
<trkpt lat="46.0189920" lon="9.4593810">
	<ele>1877.00</ele>
	<time>2023-07-15T08:13:19.000Z</time>
</trkpt>
<trkpt lat="46.0190160" lon="9.4593820">
	<ele>1877.00</ele>
	<time>2023-07-15T08:13:21.000Z</time>
</trkpt>
<trkpt lat="46.0191330" lon="9.4594700">
	<ele>1876.40</ele>
	<time>2023-07-15T08:13:31.000Z</time>
</trkpt>
<trkpt lat="46.0192150" lon="9.4595760">
	<ele>1875.80</ele>
	<time>2023-07-15T08:13:40.000Z</time>
</trkpt>
<trkpt lat="46.0192760" lon="9.4596770">
	<ele>1874.80</ele>
	<time>2023-07-15T08:13:47.000Z</time>
</trkpt>
<trkpt lat="46.0193630" lon="9.4597860">
	<ele>1874.60</ele>
	<time>2023-07-15T08:13:54.000Z</time>
</trkpt>
<trkpt lat="46.0194130" lon="9.4598270">
	<ele>1874.60</ele>
	<time>2023-07-15T08:13:59.000Z</time>
</trkpt>
<trkpt lat="46.0194430" lon="9.4598610">
	<ele>1874.80</ele>
	<time>2023-07-15T08:14:02.000Z</time>
</trkpt>
<trkpt lat="46.0195580" lon="9.4599670">
	<ele>1874.20</ele>
	<time>2023-07-15T08:14:12.000Z</time>
</trkpt>
<trkpt lat="46.0196200" lon="9.4600380">
	<ele>1874.20</ele>
	<time>2023-07-15T08:14:18.000Z</time>
</trkpt>
<trkpt lat="46.0196630" lon="9.4600870">
	<ele>1874.20</ele>
	<time>2023-07-15T08:14:23.000Z</time>
</trkpt>
<trkpt lat="46.0196730" lon="9.4601020">
	<ele>1874.20</ele>
	<time>2023-07-15T08:14:24.000Z</time>
</trkpt>
<trkpt lat="46.0197590" lon="9.4602590">
	<ele>1874.60</ele>
	<time>2023-07-15T08:14:34.000Z</time>
</trkpt>
<trkpt lat="46.0197930" lon="9.4603230">
	<ele>1874.60</ele>
	<time>2023-07-15T08:14:39.000Z</time>
</trkpt>
<trkpt lat="46.0198580" lon="9.4603730">
	<ele>1874.60</ele>
	<time>2023-07-15T08:14:44.000Z</time>
</trkpt>
<trkpt lat="46.0198880" lon="9.4604360">
	<ele>1874.80</ele>
	<time>2023-07-15T08:14:49.000Z</time>
</trkpt>
<trkpt lat="46.0199170" lon="9.4604970">
	<ele>1875.00</ele>
	<time>2023-07-15T08:14:53.000Z</time>
</trkpt>
<trkpt lat="46.0199910" lon="9.4607010">
	<ele>1874.80</ele>
	<time>2023-07-15T08:15:04.000Z</time>
</trkpt>
<trkpt lat="46.0199980" lon="9.4607320">
	<ele>1874.80</ele>
	<time>2023-07-15T08:15:06.000Z</time>
</trkpt>
<trkpt lat="46.0200290" lon="9.4607890">
	<ele>1874.60</ele>
	<time>2023-07-15T08:15:10.000Z</time>
</trkpt>
<trkpt lat="46.0200760" lon="9.4609360">
	<ele>1875.20</ele>
	<time>2023-07-15T08:15:18.000Z</time>
</trkpt>
<trkpt lat="46.0200980" lon="9.4610440">
	<ele>1875.60</ele>
	<time>2023-07-15T08:15:24.000Z</time>
</trkpt>
<trkpt lat="46.0201080" lon="9.4610770">
	<ele>1875.60</ele>
	<time>2023-07-15T08:15:26.000Z</time>
</trkpt>
<trkpt lat="46.0201250" lon="9.4611920">
	<ele>1875.80</ele>
	<time>2023-07-15T08:15:33.000Z</time>
</trkpt>
<trkpt lat="46.0201300" lon="9.4612220">
	<ele>1876.00</ele>
	<time>2023-07-15T08:15:35.000Z</time>
</trkpt>
<trkpt lat="46.0201550" lon="9.4613660">
	<ele>1876.80</ele>
	<time>2023-07-15T08:15:42.000Z</time>
</trkpt>
<trkpt lat="46.0201560" lon="9.4614020">
	<ele>1877.00</ele>
	<time>2023-07-15T08:15:44.000Z</time>
</trkpt>
<trkpt lat="46.0201820" lon="9.4615450">
	<ele>1877.80</ele>
	<time>2023-07-15T08:15:53.000Z</time>
</trkpt>
<trkpt lat="46.0202010" lon="9.4616000">
	<ele>1878.00</ele>
	<time>2023-07-15T08:15:56.000Z</time>
</trkpt>
<trkpt lat="46.0202640" lon="9.4617540">
	<ele>1878.60</ele>
	<time>2023-07-15T08:16:05.000Z</time>
</trkpt>
<trkpt lat="46.0202750" lon="9.4617670">
	<ele>1878.60</ele>
	<time>2023-07-15T08:16:06.000Z</time>
</trkpt>
<trkpt lat="46.0202870" lon="9.4617950">
	<ele>1879.00</ele>
	<time>2023-07-15T08:16:08.000Z</time>
</trkpt>
<trkpt lat="46.0203830" lon="9.4619170">
	<ele>1879.40</ele>
	<time>2023-07-15T08:16:17.000Z</time>
</trkpt>
<trkpt lat="46.0204260" lon="9.4620180">
	<ele>1880.40</ele>
	<time>2023-07-15T08:16:24.000Z</time>
</trkpt>
<trkpt lat="46.0204490" lon="9.4620630">
	<ele>1880.80</ele>
	<time>2023-07-15T08:16:27.000Z</time>
</trkpt>
<trkpt lat="46.0205270" lon="9.4622030">
	<ele>1881.00</ele>
	<time>2023-07-15T08:16:37.000Z</time>
</trkpt>
<trkpt lat="46.0205750" lon="9.4622810">
	<ele>1881.40</ele>
	<time>2023-07-15T08:16:42.000Z</time>
</trkpt>
<trkpt lat="46.0205970" lon="9.4623200">
	<ele>1881.40</ele>
	<time>2023-07-15T08:16:44.000Z</time>
</trkpt>
<trkpt lat="46.0206460" lon="9.4624520">
	<ele>1881.80</ele>
	<time>2023-07-15T08:16:52.000Z</time>
</trkpt>
<trkpt lat="46.0206930" lon="9.4625970">
	<ele>1882.00</ele>
	<time>2023-07-15T08:17:00.000Z</time>
</trkpt>
<trkpt lat="46.0207330" lon="9.4627090">
	<ele>1882.40</ele>
	<time>2023-07-15T08:17:06.000Z</time>
</trkpt>
<trkpt lat="46.0207480" lon="9.4627630">
	<ele>1882.40</ele>
	<time>2023-07-15T08:17:09.000Z</time>
</trkpt>
<trkpt lat="46.0207490" lon="9.4629090">
	<ele>1883.20</ele>
	<time>2023-07-15T08:17:16.000Z</time>
</trkpt>
<trkpt lat="46.0207490" lon="9.4630400">
	<ele>1883.40</ele>
	<time>2023-07-15T08:17:23.000Z</time>
</trkpt>
<trkpt lat="46.0207550" lon="9.4630890">
	<ele>1883.40</ele>
	<time>2023-07-15T08:17:25.000Z</time>
</trkpt>
<trkpt lat="46.0207700" lon="9.4632410">
	<ele>1884.20</ele>
	<time>2023-07-15T08:17:32.000Z</time>
</trkpt>
<trkpt lat="46.0207780" lon="9.4633340">
	<ele>1884.40</ele>
	<time>2023-07-15T08:17:37.000Z</time>
</trkpt>
<trkpt lat="46.0207890" lon="9.4634210">
	<ele>1884.40</ele>
	<time>2023-07-15T08:17:41.000Z</time>
</trkpt>
<trkpt lat="46.0207990" lon="9.4635740">
	<ele>1885.20</ele>
	<time>2023-07-15T08:17:49.000Z</time>
</trkpt>
<trkpt lat="46.0207700" lon="9.4637140">
	<ele>1885.40</ele>
	<time>2023-07-15T08:17:56.000Z</time>
</trkpt>
<trkpt lat="46.0207600" lon="9.4637320">
	<ele>1885.60</ele>
	<time>2023-07-15T08:17:57.000Z</time>
</trkpt>
<trkpt lat="46.0207450" lon="9.4638770">
	<ele>1886.20</ele>
	<time>2023-07-15T08:18:05.000Z</time>
</trkpt>
<trkpt lat="46.0207300" lon="9.4639210">
	<ele>1886.40</ele>
	<time>2023-07-15T08:18:07.000Z</time>
</trkpt>
<trkpt lat="46.0206930" lon="9.4639840">
	<ele>1887.60</ele>
	<time>2023-07-15T08:18:13.000Z</time>
</trkpt>
<trkpt lat="46.0207120" lon="9.4641160">
	<ele>1888.20</ele>
	<time>2023-07-15T08:18:22.000Z</time>
</trkpt>
<trkpt lat="46.0207640" lon="9.4641910">
	<ele>1888.20</ele>
	<time>2023-07-15T08:18:30.000Z</time>
</trkpt>
<trkpt lat="46.0207820" lon="9.4642050">
	<ele>1888.00</ele>
	<time>2023-07-15T08:18:32.000Z</time>
</trkpt>
<trkpt lat="46.0208210" lon="9.4642470">
	<ele>1887.80</ele>
	<time>2023-07-15T08:18:37.000Z</time>
</trkpt>
<trkpt lat="46.0208890" lon="9.4643130">
	<ele>1887.40</ele>
	<time>2023-07-15T08:18:45.000Z</time>
</trkpt>
<trkpt lat="46.0209330" lon="9.4643570">
	<ele>1887.40</ele>
	<time>2023-07-15T08:18:50.000Z</time>
</trkpt>
<trkpt lat="46.0209600" lon="9.4643850">
	<ele>1886.60</ele>
	<time>2023-07-15T08:18:54.000Z</time>
</trkpt>
<trkpt lat="46.0209680" lon="9.4643940">
	<ele>1886.40</ele>
	<time>2023-07-15T08:18:55.000Z</time>
</trkpt>
<trkpt lat="46.0210470" lon="9.4644700">
	<ele>1885.40</ele>
	<time>2023-07-15T08:19:05.000Z</time>
</trkpt>
<trkpt lat="46.0211150" lon="9.4645130">
	<ele>1885.00</ele>
	<time>2023-07-15T08:19:12.000Z</time>
</trkpt>
<trkpt lat="46.0211560" lon="9.4645490">
	<ele>1885.00</ele>
	<time>2023-07-15T08:19:16.000Z</time>
</trkpt>
<trkpt lat="46.0211770" lon="9.4645810">
	<ele>1884.80</ele>
	<time>2023-07-15T08:19:22.000Z</time>
</trkpt>
<trkpt lat="46.0211890" lon="9.4645900">
	<ele>1884.80</ele>
	<time>2023-07-15T08:19:24.000Z</time>
</trkpt>
<trkpt lat="46.0212060" lon="9.4646040">
	<ele>1885.00</ele>
	<time>2023-07-15T08:19:27.000Z</time>
</trkpt>
<trkpt lat="46.0212140" lon="9.4646100">
	<ele>1885.00</ele>
	<time>2023-07-15T08:19:28.000Z</time>
</trkpt>
<trkpt lat="46.0212840" lon="9.4646490">
	<ele>1884.80</ele>
	<time>2023-07-15T08:19:34.000Z</time>
</trkpt>
<trkpt lat="46.0212960" lon="9.4646570">
	<ele>1884.60</ele>
	<time>2023-07-15T08:19:35.000Z</time>
</trkpt>
<trkpt lat="46.0213270" lon="9.4646760">
	<ele>1884.40</ele>
	<time>2023-07-15T08:19:38.000Z</time>
</trkpt>
<trkpt lat="46.0213590" lon="9.4647130">
	<ele>1884.40</ele>
	<time>2023-07-15T08:19:43.000Z</time>
</trkpt>
<trkpt lat="46.0213570" lon="9.4647110">
	<ele>1884.00</ele>
	<time>2023-07-15T08:19:48.000Z</time>
</trkpt>
<trkpt lat="46.0213920" lon="9.4647250">
	<ele>1884.00</ele>
	<time>2023-07-15T08:19:56.000Z</time>
</trkpt>
<trkpt lat="46.0214710" lon="9.4647880">
	<ele>1884.20</ele>
	<time>2023-07-15T08:20:03.000Z</time>
</trkpt>
<trkpt lat="46.0214950" lon="9.4648070">
	<ele>1884.00</ele>
	<time>2023-07-15T08:20:05.000Z</time>
</trkpt>
<trkpt lat="46.0216280" lon="9.4649260">
	<ele>1884.00</ele>
	<time>2023-07-15T08:20:16.000Z</time>
</trkpt>
<trkpt lat="46.0217480" lon="9.4650480">
	<ele>1883.80</ele>
	<time>2023-07-15T08:20:27.000Z</time>
</trkpt>
<trkpt lat="46.0219030" lon="9.4651600">
	<ele>1884.40</ele>
	<time>2023-07-15T08:20:40.000Z</time>
</trkpt>
<trkpt lat="46.0219200" lon="9.4651700">
	<ele>1884.20</ele>
	<time>2023-07-15T08:20:46.000Z</time>
</trkpt>
<trkpt lat="46.0219200" lon="9.4651770">
	<ele>1884.00</ele>
	<time>2023-07-15T08:20:55.000Z</time>
</trkpt>
<trkpt lat="46.0219200" lon="9.4651770">
	<ele>1884.00</ele>
	<time>2023-07-15T08:20:58.000Z</time>
</trkpt>
<trkpt lat="46.0219200" lon="9.4651770">
	<ele>1884.00</ele>
	<time>2023-07-15T08:21:00.000Z</time>
</trkpt>
<trkpt lat="46.0219200" lon="9.4651770">
	<ele>1884.00</ele>
	<time>2023-07-15T08:21:03.000Z</time>
</trkpt>
<trkpt lat="46.0219800" lon="9.4652140">
	<ele>1884.00</ele>
	<time>2023-07-15T08:21:14.000Z</time>
</trkpt>
<trkpt lat="46.0220520" lon="9.4652600">
	<ele>1884.00</ele>
	<time>2023-07-15T08:21:19.000Z</time>
</trkpt>
<trkpt lat="46.0221120" lon="9.4653070">
	<ele>1884.00</ele>
	<time>2023-07-15T08:21:25.000Z</time>
</trkpt>
<trkpt lat="46.0222290" lon="9.4653740">
	<ele>1884.00</ele>
	<time>2023-07-15T08:21:35.000Z</time>
</trkpt>
<trkpt lat="46.0222970" lon="9.4654160">
	<ele>1884.40</ele>
	<time>2023-07-15T08:21:41.000Z</time>
</trkpt>
<trkpt lat="46.0223200" lon="9.4654240">
	<ele>1884.40</ele>
	<time>2023-07-15T08:21:43.000Z</time>
</trkpt>
<trkpt lat="46.0223750" lon="9.4654610">
	<ele>1884.20</ele>
	<time>2023-07-15T08:21:48.000Z</time>
</trkpt>
<trkpt lat="46.0224220" lon="9.4654910">
	<ele>1884.20</ele>
	<time>2023-07-15T08:21:52.000Z</time>
</trkpt>
<trkpt lat="46.0225640" lon="9.4655850">
	<ele>1884.00</ele>
	<time>2023-07-15T08:22:05.000Z</time>
</trkpt>
<trkpt lat="46.0226230" lon="9.4655990">
	<ele>1884.00</ele>
	<time>2023-07-15T08:22:10.000Z</time>
</trkpt>
<trkpt lat="46.0226910" lon="9.4656370">
	<ele>1883.80</ele>
	<time>2023-07-15T08:22:16.000Z</time>
</trkpt>
<trkpt lat="46.0228000" lon="9.4657110">
	<ele>1883.80</ele>
	<time>2023-07-15T08:22:25.000Z</time>
</trkpt>
<trkpt lat="46.0228680" lon="9.4657450">
	<ele>1883.80</ele>
	<time>2023-07-15T08:22:31.000Z</time>
</trkpt>
<trkpt lat="46.0228820" lon="9.4657520">
	<ele>1883.80</ele>
	<time>2023-07-15T08:22:32.000Z</time>
</trkpt>
<trkpt lat="46.0229820" lon="9.4658250">
	<ele>1883.80</ele>
	<time>2023-07-15T08:22:41.000Z</time>
</trkpt>
<trkpt lat="46.0229960" lon="9.4658410">
	<ele>1884.00</ele>
	<time>2023-07-15T08:22:42.000Z</time>
</trkpt>
<trkpt lat="46.0231230" lon="9.4659360">
	<ele>1884.00</ele>
	<time>2023-07-15T08:22:53.000Z</time>
</trkpt>
<trkpt lat="46.0232300" lon="9.4659920">
	<ele>1884.00</ele>
	<time>2023-07-15T08:23:02.000Z</time>
</trkpt>
<trkpt lat="46.0233470" lon="9.4660590">
	<ele>1884.20</ele>
	<time>2023-07-15T08:23:11.000Z</time>
</trkpt>
<trkpt lat="46.0234420" lon="9.4661110">
	<ele>1885.20</ele>
	<time>2023-07-15T08:23:19.000Z</time>
</trkpt>
<trkpt lat="46.0234730" lon="9.4661460">
	<ele>1885.20</ele>
	<time>2023-07-15T08:23:22.000Z</time>
</trkpt>
<trkpt lat="46.0234860" lon="9.4661550">
	<ele>1885.40</ele>
	<time>2023-07-15T08:23:23.000Z</time>
</trkpt>
<trkpt lat="46.0235010" lon="9.4661640">
	<ele>1885.40</ele>
	<time>2023-07-15T08:23:24.000Z</time>
</trkpt>
<trkpt lat="46.0236300" lon="9.4662050">
	<ele>1886.00</ele>
	<time>2023-07-15T08:23:34.000Z</time>
</trkpt>
<trkpt lat="46.0236690" lon="9.4662280">
	<ele>1886.60</ele>
	<time>2023-07-15T08:23:38.000Z</time>
</trkpt>
<trkpt lat="46.0237220" lon="9.4662810">
	<ele>1887.00</ele>
	<time>2023-07-15T08:23:43.000Z</time>
</trkpt>
<trkpt lat="46.0237550" lon="9.4663220">
	<ele>1887.00</ele>
	<time>2023-07-15T08:23:47.000Z</time>
</trkpt>
<trkpt lat="46.0237830" lon="9.4663340">
	<ele>1887.20</ele>
	<time>2023-07-15T08:23:50.000Z</time>
</trkpt>
<trkpt lat="46.0238400" lon="9.4664040">
	<ele>1887.40</ele>
	<time>2023-07-15T08:23:56.000Z</time>
</trkpt>
<trkpt lat="46.0238620" lon="9.4664440">
	<ele>1887.60</ele>
	<time>2023-07-15T08:23:58.000Z</time>
</trkpt>
<trkpt lat="46.0239490" lon="9.4665450">
	<ele>1887.00</ele>
	<time>2023-07-15T08:24:06.000Z</time>
</trkpt>
<trkpt lat="46.0239640" lon="9.4665720">
	<ele>1886.60</ele>
	<time>2023-07-15T08:24:08.000Z</time>
</trkpt>
<trkpt lat="46.0240000" lon="9.4666490">
	<ele>1885.40</ele>
	<time>2023-07-15T08:24:14.000Z</time>
</trkpt>
<trkpt lat="46.0240290" lon="9.4667110">
	<ele>1884.60</ele>
	<time>2023-07-15T08:24:19.000Z</time>
</trkpt>
<trkpt lat="46.0240440" lon="9.4667450">
	<ele>1884.20</ele>
	<time>2023-07-15T08:24:21.000Z</time>
</trkpt>
<trkpt lat="46.0240540" lon="9.4667620">
	<ele>1884.00</ele>
	<time>2023-07-15T08:24:22.000Z</time>
</trkpt>
<trkpt lat="46.0240860" lon="9.4668240">
	<ele>1883.20</ele>
	<time>2023-07-15T08:24:27.000Z</time>
</trkpt>
<trkpt lat="46.0241040" lon="9.4668870">
	<ele>1882.80</ele>
	<time>2023-07-15T08:24:31.000Z</time>
</trkpt>
<trkpt lat="46.0241590" lon="9.4670180">
	<ele>1882.40</ele>
	<time>2023-07-15T08:24:40.000Z</time>
</trkpt>
<trkpt lat="46.0241820" lon="9.4670500">
	<ele>1882.80</ele>
	<time>2023-07-15T08:24:43.000Z</time>
</trkpt>
<trkpt lat="46.0242280" lon="9.4671280">
	<ele>1883.00</ele>
	<time>2023-07-15T08:24:49.000Z</time>
</trkpt>
<trkpt lat="46.0242960" lon="9.4672390">
	<ele>1882.80</ele>
	<time>2023-07-15T08:24:58.000Z</time>
</trkpt>
<trkpt lat="46.0243200" lon="9.4673050">
	<ele>1882.80</ele>
	<time>2023-07-15T08:25:03.000Z</time>
</trkpt>
<trkpt lat="46.0243460" lon="9.4673700">
	<ele>1882.80</ele>
	<time>2023-07-15T08:25:07.000Z</time>
</trkpt>
<trkpt lat="46.0243640" lon="9.4674290">
	<ele>1882.40</ele>
	<time>2023-07-15T08:25:14.000Z</time>
</trkpt>
<trkpt lat="46.0243670" lon="9.4674240">
	<ele>1882.40</ele>
	<time>2023-07-15T08:25:17.000Z</time>
</trkpt>
<trkpt lat="46.0243790" lon="9.4674380">
	<ele>1882.40</ele>
	<time>2023-07-15T08:25:22.000Z</time>
</trkpt>
<trkpt lat="46.0243780" lon="9.4674370">
	<ele>1882.60</ele>
	<time>2023-07-15T08:25:24.000Z</time>
</trkpt>
<trkpt lat="46.0243800" lon="9.4674380">
	<ele>1883.20</ele>
	<time>2023-07-15T08:25:50.000Z</time>
</trkpt>
<trkpt lat="46.0244080" lon="9.4675020">
	<ele>1884.20</ele>
	<time>2023-07-15T08:26:02.000Z</time>
</trkpt>
<trkpt lat="46.0244190" lon="9.4675170">
	<ele>1883.00</ele>
	<time>2023-07-15T08:26:37.000Z</time>
</trkpt>
<trkpt lat="46.0244110" lon="9.4675270">
	<ele>1883.20</ele>
	<time>2023-07-15T08:27:17.000Z</time>
</trkpt>
<trkpt lat="46.0244110" lon="9.4675260">
	<ele>1883.20</ele>
	<time>2023-07-15T08:27:23.000Z</time>
</trkpt>
<trkpt lat="46.0244120" lon="9.4675240">
	<ele>1883.20</ele>
	<time>2023-07-15T08:27:31.000Z</time>
</trkpt>
<trkpt lat="46.0244150" lon="9.4675220">
	<ele>1883.20</ele>
	<time>2023-07-15T08:28:26.000Z</time>
</trkpt>
<trkpt lat="46.0244150" lon="9.4675230">
	<ele>1883.20</ele>
	<time>2023-07-15T08:28:35.000Z</time>
</trkpt>
<trkpt lat="46.0244150" lon="9.4675230">
	<ele>1883.20</ele>
	<time>2023-07-15T08:28:44.000Z</time>
</trkpt>
<trkpt lat="46.0244150" lon="9.4675230">
	<ele>1883.20</ele>
	<time>2023-07-15T08:28:47.000Z</time>
</trkpt>
<trkpt lat="46.0244150" lon="9.4675230">
	<ele>1883.20</ele>
	<time>2023-07-15T08:28:53.000Z</time>
</trkpt>
<trkpt lat="46.0244150" lon="9.4675230">
	<ele>1883.20</ele>
	<time>2023-07-15T08:28:57.000Z</time>
</trkpt>
<trkpt lat="46.0244150" lon="9.4675230">
	<ele>1883.20</ele>
	<time>2023-07-15T08:29:06.000Z</time>
</trkpt>
<trkpt lat="46.0244150" lon="9.4675230">
	<ele>1883.20</ele>
	<time>2023-07-15T08:29:18.000Z</time>
</trkpt>
<trkpt lat="46.0244150" lon="9.4675230">
	<ele>1883.20</ele>
	<time>2023-07-15T08:29:22.000Z</time>
</trkpt>
<trkpt lat="46.0244160" lon="9.4675230">
	<ele>1883.20</ele>
	<time>2023-07-15T08:29:30.000Z</time>
</trkpt>
<trkpt lat="46.0244150" lon="9.4675230">
	<ele>1883.20</ele>
	<time>2023-07-15T08:29:33.000Z</time>
</trkpt>
<trkpt lat="46.0244150" lon="9.4675230">
	<ele>1883.20</ele>
	<time>2023-07-15T08:29:39.000Z</time>
</trkpt>
<trkpt lat="46.0244150" lon="9.4675230">
	<ele>1883.20</ele>
	<time>2023-07-15T08:30:08.000Z</time>
</trkpt>
<trkpt lat="46.0244160" lon="9.4675230">
	<ele>1883.20</ele>
	<time>2023-07-15T08:30:34.000Z</time>
</trkpt>
<trkpt lat="46.0244150" lon="9.4675240">
	<ele>1883.20</ele>
	<time>2023-07-15T08:30:42.000Z</time>
</trkpt>
<trkpt lat="46.0244150" lon="9.4675240">
	<ele>1883.20</ele>
	<time>2023-07-15T08:31:07.000Z</time>
</trkpt>
<trkpt lat="46.0244150" lon="9.4675240">
	<ele>1883.20</ele>
	<time>2023-07-15T08:31:55.000Z</time>
</trkpt>
<trkpt lat="46.0244150" lon="9.4675240">
	<ele>1883.20</ele>
	<time>2023-07-15T08:32:03.000Z</time>
</trkpt>
<trkpt lat="46.0244150" lon="9.4675240">
	<ele>1883.20</ele>
	<time>2023-07-15T08:32:30.000Z</time>
</trkpt>
<trkpt lat="46.0244150" lon="9.4675240">
	<ele>1883.20</ele>
	<time>2023-07-15T08:32:34.000Z</time>
</trkpt>
<trkpt lat="46.0244150" lon="9.4675240">
	<ele>1883.20</ele>
	<time>2023-07-15T08:32:51.000Z</time>
</trkpt>
<trkpt lat="46.0244150" lon="9.4675250">
	<ele>1883.20</ele>
	<time>2023-07-15T08:32:56.000Z</time>
</trkpt>
<trkpt lat="46.0244150" lon="9.4675250">
	<ele>1883.20</ele>
	<time>2023-07-15T08:32:59.000Z</time>
</trkpt>
<trkpt lat="46.0244150" lon="9.4675250">
	<ele>1883.20</ele>
	<time>2023-07-15T08:33:39.000Z</time>
</trkpt>
<trkpt lat="46.0244150" lon="9.4675250">
	<ele>1883.20</ele>
	<time>2023-07-15T08:33:45.000Z</time>
</trkpt>
<trkpt lat="46.0244150" lon="9.4675260">
	<ele>1883.20</ele>
	<time>2023-07-15T08:34:18.000Z</time>
</trkpt>
<trkpt lat="46.0244150" lon="9.4675260">
	<ele>1883.20</ele>
	<time>2023-07-15T08:34:25.000Z</time>
</trkpt>
<trkpt lat="46.0244150" lon="9.4675260">
	<ele>1883.20</ele>
	<time>2023-07-15T08:35:05.000Z</time>
</trkpt>
<trkpt lat="46.0244150" lon="9.4675260">
	<ele>1883.20</ele>
	<time>2023-07-15T08:35:13.000Z</time>
</trkpt>
<trkpt lat="46.0244150" lon="9.4675260">
	<ele>1883.20</ele>
	<time>2023-07-15T08:35:20.000Z</time>
</trkpt>
<trkpt lat="46.0244150" lon="9.4675260">
	<ele>1883.20</ele>
	<time>2023-07-15T08:35:29.000Z</time>
</trkpt>
<trkpt lat="46.0244150" lon="9.4675260">
	<ele>1883.20</ele>
	<time>2023-07-15T08:35:34.000Z</time>
</trkpt>
<trkpt lat="46.0244150" lon="9.4675260">
	<ele>1883.20</ele>
	<time>2023-07-15T08:35:36.000Z</time>
</trkpt>
<trkpt lat="46.0244150" lon="9.4675260">
	<ele>1883.20</ele>
	<time>2023-07-15T08:35:47.000Z</time>
</trkpt>
<trkpt lat="46.0244160" lon="9.4675260">
	<ele>1883.20</ele>
	<time>2023-07-15T08:36:02.000Z</time>
</trkpt>
<trkpt lat="46.0244160" lon="9.4675260">
	<ele>1883.20</ele>
	<time>2023-07-15T08:36:08.000Z</time>
</trkpt>
<trkpt lat="46.0244160" lon="9.4675260">
	<ele>1883.20</ele>
	<time>2023-07-15T08:36:24.000Z</time>
</trkpt>
<trkpt lat="46.0244170" lon="9.4675260">
	<ele>1883.20</ele>
	<time>2023-07-15T08:36:34.000Z</time>
</trkpt>
<trkpt lat="46.0244170" lon="9.4675270">
	<ele>1883.20</ele>
	<time>2023-07-15T08:36:43.000Z</time>
</trkpt>
<trkpt lat="46.0243940" lon="9.4676680">
	<ele>1883.20</ele>
	<time>2023-07-15T08:36:51.000Z</time>
</trkpt>
<trkpt lat="46.0243610" lon="9.4678320">
	<ele>1883.20</ele>
	<time>2023-07-15T08:37:01.000Z</time>
</trkpt>
<trkpt lat="46.0243640" lon="9.4679520">
	<ele>1883.20</ele>
	<time>2023-07-15T08:37:11.000Z</time>
</trkpt>
<trkpt lat="46.0243750" lon="9.4680490">
	<ele>1883.20</ele>
	<time>2023-07-15T08:37:18.000Z</time>
</trkpt>
<trkpt lat="46.0243770" lon="9.4680660">
	<ele>1883.20</ele>
	<time>2023-07-15T08:37:19.000Z</time>
</trkpt>
<trkpt lat="46.0243780" lon="9.4680810">
	<ele>1883.20</ele>
	<time>2023-07-15T08:37:20.000Z</time>
</trkpt>
<trkpt lat="46.0243990" lon="9.4681820">
	<ele>1883.20</ele>
	<time>2023-07-15T08:37:27.000Z</time>
</trkpt>
<trkpt lat="46.0244190" lon="9.4682590">
	<ele>1876.20</ele>
	<time>2023-07-15T08:37:33.000Z</time>
</trkpt>
<trkpt lat="46.0244260" lon="9.4682670">
	<ele>1876.20</ele>
	<time>2023-07-15T08:37:34.000Z</time>
</trkpt>
<trkpt lat="46.0244630" lon="9.4683340">
	<ele>1876.00</ele>
	<time>2023-07-15T08:37:40.000Z</time>
</trkpt>
<trkpt lat="46.0244670" lon="9.4683710">
	<ele>1875.60</ele>
	<time>2023-07-15T08:37:43.000Z</time>
</trkpt>
<trkpt lat="46.0244730" lon="9.4683950">
	<ele>1875.40</ele>
	<time>2023-07-15T08:37:50.000Z</time>
</trkpt>
<trkpt lat="46.0244790" lon="9.4684180">
	<ele>1874.80</ele>
	<time>2023-07-15T08:37:52.000Z</time>
</trkpt>
<trkpt lat="46.0244970" lon="9.4684670">
	<ele>1873.80</ele>
	<time>2023-07-15T08:37:56.000Z</time>
</trkpt>
<trkpt lat="46.0245130" lon="9.4685070">
	<ele>1873.00</ele>
	<time>2023-07-15T08:37:59.000Z</time>
</trkpt>
<trkpt lat="46.0245270" lon="9.4685340">
	<ele>1872.60</ele>
	<time>2023-07-15T08:38:01.000Z</time>
</trkpt>
<trkpt lat="46.0245450" lon="9.4686070">
	<ele>1872.20</ele>
	<time>2023-07-15T08:38:05.000Z</time>
</trkpt>
<trkpt lat="46.0245720" lon="9.4686720">
	<ele>1871.60</ele>
	<time>2023-07-15T08:38:09.000Z</time>
</trkpt>
<trkpt lat="46.0245790" lon="9.4686850">
	<ele>1871.40</ele>
	<time>2023-07-15T08:38:10.000Z</time>
</trkpt>
<trkpt lat="46.0246140" lon="9.4687350">
	<ele>1870.20</ele>
	<time>2023-07-15T08:38:15.000Z</time>
</trkpt>
<trkpt lat="46.0246440" lon="9.4687790">
	<ele>1869.80</ele>
	<time>2023-07-15T08:38:19.000Z</time>
</trkpt>
<trkpt lat="46.0246680" lon="9.4688470">
	<ele>1869.20</ele>
	<time>2023-07-15T08:38:23.000Z</time>
</trkpt>
<trkpt lat="46.0247140" lon="9.4689030">
	<ele>1868.40</ele>
	<time>2023-07-15T08:38:27.000Z</time>
</trkpt>
<trkpt lat="46.0247240" lon="9.4689160">
	<ele>1868.40</ele>
	<time>2023-07-15T08:38:28.000Z</time>
</trkpt>
<trkpt lat="46.0247360" lon="9.4689320">
	<ele>1868.00</ele>
	<time>2023-07-15T08:38:29.000Z</time>
</trkpt>
<trkpt lat="46.0247660" lon="9.4689990">
	<ele>1867.00</ele>
	<time>2023-07-15T08:38:34.000Z</time>
</trkpt>
<trkpt lat="46.0247720" lon="9.4690140">
	<ele>1866.60</ele>
	<time>2023-07-15T08:38:35.000Z</time>
</trkpt>
<trkpt lat="46.0247880" lon="9.4690790">
	<ele>1865.80</ele>
	<time>2023-07-15T08:38:39.000Z</time>
</trkpt>
<trkpt lat="46.0247980" lon="9.4691730">
	<ele>1865.20</ele>
	<time>2023-07-15T08:38:44.000Z</time>
</trkpt>
<trkpt lat="46.0248090" lon="9.4692430">
	<ele>1864.40</ele>
	<time>2023-07-15T08:38:48.000Z</time>
</trkpt>
<trkpt lat="46.0248210" lon="9.4693470">
	<ele>1863.60</ele>
	<time>2023-07-15T08:38:54.000Z</time>
</trkpt>
<trkpt lat="46.0248290" lon="9.4693980">
	<ele>1863.40</ele>
	<time>2023-07-15T08:38:57.000Z</time>
</trkpt>
<trkpt lat="46.0248340" lon="9.4695180">
	<ele>1862.80</ele>
	<time>2023-07-15T08:39:05.000Z</time>
</trkpt>
<trkpt lat="46.0248210" lon="9.4696510">
	<ele>1862.20</ele>
	<time>2023-07-15T08:39:12.000Z</time>
</trkpt>
<trkpt lat="46.0248240" lon="9.4696640">
	<ele>1862.20</ele>
	<time>2023-07-15T08:39:13.000Z</time>
</trkpt>
<trkpt lat="46.0248300" lon="9.4697830">
	<ele>1861.80</ele>
	<time>2023-07-15T08:39:20.000Z</time>
</trkpt>
<trkpt lat="46.0248330" lon="9.4698160">
	<ele>1861.80</ele>
	<time>2023-07-15T08:39:22.000Z</time>
</trkpt>
<trkpt lat="46.0248340" lon="9.4698280">
	<ele>1861.60</ele>
	<time>2023-07-15T08:39:23.000Z</time>
</trkpt>
<trkpt lat="46.0248320" lon="9.4698790">
	<ele>1861.40</ele>
	<time>2023-07-15T08:39:26.000Z</time>
</trkpt>
<trkpt lat="46.0248400" lon="9.4699350">
	<ele>1861.00</ele>
	<time>2023-07-15T08:39:29.000Z</time>
</trkpt>
<trkpt lat="46.0248450" lon="9.4699730">
	<ele>1860.40</ele>
	<time>2023-07-15T08:39:31.000Z</time>
</trkpt>
<trkpt lat="46.0248500" lon="9.4699920">
	<ele>1860.20</ele>
	<time>2023-07-15T08:39:32.000Z</time>
</trkpt>
<trkpt lat="46.0248530" lon="9.4700270">
	<ele>1859.80</ele>
	<time>2023-07-15T08:39:34.000Z</time>
</trkpt>
<trkpt lat="46.0248620" lon="9.4700910">
	<ele>1859.20</ele>
	<time>2023-07-15T08:39:38.000Z</time>
</trkpt>
<trkpt lat="46.0248820" lon="9.4701420">
	<ele>1858.80</ele>
	<time>2023-07-15T08:39:41.000Z</time>
</trkpt>
<trkpt lat="46.0248980" lon="9.4702140">
	<ele>1858.40</ele>
	<time>2023-07-15T08:39:46.000Z</time>
</trkpt>
<trkpt lat="46.0249360" lon="9.4703100">
	<ele>1857.80</ele>
	<time>2023-07-15T08:39:52.000Z</time>
</trkpt>
<trkpt lat="46.0249580" lon="9.4703500">
	<ele>1856.80</ele>
	<time>2023-07-15T08:39:55.000Z</time>
</trkpt>
<trkpt lat="46.0249650" lon="9.4703610">
	<ele>1856.60</ele>
	<time>2023-07-15T08:39:56.000Z</time>
</trkpt>
<trkpt lat="46.0249690" lon="9.4703760">
	<ele>1856.60</ele>
	<time>2023-07-15T08:39:57.000Z</time>
</trkpt>
<trkpt lat="46.0249980" lon="9.4704430">
	<ele>1856.20</ele>
	<time>2023-07-15T08:40:01.000Z</time>
</trkpt>
<trkpt lat="46.0250290" lon="9.4705050">
	<ele>1855.60</ele>
	<time>2023-07-15T08:40:05.000Z</time>
</trkpt>
<trkpt lat="46.0250400" lon="9.4705400">
	<ele>1855.40</ele>
	<time>2023-07-15T08:40:07.000Z</time>
</trkpt>
<trkpt lat="46.0250520" lon="9.4705700">
	<ele>1855.40</ele>
	<time>2023-07-15T08:40:09.000Z</time>
</trkpt>
<trkpt lat="46.0250760" lon="9.4706490">
	<ele>1854.60</ele>
	<time>2023-07-15T08:40:14.000Z</time>
</trkpt>
<trkpt lat="46.0250730" lon="9.4706670">
	<ele>1854.20</ele>
	<time>2023-07-15T08:40:15.000Z</time>
</trkpt>
<trkpt lat="46.0250700" lon="9.4707030">
	<ele>1854.00</ele>
	<time>2023-07-15T08:40:17.000Z</time>
</trkpt>
<trkpt lat="46.0250860" lon="9.4708420">
	<ele>1853.20</ele>
	<time>2023-07-15T08:40:24.000Z</time>
</trkpt>
<trkpt lat="46.0250870" lon="9.4708730">
	<ele>1853.00</ele>
	<time>2023-07-15T08:40:26.000Z</time>
</trkpt>
<trkpt lat="46.0251070" lon="9.4709240">
	<ele>1852.00</ele>
	<time>2023-07-15T08:40:30.000Z</time>
</trkpt>
<trkpt lat="46.0251130" lon="9.4709720">
	<ele>1851.20</ele>
	<time>2023-07-15T08:40:33.000Z</time>
</trkpt>
<trkpt lat="46.0251150" lon="9.4709960">
	<ele>1850.80</ele>
	<time>2023-07-15T08:40:35.000Z</time>
</trkpt>
<trkpt lat="46.0251060" lon="9.4710630">
	<ele>1849.60</ele>
	<time>2023-07-15T08:40:39.000Z</time>
</trkpt>
<trkpt lat="46.0251100" lon="9.4711110">
	<ele>1848.60</ele>
	<time>2023-07-15T08:40:42.000Z</time>
</trkpt>
<trkpt lat="46.0251110" lon="9.4711240">
	<ele>1848.40</ele>
	<time>2023-07-15T08:40:43.000Z</time>
</trkpt>
<trkpt lat="46.0250920" lon="9.4711880">
	<ele>1847.20</ele>
	<time>2023-07-15T08:40:47.000Z</time>
</trkpt>
<trkpt lat="46.0250820" lon="9.4712420">
	<ele>1846.60</ele>
	<time>2023-07-15T08:40:51.000Z</time>
</trkpt>
<trkpt lat="46.0250820" lon="9.4712550">
	<ele>1846.20</ele>
	<time>2023-07-15T08:40:52.000Z</time>
</trkpt>
<trkpt lat="46.0250820" lon="9.4713200">
	<ele>1845.00</ele>
	<time>2023-07-15T08:40:57.000Z</time>
</trkpt>
<trkpt lat="46.0250880" lon="9.4713890">
	<ele>1843.80</ele>
	<time>2023-07-15T08:41:01.000Z</time>
</trkpt>
<trkpt lat="46.0250970" lon="9.4714180">
	<ele>1843.40</ele>
	<time>2023-07-15T08:41:03.000Z</time>
</trkpt>
<trkpt lat="46.0251220" lon="9.4714660">
	<ele>1842.60</ele>
	<time>2023-07-15T08:41:07.000Z</time>
</trkpt>
<trkpt lat="46.0251370" lon="9.4715110">
	<ele>1841.40</ele>
	<time>2023-07-15T08:41:11.000Z</time>
</trkpt>
<trkpt lat="46.0251360" lon="9.4715230">
	<ele>1841.40</ele>
	<time>2023-07-15T08:41:12.000Z</time>
</trkpt>
<trkpt lat="46.0251480" lon="9.4715780">
	<ele>1840.40</ele>
	<time>2023-07-15T08:41:16.000Z</time>
</trkpt>
<trkpt lat="46.0251720" lon="9.4716540">
	<ele>1839.40</ele>
	<time>2023-07-15T08:41:21.000Z</time>
</trkpt>
<trkpt lat="46.0251800" lon="9.4717360">
	<ele>1838.20</ele>
	<time>2023-07-15T08:41:26.000Z</time>
</trkpt>
<trkpt lat="46.0251760" lon="9.4718020">
	<ele>1837.60</ele>
	<time>2023-07-15T08:41:30.000Z</time>
</trkpt>
<trkpt lat="46.0251750" lon="9.4718150">
	<ele>1837.20</ele>
	<time>2023-07-15T08:41:31.000Z</time>
</trkpt>
<trkpt lat="46.0251890" lon="9.4719170">
	<ele>1835.80</ele>
	<time>2023-07-15T08:41:37.000Z</time>
</trkpt>
<trkpt lat="46.0251910" lon="9.4719510">
	<ele>1835.60</ele>
	<time>2023-07-15T08:41:39.000Z</time>
</trkpt>
<trkpt lat="46.0252000" lon="9.4720660">
	<ele>1834.80</ele>
	<time>2023-07-15T08:41:45.000Z</time>
</trkpt>
<trkpt lat="46.0252000" lon="9.4721170">
	<ele>1834.20</ele>
	<time>2023-07-15T08:41:48.000Z</time>
</trkpt>
<trkpt lat="46.0252090" lon="9.4721740">
	<ele>1833.80</ele>
	<time>2023-07-15T08:41:51.000Z</time>
</trkpt>
<trkpt lat="46.0252190" lon="9.4722750">
	<ele>1832.60</ele>
	<time>2023-07-15T08:41:57.000Z</time>
</trkpt>
<trkpt lat="46.0252170" lon="9.4723060">
	<ele>1832.40</ele>
	<time>2023-07-15T08:41:59.000Z</time>
</trkpt>
<trkpt lat="46.0252090" lon="9.4724010">
	<ele>1831.60</ele>
	<time>2023-07-15T08:42:04.000Z</time>
</trkpt>
<trkpt lat="46.0252090" lon="9.4724200">
	<ele>1831.40</ele>
	<time>2023-07-15T08:42:05.000Z</time>
</trkpt>
<trkpt lat="46.0252140" lon="9.4725590">
	<ele>1830.60</ele>
	<time>2023-07-15T08:42:13.000Z</time>
</trkpt>
<trkpt lat="46.0252180" lon="9.4725770">
	<ele>1830.60</ele>
	<time>2023-07-15T08:42:14.000Z</time>
</trkpt>
<trkpt lat="46.0252120" lon="9.4726820">
	<ele>1830.00</ele>
	<time>2023-07-15T08:42:19.000Z</time>
</trkpt>
<trkpt lat="46.0252080" lon="9.4727190">
	<ele>1829.80</ele>
	<time>2023-07-15T08:42:21.000Z</time>
</trkpt>
<trkpt lat="46.0252020" lon="9.4727490">
	<ele>1829.80</ele>
	<time>2023-07-15T08:42:23.000Z</time>
</trkpt>
<trkpt lat="46.0251950" lon="9.4727780">
	<ele>1829.80</ele>
	<time>2023-07-15T08:42:25.000Z</time>
</trkpt>
<trkpt lat="46.0251850" lon="9.4728340">
	<ele>1829.60</ele>
	<time>2023-07-15T08:42:28.000Z</time>
</trkpt>
<trkpt lat="46.0251780" lon="9.4728700">
	<ele>1829.60</ele>
	<time>2023-07-15T08:42:30.000Z</time>
</trkpt>
<trkpt lat="46.0251710" lon="9.4728870">
	<ele>1829.60</ele>
	<time>2023-07-15T08:42:31.000Z</time>
</trkpt>
<trkpt lat="46.0251650" lon="9.4729030">
	<ele>1829.40</ele>
	<time>2023-07-15T08:42:32.000Z</time>
</trkpt>
<trkpt lat="46.0251550" lon="9.4729460">
	<ele>1829.20</ele>
	<time>2023-07-15T08:42:35.000Z</time>
</trkpt>
<trkpt lat="46.0251550" lon="9.4729590">
	<ele>1829.40</ele>
	<time>2023-07-15T08:42:36.000Z</time>
</trkpt>
<trkpt lat="46.0251540" lon="9.4729740">
	<ele>1829.40</ele>
	<time>2023-07-15T08:42:37.000Z</time>
</trkpt>
<trkpt lat="46.0251150" lon="9.4731250">
	<ele>1829.20</ele>
	<time>2023-07-15T08:42:46.000Z</time>
</trkpt>
<trkpt lat="46.0251230" lon="9.4731860">
	<ele>1828.40</ele>
	<time>2023-07-15T08:42:50.000Z</time>
</trkpt>
<trkpt lat="46.0251310" lon="9.4732750">
	<ele>1827.40</ele>
	<time>2023-07-15T08:42:55.000Z</time>
</trkpt>
<trkpt lat="46.0251540" lon="9.4733810">
	<ele>1826.20</ele>
	<time>2023-07-15T08:43:01.000Z</time>
</trkpt>
<trkpt lat="46.0251580" lon="9.4733970">
	<ele>1826.00</ele>
	<time>2023-07-15T08:43:02.000Z</time>
</trkpt>
<trkpt lat="46.0251730" lon="9.4734650">
	<ele>1825.40</ele>
	<time>2023-07-15T08:43:07.000Z</time>
</trkpt>
<trkpt lat="46.0251820" lon="9.4734750">
	<ele>1825.20</ele>
	<time>2023-07-15T08:43:08.000Z</time>
</trkpt>
<trkpt lat="46.0251910" lon="9.4734880">
	<ele>1825.00</ele>
	<time>2023-07-15T08:43:09.000Z</time>
</trkpt>
<trkpt lat="46.0251960" lon="9.4735020">
	<ele>1824.80</ele>
	<time>2023-07-15T08:43:10.000Z</time>
</trkpt>
<trkpt lat="46.0252000" lon="9.4735360">
	<ele>1824.60</ele>
	<time>2023-07-15T08:43:12.000Z</time>
</trkpt>
<trkpt lat="46.0252010" lon="9.4735500">
	<ele>1824.40</ele>
	<time>2023-07-15T08:43:13.000Z</time>
</trkpt>
<trkpt lat="46.0251990" lon="9.4735650">
	<ele>1824.20</ele>
	<time>2023-07-15T08:43:14.000Z</time>
</trkpt>
<trkpt lat="46.0252010" lon="9.4735820">
	<ele>1824.00</ele>
	<time>2023-07-15T08:43:15.000Z</time>
</trkpt>
<trkpt lat="46.0252100" lon="9.4736330">
	<ele>1823.20</ele>
	<time>2023-07-15T08:43:18.000Z</time>
</trkpt>
<trkpt lat="46.0252190" lon="9.4736590">
	<ele>1823.00</ele>
	<time>2023-07-15T08:43:20.000Z</time>
</trkpt>
<trkpt lat="46.0252240" lon="9.4736740">
	<ele>1822.80</ele>
	<time>2023-07-15T08:43:21.000Z</time>
</trkpt>
<trkpt lat="46.0252320" lon="9.4737210">
	<ele>1822.00</ele>
	<time>2023-07-15T08:43:24.000Z</time>
</trkpt>
<trkpt lat="46.0252320" lon="9.4737390">
	<ele>1821.80</ele>
	<time>2023-07-15T08:43:25.000Z</time>
</trkpt>
<trkpt lat="46.0252360" lon="9.4737790">
	<ele>1821.40</ele>
	<time>2023-07-15T08:43:27.000Z</time>
</trkpt>
<trkpt lat="46.0252550" lon="9.4738790">
	<ele>1820.80</ele>
	<time>2023-07-15T08:43:32.000Z</time>
</trkpt>
<trkpt lat="46.0252580" lon="9.4739010">
	<ele>1820.80</ele>
	<time>2023-07-15T08:43:33.000Z</time>
</trkpt>
<trkpt lat="46.0252590" lon="9.4739210">
	<ele>1820.60</ele>
	<time>2023-07-15T08:43:34.000Z</time>
</trkpt>
<trkpt lat="46.0252580" lon="9.4739790">
	<ele>1819.80</ele>
	<time>2023-07-15T08:43:38.000Z</time>
</trkpt>
<trkpt lat="46.0252650" lon="9.4740080">
	<ele>1819.40</ele>
	<time>2023-07-15T08:43:40.000Z</time>
</trkpt>
<trkpt lat="46.0252730" lon="9.4740710">
	<ele>1818.80</ele>
	<time>2023-07-15T08:43:44.000Z</time>
</trkpt>
<trkpt lat="46.0252600" lon="9.4741270">
	<ele>1818.20</ele>
	<time>2023-07-15T08:43:48.000Z</time>
</trkpt>
<trkpt lat="46.0252480" lon="9.4741510">
	<ele>1817.60</ele>
	<time>2023-07-15T08:43:50.000Z</time>
</trkpt>
<trkpt lat="46.0252410" lon="9.4741780">
	<ele>1817.40</ele>
	<time>2023-07-15T08:43:52.000Z</time>
</trkpt>
<trkpt lat="46.0252400" lon="9.4742290">
	<ele>1817.20</ele>
	<time>2023-07-15T08:43:55.000Z</time>
</trkpt>
<trkpt lat="46.0252310" lon="9.4743340">
	<ele>1816.60</ele>
	<time>2023-07-15T08:44:00.000Z</time>
</trkpt>
<trkpt lat="46.0252230" lon="9.4744310">
	<ele>1816.00</ele>
	<time>2023-07-15T08:44:05.000Z</time>
</trkpt>
<trkpt lat="46.0252160" lon="9.4744870">
	<ele>1815.60</ele>
	<time>2023-07-15T08:44:08.000Z</time>
</trkpt>
<trkpt lat="46.0251900" lon="9.4745870">
	<ele>1815.00</ele>
	<time>2023-07-15T08:44:14.000Z</time>
</trkpt>
<trkpt lat="46.0251620" lon="9.4746350">
	<ele>1814.40</ele>
	<time>2023-07-15T08:44:17.000Z</time>
</trkpt>
<trkpt lat="46.0251380" lon="9.4746980">
	<ele>1813.40</ele>
	<time>2023-07-15T08:44:21.000Z</time>
</trkpt>
<trkpt lat="46.0251370" lon="9.4747130">
	<ele>1813.40</ele>
	<time>2023-07-15T08:44:22.000Z</time>
</trkpt>
<trkpt lat="46.0251390" lon="9.4747440">
	<ele>1813.20</ele>
	<time>2023-07-15T08:44:24.000Z</time>
</trkpt>
<trkpt lat="46.0251270" lon="9.4747960">
	<ele>1812.40</ele>
	<time>2023-07-15T08:44:27.000Z</time>
</trkpt>
<trkpt lat="46.0251190" lon="9.4748120">
	<ele>1812.20</ele>
	<time>2023-07-15T08:44:28.000Z</time>
</trkpt>
<trkpt lat="46.0251020" lon="9.4748810">
	<ele>1811.20</ele>
	<time>2023-07-15T08:44:32.000Z</time>
</trkpt>
<trkpt lat="46.0251030" lon="9.4749360">
	<ele>1810.20</ele>
	<time>2023-07-15T08:44:36.000Z</time>
</trkpt>
<trkpt lat="46.0251020" lon="9.4749700">
	<ele>1809.40</ele>
	<time>2023-07-15T08:44:39.000Z</time>
</trkpt>
<trkpt lat="46.0251000" lon="9.4749950">
	<ele>1809.20</ele>
	<time>2023-07-15T08:44:41.000Z</time>
</trkpt>
<trkpt lat="46.0251050" lon="9.4750310">
	<ele>1808.80</ele>
	<time>2023-07-15T08:44:43.000Z</time>
</trkpt>
<trkpt lat="46.0251140" lon="9.4750720">
	<ele>1808.00</ele>
	<time>2023-07-15T08:44:48.000Z</time>
</trkpt>
<trkpt lat="46.0251100" lon="9.4750710">
	<ele>1807.80</ele>
	<time>2023-07-15T08:44:50.000Z</time>
</trkpt>
<trkpt lat="46.0251090" lon="9.4750720">
	<ele>1807.80</ele>
	<time>2023-07-15T08:44:51.000Z</time>
</trkpt>
<trkpt lat="46.0251070" lon="9.4751090">
	<ele>1807.80</ele>
	<time>2023-07-15T08:44:54.000Z</time>
</trkpt>
<trkpt lat="46.0251080" lon="9.4751360">
	<ele>1807.60</ele>
	<time>2023-07-15T08:44:56.000Z</time>
</trkpt>
<trkpt lat="46.0251110" lon="9.4752130">
	<ele>1807.00</ele>
	<time>2023-07-15T08:45:01.000Z</time>
</trkpt>
<trkpt lat="46.0251150" lon="9.4752460">
	<ele>1806.20</ele>
	<time>2023-07-15T08:45:05.000Z</time>
</trkpt>
<trkpt lat="46.0251140" lon="9.4752470">
	<ele>1806.20</ele>
	<time>2023-07-15T08:45:06.000Z</time>
</trkpt>
<trkpt lat="46.0251140" lon="9.4752460">
	<ele>1806.00</ele>
	<time>2023-07-15T08:45:08.000Z</time>
</trkpt>
<trkpt lat="46.0251120" lon="9.4752430">
	<ele>1805.80</ele>
	<time>2023-07-15T08:45:09.000Z</time>
</trkpt>
<trkpt lat="46.0251220" lon="9.4752710">
	<ele>1805.80</ele>
	<time>2023-07-15T08:45:13.000Z</time>
</trkpt>
<trkpt lat="46.0251430" lon="9.4753870">
	<ele>1805.20</ele>
	<time>2023-07-15T08:45:20.000Z</time>
</trkpt>
<trkpt lat="46.0251590" lon="9.4754540">
	<ele>1805.00</ele>
	<time>2023-07-15T08:45:24.000Z</time>
</trkpt>
<trkpt lat="46.0251660" lon="9.4754700">
	<ele>1804.80</ele>
	<time>2023-07-15T08:45:25.000Z</time>
</trkpt>
<trkpt lat="46.0251700" lon="9.4754880">
	<ele>1804.80</ele>
	<time>2023-07-15T08:45:26.000Z</time>
</trkpt>
<trkpt lat="46.0251880" lon="9.4756170">
	<ele>1804.20</ele>
	<time>2023-07-15T08:45:33.000Z</time>
</trkpt>
<trkpt lat="46.0251930" lon="9.4756650">
	<ele>1803.80</ele>
	<time>2023-07-15T08:45:37.000Z</time>
</trkpt>
<trkpt lat="46.0252090" lon="9.4757060">
	<ele>1803.40</ele>
	<time>2023-07-15T08:45:40.000Z</time>
</trkpt>
<trkpt lat="46.0252320" lon="9.4758390">
	<ele>1803.00</ele>
	<time>2023-07-15T08:45:48.000Z</time>
</trkpt>
<trkpt lat="46.0252380" lon="9.4758680">
	<ele>1803.00</ele>
	<time>2023-07-15T08:45:50.000Z</time>
</trkpt>
<trkpt lat="46.0252270" lon="9.4759750">
	<ele>1802.80</ele>
	<time>2023-07-15T08:45:55.000Z</time>
</trkpt>
<trkpt lat="46.0252240" lon="9.4759940">
	<ele>1803.00</ele>
	<time>2023-07-15T08:45:56.000Z</time>
</trkpt>
<trkpt lat="46.0252200" lon="9.4760120">
	<ele>1803.00</ele>
	<time>2023-07-15T08:45:57.000Z</time>
</trkpt>
<trkpt lat="46.0252170" lon="9.4760560">
	<ele>1803.00</ele>
	<time>2023-07-15T08:46:00.000Z</time>
</trkpt>
<trkpt lat="46.0252140" lon="9.4760910">
	<ele>1802.60</ele>
	<time>2023-07-15T08:46:02.000Z</time>
</trkpt>
<trkpt lat="46.0252130" lon="9.4761090">
	<ele>1802.40</ele>
	<time>2023-07-15T08:46:03.000Z</time>
</trkpt>
<trkpt lat="46.0252180" lon="9.4762230">
	<ele>1801.80</ele>
	<time>2023-07-15T08:46:10.000Z</time>
</trkpt>
<trkpt lat="46.0252180" lon="9.4762250">
	<ele>1801.80</ele>
	<time>2023-07-15T08:46:11.000Z</time>
</trkpt>
<trkpt lat="46.0252180" lon="9.4762240">
	<ele>1802.00</ele>
	<time>2023-07-15T08:46:12.000Z</time>
</trkpt>
<trkpt lat="46.0252190" lon="9.4762250">
	<ele>1802.40</ele>
	<time>2023-07-15T08:46:14.000Z</time>
</trkpt>
<trkpt lat="46.0252200" lon="9.4762190">
	<ele>1802.20</ele>
	<time>2023-07-15T08:46:26.000Z</time>
</trkpt>
<trkpt lat="46.0252200" lon="9.4762210">
	<ele>1802.20</ele>
	<time>2023-07-15T08:46:32.000Z</time>
</trkpt>
<trkpt lat="46.0252210" lon="9.4762270">
	<ele>1802.00</ele>
	<time>2023-07-15T08:46:34.000Z</time>
</trkpt>
<trkpt lat="46.0252300" lon="9.4763740">
	<ele>1802.40</ele>
	<time>2023-07-15T08:46:41.000Z</time>
</trkpt>
<trkpt lat="46.0252300" lon="9.4765260">
	<ele>1802.80</ele>
	<time>2023-07-15T08:46:50.000Z</time>
</trkpt>
<trkpt lat="46.0252260" lon="9.4766760">
	<ele>1802.60</ele>
	<time>2023-07-15T08:46:59.000Z</time>
</trkpt>
<trkpt lat="46.0252150" lon="9.4768550">
	<ele>1802.00</ele>
	<time>2023-07-15T08:47:10.000Z</time>
</trkpt>
<trkpt lat="46.0252160" lon="9.4769470">
	<ele>1801.40</ele>
	<time>2023-07-15T08:47:16.000Z</time>
</trkpt>
<trkpt lat="46.0252150" lon="9.4769650">
	<ele>1801.40</ele>
	<time>2023-07-15T08:47:17.000Z</time>
</trkpt>
<trkpt lat="46.0252270" lon="9.4771960">
	<ele>1801.20</ele>
	<time>2023-07-15T08:47:28.000Z</time>
</trkpt>
<trkpt lat="46.0252450" lon="9.4773740">
	<ele>1802.20</ele>
	<time>2023-07-15T08:47:37.000Z</time>
</trkpt>
<trkpt lat="46.0252420" lon="9.4774100">
	<ele>1802.40</ele>
	<time>2023-07-15T08:47:39.000Z</time>
</trkpt>
<trkpt lat="46.0252380" lon="9.4774440">
	<ele>1802.60</ele>
	<time>2023-07-15T08:47:41.000Z</time>
</trkpt>
<trkpt lat="46.0252430" lon="9.4774950">
	<ele>1803.00</ele>
	<time>2023-07-15T08:47:44.000Z</time>
</trkpt>
<trkpt lat="46.0252410" lon="9.4775560">
	<ele>1803.40</ele>
	<time>2023-07-15T08:47:47.000Z</time>
</trkpt>
<trkpt lat="46.0252410" lon="9.4776110">
	<ele>1803.60</ele>
	<time>2023-07-15T08:47:50.000Z</time>
</trkpt>
<trkpt lat="46.0252450" lon="9.4776280">
	<ele>1803.60</ele>
	<time>2023-07-15T08:47:51.000Z</time>
</trkpt>
<trkpt lat="46.0252450" lon="9.4776580">
	<ele>1803.60</ele>
	<time>2023-07-15T08:47:53.000Z</time>
</trkpt>
<trkpt lat="46.0252440" lon="9.4777710">
	<ele>1804.40</ele>
	<time>2023-07-15T08:48:00.000Z</time>
</trkpt>
<trkpt lat="46.0252460" lon="9.4777860">
	<ele>1804.60</ele>
	<time>2023-07-15T08:48:03.000Z</time>
</trkpt>
<trkpt lat="46.0252470" lon="9.4777870">
	<ele>1804.80</ele>
	<time>2023-07-15T08:48:04.000Z</time>
</trkpt>
<trkpt lat="46.0252460" lon="9.4777870">
	<ele>1805.20</ele>
	<time>2023-07-15T08:48:06.000Z</time>
</trkpt>
<trkpt lat="46.0252460" lon="9.4777870">
	<ele>1805.20</ele>
	<time>2023-07-15T08:48:07.000Z</time>
</trkpt>
<trkpt lat="46.0252630" lon="9.4778820">
	<ele>1805.00</ele>
	<time>2023-07-15T08:48:14.000Z</time>
</trkpt>
<trkpt lat="46.0252660" lon="9.4780120">
	<ele>1805.60</ele>
	<time>2023-07-15T08:48:22.000Z</time>
</trkpt>
<trkpt lat="46.0252620" lon="9.4781170">
	<ele>1805.80</ele>
	<time>2023-07-15T08:48:28.000Z</time>
</trkpt>
<trkpt lat="46.0252490" lon="9.4781520">
	<ele>1805.80</ele>
	<time>2023-07-15T08:48:30.000Z</time>
</trkpt>
<trkpt lat="46.0252480" lon="9.4782670">
	<ele>1805.60</ele>
	<time>2023-07-15T08:48:37.000Z</time>
</trkpt>
<trkpt lat="46.0252270" lon="9.4784050">
	<ele>1804.40</ele>
	<time>2023-07-15T08:48:46.000Z</time>
</trkpt>
<trkpt lat="46.0252260" lon="9.4784640">
	<ele>1803.60</ele>
	<time>2023-07-15T08:48:50.000Z</time>
</trkpt>
<trkpt lat="46.0252030" lon="9.4785280">
	<ele>1802.40</ele>
	<time>2023-07-15T08:48:55.000Z</time>
</trkpt>
<trkpt lat="46.0252040" lon="9.4785900">
	<ele>1801.20</ele>
	<time>2023-07-15T08:49:00.000Z</time>
</trkpt>
<trkpt lat="46.0252020" lon="9.4786110">
	<ele>1801.00</ele>
	<time>2023-07-15T08:49:03.000Z</time>
</trkpt>
<trkpt lat="46.0251970" lon="9.4786500">
	<ele>1800.00</ele>
	<time>2023-07-15T08:49:07.000Z</time>
</trkpt>
<trkpt lat="46.0251850" lon="9.4786950">
	<ele>1799.00</ele>
	<time>2023-07-15T08:49:11.000Z</time>
</trkpt>
<trkpt lat="46.0251810" lon="9.4787250">
	<ele>1798.60</ele>
	<time>2023-07-15T08:49:13.000Z</time>
</trkpt>
<trkpt lat="46.0251790" lon="9.4787810">
	<ele>1797.80</ele>
	<time>2023-07-15T08:49:17.000Z</time>
</trkpt>
<trkpt lat="46.0251780" lon="9.4787930">
	<ele>1797.80</ele>
	<time>2023-07-15T08:49:18.000Z</time>
</trkpt>
<trkpt lat="46.0251740" lon="9.4788430">
	<ele>1796.60</ele>
	<time>2023-07-15T08:49:22.000Z</time>
</trkpt>
<trkpt lat="46.0251690" lon="9.4788690">
	<ele>1795.80</ele>
	<time>2023-07-15T08:49:26.000Z</time>
</trkpt>
<trkpt lat="46.0251690" lon="9.4789000">
	<ele>1795.40</ele>
	<time>2023-07-15T08:49:28.000Z</time>
</trkpt>
<trkpt lat="46.0251570" lon="9.4789620">
	<ele>1794.20</ele>
	<time>2023-07-15T08:49:32.000Z</time>
</trkpt>
<trkpt lat="46.0251570" lon="9.4789780">
	<ele>1794.00</ele>
	<time>2023-07-15T08:49:33.000Z</time>
</trkpt>
<trkpt lat="46.0251500" lon="9.4790240">
	<ele>1793.20</ele>
	<time>2023-07-15T08:49:37.000Z</time>
</trkpt>
<trkpt lat="46.0251400" lon="9.4790590">
	<ele>1793.00</ele>
	<time>2023-07-15T08:49:40.000Z</time>
</trkpt>
<trkpt lat="46.0251290" lon="9.4790880">
	<ele>1792.40</ele>
	<time>2023-07-15T08:49:43.000Z</time>
</trkpt>
<trkpt lat="46.0251270" lon="9.4791030">
	<ele>1792.00</ele>
	<time>2023-07-15T08:49:44.000Z</time>
</trkpt>
<trkpt lat="46.0251320" lon="9.4791480">
	<ele>1791.40</ele>
	<time>2023-07-15T08:49:47.000Z</time>
</trkpt>
<trkpt lat="46.0251300" lon="9.4792040">
	<ele>1791.00</ele>
	<time>2023-07-15T08:49:50.000Z</time>
</trkpt>
<trkpt lat="46.0251390" lon="9.4793090">
	<ele>1790.40</ele>
	<time>2023-07-15T08:49:56.000Z</time>
</trkpt>
<trkpt lat="46.0251470" lon="9.4793440">
	<ele>1790.20</ele>
	<time>2023-07-15T08:49:58.000Z</time>
</trkpt>
<trkpt lat="46.0251550" lon="9.4794010">
	<ele>1790.00</ele>
	<time>2023-07-15T08:50:01.000Z</time>
</trkpt>
<trkpt lat="46.0251790" lon="9.4794870">
	<ele>1789.80</ele>
	<time>2023-07-15T08:50:06.000Z</time>
</trkpt>
<trkpt lat="46.0251910" lon="9.4796540">
	<ele>1789.60</ele>
	<time>2023-07-15T08:50:15.000Z</time>
</trkpt>
<trkpt lat="46.0251910" lon="9.4796870">
	<ele>1789.60</ele>
	<time>2023-07-15T08:50:17.000Z</time>
</trkpt>
<trkpt lat="46.0252000" lon="9.4797730">
	<ele>1788.80</ele>
	<time>2023-07-15T08:50:22.000Z</time>
</trkpt>
<trkpt lat="46.0251980" lon="9.4797890">
	<ele>1788.80</ele>
	<time>2023-07-15T08:50:23.000Z</time>
</trkpt>
<trkpt lat="46.0252010" lon="9.4798220">
	<ele>1788.60</ele>
	<time>2023-07-15T08:50:25.000Z</time>
</trkpt>
<trkpt lat="46.0252050" lon="9.4799010">
	<ele>1787.80</ele>
	<time>2023-07-15T08:50:29.000Z</time>
</trkpt>
<trkpt lat="46.0252020" lon="9.4799590">
	<ele>1787.60</ele>
	<time>2023-07-15T08:50:32.000Z</time>
</trkpt>
<trkpt lat="46.0251720" lon="9.4800960">
	<ele>1787.00</ele>
	<time>2023-07-15T08:50:40.000Z</time>
</trkpt>
<trkpt lat="46.0251670" lon="9.4801070">
	<ele>1787.00</ele>
	<time>2023-07-15T08:50:41.000Z</time>
</trkpt>
<trkpt lat="46.0251660" lon="9.4801130">
	<ele>1786.80</ele>
	<time>2023-07-15T08:50:42.000Z</time>
</trkpt>
<trkpt lat="46.0251650" lon="9.4801190">
	<ele>1786.60</ele>
	<time>2023-07-15T08:50:44.000Z</time>
</trkpt>
<trkpt lat="46.0251650" lon="9.4801200">
	<ele>1786.60</ele>
	<time>2023-07-15T08:50:45.000Z</time>
</trkpt>
<trkpt lat="46.0251660" lon="9.4801250">
	<ele>1786.60</ele>
	<time>2023-07-15T08:50:48.000Z</time>
</trkpt>
<trkpt lat="46.0251490" lon="9.4802220">
	<ele>1786.00</ele>
	<time>2023-07-15T08:50:54.000Z</time>
</trkpt>
<trkpt lat="46.0251450" lon="9.4803230">
	<ele>1786.40</ele>
	<time>2023-07-15T08:51:02.000Z</time>
</trkpt>
<trkpt lat="46.0251880" lon="9.4803930">
	<ele>1787.40</ele>
	<time>2023-07-15T08:51:10.000Z</time>
</trkpt>
<trkpt lat="46.0252030" lon="9.4804540">
	<ele>1787.80</ele>
	<time>2023-07-15T08:51:15.000Z</time>
</trkpt>
<trkpt lat="46.0252040" lon="9.4804990">
	<ele>1788.60</ele>
	<time>2023-07-15T08:51:19.000Z</time>
</trkpt>
<trkpt lat="46.0252040" lon="9.4805120">
	<ele>1788.80</ele>
	<time>2023-07-15T08:51:20.000Z</time>
</trkpt>
<trkpt lat="46.0252050" lon="9.4805300">
	<ele>1789.00</ele>
	<time>2023-07-15T08:51:22.000Z</time>
</trkpt>
<trkpt lat="46.0252030" lon="9.4805490">
	<ele>1789.60</ele>
	<time>2023-07-15T08:51:25.000Z</time>
</trkpt>
<trkpt lat="46.0252000" lon="9.4805620">
	<ele>1790.20</ele>
	<time>2023-07-15T08:51:27.000Z</time>
</trkpt>
<trkpt lat="46.0251930" lon="9.4805910">
	<ele>1790.80</ele>
	<time>2023-07-15T08:51:31.000Z</time>
</trkpt>
<trkpt lat="46.0251970" lon="9.4806330">
	<ele>1791.20</ele>
	<time>2023-07-15T08:51:35.000Z</time>
</trkpt>
<trkpt lat="46.0251980" lon="9.4806820">
	<ele>1791.80</ele>
	<time>2023-07-15T08:51:39.000Z</time>
</trkpt>
<trkpt lat="46.0251990" lon="9.4807110">
	<ele>1792.20</ele>
	<time>2023-07-15T08:51:42.000Z</time>
</trkpt>
<trkpt lat="46.0252020" lon="9.4807230">
	<ele>1792.40</ele>
	<time>2023-07-15T08:51:43.000Z</time>
</trkpt>
<trkpt lat="46.0252030" lon="9.4807340">
	<ele>1792.40</ele>
	<time>2023-07-15T08:51:44.000Z</time>
</trkpt>
<trkpt lat="46.0252070" lon="9.4808010">
	<ele>1793.40</ele>
	<time>2023-07-15T08:51:51.000Z</time>
</trkpt>
<trkpt lat="46.0251970" lon="9.4809220">
	<ele>1794.40</ele>
	<time>2023-07-15T08:52:00.000Z</time>
</trkpt>
<trkpt lat="46.0251950" lon="9.4809360">
	<ele>1794.60</ele>
	<time>2023-07-15T08:52:01.000Z</time>
</trkpt>
<trkpt lat="46.0251850" lon="9.4810550">
	<ele>1794.80</ele>
	<time>2023-07-15T08:52:10.000Z</time>
</trkpt>
<trkpt lat="46.0251970" lon="9.4811790">
	<ele>1793.80</ele>
	<time>2023-07-15T08:52:18.000Z</time>
</trkpt>
<trkpt lat="46.0251950" lon="9.4812300">
	<ele>1793.40</ele>
	<time>2023-07-15T08:52:21.000Z</time>
</trkpt>
<trkpt lat="46.0252030" lon="9.4813000">
	<ele>1793.00</ele>
	<time>2023-07-15T08:52:25.000Z</time>
</trkpt>
<trkpt lat="46.0252110" lon="9.4814620">
	<ele>1793.00</ele>
	<time>2023-07-15T08:52:35.000Z</time>
</trkpt>
<trkpt lat="46.0252040" lon="9.4814990">
	<ele>1793.40</ele>
	<time>2023-07-15T08:52:39.000Z</time>
</trkpt>
<trkpt lat="46.0251980" lon="9.4815330">
	<ele>1794.00</ele>
	<time>2023-07-15T08:52:42.000Z</time>
</trkpt>
<trkpt lat="46.0251910" lon="9.4815570">
	<ele>1794.20</ele>
	<time>2023-07-15T08:52:44.000Z</time>
</trkpt>
<trkpt lat="46.0251910" lon="9.4815710">
	<ele>1794.40</ele>
	<time>2023-07-15T08:52:45.000Z</time>
</trkpt>
<trkpt lat="46.0251970" lon="9.4816280">
	<ele>1795.20</ele>
	<time>2023-07-15T08:52:49.000Z</time>
</trkpt>
<trkpt lat="46.0251970" lon="9.4816410">
	<ele>1795.40</ele>
	<time>2023-07-15T08:52:51.000Z</time>
</trkpt>
<trkpt lat="46.0251970" lon="9.4816440">
	<ele>1795.60</ele>
	<time>2023-07-15T08:52:52.000Z</time>
</trkpt>
<trkpt lat="46.0251960" lon="9.4816600">
	<ele>1795.80</ele>
	<time>2023-07-15T08:52:54.000Z</time>
</trkpt>
<trkpt lat="46.0251990" lon="9.4816690">
	<ele>1795.80</ele>
	<time>2023-07-15T08:52:55.000Z</time>
</trkpt>
<trkpt lat="46.0252060" lon="9.4816910">
	<ele>1795.80</ele>
	<time>2023-07-15T08:52:57.000Z</time>
</trkpt>
<trkpt lat="46.0252090" lon="9.4817350">
	<ele>1795.60</ele>
	<time>2023-07-15T08:53:00.000Z</time>
</trkpt>
<trkpt lat="46.0252180" lon="9.4817860">
	<ele>1795.60</ele>
	<time>2023-07-15T08:53:03.000Z</time>
</trkpt>
<trkpt lat="46.0252160" lon="9.4818050">
	<ele>1795.60</ele>
	<time>2023-07-15T08:53:04.000Z</time>
</trkpt>
<trkpt lat="46.0252380" lon="9.4818790">
	<ele>1796.00</ele>
	<time>2023-07-15T08:53:09.000Z</time>
</trkpt>
<trkpt lat="46.0252670" lon="9.4819870">
	<ele>1795.60</ele>
	<time>2023-07-15T08:53:17.000Z</time>
</trkpt>
<trkpt lat="46.0252610" lon="9.4820210">
	<ele>1796.20</ele>
	<time>2023-07-15T08:53:20.000Z</time>
</trkpt>
<trkpt lat="46.0252630" lon="9.4820520">
	<ele>1796.40</ele>
	<time>2023-07-15T08:53:25.000Z</time>
</trkpt>
<trkpt lat="46.0252580" lon="9.4820560">
	<ele>1796.00</ele>
	<time>2023-07-15T08:53:33.000Z</time>
</trkpt>
<trkpt lat="46.0252570" lon="9.4820580">
	<ele>1796.20</ele>
	<time>2023-07-15T08:53:40.000Z</time>
</trkpt>
<trkpt lat="46.0252600" lon="9.4820580">
	<ele>1796.40</ele>
	<time>2023-07-15T08:53:52.000Z</time>
</trkpt>
<trkpt lat="46.0252610" lon="9.4820580">
	<ele>1796.00</ele>
	<time>2023-07-15T08:54:00.000Z</time>
</trkpt>
<trkpt lat="46.0252710" lon="9.4820610">
	<ele>1796.20</ele>
	<time>2023-07-15T08:54:09.000Z</time>
</trkpt>
<trkpt lat="46.0252760" lon="9.4820610">
	<ele>1796.40</ele>
	<time>2023-07-15T08:54:16.000Z</time>
</trkpt>
<trkpt lat="46.0252600" lon="9.4820410">
	<ele>1796.40</ele>
	<time>2023-07-15T08:54:22.000Z</time>
</trkpt>
<trkpt lat="46.0252530" lon="9.4820330">
	<ele>1796.60</ele>
	<time>2023-07-15T08:54:25.000Z</time>
</trkpt>
<trkpt lat="46.0252500" lon="9.4820260">
	<ele>1796.80</ele>
	<time>2023-07-15T08:54:30.000Z</time>
</trkpt>
<trkpt lat="46.0252530" lon="9.4820330">
	<ele>1796.80</ele>
	<time>2023-07-15T08:54:42.000Z</time>
</trkpt>
<trkpt lat="46.0252530" lon="9.4820320">
	<ele>1796.20</ele>
	<time>2023-07-15T08:54:48.000Z</time>
</trkpt>
<trkpt lat="46.0252900" lon="9.4821350">
	<ele>1797.20</ele>
	<time>2023-07-15T08:55:12.000Z</time>
</trkpt>
<trkpt lat="46.0253240" lon="9.4821920">
	<ele>1797.60</ele>
	<time>2023-07-15T08:55:16.000Z</time>
</trkpt>
<trkpt lat="46.0253270" lon="9.4822480">
	<ele>1798.60</ele>
	<time>2023-07-15T08:55:21.000Z</time>
</trkpt>
<trkpt lat="46.0253260" lon="9.4822530">
	<ele>1798.80</ele>
	<time>2023-07-15T08:55:22.000Z</time>
</trkpt>
<trkpt lat="46.0253160" lon="9.4822650">
	<ele>1799.40</ele>
	<time>2023-07-15T08:55:25.000Z</time>
</trkpt>
<trkpt lat="46.0253160" lon="9.4822690">
	<ele>1799.80</ele>
	<time>2023-07-15T08:55:27.000Z</time>
</trkpt>
<trkpt lat="46.0253160" lon="9.4822730">
	<ele>1800.00</ele>
	<time>2023-07-15T08:55:28.000Z</time>
</trkpt>
<trkpt lat="46.0253180" lon="9.4822780">
	<ele>1800.00</ele>
	<time>2023-07-15T08:55:29.000Z</time>
</trkpt>
<trkpt lat="46.0253220" lon="9.4823110">
	<ele>1800.80</ele>
	<time>2023-07-15T08:55:32.000Z</time>
</trkpt>
<trkpt lat="46.0253160" lon="9.4823390">
	<ele>1801.80</ele>
	<time>2023-07-15T08:55:36.000Z</time>
</trkpt>
<trkpt lat="46.0253180" lon="9.4823490">
	<ele>1802.00</ele>
	<time>2023-07-15T08:55:37.000Z</time>
</trkpt>
<trkpt lat="46.0253330" lon="9.4824290">
	<ele>1802.40</ele>
	<time>2023-07-15T08:55:43.000Z</time>
</trkpt>
<trkpt lat="46.0253450" lon="9.4824810">
	<ele>1802.60</ele>
	<time>2023-07-15T08:55:47.000Z</time>
</trkpt>
<trkpt lat="46.0253550" lon="9.4825220">
	<ele>1803.00</ele>
	<time>2023-07-15T08:55:50.000Z</time>
</trkpt>
<trkpt lat="46.0253610" lon="9.4825550">
	<ele>1803.40</ele>
	<time>2023-07-15T08:55:53.000Z</time>
</trkpt>
<trkpt lat="46.0253600" lon="9.4825960">
	<ele>1803.80</ele>
	<time>2023-07-15T08:55:57.000Z</time>
</trkpt>
<trkpt lat="46.0253600" lon="9.4826100">
	<ele>1804.00</ele>
	<time>2023-07-15T08:55:58.000Z</time>
</trkpt>
<trkpt lat="46.0253590" lon="9.4826300">
	<ele>1804.60</ele>
	<time>2023-07-15T08:56:00.000Z</time>
</trkpt>
<trkpt lat="46.0253530" lon="9.4826570">
	<ele>1805.20</ele>
	<time>2023-07-15T08:56:02.000Z</time>
</trkpt>
<trkpt lat="46.0253570" lon="9.4827470">
	<ele>1806.00</ele>
	<time>2023-07-15T08:56:09.000Z</time>
</trkpt>
<trkpt lat="46.0253590" lon="9.4827510">
	<ele>1806.40</ele>
	<time>2023-07-15T08:56:10.000Z</time>
</trkpt>
<trkpt lat="46.0253660" lon="9.4827770">
	<ele>1806.80</ele>
	<time>2023-07-15T08:56:14.000Z</time>
</trkpt>
<trkpt lat="46.0253750" lon="9.4827970">
	<ele>1807.20</ele>
	<time>2023-07-15T08:56:17.000Z</time>
</trkpt>
<trkpt lat="46.0253750" lon="9.4828040">
	<ele>1807.60</ele>
	<time>2023-07-15T08:56:18.000Z</time>
</trkpt>
<trkpt lat="46.0253680" lon="9.4828330">
	<ele>1808.20</ele>
	<time>2023-07-15T08:56:21.000Z</time>
</trkpt>
<trkpt lat="46.0253670" lon="9.4828470">
	<ele>1808.40</ele>
	<time>2023-07-15T08:56:22.000Z</time>
</trkpt>
<trkpt lat="46.0253690" lon="9.4828590">
	<ele>1808.40</ele>
	<time>2023-07-15T08:56:23.000Z</time>
</trkpt>
<trkpt lat="46.0253800" lon="9.4828810">
	<ele>1808.80</ele>
	<time>2023-07-15T08:56:25.000Z</time>
</trkpt>
<trkpt lat="46.0253860" lon="9.4829080">
	<ele>1809.40</ele>
	<time>2023-07-15T08:56:29.000Z</time>
</trkpt>
<trkpt lat="46.0253890" lon="9.4829230">
	<ele>1809.60</ele>
	<time>2023-07-15T08:56:30.000Z</time>
</trkpt>
<trkpt lat="46.0253930" lon="9.4829360">
	<ele>1809.80</ele>
	<time>2023-07-15T08:56:31.000Z</time>
</trkpt>
<trkpt lat="46.0253940" lon="9.4829530">
	<ele>1809.80</ele>
	<time>2023-07-15T08:56:32.000Z</time>
</trkpt>
<trkpt lat="46.0253950" lon="9.4830080">
	<ele>1810.40</ele>
	<time>2023-07-15T08:56:37.000Z</time>
</trkpt>
<trkpt lat="46.0253940" lon="9.4830360">
	<ele>1810.80</ele>
	<time>2023-07-15T08:56:39.000Z</time>
</trkpt>
<trkpt lat="46.0253900" lon="9.4831120">
	<ele>1811.20</ele>
	<time>2023-07-15T08:56:45.000Z</time>
</trkpt>
<trkpt lat="46.0253970" lon="9.4831300">
	<ele>1811.40</ele>
	<time>2023-07-15T08:56:48.000Z</time>
</trkpt>
<trkpt lat="46.0254000" lon="9.4831490">
	<ele>1811.80</ele>
	<time>2023-07-15T08:56:51.000Z</time>
</trkpt>
<trkpt lat="46.0253990" lon="9.4831540">
	<ele>1812.20</ele>
	<time>2023-07-15T08:56:52.000Z</time>
</trkpt>
<trkpt lat="46.0253950" lon="9.4831630">
	<ele>1812.40</ele>
	<time>2023-07-15T08:56:53.000Z</time>
</trkpt>
<trkpt lat="46.0254090" lon="9.4831930">
	<ele>1812.80</ele>
	<time>2023-07-15T08:56:57.000Z</time>
</trkpt>
<trkpt lat="46.0254140" lon="9.4832030">
	<ele>1813.00</ele>
	<time>2023-07-15T08:56:58.000Z</time>
</trkpt>
<trkpt lat="46.0254210" lon="9.4832200">
	<ele>1813.20</ele>
	<time>2023-07-15T08:57:00.000Z</time>
</trkpt>
<trkpt lat="46.0254280" lon="9.4832280">
	<ele>1813.40</ele>
	<time>2023-07-15T08:57:01.000Z</time>
</trkpt>
<trkpt lat="46.0254340" lon="9.4832450">
	<ele>1813.80</ele>
	<time>2023-07-15T08:57:03.000Z</time>
</trkpt>
<trkpt lat="46.0254360" lon="9.4832500">
	<ele>1814.20</ele>
	<time>2023-07-15T08:57:04.000Z</time>
</trkpt>
<trkpt lat="46.0254440" lon="9.4832740">
	<ele>1814.80</ele>
	<time>2023-07-15T08:57:07.000Z</time>
</trkpt>
<trkpt lat="46.0254480" lon="9.4832880">
	<ele>1815.00</ele>
	<time>2023-07-15T08:57:09.000Z</time>
</trkpt>
<trkpt lat="46.0254520" lon="9.4832980">
	<ele>1815.20</ele>
	<time>2023-07-15T08:57:10.000Z</time>
</trkpt>
<trkpt lat="46.0254550" lon="9.4833080">
	<ele>1815.40</ele>
	<time>2023-07-15T08:57:11.000Z</time>
</trkpt>
<trkpt lat="46.0254520" lon="9.4833480">
	<ele>1816.00</ele>
	<time>2023-07-15T08:57:15.000Z</time>
</trkpt>
<trkpt lat="46.0254530" lon="9.4833670">
	<ele>1816.20</ele>
	<time>2023-07-15T08:57:17.000Z</time>
</trkpt>
<trkpt lat="46.0254550" lon="9.4833760">
	<ele>1816.40</ele>
	<time>2023-07-15T08:57:18.000Z</time>
</trkpt>
<trkpt lat="46.0254610" lon="9.4833910">
	<ele>1816.80</ele>
	<time>2023-07-15T08:57:20.000Z</time>
</trkpt>
<trkpt lat="46.0254690" lon="9.4834110">
	<ele>1817.40</ele>
	<time>2023-07-15T08:57:23.000Z</time>
</trkpt>
<trkpt lat="46.0254730" lon="9.4834480">
	<ele>1818.00</ele>
	<time>2023-07-15T08:57:27.000Z</time>
</trkpt>
<trkpt lat="46.0254780" lon="9.4834760">
	<ele>1818.60</ele>
	<time>2023-07-15T08:57:30.000Z</time>
</trkpt>
<trkpt lat="46.0254840" lon="9.4835580">
	<ele>1819.20</ele>
	<time>2023-07-15T08:57:36.000Z</time>
</trkpt>
<trkpt lat="46.0254900" lon="9.4835810">
	<ele>1819.40</ele>
	<time>2023-07-15T08:57:38.000Z</time>
</trkpt>
<trkpt lat="46.0255010" lon="9.4836290">
	<ele>1819.80</ele>
	<time>2023-07-15T08:57:41.000Z</time>
</trkpt>
<trkpt lat="46.0255030" lon="9.4836470">
	<ele>1819.80</ele>
	<time>2023-07-15T08:57:42.000Z</time>
</trkpt>
<trkpt lat="46.0255280" lon="9.4838360">
	<ele>1820.00</ele>
	<time>2023-07-15T08:57:55.000Z</time>
</trkpt>
<trkpt lat="46.0255460" lon="9.4839500">
	<ele>1820.80</ele>
	<time>2023-07-15T08:58:03.000Z</time>
</trkpt>
<trkpt lat="46.0255490" lon="9.4839570">
	<ele>1820.80</ele>
	<time>2023-07-15T08:58:04.000Z</time>
</trkpt>
<trkpt lat="46.0255630" lon="9.4840250">
	<ele>1821.80</ele>
	<time>2023-07-15T08:58:10.000Z</time>
</trkpt>
<trkpt lat="46.0255630" lon="9.4840490">
	<ele>1822.20</ele>
	<time>2023-07-15T08:58:12.000Z</time>
</trkpt>
<trkpt lat="46.0255630" lon="9.4840790">
	<ele>1822.40</ele>
	<time>2023-07-15T08:58:15.000Z</time>
</trkpt>
<trkpt lat="46.0255650" lon="9.4841210">
	<ele>1823.00</ele>
	<time>2023-07-15T08:58:20.000Z</time>
</trkpt>
<trkpt lat="46.0255660" lon="9.4841340">
	<ele>1823.40</ele>
	<time>2023-07-15T08:58:22.000Z</time>
</trkpt>
<trkpt lat="46.0255680" lon="9.4841480">
	<ele>1824.20</ele>
	<time>2023-07-15T08:58:25.000Z</time>
</trkpt>
<trkpt lat="46.0255710" lon="9.4841600">
	<ele>1824.40</ele>
	<time>2023-07-15T08:58:27.000Z</time>
</trkpt>
<trkpt lat="46.0255780" lon="9.4841890">
	<ele>1825.20</ele>
	<time>2023-07-15T08:58:31.000Z</time>
</trkpt>
<trkpt lat="46.0255780" lon="9.4842120">
	<ele>1826.00</ele>
	<time>2023-07-15T08:58:35.000Z</time>
</trkpt>
<trkpt lat="46.0255750" lon="9.4842430">
	<ele>1826.40</ele>
	<time>2023-07-15T08:58:39.000Z</time>
</trkpt>
<trkpt lat="46.0255750" lon="9.4842920">
	<ele>1827.00</ele>
	<time>2023-07-15T08:58:44.000Z</time>
</trkpt>
<trkpt lat="46.0255730" lon="9.4843100">
	<ele>1827.60</ele>
	<time>2023-07-15T08:58:47.000Z</time>
</trkpt>
<trkpt lat="46.0255800" lon="9.4843390">
	<ele>1828.60</ele>
	<time>2023-07-15T08:58:52.000Z</time>
</trkpt>
<trkpt lat="46.0255830" lon="9.4843440">
	<ele>1828.80</ele>
	<time>2023-07-15T08:58:53.000Z</time>
</trkpt>
<trkpt lat="46.0256070" lon="9.4843720">
	<ele>1829.80</ele>
	<time>2023-07-15T08:59:00.000Z</time>
</trkpt>
<trkpt lat="46.0256160" lon="9.4843820">
	<ele>1830.20</ele>
	<time>2023-07-15T08:59:02.000Z</time>
</trkpt>
<trkpt lat="46.0256180" lon="9.4844030">
	<ele>1830.80</ele>
	<time>2023-07-15T08:59:06.000Z</time>
</trkpt>
<trkpt lat="46.0256140" lon="9.4844490">
	<ele>1832.00</ele>
	<time>2023-07-15T08:59:12.000Z</time>
</trkpt>
<trkpt lat="46.0256010" lon="9.4845070">
	<ele>1832.80</ele>
	<time>2023-07-15T08:59:18.000Z</time>
</trkpt>
<trkpt lat="46.0255950" lon="9.4845330">
	<ele>1833.00</ele>
	<time>2023-07-15T08:59:20.000Z</time>
</trkpt>
<trkpt lat="46.0255880" lon="9.4845870">
	<ele>1833.20</ele>
	<time>2023-07-15T08:59:25.000Z</time>
</trkpt>
<trkpt lat="46.0255860" lon="9.4846100">
	<ele>1833.20</ele>
	<time>2023-07-15T08:59:31.000Z</time>
</trkpt>
<trkpt lat="46.0255880" lon="9.4846140">
	<ele>1833.60</ele>
	<time>2023-07-15T08:59:40.000Z</time>
</trkpt>
<trkpt lat="46.0255840" lon="9.4846500">
	<ele>1833.60</ele>
	<time>2023-07-15T08:59:46.000Z</time>
</trkpt>
<trkpt lat="46.0255800" lon="9.4846850">
	<ele>1833.60</ele>
	<time>2023-07-15T08:59:48.000Z</time>
</trkpt>
<trkpt lat="46.0255700" lon="9.4847740">
	<ele>1834.00</ele>
	<time>2023-07-15T08:59:54.000Z</time>
</trkpt>
<trkpt lat="46.0255780" lon="9.4847900">
	<ele>1834.40</ele>
	<time>2023-07-15T08:59:56.000Z</time>
</trkpt>
<trkpt lat="46.0255820" lon="9.4848370">
	<ele>1835.20</ele>
	<time>2023-07-15T09:00:01.000Z</time>
</trkpt>
<trkpt lat="46.0255760" lon="9.4848740">
	<ele>1836.20</ele>
	<time>2023-07-15T09:00:05.000Z</time>
</trkpt>
<trkpt lat="46.0255860" lon="9.4848990">
	<ele>1836.60</ele>
	<time>2023-07-15T09:00:08.000Z</time>
</trkpt>
<trkpt lat="46.0255920" lon="9.4849220">
	<ele>1837.20</ele>
	<time>2023-07-15T09:00:11.000Z</time>
</trkpt>
<trkpt lat="46.0255920" lon="9.4849690">
	<ele>1838.40</ele>
	<time>2023-07-15T09:00:17.000Z</time>
</trkpt>
<trkpt lat="46.0255950" lon="9.4850030">
	<ele>1839.40</ele>
	<time>2023-07-15T09:00:22.000Z</time>
</trkpt>
<trkpt lat="46.0255930" lon="9.4850060">
	<ele>1839.60</ele>
	<time>2023-07-15T09:00:23.000Z</time>
</trkpt>
<trkpt lat="46.0256120" lon="9.4850400">
	<ele>1840.40</ele>
	<time>2023-07-15T09:00:28.000Z</time>
</trkpt>
<trkpt lat="46.0256120" lon="9.4850510">
	<ele>1840.60</ele>
	<time>2023-07-15T09:00:29.000Z</time>
</trkpt>
<trkpt lat="46.0256130" lon="9.4850910">
	<ele>1841.20</ele>
	<time>2023-07-15T09:00:33.000Z</time>
</trkpt>
<trkpt lat="46.0256110" lon="9.4851080">
	<ele>1841.60</ele>
	<time>2023-07-15T09:00:35.000Z</time>
</trkpt>
<trkpt lat="46.0256100" lon="9.4852000">
	<ele>1842.60</ele>
	<time>2023-07-15T09:00:43.000Z</time>
</trkpt>
<trkpt lat="46.0256080" lon="9.4852090">
	<ele>1842.80</ele>
	<time>2023-07-15T09:00:44.000Z</time>
</trkpt>
<trkpt lat="46.0256020" lon="9.4852980">
	<ele>1843.60</ele>
	<time>2023-07-15T09:00:52.000Z</time>
</trkpt>
<trkpt lat="46.0256000" lon="9.4853570">
	<ele>1844.60</ele>
	<time>2023-07-15T09:00:58.000Z</time>
</trkpt>
<trkpt lat="46.0255980" lon="9.4853700">
	<ele>1844.80</ele>
	<time>2023-07-15T09:00:59.000Z</time>
</trkpt>
<trkpt lat="46.0255860" lon="9.4854690">
	<ele>1845.80</ele>
	<time>2023-07-15T09:01:08.000Z</time>
</trkpt>
<trkpt lat="46.0255870" lon="9.4854780">
	<ele>1846.00</ele>
	<time>2023-07-15T09:01:09.000Z</time>
</trkpt>
<trkpt lat="46.0255830" lon="9.4855340">
	<ele>1847.00</ele>
	<time>2023-07-15T09:01:16.000Z</time>
</trkpt>
<trkpt lat="46.0255760" lon="9.4855750">
	<ele>1848.20</ele>
	<time>2023-07-15T09:01:23.000Z</time>
</trkpt>
<trkpt lat="46.0255770" lon="9.4855780">
	<ele>1848.40</ele>
	<time>2023-07-15T09:01:26.000Z</time>
</trkpt>
<trkpt lat="46.0255750" lon="9.4855760">
	<ele>1849.20</ele>
	<time>2023-07-15T09:01:30.000Z</time>
</trkpt>
<trkpt lat="46.0255750" lon="9.4855760">
	<ele>1849.60</ele>
	<time>2023-07-15T09:01:38.000Z</time>
</trkpt>
<trkpt lat="46.0255720" lon="9.4856450">
	<ele>1849.40</ele>
	<time>2023-07-15T09:01:55.000Z</time>
</trkpt>
<trkpt lat="46.0255670" lon="9.4857020">
	<ele>1850.40</ele>
	<time>2023-07-15T09:01:59.000Z</time>
</trkpt>
<trkpt lat="46.0255810" lon="9.4857610">
	<ele>1851.40</ele>
	<time>2023-07-15T09:02:06.000Z</time>
</trkpt>
<trkpt lat="46.0255790" lon="9.4858170">
	<ele>1852.60</ele>
	<time>2023-07-15T09:02:13.000Z</time>
</trkpt>
<trkpt lat="46.0255810" lon="9.4858270">
	<ele>1852.80</ele>
	<time>2023-07-15T09:02:14.000Z</time>
</trkpt>
<trkpt lat="46.0255870" lon="9.4858330">
	<ele>1853.40</ele>
	<time>2023-07-15T09:02:20.000Z</time>
</trkpt>
<trkpt lat="46.0255820" lon="9.4858430">
	<ele>1853.40</ele>
	<time>2023-07-15T09:02:30.000Z</time>
</trkpt>
<trkpt lat="46.0255820" lon="9.4858430">
	<ele>1853.40</ele>
	<time>2023-07-15T09:02:33.000Z</time>
</trkpt>
<trkpt lat="46.0255820" lon="9.4858410">
	<ele>1853.60</ele>
	<time>2023-07-15T09:02:39.000Z</time>
</trkpt>
<trkpt lat="46.0255830" lon="9.4858410">
	<ele>1854.60</ele>
	<time>2023-07-15T09:02:46.000Z</time>
</trkpt>
<trkpt lat="46.0255860" lon="9.4858620">
	<ele>1855.60</ele>
	<time>2023-07-15T09:02:55.000Z</time>
</trkpt>
<trkpt lat="46.0256230" lon="9.4859240">
	<ele>1856.20</ele>
	<time>2023-07-15T09:03:13.000Z</time>
</trkpt>
<trkpt lat="46.0256260" lon="9.4859380">
	<ele>1856.20</ele>
	<time>2023-07-15T09:03:34.000Z</time>
</trkpt>
<trkpt lat="46.0256260" lon="9.4859400">
	<ele>1855.80</ele>
	<time>2023-07-15T09:03:42.000Z</time>
</trkpt>
<trkpt lat="46.0256260" lon="9.4859420">
	<ele>1856.80</ele>
	<time>2023-07-15T09:03:49.000Z</time>
</trkpt>
<trkpt lat="46.0256260" lon="9.4859430">
	<ele>1857.00</ele>
	<time>2023-07-15T09:03:51.000Z</time>
</trkpt>
<trkpt lat="46.0256260" lon="9.4859430">
	<ele>1857.40</ele>
	<time>2023-07-15T09:03:53.000Z</time>
</trkpt>
<trkpt lat="46.0256250" lon="9.4859480">
	<ele>1857.80</ele>
	<time>2023-07-15T09:03:56.000Z</time>
</trkpt>
<trkpt lat="46.0256250" lon="9.4859530">
	<ele>1857.80</ele>
	<time>2023-07-15T09:03:57.000Z</time>
</trkpt>
<trkpt lat="46.0256230" lon="9.4859800">
	<ele>1858.80</ele>
	<time>2023-07-15T09:04:02.000Z</time>
</trkpt>
<trkpt lat="46.0255870" lon="9.4860700">
	<ele>1860.00</ele>
	<time>2023-07-15T09:04:10.000Z</time>
</trkpt>
<trkpt lat="46.0255830" lon="9.4860850">
	<ele>1860.00</ele>
	<time>2023-07-15T09:04:11.000Z</time>
</trkpt>
<trkpt lat="46.0255730" lon="9.4861210">
	<ele>1860.20</ele>
	<time>2023-07-15T09:04:13.000Z</time>
</trkpt>
<trkpt lat="46.0255700" lon="9.4861380">
	<ele>1860.40</ele>
	<time>2023-07-15T09:04:14.000Z</time>
</trkpt>
<trkpt lat="46.0255550" lon="9.4861730">
	<ele>1861.20</ele>
	<time>2023-07-15T09:04:18.000Z</time>
</trkpt>
<trkpt lat="46.0255520" lon="9.4861790">
	<ele>1861.60</ele>
	<time>2023-07-15T09:04:19.000Z</time>
</trkpt>
<trkpt lat="46.0255300" lon="9.4862150">
	<ele>1862.20</ele>
	<time>2023-07-15T09:04:23.000Z</time>
</trkpt>
<trkpt lat="46.0255280" lon="9.4862220">
	<ele>1862.20</ele>
	<time>2023-07-15T09:04:24.000Z</time>
</trkpt>
<trkpt lat="46.0255190" lon="9.4862430">
	<ele>1862.60</ele>
	<time>2023-07-15T09:04:27.000Z</time>
</trkpt>
<trkpt lat="46.0255130" lon="9.4862560">
	<ele>1863.40</ele>
	<time>2023-07-15T09:04:30.000Z</time>
</trkpt>
<trkpt lat="46.0255140" lon="9.4862710">
	<ele>1863.80</ele>
	<time>2023-07-15T09:04:32.000Z</time>
</trkpt>
<trkpt lat="46.0255070" lon="9.4862870">
	<ele>1864.00</ele>
	<time>2023-07-15T09:04:34.000Z</time>
</trkpt>
<trkpt lat="46.0254980" lon="9.4862910">
	<ele>1864.60</ele>
	<time>2023-07-15T09:04:36.000Z</time>
</trkpt>
<trkpt lat="46.0254830" lon="9.4863030">
	<ele>1865.20</ele>
	<time>2023-07-15T09:04:39.000Z</time>
</trkpt>
<trkpt lat="46.0254790" lon="9.4863100">
	<ele>1865.20</ele>
	<time>2023-07-15T09:04:40.000Z</time>
</trkpt>
<trkpt lat="46.0254710" lon="9.4863290">
	<ele>1865.40</ele>
	<time>2023-07-15T09:04:42.000Z</time>
</trkpt>
<trkpt lat="46.0254670" lon="9.4863500">
	<ele>1865.40</ele>
	<time>2023-07-15T09:04:44.000Z</time>
</trkpt>
<trkpt lat="46.0254650" lon="9.4863600">
	<ele>1865.80</ele>
	<time>2023-07-15T09:04:45.000Z</time>
</trkpt>
<trkpt lat="46.0254670" lon="9.4863830">
	<ele>1866.00</ele>
	<time>2023-07-15T09:04:47.000Z</time>
</trkpt>
<trkpt lat="46.0254670" lon="9.4863930">
	<ele>1866.00</ele>
	<time>2023-07-15T09:04:48.000Z</time>
</trkpt>
<trkpt lat="46.0254680" lon="9.4864030">
	<ele>1866.20</ele>
	<time>2023-07-15T09:04:49.000Z</time>
</trkpt>
<trkpt lat="46.0254710" lon="9.4864360">
	<ele>1866.60</ele>
	<time>2023-07-15T09:04:52.000Z</time>
</trkpt>
<trkpt lat="46.0254700" lon="9.4864580">
	<ele>1866.80</ele>
	<time>2023-07-15T09:04:54.000Z</time>
</trkpt>
<trkpt lat="46.0254680" lon="9.4864820">
	<ele>1867.00</ele>
	<time>2023-07-15T09:04:56.000Z</time>
</trkpt>
<trkpt lat="46.0254670" lon="9.4864960">
	<ele>1867.20</ele>
	<time>2023-07-15T09:04:57.000Z</time>
</trkpt>
<trkpt lat="46.0254680" lon="9.4865100">
	<ele>1867.20</ele>
	<time>2023-07-15T09:04:58.000Z</time>
</trkpt>
<trkpt lat="46.0254860" lon="9.4865800">
	<ele>1867.80</ele>
	<time>2023-07-15T09:05:04.000Z</time>
</trkpt>
<trkpt lat="46.0254870" lon="9.4865950">
	<ele>1868.00</ele>
	<time>2023-07-15T09:05:05.000Z</time>
</trkpt>
<trkpt lat="46.0254820" lon="9.4866420">
	<ele>1868.80</ele>
	<time>2023-07-15T09:05:10.000Z</time>
</trkpt>
<trkpt lat="46.0254810" lon="9.4866470">
	<ele>1869.00</ele>
	<time>2023-07-15T09:05:11.000Z</time>
</trkpt>
<trkpt lat="46.0254820" lon="9.4866670">
	<ele>1869.20</ele>
	<time>2023-07-15T09:05:13.000Z</time>
</trkpt>
<trkpt lat="46.0254850" lon="9.4867070">
	<ele>1869.80</ele>
	<time>2023-07-15T09:05:16.000Z</time>
</trkpt>
<trkpt lat="46.0254820" lon="9.4867170">
	<ele>1869.80</ele>
	<time>2023-07-15T09:05:17.000Z</time>
</trkpt>
<trkpt lat="46.0254810" lon="9.4867390">
	<ele>1870.40</ele>
	<time>2023-07-15T09:05:19.000Z</time>
</trkpt>
<trkpt lat="46.0254810" lon="9.4867550">
	<ele>1870.80</ele>
	<time>2023-07-15T09:05:21.000Z</time>
</trkpt>
<trkpt lat="46.0254810" lon="9.4867800">
	<ele>1871.00</ele>
	<time>2023-07-15T09:05:23.000Z</time>
</trkpt>
<trkpt lat="46.0254690" lon="9.4868650">
	<ele>1871.80</ele>
	<time>2023-07-15T09:05:31.000Z</time>
</trkpt>
<trkpt lat="46.0254680" lon="9.4868790">
	<ele>1872.00</ele>
	<time>2023-07-15T09:05:32.000Z</time>
</trkpt>
<trkpt lat="46.0254590" lon="9.4869830">
	<ele>1872.60</ele>
	<time>2023-07-15T09:05:40.000Z</time>
</trkpt>
<trkpt lat="46.0254450" lon="9.4870220">
	<ele>1873.00</ele>
	<time>2023-07-15T09:05:44.000Z</time>
</trkpt>
<trkpt lat="46.0254200" lon="9.4870900">
	<ele>1873.60</ele>
	<time>2023-07-15T09:05:50.000Z</time>
</trkpt>
<trkpt lat="46.0254230" lon="9.4871370">
	<ele>1874.20</ele>
	<time>2023-07-15T09:05:54.000Z</time>
</trkpt>
<trkpt lat="46.0254240" lon="9.4872200">
	<ele>1874.80</ele>
	<time>2023-07-15T09:05:59.000Z</time>
</trkpt>
<trkpt lat="46.0254210" lon="9.4872860">
	<ele>1875.00</ele>
	<time>2023-07-15T09:06:03.000Z</time>
</trkpt>
<trkpt lat="46.0254200" lon="9.4873290">
	<ele>1875.20</ele>
	<time>2023-07-15T09:06:06.000Z</time>
</trkpt>
<trkpt lat="46.0254180" lon="9.4873400">
	<ele>1875.40</ele>
	<time>2023-07-15T09:06:07.000Z</time>
</trkpt>
<trkpt lat="46.0254080" lon="9.4874310">
	<ele>1876.20</ele>
	<time>2023-07-15T09:06:13.000Z</time>
</trkpt>
<trkpt lat="46.0254030" lon="9.4874540">
	<ele>1876.40</ele>
	<time>2023-07-15T09:06:15.000Z</time>
</trkpt>
<trkpt lat="46.0253920" lon="9.4875100">
	<ele>1876.60</ele>
	<time>2023-07-15T09:06:19.000Z</time>
</trkpt>
<trkpt lat="46.0253940" lon="9.4875320">
	<ele>1876.60</ele>
	<time>2023-07-15T09:06:21.000Z</time>
</trkpt>
<trkpt lat="46.0254040" lon="9.4875910">
	<ele>1877.40</ele>
	<time>2023-07-15T09:06:26.000Z</time>
</trkpt>
<trkpt lat="46.0254020" lon="9.4876440">
	<ele>1878.40</ele>
	<time>2023-07-15T09:06:31.000Z</time>
</trkpt>
<trkpt lat="46.0254060" lon="9.4877300">
	<ele>1879.40</ele>
	<time>2023-07-15T09:06:38.000Z</time>
</trkpt>
<trkpt lat="46.0254070" lon="9.4877890">
	<ele>1880.60</ele>
	<time>2023-07-15T09:06:42.000Z</time>
</trkpt>
<trkpt lat="46.0253950" lon="9.4878560">
	<ele>1880.80</ele>
	<time>2023-07-15T09:06:47.000Z</time>
</trkpt>
<trkpt lat="46.0253910" lon="9.4879610">
	<ele>1880.80</ele>
	<time>2023-07-15T09:06:54.000Z</time>
</trkpt>
<trkpt lat="46.0253940" lon="9.4879880">
	<ele>1881.00</ele>
	<time>2023-07-15T09:06:56.000Z</time>
</trkpt>
<trkpt lat="46.0254050" lon="9.4881100">
	<ele>1881.60</ele>
	<time>2023-07-15T09:07:05.000Z</time>
</trkpt>
<trkpt lat="46.0254100" lon="9.4881410">
	<ele>1882.00</ele>
	<time>2023-07-15T09:07:07.000Z</time>
</trkpt>
<trkpt lat="46.0254140" lon="9.4881620">
	<ele>1882.40</ele>
	<time>2023-07-15T09:07:12.000Z</time>
</trkpt>
<trkpt lat="46.0254130" lon="9.4881650">
	<ele>1882.60</ele>
	<time>2023-07-15T09:07:13.000Z</time>
</trkpt>
<trkpt lat="46.0254010" lon="9.4882350">
	<ele>1881.80</ele>
	<time>2023-07-15T09:07:19.000Z</time>
</trkpt>
<trkpt lat="46.0253810" lon="9.4883570">
	<ele>1881.80</ele>
	<time>2023-07-15T09:07:27.000Z</time>
</trkpt>
<trkpt lat="46.0253860" lon="9.4884070">
	<ele>1882.20</ele>
	<time>2023-07-15T09:07:30.000Z</time>
</trkpt>
<trkpt lat="46.0253890" lon="9.4884850">
	<ele>1882.80</ele>
	<time>2023-07-15T09:07:35.000Z</time>
</trkpt>
<trkpt lat="46.0253880" lon="9.4885150">
	<ele>1883.00</ele>
	<time>2023-07-15T09:07:37.000Z</time>
</trkpt>
<trkpt lat="46.0253770" lon="9.4886610">
	<ele>1884.00</ele>
	<time>2023-07-15T09:07:47.000Z</time>
</trkpt>
<trkpt lat="46.0253840" lon="9.4887130">
	<ele>1884.60</ele>
	<time>2023-07-15T09:07:51.000Z</time>
</trkpt>
<trkpt lat="46.0253820" lon="9.4887400">
	<ele>1885.00</ele>
	<time>2023-07-15T09:07:54.000Z</time>
</trkpt>
<trkpt lat="46.0253670" lon="9.4888300">
	<ele>1886.20</ele>
	<time>2023-07-15T09:08:02.000Z</time>
</trkpt>
<trkpt lat="46.0253680" lon="9.4888850">
	<ele>1887.40</ele>
	<time>2023-07-15T09:08:08.000Z</time>
</trkpt>
<trkpt lat="46.0253890" lon="9.4889480">
	<ele>1888.20</ele>
	<time>2023-07-15T09:08:14.000Z</time>
</trkpt>
<trkpt lat="46.0253940" lon="9.4889580">
	<ele>1888.40</ele>
	<time>2023-07-15T09:08:15.000Z</time>
</trkpt>
<trkpt lat="46.0254210" lon="9.4890410">
	<ele>1888.20</ele>
	<time>2023-07-15T09:08:21.000Z</time>
</trkpt>
<trkpt lat="46.0254480" lon="9.4891380">
	<ele>1887.60</ele>
	<time>2023-07-15T09:08:28.000Z</time>
</trkpt>
<trkpt lat="46.0254600" lon="9.4892310">
	<ele>1887.80</ele>
	<time>2023-07-15T09:08:34.000Z</time>
</trkpt>
<trkpt lat="46.0254910" lon="9.4893470">
	<ele>1888.60</ele>
	<time>2023-07-15T09:08:42.000Z</time>
</trkpt>
<trkpt lat="46.0254930" lon="9.4893630">
	<ele>1888.60</ele>
	<time>2023-07-15T09:08:43.000Z</time>
</trkpt>
<trkpt lat="46.0254930" lon="9.4894460">
	<ele>1889.60</ele>
	<time>2023-07-15T09:08:49.000Z</time>
</trkpt>
<trkpt lat="46.0254880" lon="9.4894670">
	<ele>1890.20</ele>
	<time>2023-07-15T09:08:51.000Z</time>
</trkpt>
<trkpt lat="46.0254860" lon="9.4894770">
	<ele>1890.60</ele>
	<time>2023-07-15T09:08:52.000Z</time>
</trkpt>
<trkpt lat="46.0254820" lon="9.4895190">
	<ele>1891.40</ele>
	<time>2023-07-15T09:08:57.000Z</time>
</trkpt>
<trkpt lat="46.0254850" lon="9.4895350">
	<ele>1891.80</ele>
	<time>2023-07-15T09:08:59.000Z</time>
</trkpt>
<trkpt lat="46.0254930" lon="9.4895540">
	<ele>1892.00</ele>
	<time>2023-07-15T09:09:02.000Z</time>
</trkpt>
<trkpt lat="46.0255020" lon="9.4895620">
	<ele>1892.00</ele>
	<time>2023-07-15T09:09:04.000Z</time>
</trkpt>
<trkpt lat="46.0255030" lon="9.4895750">
	<ele>1892.40</ele>
	<time>2023-07-15T09:09:06.000Z</time>
</trkpt>
<trkpt lat="46.0255020" lon="9.4895810">
	<ele>1892.60</ele>
	<time>2023-07-15T09:09:07.000Z</time>
</trkpt>
<trkpt lat="46.0255040" lon="9.4895820">
	<ele>1892.80</ele>
	<time>2023-07-15T09:09:10.000Z</time>
</trkpt>
<trkpt lat="46.0255050" lon="9.4895800">
	<ele>1892.80</ele>
	<time>2023-07-15T09:09:17.000Z</time>
</trkpt>
<trkpt lat="46.0255040" lon="9.4895810">
	<ele>1892.80</ele>
	<time>2023-07-15T09:09:37.000Z</time>
</trkpt>
<trkpt lat="46.0255010" lon="9.4895780">
	<ele>1892.80</ele>
	<time>2023-07-15T09:09:51.000Z</time>
</trkpt>
<trkpt lat="46.0255010" lon="9.4895780">
	<ele>1893.00</ele>
	<time>2023-07-15T09:09:53.000Z</time>
</trkpt>
<trkpt lat="46.0255000" lon="9.4895780">
	<ele>1893.20</ele>
	<time>2023-07-15T09:09:55.000Z</time>
</trkpt>
<trkpt lat="46.0254980" lon="9.4895790">
	<ele>1893.20</ele>
	<time>2023-07-15T09:09:57.000Z</time>
</trkpt>
<trkpt lat="46.0254970" lon="9.4895790">
	<ele>1893.00</ele>
	<time>2023-07-15T09:10:00.000Z</time>
</trkpt>
<trkpt lat="46.0254920" lon="9.4895860">
	<ele>1893.20</ele>
	<time>2023-07-15T09:10:15.000Z</time>
</trkpt>
<trkpt lat="46.0255000" lon="9.4896520">
	<ele>1894.00</ele>
	<time>2023-07-15T09:10:21.000Z</time>
</trkpt>
<trkpt lat="46.0255020" lon="9.4896650">
	<ele>1894.20</ele>
	<time>2023-07-15T09:10:22.000Z</time>
</trkpt>
<trkpt lat="46.0255140" lon="9.4897360">
	<ele>1895.00</ele>
	<time>2023-07-15T09:10:27.000Z</time>
</trkpt>
<trkpt lat="46.0255190" lon="9.4897490">
	<ele>1895.40</ele>
	<time>2023-07-15T09:10:29.000Z</time>
</trkpt>
<trkpt lat="46.0255190" lon="9.4898060">
	<ele>1896.20</ele>
	<time>2023-07-15T09:10:34.000Z</time>
</trkpt>
<trkpt lat="46.0255180" lon="9.4898430">
	<ele>1896.60</ele>
	<time>2023-07-15T09:10:37.000Z</time>
</trkpt>
<trkpt lat="46.0255170" lon="9.4898680">
	<ele>1896.80</ele>
	<time>2023-07-15T09:10:39.000Z</time>
</trkpt>
<trkpt lat="46.0255230" lon="9.4899160">
	<ele>1897.40</ele>
	<time>2023-07-15T09:10:44.000Z</time>
</trkpt>
<trkpt lat="46.0255300" lon="9.4899480">
	<ele>1898.00</ele>
	<time>2023-07-15T09:10:49.000Z</time>
</trkpt>
<trkpt lat="46.0255350" lon="9.4899790">
	<ele>1898.40</ele>
	<time>2023-07-15T09:10:52.000Z</time>
</trkpt>
<trkpt lat="46.0255360" lon="9.4899850">
	<ele>1898.80</ele>
	<time>2023-07-15T09:10:53.000Z</time>
</trkpt>
<trkpt lat="46.0255300" lon="9.4900370">
	<ele>1899.60</ele>
	<time>2023-07-15T09:10:58.000Z</time>
</trkpt>
<trkpt lat="46.0255270" lon="9.4900700">
	<ele>1899.80</ele>
	<time>2023-07-15T09:11:01.000Z</time>
</trkpt>
<trkpt lat="46.0255230" lon="9.4901430">
	<ele>1900.80</ele>
	<time>2023-07-15T09:11:08.000Z</time>
</trkpt>
<trkpt lat="46.0255220" lon="9.4901560">
	<ele>1900.80</ele>
	<time>2023-07-15T09:11:09.000Z</time>
</trkpt>
<trkpt lat="46.0255060" lon="9.4902020">
	<ele>1902.00</ele>
	<time>2023-07-15T09:11:14.000Z</time>
</trkpt>
<trkpt lat="46.0255010" lon="9.4902380">
	<ele>1902.80</ele>
	<time>2023-07-15T09:11:18.000Z</time>
</trkpt>
<trkpt lat="46.0255020" lon="9.4902670">
	<ele>1903.00</ele>
	<time>2023-07-15T09:11:21.000Z</time>
</trkpt>
<trkpt lat="46.0255140" lon="9.4903290">
	<ele>1904.20</ele>
	<time>2023-07-15T09:11:27.000Z</time>
</trkpt>
<trkpt lat="46.0255140" lon="9.4903590">
	<ele>1904.20</ele>
	<time>2023-07-15T09:11:29.000Z</time>
</trkpt>
<trkpt lat="46.0255110" lon="9.4904530">
	<ele>1904.00</ele>
	<time>2023-07-15T09:11:36.000Z</time>
</trkpt>
<trkpt lat="46.0255170" lon="9.4905580">
	<ele>1903.20</ele>
	<time>2023-07-15T09:11:44.000Z</time>
</trkpt>
<trkpt lat="46.0255100" lon="9.4906080">
	<ele>1903.00</ele>
	<time>2023-07-15T09:11:47.000Z</time>
</trkpt>
<trkpt lat="46.0255050" lon="9.4906980">
	<ele>1903.00</ele>
	<time>2023-07-15T09:11:53.000Z</time>
</trkpt>
<trkpt lat="46.0254760" lon="9.4908210">
	<ele>1902.80</ele>
	<time>2023-07-15T09:12:01.000Z</time>
</trkpt>
<trkpt lat="46.0254760" lon="9.4908370">
	<ele>1902.80</ele>
	<time>2023-07-15T09:12:02.000Z</time>
</trkpt>
<trkpt lat="46.0254610" lon="9.4909020">
	<ele>1902.60</ele>
	<time>2023-07-15T09:12:07.000Z</time>
</trkpt>
<trkpt lat="46.0254620" lon="9.4909280">
	<ele>1902.40</ele>
	<time>2023-07-15T09:12:09.000Z</time>
</trkpt>
<trkpt lat="46.0254560" lon="9.4909750">
	<ele>1902.20</ele>
	<time>2023-07-15T09:12:12.000Z</time>
</trkpt>
<trkpt lat="46.0254490" lon="9.4910280">
	<ele>1902.00</ele>
	<time>2023-07-15T09:12:16.000Z</time>
</trkpt>
<trkpt lat="46.0254470" lon="9.4910530">
	<ele>1901.80</ele>
	<time>2023-07-15T09:12:18.000Z</time>
</trkpt>
<trkpt lat="46.0254420" lon="9.4911040">
	<ele>1901.00</ele>
	<time>2023-07-15T09:12:21.000Z</time>
</trkpt>
<trkpt lat="46.0254450" lon="9.4912090">
	<ele>1900.20</ele>
	<time>2023-07-15T09:12:27.000Z</time>
</trkpt>
<trkpt lat="46.0254510" lon="9.4912690">
	<ele>1900.00</ele>
	<time>2023-07-15T09:12:31.000Z</time>
</trkpt>
<trkpt lat="46.0254560" lon="9.4912810">
	<ele>1900.00</ele>
	<time>2023-07-15T09:12:32.000Z</time>
</trkpt>
<trkpt lat="46.0254620" lon="9.4913000">
	<ele>1899.80</ele>
	<time>2023-07-15T09:12:35.000Z</time>
</trkpt>
<trkpt lat="46.0254640" lon="9.4912980">
	<ele>1899.60</ele>
	<time>2023-07-15T09:12:37.000Z</time>
</trkpt>
<trkpt lat="46.0254630" lon="9.4912950">
	<ele>1899.60</ele>
	<time>2023-07-15T09:12:39.000Z</time>
</trkpt>
<trkpt lat="46.0254630" lon="9.4912930">
	<ele>1899.60</ele>
	<time>2023-07-15T09:12:40.000Z</time>
</trkpt>
<trkpt lat="46.0254700" lon="9.4912970">
	<ele>1899.60</ele>
	<time>2023-07-15T09:12:43.000Z</time>
</trkpt>
<trkpt lat="46.0254800" lon="9.4912950">
	<ele>1899.60</ele>
	<time>2023-07-15T09:12:45.000Z</time>
</trkpt>
<trkpt lat="46.0254810" lon="9.4912990">
	<ele>1899.60</ele>
	<time>2023-07-15T09:12:46.000Z</time>
</trkpt>
<trkpt lat="46.0254790" lon="9.4913040">
	<ele>1900.00</ele>
	<time>2023-07-15T09:12:55.000Z</time>
</trkpt>
<trkpt lat="46.0254790" lon="9.4913040">
	<ele>1900.00</ele>
	<time>2023-07-15T09:12:56.000Z</time>
</trkpt>
<trkpt lat="46.0254750" lon="9.4913030">
	<ele>1899.60</ele>
	<time>2023-07-15T09:13:05.000Z</time>
</trkpt>
<trkpt lat="46.0254790" lon="9.4914050">
	<ele>1900.20</ele>
	<time>2023-07-15T09:13:23.000Z</time>
</trkpt>
<trkpt lat="46.0254900" lon="9.4914630">
	<ele>1900.20</ele>
	<time>2023-07-15T09:13:26.000Z</time>
</trkpt>
<trkpt lat="46.0254970" lon="9.4915430">
	<ele>1899.60</ele>
	<time>2023-07-15T09:13:30.000Z</time>
</trkpt>
<trkpt lat="46.0255000" lon="9.4916920">
	<ele>1899.60</ele>
	<time>2023-07-15T09:13:40.000Z</time>
</trkpt>
<trkpt lat="46.0255000" lon="9.4917080">
	<ele>1899.60</ele>
	<time>2023-07-15T09:13:41.000Z</time>
</trkpt>
<trkpt lat="46.0254950" lon="9.4917580">
	<ele>1899.20</ele>
	<time>2023-07-15T09:13:45.000Z</time>
</trkpt>
<trkpt lat="46.0254910" lon="9.4917720">
	<ele>1899.00</ele>
	<time>2023-07-15T09:13:46.000Z</time>
</trkpt>
<trkpt lat="46.0254900" lon="9.4917850">
	<ele>1898.80</ele>
	<time>2023-07-15T09:13:47.000Z</time>
</trkpt>
<trkpt lat="46.0254930" lon="9.4918230">
	<ele>1898.60</ele>
	<time>2023-07-15T09:13:50.000Z</time>
</trkpt>
<trkpt lat="46.0254870" lon="9.4918570">
	<ele>1898.20</ele>
	<time>2023-07-15T09:13:52.000Z</time>
</trkpt>
<trkpt lat="46.0254850" lon="9.4918860">
	<ele>1897.80</ele>
	<time>2023-07-15T09:13:54.000Z</time>
</trkpt>
<trkpt lat="46.0254860" lon="9.4919400">
	<ele>1897.20</ele>
	<time>2023-07-15T09:13:59.000Z</time>
</trkpt>
<trkpt lat="46.0254810" lon="9.4919650">
	<ele>1896.80</ele>
	<time>2023-07-15T09:14:01.000Z</time>
</trkpt>
<trkpt lat="46.0254610" lon="9.4920640">
	<ele>1896.00</ele>
	<time>2023-07-15T09:14:08.000Z</time>
</trkpt>
<trkpt lat="46.0254640" lon="9.4920750">
	<ele>1896.00</ele>
	<time>2023-07-15T09:14:09.000Z</time>
</trkpt>
<trkpt lat="46.0254720" lon="9.4921220">
	<ele>1895.60</ele>
	<time>2023-07-15T09:14:13.000Z</time>
</trkpt>
<trkpt lat="46.0254740" lon="9.4921300">
	<ele>1895.60</ele>
	<time>2023-07-15T09:14:14.000Z</time>
</trkpt>
<trkpt lat="46.0254770" lon="9.4921770">
	<ele>1894.80</ele>
	<time>2023-07-15T09:14:20.000Z</time>
</trkpt>
<trkpt lat="46.0254760" lon="9.4921850">
	<ele>1894.60</ele>
	<time>2023-07-15T09:14:21.000Z</time>
</trkpt>
<trkpt lat="46.0254800" lon="9.4922010">
	<ele>1894.20</ele>
	<time>2023-07-15T09:14:24.000Z</time>
</trkpt>
<trkpt lat="46.0254780" lon="9.4922120">
	<ele>1894.00</ele>
	<time>2023-07-15T09:14:26.000Z</time>
</trkpt>
<trkpt lat="46.0254850" lon="9.4922430">
	<ele>1893.60</ele>
	<time>2023-07-15T09:14:30.000Z</time>
</trkpt>
<trkpt lat="46.0254910" lon="9.4922800">
	<ele>1893.00</ele>
	<time>2023-07-15T09:14:34.000Z</time>
</trkpt>
<trkpt lat="46.0254910" lon="9.4923210">
	<ele>1892.60</ele>
	<time>2023-07-15T09:14:38.000Z</time>
</trkpt>
<trkpt lat="46.0255030" lon="9.4923820">
	<ele>1892.00</ele>
	<time>2023-07-15T09:14:42.000Z</time>
</trkpt>
<trkpt lat="46.0254940" lon="9.4924610">
	<ele>1892.20</ele>
	<time>2023-07-15T09:14:48.000Z</time>
</trkpt>
<trkpt lat="46.0254940" lon="9.4924730">
	<ele>1892.40</ele>
	<time>2023-07-15T09:14:49.000Z</time>
</trkpt>
<trkpt lat="46.0254990" lon="9.4925380">
	<ele>1892.80</ele>
	<time>2023-07-15T09:14:55.000Z</time>
</trkpt>
<trkpt lat="46.0255220" lon="9.4926030">
	<ele>1892.00</ele>
	<time>2023-07-15T09:15:00.000Z</time>
</trkpt>
<trkpt lat="46.0255330" lon="9.4926360">
	<ele>1891.40</ele>
	<time>2023-07-15T09:15:02.000Z</time>
</trkpt>
<trkpt lat="46.0255370" lon="9.4926510">
	<ele>1891.20</ele>
	<time>2023-07-15T09:15:03.000Z</time>
</trkpt>
<trkpt lat="46.0255350" lon="9.4926640">
	<ele>1891.00</ele>
	<time>2023-07-15T09:15:04.000Z</time>
</trkpt>
<trkpt lat="46.0255460" lon="9.4927240">
	<ele>1890.40</ele>
	<time>2023-07-15T09:15:08.000Z</time>
</trkpt>
<trkpt lat="46.0255500" lon="9.4927590">
	<ele>1890.20</ele>
	<time>2023-07-15T09:15:10.000Z</time>
</trkpt>
<trkpt lat="46.0255500" lon="9.4927890">
	<ele>1890.20</ele>
	<time>2023-07-15T09:15:12.000Z</time>
</trkpt>
<trkpt lat="46.0255600" lon="9.4928740">
	<ele>1890.00</ele>
	<time>2023-07-15T09:15:18.000Z</time>
</trkpt>
<trkpt lat="46.0255560" lon="9.4929060">
	<ele>1889.80</ele>
	<time>2023-07-15T09:15:21.000Z</time>
</trkpt>
<trkpt lat="46.0255600" lon="9.4929420">
	<ele>1889.40</ele>
	<time>2023-07-15T09:15:25.000Z</time>
</trkpt>
<trkpt lat="46.0255560" lon="9.4929630">
	<ele>1889.00</ele>
	<time>2023-07-15T09:15:28.000Z</time>
</trkpt>
<trkpt lat="46.0255560" lon="9.4929750">
	<ele>1888.80</ele>
	<time>2023-07-15T09:15:30.000Z</time>
</trkpt>
<trkpt lat="46.0255520" lon="9.4929820">
	<ele>1888.40</ele>
	<time>2023-07-15T09:15:31.000Z</time>
</trkpt>
<trkpt lat="46.0255480" lon="9.4929960">
	<ele>1888.00</ele>
	<time>2023-07-15T09:15:33.000Z</time>
</trkpt>
<trkpt lat="46.0255510" lon="9.4930110">
	<ele>1887.20</ele>
	<time>2023-07-15T09:15:36.000Z</time>
</trkpt>
<trkpt lat="46.0255660" lon="9.4930460">
	<ele>1886.40</ele>
	<time>2023-07-15T09:15:41.000Z</time>
</trkpt>
<trkpt lat="46.0255660" lon="9.4930540">
	<ele>1886.00</ele>
	<time>2023-07-15T09:15:42.000Z</time>
</trkpt>
<trkpt lat="46.0255300" lon="9.4931050">
	<ele>1885.00</ele>
	<time>2023-07-15T09:15:48.000Z</time>
</trkpt>
<trkpt lat="46.0255270" lon="9.4931110">
	<ele>1884.80</ele>
	<time>2023-07-15T09:15:49.000Z</time>
</trkpt>
<trkpt lat="46.0255140" lon="9.4931450">
	<ele>1884.00</ele>
	<time>2023-07-15T09:15:52.000Z</time>
</trkpt>
<trkpt lat="46.0255240" lon="9.4931880">
	<ele>1883.20</ele>
	<time>2023-07-15T09:15:55.000Z</time>
</trkpt>
<trkpt lat="46.0255260" lon="9.4932030">
	<ele>1882.80</ele>
	<time>2023-07-15T09:15:56.000Z</time>
</trkpt>
<trkpt lat="46.0255290" lon="9.4932540">
	<ele>1881.80</ele>
	<time>2023-07-15T09:16:02.000Z</time>
</trkpt>
<trkpt lat="46.0255250" lon="9.4932640">
	<ele>1881.60</ele>
	<time>2023-07-15T09:16:03.000Z</time>
</trkpt>
<trkpt lat="46.0255300" lon="9.4933010">
	<ele>1880.60</ele>
	<time>2023-07-15T09:16:08.000Z</time>
</trkpt>
<trkpt lat="46.0255230" lon="9.4933640">
	<ele>1879.40</ele>
	<time>2023-07-15T09:16:14.000Z</time>
</trkpt>
<trkpt lat="46.0255040" lon="9.4933890">
	<ele>1879.00</ele>
	<time>2023-07-15T09:16:17.000Z</time>
</trkpt>
<trkpt lat="46.0254880" lon="9.4934330">
	<ele>1878.20</ele>
	<time>2023-07-15T09:16:21.000Z</time>
</trkpt>
<trkpt lat="46.0254620" lon="9.4934770">
	<ele>1877.80</ele>
	<time>2023-07-15T09:16:25.000Z</time>
</trkpt>
<trkpt lat="46.0254500" lon="9.4934920">
	<ele>1877.20</ele>
	<time>2023-07-15T09:16:27.000Z</time>
</trkpt>
<trkpt lat="46.0254430" lon="9.4935030">
	<ele>1877.00</ele>
	<time>2023-07-15T09:16:29.000Z</time>
</trkpt>
<trkpt lat="46.0254350" lon="9.4935190">
	<ele>1876.80</ele>
	<time>2023-07-15T09:16:31.000Z</time>
</trkpt>
<trkpt lat="46.0254130" lon="9.4935520">
	<ele>1876.00</ele>
	<time>2023-07-15T09:16:34.000Z</time>
</trkpt>
<trkpt lat="46.0253910" lon="9.4935880">
	<ele>1875.40</ele>
	<time>2023-07-15T09:16:38.000Z</time>
</trkpt>
<trkpt lat="46.0253790" lon="9.4936080">
	<ele>1875.00</ele>
	<time>2023-07-15T09:16:40.000Z</time>
</trkpt>
<trkpt lat="46.0253600" lon="9.4936580">
	<ele>1874.80</ele>
	<time>2023-07-15T09:16:44.000Z</time>
</trkpt>
<trkpt lat="46.0253530" lon="9.4936700">
	<ele>1874.80</ele>
	<time>2023-07-15T09:16:46.000Z</time>
</trkpt>
<trkpt lat="46.0253490" lon="9.4936770">
	<ele>1874.80</ele>
	<time>2023-07-15T09:16:47.000Z</time>
</trkpt>
<trkpt lat="46.0253450" lon="9.4937000">
	<ele>1874.20</ele>
	<time>2023-07-15T09:16:51.000Z</time>
</trkpt>
<trkpt lat="46.0253460" lon="9.4937050">
	<ele>1874.00</ele>
	<time>2023-07-15T09:16:52.000Z</time>
</trkpt>
<trkpt lat="46.0253460" lon="9.4937110">
	<ele>1873.80</ele>
	<time>2023-07-15T09:16:53.000Z</time>
</trkpt>
<trkpt lat="46.0253360" lon="9.4937540">
	<ele>1872.60</ele>
	<time>2023-07-15T09:16:59.000Z</time>
</trkpt>
<trkpt lat="46.0253460" lon="9.4938120">
	<ele>1871.60</ele>
	<time>2023-07-15T09:17:05.000Z</time>
</trkpt>
<trkpt lat="46.0253380" lon="9.4938290">
	<ele>1871.20</ele>
	<time>2023-07-15T09:17:06.000Z</time>
</trkpt>
<trkpt lat="46.0252930" lon="9.4938480">
	<ele>1870.60</ele>
	<time>2023-07-15T09:17:12.000Z</time>
</trkpt>
<trkpt lat="46.0252900" lon="9.4938560">
	<ele>1870.40</ele>
	<time>2023-07-15T09:17:13.000Z</time>
</trkpt>
<trkpt lat="46.0252930" lon="9.4939020">
	<ele>1870.00</ele>
	<time>2023-07-15T09:17:16.000Z</time>
</trkpt>
<trkpt lat="46.0252830" lon="9.4939390">
	<ele>1869.60</ele>
	<time>2023-07-15T09:17:19.000Z</time>
</trkpt>
<trkpt lat="46.0252760" lon="9.4940140">
	<ele>1868.60</ele>
	<time>2023-07-15T09:17:25.000Z</time>
</trkpt>
<trkpt lat="46.0252620" lon="9.4940310">
	<ele>1868.20</ele>
	<time>2023-07-15T09:17:27.000Z</time>
</trkpt>
<trkpt lat="46.0252450" lon="9.4940530">
	<ele>1867.80</ele>
	<time>2023-07-15T09:17:32.000Z</time>
</trkpt>
<trkpt lat="46.0252550" lon="9.4940630">
	<ele>1867.40</ele>
	<time>2023-07-15T09:17:34.000Z</time>
</trkpt>
<trkpt lat="46.0252570" lon="9.4940730">
	<ele>1867.00</ele>
	<time>2023-07-15T09:17:35.000Z</time>
</trkpt>
<trkpt lat="46.0252640" lon="9.4940930">
	<ele>1866.80</ele>
	<time>2023-07-15T09:17:37.000Z</time>
</trkpt>
<trkpt lat="46.0252600" lon="9.4941640">
	<ele>1866.20</ele>
	<time>2023-07-15T09:17:41.000Z</time>
</trkpt>
<trkpt lat="46.0252540" lon="9.4942330">
	<ele>1865.80</ele>
	<time>2023-07-15T09:17:45.000Z</time>
</trkpt>
<trkpt lat="46.0252550" lon="9.4942600">
	<ele>1865.60</ele>
	<time>2023-07-15T09:17:47.000Z</time>
</trkpt>
<trkpt lat="46.0252610" lon="9.4942770">
	<ele>1865.40</ele>
	<time>2023-07-15T09:17:50.000Z</time>
</trkpt>
<trkpt lat="46.0252740" lon="9.4942910">
	<ele>1865.20</ele>
	<time>2023-07-15T09:17:52.000Z</time>
</trkpt>
<trkpt lat="46.0252750" lon="9.4943030">
	<ele>1865.00</ele>
	<time>2023-07-15T09:17:53.000Z</time>
</trkpt>
<trkpt lat="46.0252860" lon="9.4943430">
	<ele>1864.20</ele>
	<time>2023-07-15T09:17:58.000Z</time>
</trkpt>
<trkpt lat="46.0252890" lon="9.4943530">
	<ele>1864.00</ele>
	<time>2023-07-15T09:17:59.000Z</time>
</trkpt>
<trkpt lat="46.0252870" lon="9.4943930">
	<ele>1863.60</ele>
	<time>2023-07-15T09:18:02.000Z</time>
</trkpt>
<trkpt lat="46.0252960" lon="9.4944260">
	<ele>1862.80</ele>
	<time>2023-07-15T09:18:05.000Z</time>
</trkpt>
<trkpt lat="46.0252990" lon="9.4944400">
	<ele>1862.60</ele>
	<time>2023-07-15T09:18:06.000Z</time>
</trkpt>
<trkpt lat="46.0253100" lon="9.4944540">
	<ele>1862.60</ele>
	<time>2023-07-15T09:18:07.000Z</time>
</trkpt>
<trkpt lat="46.0253270" lon="9.4945190">
	<ele>1862.00</ele>
	<time>2023-07-15T09:18:13.000Z</time>
</trkpt>
<trkpt lat="46.0253310" lon="9.4945290">
	<ele>1862.00</ele>
	<time>2023-07-15T09:18:14.000Z</time>
</trkpt>
<trkpt lat="46.0253400" lon="9.4945440">
	<ele>1862.00</ele>
	<time>2023-07-15T09:18:15.000Z</time>
</trkpt>
<trkpt lat="46.0253460" lon="9.4945550">
	<ele>1861.80</ele>
	<time>2023-07-15T09:18:16.000Z</time>
</trkpt>
<trkpt lat="46.0253520" lon="9.4945730">
	<ele>1861.60</ele>
	<time>2023-07-15T09:18:18.000Z</time>
</trkpt>
<trkpt lat="46.0253540" lon="9.4945840">
	<ele>1861.60</ele>
	<time>2023-07-15T09:18:19.000Z</time>
</trkpt>
<trkpt lat="46.0253650" lon="9.4946700">
	<ele>1861.40</ele>
	<time>2023-07-15T09:18:26.000Z</time>
</trkpt>
<trkpt lat="46.0254170" lon="9.4947140">
	<ele>1861.20</ele>
	<time>2023-07-15T09:18:31.000Z</time>
</trkpt>
<trkpt lat="46.0254370" lon="9.4947350">
	<ele>1860.80</ele>
	<time>2023-07-15T09:18:33.000Z</time>
</trkpt>
<trkpt lat="46.0254400" lon="9.4947400">
	<ele>1860.60</ele>
	<time>2023-07-15T09:18:34.000Z</time>
</trkpt>
<trkpt lat="46.0254600" lon="9.4947440">
	<ele>1860.60</ele>
	<time>2023-07-15T09:18:37.000Z</time>
</trkpt>
<trkpt lat="46.0254960" lon="9.4947410">
	<ele>1860.40</ele>
	<time>2023-07-15T09:18:39.000Z</time>
</trkpt>
<trkpt lat="46.0255210" lon="9.4947430">
	<ele>1859.80</ele>
	<time>2023-07-15T09:18:42.000Z</time>
</trkpt>
<trkpt lat="46.0255590" lon="9.4947730">
	<ele>1858.80</ele>
	<time>2023-07-15T09:18:48.000Z</time>
</trkpt>
<trkpt lat="46.0255660" lon="9.4947790">
	<ele>1858.60</ele>
	<time>2023-07-15T09:18:49.000Z</time>
</trkpt>
<trkpt lat="46.0256020" lon="9.4947800">
	<ele>1857.60</ele>
	<time>2023-07-15T09:18:55.000Z</time>
</trkpt>
<trkpt lat="46.0256050" lon="9.4947790">
	<ele>1857.40</ele>
	<time>2023-07-15T09:18:56.000Z</time>
</trkpt>
<trkpt lat="46.0256120" lon="9.4947790">
	<ele>1857.20</ele>
	<time>2023-07-15T09:18:57.000Z</time>
</trkpt>
<trkpt lat="46.0256410" lon="9.4947870">
	<ele>1856.60</ele>
	<time>2023-07-15T09:19:00.000Z</time>
</trkpt>
<trkpt lat="46.0256500" lon="9.4947910">
	<ele>1856.40</ele>
	<time>2023-07-15T09:19:01.000Z</time>
</trkpt>
<trkpt lat="46.0256760" lon="9.4947980">
	<ele>1856.00</ele>
	<time>2023-07-15T09:19:04.000Z</time>
</trkpt>
<trkpt lat="46.0256830" lon="9.4948020">
	<ele>1855.80</ele>
	<time>2023-07-15T09:19:05.000Z</time>
</trkpt>
<trkpt lat="46.0256990" lon="9.4948140">
	<ele>1855.40</ele>
	<time>2023-07-15T09:19:07.000Z</time>
</trkpt>
<trkpt lat="46.0257760" lon="9.4948380">
	<ele>1854.40</ele>
	<time>2023-07-15T09:19:13.000Z</time>
</trkpt>
<trkpt lat="46.0258360" lon="9.4948810">
	<ele>1854.00</ele>
	<time>2023-07-15T09:19:20.000Z</time>
</trkpt>
<trkpt lat="46.0258680" lon="9.4949360">
	<ele>1853.40</ele>
	<time>2023-07-15T09:19:24.000Z</time>
</trkpt>
<trkpt lat="46.0258740" lon="9.4949500">
	<ele>1853.40</ele>
	<time>2023-07-15T09:19:25.000Z</time>
</trkpt>
<trkpt lat="46.0258760" lon="9.4949650">
	<ele>1853.20</ele>
	<time>2023-07-15T09:19:26.000Z</time>
</trkpt>
<trkpt lat="46.0258860" lon="9.4949850">
	<ele>1853.40</ele>
	<time>2023-07-15T09:19:29.000Z</time>
</trkpt>
<trkpt lat="46.0259070" lon="9.4950130">
	<ele>1854.20</ele>
	<time>2023-07-15T09:19:32.000Z</time>
</trkpt>
<trkpt lat="46.0259100" lon="9.4950180">
	<ele>1854.40</ele>
	<time>2023-07-15T09:19:33.000Z</time>
</trkpt>
<trkpt lat="46.0259410" lon="9.4950870">
	<ele>1855.40</ele>
	<time>2023-07-15T09:19:40.000Z</time>
</trkpt>
<trkpt lat="46.0259510" lon="9.4951040">
	<ele>1855.60</ele>
	<time>2023-07-15T09:19:42.000Z</time>
</trkpt>
<trkpt lat="46.0259550" lon="9.4951170">
	<ele>1855.80</ele>
	<time>2023-07-15T09:19:44.000Z</time>
</trkpt>
<trkpt lat="46.0259730" lon="9.4951490">
	<ele>1856.00</ele>
	<time>2023-07-15T09:19:47.000Z</time>
</trkpt>
<trkpt lat="46.0259830" lon="9.4951610">
	<ele>1856.00</ele>
	<time>2023-07-15T09:19:48.000Z</time>
</trkpt>
<trkpt lat="46.0260210" lon="9.4952150">
	<ele>1856.60</ele>
	<time>2023-07-15T09:19:54.000Z</time>
</trkpt>
<trkpt lat="46.0260300" lon="9.4952300">
	<ele>1857.00</ele>
	<time>2023-07-15T09:19:57.000Z</time>
</trkpt>
<trkpt lat="46.0260500" lon="9.4952600">
	<ele>1857.60</ele>
	<time>2023-07-15T09:20:01.000Z</time>
</trkpt>
<trkpt lat="46.0260510" lon="9.4952710">
	<ele>1857.60</ele>
	<time>2023-07-15T09:20:02.000Z</time>
</trkpt>
<trkpt lat="46.0260510" lon="9.4952950">
	<ele>1858.20</ele>
	<time>2023-07-15T09:20:05.000Z</time>
</trkpt>
<trkpt lat="46.0260570" lon="9.4953030">
	<ele>1858.80</ele>
	<time>2023-07-15T09:20:07.000Z</time>
</trkpt>
<trkpt lat="46.0260830" lon="9.4953280">
	<ele>1859.40</ele>
	<time>2023-07-15T09:20:13.000Z</time>
</trkpt>
<trkpt lat="46.0260870" lon="9.4953330">
	<ele>1860.00</ele>
	<time>2023-07-15T09:20:15.000Z</time>
</trkpt>
<trkpt lat="46.0260920" lon="9.4953390">
	<ele>1860.20</ele>
	<time>2023-07-15T09:20:16.000Z</time>
</trkpt>
<trkpt lat="46.0261000" lon="9.4953420">
	<ele>1860.40</ele>
	<time>2023-07-15T09:20:18.000Z</time>
</trkpt>
<trkpt lat="46.0261100" lon="9.4953550">
	<ele>1860.60</ele>
	<time>2023-07-15T09:20:20.000Z</time>
</trkpt>
<trkpt lat="46.0261310" lon="9.4953660">
	<ele>1861.20</ele>
	<time>2023-07-15T09:20:23.000Z</time>
</trkpt>
<trkpt lat="46.0261740" lon="9.4954080">
	<ele>1862.20</ele>
	<time>2023-07-15T09:20:30.000Z</time>
</trkpt>
<trkpt lat="46.0261820" lon="9.4954170">
	<ele>1862.20</ele>
	<time>2023-07-15T09:20:31.000Z</time>
</trkpt>
<trkpt lat="46.0262340" lon="9.4954660">
	<ele>1862.60</ele>
	<time>2023-07-15T09:20:38.000Z</time>
</trkpt>
<trkpt lat="46.0262450" lon="9.4954850">
	<ele>1863.20</ele>
	<time>2023-07-15T09:20:41.000Z</time>
</trkpt>
<trkpt lat="46.0262480" lon="9.4954900">
	<ele>1863.40</ele>
	<time>2023-07-15T09:20:42.000Z</time>
</trkpt>
<trkpt lat="46.0262670" lon="9.4955010">
	<ele>1864.00</ele>
	<time>2023-07-15T09:20:47.000Z</time>
</trkpt>
<trkpt lat="46.0262710" lon="9.4955060">
	<ele>1864.20</ele>
	<time>2023-07-15T09:20:48.000Z</time>
</trkpt>
<trkpt lat="46.0263030" lon="9.4955310">
	<ele>1865.20</ele>
	<time>2023-07-15T09:20:55.000Z</time>
</trkpt>
<trkpt lat="46.0263170" lon="9.4955380">
	<ele>1865.20</ele>
	<time>2023-07-15T09:20:57.000Z</time>
</trkpt>
<trkpt lat="46.0263560" lon="9.4955680">
	<ele>1866.20</ele>
	<time>2023-07-15T09:21:03.000Z</time>
</trkpt>
<trkpt lat="46.0263680" lon="9.4955740">
	<ele>1866.40</ele>
	<time>2023-07-15T09:21:05.000Z</time>
</trkpt>
<trkpt lat="46.0263940" lon="9.4955940">
	<ele>1867.20</ele>
	<time>2023-07-15T09:21:10.000Z</time>
</trkpt>
<trkpt lat="46.0263990" lon="9.4956030">
	<ele>1867.60</ele>
	<time>2023-07-15T09:21:12.000Z</time>
</trkpt>
<trkpt lat="46.0264250" lon="9.4956290">
	<ele>1868.60</ele>
	<time>2023-07-15T09:21:18.000Z</time>
</trkpt>
<trkpt lat="46.0264430" lon="9.4956400">
	<ele>1869.00</ele>
	<time>2023-07-15T09:21:21.000Z</time>
</trkpt>
<trkpt lat="46.0264640" lon="9.4956640">
	<ele>1869.60</ele>
	<time>2023-07-15T09:21:26.000Z</time>
</trkpt>
<trkpt lat="46.0264780" lon="9.4956700">
	<ele>1870.20</ele>
	<time>2023-07-15T09:21:29.000Z</time>
</trkpt>
<trkpt lat="46.0264850" lon="9.4956810">
	<ele>1870.80</ele>
	<time>2023-07-15T09:21:32.000Z</time>
</trkpt>
<trkpt lat="46.0265060" lon="9.4957030">
	<ele>1871.80</ele>
	<time>2023-07-15T09:21:38.000Z</time>
</trkpt>
<trkpt lat="46.0265090" lon="9.4957040">
	<ele>1871.80</ele>
	<time>2023-07-15T09:21:39.000Z</time>
</trkpt>
<trkpt lat="46.0265500" lon="9.4957130">
	<ele>1872.80</ele>
	<time>2023-07-15T09:21:46.000Z</time>
</trkpt>
<trkpt lat="46.0265610" lon="9.4957190">
	<ele>1873.20</ele>
	<time>2023-07-15T09:21:48.000Z</time>
</trkpt>
<trkpt lat="46.0265780" lon="9.4957190">
	<ele>1874.00</ele>
	<time>2023-07-15T09:21:53.000Z</time>
</trkpt>
<trkpt lat="46.0265980" lon="9.4957250">
	<ele>1874.80</ele>
	<time>2023-07-15T09:21:58.000Z</time>
</trkpt>
<trkpt lat="46.0266110" lon="9.4957400">
	<ele>1875.20</ele>
	<time>2023-07-15T09:22:01.000Z</time>
</trkpt>
<trkpt lat="46.0266580" lon="9.4957650">
	<ele>1876.00</ele>
	<time>2023-07-15T09:22:08.000Z</time>
</trkpt>
<trkpt lat="46.0266730" lon="9.4957730">
	<ele>1876.20</ele>
	<time>2023-07-15T09:22:10.000Z</time>
</trkpt>
<trkpt lat="46.0267090" lon="9.4958060">
	<ele>1876.40</ele>
	<time>2023-07-15T09:22:15.000Z</time>
</trkpt>
<trkpt lat="46.0267840" lon="9.4958550">
	<ele>1877.20</ele>
	<time>2023-07-15T09:22:25.000Z</time>
</trkpt>
<trkpt lat="46.0267910" lon="9.4958540">
	<ele>1877.40</ele>
	<time>2023-07-15T09:22:26.000Z</time>
</trkpt>
<trkpt lat="46.0268530" lon="9.4958850">
	<ele>1878.20</ele>
	<time>2023-07-15T09:22:35.000Z</time>
</trkpt>
<trkpt lat="46.0268560" lon="9.4958870">
	<ele>1878.20</ele>
	<time>2023-07-15T09:22:36.000Z</time>
</trkpt>
<trkpt lat="46.0268570" lon="9.4958920">
	<ele>1878.40</ele>
	<time>2023-07-15T09:22:37.000Z</time>
</trkpt>
<trkpt lat="46.0268750" lon="9.4959110">
	<ele>1879.00</ele>
	<time>2023-07-15T09:22:41.000Z</time>
</trkpt>
<trkpt lat="46.0268860" lon="9.4959100">
	<ele>1879.40</ele>
	<time>2023-07-15T09:22:43.000Z</time>
</trkpt>
<trkpt lat="46.0269070" lon="9.4959100">
	<ele>1879.80</ele>
	<time>2023-07-15T09:22:45.000Z</time>
</trkpt>
<trkpt lat="46.0269380" lon="9.4959230">
	<ele>1880.40</ele>
	<time>2023-07-15T09:22:50.000Z</time>
</trkpt>
<trkpt lat="46.0269680" lon="9.4959260">
	<ele>1881.00</ele>
	<time>2023-07-15T09:22:55.000Z</time>
</trkpt>
<trkpt lat="46.0269770" lon="9.4959390">
	<ele>1881.40</ele>
	<time>2023-07-15T09:22:58.000Z</time>
</trkpt>
<trkpt lat="46.0269840" lon="9.4959510">
	<ele>1882.20</ele>
	<time>2023-07-15T09:23:02.000Z</time>
</trkpt>
<trkpt lat="46.0270000" lon="9.4959530">
	<ele>1882.60</ele>
	<time>2023-07-15T09:23:04.000Z</time>
</trkpt>
<trkpt lat="46.0270500" lon="9.4959940">
	<ele>1883.60</ele>
	<time>2023-07-15T09:23:11.000Z</time>
</trkpt>
<trkpt lat="46.0270540" lon="9.4960020">
	<ele>1883.80</ele>
	<time>2023-07-15T09:23:12.000Z</time>
</trkpt>
<trkpt lat="46.0270850" lon="9.4960420">
	<ele>1884.80</ele>
	<time>2023-07-15T09:23:18.000Z</time>
</trkpt>
<trkpt lat="46.0270920" lon="9.4960460">
	<ele>1885.00</ele>
	<time>2023-07-15T09:23:19.000Z</time>
</trkpt>
<trkpt lat="46.0271370" lon="9.4960900">
	<ele>1885.80</ele>
	<time>2023-07-15T09:23:27.000Z</time>
</trkpt>
<trkpt lat="46.0271520" lon="9.4960920">
	<ele>1886.00</ele>
	<time>2023-07-15T09:23:29.000Z</time>
</trkpt>
<trkpt lat="46.0271650" lon="9.4961100">
	<ele>1887.00</ele>
	<time>2023-07-15T09:23:36.000Z</time>
</trkpt>
<trkpt lat="46.0271670" lon="9.4961100">
	<ele>1887.80</ele>
	<time>2023-07-15T09:23:45.000Z</time>
</trkpt>
<trkpt lat="46.0271650" lon="9.4961100">
	<ele>1887.80</ele>
	<time>2023-07-15T09:23:51.000Z</time>
</trkpt>
<trkpt lat="46.0271580" lon="9.4961040">
	<ele>1887.20</ele>
	<time>2023-07-15T09:23:59.000Z</time>
</trkpt>
<trkpt lat="46.0271570" lon="9.4960950">
	<ele>1888.00</ele>
	<time>2023-07-15T09:24:15.000Z</time>
</trkpt>
<trkpt lat="46.0271620" lon="9.4960900">
	<ele>1887.60</ele>
	<time>2023-07-15T09:24:25.000Z</time>
</trkpt>
<trkpt lat="46.0272070" lon="9.4961150">
	<ele>1887.20</ele>
	<time>2023-07-15T09:24:34.000Z</time>
</trkpt>
<trkpt lat="46.0272210" lon="9.4961250">
	<ele>1887.20</ele>
	<time>2023-07-15T09:24:35.000Z</time>
</trkpt>
<trkpt lat="46.0272470" lon="9.4961450">
	<ele>1887.40</ele>
	<time>2023-07-15T09:24:38.000Z</time>
</trkpt>
<trkpt lat="46.0272600" lon="9.4961540">
	<ele>1887.40</ele>
	<time>2023-07-15T09:24:40.000Z</time>
</trkpt>
<trkpt lat="46.0272800" lon="9.4961540">
	<ele>1887.80</ele>
	<time>2023-07-15T09:24:43.000Z</time>
</trkpt>
<trkpt lat="46.0273110" lon="9.4961810">
	<ele>1888.40</ele>
	<time>2023-07-15T09:24:47.000Z</time>
</trkpt>
<trkpt lat="46.0273290" lon="9.4961960">
	<ele>1888.60</ele>
	<time>2023-07-15T09:24:49.000Z</time>
</trkpt>
<trkpt lat="46.0273440" lon="9.4962140">
	<ele>1889.00</ele>
	<time>2023-07-15T09:24:51.000Z</time>
</trkpt>
<trkpt lat="46.0273630" lon="9.4962230">
	<ele>1889.40</ele>
	<time>2023-07-15T09:24:54.000Z</time>
</trkpt>
<trkpt lat="46.0273840" lon="9.4962360">
	<ele>1890.20</ele>
	<time>2023-07-15T09:24:58.000Z</time>
</trkpt>
<trkpt lat="46.0274070" lon="9.4962570">
	<ele>1890.80</ele>
	<time>2023-07-15T09:25:02.000Z</time>
</trkpt>
<trkpt lat="46.0274090" lon="9.4962580">
	<ele>1891.40</ele>
	<time>2023-07-15T09:25:03.000Z</time>
</trkpt>
<trkpt lat="46.0274100" lon="9.4962580">
	<ele>1892.00</ele>
	<time>2023-07-15T09:25:06.000Z</time>
</trkpt>
<trkpt lat="46.0274300" lon="9.4962870">
	<ele>1891.80</ele>
	<time>2023-07-15T09:25:11.000Z</time>
</trkpt>
<trkpt lat="46.0274330" lon="9.4963020">
	<ele>1891.60</ele>
	<time>2023-07-15T09:25:13.000Z</time>
</trkpt>
<trkpt lat="46.0274450" lon="9.4963080">
	<ele>1892.20</ele>
	<time>2023-07-15T09:25:15.000Z</time>
</trkpt>
<trkpt lat="46.0274580" lon="9.4963210">
	<ele>1892.40</ele>
	<time>2023-07-15T09:25:18.000Z</time>
</trkpt>
<trkpt lat="46.0274850" lon="9.4963460">
	<ele>1893.40</ele>
	<time>2023-07-15T09:25:26.000Z</time>
</trkpt>
<trkpt lat="46.0274920" lon="9.4963540">
	<ele>1893.80</ele>
	<time>2023-07-15T09:25:28.000Z</time>
</trkpt>
<trkpt lat="46.0275000" lon="9.4963650">
	<ele>1894.20</ele>
	<time>2023-07-15T09:25:30.000Z</time>
</trkpt>
<trkpt lat="46.0274940" lon="9.4963840">
	<ele>1894.60</ele>
	<time>2023-07-15T09:25:32.000Z</time>
</trkpt>
<trkpt lat="46.0274980" lon="9.4963880">
	<ele>1894.80</ele>
	<time>2023-07-15T09:25:35.000Z</time>
</trkpt>
<trkpt lat="46.0274910" lon="9.4964100">
	<ele>1895.20</ele>
	<time>2023-07-15T09:25:40.000Z</time>
</trkpt>
<trkpt lat="46.0274890" lon="9.4964110">
	<ele>1895.40</ele>
	<time>2023-07-15T09:25:41.000Z</time>
</trkpt>
<trkpt lat="46.0274860" lon="9.4964140">
	<ele>1895.60</ele>
	<time>2023-07-15T09:25:43.000Z</time>
</trkpt>
<trkpt lat="46.0274860" lon="9.4964150">
	<ele>1895.80</ele>
	<time>2023-07-15T09:25:49.000Z</time>
</trkpt>
<trkpt lat="46.0274720" lon="9.4964140">
	<ele>1896.60</ele>
	<time>2023-07-15T09:26:03.000Z</time>
</trkpt>
<trkpt lat="46.0274290" lon="9.4964070">
	<ele>1897.00</ele>
	<time>2023-07-15T09:26:07.000Z</time>
</trkpt>
<trkpt lat="46.0273480" lon="9.4964140">
	<ele>1897.60</ele>
	<time>2023-07-15T09:26:13.000Z</time>
</trkpt>
<trkpt lat="46.0273190" lon="9.4964170">
	<ele>1898.40</ele>
	<time>2023-07-15T09:26:19.000Z</time>
</trkpt>
<trkpt lat="46.0273090" lon="9.4964220">
	<ele>1898.80</ele>
	<time>2023-07-15T09:26:21.000Z</time>
</trkpt>
<trkpt lat="46.0272650" lon="9.4964800">
	<ele>1899.40</ele>
	<time>2023-07-15T09:26:28.000Z</time>
</trkpt>
<trkpt lat="46.0272400" lon="9.4965040">
	<ele>1899.80</ele>
	<time>2023-07-15T09:26:31.000Z</time>
</trkpt>
<trkpt lat="46.0271950" lon="9.4965280">
	<ele>1900.00</ele>
	<time>2023-07-15T09:26:36.000Z</time>
</trkpt>
<trkpt lat="46.0271230" lon="9.4965560">
	<ele>1900.60</ele>
	<time>2023-07-15T09:26:43.000Z</time>
</trkpt>
<trkpt lat="46.0270340" lon="9.4966220">
	<ele>1900.20</ele>
	<time>2023-07-15T09:26:53.000Z</time>
</trkpt>
<trkpt lat="46.0269650" lon="9.4966690">
	<ele>1899.80</ele>
	<time>2023-07-15T09:27:01.000Z</time>
</trkpt>
<trkpt lat="46.0269010" lon="9.4967100">
	<ele>1900.00</ele>
	<time>2023-07-15T09:27:09.000Z</time>
</trkpt>
<trkpt lat="46.0268430" lon="9.4967420">
	<ele>1899.80</ele>
	<time>2023-07-15T09:27:15.000Z</time>
</trkpt>
<trkpt lat="46.0268270" lon="9.4967490">
	<ele>1899.80</ele>
	<time>2023-07-15T09:27:17.000Z</time>
</trkpt>
<trkpt lat="46.0267600" lon="9.4967510">
	<ele>1900.20</ele>
	<time>2023-07-15T09:27:23.000Z</time>
</trkpt>
<trkpt lat="46.0267410" lon="9.4967480">
	<ele>1900.20</ele>
	<time>2023-07-15T09:27:25.000Z</time>
</trkpt>
<trkpt lat="46.0267310" lon="9.4967530">
	<ele>1900.40</ele>
	<time>2023-07-15T09:27:26.000Z</time>
</trkpt>
<trkpt lat="46.0267180" lon="9.4967580">
	<ele>1901.00</ele>
	<time>2023-07-15T09:27:29.000Z</time>
</trkpt>
<trkpt lat="46.0267030" lon="9.4967490">
	<ele>1901.60</ele>
	<time>2023-07-15T09:27:31.000Z</time>
</trkpt>
<trkpt lat="46.0266510" lon="9.4967990">
	<ele>1902.00</ele>
	<time>2023-07-15T09:27:37.000Z</time>
</trkpt>
<trkpt lat="46.0266480" lon="9.4967990">
	<ele>1902.20</ele>
	<time>2023-07-15T09:27:38.000Z</time>
</trkpt>
<trkpt lat="46.0266420" lon="9.4967890">
	<ele>1902.20</ele>
	<time>2023-07-15T09:27:39.000Z</time>
</trkpt>
<trkpt lat="46.0266330" lon="9.4967840">
	<ele>1902.40</ele>
	<time>2023-07-15T09:27:41.000Z</time>
</trkpt>
<trkpt lat="46.0266210" lon="9.4967920">
	<ele>1903.00</ele>
	<time>2023-07-15T09:27:43.000Z</time>
</trkpt>
<trkpt lat="46.0265990" lon="9.4968060">
	<ele>1903.20</ele>
	<time>2023-07-15T09:27:45.000Z</time>
</trkpt>
<trkpt lat="46.0265580" lon="9.4968410">
	<ele>1903.80</ele>
	<time>2023-07-15T09:27:51.000Z</time>
</trkpt>
<trkpt lat="46.0265520" lon="9.4968490">
	<ele>1904.20</ele>
	<time>2023-07-15T09:27:53.000Z</time>
</trkpt>
<trkpt lat="46.0265350" lon="9.4968770">
	<ele>1904.60</ele>
	<time>2023-07-15T09:27:56.000Z</time>
</trkpt>
<trkpt lat="46.0265140" lon="9.4968880">
	<ele>1904.80</ele>
	<time>2023-07-15T09:27:58.000Z</time>
</trkpt>
<trkpt lat="46.0264940" lon="9.4968890">
	<ele>1905.00</ele>
	<time>2023-07-15T09:28:01.000Z</time>
</trkpt>
<trkpt lat="46.0264840" lon="9.4968970">
	<ele>1905.20</ele>
	<time>2023-07-15T09:28:03.000Z</time>
</trkpt>
<trkpt lat="46.0264790" lon="9.4969090">
	<ele>1905.40</ele>
	<time>2023-07-15T09:28:04.000Z</time>
</trkpt>
<trkpt lat="46.0264640" lon="9.4969120">
	<ele>1905.80</ele>
	<time>2023-07-15T09:28:07.000Z</time>
</trkpt>
<trkpt lat="46.0264610" lon="9.4969170">
	<ele>1906.20</ele>
	<time>2023-07-15T09:28:09.000Z</time>
</trkpt>
<trkpt lat="46.0264460" lon="9.4969280">
	<ele>1906.40</ele>
	<time>2023-07-15T09:28:11.000Z</time>
</trkpt>
<trkpt lat="46.0264410" lon="9.4969290">
	<ele>1906.40</ele>
	<time>2023-07-15T09:28:12.000Z</time>
</trkpt>
<trkpt lat="46.0264160" lon="9.4969740">
	<ele>1907.20</ele>
	<time>2023-07-15T09:28:16.000Z</time>
</trkpt>
<trkpt lat="46.0264020" lon="9.4970060">
	<ele>1907.60</ele>
	<time>2023-07-15T09:28:20.000Z</time>
</trkpt>
<trkpt lat="46.0263770" lon="9.4970170">
	<ele>1908.00</ele>
	<time>2023-07-15T09:28:23.000Z</time>
</trkpt>
<trkpt lat="46.0263420" lon="9.4970370">
	<ele>1908.80</ele>
	<time>2023-07-15T09:28:26.000Z</time>
</trkpt>
<trkpt lat="46.0263080" lon="9.4970410">
	<ele>1909.20</ele>
	<time>2023-07-15T09:28:30.000Z</time>
</trkpt>
<trkpt lat="46.0262800" lon="9.4970610">
	<ele>1909.80</ele>
	<time>2023-07-15T09:28:34.000Z</time>
</trkpt>
<trkpt lat="46.0262590" lon="9.4970820">
	<ele>1910.20</ele>
	<time>2023-07-15T09:28:37.000Z</time>
</trkpt>
<trkpt lat="46.0262510" lon="9.4971040">
	<ele>1910.80</ele>
	<time>2023-07-15T09:28:41.000Z</time>
</trkpt>
<trkpt lat="46.0262210" lon="9.4971520">
	<ele>1911.80</ele>
	<time>2023-07-15T09:28:47.000Z</time>
</trkpt>
<trkpt lat="46.0262160" lon="9.4971750">
	<ele>1912.00</ele>
	<time>2023-07-15T09:28:48.000Z</time>
</trkpt>
<trkpt lat="46.0262110" lon="9.4971930">
	<ele>1912.40</ele>
	<time>2023-07-15T09:28:50.000Z</time>
</trkpt>
<trkpt lat="46.0262100" lon="9.4972030">
	<ele>1912.60</ele>
	<time>2023-07-15T09:28:51.000Z</time>
</trkpt>
<trkpt lat="46.0262120" lon="9.4972350">
	<ele>1912.60</ele>
	<time>2023-07-15T09:28:53.000Z</time>
</trkpt>
<trkpt lat="46.0262050" lon="9.4972710">
	<ele>1912.60</ele>
	<time>2023-07-15T09:28:56.000Z</time>
</trkpt>
<trkpt lat="46.0261950" lon="9.4972810">
	<ele>1912.60</ele>
	<time>2023-07-15T09:28:57.000Z</time>
</trkpt>
<trkpt lat="46.0261580" lon="9.4973040">
	<ele>1912.60</ele>
	<time>2023-07-15T09:29:01.000Z</time>
</trkpt>
<trkpt lat="46.0261370" lon="9.4973330">
	<ele>1912.60</ele>
	<time>2023-07-15T09:29:04.000Z</time>
</trkpt>
<trkpt lat="46.0261260" lon="9.4973560">
	<ele>1913.20</ele>
	<time>2023-07-15T09:29:07.000Z</time>
</trkpt>
<trkpt lat="46.0261150" lon="9.4973650">
	<ele>1913.60</ele>
	<time>2023-07-15T09:29:10.000Z</time>
</trkpt>
<trkpt lat="46.0261200" lon="9.4973960">
	<ele>1914.40</ele>
	<time>2023-07-15T09:29:14.000Z</time>
</trkpt>
<trkpt lat="46.0261210" lon="9.4974010">
	<ele>1914.60</ele>
	<time>2023-07-15T09:29:15.000Z</time>
</trkpt>
<trkpt lat="46.0261120" lon="9.4974040">
	<ele>1915.00</ele>
	<time>2023-07-15T09:29:17.000Z</time>
</trkpt>
<trkpt lat="46.0261070" lon="9.4974620">
	<ele>1915.00</ele>
	<time>2023-07-15T09:29:22.000Z</time>
</trkpt>
<trkpt lat="46.0260870" lon="9.4974810">
	<ele>1914.80</ele>
	<time>2023-07-15T09:29:24.000Z</time>
</trkpt>
<trkpt lat="46.0260590" lon="9.4975020">
	<ele>1915.00</ele>
	<time>2023-07-15T09:29:28.000Z</time>
</trkpt>
<trkpt lat="46.0260280" lon="9.4975390">
	<ele>1915.60</ele>
	<time>2023-07-15T09:29:32.000Z</time>
</trkpt>
<trkpt lat="46.0260210" lon="9.4975440">
	<ele>1915.60</ele>
	<time>2023-07-15T09:29:33.000Z</time>
</trkpt>
<trkpt lat="46.0260030" lon="9.4975610">
	<ele>1916.00</ele>
	<time>2023-07-15T09:29:35.000Z</time>
</trkpt>
<trkpt lat="46.0259970" lon="9.4975650">
	<ele>1916.60</ele>
	<time>2023-07-15T09:29:39.000Z</time>
</trkpt>
<trkpt lat="46.0259790" lon="9.4975930">
	<ele>1917.60</ele>
	<time>2023-07-15T09:29:44.000Z</time>
</trkpt>
<trkpt lat="46.0259760" lon="9.4976010">
	<ele>1917.80</ele>
	<time>2023-07-15T09:29:45.000Z</time>
</trkpt>
<trkpt lat="46.0259750" lon="9.4976460">
	<ele>1918.00</ele>
	<time>2023-07-15T09:29:49.000Z</time>
</trkpt>
<trkpt lat="46.0259620" lon="9.4976680">
	<ele>1918.00</ele>
	<time>2023-07-15T09:29:51.000Z</time>
</trkpt>
<trkpt lat="46.0259320" lon="9.4977230">
	<ele>1918.20</ele>
	<time>2023-07-15T09:29:58.000Z</time>
</trkpt>
<trkpt lat="46.0259080" lon="9.4977430">
	<ele>1918.20</ele>
	<time>2023-07-15T09:30:00.000Z</time>
</trkpt>
<trkpt lat="46.0258770" lon="9.4977760">
	<ele>1918.60</ele>
	<time>2023-07-15T09:30:04.000Z</time>
</trkpt>
<trkpt lat="46.0258310" lon="9.4978570">
	<ele>1919.40</ele>
	<time>2023-07-15T09:30:12.000Z</time>
</trkpt>
<trkpt lat="46.0258020" lon="9.4979130">
	<ele>1919.40</ele>
	<time>2023-07-15T09:30:17.000Z</time>
</trkpt>
<trkpt lat="46.0258060" lon="9.4979380">
	<ele>1919.20</ele>
	<time>2023-07-15T09:30:19.000Z</time>
</trkpt>
<trkpt lat="46.0257430" lon="9.4980100">
	<ele>1919.00</ele>
	<time>2023-07-15T09:30:26.000Z</time>
</trkpt>
<trkpt lat="46.0257340" lon="9.4980230">
	<ele>1919.00</ele>
	<time>2023-07-15T09:30:27.000Z</time>
</trkpt>
<trkpt lat="46.0256450" lon="9.4981040">
	<ele>1919.20</ele>
	<time>2023-07-15T09:30:36.000Z</time>
</trkpt>
<trkpt lat="46.0256230" lon="9.4981580">
	<ele>1919.40</ele>
	<time>2023-07-15T09:30:41.000Z</time>
</trkpt>
<trkpt lat="46.0256210" lon="9.4981760">
	<ele>1919.40</ele>
	<time>2023-07-15T09:30:43.000Z</time>
</trkpt>
<trkpt lat="46.0255410" lon="9.4982760">
	<ele>1919.60</ele>
	<time>2023-07-15T09:30:52.000Z</time>
</trkpt>
<trkpt lat="46.0255150" lon="9.4983100">
	<ele>1919.80</ele>
	<time>2023-07-15T09:30:54.000Z</time>
</trkpt>
<trkpt lat="46.0254980" lon="9.4983560">
	<ele>1920.40</ele>
	<time>2023-07-15T09:30:58.000Z</time>
</trkpt>
<trkpt lat="46.0255110" lon="9.4983660">
	<ele>1920.80</ele>
	<time>2023-07-15T09:31:01.000Z</time>
</trkpt>
<trkpt lat="46.0254860" lon="9.4983920">
	<ele>1921.40</ele>
	<time>2023-07-15T09:31:05.000Z</time>
</trkpt>
<trkpt lat="46.0254720" lon="9.4984010">
	<ele>1921.60</ele>
	<time>2023-07-15T09:31:06.000Z</time>
</trkpt>
<trkpt lat="46.0254440" lon="9.4984360">
	<ele>1921.80</ele>
	<time>2023-07-15T09:31:10.000Z</time>
</trkpt>
<trkpt lat="46.0254420" lon="9.4984540">
	<ele>1921.80</ele>
	<time>2023-07-15T09:31:12.000Z</time>
</trkpt>
<trkpt lat="46.0254410" lon="9.4984580">
	<ele>1922.00</ele>
	<time>2023-07-15T09:31:13.000Z</time>
</trkpt>
<trkpt lat="46.0254270" lon="9.4984810">
	<ele>1923.00</ele>
	<time>2023-07-15T09:31:17.000Z</time>
</trkpt>
<trkpt lat="46.0254240" lon="9.4984870">
	<ele>1923.20</ele>
	<time>2023-07-15T09:31:18.000Z</time>
</trkpt>
<trkpt lat="46.0254130" lon="9.4985260">
	<ele>1923.60</ele>
	<time>2023-07-15T09:31:23.000Z</time>
</trkpt>
<trkpt lat="46.0254130" lon="9.4985450">
	<ele>1924.00</ele>
	<time>2023-07-15T09:31:25.000Z</time>
</trkpt>
<trkpt lat="46.0254090" lon="9.4985630">
	<ele>1924.20</ele>
	<time>2023-07-15T09:31:27.000Z</time>
</trkpt>
<trkpt lat="46.0253770" lon="9.4985950">
	<ele>1924.80</ele>
	<time>2023-07-15T09:31:32.000Z</time>
</trkpt>
<trkpt lat="46.0253630" lon="9.4986060">
	<ele>1925.20</ele>
	<time>2023-07-15T09:31:34.000Z</time>
</trkpt>
<trkpt lat="46.0253560" lon="9.4986170">
	<ele>1925.20</ele>
	<time>2023-07-15T09:31:35.000Z</time>
</trkpt>
<trkpt lat="46.0253520" lon="9.4986220">
	<ele>1925.40</ele>
	<time>2023-07-15T09:31:36.000Z</time>
</trkpt>
<trkpt lat="46.0253490" lon="9.4986370">
	<ele>1925.40</ele>
	<time>2023-07-15T09:31:37.000Z</time>
</trkpt>
<trkpt lat="46.0253430" lon="9.4986830">
	<ele>1926.20</ele>
	<time>2023-07-15T09:31:43.000Z</time>
</trkpt>
<trkpt lat="46.0253300" lon="9.4986920">
	<ele>1926.40</ele>
	<time>2023-07-15T09:31:44.000Z</time>
</trkpt>
<trkpt lat="46.0253040" lon="9.4987260">
	<ele>1927.60</ele>
	<time>2023-07-15T09:31:50.000Z</time>
</trkpt>
<trkpt lat="46.0253050" lon="9.4987330">
	<ele>1927.60</ele>
	<time>2023-07-15T09:31:51.000Z</time>
</trkpt>
<trkpt lat="46.0253030" lon="9.4987770">
	<ele>1928.80</ele>
	<time>2023-07-15T09:31:57.000Z</time>
</trkpt>
<trkpt lat="46.0252910" lon="9.4988030">
	<ele>1929.60</ele>
	<time>2023-07-15T09:32:03.000Z</time>
</trkpt>
<trkpt lat="46.0252880" lon="9.4988020">
	<ele>1929.80</ele>
	<time>2023-07-15T09:32:06.000Z</time>
</trkpt>
<trkpt lat="46.0252990" lon="9.4987950">
	<ele>1929.80</ele>
	<time>2023-07-15T09:32:11.000Z</time>
</trkpt>
<trkpt lat="46.0252930" lon="9.4987930">
	<ele>1929.80</ele>
	<time>2023-07-15T09:32:19.000Z</time>
</trkpt>
<trkpt lat="46.0252930" lon="9.4987950">
	<ele>1929.60</ele>
	<time>2023-07-15T09:32:32.000Z</time>
</trkpt>
<trkpt lat="46.0252930" lon="9.4987980">
	<ele>1929.60</ele>
	<time>2023-07-15T09:32:35.000Z</time>
</trkpt>
<trkpt lat="46.0252830" lon="9.4987990">
	<ele>1929.60</ele>
	<time>2023-07-15T09:32:43.000Z</time>
</trkpt>
<trkpt lat="46.0252740" lon="9.4988000">
	<ele>1930.20</ele>
	<time>2023-07-15T09:32:49.000Z</time>
</trkpt>
<trkpt lat="46.0252650" lon="9.4988890">
	<ele>1930.80</ele>
	<time>2023-07-15T09:32:55.000Z</time>
</trkpt>
<trkpt lat="46.0252390" lon="9.4989440">
	<ele>1931.60</ele>
	<time>2023-07-15T09:32:59.000Z</time>
</trkpt>
<trkpt lat="46.0252300" lon="9.4989640">
	<ele>1932.00</ele>
	<time>2023-07-15T09:33:02.000Z</time>
</trkpt>
<trkpt lat="46.0252220" lon="9.4989860">
	<ele>1932.60</ele>
	<time>2023-07-15T09:33:05.000Z</time>
</trkpt>
<trkpt lat="46.0252160" lon="9.4989980">
	<ele>1933.00</ele>
	<time>2023-07-15T09:33:07.000Z</time>
</trkpt>
<trkpt lat="46.0252160" lon="9.4990280">
	<ele>1933.60</ele>
	<time>2023-07-15T09:33:11.000Z</time>
</trkpt>
<trkpt lat="46.0252090" lon="9.4990680">
	<ele>1934.00</ele>
	<time>2023-07-15T09:33:15.000Z</time>
</trkpt>
<trkpt lat="46.0251930" lon="9.4991280">
	<ele>1934.80</ele>
	<time>2023-07-15T09:33:21.000Z</time>
</trkpt>
<trkpt lat="46.0251730" lon="9.4991720">
	<ele>1935.20</ele>
	<time>2023-07-15T09:33:25.000Z</time>
</trkpt>
<trkpt lat="46.0251610" lon="9.4992270">
	<ele>1936.00</ele>
	<time>2023-07-15T09:33:31.000Z</time>
</trkpt>
<trkpt lat="46.0251470" lon="9.4992460">
	<ele>1936.20</ele>
	<time>2023-07-15T09:33:34.000Z</time>
</trkpt>
<trkpt lat="46.0251270" lon="9.4992990">
	<ele>1937.00</ele>
	<time>2023-07-15T09:33:40.000Z</time>
</trkpt>
<trkpt lat="46.0251190" lon="9.4993340">
	<ele>1937.20</ele>
	<time>2023-07-15T09:33:43.000Z</time>
</trkpt>
<trkpt lat="46.0251120" lon="9.4993690">
	<ele>1938.40</ele>
	<time>2023-07-15T09:33:49.000Z</time>
</trkpt>
<trkpt lat="46.0251090" lon="9.4993810">
	<ele>1938.80</ele>
	<time>2023-07-15T09:33:51.000Z</time>
</trkpt>
<trkpt lat="46.0251060" lon="9.4994080">
	<ele>1939.60</ele>
	<time>2023-07-15T09:33:55.000Z</time>
</trkpt>
<trkpt lat="46.0251160" lon="9.4994410">
	<ele>1940.40</ele>
	<time>2023-07-15T09:34:00.000Z</time>
</trkpt>
<trkpt lat="46.0251100" lon="9.4994580">
	<ele>1940.60</ele>
	<time>2023-07-15T09:34:03.000Z</time>
</trkpt>
<trkpt lat="46.0251010" lon="9.4994730">
	<ele>1941.20</ele>
	<time>2023-07-15T09:34:06.000Z</time>
</trkpt>
<trkpt lat="46.0250900" lon="9.4995100">
	<ele>1941.80</ele>
	<time>2023-07-15T09:34:11.000Z</time>
</trkpt>
<trkpt lat="46.0250790" lon="9.4995280">
	<ele>1942.40</ele>
	<time>2023-07-15T09:34:14.000Z</time>
</trkpt>
<trkpt lat="46.0250790" lon="9.4995480">
	<ele>1942.80</ele>
	<time>2023-07-15T09:34:18.000Z</time>
</trkpt>
<trkpt lat="46.0250800" lon="9.4995480">
	<ele>1943.00</ele>
	<time>2023-07-15T09:34:21.000Z</time>
</trkpt>
<trkpt lat="46.0250820" lon="9.4995520">
	<ele>1943.60</ele>
	<time>2023-07-15T09:34:28.000Z</time>
</trkpt>
<trkpt lat="46.0250730" lon="9.4996080">
	<ele>1944.00</ele>
	<time>2023-07-15T09:34:44.000Z</time>
</trkpt>
<trkpt lat="46.0250780" lon="9.4996670">
	<ele>1944.20</ele>
	<time>2023-07-15T09:34:47.000Z</time>
</trkpt>
<trkpt lat="46.0250800" lon="9.4997070">
	<ele>1944.40</ele>
	<time>2023-07-15T09:34:49.000Z</time>
</trkpt>
<trkpt lat="46.0250730" lon="9.4997480">
	<ele>1944.80</ele>
	<time>2023-07-15T09:34:52.000Z</time>
</trkpt>
<trkpt lat="46.0250820" lon="9.4997710">
	<ele>1944.80</ele>
	<time>2023-07-15T09:34:55.000Z</time>
</trkpt>
<trkpt lat="46.0250820" lon="9.4997790">
	<ele>1945.00</ele>
	<time>2023-07-15T09:34:56.000Z</time>
</trkpt>
<trkpt lat="46.0250900" lon="9.4997930">
	<ele>1945.00</ele>
	<time>2023-07-15T09:34:58.000Z</time>
</trkpt>
<trkpt lat="46.0251020" lon="9.4998320">
	<ele>1945.40</ele>
	<time>2023-07-15T09:35:03.000Z</time>
</trkpt>
<trkpt lat="46.0251010" lon="9.4998290">
	<ele>1945.40</ele>
	<time>2023-07-15T09:35:04.000Z</time>
</trkpt>
<trkpt lat="46.0251030" lon="9.4998260">
	<ele>1945.60</ele>
	<time>2023-07-15T09:35:07.000Z</time>
</trkpt>
<trkpt lat="46.0251030" lon="9.4998260">
	<ele>1945.60</ele>
	<time>2023-07-15T09:35:08.000Z</time>
</trkpt>
<trkpt lat="46.0251030" lon="9.4998270">
	<ele>1945.60</ele>
	<time>2023-07-15T09:35:09.000Z</time>
</trkpt>
<trkpt lat="46.0251240" lon="9.4998520">
	<ele>1945.60</ele>
	<time>2023-07-15T09:35:16.000Z</time>
</trkpt>
<trkpt lat="46.0251570" lon="9.4999450">
	<ele>1945.20</ele>
	<time>2023-07-15T09:35:23.000Z</time>
</trkpt>
<trkpt lat="46.0251580" lon="9.5000210">
	<ele>1944.80</ele>
	<time>2023-07-15T09:35:28.000Z</time>
</trkpt>
<trkpt lat="46.0251590" lon="9.5000670">
	<ele>1944.80</ele>
	<time>2023-07-15T09:35:31.000Z</time>
</trkpt>
<trkpt lat="46.0251600" lon="9.5000830">
	<ele>1944.60</ele>
	<time>2023-07-15T09:35:32.000Z</time>
</trkpt>
<trkpt lat="46.0251610" lon="9.5001140">
	<ele>1944.40</ele>
	<time>2023-07-15T09:35:34.000Z</time>
</trkpt>
<trkpt lat="46.0251470" lon="9.5001810">
	<ele>1944.20</ele>
	<time>2023-07-15T09:35:38.000Z</time>
</trkpt>
<trkpt lat="46.0251260" lon="9.5002090">
	<ele>1944.40</ele>
	<time>2023-07-15T09:35:44.000Z</time>
</trkpt>
<trkpt lat="46.0251260" lon="9.5002110">
	<ele>1944.80</ele>
	<time>2023-07-15T09:35:48.000Z</time>
</trkpt>
<trkpt lat="46.0251290" lon="9.5002120">
	<ele>1944.80</ele>
	<time>2023-07-15T09:35:50.000Z</time>
</trkpt>
<trkpt lat="46.0251290" lon="9.5002120">
	<ele>1944.20</ele>
	<time>2023-07-15T09:36:03.000Z</time>
</trkpt>
<trkpt lat="46.0251330" lon="9.5001850">
	<ele>1944.40</ele>
	<time>2023-07-15T09:36:25.000Z</time>
</trkpt>
<trkpt lat="46.0251270" lon="9.5001800">
	<ele>1944.40</ele>
	<time>2023-07-15T09:36:29.000Z</time>
</trkpt>
<trkpt lat="46.0251230" lon="9.5001790">
	<ele>1944.60</ele>
	<time>2023-07-15T09:36:42.000Z</time>
</trkpt>
<trkpt lat="46.0251240" lon="9.5001990">
	<ele>1945.40</ele>
	<time>2023-07-15T09:37:05.000Z</time>
</trkpt>
<trkpt lat="46.0251240" lon="9.5001990">
	<ele>1945.40</ele>
	<time>2023-07-15T09:37:06.000Z</time>
</trkpt>
<trkpt lat="46.0251180" lon="9.5002550">
	<ele>1944.60</ele>
	<time>2023-07-15T09:37:21.000Z</time>
</trkpt>
<trkpt lat="46.0250690" lon="9.5003540">
	<ele>1944.80</ele>
	<time>2023-07-15T09:37:29.000Z</time>
</trkpt>
<trkpt lat="46.0250440" lon="9.5004020">
	<ele>1944.80</ele>
	<time>2023-07-15T09:37:36.000Z</time>
</trkpt>
<trkpt lat="46.0250370" lon="9.5004170">
	<ele>1944.80</ele>
	<time>2023-07-15T09:37:38.000Z</time>
</trkpt>
<trkpt lat="46.0250290" lon="9.5004270">
	<ele>1944.80</ele>
	<time>2023-07-15T09:37:39.000Z</time>
</trkpt>
<trkpt lat="46.0249990" lon="9.5004600">
	<ele>1945.20</ele>
	<time>2023-07-15T09:37:43.000Z</time>
</trkpt>
<trkpt lat="46.0249870" lon="9.5004770">
	<ele>1945.20</ele>
	<time>2023-07-15T09:37:46.000Z</time>
</trkpt>
<trkpt lat="46.0249830" lon="9.5004780">
	<ele>1945.20</ele>
	<time>2023-07-15T09:37:50.000Z</time>
</trkpt>
<trkpt lat="46.0249820" lon="9.5004800">
	<ele>1945.20</ele>
	<time>2023-07-15T09:37:51.000Z</time>
</trkpt>
<trkpt lat="46.0249840" lon="9.5005070">
	<ele>1945.20</ele>
	<time>2023-07-15T09:37:55.000Z</time>
</trkpt>
<trkpt lat="46.0249810" lon="9.5005150">
	<ele>1945.20</ele>
	<time>2023-07-15T09:37:56.000Z</time>
</trkpt>
<trkpt lat="46.0249530" lon="9.5005730">
	<ele>1945.80</ele>
	<time>2023-07-15T09:38:03.000Z</time>
</trkpt>
<trkpt lat="46.0249560" lon="9.5005750">
	<ele>1946.00</ele>
	<time>2023-07-15T09:38:06.000Z</time>
</trkpt>
<trkpt lat="46.0249570" lon="9.5005780">
	<ele>1946.00</ele>
	<time>2023-07-15T09:38:09.000Z</time>
</trkpt>
<trkpt lat="46.0249440" lon="9.5005910">
	<ele>1946.00</ele>
	<time>2023-07-15T09:38:12.000Z</time>
</trkpt>
<trkpt lat="46.0249010" lon="9.5005720">
	<ele>1945.40</ele>
	<time>2023-07-15T09:38:18.000Z</time>
</trkpt>
<trkpt lat="46.0248700" lon="9.5004720">
	<ele>1945.60</ele>
	<time>2023-07-15T09:38:26.000Z</time>
</trkpt>
<trkpt lat="46.0248620" lon="9.5004390">
	<ele>1945.80</ele>
	<time>2023-07-15T09:38:31.000Z</time>
</trkpt>
<trkpt lat="46.0248600" lon="9.5003790">
	<ele>1946.60</ele>
	<time>2023-07-15T09:38:37.000Z</time>
</trkpt>
<trkpt lat="46.0248530" lon="9.5003680">
	<ele>1946.80</ele>
	<time>2023-07-15T09:38:39.000Z</time>
</trkpt>
<trkpt lat="46.0248340" lon="9.5003630">
	<ele>1947.20</ele>
	<time>2023-07-15T09:38:41.000Z</time>
</trkpt>
<trkpt lat="46.0248160" lon="9.5003690">
	<ele>1947.40</ele>
	<time>2023-07-15T09:38:43.000Z</time>
</trkpt>
<trkpt lat="46.0247800" lon="9.5003600">
	<ele>1947.20</ele>
	<time>2023-07-15T09:38:49.000Z</time>
</trkpt>
<trkpt lat="46.0247780" lon="9.5003660">
	<ele>1947.20</ele>
	<time>2023-07-15T09:38:50.000Z</time>
</trkpt>
<trkpt lat="46.0247780" lon="9.5003720">
	<ele>1947.00</ele>
	<time>2023-07-15T09:38:52.000Z</time>
</trkpt>
<trkpt lat="46.0247770" lon="9.5003710">
	<ele>1947.00</ele>
	<time>2023-07-15T09:38:56.000Z</time>
</trkpt>
<trkpt lat="46.0247750" lon="9.5003680">
	<ele>1947.40</ele>
	<time>2023-07-15T09:39:02.000Z</time>
</trkpt>
<trkpt lat="46.0247750" lon="9.5003680">
	<ele>1947.00</ele>
	<time>2023-07-15T09:39:14.000Z</time>
</trkpt>
<trkpt lat="46.0247760" lon="9.5003630">
	<ele>1947.00</ele>
	<time>2023-07-15T09:39:24.000Z</time>
</trkpt>
<trkpt lat="46.0247820" lon="9.5003610">
	<ele>1947.20</ele>
	<time>2023-07-15T09:39:48.000Z</time>
</trkpt>
<trkpt lat="46.0247820" lon="9.5003560">
	<ele>1947.40</ele>
	<time>2023-07-15T09:39:57.000Z</time>
</trkpt>
<trkpt lat="46.0247820" lon="9.5003550">
	<ele>1947.40</ele>
	<time>2023-07-15T09:39:59.000Z</time>
</trkpt>
<trkpt lat="46.0247820" lon="9.5003540">
	<ele>1947.40</ele>
	<time>2023-07-15T09:40:02.000Z</time>
</trkpt>
<trkpt lat="46.0247810" lon="9.5003530">
	<ele>1947.00</ele>
	<time>2023-07-15T09:40:16.000Z</time>
</trkpt>
<trkpt lat="46.0247800" lon="9.5003460">
	<ele>1947.00</ele>
	<time>2023-07-15T09:40:22.000Z</time>
</trkpt>
<trkpt lat="46.0247690" lon="9.5003390">
	<ele>1947.00</ele>
	<time>2023-07-15T09:40:47.000Z</time>
</trkpt>
<trkpt lat="46.0247670" lon="9.5003390">
	<ele>1947.00</ele>
	<time>2023-07-15T09:40:53.000Z</time>
</trkpt>
<trkpt lat="46.0247660" lon="9.5003380">
	<ele>1947.00</ele>
	<time>2023-07-15T09:41:02.000Z</time>
</trkpt>
<trkpt lat="46.0247670" lon="9.5003380">
	<ele>1947.00</ele>
	<time>2023-07-15T09:41:30.000Z</time>
</trkpt>
<trkpt lat="46.0247680" lon="9.5003390">
	<ele>1947.00</ele>
	<time>2023-07-15T09:41:39.000Z</time>
</trkpt>
<trkpt lat="46.0247680" lon="9.5003390">
	<ele>1947.00</ele>
	<time>2023-07-15T09:41:41.000Z</time>
</trkpt>
<trkpt lat="46.0247700" lon="9.5003390">
	<ele>1947.00</ele>
	<time>2023-07-15T09:41:59.000Z</time>
</trkpt>
<trkpt lat="46.0247710" lon="9.5003400">
	<ele>1947.00</ele>
	<time>2023-07-15T09:42:07.000Z</time>
</trkpt>
<trkpt lat="46.0247720" lon="9.5003400">
	<ele>1947.00</ele>
	<time>2023-07-15T09:42:19.000Z</time>
</trkpt>
<trkpt lat="46.0247720" lon="9.5003400">
	<ele>1947.00</ele>
	<time>2023-07-15T09:42:22.000Z</time>
</trkpt>
<trkpt lat="46.0247710" lon="9.5003400">
	<ele>1947.00</ele>
	<time>2023-07-15T09:42:25.000Z</time>
</trkpt>
<trkpt lat="46.0247710" lon="9.5003400">
	<ele>1947.00</ele>
	<time>2023-07-15T09:42:27.000Z</time>
</trkpt>
<trkpt lat="46.0247710" lon="9.5003400">
	<ele>1947.00</ele>
	<time>2023-07-15T09:42:31.000Z</time>
</trkpt>
<trkpt lat="46.0247710" lon="9.5003390">
	<ele>1947.00</ele>
	<time>2023-07-15T09:42:38.000Z</time>
</trkpt>
<trkpt lat="46.0247710" lon="9.5003390">
	<ele>1947.00</ele>
	<time>2023-07-15T09:42:41.000Z</time>
</trkpt>
<trkpt lat="46.0247710" lon="9.5003390">
	<ele>1947.00</ele>
	<time>2023-07-15T09:42:44.000Z</time>
</trkpt>
<trkpt lat="46.0247710" lon="9.5003390">
	<ele>1947.00</ele>
	<time>2023-07-15T09:42:50.000Z</time>
</trkpt>
<trkpt lat="46.0247710" lon="9.5003400">
	<ele>1947.00</ele>
	<time>2023-07-15T09:43:22.000Z</time>
</trkpt>
<trkpt lat="46.0247710" lon="9.5003400">
	<ele>1947.00</ele>
	<time>2023-07-15T09:43:25.000Z</time>
</trkpt>
<trkpt lat="46.0247710" lon="9.5003400">
	<ele>1947.00</ele>
	<time>2023-07-15T09:43:32.000Z</time>
</trkpt>
<trkpt lat="46.0247700" lon="9.5003400">
	<ele>1947.00</ele>
	<time>2023-07-15T09:43:53.000Z</time>
</trkpt>
<trkpt lat="46.0247700" lon="9.5003400">
	<ele>1947.00</ele>
	<time>2023-07-15T09:44:01.000Z</time>
</trkpt>
<trkpt lat="46.0247690" lon="9.5003400">
	<ele>1947.00</ele>
	<time>2023-07-15T09:44:05.000Z</time>
</trkpt>
<trkpt lat="46.0247690" lon="9.5003400">
	<ele>1947.00</ele>
	<time>2023-07-15T09:44:35.000Z</time>
</trkpt>
<trkpt lat="46.0247680" lon="9.5003400">
	<ele>1947.00</ele>
	<time>2023-07-15T09:44:55.000Z</time>
</trkpt>
<trkpt lat="46.0247680" lon="9.5003400">
	<ele>1947.00</ele>
	<time>2023-07-15T09:45:00.000Z</time>
</trkpt>
<trkpt lat="46.0247680" lon="9.5003400">
	<ele>1947.00</ele>
	<time>2023-07-15T09:45:05.000Z</time>
</trkpt>
<trkpt lat="46.0247680" lon="9.5003400">
	<ele>1947.00</ele>
	<time>2023-07-15T09:45:13.000Z</time>
</trkpt>
<trkpt lat="46.0247680" lon="9.5003400">
	<ele>1947.00</ele>
	<time>2023-07-15T09:45:30.000Z</time>
</trkpt>
<trkpt lat="46.0247670" lon="9.5003400">
	<ele>1947.00</ele>
	<time>2023-07-15T09:45:51.000Z</time>
</trkpt>
<trkpt lat="46.0247670" lon="9.5003400">
	<ele>1947.00</ele>
	<time>2023-07-15T09:45:54.000Z</time>
</trkpt>
<trkpt lat="46.0247660" lon="9.5003400">
	<ele>1947.00</ele>
	<time>2023-07-15T09:46:08.000Z</time>
</trkpt>
<trkpt lat="46.0247660" lon="9.5003400">
	<ele>1947.00</ele>
	<time>2023-07-15T09:46:11.000Z</time>
</trkpt>
<trkpt lat="46.0247660" lon="9.5003400">
	<ele>1947.00</ele>
	<time>2023-07-15T09:46:23.000Z</time>
</trkpt>
<trkpt lat="46.0247660" lon="9.5003410">
	<ele>1947.00</ele>
	<time>2023-07-15T09:46:24.000Z</time>
</trkpt>
<trkpt lat="46.0247660" lon="9.5003400">
	<ele>1947.00</ele>
	<time>2023-07-15T09:46:30.000Z</time>
</trkpt>
<trkpt lat="46.0247660" lon="9.5003400">
	<ele>1947.00</ele>
	<time>2023-07-15T09:46:35.000Z</time>
</trkpt>
<trkpt lat="46.0247660" lon="9.5003400">
	<ele>1947.00</ele>
	<time>2023-07-15T09:46:38.000Z</time>
</trkpt>
<trkpt lat="46.0247660" lon="9.5003400">
	<ele>1947.00</ele>
	<time>2023-07-15T09:46:40.000Z</time>
</trkpt>
<trkpt lat="46.0247660" lon="9.5003400">
	<ele>1947.00</ele>
	<time>2023-07-15T09:46:42.000Z</time>
</trkpt>
<trkpt lat="46.0247650" lon="9.5003410">
	<ele>1947.00</ele>
	<time>2023-07-15T09:47:09.000Z</time>
</trkpt>
<trkpt lat="46.0247650" lon="9.5003410">
	<ele>1947.00</ele>
	<time>2023-07-15T09:47:43.000Z</time>
</trkpt>
<trkpt lat="46.0247650" lon="9.5003410">
	<ele>1947.00</ele>
	<time>2023-07-15T09:47:58.000Z</time>
</trkpt>
<trkpt lat="46.0247650" lon="9.5003400">
	<ele>1947.00</ele>
	<time>2023-07-15T09:48:05.000Z</time>
</trkpt>
<trkpt lat="46.0247650" lon="9.5003400">
	<ele>1947.00</ele>
	<time>2023-07-15T09:48:41.000Z</time>
</trkpt>
<trkpt lat="46.0247650" lon="9.5003400">
	<ele>1947.00</ele>
	<time>2023-07-15T09:49:01.000Z</time>
</trkpt>
<trkpt lat="46.0247650" lon="9.5003400">
	<ele>1947.00</ele>
	<time>2023-07-15T09:49:21.000Z</time>
</trkpt>
<trkpt lat="46.0247650" lon="9.5003400">
	<ele>1947.00</ele>
	<time>2023-07-15T09:49:29.000Z</time>
</trkpt>
<trkpt lat="46.0247650" lon="9.5003400">
	<ele>1947.00</ele>
	<time>2023-07-15T09:49:33.000Z</time>
</trkpt>
<trkpt lat="46.0247650" lon="9.5003400">
	<ele>1947.00</ele>
	<time>2023-07-15T09:49:50.000Z</time>
</trkpt>
<trkpt lat="46.0247650" lon="9.5003400">
	<ele>1947.00</ele>
	<time>2023-07-15T09:50:04.000Z</time>
</trkpt>
<trkpt lat="46.0247640" lon="9.5003400">
	<ele>1947.00</ele>
	<time>2023-07-15T09:50:55.000Z</time>
</trkpt>
<trkpt lat="46.0247640" lon="9.5003400">
	<ele>1947.00</ele>
	<time>2023-07-15T09:51:07.000Z</time>
</trkpt>
<trkpt lat="46.0247640" lon="9.5003400">
	<ele>1947.00</ele>
	<time>2023-07-15T09:51:18.000Z</time>
</trkpt>
<trkpt lat="46.0247640" lon="9.5003400">
	<ele>1947.00</ele>
	<time>2023-07-15T09:51:22.000Z</time>
</trkpt>
<trkpt lat="46.0247640" lon="9.5003400">
	<ele>1947.00</ele>
	<time>2023-07-15T09:51:31.000Z</time>
</trkpt>
<trkpt lat="46.0247640" lon="9.5003400">
	<ele>1947.00</ele>
	<time>2023-07-15T09:51:42.000Z</time>
</trkpt>
<trkpt lat="46.0247640" lon="9.5003400">
	<ele>1947.00</ele>
	<time>2023-07-15T09:51:45.000Z</time>
</trkpt>
<trkpt lat="46.0247630" lon="9.5003400">
	<ele>1947.00</ele>
	<time>2023-07-15T09:52:04.000Z</time>
</trkpt>
<trkpt lat="46.0247630" lon="9.5003400">
	<ele>1947.00</ele>
	<time>2023-07-15T09:52:27.000Z</time>
</trkpt>
<trkpt lat="46.0247630" lon="9.5003400">
	<ele>1947.00</ele>
	<time>2023-07-15T09:52:51.000Z</time>
</trkpt>
<trkpt lat="46.0247630" lon="9.5003400">
	<ele>1947.00</ele>
	<time>2023-07-15T09:53:00.000Z</time>
</trkpt>
<trkpt lat="46.0247630" lon="9.5003400">
	<ele>1947.00</ele>
	<time>2023-07-15T09:53:55.000Z</time>
</trkpt>
<trkpt lat="46.0247630" lon="9.5003400">
	<ele>1947.00</ele>
	<time>2023-07-15T09:54:07.000Z</time>
</trkpt>
<trkpt lat="46.0247630" lon="9.5003390">
	<ele>1947.00</ele>
	<time>2023-07-15T09:54:26.000Z</time>
</trkpt>
<trkpt lat="46.0247630" lon="9.5003390">
	<ele>1947.00</ele>
	<time>2023-07-15T09:54:36.000Z</time>
</trkpt>
<trkpt lat="46.0247630" lon="9.5003390">
	<ele>1947.00</ele>
	<time>2023-07-15T09:54:41.000Z</time>
</trkpt>
<trkpt lat="46.0247630" lon="9.5003380">
	<ele>1947.00</ele>
	<time>2023-07-15T09:54:59.000Z</time>
</trkpt>
<trkpt lat="46.0247630" lon="9.5003380">
	<ele>1947.00</ele>
	<time>2023-07-15T09:55:08.000Z</time>
</trkpt>
<trkpt lat="46.0247630" lon="9.5003380">
	<ele>1947.00</ele>
	<time>2023-07-15T09:55:15.000Z</time>
</trkpt>
<trkpt lat="46.0247630" lon="9.5003380">
	<ele>1947.00</ele>
	<time>2023-07-15T09:55:20.000Z</time>
</trkpt>
<trkpt lat="46.0247630" lon="9.5003380">
	<ele>1947.00</ele>
	<time>2023-07-15T09:55:25.000Z</time>
</trkpt>
<trkpt lat="46.0247630" lon="9.5003380">
	<ele>1947.00</ele>
	<time>2023-07-15T09:55:38.000Z</time>
</trkpt>
<trkpt lat="46.0247630" lon="9.5003380">
	<ele>1947.00</ele>
	<time>2023-07-15T09:55:46.000Z</time>
</trkpt>
<trkpt lat="46.0247630" lon="9.5003380">
	<ele>1947.00</ele>
	<time>2023-07-15T09:55:52.000Z</time>
</trkpt>
<trkpt lat="46.0247630" lon="9.5003380">
	<ele>1947.00</ele>
	<time>2023-07-15T09:56:03.000Z</time>
</trkpt>
<trkpt lat="46.0247630" lon="9.5003380">
	<ele>1947.00</ele>
	<time>2023-07-15T09:56:13.000Z</time>
</trkpt>
<trkpt lat="46.0247630" lon="9.5003380">
	<ele>1947.00</ele>
	<time>2023-07-15T09:56:24.000Z</time>
</trkpt>
<trkpt lat="46.0247630" lon="9.5003380">
	<ele>1947.00</ele>
	<time>2023-07-15T09:56:37.000Z</time>
</trkpt>
<trkpt lat="46.0247630" lon="9.5003380">
	<ele>1947.00</ele>
	<time>2023-07-15T09:56:49.000Z</time>
</trkpt>
<trkpt lat="46.0247630" lon="9.5003380">
	<ele>1947.00</ele>
	<time>2023-07-15T09:56:54.000Z</time>
</trkpt>
<trkpt lat="46.0247630" lon="9.5003380">
	<ele>1947.00</ele>
	<time>2023-07-15T09:57:00.000Z</time>
</trkpt>
<trkpt lat="46.0247630" lon="9.5003380">
	<ele>1947.00</ele>
	<time>2023-07-15T09:57:17.000Z</time>
</trkpt>
<trkpt lat="46.0247630" lon="9.5003380">
	<ele>1947.00</ele>
	<time>2023-07-15T09:57:22.000Z</time>
</trkpt>
<trkpt lat="46.0247630" lon="9.5003380">
	<ele>1947.00</ele>
	<time>2023-07-15T09:57:37.000Z</time>
</trkpt>
<trkpt lat="46.0247630" lon="9.5003380">
	<ele>1947.00</ele>
	<time>2023-07-15T09:57:42.000Z</time>
</trkpt>
<trkpt lat="46.0247630" lon="9.5003380">
	<ele>1947.00</ele>
	<time>2023-07-15T09:57:47.000Z</time>
</trkpt>
<trkpt lat="46.0247630" lon="9.5003380">
	<ele>1947.00</ele>
	<time>2023-07-15T09:58:08.000Z</time>
</trkpt>
<trkpt lat="46.0247630" lon="9.5003380">
	<ele>1947.00</ele>
	<time>2023-07-15T09:58:11.000Z</time>
</trkpt>
<trkpt lat="46.0247630" lon="9.5003380">
	<ele>1947.00</ele>
	<time>2023-07-15T09:58:19.000Z</time>
</trkpt>
<trkpt lat="46.0247630" lon="9.5003380">
	<ele>1947.00</ele>
	<time>2023-07-15T09:58:36.000Z</time>
</trkpt>
<trkpt lat="46.0247630" lon="9.5003380">
	<ele>1947.00</ele>
	<time>2023-07-15T09:58:44.000Z</time>
</trkpt>
<trkpt lat="46.0247630" lon="9.5003380">
	<ele>1947.00</ele>
	<time>2023-07-15T09:58:47.000Z</time>
</trkpt>
<trkpt lat="46.0247620" lon="9.5003380">
	<ele>1947.00</ele>
	<time>2023-07-15T09:59:00.000Z</time>
</trkpt>
<trkpt lat="46.0247620" lon="9.5003380">
	<ele>1947.00</ele>
	<time>2023-07-15T09:59:03.000Z</time>
</trkpt>
<trkpt lat="46.0247620" lon="9.5003380">
	<ele>1947.00</ele>
	<time>2023-07-15T09:59:05.000Z</time>
</trkpt>
<trkpt lat="46.0247620" lon="9.5003380">
	<ele>1947.00</ele>
	<time>2023-07-15T09:59:08.000Z</time>
</trkpt>
<trkpt lat="46.0247620" lon="9.5003380">
	<ele>1947.00</ele>
	<time>2023-07-15T09:59:15.000Z</time>
</trkpt>
<trkpt lat="46.0247620" lon="9.5003390">
	<ele>1947.00</ele>
	<time>2023-07-15T09:59:18.000Z</time>
</trkpt>
<trkpt lat="46.0247620" lon="9.5003390">
	<ele>1947.00</ele>
	<time>2023-07-15T09:59:41.000Z</time>
</trkpt>
<trkpt lat="46.0247620" lon="9.5003390">
	<ele>1947.00</ele>
	<time>2023-07-15T09:59:58.000Z</time>
</trkpt>
<trkpt lat="46.0247630" lon="9.5003390">
	<ele>1947.00</ele>
	<time>2023-07-15T10:00:22.000Z</time>
</trkpt>
<trkpt lat="46.0247630" lon="9.5003380">
	<ele>1947.00</ele>
	<time>2023-07-15T10:01:20.000Z</time>
</trkpt>
<trkpt lat="46.0247620" lon="9.5003390">
	<ele>1947.00</ele>
	<time>2023-07-15T10:01:31.000Z</time>
</trkpt>
<trkpt lat="46.0247620" lon="9.5003380">
	<ele>1947.00</ele>
	<time>2023-07-15T10:01:47.000Z</time>
</trkpt>
<trkpt lat="46.0247620" lon="9.5003390">
	<ele>1947.00</ele>
	<time>2023-07-15T10:01:53.000Z</time>
</trkpt>
<trkpt lat="46.0247620" lon="9.5003390">
	<ele>1947.00</ele>
	<time>2023-07-15T10:02:53.000Z</time>
</trkpt>
<trkpt lat="46.0247620" lon="9.5003390">
	<ele>1947.00</ele>
	<time>2023-07-15T10:03:02.000Z</time>
</trkpt>
<trkpt lat="46.0247620" lon="9.5003390">
	<ele>1947.00</ele>
	<time>2023-07-15T10:03:06.000Z</time>
</trkpt>
<trkpt lat="46.0247620" lon="9.5003390">
	<ele>1947.00</ele>
	<time>2023-07-15T10:03:15.000Z</time>
</trkpt>
<trkpt lat="46.0247620" lon="9.5003390">
	<ele>1947.00</ele>
	<time>2023-07-15T10:03:30.000Z</time>
</trkpt>
<trkpt lat="46.0247620" lon="9.5003390">
	<ele>1947.00</ele>
	<time>2023-07-15T10:03:36.000Z</time>
</trkpt>
<trkpt lat="46.0247620" lon="9.5003390">
	<ele>1947.00</ele>
	<time>2023-07-15T10:03:40.000Z</time>
</trkpt>
<trkpt lat="46.0247620" lon="9.5003390">
	<ele>1947.00</ele>
	<time>2023-07-15T10:03:49.000Z</time>
</trkpt>
<trkpt lat="46.0247620" lon="9.5003400">
	<ele>1947.00</ele>
	<time>2023-07-15T10:04:39.000Z</time>
</trkpt>
<trkpt lat="46.0247620" lon="9.5003390">
	<ele>1947.00</ele>
	<time>2023-07-15T10:04:44.000Z</time>
</trkpt>
<trkpt lat="46.0247620" lon="9.5003390">
	<ele>1947.00</ele>
	<time>2023-07-15T10:05:01.000Z</time>
</trkpt>
<trkpt lat="46.0247620" lon="9.5003400">
	<ele>1947.00</ele>
	<time>2023-07-15T10:05:14.000Z</time>
</trkpt>
<trkpt lat="46.0247620" lon="9.5003400">
	<ele>1947.00</ele>
	<time>2023-07-15T10:05:17.000Z</time>
</trkpt>
<trkpt lat="46.0247620" lon="9.5003400">
	<ele>1947.00</ele>
	<time>2023-07-15T10:05:23.000Z</time>
</trkpt>
<trkpt lat="46.0247620" lon="9.5003400">
	<ele>1947.00</ele>
	<time>2023-07-15T10:05:26.000Z</time>
</trkpt>
<trkpt lat="46.0247620" lon="9.5003400">
	<ele>1947.00</ele>
	<time>2023-07-15T10:05:36.000Z</time>
</trkpt>
<trkpt lat="46.0247330" lon="9.5003430">
	<ele>1947.00</ele>
	<time>2023-07-15T10:05:49.000Z</time>
</trkpt>
<trkpt lat="46.0247200" lon="9.5003430">
	<ele>1947.00</ele>
	<time>2023-07-15T10:06:01.000Z</time>
</trkpt>
<trkpt lat="46.0247230" lon="9.5003420">
	<ele>1947.00</ele>
	<time>2023-07-15T10:06:08.000Z</time>
</trkpt>
<trkpt lat="46.0247240" lon="9.5003400">
	<ele>1947.00</ele>
	<time>2023-07-15T10:06:23.000Z</time>
</trkpt>
<trkpt lat="46.0247540" lon="9.5003590">
	<ele>1947.00</ele>
	<time>2023-07-15T10:06:57.000Z</time>
</trkpt>
<trkpt lat="46.0247630" lon="9.5003590">
	<ele>1947.00</ele>
	<time>2023-07-15T10:07:04.000Z</time>
</trkpt>
<trkpt lat="46.0247650" lon="9.5003590">
	<ele>1947.00</ele>
	<time>2023-07-15T10:07:07.000Z</time>
</trkpt>
<trkpt lat="46.0247650" lon="9.5003460">
	<ele>1947.00</ele>
	<time>2023-07-15T10:07:21.000Z</time>
</trkpt>
<trkpt lat="46.0247650" lon="9.5003410">
	<ele>1947.00</ele>
	<time>2023-07-15T10:07:24.000Z</time>
</trkpt>
<trkpt lat="46.0247640" lon="9.5003390">
	<ele>1947.00</ele>
	<time>2023-07-15T10:07:41.000Z</time>
</trkpt>
<trkpt lat="46.0247560" lon="9.5003480">
	<ele>1947.00</ele>
	<time>2023-07-15T10:07:53.000Z</time>
</trkpt>
<trkpt lat="46.0247550" lon="9.5003490">
	<ele>1947.00</ele>
	<time>2023-07-15T10:07:56.000Z</time>
</trkpt>
<trkpt lat="46.0247540" lon="9.5003490">
	<ele>1947.00</ele>
	<time>2023-07-15T10:07:59.000Z</time>
</trkpt>
<trkpt lat="46.0247540" lon="9.5003510">
	<ele>1947.00</ele>
	<time>2023-07-15T10:08:06.000Z</time>
</trkpt>
<trkpt lat="46.0247520" lon="9.5003560">
	<ele>1947.00</ele>
	<time>2023-07-15T10:08:20.000Z</time>
</trkpt>
<trkpt lat="46.0247520" lon="9.5003610">
	<ele>1947.00</ele>
	<time>2023-07-15T10:08:40.000Z</time>
</trkpt>
<trkpt lat="46.0247530" lon="9.5003520">
	<ele>1947.00</ele>
	<time>2023-07-15T10:09:06.000Z</time>
</trkpt>
<trkpt lat="46.0247530" lon="9.5003500">
	<ele>1947.00</ele>
	<time>2023-07-15T10:09:15.000Z</time>
</trkpt>
<trkpt lat="46.0247530" lon="9.5003490">
	<ele>1947.00</ele>
	<time>2023-07-15T10:09:27.000Z</time>
</trkpt>
<trkpt lat="46.0247530" lon="9.5003500">
	<ele>1947.00</ele>
	<time>2023-07-15T10:10:03.000Z</time>
</trkpt>
<trkpt lat="46.0247530" lon="9.5003500">
	<ele>1947.00</ele>
	<time>2023-07-15T10:10:06.000Z</time>
</trkpt>
<trkpt lat="46.0247530" lon="9.5003500">
	<ele>1947.00</ele>
	<time>2023-07-15T10:10:12.000Z</time>
</trkpt>
<trkpt lat="46.0247530" lon="9.5003500">
	<ele>1947.00</ele>
	<time>2023-07-15T10:10:16.000Z</time>
</trkpt>
<trkpt lat="46.0247540" lon="9.5003500">
	<ele>1947.00</ele>
	<time>2023-07-15T10:10:32.000Z</time>
</trkpt>
<trkpt lat="46.0247540" lon="9.5003500">
	<ele>1947.00</ele>
	<time>2023-07-15T10:10:41.000Z</time>
</trkpt>
<trkpt lat="46.0247550" lon="9.5003500">
	<ele>1947.00</ele>
	<time>2023-07-15T10:10:50.000Z</time>
</trkpt>
<trkpt lat="46.0247580" lon="9.5003490">
	<ele>1947.00</ele>
	<time>2023-07-15T10:11:33.000Z</time>
</trkpt>
<trkpt lat="46.0247580" lon="9.5003480">
	<ele>1947.00</ele>
	<time>2023-07-15T10:11:42.000Z</time>
</trkpt>
<trkpt lat="46.0247830" lon="9.5002630">
	<ele>1947.00</ele>
	<time>2023-07-15T10:16:35.000Z</time>
</trkpt>
<trkpt lat="46.0247770" lon="9.5002880">
	<ele>1947.00</ele>
	<time>2023-07-15T10:16:38.000Z</time>
</trkpt>
<trkpt lat="46.0247910" lon="9.5002400">
	<ele>1947.00</ele>
	<time>2023-07-15T10:16:40.000Z</time>
</trkpt>
<trkpt lat="46.0247780" lon="9.5002520">
	<ele>1947.00</ele>
	<time>2023-07-15T10:16:41.000Z</time>
</trkpt>
<trkpt lat="46.0247760" lon="9.5002460">
	<ele>1948.60</ele>
	<time>2023-07-15T10:16:42.000Z</time>
</trkpt>
<trkpt lat="46.0247800" lon="9.5002440">
	<ele>1949.80</ele>
	<time>2023-07-15T10:16:43.000Z</time>
</trkpt>
<trkpt lat="46.0247720" lon="9.5002760">
	<ele>1950.80</ele>
	<time>2023-07-15T10:16:47.000Z</time>
</trkpt>
<trkpt lat="46.0247650" lon="9.5002840">
	<ele>1950.80</ele>
	<time>2023-07-15T10:16:49.000Z</time>
</trkpt>
<trkpt lat="46.0247710" lon="9.5002950">
	<ele>1951.00</ele>
	<time>2023-07-15T10:16:59.000Z</time>
</trkpt>
<trkpt lat="46.0247760" lon="9.5003360">
	<ele>1950.60</ele>
	<time>2023-07-15T10:17:08.000Z</time>
</trkpt>
<trkpt lat="46.0247910" lon="9.5003630">
	<ele>1950.40</ele>
	<time>2023-07-15T10:17:11.000Z</time>
</trkpt>
<trkpt lat="46.0247990" lon="9.5003570">
	<ele>1950.40</ele>
	<time>2023-07-15T10:17:15.000Z</time>
</trkpt>
<trkpt lat="46.0248250" lon="9.5003680">
	<ele>1950.60</ele>
	<time>2023-07-15T10:17:21.000Z</time>
</trkpt>
<trkpt lat="46.0248350" lon="9.5003700">
	<ele>1950.60</ele>
	<time>2023-07-15T10:17:27.000Z</time>
</trkpt>
<trkpt lat="46.0248490" lon="9.5004000">
	<ele>1950.40</ele>
	<time>2023-07-15T10:17:34.000Z</time>
</trkpt>
<trkpt lat="46.0248680" lon="9.5005050">
	<ele>1949.80</ele>
	<time>2023-07-15T10:17:41.000Z</time>
</trkpt>
<trkpt lat="46.0248710" lon="9.5005170">
	<ele>1949.60</ele>
	<time>2023-07-15T10:17:42.000Z</time>
</trkpt>
<trkpt lat="46.0248820" lon="9.5005690">
	<ele>1949.40</ele>
	<time>2023-07-15T10:17:48.000Z</time>
</trkpt>
<trkpt lat="46.0248880" lon="9.5005790">
	<ele>1949.40</ele>
	<time>2023-07-15T10:17:49.000Z</time>
</trkpt>
<trkpt lat="46.0249100" lon="9.5005860">
	<ele>1949.40</ele>
	<time>2023-07-15T10:17:53.000Z</time>
</trkpt>
<trkpt lat="46.0249320" lon="9.5005680">
	<ele>1949.40</ele>
	<time>2023-07-15T10:17:58.000Z</time>
</trkpt>
<trkpt lat="46.0249550" lon="9.5005620">
	<ele>1949.40</ele>
	<time>2023-07-15T10:18:00.000Z</time>
</trkpt>
<trkpt lat="46.0249750" lon="9.5005100">
	<ele>1949.20</ele>
	<time>2023-07-15T10:18:07.000Z</time>
</trkpt>
<trkpt lat="46.0250080" lon="9.5004460">
	<ele>1949.20</ele>
	<time>2023-07-15T10:18:13.000Z</time>
</trkpt>
<trkpt lat="46.0250440" lon="9.5003960">
	<ele>1949.40</ele>
	<time>2023-07-15T10:18:20.000Z</time>
</trkpt>
<trkpt lat="46.0250800" lon="9.5002900">
	<ele>1949.00</ele>
	<time>2023-07-15T10:18:31.000Z</time>
</trkpt>
<trkpt lat="46.0250940" lon="9.5002520">
	<ele>1949.00</ele>
	<time>2023-07-15T10:18:34.000Z</time>
</trkpt>
<trkpt lat="46.0251040" lon="9.5002300">
	<ele>1949.00</ele>
	<time>2023-07-15T10:18:37.000Z</time>
</trkpt>
<trkpt lat="46.0251050" lon="9.5002310">
	<ele>1948.80</ele>
	<time>2023-07-15T10:18:38.000Z</time>
</trkpt>
<trkpt lat="46.0251040" lon="9.5002320">
	<ele>1948.60</ele>
	<time>2023-07-15T10:18:40.000Z</time>
</trkpt>
<trkpt lat="46.0251010" lon="9.5002190">
	<ele>1948.80</ele>
	<time>2023-07-15T10:18:44.000Z</time>
</trkpt>
<trkpt lat="46.0251060" lon="9.5002240">
	<ele>1949.00</ele>
	<time>2023-07-15T10:18:46.000Z</time>
</trkpt>
<trkpt lat="46.0251080" lon="9.5002130">
	<ele>1948.60</ele>
	<time>2023-07-15T10:18:51.000Z</time>
</trkpt>
<trkpt lat="46.0251180" lon="9.5002130">
	<ele>1948.60</ele>
	<time>2023-07-15T10:18:52.000Z</time>
</trkpt>
<trkpt lat="46.0251440" lon="9.5002400">
	<ele>1948.40</ele>
	<time>2023-07-15T10:18:59.000Z</time>
</trkpt>
<trkpt lat="46.0251690" lon="9.5002230">
	<ele>1947.40</ele>
	<time>2023-07-15T10:19:06.000Z</time>
</trkpt>
<trkpt lat="46.0251690" lon="9.5001630">
	<ele>1946.40</ele>
	<time>2023-07-15T10:19:12.000Z</time>
</trkpt>
<trkpt lat="46.0251690" lon="9.5001390">
	<ele>1945.80</ele>
	<time>2023-07-15T10:19:14.000Z</time>
</trkpt>
<trkpt lat="46.0251580" lon="9.5000960">
	<ele>1945.20</ele>
	<time>2023-07-15T10:19:18.000Z</time>
</trkpt>
<trkpt lat="46.0251620" lon="9.5000740">
	<ele>1945.00</ele>
	<time>2023-07-15T10:19:20.000Z</time>
</trkpt>
<trkpt lat="46.0251890" lon="9.5000460">
	<ele>1944.20</ele>
	<time>2023-07-15T10:19:24.000Z</time>
</trkpt>
<trkpt lat="46.0251950" lon="9.5000460">
	<ele>1944.00</ele>
	<time>2023-07-15T10:19:25.000Z</time>
</trkpt>
<trkpt lat="46.0252140" lon="9.5000490">
	<ele>1943.80</ele>
	<time>2023-07-15T10:19:27.000Z</time>
</trkpt>
<trkpt lat="46.0252420" lon="9.5000770">
	<ele>1942.80</ele>
	<time>2023-07-15T10:19:31.000Z</time>
</trkpt>
<trkpt lat="46.0252530" lon="9.5001030">
	<ele>1942.40</ele>
	<time>2023-07-15T10:19:34.000Z</time>
</trkpt>
<trkpt lat="46.0252660" lon="9.5001100">
	<ele>1941.80</ele>
	<time>2023-07-15T10:19:37.000Z</time>
</trkpt>
<trkpt lat="46.0252780" lon="9.5001200">
	<ele>1941.40</ele>
	<time>2023-07-15T10:19:39.000Z</time>
</trkpt>
<trkpt lat="46.0253020" lon="9.5001230">
	<ele>1940.60</ele>
	<time>2023-07-15T10:19:42.000Z</time>
</trkpt>
<trkpt lat="46.0253430" lon="9.5001390">
	<ele>1939.40</ele>
	<time>2023-07-15T10:19:46.000Z</time>
</trkpt>
<trkpt lat="46.0253460" lon="9.5001370">
	<ele>1939.20</ele>
	<time>2023-07-15T10:19:47.000Z</time>
</trkpt>
<trkpt lat="46.0253830" lon="9.5001580">
	<ele>1938.20</ele>
	<time>2023-07-15T10:19:52.000Z</time>
</trkpt>
<trkpt lat="46.0253910" lon="9.5001580">
	<ele>1937.60</ele>
	<time>2023-07-15T10:19:53.000Z</time>
</trkpt>
<trkpt lat="46.0254160" lon="9.5001560">
	<ele>1937.00</ele>
	<time>2023-07-15T10:19:56.000Z</time>
</trkpt>
<trkpt lat="46.0254430" lon="9.5001310">
	<ele>1936.00</ele>
	<time>2023-07-15T10:20:01.000Z</time>
</trkpt>
<trkpt lat="46.0254460" lon="9.5001270">
	<ele>1935.80</ele>
	<time>2023-07-15T10:20:02.000Z</time>
</trkpt>
<trkpt lat="46.0254320" lon="9.5000950">
	<ele>1935.20</ele>
	<time>2023-07-15T10:20:07.000Z</time>
</trkpt>
<trkpt lat="46.0254260" lon="9.5000810">
	<ele>1934.80</ele>
	<time>2023-07-15T10:20:09.000Z</time>
</trkpt>
<trkpt lat="46.0254140" lon="9.5000380">
	<ele>1934.20</ele>
	<time>2023-07-15T10:20:13.000Z</time>
</trkpt>
<trkpt lat="46.0254070" lon="9.5000190">
	<ele>1934.00</ele>
	<time>2023-07-15T10:20:15.000Z</time>
</trkpt>
<trkpt lat="46.0254010" lon="9.5000110">
	<ele>1933.80</ele>
	<time>2023-07-15T10:20:16.000Z</time>
</trkpt>
<trkpt lat="46.0253840" lon="9.4999540">
	<ele>1932.80</ele>
	<time>2023-07-15T10:20:21.000Z</time>
</trkpt>
<trkpt lat="46.0253800" lon="9.4999450">
	<ele>1932.60</ele>
	<time>2023-07-15T10:20:22.000Z</time>
</trkpt>
<trkpt lat="46.0253730" lon="9.4998730">
	<ele>1931.60</ele>
	<time>2023-07-15T10:20:29.000Z</time>
</trkpt>
<trkpt lat="46.0253780" lon="9.4998590">
	<ele>1931.20</ele>
	<time>2023-07-15T10:20:31.000Z</time>
</trkpt>
<trkpt lat="46.0253820" lon="9.4998340">
	<ele>1930.60</ele>
	<time>2023-07-15T10:20:34.000Z</time>
</trkpt>
<trkpt lat="46.0253940" lon="9.4998050">
	<ele>1929.40</ele>
	<time>2023-07-15T10:20:38.000Z</time>
</trkpt>
<trkpt lat="46.0253980" lon="9.4997970">
	<ele>1929.20</ele>
	<time>2023-07-15T10:20:39.000Z</time>
</trkpt>
<trkpt lat="46.0254040" lon="9.4997820">
	<ele>1928.80</ele>
	<time>2023-07-15T10:20:41.000Z</time>
</trkpt>
<trkpt lat="46.0254070" lon="9.4997650">
	<ele>1928.40</ele>
	<time>2023-07-15T10:20:43.000Z</time>
</trkpt>
<trkpt lat="46.0254070" lon="9.4997580">
	<ele>1928.00</ele>
	<time>2023-07-15T10:20:44.000Z</time>
</trkpt>
<trkpt lat="46.0254060" lon="9.4997290">
	<ele>1927.40</ele>
	<time>2023-07-15T10:20:47.000Z</time>
</trkpt>
<trkpt lat="46.0254070" lon="9.4997220">
	<ele>1927.20</ele>
	<time>2023-07-15T10:20:48.000Z</time>
</trkpt>
<trkpt lat="46.0254150" lon="9.4997010">
	<ele>1926.80</ele>
	<time>2023-07-15T10:20:50.000Z</time>
</trkpt>
<trkpt lat="46.0254170" lon="9.4996940">
	<ele>1926.60</ele>
	<time>2023-07-15T10:20:51.000Z</time>
</trkpt>
<trkpt lat="46.0254290" lon="9.4996720">
	<ele>1926.00</ele>
	<time>2023-07-15T10:20:54.000Z</time>
</trkpt>
<trkpt lat="46.0254300" lon="9.4996630">
	<ele>1925.80</ele>
	<time>2023-07-15T10:20:55.000Z</time>
</trkpt>
<trkpt lat="46.0254340" lon="9.4996380">
	<ele>1925.20</ele>
	<time>2023-07-15T10:20:58.000Z</time>
</trkpt>
<trkpt lat="46.0254380" lon="9.4996310">
	<ele>1924.80</ele>
	<time>2023-07-15T10:20:59.000Z</time>
</trkpt>
<trkpt lat="46.0254420" lon="9.4996170">
	<ele>1924.20</ele>
	<time>2023-07-15T10:21:01.000Z</time>
</trkpt>
<trkpt lat="46.0254420" lon="9.4995980">
	<ele>1923.60</ele>
	<time>2023-07-15T10:21:03.000Z</time>
</trkpt>
<trkpt lat="46.0254480" lon="9.4995790">
	<ele>1923.00</ele>
	<time>2023-07-15T10:21:05.000Z</time>
</trkpt>
<trkpt lat="46.0254490" lon="9.4995560">
	<ele>1922.40</ele>
	<time>2023-07-15T10:21:07.000Z</time>
</trkpt>
<trkpt lat="46.0254560" lon="9.4995380">
	<ele>1922.00</ele>
	<time>2023-07-15T10:21:09.000Z</time>
</trkpt>
<trkpt lat="46.0254730" lon="9.4995050">
	<ele>1921.40</ele>
	<time>2023-07-15T10:21:12.000Z</time>
</trkpt>
<trkpt lat="46.0254740" lon="9.4994960">
	<ele>1921.20</ele>
	<time>2023-07-15T10:21:13.000Z</time>
</trkpt>
<trkpt lat="46.0254790" lon="9.4994720">
	<ele>1920.40</ele>
	<time>2023-07-15T10:21:15.000Z</time>
</trkpt>
<trkpt lat="46.0254790" lon="9.4994560">
	<ele>1920.00</ele>
	<time>2023-07-15T10:21:16.000Z</time>
</trkpt>
<trkpt lat="46.0254910" lon="9.4994020">
	<ele>1919.00</ele>
	<time>2023-07-15T10:21:21.000Z</time>
</trkpt>
<trkpt lat="46.0254910" lon="9.4993900">
	<ele>1918.80</ele>
	<time>2023-07-15T10:21:22.000Z</time>
</trkpt>
<trkpt lat="46.0254870" lon="9.4993510">
	<ele>1918.20</ele>
	<time>2023-07-15T10:21:25.000Z</time>
</trkpt>
<trkpt lat="46.0254900" lon="9.4993150">
	<ele>1917.80</ele>
	<time>2023-07-15T10:21:27.000Z</time>
</trkpt>
<trkpt lat="46.0255010" lon="9.4992870">
	<ele>1917.20</ele>
	<time>2023-07-15T10:21:29.000Z</time>
</trkpt>
<trkpt lat="46.0255110" lon="9.4992610">
	<ele>1916.60</ele>
	<time>2023-07-15T10:21:31.000Z</time>
</trkpt>
<trkpt lat="46.0255320" lon="9.4992140">
	<ele>1915.60</ele>
	<time>2023-07-15T10:21:35.000Z</time>
</trkpt>
<trkpt lat="46.0255480" lon="9.4991760">
	<ele>1915.00</ele>
	<time>2023-07-15T10:21:38.000Z</time>
</trkpt>
<trkpt lat="46.0255610" lon="9.4991660">
	<ele>1914.60</ele>
	<time>2023-07-15T10:21:40.000Z</time>
</trkpt>
<trkpt lat="46.0255750" lon="9.4991490">
	<ele>1914.00</ele>
	<time>2023-07-15T10:21:43.000Z</time>
</trkpt>
<trkpt lat="46.0255820" lon="9.4991300">
	<ele>1913.60</ele>
	<time>2023-07-15T10:21:45.000Z</time>
</trkpt>
<trkpt lat="46.0255900" lon="9.4991180">
	<ele>1913.40</ele>
	<time>2023-07-15T10:21:46.000Z</time>
</trkpt>
<trkpt lat="46.0256180" lon="9.4990950">
	<ele>1912.40</ele>
	<time>2023-07-15T10:21:50.000Z</time>
</trkpt>
<trkpt lat="46.0256270" lon="9.4990930">
	<ele>1912.20</ele>
	<time>2023-07-15T10:21:51.000Z</time>
</trkpt>
<trkpt lat="46.0256470" lon="9.4991010">
	<ele>1912.00</ele>
	<time>2023-07-15T10:21:53.000Z</time>
</trkpt>
<trkpt lat="46.0256540" lon="9.4991100">
	<ele>1911.80</ele>
	<time>2023-07-15T10:21:54.000Z</time>
</trkpt>
<trkpt lat="46.0256580" lon="9.4991170">
	<ele>1911.60</ele>
	<time>2023-07-15T10:21:55.000Z</time>
</trkpt>
<trkpt lat="46.0256630" lon="9.4991420">
	<ele>1911.20</ele>
	<time>2023-07-15T10:21:57.000Z</time>
</trkpt>
<trkpt lat="46.0256660" lon="9.4991860">
	<ele>1910.20</ele>
	<time>2023-07-15T10:22:01.000Z</time>
</trkpt>
<trkpt lat="46.0256660" lon="9.4991950">
	<ele>1910.00</ele>
	<time>2023-07-15T10:22:02.000Z</time>
</trkpt>
<trkpt lat="46.0256780" lon="9.4992280">
	<ele>1909.40</ele>
	<time>2023-07-15T10:22:05.000Z</time>
</trkpt>
<trkpt lat="46.0256820" lon="9.4992410">
	<ele>1909.20</ele>
	<time>2023-07-15T10:22:06.000Z</time>
</trkpt>
<trkpt lat="46.0256880" lon="9.4992520">
	<ele>1909.00</ele>
	<time>2023-07-15T10:22:07.000Z</time>
</trkpt>
<trkpt lat="46.0257310" lon="9.4993040">
	<ele>1908.00</ele>
	<time>2023-07-15T10:22:13.000Z</time>
</trkpt>
<trkpt lat="46.0257400" lon="9.4993070">
	<ele>1908.00</ele>
	<time>2023-07-15T10:22:14.000Z</time>
</trkpt>
<trkpt lat="46.0257620" lon="9.4992870">
	<ele>1907.80</ele>
	<time>2023-07-15T10:22:17.000Z</time>
</trkpt>
<trkpt lat="46.0257800" lon="9.4992350">
	<ele>1907.00</ele>
	<time>2023-07-15T10:22:21.000Z</time>
</trkpt>
<trkpt lat="46.0257910" lon="9.4991740">
	<ele>1906.00</ele>
	<time>2023-07-15T10:22:25.000Z</time>
</trkpt>
<trkpt lat="46.0257930" lon="9.4991570">
	<ele>1906.00</ele>
	<time>2023-07-15T10:22:26.000Z</time>
</trkpt>
<trkpt lat="46.0258110" lon="9.4991030">
	<ele>1905.00</ele>
	<time>2023-07-15T10:22:31.000Z</time>
</trkpt>
<trkpt lat="46.0258330" lon="9.4990870">
	<ele>1904.80</ele>
	<time>2023-07-15T10:22:33.000Z</time>
</trkpt>
<trkpt lat="46.0258620" lon="9.4990770">
	<ele>1903.80</ele>
	<time>2023-07-15T10:22:36.000Z</time>
</trkpt>
<trkpt lat="46.0258840" lon="9.4990870">
	<ele>1903.60</ele>
	<time>2023-07-15T10:22:38.000Z</time>
</trkpt>
<trkpt lat="46.0259070" lon="9.4991000">
	<ele>1902.60</ele>
	<time>2023-07-15T10:22:41.000Z</time>
</trkpt>
<trkpt lat="46.0259240" lon="9.4991210">
	<ele>1902.40</ele>
	<time>2023-07-15T10:22:43.000Z</time>
</trkpt>
<trkpt lat="46.0259420" lon="9.4991600">
	<ele>1901.60</ele>
	<time>2023-07-15T10:22:47.000Z</time>
</trkpt>
<trkpt lat="46.0259460" lon="9.4991690">
	<ele>1901.40</ele>
	<time>2023-07-15T10:22:48.000Z</time>
</trkpt>
<trkpt lat="46.0259660" lon="9.4991920">
	<ele>1901.00</ele>
	<time>2023-07-15T10:22:51.000Z</time>
</trkpt>
<trkpt lat="46.0260050" lon="9.4992280">
	<ele>1900.40</ele>
	<time>2023-07-15T10:22:54.000Z</time>
</trkpt>
<trkpt lat="46.0260500" lon="9.4992250">
	<ele>1899.60</ele>
	<time>2023-07-15T10:23:00.000Z</time>
</trkpt>
<trkpt lat="46.0260550" lon="9.4992180">
	<ele>1899.40</ele>
	<time>2023-07-15T10:23:01.000Z</time>
</trkpt>
<trkpt lat="46.0260610" lon="9.4992140">
	<ele>1899.40</ele>
	<time>2023-07-15T10:23:02.000Z</time>
</trkpt>
<trkpt lat="46.0260810" lon="9.4991960">
	<ele>1898.60</ele>
	<time>2023-07-15T10:23:05.000Z</time>
</trkpt>
<trkpt lat="46.0260900" lon="9.4991940">
	<ele>1898.00</ele>
	<time>2023-07-15T10:23:06.000Z</time>
</trkpt>
<trkpt lat="46.0261010" lon="9.4991910">
	<ele>1897.40</ele>
	<time>2023-07-15T10:23:08.000Z</time>
</trkpt>
<trkpt lat="46.0261130" lon="9.4991820">
	<ele>1897.20</ele>
	<time>2023-07-15T10:23:11.000Z</time>
</trkpt>
<trkpt lat="46.0261150" lon="9.4991730">
	<ele>1897.00</ele>
	<time>2023-07-15T10:23:12.000Z</time>
</trkpt>
<trkpt lat="46.0261220" lon="9.4991580">
	<ele>1896.60</ele>
	<time>2023-07-15T10:23:14.000Z</time>
</trkpt>
<trkpt lat="46.0261270" lon="9.4991480">
	<ele>1896.40</ele>
	<time>2023-07-15T10:23:15.000Z</time>
</trkpt>
<trkpt lat="46.0261340" lon="9.4991430">
	<ele>1896.20</ele>
	<time>2023-07-15T10:23:16.000Z</time>
</trkpt>
<trkpt lat="46.0261500" lon="9.4991350">
	<ele>1896.00</ele>
	<time>2023-07-15T10:23:18.000Z</time>
</trkpt>
<trkpt lat="46.0261590" lon="9.4991340">
	<ele>1895.60</ele>
	<time>2023-07-15T10:23:19.000Z</time>
</trkpt>
<trkpt lat="46.0261820" lon="9.4991240">
	<ele>1895.20</ele>
	<time>2023-07-15T10:23:22.000Z</time>
</trkpt>
<trkpt lat="46.0262040" lon="9.4991070">
	<ele>1894.80</ele>
	<time>2023-07-15T10:23:25.000Z</time>
</trkpt>
<trkpt lat="46.0262340" lon="9.4991070">
	<ele>1894.20</ele>
	<time>2023-07-15T10:23:28.000Z</time>
</trkpt>
<trkpt lat="46.0262450" lon="9.4991080">
	<ele>1893.80</ele>
	<time>2023-07-15T10:23:29.000Z</time>
</trkpt>
<trkpt lat="46.0263010" lon="9.4991000">
	<ele>1892.80</ele>
	<time>2023-07-15T10:23:35.000Z</time>
</trkpt>
<trkpt lat="46.0263110" lon="9.4990950">
	<ele>1892.60</ele>
	<time>2023-07-15T10:23:36.000Z</time>
</trkpt>
<trkpt lat="46.0263230" lon="9.4990930">
	<ele>1892.40</ele>
	<time>2023-07-15T10:23:37.000Z</time>
</trkpt>
<trkpt lat="46.0263600" lon="9.4990700">
	<ele>1891.60</ele>
	<time>2023-07-15T10:23:41.000Z</time>
</trkpt>
<trkpt lat="46.0263840" lon="9.4990450">
	<ele>1891.20</ele>
	<time>2023-07-15T10:23:45.000Z</time>
</trkpt>
<trkpt lat="46.0264060" lon="9.4990380">
	<ele>1890.60</ele>
	<time>2023-07-15T10:23:47.000Z</time>
</trkpt>
<trkpt lat="46.0264490" lon="9.4990320">
	<ele>1889.60</ele>
	<time>2023-07-15T10:23:52.000Z</time>
</trkpt>
<trkpt lat="46.0264580" lon="9.4990310">
	<ele>1889.60</ele>
	<time>2023-07-15T10:23:53.000Z</time>
</trkpt>
<trkpt lat="46.0265300" lon="9.4990300">
	<ele>1888.40</ele>
	<time>2023-07-15T10:23:59.000Z</time>
</trkpt>
<trkpt lat="46.0265430" lon="9.4990290">
	<ele>1888.00</ele>
	<time>2023-07-15T10:24:00.000Z</time>
</trkpt>
<trkpt lat="46.0265770" lon="9.4990270">
	<ele>1887.20</ele>
	<time>2023-07-15T10:24:03.000Z</time>
</trkpt>
<trkpt lat="46.0265820" lon="9.4990190">
	<ele>1887.00</ele>
	<time>2023-07-15T10:24:04.000Z</time>
</trkpt>
<trkpt lat="46.0265920" lon="9.4990060">
	<ele>1886.60</ele>
	<time>2023-07-15T10:24:06.000Z</time>
</trkpt>
<trkpt lat="46.0265980" lon="9.4990040">
	<ele>1886.40</ele>
	<time>2023-07-15T10:24:07.000Z</time>
</trkpt>
<trkpt lat="46.0266060" lon="9.4990060">
	<ele>1886.00</ele>
	<time>2023-07-15T10:24:09.000Z</time>
</trkpt>
<trkpt lat="46.0266160" lon="9.4990080">
	<ele>1885.80</ele>
	<time>2023-07-15T10:24:11.000Z</time>
</trkpt>
<trkpt lat="46.0266300" lon="9.4989890">
	<ele>1885.20</ele>
	<time>2023-07-15T10:24:13.000Z</time>
</trkpt>
<trkpt lat="46.0266390" lon="9.4989870">
	<ele>1885.00</ele>
	<time>2023-07-15T10:24:14.000Z</time>
</trkpt>
<trkpt lat="46.0266940" lon="9.4990040">
	<ele>1884.00</ele>
	<time>2023-07-15T10:24:20.000Z</time>
</trkpt>
<trkpt lat="46.0267030" lon="9.4990140">
	<ele>1883.80</ele>
	<time>2023-07-15T10:24:21.000Z</time>
</trkpt>
<trkpt lat="46.0267210" lon="9.4990000">
	<ele>1883.00</ele>
	<time>2023-07-15T10:24:25.000Z</time>
</trkpt>
<trkpt lat="46.0267340" lon="9.4990000">
	<ele>1882.80</ele>
	<time>2023-07-15T10:24:26.000Z</time>
</trkpt>
<trkpt lat="46.0267380" lon="9.4989880">
	<ele>1882.60</ele>
	<time>2023-07-15T10:24:27.000Z</time>
</trkpt>
<trkpt lat="46.0267430" lon="9.4989620">
	<ele>1882.40</ele>
	<time>2023-07-15T10:24:29.000Z</time>
</trkpt>
<trkpt lat="46.0267590" lon="9.4989400">
	<ele>1881.80</ele>
	<time>2023-07-15T10:24:31.000Z</time>
</trkpt>
<trkpt lat="46.0267630" lon="9.4989260">
	<ele>1881.40</ele>
	<time>2023-07-15T10:24:32.000Z</time>
</trkpt>
<trkpt lat="46.0267630" lon="9.4988560">
	<ele>1880.60</ele>
	<time>2023-07-15T10:24:37.000Z</time>
</trkpt>
<trkpt lat="46.0267600" lon="9.4988430">
	<ele>1880.20</ele>
	<time>2023-07-15T10:24:38.000Z</time>
</trkpt>
<trkpt lat="46.0267440" lon="9.4988170">
	<ele>1879.60</ele>
	<time>2023-07-15T10:24:41.000Z</time>
</trkpt>
<trkpt lat="46.0267410" lon="9.4988060">
	<ele>1879.40</ele>
	<time>2023-07-15T10:24:42.000Z</time>
</trkpt>
<trkpt lat="46.0267410" lon="9.4987790">
	<ele>1879.00</ele>
	<time>2023-07-15T10:24:44.000Z</time>
</trkpt>
<trkpt lat="46.0267410" lon="9.4987300">
	<ele>1878.20</ele>
	<time>2023-07-15T10:24:48.000Z</time>
</trkpt>
<trkpt lat="46.0267560" lon="9.4986870">
	<ele>1877.60</ele>
	<time>2023-07-15T10:24:52.000Z</time>
</trkpt>
<trkpt lat="46.0267770" lon="9.4986640">
	<ele>1877.20</ele>
	<time>2023-07-15T10:24:55.000Z</time>
</trkpt>
<trkpt lat="46.0267870" lon="9.4986570">
	<ele>1877.00</ele>
	<time>2023-07-15T10:24:56.000Z</time>
</trkpt>
<trkpt lat="46.0268260" lon="9.4986360">
	<ele>1876.20</ele>
	<time>2023-07-15T10:25:01.000Z</time>
</trkpt>
<trkpt lat="46.0268320" lon="9.4986360">
	<ele>1876.00</ele>
	<time>2023-07-15T10:25:02.000Z</time>
</trkpt>
<trkpt lat="46.0268610" lon="9.4986430">
	<ele>1875.00</ele>
	<time>2023-07-15T10:25:05.000Z</time>
</trkpt>
<trkpt lat="46.0269030" lon="9.4986380">
	<ele>1874.20</ele>
	<time>2023-07-15T10:25:10.000Z</time>
</trkpt>
<trkpt lat="46.0269110" lon="9.4986370">
	<ele>1874.00</ele>
	<time>2023-07-15T10:25:11.000Z</time>
</trkpt>
<trkpt lat="46.0269430" lon="9.4986380">
	<ele>1873.00</ele>
	<time>2023-07-15T10:25:14.000Z</time>
</trkpt>
<trkpt lat="46.0269850" lon="9.4986530">
	<ele>1871.80</ele>
	<time>2023-07-15T10:25:19.000Z</time>
</trkpt>
<trkpt lat="46.0270040" lon="9.4986580">
	<ele>1871.20</ele>
	<time>2023-07-15T10:25:21.000Z</time>
</trkpt>
<trkpt lat="46.0270220" lon="9.4986620">
	<ele>1870.60</ele>
	<time>2023-07-15T10:25:23.000Z</time>
</trkpt>
<trkpt lat="46.0270310" lon="9.4986490">
	<ele>1870.40</ele>
	<time>2023-07-15T10:25:25.000Z</time>
</trkpt>
<trkpt lat="46.0270420" lon="9.4986420">
	<ele>1869.80</ele>
	<time>2023-07-15T10:25:27.000Z</time>
</trkpt>
<trkpt lat="46.0270530" lon="9.4986430">
	<ele>1869.60</ele>
	<time>2023-07-15T10:25:28.000Z</time>
</trkpt>
<trkpt lat="46.0270740" lon="9.4986450">
	<ele>1869.20</ele>
	<time>2023-07-15T10:25:30.000Z</time>
</trkpt>
<trkpt lat="46.0271240" lon="9.4986420">
	<ele>1868.60</ele>
	<time>2023-07-15T10:25:35.000Z</time>
</trkpt>
<trkpt lat="46.0271440" lon="9.4986400">
	<ele>1868.40</ele>
	<time>2023-07-15T10:25:37.000Z</time>
</trkpt>
<trkpt lat="46.0271520" lon="9.4986450">
	<ele>1867.60</ele>
	<time>2023-07-15T10:25:40.000Z</time>
</trkpt>
<trkpt lat="46.0271500" lon="9.4986420">
	<ele>1867.00</ele>
	<time>2023-07-15T10:25:43.000Z</time>
</trkpt>
<trkpt lat="46.0271510" lon="9.4986410">
	<ele>1866.80</ele>
	<time>2023-07-15T10:25:45.000Z</time>
</trkpt>
<trkpt lat="46.0271500" lon="9.4986410">
	<ele>1867.00</ele>
	<time>2023-07-15T10:25:47.000Z</time>
</trkpt>
<trkpt lat="46.0271520" lon="9.4986430">
	<ele>1867.20</ele>
	<time>2023-07-15T10:25:51.000Z</time>
</trkpt>
<trkpt lat="46.0271520" lon="9.4986430">
	<ele>1867.00</ele>
	<time>2023-07-15T10:25:54.000Z</time>
</trkpt>
<trkpt lat="46.0271520" lon="9.4986430">
	<ele>1866.80</ele>
	<time>2023-07-15T10:25:56.000Z</time>
</trkpt>
<trkpt lat="46.0271520" lon="9.4986430">
	<ele>1866.60</ele>
	<time>2023-07-15T10:25:57.000Z</time>
</trkpt>
<trkpt lat="46.0271700" lon="9.4986460">
	<ele>1865.80</ele>
	<time>2023-07-15T10:26:00.000Z</time>
</trkpt>
<trkpt lat="46.0271920" lon="9.4986560">
	<ele>1865.20</ele>
	<time>2023-07-15T10:26:02.000Z</time>
</trkpt>
<trkpt lat="46.0272510" lon="9.4986370">
	<ele>1864.20</ele>
	<time>2023-07-15T10:26:09.000Z</time>
</trkpt>
<trkpt lat="46.0272570" lon="9.4986290">
	<ele>1864.00</ele>
	<time>2023-07-15T10:26:10.000Z</time>
</trkpt>
<trkpt lat="46.0272850" lon="9.4985880">
	<ele>1863.00</ele>
	<time>2023-07-15T10:26:15.000Z</time>
</trkpt>
<trkpt lat="46.0272990" lon="9.4985730">
	<ele>1862.80</ele>
	<time>2023-07-15T10:26:17.000Z</time>
</trkpt>
<trkpt lat="46.0273370" lon="9.4985550">
	<ele>1862.00</ele>
	<time>2023-07-15T10:26:21.000Z</time>
</trkpt>
<trkpt lat="46.0273500" lon="9.4985480">
	<ele>1861.60</ele>
	<time>2023-07-15T10:26:23.000Z</time>
</trkpt>
<trkpt lat="46.0273710" lon="9.4985420">
	<ele>1861.00</ele>
	<time>2023-07-15T10:26:26.000Z</time>
</trkpt>
<trkpt lat="46.0274080" lon="9.4985330">
	<ele>1859.80</ele>
	<time>2023-07-15T10:26:31.000Z</time>
</trkpt>
<trkpt lat="46.0274470" lon="9.4985410">
	<ele>1858.60</ele>
	<time>2023-07-15T10:26:36.000Z</time>
</trkpt>
<trkpt lat="46.0274610" lon="9.4985350">
	<ele>1858.40</ele>
	<time>2023-07-15T10:26:38.000Z</time>
</trkpt>
<trkpt lat="46.0274850" lon="9.4985230">
	<ele>1857.60</ele>
	<time>2023-07-15T10:26:42.000Z</time>
</trkpt>
<trkpt lat="46.0274950" lon="9.4985200">
	<ele>1857.40</ele>
	<time>2023-07-15T10:26:44.000Z</time>
</trkpt>
<trkpt lat="46.0275010" lon="9.4985130">
	<ele>1856.80</ele>
	<time>2023-07-15T10:26:50.000Z</time>
</trkpt>
<trkpt lat="46.0275060" lon="9.4985080">
	<ele>1856.60</ele>
	<time>2023-07-15T10:26:51.000Z</time>
</trkpt>
<trkpt lat="46.0275310" lon="9.4984960">
	<ele>1856.40</ele>
	<time>2023-07-15T10:26:57.000Z</time>
</trkpt>
<trkpt lat="46.0275290" lon="9.4984930">
	<ele>1856.40</ele>
	<time>2023-07-15T10:26:58.000Z</time>
</trkpt>
<trkpt lat="46.0275240" lon="9.4984890">
	<ele>1856.00</ele>
	<time>2023-07-15T10:27:03.000Z</time>
</trkpt>
<trkpt lat="46.0275270" lon="9.4984860">
	<ele>1856.00</ele>
	<time>2023-07-15T10:27:05.000Z</time>
</trkpt>
<trkpt lat="46.0275600" lon="9.4984540">
	<ele>1856.00</ele>
	<time>2023-07-15T10:27:12.000Z</time>
</trkpt>
<trkpt lat="46.0275710" lon="9.4984590">
	<ele>1856.00</ele>
	<time>2023-07-15T10:27:17.000Z</time>
</trkpt>
<trkpt lat="46.0275840" lon="9.4984500">
	<ele>1855.60</ele>
	<time>2023-07-15T10:27:21.000Z</time>
</trkpt>
<trkpt lat="46.0276060" lon="9.4984490">
	<ele>1855.00</ele>
	<time>2023-07-15T10:27:23.000Z</time>
</trkpt>
<trkpt lat="46.0276150" lon="9.4984430">
	<ele>1854.80</ele>
	<time>2023-07-15T10:27:24.000Z</time>
</trkpt>
<trkpt lat="46.0276350" lon="9.4984340">
	<ele>1854.40</ele>
	<time>2023-07-15T10:27:26.000Z</time>
</trkpt>
<trkpt lat="46.0276730" lon="9.4984270">
	<ele>1854.00</ele>
	<time>2023-07-15T10:27:29.000Z</time>
</trkpt>
<trkpt lat="46.0277220" lon="9.4984280">
	<ele>1853.60</ele>
	<time>2023-07-15T10:27:33.000Z</time>
</trkpt>
<trkpt lat="46.0277410" lon="9.4984340">
	<ele>1852.80</ele>
	<time>2023-07-15T10:27:35.000Z</time>
</trkpt>
<trkpt lat="46.0277550" lon="9.4984410">
	<ele>1852.20</ele>
	<time>2023-07-15T10:27:37.000Z</time>
</trkpt>
<trkpt lat="46.0277740" lon="9.4984510">
	<ele>1851.80</ele>
	<time>2023-07-15T10:27:39.000Z</time>
</trkpt>
<trkpt lat="46.0277840" lon="9.4984570">
	<ele>1851.60</ele>
	<time>2023-07-15T10:27:40.000Z</time>
</trkpt>
<trkpt lat="46.0278320" lon="9.4984820">
	<ele>1850.60</ele>
	<time>2023-07-15T10:27:44.000Z</time>
</trkpt>
<trkpt lat="46.0278850" lon="9.4985170">
	<ele>1849.80</ele>
	<time>2023-07-15T10:27:49.000Z</time>
</trkpt>
<trkpt lat="46.0279000" lon="9.4985210">
	<ele>1849.40</ele>
	<time>2023-07-15T10:27:50.000Z</time>
</trkpt>
<trkpt lat="46.0279650" lon="9.4985260">
	<ele>1848.40</ele>
	<time>2023-07-15T10:27:55.000Z</time>
</trkpt>
<trkpt lat="46.0280010" lon="9.4985470">
	<ele>1847.20</ele>
	<time>2023-07-15T10:27:59.000Z</time>
</trkpt>
<trkpt lat="46.0280160" lon="9.4985460">
	<ele>1847.00</ele>
	<time>2023-07-15T10:28:01.000Z</time>
</trkpt>
<trkpt lat="46.0280410" lon="9.4985360">
	<ele>1846.60</ele>
	<time>2023-07-15T10:28:03.000Z</time>
</trkpt>
<trkpt lat="46.0280630" lon="9.4985220">
	<ele>1846.20</ele>
	<time>2023-07-15T10:28:05.000Z</time>
</trkpt>
<trkpt lat="46.0281060" lon="9.4985050">
	<ele>1845.60</ele>
	<time>2023-07-15T10:28:08.000Z</time>
</trkpt>
<trkpt lat="46.0281550" lon="9.4984420">
	<ele>1845.00</ele>
	<time>2023-07-15T10:28:13.000Z</time>
</trkpt>
<trkpt lat="46.0281600" lon="9.4984280">
	<ele>1844.60</ele>
	<time>2023-07-15T10:28:14.000Z</time>
</trkpt>
<trkpt lat="46.0281750" lon="9.4984060">
	<ele>1844.40</ele>
	<time>2023-07-15T10:28:16.000Z</time>
</trkpt>
<trkpt lat="46.0281960" lon="9.4983890">
	<ele>1844.20</ele>
	<time>2023-07-15T10:28:18.000Z</time>
</trkpt>
<trkpt lat="46.0282200" lon="9.4983760">
	<ele>1843.80</ele>
	<time>2023-07-15T10:28:20.000Z</time>
</trkpt>
<trkpt lat="46.0282260" lon="9.4983660">
	<ele>1843.80</ele>
	<time>2023-07-15T10:28:21.000Z</time>
</trkpt>
<trkpt lat="46.0282450" lon="9.4983430">
	<ele>1843.40</ele>
	<time>2023-07-15T10:28:23.000Z</time>
</trkpt>
<trkpt lat="46.0282990" lon="9.4983250">
	<ele>1842.80</ele>
	<time>2023-07-15T10:28:28.000Z</time>
</trkpt>
<trkpt lat="46.0283010" lon="9.4983150">
	<ele>1842.60</ele>
	<time>2023-07-15T10:28:29.000Z</time>
</trkpt>
<trkpt lat="46.0283370" lon="9.4982720">
	<ele>1841.60</ele>
	<time>2023-07-15T10:28:34.000Z</time>
</trkpt>
<trkpt lat="46.0283540" lon="9.4982420">
	<ele>1841.20</ele>
	<time>2023-07-15T10:28:37.000Z</time>
</trkpt>
<trkpt lat="46.0283760" lon="9.4982190">
	<ele>1840.40</ele>
	<time>2023-07-15T10:28:40.000Z</time>
</trkpt>
<trkpt lat="46.0283800" lon="9.4982000">
	<ele>1840.00</ele>
	<time>2023-07-15T10:28:41.000Z</time>
</trkpt>
<trkpt lat="46.0283940" lon="9.4981850">
	<ele>1839.60</ele>
	<time>2023-07-15T10:28:43.000Z</time>
</trkpt>
<trkpt lat="46.0284020" lon="9.4981790">
	<ele>1839.40</ele>
	<time>2023-07-15T10:28:44.000Z</time>
</trkpt>
<trkpt lat="46.0284470" lon="9.4981590">
	<ele>1838.20</ele>
	<time>2023-07-15T10:28:50.000Z</time>
</trkpt>
<trkpt lat="46.0284740" lon="9.4981520">
	<ele>1837.80</ele>
	<time>2023-07-15T10:28:52.000Z</time>
</trkpt>
<trkpt lat="46.0285040" lon="9.4981550">
	<ele>1837.20</ele>
	<time>2023-07-15T10:28:55.000Z</time>
</trkpt>
<trkpt lat="46.0285620" lon="9.4981950">
	<ele>1836.00</ele>
	<time>2023-07-15T10:29:01.000Z</time>
</trkpt>
<trkpt lat="46.0285620" lon="9.4982320">
	<ele>1835.00</ele>
	<time>2023-07-15T10:29:04.000Z</time>
</trkpt>
<trkpt lat="46.0285710" lon="9.4982630">
	<ele>1834.60</ele>
	<time>2023-07-15T10:29:06.000Z</time>
</trkpt>
<trkpt lat="46.0285750" lon="9.4982770">
	<ele>1834.40</ele>
	<time>2023-07-15T10:29:07.000Z</time>
</trkpt>
<trkpt lat="46.0285760" lon="9.4983030">
	<ele>1833.80</ele>
	<time>2023-07-15T10:29:10.000Z</time>
</trkpt>
<trkpt lat="46.0286370" lon="9.4983550">
	<ele>1832.60</ele>
	<time>2023-07-15T10:29:16.000Z</time>
</trkpt>
<trkpt lat="46.0286460" lon="9.4983670">
	<ele>1832.40</ele>
	<time>2023-07-15T10:29:17.000Z</time>
</trkpt>
<trkpt lat="46.0286780" lon="9.4983890">
	<ele>1831.40</ele>
	<time>2023-07-15T10:29:21.000Z</time>
</trkpt>
<trkpt lat="46.0287070" lon="9.4984290">
	<ele>1830.80</ele>
	<time>2023-07-15T10:29:24.000Z</time>
</trkpt>
<trkpt lat="46.0287150" lon="9.4984670">
	<ele>1830.40</ele>
	<time>2023-07-15T10:29:26.000Z</time>
</trkpt>
<trkpt lat="46.0287180" lon="9.4985330">
	<ele>1829.80</ele>
	<time>2023-07-15T10:29:29.000Z</time>
</trkpt>
<trkpt lat="46.0287030" lon="9.4985570">
	<ele>1829.60</ele>
	<time>2023-07-15T10:29:31.000Z</time>
</trkpt>
<trkpt lat="46.0286950" lon="9.4985690">
	<ele>1829.60</ele>
	<time>2023-07-15T10:29:32.000Z</time>
</trkpt>
<trkpt lat="46.0286710" lon="9.4985770">
	<ele>1829.40</ele>
	<time>2023-07-15T10:29:34.000Z</time>
</trkpt>
<trkpt lat="46.0286440" lon="9.4985930">
	<ele>1829.20</ele>
	<time>2023-07-15T10:29:36.000Z</time>
</trkpt>
<trkpt lat="46.0285910" lon="9.4986670">
	<ele>1828.20</ele>
	<time>2023-07-15T10:29:42.000Z</time>
</trkpt>
<trkpt lat="46.0285820" lon="9.4986790">
	<ele>1827.60</ele>
	<time>2023-07-15T10:29:44.000Z</time>
</trkpt>
<trkpt lat="46.0285860" lon="9.4987200">
	<ele>1827.20</ele>
	<time>2023-07-15T10:29:46.000Z</time>
</trkpt>
<trkpt lat="46.0285920" lon="9.4987480">
	<ele>1827.00</ele>
	<time>2023-07-15T10:29:48.000Z</time>
</trkpt>
<trkpt lat="46.0286050" lon="9.4988130">
	<ele>1825.80</ele>
	<time>2023-07-15T10:29:53.000Z</time>
</trkpt>
<trkpt lat="46.0286180" lon="9.4988510">
	<ele>1825.40</ele>
	<time>2023-07-15T10:29:55.000Z</time>
</trkpt>
<trkpt lat="46.0286240" lon="9.4988650">
	<ele>1825.20</ele>
	<time>2023-07-15T10:29:56.000Z</time>
</trkpt>
<trkpt lat="46.0286330" lon="9.4988920">
	<ele>1824.80</ele>
	<time>2023-07-15T10:29:58.000Z</time>
</trkpt>
<trkpt lat="46.0286350" lon="9.4989040">
	<ele>1824.60</ele>
	<time>2023-07-15T10:29:59.000Z</time>
</trkpt>
<trkpt lat="46.0286410" lon="9.4989240">
	<ele>1824.00</ele>
	<time>2023-07-15T10:30:01.000Z</time>
</trkpt>
<trkpt lat="46.0286500" lon="9.4989350">
	<ele>1823.60</ele>
	<time>2023-07-15T10:30:02.000Z</time>
</trkpt>
<trkpt lat="46.0286720" lon="9.4989760">
	<ele>1822.60</ele>
	<time>2023-07-15T10:30:06.000Z</time>
</trkpt>
<trkpt lat="46.0287050" lon="9.4990380">
	<ele>1821.20</ele>
	<time>2023-07-15T10:30:11.000Z</time>
</trkpt>
<trkpt lat="46.0287110" lon="9.4990500">
	<ele>1821.00</ele>
	<time>2023-07-15T10:30:12.000Z</time>
</trkpt>
<trkpt lat="46.0287260" lon="9.4990930">
	<ele>1820.20</ele>
	<time>2023-07-15T10:30:16.000Z</time>
</trkpt>
<trkpt lat="46.0287250" lon="9.4991090">
	<ele>1820.00</ele>
	<time>2023-07-15T10:30:17.000Z</time>
</trkpt>
<trkpt lat="46.0287450" lon="9.4991240">
	<ele>1819.60</ele>
	<time>2023-07-15T10:30:19.000Z</time>
</trkpt>
<trkpt lat="46.0287620" lon="9.4991570">
	<ele>1819.20</ele>
	<time>2023-07-15T10:30:21.000Z</time>
</trkpt>
<trkpt lat="46.0288020" lon="9.4992200">
	<ele>1819.00</ele>
	<time>2023-07-15T10:30:28.000Z</time>
</trkpt>
<trkpt lat="46.0288080" lon="9.4992240">
	<ele>1819.20</ele>
	<time>2023-07-15T10:30:30.000Z</time>
</trkpt>
<trkpt lat="46.0288530" lon="9.4992550">
	<ele>1818.80</ele>
	<time>2023-07-15T10:30:35.000Z</time>
</trkpt>
<trkpt lat="46.0288980" lon="9.4993420">
	<ele>1818.40</ele>
	<time>2023-07-15T10:30:42.000Z</time>
</trkpt>
<trkpt lat="46.0289600" lon="9.4994500">
	<ele>1818.40</ele>
	<time>2023-07-15T10:30:53.000Z</time>
</trkpt>
<trkpt lat="46.0289670" lon="9.4994550">
	<ele>1818.40</ele>
	<time>2023-07-15T10:30:54.000Z</time>
</trkpt>
<trkpt lat="46.0289850" lon="9.4994720">
	<ele>1818.40</ele>
	<time>2023-07-15T10:30:56.000Z</time>
</trkpt>
<trkpt lat="46.0290030" lon="9.4994910">
	<ele>1818.00</ele>
	<time>2023-07-15T10:30:58.000Z</time>
</trkpt>
<trkpt lat="46.0290310" lon="9.4995200">
	<ele>1817.80</ele>
	<time>2023-07-15T10:31:01.000Z</time>
</trkpt>
<trkpt lat="46.0291080" lon="9.4996000">
	<ele>1817.00</ele>
	<time>2023-07-15T10:31:08.000Z</time>
</trkpt>
<trkpt lat="46.0291520" lon="9.4996420">
	<ele>1816.20</ele>
	<time>2023-07-15T10:31:14.000Z</time>
</trkpt>
<trkpt lat="46.0291570" lon="9.4996490">
	<ele>1816.00</ele>
	<time>2023-07-15T10:31:15.000Z</time>
</trkpt>
<trkpt lat="46.0292090" lon="9.4996860">
	<ele>1815.00</ele>
	<time>2023-07-15T10:31:21.000Z</time>
</trkpt>
<trkpt lat="46.0292190" lon="9.4997020">
	<ele>1814.60</ele>
	<time>2023-07-15T10:31:23.000Z</time>
</trkpt>
<trkpt lat="46.0292560" lon="9.4997520">
	<ele>1813.80</ele>
	<time>2023-07-15T10:31:28.000Z</time>
</trkpt>
<trkpt lat="46.0292760" lon="9.4997660">
	<ele>1813.20</ele>
	<time>2023-07-15T10:31:31.000Z</time>
</trkpt>
<trkpt lat="46.0292930" lon="9.4997820">
	<ele>1812.80</ele>
	<time>2023-07-15T10:31:34.000Z</time>
</trkpt>
<trkpt lat="46.0292970" lon="9.4997920">
	<ele>1812.60</ele>
	<time>2023-07-15T10:31:35.000Z</time>
</trkpt>
<trkpt lat="46.0293160" lon="9.4998020">
	<ele>1812.40</ele>
	<time>2023-07-15T10:31:37.000Z</time>
</trkpt>
<trkpt lat="46.0293380" lon="9.4998110">
	<ele>1811.80</ele>
	<time>2023-07-15T10:31:40.000Z</time>
</trkpt>
<trkpt lat="46.0294020" lon="9.4998300">
	<ele>1810.80</ele>
	<time>2023-07-15T10:31:44.000Z</time>
</trkpt>
<trkpt lat="46.0294090" lon="9.4998340">
	<ele>1810.40</ele>
	<time>2023-07-15T10:31:45.000Z</time>
</trkpt>
<trkpt lat="46.0294290" lon="9.4999280">
	<ele>1809.60</ele>
	<time>2023-07-15T10:31:53.000Z</time>
</trkpt>
<trkpt lat="46.0294450" lon="9.4999820">
	<ele>1808.60</ele>
	<time>2023-07-15T10:31:58.000Z</time>
</trkpt>
<trkpt lat="46.0294640" lon="9.5000470">
	<ele>1807.40</ele>
	<time>2023-07-15T10:32:03.000Z</time>
</trkpt>
<trkpt lat="46.0294730" lon="9.5000580">
	<ele>1807.20</ele>
	<time>2023-07-15T10:32:04.000Z</time>
</trkpt>
<trkpt lat="46.0294990" lon="9.5001750">
	<ele>1806.60</ele>
	<time>2023-07-15T10:32:11.000Z</time>
</trkpt>
<trkpt lat="46.0295030" lon="9.5001990">
	<ele>1806.40</ele>
	<time>2023-07-15T10:32:13.000Z</time>
</trkpt>
<trkpt lat="46.0295080" lon="9.5002590">
	<ele>1805.20</ele>
	<time>2023-07-15T10:32:17.000Z</time>
</trkpt>
<trkpt lat="46.0295150" lon="9.5002760">
	<ele>1805.00</ele>
	<time>2023-07-15T10:32:19.000Z</time>
</trkpt>
<trkpt lat="46.0295240" lon="9.5003060">
	<ele>1804.40</ele>
	<time>2023-07-15T10:32:22.000Z</time>
</trkpt>
<trkpt lat="46.0295450" lon="9.5003190">
	<ele>1804.20</ele>
	<time>2023-07-15T10:32:25.000Z</time>
</trkpt>
<trkpt lat="46.0295550" lon="9.5003160">
	<ele>1803.80</ele>
	<time>2023-07-15T10:32:26.000Z</time>
</trkpt>
<trkpt lat="46.0296030" lon="9.5003200">
	<ele>1803.00</ele>
	<time>2023-07-15T10:32:33.000Z</time>
</trkpt>
<trkpt lat="46.0296070" lon="9.5003230">
	<ele>1802.80</ele>
	<time>2023-07-15T10:32:35.000Z</time>
</trkpt>
<trkpt lat="46.0296080" lon="9.5003230">
	<ele>1802.60</ele>
	<time>2023-07-15T10:32:38.000Z</time>
</trkpt>
<trkpt lat="46.0296360" lon="9.5003360">
	<ele>1802.40</ele>
	<time>2023-07-15T10:32:44.000Z</time>
</trkpt>
<trkpt lat="46.0296470" lon="9.5003390">
	<ele>1802.00</ele>
	<time>2023-07-15T10:32:46.000Z</time>
</trkpt>
<trkpt lat="46.0296760" lon="9.5003820">
	<ele>1801.00</ele>
	<time>2023-07-15T10:32:50.000Z</time>
</trkpt>
<trkpt lat="46.0296730" lon="9.5004190">
	<ele>1800.80</ele>
	<time>2023-07-15T10:32:52.000Z</time>
</trkpt>
<trkpt lat="46.0296540" lon="9.5004490">
	<ele>1800.80</ele>
	<time>2023-07-15T10:32:54.000Z</time>
</trkpt>
<trkpt lat="46.0296290" lon="9.5004750">
	<ele>1800.20</ele>
	<time>2023-07-15T10:32:57.000Z</time>
</trkpt>
<trkpt lat="46.0295840" lon="9.5005240">
	<ele>1799.80</ele>
	<time>2023-07-15T10:33:02.000Z</time>
</trkpt>
<trkpt lat="46.0295360" lon="9.5005570">
	<ele>1798.80</ele>
	<time>2023-07-15T10:33:06.000Z</time>
</trkpt>
<trkpt lat="46.0295250" lon="9.5005640">
	<ele>1798.60</ele>
	<time>2023-07-15T10:33:07.000Z</time>
</trkpt>
<trkpt lat="46.0294820" lon="9.5006060">
	<ele>1798.00</ele>
	<time>2023-07-15T10:33:12.000Z</time>
</trkpt>
<trkpt lat="46.0294590" lon="9.5006180">
	<ele>1797.60</ele>
	<time>2023-07-15T10:33:14.000Z</time>
</trkpt>
<trkpt lat="46.0294450" lon="9.5006220">
	<ele>1797.40</ele>
	<time>2023-07-15T10:33:15.000Z</time>
</trkpt>
<trkpt lat="46.0294360" lon="9.5006350">
	<ele>1797.00</ele>
	<time>2023-07-15T10:33:16.000Z</time>
</trkpt>
<trkpt lat="46.0294080" lon="9.5006710">
	<ele>1796.40</ele>
	<time>2023-07-15T10:33:21.000Z</time>
</trkpt>
<trkpt lat="46.0293710" lon="9.5007450">
	<ele>1795.20</ele>
	<time>2023-07-15T10:33:27.000Z</time>
</trkpt>
<trkpt lat="46.0293590" lon="9.5007620">
	<ele>1795.20</ele>
	<time>2023-07-15T10:33:28.000Z</time>
</trkpt>
<trkpt lat="46.0293250" lon="9.5008940">
	<ele>1794.60</ele>
	<time>2023-07-15T10:33:35.000Z</time>
</trkpt>
<trkpt lat="46.0292950" lon="9.5009590">
	<ele>1794.80</ele>
	<time>2023-07-15T10:33:40.000Z</time>
</trkpt>
<trkpt lat="46.0292750" lon="9.5010060">
	<ele>1794.80</ele>
	<time>2023-07-15T10:33:43.000Z</time>
</trkpt>
<trkpt lat="46.0292640" lon="9.5010370">
	<ele>1794.80</ele>
	<time>2023-07-15T10:33:45.000Z</time>
</trkpt>
<trkpt lat="46.0292730" lon="9.5011120">
	<ele>1794.80</ele>
	<time>2023-07-15T10:33:49.000Z</time>
</trkpt>
<trkpt lat="46.0292850" lon="9.5011870">
	<ele>1795.20</ele>
	<time>2023-07-15T10:33:53.000Z</time>
</trkpt>
<trkpt lat="46.0292730" lon="9.5012150">
	<ele>1795.40</ele>
	<time>2023-07-15T10:33:55.000Z</time>
</trkpt>
<trkpt lat="46.0292830" lon="9.5013330">
	<ele>1795.60</ele>
	<time>2023-07-15T10:34:01.000Z</time>
</trkpt>
<trkpt lat="46.0292840" lon="9.5013500">
	<ele>1795.60</ele>
	<time>2023-07-15T10:34:02.000Z</time>
</trkpt>
<trkpt lat="46.0292840" lon="9.5013770">
	<ele>1795.60</ele>
	<time>2023-07-15T10:34:04.000Z</time>
</trkpt>
<trkpt lat="46.0292810" lon="9.5014060">
	<ele>1795.40</ele>
	<time>2023-07-15T10:34:06.000Z</time>
</trkpt>
<trkpt lat="46.0292700" lon="9.5014560">
	<ele>1795.40</ele>
	<time>2023-07-15T10:34:10.000Z</time>
</trkpt>
<trkpt lat="46.0292740" lon="9.5014680">
	<ele>1795.40</ele>
	<time>2023-07-15T10:34:11.000Z</time>
</trkpt>
<trkpt lat="46.0292760" lon="9.5014990">
	<ele>1795.60</ele>
	<time>2023-07-15T10:34:13.000Z</time>
</trkpt>
<trkpt lat="46.0292830" lon="9.5016030">
	<ele>1796.00</ele>
	<time>2023-07-15T10:34:20.000Z</time>
</trkpt>
<trkpt lat="46.0292990" lon="9.5016590">
	<ele>1796.20</ele>
	<time>2023-07-15T10:34:23.000Z</time>
</trkpt>
<trkpt lat="46.0292970" lon="9.5017130">
	<ele>1796.60</ele>
	<time>2023-07-15T10:34:26.000Z</time>
</trkpt>
<trkpt lat="46.0293100" lon="9.5018070">
	<ele>1796.80</ele>
	<time>2023-07-15T10:34:32.000Z</time>
</trkpt>
<trkpt lat="46.0293180" lon="9.5018190">
	<ele>1796.80</ele>
	<time>2023-07-15T10:34:33.000Z</time>
</trkpt>
<trkpt lat="46.0293540" lon="9.5019330">
	<ele>1796.40</ele>
	<time>2023-07-15T10:34:40.000Z</time>
</trkpt>
<trkpt lat="46.0294080" lon="9.5020580">
	<ele>1797.00</ele>
	<time>2023-07-15T10:34:49.000Z</time>
</trkpt>
<trkpt lat="46.0294560" lon="9.5022030">
	<ele>1797.00</ele>
	<time>2023-07-15T10:34:59.000Z</time>
</trkpt>
<trkpt lat="46.0294410" lon="9.5022550">
	<ele>1796.60</ele>
	<time>2023-07-15T10:35:03.000Z</time>
</trkpt>
<trkpt lat="46.0294320" lon="9.5022850">
	<ele>1796.20</ele>
	<time>2023-07-15T10:35:06.000Z</time>
</trkpt>
<trkpt lat="46.0294140" lon="9.5023500">
	<ele>1795.40</ele>
	<time>2023-07-15T10:35:12.000Z</time>
</trkpt>
<trkpt lat="46.0293970" lon="9.5023810">
	<ele>1795.00</ele>
	<time>2023-07-15T10:35:15.000Z</time>
</trkpt>
<trkpt lat="46.0293930" lon="9.5023900">
	<ele>1795.00</ele>
	<time>2023-07-15T10:35:16.000Z</time>
</trkpt>
<trkpt lat="46.0293680" lon="9.5024240">
	<ele>1794.40</ele>
	<time>2023-07-15T10:35:20.000Z</time>
</trkpt>
<trkpt lat="46.0293450" lon="9.5024340">
	<ele>1794.00</ele>
	<time>2023-07-15T10:35:22.000Z</time>
</trkpt>
<trkpt lat="46.0293420" lon="9.5024830">
	<ele>1793.40</ele>
	<time>2023-07-15T10:35:26.000Z</time>
</trkpt>
<trkpt lat="46.0293350" lon="9.5025010">
	<ele>1792.80</ele>
	<time>2023-07-15T10:35:28.000Z</time>
</trkpt>
<trkpt lat="46.0293340" lon="9.5026020">
	<ele>1791.80</ele>
	<time>2023-07-15T10:35:35.000Z</time>
</trkpt>
<trkpt lat="46.0293140" lon="9.5026560">
	<ele>1790.60</ele>
	<time>2023-07-15T10:35:40.000Z</time>
</trkpt>
<trkpt lat="46.0292920" lon="9.5027050">
	<ele>1789.60</ele>
	<time>2023-07-15T10:35:45.000Z</time>
</trkpt>
<trkpt lat="46.0292950" lon="9.5027210">
	<ele>1789.40</ele>
	<time>2023-07-15T10:35:46.000Z</time>
</trkpt>
<trkpt lat="46.0292830" lon="9.5027650">
	<ele>1788.20</ele>
	<time>2023-07-15T10:35:50.000Z</time>
</trkpt>
<trkpt lat="46.0292730" lon="9.5028160">
	<ele>1787.60</ele>
	<time>2023-07-15T10:35:54.000Z</time>
</trkpt>
<trkpt lat="46.0292700" lon="9.5028420">
	<ele>1787.20</ele>
	<time>2023-07-15T10:35:56.000Z</time>
</trkpt>
<trkpt lat="46.0292810" lon="9.5029040">
	<ele>1786.40</ele>
	<time>2023-07-15T10:36:00.000Z</time>
</trkpt>
<trkpt lat="46.0292840" lon="9.5029360">
	<ele>1786.20</ele>
	<time>2023-07-15T10:36:02.000Z</time>
</trkpt>
<trkpt lat="46.0292940" lon="9.5029870">
	<ele>1785.40</ele>
	<time>2023-07-15T10:36:05.000Z</time>
</trkpt>
<trkpt lat="46.0292940" lon="9.5030580">
	<ele>1785.00</ele>
	<time>2023-07-15T10:36:09.000Z</time>
</trkpt>
<trkpt lat="46.0292960" lon="9.5031230">
	<ele>1784.60</ele>
	<time>2023-07-15T10:36:13.000Z</time>
</trkpt>
<trkpt lat="46.0293030" lon="9.5031650">
	<ele>1784.00</ele>
	<time>2023-07-15T10:36:16.000Z</time>
</trkpt>
<trkpt lat="46.0293020" lon="9.5031800">
	<ele>1783.80</ele>
	<time>2023-07-15T10:36:17.000Z</time>
</trkpt>
<trkpt lat="46.0293070" lon="9.5032250">
	<ele>1783.40</ele>
	<time>2023-07-15T10:36:20.000Z</time>
</trkpt>
<trkpt lat="46.0293200" lon="9.5032860">
	<ele>1782.60</ele>
	<time>2023-07-15T10:36:24.000Z</time>
</trkpt>
<trkpt lat="46.0293050" lon="9.5033350">
	<ele>1782.20</ele>
	<time>2023-07-15T10:36:28.000Z</time>
</trkpt>
<trkpt lat="46.0293060" lon="9.5033930">
	<ele>1781.40</ele>
	<time>2023-07-15T10:36:31.000Z</time>
</trkpt>
<trkpt lat="46.0293120" lon="9.5034470">
	<ele>1781.20</ele>
	<time>2023-07-15T10:36:34.000Z</time>
</trkpt>
<trkpt lat="46.0293150" lon="9.5035260">
	<ele>1780.40</ele>
	<time>2023-07-15T10:36:39.000Z</time>
</trkpt>
<trkpt lat="46.0293170" lon="9.5035620">
	<ele>1780.00</ele>
	<time>2023-07-15T10:36:41.000Z</time>
</trkpt>
<trkpt lat="46.0293160" lon="9.5035870">
	<ele>1779.60</ele>
	<time>2023-07-15T10:36:43.000Z</time>
</trkpt>
<trkpt lat="46.0293230" lon="9.5035980">
	<ele>1779.20</ele>
	<time>2023-07-15T10:36:45.000Z</time>
</trkpt>
<trkpt lat="46.0293240" lon="9.5035850">
	<ele>1779.20</ele>
	<time>2023-07-15T10:36:46.000Z</time>
</trkpt>
<trkpt lat="46.0293320" lon="9.5035570">
	<ele>1778.80</ele>
	<time>2023-07-15T10:36:48.000Z</time>
</trkpt>
<trkpt lat="46.0293570" lon="9.5034610">
	<ele>1778.20</ele>
	<time>2023-07-15T10:36:56.000Z</time>
</trkpt>
<trkpt lat="46.0293560" lon="9.5034580">
	<ele>1778.00</ele>
	<time>2023-07-15T10:36:57.000Z</time>
</trkpt>
<trkpt lat="46.0293570" lon="9.5034590">
	<ele>1778.00</ele>
	<time>2023-07-15T10:36:58.000Z</time>
</trkpt>
<trkpt lat="46.0293580" lon="9.5034540">
	<ele>1777.80</ele>
	<time>2023-07-15T10:37:03.000Z</time>
</trkpt>
<trkpt lat="46.0293580" lon="9.5034540">
	<ele>1777.80</ele>
	<time>2023-07-15T10:37:04.000Z</time>
</trkpt>
<trkpt lat="46.0293590" lon="9.5034550">
	<ele>1777.80</ele>
	<time>2023-07-15T10:37:05.000Z</time>
</trkpt>
<trkpt lat="46.0293600" lon="9.5034310">
	<ele>1777.60</ele>
	<time>2023-07-15T10:37:13.000Z</time>
</trkpt>
<trkpt lat="46.0293470" lon="9.5034340">
	<ele>1777.40</ele>
	<time>2023-07-15T10:37:20.000Z</time>
</trkpt>
<trkpt lat="46.0293470" lon="9.5034360">
	<ele>1777.80</ele>
	<time>2023-07-15T10:37:34.000Z</time>
</trkpt>
<trkpt lat="46.0293540" lon="9.5034530">
	<ele>1777.60</ele>
	<time>2023-07-15T10:38:01.000Z</time>
</trkpt>
<trkpt lat="46.0293440" lon="9.5034560">
	<ele>1777.40</ele>
	<time>2023-07-15T10:38:16.000Z</time>
</trkpt>
<trkpt lat="46.0293390" lon="9.5034550">
	<ele>1777.60</ele>
	<time>2023-07-15T10:38:26.000Z</time>
</trkpt>
<trkpt lat="46.0293390" lon="9.5034530">
	<ele>1777.60</ele>
	<time>2023-07-15T10:38:30.000Z</time>
</trkpt>
<trkpt lat="46.0293520" lon="9.5033720">
	<ele>1777.60</ele>
	<time>2023-07-15T10:38:35.000Z</time>
</trkpt>
<trkpt lat="46.0293540" lon="9.5033530">
	<ele>1777.60</ele>
	<time>2023-07-15T10:38:36.000Z</time>
</trkpt>
<trkpt lat="46.0293730" lon="9.5032410">
	<ele>1777.60</ele>
	<time>2023-07-15T10:38:44.000Z</time>
</trkpt>
<trkpt lat="46.0294030" lon="9.5031090">
	<ele>1777.60</ele>
	<time>2023-07-15T10:38:52.000Z</time>
</trkpt>
<trkpt lat="46.0294640" lon="9.5030330">
	<ele>1777.60</ele>
	<time>2023-07-15T10:39:00.000Z</time>
</trkpt>
<trkpt lat="46.0295180" lon="9.5029880">
	<ele>1777.60</ele>
	<time>2023-07-15T10:39:07.000Z</time>
</trkpt>
<trkpt lat="46.0295790" lon="9.5029330">
	<ele>1774.40</ele>
	<time>2023-07-15T10:39:14.000Z</time>
</trkpt>
<trkpt lat="46.0295830" lon="9.5029240">
	<ele>1772.80</ele>
	<time>2023-07-15T10:39:15.000Z</time>
</trkpt>
<trkpt lat="46.0295990" lon="9.5029170">
	<ele>1771.20</ele>
	<time>2023-07-15T10:39:17.000Z</time>
</trkpt>
<trkpt lat="46.0295980" lon="9.5029020">
	<ele>1770.80</ele>
	<time>2023-07-15T10:39:18.000Z</time>
</trkpt>
<trkpt lat="46.0296150" lon="9.5028670">
	<ele>1770.00</ele>
	<time>2023-07-15T10:39:21.000Z</time>
</trkpt>
<trkpt lat="46.0296570" lon="9.5027800">
	<ele>1768.80</ele>
	<time>2023-07-15T10:39:28.000Z</time>
</trkpt>
<trkpt lat="46.0296800" lon="9.5027330">
	<ele>1768.40</ele>
	<time>2023-07-15T10:39:32.000Z</time>
</trkpt>
<trkpt lat="46.0297160" lon="9.5027040">
	<ele>1767.60</ele>
	<time>2023-07-15T10:39:36.000Z</time>
</trkpt>
<trkpt lat="46.0297810" lon="9.5026480">
	<ele>1766.40</ele>
	<time>2023-07-15T10:39:42.000Z</time>
</trkpt>
<trkpt lat="46.0298010" lon="9.5026190">
	<ele>1765.80</ele>
	<time>2023-07-15T10:39:45.000Z</time>
</trkpt>
<trkpt lat="46.0298220" lon="9.5025890">
	<ele>1765.40</ele>
	<time>2023-07-15T10:39:48.000Z</time>
</trkpt>
<trkpt lat="46.0298800" lon="9.5025550">
	<ele>1765.00</ele>
	<time>2023-07-15T10:39:53.000Z</time>
</trkpt>
<trkpt lat="46.0299110" lon="9.5025290">
	<ele>1764.60</ele>
	<time>2023-07-15T10:39:56.000Z</time>
</trkpt>
<trkpt lat="46.0299320" lon="9.5025280">
	<ele>1764.20</ele>
	<time>2023-07-15T10:39:58.000Z</time>
</trkpt>
<trkpt lat="46.0299730" lon="9.5025050">
	<ele>1763.60</ele>
	<time>2023-07-15T10:40:03.000Z</time>
</trkpt>
<trkpt lat="46.0299900" lon="9.5024920">
	<ele>1763.20</ele>
	<time>2023-07-15T10:40:05.000Z</time>
</trkpt>
<trkpt lat="46.0300450" lon="9.5024440">
	<ele>1762.40</ele>
	<time>2023-07-15T10:40:12.000Z</time>
</trkpt>
<trkpt lat="46.0300640" lon="9.5024290">
	<ele>1762.20</ele>
	<time>2023-07-15T10:40:14.000Z</time>
</trkpt>
<trkpt lat="46.0301000" lon="9.5023980">
	<ele>1761.60</ele>
	<time>2023-07-15T10:40:18.000Z</time>
</trkpt>
<trkpt lat="46.0301050" lon="9.5023780">
	<ele>1761.40</ele>
	<time>2023-07-15T10:40:19.000Z</time>
</trkpt>
<trkpt lat="46.0301050" lon="9.5023620">
	<ele>1761.00</ele>
	<time>2023-07-15T10:40:20.000Z</time>
</trkpt>
<trkpt lat="46.0301250" lon="9.5023380">
	<ele>1760.60</ele>
	<time>2023-07-15T10:40:23.000Z</time>
</trkpt>
<trkpt lat="46.0301430" lon="9.5023180">
	<ele>1760.40</ele>
	<time>2023-07-15T10:40:25.000Z</time>
</trkpt>
<trkpt lat="46.0301730" lon="9.5022790">
	<ele>1760.00</ele>
	<time>2023-07-15T10:40:28.000Z</time>
</trkpt>
<trkpt lat="46.0301740" lon="9.5022640">
	<ele>1760.00</ele>
	<time>2023-07-15T10:40:29.000Z</time>
</trkpt>
<trkpt lat="46.0301860" lon="9.5022430">
	<ele>1759.80</ele>
	<time>2023-07-15T10:40:31.000Z</time>
</trkpt>
<trkpt lat="46.0302320" lon="9.5021410">
	<ele>1759.20</ele>
	<time>2023-07-15T10:40:39.000Z</time>
</trkpt>
<trkpt lat="46.0302660" lon="9.5021020">
	<ele>1759.00</ele>
	<time>2023-07-15T10:40:43.000Z</time>
</trkpt>
<trkpt lat="46.0302890" lon="9.5020650">
	<ele>1759.00</ele>
	<time>2023-07-15T10:40:46.000Z</time>
</trkpt>
<trkpt lat="46.0303070" lon="9.5020430">
	<ele>1759.00</ele>
	<time>2023-07-15T10:40:48.000Z</time>
</trkpt>
<trkpt lat="46.0303690" lon="9.5019660">
	<ele>1759.20</ele>
	<time>2023-07-15T10:40:56.000Z</time>
</trkpt>
<trkpt lat="46.0303980" lon="9.5018640">
	<ele>1758.00</ele>
	<time>2023-07-15T10:41:05.000Z</time>
</trkpt>
<trkpt lat="46.0304000" lon="9.5018540">
	<ele>1757.60</ele>
	<time>2023-07-15T10:41:06.000Z</time>
</trkpt>
<trkpt lat="46.0304130" lon="9.5018090">
	<ele>1756.80</ele>
	<time>2023-07-15T10:41:09.000Z</time>
</trkpt>
<trkpt lat="46.0304440" lon="9.5017750">
	<ele>1756.60</ele>
	<time>2023-07-15T10:41:12.000Z</time>
</trkpt>
<trkpt lat="46.0305270" lon="9.5017600">
	<ele>1757.00</ele>
	<time>2023-07-15T10:41:19.000Z</time>
</trkpt>
<trkpt lat="46.0305310" lon="9.5017580">
	<ele>1757.00</ele>
	<time>2023-07-15T10:41:20.000Z</time>
</trkpt>
<trkpt lat="46.0305360" lon="9.5017590">
	<ele>1757.60</ele>
	<time>2023-07-15T10:41:24.000Z</time>
</trkpt>
<trkpt lat="46.0305330" lon="9.5017560">
	<ele>1757.60</ele>
	<time>2023-07-15T10:41:27.000Z</time>
</trkpt>
<trkpt lat="46.0305270" lon="9.5017610">
	<ele>1757.20</ele>
	<time>2023-07-15T10:41:32.000Z</time>
</trkpt>
<trkpt lat="46.0305250" lon="9.5017610">
	<ele>1757.40</ele>
	<time>2023-07-15T10:41:40.000Z</time>
</trkpt>
<trkpt lat="46.0305250" lon="9.5017610">
	<ele>1757.20</ele>
	<time>2023-07-15T10:41:47.000Z</time>
</trkpt>
<trkpt lat="46.0305210" lon="9.5017650">
	<ele>1757.20</ele>
	<time>2023-07-15T10:41:58.000Z</time>
</trkpt>
<trkpt lat="46.0305670" lon="9.5017400">
	<ele>1757.40</ele>
	<time>2023-07-15T10:42:20.000Z</time>
</trkpt>
<trkpt lat="46.0306040" lon="9.5017190">
	<ele>1757.40</ele>
	<time>2023-07-15T10:42:23.000Z</time>
</trkpt>
<trkpt lat="46.0306520" lon="9.5016810">
	<ele>1757.00</ele>
	<time>2023-07-15T10:42:29.000Z</time>
</trkpt>
<trkpt lat="46.0307060" lon="9.5016070">
	<ele>1756.40</ele>
	<time>2023-07-15T10:42:37.000Z</time>
</trkpt>
<trkpt lat="46.0307520" lon="9.5015800">
	<ele>1755.80</ele>
	<time>2023-07-15T10:42:42.000Z</time>
</trkpt>
<trkpt lat="46.0307840" lon="9.5015390">
	<ele>1755.20</ele>
	<time>2023-07-15T10:42:46.000Z</time>
</trkpt>
<trkpt lat="46.0307990" lon="9.5015220">
	<ele>1754.80</ele>
	<time>2023-07-15T10:42:48.000Z</time>
</trkpt>
<trkpt lat="46.0308180" lon="9.5014920">
	<ele>1754.20</ele>
	<time>2023-07-15T10:42:51.000Z</time>
</trkpt>
<trkpt lat="46.0308410" lon="9.5014340">
	<ele>1753.60</ele>
	<time>2023-07-15T10:42:56.000Z</time>
</trkpt>
<trkpt lat="46.0308510" lon="9.5013890">
	<ele>1753.00</ele>
	<time>2023-07-15T10:42:59.000Z</time>
</trkpt>
<trkpt lat="46.0308710" lon="9.5013340">
	<ele>1752.40</ele>
	<time>2023-07-15T10:43:03.000Z</time>
</trkpt>
<trkpt lat="46.0308820" lon="9.5012930">
	<ele>1752.00</ele>
	<time>2023-07-15T10:43:06.000Z</time>
</trkpt>
<trkpt lat="46.0308850" lon="9.5012790">
	<ele>1752.00</ele>
	<time>2023-07-15T10:43:07.000Z</time>
</trkpt>
<trkpt lat="46.0309200" lon="9.5012060">
	<ele>1751.20</ele>
	<time>2023-07-15T10:43:12.000Z</time>
</trkpt>
<trkpt lat="46.0309450" lon="9.5011280">
	<ele>1750.20</ele>
	<time>2023-07-15T10:43:18.000Z</time>
</trkpt>
<trkpt lat="46.0309540" lon="9.5011180">
	<ele>1750.00</ele>
	<time>2023-07-15T10:43:19.000Z</time>
</trkpt>
<trkpt lat="46.0309580" lon="9.5011040">
	<ele>1749.80</ele>
	<time>2023-07-15T10:43:20.000Z</time>
</trkpt>
<trkpt lat="46.0309650" lon="9.5010930">
	<ele>1749.60</ele>
	<time>2023-07-15T10:43:21.000Z</time>
</trkpt>
<trkpt lat="46.0309700" lon="9.5010830">
	<ele>1749.20</ele>
	<time>2023-07-15T10:43:22.000Z</time>
</trkpt>
<trkpt lat="46.0309720" lon="9.5010710">
	<ele>1749.00</ele>
	<time>2023-07-15T10:43:23.000Z</time>
</trkpt>
<trkpt lat="46.0309860" lon="9.5010260">
	<ele>1748.00</ele>
	<time>2023-07-15T10:43:27.000Z</time>
</trkpt>
<trkpt lat="46.0309900" lon="9.5010180">
	<ele>1747.60</ele>
	<time>2023-07-15T10:43:28.000Z</time>
</trkpt>
<trkpt lat="46.0310180" lon="9.5009490">
	<ele>1746.40</ele>
	<time>2023-07-15T10:43:33.000Z</time>
</trkpt>
<trkpt lat="46.0310330" lon="9.5009160">
	<ele>1745.60</ele>
	<time>2023-07-15T10:43:36.000Z</time>
</trkpt>
<trkpt lat="46.0310370" lon="9.5009040">
	<ele>1745.40</ele>
	<time>2023-07-15T10:43:37.000Z</time>
</trkpt>
<trkpt lat="46.0310510" lon="9.5008660">
	<ele>1744.60</ele>
	<time>2023-07-15T10:43:40.000Z</time>
</trkpt>
<trkpt lat="46.0310540" lon="9.5008390">
	<ele>1744.20</ele>
	<time>2023-07-15T10:43:42.000Z</time>
</trkpt>
<trkpt lat="46.0310600" lon="9.5008120">
	<ele>1743.80</ele>
	<time>2023-07-15T10:43:44.000Z</time>
</trkpt>
<trkpt lat="46.0310640" lon="9.5007920">
	<ele>1743.20</ele>
	<time>2023-07-15T10:43:46.000Z</time>
</trkpt>
<trkpt lat="46.0310790" lon="9.5007280">
	<ele>1742.00</ele>
	<time>2023-07-15T10:43:51.000Z</time>
</trkpt>
<trkpt lat="46.0310830" lon="9.5006990">
	<ele>1741.40</ele>
	<time>2023-07-15T10:43:53.000Z</time>
</trkpt>
<trkpt lat="46.0310810" lon="9.5006670">
	<ele>1741.00</ele>
	<time>2023-07-15T10:43:55.000Z</time>
</trkpt>
<trkpt lat="46.0310830" lon="9.5006330">
	<ele>1740.40</ele>
	<time>2023-07-15T10:43:57.000Z</time>
</trkpt>
<trkpt lat="46.0310870" lon="9.5006130">
	<ele>1740.00</ele>
	<time>2023-07-15T10:43:59.000Z</time>
</trkpt>
<trkpt lat="46.0310880" lon="9.5006010">
	<ele>1739.80</ele>
	<time>2023-07-15T10:44:00.000Z</time>
</trkpt>
<trkpt lat="46.0311100" lon="9.5005530">
	<ele>1739.00</ele>
	<time>2023-07-15T10:44:04.000Z</time>
</trkpt>
<trkpt lat="46.0311160" lon="9.5005360">
	<ele>1738.60</ele>
	<time>2023-07-15T10:44:05.000Z</time>
</trkpt>
<trkpt lat="46.0311460" lon="9.5004760">
	<ele>1737.60</ele>
	<time>2023-07-15T10:44:10.000Z</time>
</trkpt>
<trkpt lat="46.0311610" lon="9.5004210">
	<ele>1737.00</ele>
	<time>2023-07-15T10:44:14.000Z</time>
</trkpt>
<trkpt lat="46.0311690" lon="9.5003940">
	<ele>1736.40</ele>
	<time>2023-07-15T10:44:16.000Z</time>
</trkpt>
<trkpt lat="46.0311810" lon="9.5003160">
	<ele>1735.20</ele>
	<time>2023-07-15T10:44:22.000Z</time>
</trkpt>
<trkpt lat="46.0311900" lon="9.5002550">
	<ele>1734.20</ele>
	<time>2023-07-15T10:44:26.000Z</time>
</trkpt>
<trkpt lat="46.0312060" lon="9.5002320">
	<ele>1734.00</ele>
	<time>2023-07-15T10:44:29.000Z</time>
</trkpt>
<trkpt lat="46.0312110" lon="9.5002120">
	<ele>1733.40</ele>
	<time>2023-07-15T10:44:31.000Z</time>
</trkpt>
<trkpt lat="46.0312170" lon="9.5001950">
	<ele>1733.00</ele>
	<time>2023-07-15T10:44:32.000Z</time>
</trkpt>
<trkpt lat="46.0312410" lon="9.5001280">
	<ele>1732.00</ele>
	<time>2023-07-15T10:44:37.000Z</time>
</trkpt>
<trkpt lat="46.0312430" lon="9.5001040">
	<ele>1731.40</ele>
	<time>2023-07-15T10:44:39.000Z</time>
</trkpt>
<trkpt lat="46.0312480" lon="9.5000930">
	<ele>1731.20</ele>
	<time>2023-07-15T10:44:40.000Z</time>
</trkpt>
<trkpt lat="46.0312550" lon="9.5000700">
	<ele>1731.00</ele>
	<time>2023-07-15T10:44:42.000Z</time>
</trkpt>
<trkpt lat="46.0312550" lon="9.5000570">
	<ele>1730.60</ele>
	<time>2023-07-15T10:44:43.000Z</time>
</trkpt>
<trkpt lat="46.0312580" lon="9.5000320">
	<ele>1729.80</ele>
	<time>2023-07-15T10:44:46.000Z</time>
</trkpt>
<trkpt lat="46.0312590" lon="9.5000280">
	<ele>1729.40</ele>
	<time>2023-07-15T10:44:49.000Z</time>
</trkpt>
<trkpt lat="46.0312570" lon="9.5000280">
	<ele>1729.80</ele>
	<time>2023-07-15T10:44:53.000Z</time>
</trkpt>
<trkpt lat="46.0312760" lon="9.5000150">
	<ele>1729.00</ele>
	<time>2023-07-15T10:44:59.000Z</time>
</trkpt>
<trkpt lat="46.0312730" lon="9.4999990">
	<ele>1728.80</ele>
	<time>2023-07-15T10:45:00.000Z</time>
</trkpt>
<trkpt lat="46.0312640" lon="9.4999770">
	<ele>1728.20</ele>
	<time>2023-07-15T10:45:04.000Z</time>
</trkpt>
<trkpt lat="46.0312660" lon="9.4999820">
	<ele>1727.80</ele>
	<time>2023-07-15T10:45:08.000Z</time>
</trkpt>
<trkpt lat="46.0312640" lon="9.4999820">
	<ele>1727.60</ele>
	<time>2023-07-15T10:45:10.000Z</time>
</trkpt>
<trkpt lat="46.0312740" lon="9.4999100">
	<ele>1727.20</ele>
	<time>2023-07-15T10:45:21.000Z</time>
</trkpt>
<trkpt lat="46.0312780" lon="9.4998720">
	<ele>1726.40</ele>
	<time>2023-07-15T10:45:23.000Z</time>
</trkpt>
<trkpt lat="46.0312680" lon="9.4997870">
	<ele>1725.80</ele>
	<time>2023-07-15T10:45:28.000Z</time>
</trkpt>
<trkpt lat="46.0312530" lon="9.4997350">
	<ele>1725.40</ele>
	<time>2023-07-15T10:45:31.000Z</time>
</trkpt>
<trkpt lat="46.0312530" lon="9.4997170">
	<ele>1725.40</ele>
	<time>2023-07-15T10:45:32.000Z</time>
</trkpt>
<trkpt lat="46.0312490" lon="9.4996640">
	<ele>1725.20</ele>
	<time>2023-07-15T10:45:35.000Z</time>
</trkpt>
<trkpt lat="46.0312610" lon="9.4996160">
	<ele>1725.00</ele>
	<time>2023-07-15T10:45:38.000Z</time>
</trkpt>
<trkpt lat="46.0312980" lon="9.4996210">
	<ele>1724.80</ele>
	<time>2023-07-15T10:45:41.000Z</time>
</trkpt>
<trkpt lat="46.0313570" lon="9.4996550">
	<ele>1724.40</ele>
	<time>2023-07-15T10:45:46.000Z</time>
</trkpt>
<trkpt lat="46.0314190" lon="9.4996810">
	<ele>1723.60</ele>
	<time>2023-07-15T10:45:52.000Z</time>
</trkpt>
<trkpt lat="46.0314420" lon="9.4996720">
	<ele>1723.20</ele>
	<time>2023-07-15T10:45:55.000Z</time>
</trkpt>
<trkpt lat="46.0314520" lon="9.4996690">
	<ele>1722.80</ele>
	<time>2023-07-15T10:45:57.000Z</time>
</trkpt>
<trkpt lat="46.0314610" lon="9.4996660">
	<ele>1722.80</ele>
	<time>2023-07-15T10:45:58.000Z</time>
</trkpt>
<trkpt lat="46.0314680" lon="9.4996590">
	<ele>1722.60</ele>
	<time>2023-07-15T10:45:59.000Z</time>
</trkpt>
<trkpt lat="46.0314940" lon="9.4996260">
	<ele>1722.20</ele>
	<time>2023-07-15T10:46:02.000Z</time>
</trkpt>
<trkpt lat="46.0315030" lon="9.4996070">
	<ele>1721.60</ele>
	<time>2023-07-15T10:46:04.000Z</time>
</trkpt>
<trkpt lat="46.0315120" lon="9.4995760">
	<ele>1721.00</ele>
	<time>2023-07-15T10:46:06.000Z</time>
</trkpt>
<trkpt lat="46.0315370" lon="9.4995490">
	<ele>1720.80</ele>
	<time>2023-07-15T10:46:09.000Z</time>
</trkpt>
<trkpt lat="46.0315540" lon="9.4995090">
	<ele>1720.00</ele>
	<time>2023-07-15T10:46:13.000Z</time>
</trkpt>
<trkpt lat="46.0315780" lon="9.4994620">
	<ele>1719.40</ele>
	<time>2023-07-15T10:46:18.000Z</time>
</trkpt>
<trkpt lat="46.0316050" lon="9.4994340">
	<ele>1719.00</ele>
	<time>2023-07-15T10:46:22.000Z</time>
</trkpt>
<trkpt lat="46.0316290" lon="9.4993930">
	<ele>1718.00</ele>
	<time>2023-07-15T10:46:27.000Z</time>
</trkpt>
<trkpt lat="46.0316340" lon="9.4993820">
	<ele>1717.60</ele>
	<time>2023-07-15T10:46:28.000Z</time>
</trkpt>
<trkpt lat="46.0316500" lon="9.4993450">
	<ele>1717.00</ele>
	<time>2023-07-15T10:46:31.000Z</time>
</trkpt>
<trkpt lat="46.0316860" lon="9.4993010">
	<ele>1715.80</ele>
	<time>2023-07-15T10:46:36.000Z</time>
</trkpt>
<trkpt lat="46.0316890" lon="9.4992840">
	<ele>1715.80</ele>
	<time>2023-07-15T10:46:37.000Z</time>
</trkpt>
<trkpt lat="46.0317230" lon="9.4991890">
	<ele>1714.80</ele>
	<time>2023-07-15T10:46:44.000Z</time>
</trkpt>
<trkpt lat="46.0317350" lon="9.4991620">
	<ele>1714.40</ele>
	<time>2023-07-15T10:46:46.000Z</time>
</trkpt>
<trkpt lat="46.0317630" lon="9.4991140">
	<ele>1714.00</ele>
	<time>2023-07-15T10:46:50.000Z</time>
</trkpt>
<trkpt lat="46.0317740" lon="9.4990950">
	<ele>1713.80</ele>
	<time>2023-07-15T10:46:52.000Z</time>
</trkpt>
<trkpt lat="46.0317800" lon="9.4990880">
	<ele>1713.80</ele>
	<time>2023-07-15T10:46:53.000Z</time>
</trkpt>
<trkpt lat="46.0317920" lon="9.4989820">
	<ele>1713.20</ele>
	<time>2023-07-15T10:47:00.000Z</time>
</trkpt>
<trkpt lat="46.0317930" lon="9.4988910">
	<ele>1712.60</ele>
	<time>2023-07-15T10:47:06.000Z</time>
</trkpt>
<trkpt lat="46.0317960" lon="9.4988770">
	<ele>1712.40</ele>
	<time>2023-07-15T10:47:07.000Z</time>
</trkpt>
<trkpt lat="46.0317940" lon="9.4988630">
	<ele>1712.40</ele>
	<time>2023-07-15T10:47:08.000Z</time>
</trkpt>
<trkpt lat="46.0318010" lon="9.4987940">
	<ele>1711.60</ele>
	<time>2023-07-15T10:47:12.000Z</time>
</trkpt>
<trkpt lat="46.0318100" lon="9.4987690">
	<ele>1711.40</ele>
	<time>2023-07-15T10:47:14.000Z</time>
</trkpt>
<trkpt lat="46.0318220" lon="9.4987350">
	<ele>1711.00</ele>
	<time>2023-07-15T10:47:17.000Z</time>
</trkpt>
<trkpt lat="46.0318330" lon="9.4986820">
	<ele>1710.60</ele>
	<time>2023-07-15T10:47:20.000Z</time>
</trkpt>
<trkpt lat="46.0318360" lon="9.4986650">
	<ele>1710.20</ele>
	<time>2023-07-15T10:47:21.000Z</time>
</trkpt>
<trkpt lat="46.0318410" lon="9.4986320">
	<ele>1709.80</ele>
	<time>2023-07-15T10:47:23.000Z</time>
</trkpt>
<trkpt lat="46.0318550" lon="9.4986050">
	<ele>1709.60</ele>
	<time>2023-07-15T10:47:25.000Z</time>
</trkpt>
<trkpt lat="46.0318710" lon="9.4985690">
	<ele>1709.60</ele>
	<time>2023-07-15T10:47:27.000Z</time>
</trkpt>
<trkpt lat="46.0318810" lon="9.4985550">
	<ele>1709.40</ele>
	<time>2023-07-15T10:47:28.000Z</time>
</trkpt>
<trkpt lat="46.0319180" lon="9.4984670">
	<ele>1708.80</ele>
	<time>2023-07-15T10:47:34.000Z</time>
</trkpt>
<trkpt lat="46.0319280" lon="9.4983950">
	<ele>1708.40</ele>
	<time>2023-07-15T10:47:38.000Z</time>
</trkpt>
<trkpt lat="46.0319580" lon="9.4983180">
	<ele>1707.80</ele>
	<time>2023-07-15T10:47:43.000Z</time>
</trkpt>
<trkpt lat="46.0320020" lon="9.4982400">
	<ele>1707.40</ele>
	<time>2023-07-15T10:47:50.000Z</time>
</trkpt>
<trkpt lat="46.0320150" lon="9.4982200">
	<ele>1707.20</ele>
	<time>2023-07-15T10:47:52.000Z</time>
</trkpt>
<trkpt lat="46.0320540" lon="9.4980930">
	<ele>1706.40</ele>
	<time>2023-07-15T10:48:00.000Z</time>
</trkpt>
<trkpt lat="46.0320770" lon="9.4980620">
	<ele>1706.40</ele>
	<time>2023-07-15T10:48:03.000Z</time>
</trkpt>
<trkpt lat="46.0321210" lon="9.4979900">
	<ele>1706.20</ele>
	<time>2023-07-15T10:48:09.000Z</time>
</trkpt>
<trkpt lat="46.0321770" lon="9.4979190">
	<ele>1705.40</ele>
	<time>2023-07-15T10:48:15.000Z</time>
</trkpt>
<trkpt lat="46.0321880" lon="9.4979000">
	<ele>1705.20</ele>
	<time>2023-07-15T10:48:16.000Z</time>
</trkpt>
<trkpt lat="46.0321900" lon="9.4978860">
	<ele>1705.20</ele>
	<time>2023-07-15T10:48:17.000Z</time>
</trkpt>
<trkpt lat="46.0322000" lon="9.4978560">
	<ele>1704.80</ele>
	<time>2023-07-15T10:48:19.000Z</time>
</trkpt>
<trkpt lat="46.0322410" lon="9.4978370">
	<ele>1704.40</ele>
	<time>2023-07-15T10:48:22.000Z</time>
</trkpt>
<trkpt lat="46.0322470" lon="9.4978230">
	<ele>1704.20</ele>
	<time>2023-07-15T10:48:23.000Z</time>
</trkpt>
<trkpt lat="46.0322690" lon="9.4977420">
	<ele>1702.80</ele>
	<time>2023-07-15T10:48:29.000Z</time>
</trkpt>
<trkpt lat="46.0322760" lon="9.4977150">
	<ele>1702.20</ele>
	<time>2023-07-15T10:48:31.000Z</time>
</trkpt>
<trkpt lat="46.0322840" lon="9.4976760">
	<ele>1701.80</ele>
	<time>2023-07-15T10:48:33.000Z</time>
</trkpt>
<trkpt lat="46.0323150" lon="9.4975930">
	<ele>1700.60</ele>
	<time>2023-07-15T10:48:39.000Z</time>
</trkpt>
<trkpt lat="46.0323640" lon="9.4975240">
	<ele>1699.20</ele>
	<time>2023-07-15T10:48:45.000Z</time>
</trkpt>
<trkpt lat="46.0323800" lon="9.4975080">
	<ele>1698.80</ele>
	<time>2023-07-15T10:48:47.000Z</time>
</trkpt>
<trkpt lat="46.0324030" lon="9.4974920">
	<ele>1697.80</ele>
	<time>2023-07-15T10:48:50.000Z</time>
</trkpt>
<trkpt lat="46.0324210" lon="9.4974640">
	<ele>1696.60</ele>
	<time>2023-07-15T10:48:54.000Z</time>
</trkpt>
<trkpt lat="46.0324300" lon="9.4974590">
	<ele>1696.40</ele>
	<time>2023-07-15T10:48:55.000Z</time>
</trkpt>
<trkpt lat="46.0324620" lon="9.4974510">
	<ele>1695.40</ele>
	<time>2023-07-15T10:48:59.000Z</time>
</trkpt>
<trkpt lat="46.0324750" lon="9.4974420">
	<ele>1695.20</ele>
	<time>2023-07-15T10:49:01.000Z</time>
</trkpt>
<trkpt lat="46.0324810" lon="9.4974390">
	<ele>1695.00</ele>
	<time>2023-07-15T10:49:02.000Z</time>
</trkpt>
<trkpt lat="46.0324990" lon="9.4974320">
	<ele>1694.00</ele>
	<time>2023-07-15T10:49:04.000Z</time>
</trkpt>
<trkpt lat="46.0325300" lon="9.4974200">
	<ele>1692.60</ele>
	<time>2023-07-15T10:49:07.000Z</time>
</trkpt>
<trkpt lat="46.0325430" lon="9.4974220">
	<ele>1692.40</ele>
	<time>2023-07-15T10:49:08.000Z</time>
</trkpt>
<trkpt lat="46.0325550" lon="9.4974190">
	<ele>1692.20</ele>
	<time>2023-07-15T10:49:09.000Z</time>
</trkpt>
<trkpt lat="46.0325680" lon="9.4974180">
	<ele>1692.00</ele>
	<time>2023-07-15T10:49:10.000Z</time>
</trkpt>
<trkpt lat="46.0325810" lon="9.4974060">
	<ele>1691.40</ele>
	<time>2023-07-15T10:49:12.000Z</time>
</trkpt>
<trkpt lat="46.0325940" lon="9.4973860">
	<ele>1691.00</ele>
	<time>2023-07-15T10:49:14.000Z</time>
</trkpt>
<trkpt lat="46.0326040" lon="9.4973630">
	<ele>1690.60</ele>
	<time>2023-07-15T10:49:16.000Z</time>
</trkpt>
<trkpt lat="46.0326110" lon="9.4973560">
	<ele>1690.20</ele>
	<time>2023-07-15T10:49:17.000Z</time>
</trkpt>
<trkpt lat="46.0326420" lon="9.4973290">
	<ele>1689.20</ele>
	<time>2023-07-15T10:49:21.000Z</time>
</trkpt>
<trkpt lat="46.0326640" lon="9.4972940">
	<ele>1688.40</ele>
	<time>2023-07-15T10:49:24.000Z</time>
</trkpt>
<trkpt lat="46.0326690" lon="9.4972760">
	<ele>1688.20</ele>
	<time>2023-07-15T10:49:25.000Z</time>
</trkpt>
<trkpt lat="46.0327020" lon="9.4972280">
	<ele>1687.60</ele>
	<time>2023-07-15T10:49:30.000Z</time>
</trkpt>
<trkpt lat="46.0327070" lon="9.4972050">
	<ele>1687.00</ele>
	<time>2023-07-15T10:49:32.000Z</time>
</trkpt>
<trkpt lat="46.0327080" lon="9.4971920">
	<ele>1686.40</ele>
	<time>2023-07-15T10:49:34.000Z</time>
</trkpt>
<trkpt lat="46.0327080" lon="9.4971860">
	<ele>1686.00</ele>
	<time>2023-07-15T10:49:35.000Z</time>
</trkpt>
<trkpt lat="46.0327160" lon="9.4971760">
	<ele>1685.80</ele>
	<time>2023-07-15T10:49:36.000Z</time>
</trkpt>
<trkpt lat="46.0327340" lon="9.4971670">
	<ele>1685.40</ele>
	<time>2023-07-15T10:49:38.000Z</time>
</trkpt>
<trkpt lat="46.0327530" lon="9.4971530">
	<ele>1685.00</ele>
	<time>2023-07-15T10:49:41.000Z</time>
</trkpt>
<trkpt lat="46.0327570" lon="9.4971440">
	<ele>1684.60</ele>
	<time>2023-07-15T10:49:42.000Z</time>
</trkpt>
<trkpt lat="46.0327730" lon="9.4971310">
	<ele>1683.80</ele>
	<time>2023-07-15T10:49:44.000Z</time>
</trkpt>
<trkpt lat="46.0327740" lon="9.4971220">
	<ele>1683.60</ele>
	<time>2023-07-15T10:49:45.000Z</time>
</trkpt>
<trkpt lat="46.0327940" lon="9.4970710">
	<ele>1682.00</ele>
	<time>2023-07-15T10:49:50.000Z</time>
</trkpt>
<trkpt lat="46.0327920" lon="9.4970590">
	<ele>1681.80</ele>
	<time>2023-07-15T10:49:51.000Z</time>
</trkpt>
<trkpt lat="46.0327940" lon="9.4970500">
	<ele>1681.60</ele>
	<time>2023-07-15T10:49:52.000Z</time>
</trkpt>
<trkpt lat="46.0328040" lon="9.4970240">
	<ele>1681.40</ele>
	<time>2023-07-15T10:49:54.000Z</time>
</trkpt>
<trkpt lat="46.0328210" lon="9.4970010">
	<ele>1681.00</ele>
	<time>2023-07-15T10:49:56.000Z</time>
</trkpt>
<trkpt lat="46.0328230" lon="9.4969710">
	<ele>1680.60</ele>
	<time>2023-07-15T10:49:58.000Z</time>
</trkpt>
<trkpt lat="46.0328280" lon="9.4969630">
	<ele>1680.40</ele>
	<time>2023-07-15T10:49:59.000Z</time>
</trkpt>
<trkpt lat="46.0328360" lon="9.4969200">
	<ele>1679.80</ele>
	<time>2023-07-15T10:50:03.000Z</time>
</trkpt>
<trkpt lat="46.0328670" lon="9.4968860">
	<ele>1678.60</ele>
	<time>2023-07-15T10:50:06.000Z</time>
</trkpt>
<trkpt lat="46.0329060" lon="9.4968600">
	<ele>1677.40</ele>
	<time>2023-07-15T10:50:11.000Z</time>
</trkpt>
<trkpt lat="46.0329310" lon="9.4968400">
	<ele>1676.80</ele>
	<time>2023-07-15T10:50:14.000Z</time>
</trkpt>
<trkpt lat="46.0329390" lon="9.4968320">
	<ele>1676.60</ele>
	<time>2023-07-15T10:50:15.000Z</time>
</trkpt>
<trkpt lat="46.0329490" lon="9.4968250">
	<ele>1676.40</ele>
	<time>2023-07-15T10:50:16.000Z</time>
</trkpt>
<trkpt lat="46.0329840" lon="9.4967940">
	<ele>1675.40</ele>
	<time>2023-07-15T10:50:20.000Z</time>
</trkpt>
<trkpt lat="46.0329950" lon="9.4967840">
	<ele>1675.20</ele>
	<time>2023-07-15T10:50:21.000Z</time>
</trkpt>
<trkpt lat="46.0330360" lon="9.4967490">
	<ele>1674.00</ele>
	<time>2023-07-15T10:50:25.000Z</time>
</trkpt>
<trkpt lat="46.0330610" lon="9.4967350">
	<ele>1673.40</ele>
	<time>2023-07-15T10:50:28.000Z</time>
</trkpt>
<trkpt lat="46.0330710" lon="9.4967120">
	<ele>1673.00</ele>
	<time>2023-07-15T10:50:30.000Z</time>
</trkpt>
<trkpt lat="46.0331200" lon="9.4966780">
	<ele>1671.80</ele>
	<time>2023-07-15T10:50:35.000Z</time>
</trkpt>
<trkpt lat="46.0331380" lon="9.4966390">
	<ele>1670.80</ele>
	<time>2023-07-15T10:50:39.000Z</time>
</trkpt>
<trkpt lat="46.0331560" lon="9.4966060">
	<ele>1670.00</ele>
	<time>2023-07-15T10:50:42.000Z</time>
</trkpt>
<trkpt lat="46.0331680" lon="9.4965950">
	<ele>1669.60</ele>
	<time>2023-07-15T10:50:44.000Z</time>
</trkpt>
<trkpt lat="46.0331860" lon="9.4965680">
	<ele>1668.60</ele>
	<time>2023-07-15T10:50:48.000Z</time>
</trkpt>
<trkpt lat="46.0331870" lon="9.4965590">
	<ele>1668.60</ele>
	<time>2023-07-15T10:50:49.000Z</time>
</trkpt>
<trkpt lat="46.0331990" lon="9.4965320">
	<ele>1668.20</ele>
	<time>2023-07-15T10:50:51.000Z</time>
</trkpt>
<trkpt lat="46.0332120" lon="9.4965320">
	<ele>1667.80</ele>
	<time>2023-07-15T10:50:53.000Z</time>
</trkpt>
<trkpt lat="46.0332290" lon="9.4965340">
	<ele>1667.20</ele>
	<time>2023-07-15T10:50:55.000Z</time>
</trkpt>
<trkpt lat="46.0332500" lon="9.4965450">
	<ele>1666.60</ele>
	<time>2023-07-15T10:50:57.000Z</time>
</trkpt>
<trkpt lat="46.0332590" lon="9.4965590">
	<ele>1666.40</ele>
	<time>2023-07-15T10:50:58.000Z</time>
</trkpt>
<trkpt lat="46.0332650" lon="9.4965710">
	<ele>1666.20</ele>
	<time>2023-07-15T10:50:59.000Z</time>
</trkpt>
<trkpt lat="46.0332650" lon="9.4965840">
	<ele>1666.00</ele>
	<time>2023-07-15T10:51:00.000Z</time>
</trkpt>
<trkpt lat="46.0332620" lon="9.4966130">
	<ele>1665.60</ele>
	<time>2023-07-15T10:51:02.000Z</time>
</trkpt>
<trkpt lat="46.0332690" lon="9.4966710">
	<ele>1665.00</ele>
	<time>2023-07-15T10:51:06.000Z</time>
</trkpt>
<trkpt lat="46.0332780" lon="9.4967220">
	<ele>1663.80</ele>
	<time>2023-07-15T10:51:10.000Z</time>
</trkpt>
<trkpt lat="46.0332850" lon="9.4967650">
	<ele>1662.80</ele>
	<time>2023-07-15T10:51:14.000Z</time>
</trkpt>
<trkpt lat="46.0332880" lon="9.4968100">
	<ele>1662.20</ele>
	<time>2023-07-15T10:51:17.000Z</time>
</trkpt>
<trkpt lat="46.0332840" lon="9.4968350">
	<ele>1661.60</ele>
	<time>2023-07-15T10:51:19.000Z</time>
</trkpt>
<trkpt lat="46.0332890" lon="9.4968650">
	<ele>1661.20</ele>
	<time>2023-07-15T10:51:21.000Z</time>
</trkpt>
<trkpt lat="46.0332860" lon="9.4968790">
	<ele>1661.00</ele>
	<time>2023-07-15T10:51:22.000Z</time>
</trkpt>
<trkpt lat="46.0332880" lon="9.4969040">
	<ele>1660.60</ele>
	<time>2023-07-15T10:51:24.000Z</time>
</trkpt>
<trkpt lat="46.0332930" lon="9.4969170">
	<ele>1660.40</ele>
	<time>2023-07-15T10:51:25.000Z</time>
</trkpt>
<trkpt lat="46.0333230" lon="9.4969460">
	<ele>1659.80</ele>
	<time>2023-07-15T10:51:28.000Z</time>
</trkpt>
<trkpt lat="46.0333380" lon="9.4969420">
	<ele>1659.00</ele>
	<time>2023-07-15T10:51:30.000Z</time>
</trkpt>
<trkpt lat="46.0333590" lon="9.4969430">
	<ele>1658.60</ele>
	<time>2023-07-15T10:51:32.000Z</time>
</trkpt>
<trkpt lat="46.0333710" lon="9.4969370">
	<ele>1658.60</ele>
	<time>2023-07-15T10:51:33.000Z</time>
</trkpt>
<trkpt lat="46.0334300" lon="9.4968920">
	<ele>1657.80</ele>
	<time>2023-07-15T10:51:38.000Z</time>
</trkpt>
<trkpt lat="46.0334540" lon="9.4968580">
	<ele>1657.20</ele>
	<time>2023-07-15T10:51:41.000Z</time>
</trkpt>
<trkpt lat="46.0334710" lon="9.4968260">
	<ele>1656.80</ele>
	<time>2023-07-15T10:51:43.000Z</time>
</trkpt>
<trkpt lat="46.0334850" lon="9.4967990">
	<ele>1656.20</ele>
	<time>2023-07-15T10:51:45.000Z</time>
</trkpt>
<trkpt lat="46.0335000" lon="9.4967750">
	<ele>1655.80</ele>
	<time>2023-07-15T10:51:47.000Z</time>
</trkpt>
<trkpt lat="46.0335590" lon="9.4966710">
	<ele>1654.60</ele>
	<time>2023-07-15T10:51:54.000Z</time>
</trkpt>
<trkpt lat="46.0335660" lon="9.4966590">
	<ele>1654.40</ele>
	<time>2023-07-15T10:51:55.000Z</time>
</trkpt>
<trkpt lat="46.0335950" lon="9.4966110">
	<ele>1653.60</ele>
	<time>2023-07-15T10:52:00.000Z</time>
</trkpt>
<trkpt lat="46.0336050" lon="9.4965750">
	<ele>1653.20</ele>
	<time>2023-07-15T10:52:02.000Z</time>
</trkpt>
<trkpt lat="46.0336310" lon="9.4965410">
	<ele>1652.40</ele>
	<time>2023-07-15T10:52:05.000Z</time>
</trkpt>
<trkpt lat="46.0336790" lon="9.4965160">
	<ele>1651.20</ele>
	<time>2023-07-15T10:52:10.000Z</time>
</trkpt>
<trkpt lat="46.0336890" lon="9.4965010">
	<ele>1651.20</ele>
	<time>2023-07-15T10:52:11.000Z</time>
</trkpt>
<trkpt lat="46.0337130" lon="9.4964560">
	<ele>1650.20</ele>
	<time>2023-07-15T10:52:15.000Z</time>
</trkpt>
<trkpt lat="46.0337320" lon="9.4963920">
	<ele>1649.20</ele>
	<time>2023-07-15T10:52:19.000Z</time>
</trkpt>
<trkpt lat="46.0337410" lon="9.4963810">
	<ele>1649.00</ele>
	<time>2023-07-15T10:52:20.000Z</time>
</trkpt>
<trkpt lat="46.0337590" lon="9.4963410">
	<ele>1647.80</ele>
	<time>2023-07-15T10:52:24.000Z</time>
</trkpt>
<trkpt lat="46.0337710" lon="9.4963240">
	<ele>1647.60</ele>
	<time>2023-07-15T10:52:26.000Z</time>
</trkpt>
<trkpt lat="46.0338040" lon="9.4962980">
	<ele>1646.60</ele>
	<time>2023-07-15T10:52:30.000Z</time>
</trkpt>
<trkpt lat="46.0338260" lon="9.4962850">
	<ele>1645.60</ele>
	<time>2023-07-15T10:52:33.000Z</time>
</trkpt>
<trkpt lat="46.0338340" lon="9.4962760">
	<ele>1645.40</ele>
	<time>2023-07-15T10:52:34.000Z</time>
</trkpt>
<trkpt lat="46.0338390" lon="9.4962650">
	<ele>1645.20</ele>
	<time>2023-07-15T10:52:35.000Z</time>
</trkpt>
<trkpt lat="46.0338590" lon="9.4962370">
	<ele>1644.40</ele>
	<time>2023-07-15T10:52:38.000Z</time>
</trkpt>
<trkpt lat="46.0338840" lon="9.4962330">
	<ele>1644.00</ele>
	<time>2023-07-15T10:52:41.000Z</time>
</trkpt>
<trkpt lat="46.0338930" lon="9.4962250">
	<ele>1643.80</ele>
	<time>2023-07-15T10:52:42.000Z</time>
</trkpt>
<trkpt lat="46.0339130" lon="9.4961870">
	<ele>1643.20</ele>
	<time>2023-07-15T10:52:45.000Z</time>
</trkpt>
<trkpt lat="46.0339190" lon="9.4961700">
	<ele>1642.80</ele>
	<time>2023-07-15T10:52:47.000Z</time>
</trkpt>
<trkpt lat="46.0339260" lon="9.4961600">
	<ele>1642.60</ele>
	<time>2023-07-15T10:52:48.000Z</time>
</trkpt>
<trkpt lat="46.0339400" lon="9.4961580">
	<ele>1642.40</ele>
	<time>2023-07-15T10:52:49.000Z</time>
</trkpt>
<trkpt lat="46.0339600" lon="9.4961750">
	<ele>1642.00</ele>
	<time>2023-07-15T10:52:51.000Z</time>
</trkpt>
<trkpt lat="46.0339770" lon="9.4962030">
	<ele>1641.40</ele>
	<time>2023-07-15T10:52:53.000Z</time>
</trkpt>
<trkpt lat="46.0339840" lon="9.4962220">
	<ele>1641.00</ele>
	<time>2023-07-15T10:52:55.000Z</time>
</trkpt>
<trkpt lat="46.0340340" lon="9.4962910">
	<ele>1640.20</ele>
	<time>2023-07-15T10:53:00.000Z</time>
</trkpt>
<trkpt lat="46.0340420" lon="9.4963020">
	<ele>1639.80</ele>
	<time>2023-07-15T10:53:01.000Z</time>
</trkpt>
<trkpt lat="46.0340890" lon="9.4963190">
	<ele>1638.80</ele>
	<time>2023-07-15T10:53:07.000Z</time>
</trkpt>
<trkpt lat="46.0341100" lon="9.4962990">
	<ele>1638.00</ele>
	<time>2023-07-15T10:53:11.000Z</time>
</trkpt>
<trkpt lat="46.0341270" lon="9.4962840">
	<ele>1637.60</ele>
	<time>2023-07-15T10:53:14.000Z</time>
</trkpt>
<trkpt lat="46.0341310" lon="9.4962750">
	<ele>1637.40</ele>
	<time>2023-07-15T10:53:15.000Z</time>
</trkpt>
<trkpt lat="46.0341350" lon="9.4962620">
	<ele>1637.20</ele>
	<time>2023-07-15T10:53:17.000Z</time>
</trkpt>
<trkpt lat="46.0341390" lon="9.4962550">
	<ele>1636.60</ele>
	<time>2023-07-15T10:53:19.000Z</time>
</trkpt>
<trkpt lat="46.0341400" lon="9.4962540">
	<ele>1636.40</ele>
	<time>2023-07-15T10:53:20.000Z</time>
</trkpt>
<trkpt lat="46.0341380" lon="9.4962520">
	<ele>1636.40</ele>
	<time>2023-07-15T10:53:21.000Z</time>
</trkpt>
<trkpt lat="46.0341750" lon="9.4962530">
	<ele>1636.00</ele>
	<time>2023-07-15T10:53:27.000Z</time>
</trkpt>
<trkpt lat="46.0341820" lon="9.4962470">
	<ele>1636.00</ele>
	<time>2023-07-15T10:53:28.000Z</time>
</trkpt>
<trkpt lat="46.0341820" lon="9.4962320">
	<ele>1635.80</ele>
	<time>2023-07-15T10:53:29.000Z</time>
</trkpt>
<trkpt lat="46.0341810" lon="9.4962070">
	<ele>1635.40</ele>
	<time>2023-07-15T10:53:31.000Z</time>
</trkpt>
<trkpt lat="46.0341920" lon="9.4962090">
	<ele>1635.40</ele>
	<time>2023-07-15T10:53:32.000Z</time>
</trkpt>
<trkpt lat="46.0342180" lon="9.4962140">
	<ele>1635.00</ele>
	<time>2023-07-15T10:53:34.000Z</time>
</trkpt>
<trkpt lat="46.0342430" lon="9.4962150">
	<ele>1634.40</ele>
	<time>2023-07-15T10:53:37.000Z</time>
</trkpt>
<trkpt lat="46.0342910" lon="9.4962080">
	<ele>1633.00</ele>
	<time>2023-07-15T10:53:44.000Z</time>
</trkpt>
<trkpt lat="46.0343140" lon="9.4962020">
	<ele>1632.00</ele>
	<time>2023-07-15T10:53:49.000Z</time>
</trkpt>
<trkpt lat="46.0343470" lon="9.4961900">
	<ele>1631.40</ele>
	<time>2023-07-15T10:53:53.000Z</time>
</trkpt>
<trkpt lat="46.0343750" lon="9.4961860">
	<ele>1630.80</ele>
	<time>2023-07-15T10:53:56.000Z</time>
</trkpt>
<trkpt lat="46.0344020" lon="9.4961750">
	<ele>1630.40</ele>
	<time>2023-07-15T10:53:59.000Z</time>
</trkpt>
<trkpt lat="46.0344110" lon="9.4961650">
	<ele>1629.80</ele>
	<time>2023-07-15T10:54:01.000Z</time>
</trkpt>
<trkpt lat="46.0344190" lon="9.4961590">
	<ele>1629.60</ele>
	<time>2023-07-15T10:54:02.000Z</time>
</trkpt>
<trkpt lat="46.0344230" lon="9.4961470">
	<ele>1629.60</ele>
	<time>2023-07-15T10:54:03.000Z</time>
</trkpt>
<trkpt lat="46.0344220" lon="9.4961310">
	<ele>1629.00</ele>
	<time>2023-07-15T10:54:05.000Z</time>
</trkpt>
<trkpt lat="46.0344370" lon="9.4961070">
	<ele>1628.60</ele>
	<time>2023-07-15T10:54:08.000Z</time>
</trkpt>
<trkpt lat="46.0344570" lon="9.4961030">
	<ele>1627.60</ele>
	<time>2023-07-15T10:54:11.000Z</time>
</trkpt>
<trkpt lat="46.0344600" lon="9.4961050">
	<ele>1627.60</ele>
	<time>2023-07-15T10:54:12.000Z</time>
</trkpt>
<trkpt lat="46.0344620" lon="9.4961090">
	<ele>1627.40</ele>
	<time>2023-07-15T10:54:13.000Z</time>
</trkpt>
<trkpt lat="46.0344740" lon="9.4961360">
	<ele>1626.60</ele>
	<time>2023-07-15T10:54:19.000Z</time>
</trkpt>
<trkpt lat="46.0344810" lon="9.4961410">
	<ele>1626.40</ele>
	<time>2023-07-15T10:54:26.000Z</time>
</trkpt>
<trkpt lat="46.0344810" lon="9.4961440">
	<ele>1626.20</ele>
	<time>2023-07-15T10:54:27.000Z</time>
</trkpt>
<trkpt lat="46.0344990" lon="9.4962360">
	<ele>1625.80</ele>
	<time>2023-07-15T10:54:34.000Z</time>
</trkpt>
<trkpt lat="46.0344990" lon="9.4962930">
	<ele>1626.00</ele>
	<time>2023-07-15T10:54:41.000Z</time>
</trkpt>
<trkpt lat="46.0345030" lon="9.4963020">
	<ele>1626.20</ele>
	<time>2023-07-15T10:54:49.000Z</time>
</trkpt>
<trkpt lat="46.0345110" lon="9.4963000">
	<ele>1626.20</ele>
	<time>2023-07-15T10:54:53.000Z</time>
</trkpt>
<trkpt lat="46.0345390" lon="9.4963440">
	<ele>1626.20</ele>
	<time>2023-07-15T10:54:57.000Z</time>
</trkpt>
<trkpt lat="46.0345350" lon="9.4963750">
	<ele>1626.80</ele>
	<time>2023-07-15T10:55:02.000Z</time>
</trkpt>
<trkpt lat="46.0345480" lon="9.4964240">
	<ele>1627.40</ele>
	<time>2023-07-15T10:55:06.000Z</time>
</trkpt>
<trkpt lat="46.0345540" lon="9.4964350">
	<ele>1627.40</ele>
	<time>2023-07-15T10:55:07.000Z</time>
</trkpt>
<trkpt lat="46.0345950" lon="9.4965130">
	<ele>1628.00</ele>
	<time>2023-07-15T10:55:12.000Z</time>
</trkpt>
<trkpt lat="46.0346150" lon="9.4965460">
	<ele>1628.20</ele>
	<time>2023-07-15T10:55:15.000Z</time>
</trkpt>
<trkpt lat="46.0346370" lon="9.4965740">
	<ele>1628.40</ele>
	<time>2023-07-15T10:55:17.000Z</time>
</trkpt>
<trkpt lat="46.0346600" lon="9.4966000">
	<ele>1628.40</ele>
	<time>2023-07-15T10:55:19.000Z</time>
</trkpt>
<trkpt lat="46.0346680" lon="9.4966110">
	<ele>1628.40</ele>
	<time>2023-07-15T10:55:20.000Z</time>
</trkpt>
<trkpt lat="46.0346780" lon="9.4966260">
	<ele>1628.60</ele>
	<time>2023-07-15T10:55:22.000Z</time>
</trkpt>
<trkpt lat="46.0346890" lon="9.4966610">
	<ele>1629.20</ele>
	<time>2023-07-15T10:55:25.000Z</time>
</trkpt>
<trkpt lat="46.0346980" lon="9.4966710">
	<ele>1629.20</ele>
	<time>2023-07-15T10:55:26.000Z</time>
</trkpt>
<trkpt lat="46.0347230" lon="9.4967040">
	<ele>1629.60</ele>
	<time>2023-07-15T10:55:29.000Z</time>
</trkpt>
<trkpt lat="46.0347430" lon="9.4967720">
	<ele>1630.40</ele>
	<time>2023-07-15T10:55:34.000Z</time>
</trkpt>
<trkpt lat="46.0347440" lon="9.4967790">
	<ele>1630.60</ele>
	<time>2023-07-15T10:55:35.000Z</time>
</trkpt>
<trkpt lat="46.0347460" lon="9.4967930">
	<ele>1630.80</ele>
	<time>2023-07-15T10:55:36.000Z</time>
</trkpt>
<trkpt lat="46.0347510" lon="9.4968150">
	<ele>1631.00</ele>
	<time>2023-07-15T10:55:38.000Z</time>
</trkpt>
<trkpt lat="46.0347560" lon="9.4968910">
	<ele>1631.80</ele>
	<time>2023-07-15T10:55:43.000Z</time>
</trkpt>
<trkpt lat="46.0347580" lon="9.4969360">
	<ele>1632.20</ele>
	<time>2023-07-15T10:55:46.000Z</time>
</trkpt>
<trkpt lat="46.0347430" lon="9.4969820">
	<ele>1632.80</ele>
	<time>2023-07-15T10:55:49.000Z</time>
</trkpt>
<trkpt lat="46.0347370" lon="9.4969930">
	<ele>1632.80</ele>
	<time>2023-07-15T10:55:50.000Z</time>
</trkpt>
<trkpt lat="46.0347220" lon="9.4970160">
	<ele>1633.00</ele>
	<time>2023-07-15T10:55:52.000Z</time>
</trkpt>
<trkpt lat="46.0346880" lon="9.4971200">
	<ele>1634.00</ele>
	<time>2023-07-15T10:55:59.000Z</time>
</trkpt>
<trkpt lat="46.0346730" lon="9.4971500">
	<ele>1634.40</ele>
	<time>2023-07-15T10:56:01.000Z</time>
</trkpt>
<trkpt lat="46.0346490" lon="9.4972150">
	<ele>1635.00</ele>
	<time>2023-07-15T10:56:05.000Z</time>
</trkpt>
<trkpt lat="46.0346020" lon="9.4972920">
	<ele>1635.60</ele>
	<time>2023-07-15T10:56:11.000Z</time>
</trkpt>
<trkpt lat="46.0345920" lon="9.4973030">
	<ele>1635.80</ele>
	<time>2023-07-15T10:56:12.000Z</time>
</trkpt>
<trkpt lat="46.0345870" lon="9.4973160">
	<ele>1636.00</ele>
	<time>2023-07-15T10:56:13.000Z</time>
</trkpt>
<trkpt lat="46.0345620" lon="9.4973520">
	<ele>1636.40</ele>
	<time>2023-07-15T10:56:16.000Z</time>
</trkpt>
<trkpt lat="46.0345170" lon="9.4974000">
	<ele>1637.00</ele>
	<time>2023-07-15T10:56:21.000Z</time>
</trkpt>
<trkpt lat="46.0344690" lon="9.4974560">
	<ele>1637.80</ele>
	<time>2023-07-15T10:56:26.000Z</time>
</trkpt>
<trkpt lat="46.0344550" lon="9.4974950">
	<ele>1638.20</ele>
	<time>2023-07-15T10:56:29.000Z</time>
</trkpt>
<trkpt lat="46.0343970" lon="9.4975550">
	<ele>1638.80</ele>
	<time>2023-07-15T10:56:35.000Z</time>
</trkpt>
<trkpt lat="46.0343170" lon="9.4976640">
	<ele>1638.60</ele>
	<time>2023-07-15T10:56:44.000Z</time>
</trkpt>
<trkpt lat="46.0342480" lon="9.4977720">
	<ele>1638.40</ele>
	<time>2023-07-15T10:56:52.000Z</time>
</trkpt>
<trkpt lat="46.0341920" lon="9.4978790">
	<ele>1638.40</ele>
	<time>2023-07-15T10:57:00.000Z</time>
</trkpt>
<trkpt lat="46.0341500" lon="9.4980640">
	<ele>1637.80</ele>
	<time>2023-07-15T10:57:12.000Z</time>
</trkpt>
<trkpt lat="46.0341440" lon="9.4981160">
	<ele>1637.80</ele>
	<time>2023-07-15T10:57:15.000Z</time>
</trkpt>
<trkpt lat="46.0341420" lon="9.4981680">
	<ele>1638.00</ele>
	<time>2023-07-15T10:57:18.000Z</time>
</trkpt>
<trkpt lat="46.0341530" lon="9.4982200">
	<ele>1638.20</ele>
	<time>2023-07-15T10:57:21.000Z</time>
</trkpt>
<trkpt lat="46.0341450" lon="9.4983890">
	<ele>1639.00</ele>
	<time>2023-07-15T10:57:31.000Z</time>
</trkpt>
<trkpt lat="46.0341360" lon="9.4985100">
	<ele>1639.00</ele>
	<time>2023-07-15T10:57:39.000Z</time>
</trkpt>
<trkpt lat="46.0341400" lon="9.4985640">
	<ele>1639.20</ele>
	<time>2023-07-15T10:57:42.000Z</time>
</trkpt>
<trkpt lat="46.0341710" lon="9.4986540">
	<ele>1640.20</ele>
	<time>2023-07-15T10:57:49.000Z</time>
</trkpt>
<trkpt lat="46.0341770" lon="9.4986660">
	<ele>1640.20</ele>
	<time>2023-07-15T10:57:50.000Z</time>
</trkpt>
<trkpt lat="46.0342330" lon="9.4987530">
	<ele>1641.20</ele>
	<time>2023-07-15T10:57:58.000Z</time>
</trkpt>
<trkpt lat="46.0342810" lon="9.4988200">
	<ele>1642.20</ele>
	<time>2023-07-15T10:58:04.000Z</time>
</trkpt>
<trkpt lat="46.0342890" lon="9.4988290">
	<ele>1642.40</ele>
	<time>2023-07-15T10:58:05.000Z</time>
</trkpt>
<trkpt lat="46.0343180" lon="9.4988540">
	<ele>1642.60</ele>
	<time>2023-07-15T10:58:08.000Z</time>
</trkpt>
<trkpt lat="46.0343300" lon="9.4988740">
	<ele>1643.00</ele>
	<time>2023-07-15T10:58:10.000Z</time>
</trkpt>
<trkpt lat="46.0343530" lon="9.4988970">
	<ele>1643.60</ele>
	<time>2023-07-15T10:58:12.000Z</time>
</trkpt>
<trkpt lat="46.0344150" lon="9.4989600">
	<ele>1644.40</ele>
	<time>2023-07-15T10:58:19.000Z</time>
</trkpt>
<trkpt lat="46.0344210" lon="9.4989720">
	<ele>1644.60</ele>
	<time>2023-07-15T10:58:20.000Z</time>
</trkpt>
<trkpt lat="46.0344370" lon="9.4990150">
	<ele>1645.60</ele>
	<time>2023-07-15T10:58:24.000Z</time>
</trkpt>
<trkpt lat="46.0344460" lon="9.4990340">
	<ele>1646.00</ele>
	<time>2023-07-15T10:58:26.000Z</time>
</trkpt>
<trkpt lat="46.0344650" lon="9.4990800">
	<ele>1646.60</ele>
	<time>2023-07-15T10:58:31.000Z</time>
</trkpt>
<trkpt lat="46.0344750" lon="9.4991000">
	<ele>1647.00</ele>
	<time>2023-07-15T10:58:33.000Z</time>
</trkpt>
<trkpt lat="46.0344970" lon="9.4991280">
	<ele>1647.80</ele>
	<time>2023-07-15T10:58:37.000Z</time>
</trkpt>
<trkpt lat="46.0345340" lon="9.4991870">
	<ele>1649.00</ele>
	<time>2023-07-15T10:58:44.000Z</time>
</trkpt>
<trkpt lat="46.0345340" lon="9.4991960">
	<ele>1649.00</ele>
	<time>2023-07-15T10:58:45.000Z</time>
</trkpt>
<trkpt lat="46.0345330" lon="9.4992030">
	<ele>1649.00</ele>
	<time>2023-07-15T10:58:47.000Z</time>
</trkpt>
<trkpt lat="46.0345330" lon="9.4992030">
	<ele>1649.00</ele>
	<time>2023-07-15T10:58:49.000Z</time>
</trkpt>
<trkpt lat="46.0345260" lon="9.4992030">
	<ele>1649.00</ele>
	<time>2023-07-15T10:58:50.000Z</time>
</trkpt>
<trkpt lat="46.0345090" lon="9.4991960">
	<ele>1648.80</ele>
	<time>2023-07-15T10:58:59.000Z</time>
</trkpt>
<trkpt lat="46.0344990" lon="9.4991900">
	<ele>1649.60</ele>
	<time>2023-07-15T10:59:16.000Z</time>
</trkpt>
<trkpt lat="46.0344980" lon="9.4991900">
	<ele>1649.80</ele>
	<time>2023-07-15T10:59:17.000Z</time>
</trkpt>
<trkpt lat="46.0344920" lon="9.4991850">
	<ele>1650.00</ele>
	<time>2023-07-15T10:59:22.000Z</time>
</trkpt>
<trkpt lat="46.0344880" lon="9.4991670">
	<ele>1649.80</ele>
	<time>2023-07-15T10:59:30.000Z</time>
</trkpt>
<trkpt lat="46.0344880" lon="9.4991670">
	<ele>1649.40</ele>
	<time>2023-07-15T10:59:33.000Z</time>
</trkpt>
<trkpt lat="46.0345200" lon="9.4991880">
	<ele>1649.20</ele>
	<time>2023-07-15T10:59:38.000Z</time>
</trkpt>
<trkpt lat="46.0345340" lon="9.4992070">
	<ele>1649.20</ele>
	<time>2023-07-15T10:59:39.000Z</time>
</trkpt>
<trkpt lat="46.0345500" lon="9.4992300">
	<ele>1649.20</ele>
	<time>2023-07-15T10:59:41.000Z</time>
</trkpt>
<trkpt lat="46.0345870" lon="9.4992920">
	<ele>1649.20</ele>
	<time>2023-07-15T10:59:47.000Z</time>
</trkpt>
<trkpt lat="46.0345850" lon="9.4993180">
	<ele>1649.80</ele>
	<time>2023-07-15T10:59:50.000Z</time>
</trkpt>
<trkpt lat="46.0345870" lon="9.4993370">
	<ele>1650.20</ele>
	<time>2023-07-15T10:59:52.000Z</time>
</trkpt>
<trkpt lat="46.0345820" lon="9.4993550">
	<ele>1650.40</ele>
	<time>2023-07-15T10:59:54.000Z</time>
</trkpt>
<trkpt lat="46.0345770" lon="9.4993630">
	<ele>1650.20</ele>
	<time>2023-07-15T10:59:56.000Z</time>
</trkpt>
<trkpt lat="46.0345850" lon="9.4994030">
	<ele>1650.40</ele>
	<time>2023-07-15T11:00:02.000Z</time>
</trkpt>
<trkpt lat="46.0345880" lon="9.4994050">
	<ele>1650.40</ele>
	<time>2023-07-15T11:00:10.000Z</time>
</trkpt>
<trkpt lat="46.0345860" lon="9.4994040">
	<ele>1650.60</ele>
	<time>2023-07-15T11:00:21.000Z</time>
</trkpt>
<trkpt lat="46.0345820" lon="9.4993980">
	<ele>1650.20</ele>
	<time>2023-07-15T11:00:32.000Z</time>
</trkpt>
<trkpt lat="46.0345820" lon="9.4993970">
	<ele>1650.20</ele>
	<time>2023-07-15T11:00:34.000Z</time>
</trkpt>
<trkpt lat="46.0345800" lon="9.4993960">
	<ele>1650.40</ele>
	<time>2023-07-15T11:00:40.000Z</time>
</trkpt>
<trkpt lat="46.0345800" lon="9.4993960">
	<ele>1650.40</ele>
	<time>2023-07-15T11:00:41.000Z</time>
</trkpt>
<trkpt lat="46.0345790" lon="9.4993960">
	<ele>1650.40</ele>
	<time>2023-07-15T11:00:43.000Z</time>
</trkpt>
<trkpt lat="46.0345780" lon="9.4993960">
	<ele>1650.40</ele>
	<time>2023-07-15T11:00:50.000Z</time>
</trkpt>
<trkpt lat="46.0345780" lon="9.4993950">
	<ele>1650.40</ele>
	<time>2023-07-15T11:00:53.000Z</time>
</trkpt>
<trkpt lat="46.0346010" lon="9.4993930">
	<ele>1650.40</ele>
	<time>2023-07-15T11:01:00.000Z</time>
</trkpt>
<trkpt lat="46.0346140" lon="9.4994020">
	<ele>1650.40</ele>
	<time>2023-07-15T11:01:01.000Z</time>
</trkpt>
<trkpt lat="46.0346160" lon="9.4994100">
	<ele>1650.40</ele>
	<time>2023-07-15T11:01:04.000Z</time>
</trkpt>
<trkpt lat="46.0346240" lon="9.4993760">
	<ele>1650.40</ele>
	<time>2023-07-15T11:01:07.000Z</time>
</trkpt>
<trkpt lat="46.0346310" lon="9.4993860">
	<ele>1650.40</ele>
	<time>2023-07-15T11:01:10.000Z</time>
</trkpt>
<trkpt lat="46.0346360" lon="9.4993850">
	<ele>1650.00</ele>
	<time>2023-07-15T11:01:15.000Z</time>
</trkpt>
<trkpt lat="46.0346430" lon="9.4993850">
	<ele>1650.00</ele>
	<time>2023-07-15T11:01:33.000Z</time>
</trkpt>
<trkpt lat="46.0346500" lon="9.4993850">
	<ele>1650.00</ele>
	<time>2023-07-15T11:01:34.000Z</time>
</trkpt>
<trkpt lat="46.0346510" lon="9.4993850">
	<ele>1650.00</ele>
	<time>2023-07-15T11:01:35.000Z</time>
</trkpt>
<trkpt lat="46.0346570" lon="9.4993850">
	<ele>1649.80</ele>
	<time>2023-07-15T11:01:37.000Z</time>
</trkpt>
<trkpt lat="46.0346590" lon="9.4993860">
	<ele>1649.80</ele>
	<time>2023-07-15T11:01:38.000Z</time>
</trkpt>
<trkpt lat="46.0346680" lon="9.4993860">
	<ele>1650.00</ele>
	<time>2023-07-15T11:01:39.000Z</time>
</trkpt>
<trkpt lat="46.0346750" lon="9.4993890">
	<ele>1650.00</ele>
	<time>2023-07-15T11:01:41.000Z</time>
</trkpt>
<trkpt lat="46.0346770" lon="9.4993930">
	<ele>1650.00</ele>
	<time>2023-07-15T11:01:44.000Z</time>
</trkpt>
<trkpt lat="46.0346850" lon="9.4994110">
	<ele>1650.40</ele>
	<time>2023-07-15T11:02:12.000Z</time>
</trkpt>
<trkpt lat="46.0346850" lon="9.4994120">
	<ele>1650.20</ele>
	<time>2023-07-15T11:02:21.000Z</time>
</trkpt>
<trkpt lat="46.0346840" lon="9.4994110">
	<ele>1650.00</ele>
	<time>2023-07-15T11:02:30.000Z</time>
</trkpt>
<trkpt lat="46.0346780" lon="9.4993840">
	<ele>1650.20</ele>
	<time>2023-07-15T11:02:40.000Z</time>
</trkpt>
<trkpt lat="46.0346770" lon="9.4993770">
	<ele>1650.00</ele>
	<time>2023-07-15T11:02:52.000Z</time>
</trkpt>
<trkpt lat="46.0346790" lon="9.4993830">
	<ele>1649.80</ele>
	<time>2023-07-15T11:03:11.000Z</time>
</trkpt>
<trkpt lat="46.0346760" lon="9.4993810">
	<ele>1650.20</ele>
	<time>2023-07-15T11:03:26.000Z</time>
</trkpt>
<trkpt lat="46.0346760" lon="9.4993800">
	<ele>1650.20</ele>
	<time>2023-07-15T11:03:31.000Z</time>
</trkpt>
<trkpt lat="46.0346770" lon="9.4993800">
	<ele>1650.20</ele>
	<time>2023-07-15T11:03:35.000Z</time>
</trkpt>
<trkpt lat="46.0346790" lon="9.4993890">
	<ele>1650.20</ele>
	<time>2023-07-15T11:03:48.000Z</time>
</trkpt>
<trkpt lat="46.0346790" lon="9.4993890">
	<ele>1650.20</ele>
	<time>2023-07-15T11:03:54.000Z</time>
</trkpt>
<trkpt lat="46.0346770" lon="9.4993900">
	<ele>1650.20</ele>
	<time>2023-07-15T11:04:03.000Z</time>
</trkpt>
<trkpt lat="46.0346760" lon="9.4993900">
	<ele>1650.20</ele>
	<time>2023-07-15T11:04:07.000Z</time>
</trkpt>
<trkpt lat="46.0346790" lon="9.4993930">
	<ele>1650.20</ele>
	<time>2023-07-15T11:04:24.000Z</time>
</trkpt>
<trkpt lat="46.0346810" lon="9.4994000">
	<ele>1650.20</ele>
	<time>2023-07-15T11:04:35.000Z</time>
</trkpt>
<trkpt lat="46.0347030" lon="9.4993790">
	<ele>1650.20</ele>
	<time>2023-07-15T11:04:39.000Z</time>
</trkpt>
<trkpt lat="46.0347020" lon="9.4993720">
	<ele>1650.20</ele>
	<time>2023-07-15T11:04:46.000Z</time>
</trkpt>
<trkpt lat="46.0347000" lon="9.4994270">
	<ele>1650.20</ele>
	<time>2023-07-15T11:04:50.000Z</time>
</trkpt>
<trkpt lat="46.0346640" lon="9.4994140">
	<ele>1650.20</ele>
	<time>2023-07-15T11:04:54.000Z</time>
</trkpt>
<trkpt lat="46.0345910" lon="9.4993440">
	<ele>1650.20</ele>
	<time>2023-07-15T11:05:01.000Z</time>
</trkpt>
<trkpt lat="46.0345140" lon="9.4993250">
	<ele>1650.20</ele>
	<time>2023-07-15T11:05:06.000Z</time>
</trkpt>
<trkpt lat="46.0345080" lon="9.4993380">
	<ele>1650.20</ele>
	<time>2023-07-15T11:05:07.000Z</time>
</trkpt>
<trkpt lat="46.0345080" lon="9.4994020">
	<ele>1648.60</ele>
	<time>2023-07-15T11:05:11.000Z</time>
</trkpt>
<trkpt lat="46.0344980" lon="9.4993960">
	<ele>1648.00</ele>
	<time>2023-07-15T11:05:12.000Z</time>
</trkpt>
<trkpt lat="46.0344950" lon="9.4993980">
	<ele>1647.60</ele>
	<time>2023-07-15T11:05:13.000Z</time>
</trkpt>
<trkpt lat="46.0344940" lon="9.4993970">
	<ele>1647.20</ele>
	<time>2023-07-15T11:05:14.000Z</time>
</trkpt>
<trkpt lat="46.0345240" lon="9.4994340">
	<ele>1647.20</ele>
	<time>2023-07-15T11:05:16.000Z</time>
</trkpt>
<trkpt lat="46.0345900" lon="9.4993330">
	<ele>1647.60</ele>
	<time>2023-07-15T11:07:10.000Z</time>
</trkpt>
<trkpt lat="46.0346000" lon="9.4993010">
	<ele>1647.60</ele>
	<time>2023-07-15T11:07:13.000Z</time>
</trkpt>
<trkpt lat="46.0346310" lon="9.4993070">
	<ele>1648.80</ele>
	<time>2023-07-15T11:07:18.000Z</time>
</trkpt>
<trkpt lat="46.0346350" lon="9.4993170">
	<ele>1649.20</ele>
	<time>2023-07-15T11:07:19.000Z</time>
</trkpt>
<trkpt lat="46.0346880" lon="9.4993780">
	<ele>1649.60</ele>
	<time>2023-07-15T11:07:25.000Z</time>
</trkpt>
<trkpt lat="46.0346880" lon="9.4993870">
	<ele>1649.80</ele>
	<time>2023-07-15T11:07:27.000Z</time>
</trkpt>
<trkpt lat="46.0346910" lon="9.4993990">
	<ele>1649.80</ele>
	<time>2023-07-15T11:07:28.000Z</time>
</trkpt>
<trkpt lat="46.0346930" lon="9.4994290">
	<ele>1649.80</ele>
	<time>2023-07-15T11:07:31.000Z</time>
</trkpt>
<trkpt lat="46.0346970" lon="9.4994310">
	<ele>1649.80</ele>
	<time>2023-07-15T11:07:33.000Z</time>
</trkpt>
<trkpt lat="46.0347050" lon="9.4994140">
	<ele>1649.60</ele>
	<time>2023-07-15T11:07:37.000Z</time>
</trkpt>
<trkpt lat="46.0346900" lon="9.4994060">
	<ele>1649.60</ele>
	<time>2023-07-15T11:07:39.000Z</time>
</trkpt>
<trkpt lat="46.0346660" lon="9.4993750">
	<ele>1650.00</ele>
	<time>2023-07-15T11:07:46.000Z</time>
</trkpt>
<trkpt lat="46.0346250" lon="9.4994250">
	<ele>1649.80</ele>
	<time>2023-07-15T11:07:54.000Z</time>
</trkpt>
<trkpt lat="46.0346380" lon="9.4993860">
	<ele>1649.80</ele>
	<time>2023-07-15T11:08:01.000Z</time>
</trkpt>
<trkpt lat="46.0346500" lon="9.4993820">
	<ele>1649.60</ele>
	<time>2023-07-15T11:08:09.000Z</time>
</trkpt>
<trkpt lat="46.0346490" lon="9.4993820">
	<ele>1649.80</ele>
	<time>2023-07-15T11:08:18.000Z</time>
</trkpt>
<trkpt lat="46.0346470" lon="9.4993820">
	<ele>1649.80</ele>
	<time>2023-07-15T11:08:24.000Z</time>
</trkpt>
<trkpt lat="46.0346460" lon="9.4993830">
	<ele>1649.80</ele>
	<time>2023-07-15T11:08:28.000Z</time>
</trkpt>
<trkpt lat="46.0346460" lon="9.4993830">
	<ele>1649.80</ele>
	<time>2023-07-15T11:08:31.000Z</time>
</trkpt>
<trkpt lat="46.0346460" lon="9.4993830">
	<ele>1649.80</ele>
	<time>2023-07-15T11:08:32.000Z</time>
</trkpt>
<trkpt lat="46.0346440" lon="9.4993830">
	<ele>1649.80</ele>
	<time>2023-07-15T11:08:33.000Z</time>
</trkpt>
<trkpt lat="46.0346420" lon="9.4993840">
	<ele>1649.80</ele>
	<time>2023-07-15T11:08:36.000Z</time>
</trkpt>
<trkpt lat="46.0346420" lon="9.4993850">
	<ele>1650.00</ele>
	<time>2023-07-15T11:08:37.000Z</time>
</trkpt>
<trkpt lat="46.0346420" lon="9.4993900">
	<ele>1650.00</ele>
	<time>2023-07-15T11:08:39.000Z</time>
</trkpt>
<trkpt lat="46.0346420" lon="9.4993900">
	<ele>1649.80</ele>
	<time>2023-07-15T11:08:40.000Z</time>
</trkpt>
<trkpt lat="46.0346420" lon="9.4993900">
	<ele>1650.00</ele>
	<time>2023-07-15T11:08:43.000Z</time>
</trkpt>
<trkpt lat="46.0346490" lon="9.4993700">
	<ele>1650.00</ele>
	<time>2023-07-15T11:09:35.000Z</time>
</trkpt>
<trkpt lat="46.0346470" lon="9.4993700">
	<ele>1650.00</ele>
	<time>2023-07-15T11:09:41.000Z</time>
</trkpt>
<trkpt lat="46.0346470" lon="9.4993680">
	<ele>1650.00</ele>
	<time>2023-07-15T11:09:45.000Z</time>
</trkpt>
<trkpt lat="46.0346430" lon="9.4993670">
	<ele>1650.00</ele>
	<time>2023-07-15T11:09:54.000Z</time>
</trkpt>
<trkpt lat="46.0346280" lon="9.4993660">
	<ele>1650.00</ele>
	<time>2023-07-15T11:10:02.000Z</time>
</trkpt>
<trkpt lat="46.0346310" lon="9.4993720">
	<ele>1650.00</ele>
	<time>2023-07-15T11:10:15.000Z</time>
</trkpt>
<trkpt lat="46.0346250" lon="9.4993870">
	<ele>1650.00</ele>
	<time>2023-07-15T11:10:25.000Z</time>
</trkpt>
<trkpt lat="46.0346110" lon="9.4993950">
	<ele>1650.00</ele>
	<time>2023-07-15T11:10:31.000Z</time>
</trkpt>
<trkpt lat="46.0346080" lon="9.4993960">
	<ele>1650.00</ele>
	<time>2023-07-15T11:10:37.000Z</time>
</trkpt>
<trkpt lat="46.0346080" lon="9.4993960">
	<ele>1650.00</ele>
	<time>2023-07-15T11:10:40.000Z</time>
</trkpt>
<trkpt lat="46.0346080" lon="9.4993960">
	<ele>1650.00</ele>
	<time>2023-07-15T11:10:42.000Z</time>
</trkpt>
<trkpt lat="46.0346670" lon="9.4994320">
	<ele>1650.00</ele>
	<time>2023-07-15T11:11:09.000Z</time>
</trkpt>
<trkpt lat="46.0346670" lon="9.4994320">
	<ele>1650.00</ele>
	<time>2023-07-15T11:11:14.000Z</time>
</trkpt>
<trkpt lat="46.0346670" lon="9.4994320">
	<ele>1650.00</ele>
	<time>2023-07-15T11:11:16.000Z</time>
</trkpt>
<trkpt lat="46.0346660" lon="9.4993990">
	<ele>1650.00</ele>
	<time>2023-07-15T11:11:31.000Z</time>
</trkpt>
<trkpt lat="46.0346740" lon="9.4993590">
	<ele>1650.00</ele>
	<time>2023-07-15T11:11:46.000Z</time>
</trkpt>
<trkpt lat="46.0346730" lon="9.4993520">
	<ele>1650.00</ele>
	<time>2023-07-15T11:11:54.000Z</time>
</trkpt>
<trkpt lat="46.0346710" lon="9.4993510">
	<ele>1650.00</ele>
	<time>2023-07-15T11:11:59.000Z</time>
</trkpt>
<trkpt lat="46.0346650" lon="9.4993560">
	<ele>1650.00</ele>
	<time>2023-07-15T11:12:12.000Z</time>
</trkpt>
<trkpt lat="46.0346650" lon="9.4993860">
	<ele>1650.00</ele>
	<time>2023-07-15T11:12:37.000Z</time>
</trkpt>
<trkpt lat="46.0346670" lon="9.4993890">
	<ele>1650.00</ele>
	<time>2023-07-15T11:12:56.000Z</time>
</trkpt>
<trkpt lat="46.0346660" lon="9.4994000">
	<ele>1650.00</ele>
	<time>2023-07-15T11:13:14.000Z</time>
</trkpt>
<trkpt lat="46.0346660" lon="9.4994030">
	<ele>1650.00</ele>
	<time>2023-07-15T11:13:16.000Z</time>
</trkpt>
<trkpt lat="46.0346610" lon="9.4994080">
	<ele>1650.00</ele>
	<time>2023-07-15T11:13:31.000Z</time>
</trkpt>
<trkpt lat="46.0346610" lon="9.4994080">
	<ele>1650.00</ele>
	<time>2023-07-15T11:13:33.000Z</time>
</trkpt>
<trkpt lat="46.0346550" lon="9.4994070">
	<ele>1650.00</ele>
	<time>2023-07-15T11:13:50.000Z</time>
</trkpt>
<trkpt lat="46.0346550" lon="9.4994070">
	<ele>1650.00</ele>
	<time>2023-07-15T11:13:53.000Z</time>
</trkpt>
<trkpt lat="46.0346540" lon="9.4994070">
	<ele>1650.00</ele>
	<time>2023-07-15T11:14:00.000Z</time>
</trkpt>
<trkpt lat="46.0346540" lon="9.4994060">
	<ele>1650.00</ele>
	<time>2023-07-15T11:14:28.000Z</time>
</trkpt>
<trkpt lat="46.0346540" lon="9.4994060">
	<ele>1650.00</ele>
	<time>2023-07-15T11:14:53.000Z</time>
</trkpt>
<trkpt lat="46.0346960" lon="9.4994470">
	<ele>1650.00</ele>
	<time>2023-07-15T11:15:16.000Z</time>
</trkpt>
<trkpt lat="46.0347220" lon="9.4994560">
	<ele>1650.00</ele>
	<time>2023-07-15T11:15:21.000Z</time>
</trkpt>
<trkpt lat="46.0347260" lon="9.4993670">
	<ele>1650.00</ele>
	<time>2023-07-15T11:15:25.000Z</time>
</trkpt>
<trkpt lat="46.0347020" lon="9.4994020">
	<ele>1650.00</ele>
	<time>2023-07-15T11:15:30.000Z</time>
</trkpt>
<trkpt lat="46.0346830" lon="9.4994470">
	<ele>1650.00</ele>
	<time>2023-07-15T11:15:36.000Z</time>
</trkpt>
<trkpt lat="46.0346610" lon="9.4994130">
	<ele>1650.00</ele>
	<time>2023-07-15T11:15:42.000Z</time>
</trkpt>
<trkpt lat="46.0346530" lon="9.4994090">
	<ele>1650.00</ele>
	<time>2023-07-15T11:15:47.000Z</time>
</trkpt>
<trkpt lat="46.0346520" lon="9.4994120">
	<ele>1650.00</ele>
	<time>2023-07-15T11:15:59.000Z</time>
</trkpt>
<trkpt lat="46.0346410" lon="9.4993990">
	<ele>1650.00</ele>
	<time>2023-07-15T11:16:12.000Z</time>
</trkpt>
<trkpt lat="46.0346250" lon="9.4993690">
	<ele>1650.00</ele>
	<time>2023-07-15T11:16:28.000Z</time>
</trkpt>
<trkpt lat="46.0346230" lon="9.4993790">
	<ele>1650.00</ele>
	<time>2023-07-15T11:16:44.000Z</time>
</trkpt>
<trkpt lat="46.0346230" lon="9.4993820">
	<ele>1650.00</ele>
	<time>2023-07-15T11:16:46.000Z</time>
</trkpt>
<trkpt lat="46.0345750" lon="9.4992820">
	<ele>1650.00</ele>
	<time>2023-07-15T11:17:18.000Z</time>
</trkpt>
<trkpt lat="46.0345380" lon="9.4991940">
	<ele>1650.00</ele>
	<time>2023-07-15T11:17:22.000Z</time>
</trkpt>
<trkpt lat="46.0344830" lon="9.4991210">
	<ele>1649.40</ele>
	<time>2023-07-15T11:17:28.000Z</time>
</trkpt>
<trkpt lat="46.0344510" lon="9.4990760">
	<ele>1648.80</ele>
	<time>2023-07-15T11:17:33.000Z</time>
</trkpt>
<trkpt lat="46.0344350" lon="9.4990510">
	<ele>1648.00</ele>
	<time>2023-07-15T11:17:37.000Z</time>
</trkpt>
<trkpt lat="46.0344200" lon="9.4990190">
	<ele>1647.80</ele>
	<time>2023-07-15T11:17:40.000Z</time>
</trkpt>
<trkpt lat="46.0343880" lon="9.4989690">
	<ele>1646.80</ele>
	<time>2023-07-15T11:17:46.000Z</time>
</trkpt>
<trkpt lat="46.0343890" lon="9.4989540">
	<ele>1646.60</ele>
	<time>2023-07-15T11:17:47.000Z</time>
</trkpt>
<trkpt lat="46.0343670" lon="9.4989120">
	<ele>1645.60</ele>
	<time>2023-07-15T11:17:52.000Z</time>
</trkpt>
<trkpt lat="46.0343440" lon="9.4988940">
	<ele>1644.80</ele>
	<time>2023-07-15T11:17:56.000Z</time>
</trkpt>
<trkpt lat="46.0343370" lon="9.4988850">
	<ele>1644.60</ele>
	<time>2023-07-15T11:18:00.000Z</time>
</trkpt>
<trkpt lat="46.0343360" lon="9.4988830">
	<ele>1644.40</ele>
	<time>2023-07-15T11:18:01.000Z</time>
</trkpt>
<trkpt lat="46.0343330" lon="9.4988820">
	<ele>1644.40</ele>
	<time>2023-07-15T11:18:02.000Z</time>
</trkpt>
<trkpt lat="46.0343330" lon="9.4988850">
	<ele>1644.40</ele>
	<time>2023-07-15T11:18:03.000Z</time>
</trkpt>
<trkpt lat="46.0343290" lon="9.4988920">
	<ele>1644.20</ele>
	<time>2023-07-15T11:18:09.000Z</time>
</trkpt>
<trkpt lat="46.0343000" lon="9.4988420">
	<ele>1644.00</ele>
	<time>2023-07-15T11:18:16.000Z</time>
</trkpt>
<trkpt lat="46.0343060" lon="9.4988620">
	<ele>1643.40</ele>
	<time>2023-07-15T11:18:19.000Z</time>
</trkpt>
<trkpt lat="46.0343070" lon="9.4988630">
	<ele>1643.40</ele>
	<time>2023-07-15T11:18:21.000Z</time>
</trkpt>
<trkpt lat="46.0343030" lon="9.4988540">
	<ele>1643.20</ele>
	<time>2023-07-15T11:18:25.000Z</time>
</trkpt>
<trkpt lat="46.0343030" lon="9.4988540">
	<ele>1643.40</ele>
	<time>2023-07-15T11:18:29.000Z</time>
</trkpt>
<trkpt lat="46.0342690" lon="9.4988220">
	<ele>1643.00</ele>
	<time>2023-07-15T11:18:46.000Z</time>
</trkpt>
<trkpt lat="46.0342300" lon="9.4987670">
	<ele>1642.80</ele>
	<time>2023-07-15T11:18:50.000Z</time>
</trkpt>
<trkpt lat="46.0342120" lon="9.4987480">
	<ele>1642.60</ele>
	<time>2023-07-15T11:18:52.000Z</time>
</trkpt>
<trkpt lat="46.0342020" lon="9.4987340">
	<ele>1642.40</ele>
	<time>2023-07-15T11:18:53.000Z</time>
</trkpt>
<trkpt lat="46.0341530" lon="9.4986540">
	<ele>1641.40</ele>
	<time>2023-07-15T11:18:59.000Z</time>
</trkpt>
<trkpt lat="46.0341510" lon="9.4986360">
	<ele>1641.20</ele>
	<time>2023-07-15T11:19:00.000Z</time>
</trkpt>
<trkpt lat="46.0341170" lon="9.4985340">
	<ele>1640.20</ele>
	<time>2023-07-15T11:19:07.000Z</time>
</trkpt>
<trkpt lat="46.0341210" lon="9.4985230">
	<ele>1639.80</ele>
	<time>2023-07-15T11:19:08.000Z</time>
</trkpt>
<trkpt lat="46.0341330" lon="9.4983870">
	<ele>1638.80</ele>
	<time>2023-07-15T11:19:15.000Z</time>
</trkpt>
<trkpt lat="46.0341390" lon="9.4982780">
	<ele>1638.80</ele>
	<time>2023-07-15T11:19:22.000Z</time>
</trkpt>
<trkpt lat="46.0341560" lon="9.4981860">
	<ele>1638.60</ele>
	<time>2023-07-15T11:19:27.000Z</time>
</trkpt>
<trkpt lat="46.0341640" lon="9.4981500">
	<ele>1638.20</ele>
	<time>2023-07-15T11:19:29.000Z</time>
</trkpt>
<trkpt lat="46.0341710" lon="9.4979950">
	<ele>1638.00</ele>
	<time>2023-07-15T11:19:37.000Z</time>
</trkpt>
<trkpt lat="46.0342030" lon="9.4978600">
	<ele>1638.00</ele>
	<time>2023-07-15T11:19:45.000Z</time>
</trkpt>
<trkpt lat="46.0342100" lon="9.4978320">
	<ele>1638.20</ele>
	<time>2023-07-15T11:19:47.000Z</time>
</trkpt>
<trkpt lat="46.0342530" lon="9.4977350">
	<ele>1638.60</ele>
	<time>2023-07-15T11:19:54.000Z</time>
</trkpt>
<trkpt lat="46.0342680" lon="9.4977250">
	<ele>1638.40</ele>
	<time>2023-07-15T11:19:56.000Z</time>
</trkpt>
<trkpt lat="46.0343090" lon="9.4977100">
	<ele>1638.40</ele>
	<time>2023-07-15T11:19:59.000Z</time>
</trkpt>
<trkpt lat="46.0343720" lon="9.4976340">
	<ele>1638.20</ele>
	<time>2023-07-15T11:20:06.000Z</time>
</trkpt>
<trkpt lat="46.0344320" lon="9.4975250">
	<ele>1639.00</ele>
	<time>2023-07-15T11:20:14.000Z</time>
</trkpt>
<trkpt lat="46.0344430" lon="9.4974900">
	<ele>1639.00</ele>
	<time>2023-07-15T11:20:16.000Z</time>
</trkpt>
<trkpt lat="46.0344790" lon="9.4974020">
	<ele>1638.20</ele>
	<time>2023-07-15T11:20:23.000Z</time>
</trkpt>
<trkpt lat="46.0345250" lon="9.4973210">
	<ele>1637.80</ele>
	<time>2023-07-15T11:20:30.000Z</time>
</trkpt>
<trkpt lat="46.0345290" lon="9.4973030">
	<ele>1637.60</ele>
	<time>2023-07-15T11:20:31.000Z</time>
</trkpt>
<trkpt lat="46.0345760" lon="9.4972390">
	<ele>1636.60</ele>
	<time>2023-07-15T11:20:37.000Z</time>
</trkpt>
<trkpt lat="46.0345880" lon="9.4972090">
	<ele>1636.40</ele>
	<time>2023-07-15T11:20:39.000Z</time>
</trkpt>
<trkpt lat="46.0346300" lon="9.4971350">
	<ele>1635.60</ele>
	<time>2023-07-15T11:20:45.000Z</time>
</trkpt>
<trkpt lat="46.0346350" lon="9.4971220">
	<ele>1635.40</ele>
	<time>2023-07-15T11:20:46.000Z</time>
</trkpt>
<trkpt lat="46.0346730" lon="9.4970520">
	<ele>1634.60</ele>
	<time>2023-07-15T11:20:51.000Z</time>
</trkpt>
<trkpt lat="46.0347030" lon="9.4970120">
	<ele>1634.00</ele>
	<time>2023-07-15T11:20:55.000Z</time>
</trkpt>
<trkpt lat="46.0347060" lon="9.4969990">
	<ele>1633.80</ele>
	<time>2023-07-15T11:20:56.000Z</time>
</trkpt>
<trkpt lat="46.0347150" lon="9.4969630">
	<ele>1633.40</ele>
	<time>2023-07-15T11:20:59.000Z</time>
</trkpt>
<trkpt lat="46.0347250" lon="9.4969380">
	<ele>1633.00</ele>
	<time>2023-07-15T11:21:02.000Z</time>
</trkpt>
<trkpt lat="46.0347260" lon="9.4968890">
	<ele>1632.40</ele>
	<time>2023-07-15T11:21:05.000Z</time>
</trkpt>
<trkpt lat="46.0347270" lon="9.4968780">
	<ele>1632.20</ele>
	<time>2023-07-15T11:21:07.000Z</time>
</trkpt>
<trkpt lat="46.0347260" lon="9.4968780">
	<ele>1632.40</ele>
	<time>2023-07-15T11:21:10.000Z</time>
</trkpt>
<trkpt lat="46.0347240" lon="9.4968740">
	<ele>1632.60</ele>
	<time>2023-07-15T11:21:14.000Z</time>
</trkpt>
<trkpt lat="46.0347170" lon="9.4968510">
	<ele>1632.60</ele>
	<time>2023-07-15T11:21:16.000Z</time>
</trkpt>
<trkpt lat="46.0347060" lon="9.4967920">
	<ele>1632.00</ele>
	<time>2023-07-15T11:21:21.000Z</time>
</trkpt>
<trkpt lat="46.0346890" lon="9.4967720">
	<ele>1631.40</ele>
	<time>2023-07-15T11:21:23.000Z</time>
</trkpt>
<trkpt lat="46.0346600" lon="9.4967220">
	<ele>1630.60</ele>
	<time>2023-07-15T11:21:26.000Z</time>
</trkpt>
<trkpt lat="46.0346360" lon="9.4966880">
	<ele>1630.20</ele>
	<time>2023-07-15T11:21:29.000Z</time>
</trkpt>
<trkpt lat="46.0345880" lon="9.4966070">
	<ele>1629.20</ele>
	<time>2023-07-15T11:21:34.000Z</time>
</trkpt>
<trkpt lat="46.0345780" lon="9.4965850">
	<ele>1629.00</ele>
	<time>2023-07-15T11:21:35.000Z</time>
</trkpt>
<trkpt lat="46.0345650" lon="9.4965440">
	<ele>1628.80</ele>
	<time>2023-07-15T11:21:37.000Z</time>
</trkpt>
<trkpt lat="46.0345200" lon="9.4964350">
	<ele>1628.20</ele>
	<time>2023-07-15T11:21:46.000Z</time>
</trkpt>
<trkpt lat="46.0345160" lon="9.4964320">
	<ele>1628.00</ele>
	<time>2023-07-15T11:21:47.000Z</time>
</trkpt>
<trkpt lat="46.0345130" lon="9.4964290">
	<ele>1628.00</ele>
	<time>2023-07-15T11:21:48.000Z</time>
</trkpt>
<trkpt lat="46.0345090" lon="9.4964160">
	<ele>1627.80</ele>
	<time>2023-07-15T11:21:49.000Z</time>
</trkpt>
<trkpt lat="46.0345020" lon="9.4963770">
	<ele>1627.40</ele>
	<time>2023-07-15T11:21:51.000Z</time>
</trkpt>
<trkpt lat="46.0344960" lon="9.4963620">
	<ele>1627.20</ele>
	<time>2023-07-15T11:21:52.000Z</time>
</trkpt>
<trkpt lat="46.0344870" lon="9.4963300">
	<ele>1627.00</ele>
	<time>2023-07-15T11:21:54.000Z</time>
</trkpt>
<trkpt lat="46.0344850" lon="9.4963130">
	<ele>1626.80</ele>
	<time>2023-07-15T11:21:55.000Z</time>
</trkpt>
<trkpt lat="46.0344860" lon="9.4963020">
	<ele>1626.80</ele>
	<time>2023-07-15T11:21:56.000Z</time>
</trkpt>
<trkpt lat="46.0344860" lon="9.4962860">
	<ele>1626.80</ele>
	<time>2023-07-15T11:21:57.000Z</time>
</trkpt>
<trkpt lat="46.0344950" lon="9.4962670">
	<ele>1626.80</ele>
	<time>2023-07-15T11:21:59.000Z</time>
</trkpt>
<trkpt lat="46.0345140" lon="9.4962720">
	<ele>1626.60</ele>
	<time>2023-07-15T11:22:01.000Z</time>
</trkpt>
<trkpt lat="46.0345220" lon="9.4962690">
	<ele>1626.40</ele>
	<time>2023-07-15T11:22:02.000Z</time>
</trkpt>
<trkpt lat="46.0345450" lon="9.4962700">
	<ele>1626.00</ele>
	<time>2023-07-15T11:22:04.000Z</time>
</trkpt>
<trkpt lat="46.0345550" lon="9.4962680">
	<ele>1625.80</ele>
	<time>2023-07-15T11:22:05.000Z</time>
</trkpt>
<trkpt lat="46.0345910" lon="9.4962390">
	<ele>1624.80</ele>
	<time>2023-07-15T11:22:11.000Z</time>
</trkpt>
<trkpt lat="46.0345990" lon="9.4962380">
	<ele>1624.60</ele>
	<time>2023-07-15T11:22:12.000Z</time>
</trkpt>
<trkpt lat="46.0346240" lon="9.4962080">
	<ele>1624.00</ele>
	<time>2023-07-15T11:22:15.000Z</time>
</trkpt>
<trkpt lat="46.0346230" lon="9.4961710">
	<ele>1623.80</ele>
	<time>2023-07-15T11:22:18.000Z</time>
</trkpt>
<trkpt lat="46.0346330" lon="9.4961330">
	<ele>1623.60</ele>
	<time>2023-07-15T11:22:20.000Z</time>
</trkpt>
<trkpt lat="46.0346540" lon="9.4960690">
	<ele>1622.80</ele>
	<time>2023-07-15T11:22:25.000Z</time>
</trkpt>
<trkpt lat="46.0346590" lon="9.4960480">
	<ele>1622.60</ele>
	<time>2023-07-15T11:22:26.000Z</time>
</trkpt>
<trkpt lat="46.0346730" lon="9.4960060">
	<ele>1622.00</ele>
	<time>2023-07-15T11:22:29.000Z</time>
</trkpt>
<trkpt lat="46.0346810" lon="9.4959810">
	<ele>1621.40</ele>
	<time>2023-07-15T11:22:31.000Z</time>
</trkpt>
<trkpt lat="46.0346840" lon="9.4959690">
	<ele>1621.20</ele>
	<time>2023-07-15T11:22:32.000Z</time>
</trkpt>
<trkpt lat="46.0346920" lon="9.4959200">
	<ele>1620.40</ele>
	<time>2023-07-15T11:22:36.000Z</time>
</trkpt>
<trkpt lat="46.0347090" lon="9.4958670">
	<ele>1619.60</ele>
	<time>2023-07-15T11:22:40.000Z</time>
</trkpt>
<trkpt lat="46.0347090" lon="9.4958540">
	<ele>1619.60</ele>
	<time>2023-07-15T11:22:41.000Z</time>
</trkpt>
<trkpt lat="46.0347160" lon="9.4958110">
	<ele>1619.20</ele>
	<time>2023-07-15T11:22:43.000Z</time>
</trkpt>
<trkpt lat="46.0347480" lon="9.4957540">
	<ele>1618.60</ele>
	<time>2023-07-15T11:22:47.000Z</time>
</trkpt>
<trkpt lat="46.0347690" lon="9.4957150">
	<ele>1618.20</ele>
	<time>2023-07-15T11:22:50.000Z</time>
</trkpt>
<trkpt lat="46.0348120" lon="9.4956410">
	<ele>1617.20</ele>
	<time>2023-07-15T11:22:56.000Z</time>
</trkpt>
<trkpt lat="46.0348190" lon="9.4956250">
	<ele>1617.00</ele>
	<time>2023-07-15T11:22:57.000Z</time>
</trkpt>
<trkpt lat="46.0348650" lon="9.4955380">
	<ele>1616.20</ele>
	<time>2023-07-15T11:23:04.000Z</time>
</trkpt>
<trkpt lat="46.0348760" lon="9.4955330">
	<ele>1615.80</ele>
	<time>2023-07-15T11:23:05.000Z</time>
</trkpt>
<trkpt lat="46.0349730" lon="9.4954640">
	<ele>1615.00</ele>
	<time>2023-07-15T11:23:14.000Z</time>
</trkpt>
<trkpt lat="46.0349820" lon="9.4954480">
	<ele>1614.80</ele>
	<time>2023-07-15T11:23:15.000Z</time>
</trkpt>
<trkpt lat="46.0350420" lon="9.4953850">
	<ele>1614.20</ele>
	<time>2023-07-15T11:23:21.000Z</time>
</trkpt>
<trkpt lat="46.0350620" lon="9.4953520">
	<ele>1613.60</ele>
	<time>2023-07-15T11:23:24.000Z</time>
</trkpt>
<trkpt lat="46.0351120" lon="9.4953240">
	<ele>1613.20</ele>
	<time>2023-07-15T11:23:29.000Z</time>
</trkpt>
<trkpt lat="46.0351260" lon="9.4953240">
	<ele>1613.00</ele>
	<time>2023-07-15T11:23:30.000Z</time>
</trkpt>
<trkpt lat="46.0351640" lon="9.4953020">
	<ele>1612.60</ele>
	<time>2023-07-15T11:23:33.000Z</time>
</trkpt>
<trkpt lat="46.0351830" lon="9.4952900">
	<ele>1612.20</ele>
	<time>2023-07-15T11:23:35.000Z</time>
</trkpt>
<trkpt lat="46.0351880" lon="9.4952770">
	<ele>1612.20</ele>
	<time>2023-07-15T11:23:36.000Z</time>
</trkpt>
<trkpt lat="46.0352320" lon="9.4952360">
	<ele>1611.80</ele>
	<time>2023-07-15T11:23:41.000Z</time>
</trkpt>
<trkpt lat="46.0352410" lon="9.4952220">
	<ele>1611.60</ele>
	<time>2023-07-15T11:23:42.000Z</time>
</trkpt>
<trkpt lat="46.0352520" lon="9.4952120">
	<ele>1611.40</ele>
	<time>2023-07-15T11:23:43.000Z</time>
</trkpt>
<trkpt lat="46.0353070" lon="9.4951290">
	<ele>1610.80</ele>
	<time>2023-07-15T11:23:50.000Z</time>
</trkpt>
<trkpt lat="46.0353470" lon="9.4950840">
	<ele>1610.40</ele>
	<time>2023-07-15T11:23:54.000Z</time>
</trkpt>
<trkpt lat="46.0353850" lon="9.4950490">
	<ele>1609.80</ele>
	<time>2023-07-15T11:23:58.000Z</time>
</trkpt>
<trkpt lat="46.0354270" lon="9.4950360">
	<ele>1609.20</ele>
	<time>2023-07-15T11:24:01.000Z</time>
</trkpt>
<trkpt lat="46.0354680" lon="9.4950080">
	<ele>1609.00</ele>
	<time>2023-07-15T11:24:05.000Z</time>
</trkpt>
<trkpt lat="46.0355180" lon="9.4949520">
	<ele>1608.40</ele>
	<time>2023-07-15T11:24:11.000Z</time>
</trkpt>
<trkpt lat="46.0355280" lon="9.4949460">
	<ele>1608.20</ele>
	<time>2023-07-15T11:24:12.000Z</time>
</trkpt>
<trkpt lat="46.0355430" lon="9.4949320">
	<ele>1608.00</ele>
	<time>2023-07-15T11:24:13.000Z</time>
</trkpt>
<trkpt lat="46.0356350" lon="9.4948470">
	<ele>1607.40</ele>
	<time>2023-07-15T11:24:23.000Z</time>
</trkpt>
<trkpt lat="46.0356430" lon="9.4947790">
	<ele>1607.00</ele>
	<time>2023-07-15T11:24:27.000Z</time>
</trkpt>
<trkpt lat="46.0356650" lon="9.4947280">
	<ele>1606.60</ele>
	<time>2023-07-15T11:24:31.000Z</time>
</trkpt>
<trkpt lat="46.0356900" lon="9.4946420">
	<ele>1606.00</ele>
	<time>2023-07-15T11:24:37.000Z</time>
</trkpt>
<trkpt lat="46.0357030" lon="9.4946110">
	<ele>1606.00</ele>
	<time>2023-07-15T11:24:39.000Z</time>
</trkpt>
<trkpt lat="46.0357660" lon="9.4944890">
	<ele>1605.60</ele>
	<time>2023-07-15T11:24:49.000Z</time>
</trkpt>
<trkpt lat="46.0357960" lon="9.4944090">
	<ele>1605.00</ele>
	<time>2023-07-15T11:24:54.000Z</time>
</trkpt>
<trkpt lat="46.0358110" lon="9.4943230">
	<ele>1604.40</ele>
	<time>2023-07-15T11:24:59.000Z</time>
</trkpt>
<trkpt lat="46.0358400" lon="9.4942520">
	<ele>1603.80</ele>
	<time>2023-07-15T11:25:03.000Z</time>
</trkpt>
<trkpt lat="46.0358720" lon="9.4941800">
	<ele>1603.20</ele>
	<time>2023-07-15T11:25:10.000Z</time>
</trkpt>
<trkpt lat="46.0358590" lon="9.4941470">
	<ele>1602.80</ele>
	<time>2023-07-15T11:25:12.000Z</time>
</trkpt>
<trkpt lat="46.0358790" lon="9.4940900">
	<ele>1602.00</ele>
	<time>2023-07-15T11:25:17.000Z</time>
</trkpt>
<trkpt lat="46.0358940" lon="9.4940070">
	<ele>1601.80</ele>
	<time>2023-07-15T11:25:22.000Z</time>
</trkpt>
<trkpt lat="46.0359010" lon="9.4939950">
	<ele>1601.60</ele>
	<time>2023-07-15T11:25:23.000Z</time>
</trkpt>
<trkpt lat="46.0359110" lon="9.4939870">
	<ele>1601.60</ele>
	<time>2023-07-15T11:25:24.000Z</time>
</trkpt>
<trkpt lat="46.0359210" lon="9.4939420">
	<ele>1601.20</ele>
	<time>2023-07-15T11:25:27.000Z</time>
</trkpt>
<trkpt lat="46.0359450" lon="9.4938730">
	<ele>1601.20</ele>
	<time>2023-07-15T11:25:32.000Z</time>
</trkpt>
<trkpt lat="46.0359520" lon="9.4938330">
	<ele>1600.80</ele>
	<time>2023-07-15T11:25:34.000Z</time>
</trkpt>
<trkpt lat="46.0359570" lon="9.4937600">
	<ele>1599.80</ele>
	<time>2023-07-15T11:25:39.000Z</time>
</trkpt>
<trkpt lat="46.0359580" lon="9.4937450">
	<ele>1599.40</ele>
	<time>2023-07-15T11:25:40.000Z</time>
</trkpt>
<trkpt lat="46.0359700" lon="9.4936750">
	<ele>1598.20</ele>
	<time>2023-07-15T11:25:46.000Z</time>
</trkpt>
<trkpt lat="46.0359720" lon="9.4936500">
	<ele>1598.00</ele>
	<time>2023-07-15T11:25:47.000Z</time>
</trkpt>
<trkpt lat="46.0359670" lon="9.4935710">
	<ele>1597.40</ele>
	<time>2023-07-15T11:25:50.000Z</time>
</trkpt>
<trkpt lat="46.0359710" lon="9.4935670">
	<ele>1597.20</ele>
	<time>2023-07-15T11:25:51.000Z</time>
</trkpt>
<trkpt lat="46.0359680" lon="9.4934670">
	<ele>1596.60</ele>
	<time>2023-07-15T11:25:56.000Z</time>
</trkpt>
<trkpt lat="46.0359580" lon="9.4934170">
	<ele>1596.20</ele>
	<time>2023-07-15T11:25:59.000Z</time>
</trkpt>
<trkpt lat="46.0359630" lon="9.4933560">
	<ele>1595.80</ele>
	<time>2023-07-15T11:26:03.000Z</time>
</trkpt>
<trkpt lat="46.0359580" lon="9.4933400">
	<ele>1595.60</ele>
	<time>2023-07-15T11:26:04.000Z</time>
</trkpt>
<trkpt lat="46.0359540" lon="9.4932800">
	<ele>1595.00</ele>
	<time>2023-07-15T11:26:08.000Z</time>
</trkpt>
<trkpt lat="46.0359570" lon="9.4932630">
	<ele>1594.80</ele>
	<time>2023-07-15T11:26:09.000Z</time>
</trkpt>
<trkpt lat="46.0359670" lon="9.4931680">
	<ele>1593.80</ele>
	<time>2023-07-15T11:26:16.000Z</time>
</trkpt>
<trkpt lat="46.0359750" lon="9.4931490">
	<ele>1593.40</ele>
	<time>2023-07-15T11:26:18.000Z</time>
</trkpt>
<trkpt lat="46.0359930" lon="9.4931120">
	<ele>1592.60</ele>
	<time>2023-07-15T11:26:21.000Z</time>
</trkpt>
<trkpt lat="46.0360120" lon="9.4930680">
	<ele>1592.00</ele>
	<time>2023-07-15T11:26:25.000Z</time>
</trkpt>
<trkpt lat="46.0360160" lon="9.4930400">
	<ele>1591.60</ele>
	<time>2023-07-15T11:26:27.000Z</time>
</trkpt>
<trkpt lat="46.0360280" lon="9.4929650">
	<ele>1590.80</ele>
	<time>2023-07-15T11:26:32.000Z</time>
</trkpt>
<trkpt lat="46.0360470" lon="9.4929370">
	<ele>1590.40</ele>
	<time>2023-07-15T11:26:34.000Z</time>
</trkpt>
<trkpt lat="46.0360570" lon="9.4929010">
	<ele>1590.00</ele>
	<time>2023-07-15T11:26:37.000Z</time>
</trkpt>
<trkpt lat="46.0360690" lon="9.4928900">
	<ele>1589.80</ele>
	<time>2023-07-15T11:26:38.000Z</time>
</trkpt>
<trkpt lat="46.0360750" lon="9.4928460">
	<ele>1589.40</ele>
	<time>2023-07-15T11:26:42.000Z</time>
</trkpt>
<trkpt lat="46.0360890" lon="9.4927850">
	<ele>1588.80</ele>
	<time>2023-07-15T11:26:45.000Z</time>
</trkpt>
<trkpt lat="46.0360900" lon="9.4927410">
	<ele>1588.40</ele>
	<time>2023-07-15T11:26:48.000Z</time>
</trkpt>
<trkpt lat="46.0361000" lon="9.4926860">
	<ele>1587.40</ele>
	<time>2023-07-15T11:26:53.000Z</time>
</trkpt>
<trkpt lat="46.0361020" lon="9.4926690">
	<ele>1587.20</ele>
	<time>2023-07-15T11:26:54.000Z</time>
</trkpt>
<trkpt lat="46.0361080" lon="9.4926170">
	<ele>1586.40</ele>
	<time>2023-07-15T11:26:58.000Z</time>
</trkpt>
<trkpt lat="46.0361120" lon="9.4925890">
	<ele>1586.00</ele>
	<time>2023-07-15T11:27:00.000Z</time>
</trkpt>
<trkpt lat="46.0361240" lon="9.4925800">
	<ele>1585.80</ele>
	<time>2023-07-15T11:27:01.000Z</time>
</trkpt>
<trkpt lat="46.0361340" lon="9.4925590">
	<ele>1585.60</ele>
	<time>2023-07-15T11:27:03.000Z</time>
</trkpt>
<trkpt lat="46.0361450" lon="9.4925340">
	<ele>1585.40</ele>
	<time>2023-07-15T11:27:05.000Z</time>
</trkpt>
<trkpt lat="46.0361490" lon="9.4925210">
	<ele>1585.00</ele>
	<time>2023-07-15T11:27:06.000Z</time>
</trkpt>
<trkpt lat="46.0361720" lon="9.4924640">
	<ele>1583.80</ele>
	<time>2023-07-15T11:27:11.000Z</time>
</trkpt>
<trkpt lat="46.0361840" lon="9.4924380">
	<ele>1583.60</ele>
	<time>2023-07-15T11:27:13.000Z</time>
</trkpt>
<trkpt lat="46.0362050" lon="9.4924130">
	<ele>1582.80</ele>
	<time>2023-07-15T11:27:16.000Z</time>
</trkpt>
<trkpt lat="46.0362160" lon="9.4923870">
	<ele>1582.60</ele>
	<time>2023-07-15T11:27:18.000Z</time>
</trkpt>
<trkpt lat="46.0362310" lon="9.4923760">
	<ele>1582.40</ele>
	<time>2023-07-15T11:27:20.000Z</time>
</trkpt>
<trkpt lat="46.0362540" lon="9.4923550">
	<ele>1581.60</ele>
	<time>2023-07-15T11:27:23.000Z</time>
</trkpt>
<trkpt lat="46.0362990" lon="9.4923240">
	<ele>1580.60</ele>
	<time>2023-07-15T11:27:28.000Z</time>
</trkpt>
<trkpt lat="46.0363080" lon="9.4923050">
	<ele>1580.40</ele>
	<time>2023-07-15T11:27:30.000Z</time>
</trkpt>
<trkpt lat="46.0363130" lon="9.4922970">
	<ele>1580.40</ele>
	<time>2023-07-15T11:27:31.000Z</time>
</trkpt>
<trkpt lat="46.0363460" lon="9.4922710">
	<ele>1579.40</ele>
	<time>2023-07-15T11:27:36.000Z</time>
</trkpt>
<trkpt lat="46.0363650" lon="9.4922680">
	<ele>1578.80</ele>
	<time>2023-07-15T11:27:39.000Z</time>
</trkpt>
<trkpt lat="46.0363780" lon="9.4922690">
	<ele>1578.40</ele>
	<time>2023-07-15T11:27:40.000Z</time>
</trkpt>
<trkpt lat="46.0364470" lon="9.4922420">
	<ele>1577.60</ele>
	<time>2023-07-15T11:27:46.000Z</time>
</trkpt>
<trkpt lat="46.0364510" lon="9.4922410">
	<ele>1577.40</ele>
	<time>2023-07-15T11:27:47.000Z</time>
</trkpt>
<trkpt lat="46.0364650" lon="9.4921990">
	<ele>1576.80</ele>
	<time>2023-07-15T11:27:51.000Z</time>
</trkpt>
<trkpt lat="46.0364560" lon="9.4921730">
	<ele>1576.60</ele>
	<time>2023-07-15T11:27:53.000Z</time>
</trkpt>
<trkpt lat="46.0364480" lon="9.4921640">
	<ele>1576.40</ele>
	<time>2023-07-15T11:27:56.000Z</time>
</trkpt>
<trkpt lat="46.0364590" lon="9.4921380">
	<ele>1576.00</ele>
	<time>2023-07-15T11:27:57.000Z</time>
</trkpt>
<trkpt lat="46.0364720" lon="9.4920880">
	<ele>1575.40</ele>
	<time>2023-07-15T11:28:00.000Z</time>
</trkpt>
<trkpt lat="46.0364730" lon="9.4920770">
	<ele>1575.20</ele>
	<time>2023-07-15T11:28:01.000Z</time>
</trkpt>
<trkpt lat="46.0364690" lon="9.4920670">
	<ele>1575.20</ele>
	<time>2023-07-15T11:28:02.000Z</time>
</trkpt>
<trkpt lat="46.0364290" lon="9.4919950">
	<ele>1574.40</ele>
	<time>2023-07-15T11:28:08.000Z</time>
</trkpt>
<trkpt lat="46.0364360" lon="9.4919640">
	<ele>1574.20</ele>
	<time>2023-07-15T11:28:10.000Z</time>
</trkpt>
<trkpt lat="46.0364290" lon="9.4919560">
	<ele>1574.20</ele>
	<time>2023-07-15T11:28:11.000Z</time>
</trkpt>
<trkpt lat="46.0364010" lon="9.4919270">
	<ele>1573.40</ele>
	<time>2023-07-15T11:28:14.000Z</time>
</trkpt>
<trkpt lat="46.0363990" lon="9.4919020">
	<ele>1573.00</ele>
	<time>2023-07-15T11:28:16.000Z</time>
</trkpt>
<trkpt lat="46.0363810" lon="9.4918430">
	<ele>1572.40</ele>
	<time>2023-07-15T11:28:21.000Z</time>
</trkpt>
<trkpt lat="46.0363800" lon="9.4917920">
	<ele>1572.00</ele>
	<time>2023-07-15T11:28:25.000Z</time>
</trkpt>
<trkpt lat="46.0363810" lon="9.4917820">
	<ele>1572.00</ele>
	<time>2023-07-15T11:28:26.000Z</time>
</trkpt>
<trkpt lat="46.0363840" lon="9.4917700">
	<ele>1571.80</ele>
	<time>2023-07-15T11:28:27.000Z</time>
</trkpt>
<trkpt lat="46.0363830" lon="9.4917370">
	<ele>1571.60</ele>
	<time>2023-07-15T11:28:29.000Z</time>
</trkpt>
<trkpt lat="46.0363870" lon="9.4917090">
	<ele>1571.00</ele>
	<time>2023-07-15T11:28:31.000Z</time>
</trkpt>
<trkpt lat="46.0363920" lon="9.4916970">
	<ele>1570.80</ele>
	<time>2023-07-15T11:28:32.000Z</time>
</trkpt>
<trkpt lat="46.0363880" lon="9.4916810">
	<ele>1570.60</ele>
	<time>2023-07-15T11:28:33.000Z</time>
</trkpt>
<trkpt lat="46.0363830" lon="9.4916550">
	<ele>1570.60</ele>
	<time>2023-07-15T11:28:36.000Z</time>
</trkpt>
<trkpt lat="46.0363810" lon="9.4916330">
	<ele>1570.40</ele>
	<time>2023-07-15T11:28:38.000Z</time>
</trkpt>
<trkpt lat="46.0363780" lon="9.4916160">
	<ele>1570.20</ele>
	<time>2023-07-15T11:28:39.000Z</time>
</trkpt>
<trkpt lat="46.0363740" lon="9.4915900">
	<ele>1570.00</ele>
	<time>2023-07-15T11:28:41.000Z</time>
</trkpt>
<trkpt lat="46.0363730" lon="9.4915510">
	<ele>1569.80</ele>
	<time>2023-07-15T11:28:43.000Z</time>
</trkpt>
<trkpt lat="46.0363770" lon="9.4915310">
	<ele>1569.60</ele>
	<time>2023-07-15T11:28:45.000Z</time>
</trkpt>
<trkpt lat="46.0363840" lon="9.4915100">
	<ele>1569.40</ele>
	<time>2023-07-15T11:28:47.000Z</time>
</trkpt>
<trkpt lat="46.0363890" lon="9.4914350">
	<ele>1569.00</ele>
	<time>2023-07-15T11:28:51.000Z</time>
</trkpt>
<trkpt lat="46.0364010" lon="9.4914100">
	<ele>1568.80</ele>
	<time>2023-07-15T11:28:52.000Z</time>
</trkpt>
<trkpt lat="46.0364020" lon="9.4913890">
	<ele>1568.60</ele>
	<time>2023-07-15T11:28:53.000Z</time>
</trkpt>
<trkpt lat="46.0363980" lon="9.4913330">
	<ele>1568.20</ele>
	<time>2023-07-15T11:28:57.000Z</time>
</trkpt>
<trkpt lat="46.0364020" lon="9.4913060">
	<ele>1568.00</ele>
	<time>2023-07-15T11:28:59.000Z</time>
</trkpt>
<trkpt lat="46.0364070" lon="9.4912860">
	<ele>1567.80</ele>
	<time>2023-07-15T11:29:00.000Z</time>
</trkpt>
<trkpt lat="46.0363970" lon="9.4912450">
	<ele>1567.40</ele>
	<time>2023-07-15T11:29:03.000Z</time>
</trkpt>
<trkpt lat="46.0364160" lon="9.4911590">
	<ele>1566.80</ele>
	<time>2023-07-15T11:29:08.000Z</time>
</trkpt>
<trkpt lat="46.0364080" lon="9.4911350">
	<ele>1566.80</ele>
	<time>2023-07-15T11:29:10.000Z</time>
</trkpt>
<trkpt lat="46.0363540" lon="9.4910800">
	<ele>1565.80</ele>
	<time>2023-07-15T11:29:17.000Z</time>
</trkpt>
<trkpt lat="46.0363480" lon="9.4910720">
	<ele>1565.80</ele>
	<time>2023-07-15T11:29:18.000Z</time>
</trkpt>
<trkpt lat="46.0363380" lon="9.4910560">
	<ele>1565.80</ele>
	<time>2023-07-15T11:29:20.000Z</time>
</trkpt>
<trkpt lat="46.0363510" lon="9.4910390">
	<ele>1565.60</ele>
	<time>2023-07-15T11:29:22.000Z</time>
</trkpt>
<trkpt lat="46.0363550" lon="9.4910240">
	<ele>1565.40</ele>
	<time>2023-07-15T11:29:23.000Z</time>
</trkpt>
<trkpt lat="46.0363510" lon="9.4909670">
	<ele>1564.80</ele>
	<time>2023-07-15T11:29:27.000Z</time>
</trkpt>
<trkpt lat="46.0363440" lon="9.4909460">
	<ele>1564.60</ele>
	<time>2023-07-15T11:29:28.000Z</time>
</trkpt>
<trkpt lat="46.0363380" lon="9.4909260">
	<ele>1564.40</ele>
	<time>2023-07-15T11:29:29.000Z</time>
</trkpt>
<trkpt lat="46.0363190" lon="9.4908860">
	<ele>1563.80</ele>
	<time>2023-07-15T11:29:33.000Z</time>
</trkpt>
<trkpt lat="46.0363140" lon="9.4908650">
	<ele>1563.00</ele>
	<time>2023-07-15T11:29:36.000Z</time>
</trkpt>
<trkpt lat="46.0363070" lon="9.4908220">
	<ele>1562.60</ele>
	<time>2023-07-15T11:29:38.000Z</time>
</trkpt>
<trkpt lat="46.0363210" lon="9.4907460">
	<ele>1562.00</ele>
	<time>2023-07-15T11:29:43.000Z</time>
</trkpt>
<trkpt lat="46.0363240" lon="9.4907120">
	<ele>1561.60</ele>
	<time>2023-07-15T11:29:45.000Z</time>
</trkpt>
<trkpt lat="46.0363130" lon="9.4906870">
	<ele>1561.40</ele>
	<time>2023-07-15T11:29:48.000Z</time>
</trkpt>
<trkpt lat="46.0363070" lon="9.4906760">
	<ele>1561.20</ele>
	<time>2023-07-15T11:29:49.000Z</time>
</trkpt>
<trkpt lat="46.0363010" lon="9.4906700">
	<ele>1561.20</ele>
	<time>2023-07-15T11:29:50.000Z</time>
</trkpt>
<trkpt lat="46.0362960" lon="9.4905940">
	<ele>1560.80</ele>
	<time>2023-07-15T11:29:54.000Z</time>
</trkpt>
<trkpt lat="46.0362850" lon="9.4905560">
	<ele>1560.80</ele>
	<time>2023-07-15T11:29:56.000Z</time>
</trkpt>
<trkpt lat="46.0362470" lon="9.4905390">
	<ele>1560.60</ele>
	<time>2023-07-15T11:29:59.000Z</time>
</trkpt>
<trkpt lat="46.0362190" lon="9.4904890">
	<ele>1560.00</ele>
	<time>2023-07-15T11:30:03.000Z</time>
</trkpt>
<trkpt lat="46.0362120" lon="9.4904460">
	<ele>1559.40</ele>
	<time>2023-07-15T11:30:06.000Z</time>
</trkpt>
<trkpt lat="46.0362010" lon="9.4904270">
	<ele>1559.00</ele>
	<time>2023-07-15T11:30:08.000Z</time>
</trkpt>
<trkpt lat="46.0361870" lon="9.4904130">
	<ele>1559.00</ele>
	<time>2023-07-15T11:30:10.000Z</time>
</trkpt>
<trkpt lat="46.0361700" lon="9.4903900">
	<ele>1558.80</ele>
	<time>2023-07-15T11:30:12.000Z</time>
</trkpt>
<trkpt lat="46.0361510" lon="9.4903570">
	<ele>1558.40</ele>
	<time>2023-07-15T11:30:15.000Z</time>
</trkpt>
<trkpt lat="46.0361550" lon="9.4903200">
	<ele>1558.00</ele>
	<time>2023-07-15T11:30:17.000Z</time>
</trkpt>
<trkpt lat="46.0361320" lon="9.4902730">
	<ele>1557.40</ele>
	<time>2023-07-15T11:30:21.000Z</time>
</trkpt>
<trkpt lat="46.0361280" lon="9.4902530">
	<ele>1557.20</ele>
	<time>2023-07-15T11:30:22.000Z</time>
</trkpt>
<trkpt lat="46.0361400" lon="9.4901260">
	<ele>1556.40</ele>
	<time>2023-07-15T11:30:28.000Z</time>
</trkpt>
<trkpt lat="46.0361360" lon="9.4900760">
	<ele>1555.80</ele>
	<time>2023-07-15T11:30:31.000Z</time>
</trkpt>
<trkpt lat="46.0361300" lon="9.4900740">
	<ele>1555.80</ele>
	<time>2023-07-15T11:30:32.000Z</time>
</trkpt>
<trkpt lat="46.0361190" lon="9.4900300">
	<ele>1555.40</ele>
	<time>2023-07-15T11:30:36.000Z</time>
</trkpt>
<trkpt lat="46.0361260" lon="9.4899870">
	<ele>1555.00</ele>
	<time>2023-07-15T11:30:39.000Z</time>
</trkpt>
<trkpt lat="46.0361200" lon="9.4899410">
	<ele>1554.20</ele>
	<time>2023-07-15T11:30:43.000Z</time>
</trkpt>
<trkpt lat="46.0361060" lon="9.4898990">
	<ele>1553.80</ele>
	<time>2023-07-15T11:30:47.000Z</time>
</trkpt>
<trkpt lat="46.0360930" lon="9.4898550">
	<ele>1553.20</ele>
	<time>2023-07-15T11:30:50.000Z</time>
</trkpt>
<trkpt lat="46.0360970" lon="9.4898250">
	<ele>1552.80</ele>
	<time>2023-07-15T11:30:52.000Z</time>
</trkpt>
<trkpt lat="46.0360910" lon="9.4897980">
	<ele>1552.60</ele>
	<time>2023-07-15T11:30:54.000Z</time>
</trkpt>
<trkpt lat="46.0360940" lon="9.4897580">
	<ele>1552.00</ele>
	<time>2023-07-15T11:30:56.000Z</time>
</trkpt>
<trkpt lat="46.0360660" lon="9.4897360">
	<ele>1551.60</ele>
	<time>2023-07-15T11:30:58.000Z</time>
</trkpt>
<trkpt lat="46.0360500" lon="9.4896980">
	<ele>1551.20</ele>
	<time>2023-07-15T11:31:02.000Z</time>
</trkpt>
<trkpt lat="46.0360260" lon="9.4896940">
	<ele>1551.00</ele>
	<time>2023-07-15T11:31:04.000Z</time>
</trkpt>
<trkpt lat="46.0360320" lon="9.4896840">
	<ele>1550.60</ele>
	<time>2023-07-15T11:31:06.000Z</time>
</trkpt>
<trkpt lat="46.0360640" lon="9.4896340">
	<ele>1550.00</ele>
	<time>2023-07-15T11:31:09.000Z</time>
</trkpt>
<trkpt lat="46.0360530" lon="9.4895870">
	<ele>1549.40</ele>
	<time>2023-07-15T11:31:13.000Z</time>
</trkpt>
<trkpt lat="46.0360360" lon="9.4895740">
	<ele>1549.20</ele>
	<time>2023-07-15T11:31:15.000Z</time>
</trkpt>
<trkpt lat="46.0360250" lon="9.4895230">
	<ele>1548.40</ele>
	<time>2023-07-15T11:31:21.000Z</time>
</trkpt>
<trkpt lat="46.0360240" lon="9.4895180">
	<ele>1548.40</ele>
	<time>2023-07-15T11:31:22.000Z</time>
</trkpt>
<trkpt lat="46.0360190" lon="9.4895080">
	<ele>1548.20</ele>
	<time>2023-07-15T11:31:23.000Z</time>
</trkpt>
<trkpt lat="46.0360150" lon="9.4894740">
	<ele>1547.60</ele>
	<time>2023-07-15T11:31:25.000Z</time>
</trkpt>
<trkpt lat="46.0360100" lon="9.4894550">
	<ele>1547.40</ele>
	<time>2023-07-15T11:31:27.000Z</time>
</trkpt>
<trkpt lat="46.0359920" lon="9.4894360">
	<ele>1546.60</ele>
	<time>2023-07-15T11:31:29.000Z</time>
</trkpt>
<trkpt lat="46.0359730" lon="9.4894250">
	<ele>1546.40</ele>
	<time>2023-07-15T11:31:31.000Z</time>
</trkpt>
<trkpt lat="46.0359620" lon="9.4893850">
	<ele>1546.00</ele>
	<time>2023-07-15T11:31:33.000Z</time>
</trkpt>
<trkpt lat="46.0359580" lon="9.4893570">
	<ele>1545.80</ele>
	<time>2023-07-15T11:31:35.000Z</time>
</trkpt>
<trkpt lat="46.0359500" lon="9.4893230">
	<ele>1545.60</ele>
	<time>2023-07-15T11:31:38.000Z</time>
</trkpt>
<trkpt lat="46.0359360" lon="9.4892680">
	<ele>1545.20</ele>
	<time>2023-07-15T11:31:41.000Z</time>
</trkpt>
<trkpt lat="46.0359330" lon="9.4892070">
	<ele>1544.60</ele>
	<time>2023-07-15T11:31:45.000Z</time>
</trkpt>
<trkpt lat="46.0359310" lon="9.4891940">
	<ele>1544.40</ele>
	<time>2023-07-15T11:31:47.000Z</time>
</trkpt>
<trkpt lat="46.0359180" lon="9.4891560">
	<ele>1543.80</ele>
	<time>2023-07-15T11:31:50.000Z</time>
</trkpt>
<trkpt lat="46.0359170" lon="9.4891500">
	<ele>1543.60</ele>
	<time>2023-07-15T11:31:51.000Z</time>
</trkpt>
<trkpt lat="46.0359030" lon="9.4891180">
	<ele>1543.20</ele>
	<time>2023-07-15T11:31:54.000Z</time>
</trkpt>
<trkpt lat="46.0358950" lon="9.4890970">
	<ele>1543.00</ele>
	<time>2023-07-15T11:31:56.000Z</time>
</trkpt>
<trkpt lat="46.0358950" lon="9.4890900">
	<ele>1542.80</ele>
	<time>2023-07-15T11:31:57.000Z</time>
</trkpt>
<trkpt lat="46.0358980" lon="9.4890790">
	<ele>1542.80</ele>
	<time>2023-07-15T11:31:58.000Z</time>
</trkpt>
<trkpt lat="46.0358610" lon="9.4890430">
	<ele>1542.20</ele>
	<time>2023-07-15T11:32:02.000Z</time>
</trkpt>
<trkpt lat="46.0358520" lon="9.4890390">
	<ele>1542.20</ele>
	<time>2023-07-15T11:32:03.000Z</time>
</trkpt>
<trkpt lat="46.0358430" lon="9.4890000">
	<ele>1541.80</ele>
	<time>2023-07-15T11:32:06.000Z</time>
</trkpt>
<trkpt lat="46.0358350" lon="9.4889750">
	<ele>1541.60</ele>
	<time>2023-07-15T11:32:08.000Z</time>
</trkpt>
<trkpt lat="46.0358090" lon="9.4889500">
	<ele>1541.20</ele>
	<time>2023-07-15T11:32:10.000Z</time>
</trkpt>
<trkpt lat="46.0357730" lon="9.4889030">
	<ele>1541.00</ele>
	<time>2023-07-15T11:32:14.000Z</time>
</trkpt>
<trkpt lat="46.0357630" lon="9.4888780">
	<ele>1540.80</ele>
	<time>2023-07-15T11:32:16.000Z</time>
</trkpt>
<trkpt lat="46.0357490" lon="9.4888350">
	<ele>1539.80</ele>
	<time>2023-07-15T11:32:19.000Z</time>
</trkpt>
<trkpt lat="46.0357500" lon="9.4888200">
	<ele>1539.60</ele>
	<time>2023-07-15T11:32:20.000Z</time>
</trkpt>
<trkpt lat="46.0357570" lon="9.4887930">
	<ele>1539.40</ele>
	<time>2023-07-15T11:32:22.000Z</time>
</trkpt>
<trkpt lat="46.0357290" lon="9.4887440">
	<ele>1539.20</ele>
	<time>2023-07-15T11:32:27.000Z</time>
</trkpt>
<trkpt lat="46.0357030" lon="9.4887000">
	<ele>1538.80</ele>
	<time>2023-07-15T11:32:30.000Z</time>
</trkpt>
<trkpt lat="46.0356920" lon="9.4886820">
	<ele>1538.60</ele>
	<time>2023-07-15T11:32:32.000Z</time>
</trkpt>
<trkpt lat="46.0356720" lon="9.4886900">
	<ele>1538.40</ele>
	<time>2023-07-15T11:32:34.000Z</time>
</trkpt>
<trkpt lat="46.0356640" lon="9.4886860">
	<ele>1538.40</ele>
	<time>2023-07-15T11:32:35.000Z</time>
</trkpt>
<trkpt lat="46.0356450" lon="9.4886770">
	<ele>1538.40</ele>
	<time>2023-07-15T11:32:38.000Z</time>
</trkpt>
<trkpt lat="46.0356450" lon="9.4886730">
	<ele>1538.40</ele>
	<time>2023-07-15T11:32:39.000Z</time>
</trkpt>
<trkpt lat="46.0356450" lon="9.4886810">
	<ele>1538.40</ele>
	<time>2023-07-15T11:32:46.000Z</time>
</trkpt>
<trkpt lat="46.0356490" lon="9.4887060">
	<ele>1538.20</ele>
	<time>2023-07-15T11:32:54.000Z</time>
</trkpt>
<trkpt lat="46.0356490" lon="9.4887060">
	<ele>1538.20</ele>
	<time>2023-07-15T11:32:56.000Z</time>
</trkpt>
<trkpt lat="46.0356490" lon="9.4887060">
	<ele>1538.60</ele>
	<time>2023-07-15T11:33:04.000Z</time>
</trkpt>
<trkpt lat="46.0356490" lon="9.4887060">
	<ele>1538.60</ele>
	<time>2023-07-15T11:33:10.000Z</time>
</trkpt>
<trkpt lat="46.0356350" lon="9.4887060">
	<ele>1537.40</ele>
	<time>2023-07-15T11:33:22.000Z</time>
</trkpt>
<trkpt lat="46.0356110" lon="9.4886730">
	<ele>1536.80</ele>
	<time>2023-07-15T11:33:25.000Z</time>
</trkpt>
<trkpt lat="46.0355890" lon="9.4886310">
	<ele>1536.40</ele>
	<time>2023-07-15T11:33:27.000Z</time>
</trkpt>
<trkpt lat="46.0355790" lon="9.4886080">
	<ele>1536.00</ele>
	<time>2023-07-15T11:33:28.000Z</time>
</trkpt>
<trkpt lat="46.0355550" lon="9.4885750">
	<ele>1535.60</ele>
	<time>2023-07-15T11:33:30.000Z</time>
</trkpt>
<trkpt lat="46.0355240" lon="9.4885620">
	<ele>1535.00</ele>
	<time>2023-07-15T11:33:32.000Z</time>
</trkpt>
<trkpt lat="46.0355010" lon="9.4885350">
	<ele>1534.20</ele>
	<time>2023-07-15T11:33:35.000Z</time>
</trkpt>
<trkpt lat="46.0354910" lon="9.4885300">
	<ele>1534.00</ele>
	<time>2023-07-15T11:33:36.000Z</time>
</trkpt>
<trkpt lat="46.0354830" lon="9.4885240">
	<ele>1533.60</ele>
	<time>2023-07-15T11:33:37.000Z</time>
</trkpt>
<trkpt lat="46.0354920" lon="9.4884740">
	<ele>1532.80</ele>
	<time>2023-07-15T11:33:41.000Z</time>
</trkpt>
<trkpt lat="46.0354920" lon="9.4884490">
	<ele>1532.20</ele>
	<time>2023-07-15T11:33:43.000Z</time>
</trkpt>
<trkpt lat="46.0354910" lon="9.4884340">
	<ele>1531.80</ele>
	<time>2023-07-15T11:33:44.000Z</time>
</trkpt>
<trkpt lat="46.0354900" lon="9.4883980">
	<ele>1531.00</ele>
	<time>2023-07-15T11:33:47.000Z</time>
</trkpt>
<trkpt lat="46.0354710" lon="9.4883740">
	<ele>1530.60</ele>
	<time>2023-07-15T11:33:49.000Z</time>
</trkpt>
<trkpt lat="46.0354660" lon="9.4883630">
	<ele>1530.40</ele>
	<time>2023-07-15T11:33:50.000Z</time>
</trkpt>
<trkpt lat="46.0354650" lon="9.4883300">
	<ele>1530.20</ele>
	<time>2023-07-15T11:33:52.000Z</time>
</trkpt>
<trkpt lat="46.0354500" lon="9.4883060">
	<ele>1529.80</ele>
	<time>2023-07-15T11:33:54.000Z</time>
</trkpt>
<trkpt lat="46.0354350" lon="9.4882650">
	<ele>1529.20</ele>
	<time>2023-07-15T11:33:56.000Z</time>
</trkpt>
<trkpt lat="46.0354240" lon="9.4882260">
	<ele>1528.20</ele>
	<time>2023-07-15T11:33:59.000Z</time>
</trkpt>
<trkpt lat="46.0354220" lon="9.4882030">
	<ele>1528.00</ele>
	<time>2023-07-15T11:34:01.000Z</time>
</trkpt>
<trkpt lat="46.0354190" lon="9.4881960">
	<ele>1527.80</ele>
	<time>2023-07-15T11:34:02.000Z</time>
</trkpt>
<trkpt lat="46.0354070" lon="9.4881810">
	<ele>1527.20</ele>
	<time>2023-07-15T11:34:04.000Z</time>
</trkpt>
<trkpt lat="46.0354020" lon="9.4881240">
	<ele>1526.40</ele>
	<time>2023-07-15T11:34:07.000Z</time>
</trkpt>
<trkpt lat="46.0354030" lon="9.4881030">
	<ele>1526.00</ele>
	<time>2023-07-15T11:34:08.000Z</time>
</trkpt>
<trkpt lat="46.0353650" lon="9.4880250">
	<ele>1525.00</ele>
	<time>2023-07-15T11:34:14.000Z</time>
</trkpt>
<trkpt lat="46.0353580" lon="9.4880180">
	<ele>1524.80</ele>
	<time>2023-07-15T11:34:15.000Z</time>
</trkpt>
<trkpt lat="46.0353350" lon="9.4879500">
	<ele>1523.60</ele>
	<time>2023-07-15T11:34:19.000Z</time>
</trkpt>
<trkpt lat="46.0353230" lon="9.4879140">
	<ele>1523.20</ele>
	<time>2023-07-15T11:34:21.000Z</time>
</trkpt>
<trkpt lat="46.0353180" lon="9.4878580">
	<ele>1522.40</ele>
	<time>2023-07-15T11:34:24.000Z</time>
</trkpt>
<trkpt lat="46.0352870" lon="9.4878110">
	<ele>1521.20</ele>
	<time>2023-07-15T11:34:27.000Z</time>
</trkpt>
<trkpt lat="46.0352770" lon="9.4878020">
	<ele>1521.00</ele>
	<time>2023-07-15T11:34:28.000Z</time>
</trkpt>
<trkpt lat="46.0352780" lon="9.4877800">
	<ele>1520.80</ele>
	<time>2023-07-15T11:34:29.000Z</time>
</trkpt>
<trkpt lat="46.0352880" lon="9.4877040">
	<ele>1520.20</ele>
	<time>2023-07-15T11:34:33.000Z</time>
</trkpt>
<trkpt lat="46.0352830" lon="9.4876920">
	<ele>1520.20</ele>
	<time>2023-07-15T11:34:34.000Z</time>
</trkpt>
<trkpt lat="46.0352810" lon="9.4876120">
	<ele>1519.20</ele>
	<time>2023-07-15T11:34:39.000Z</time>
</trkpt>
<trkpt lat="46.0352730" lon="9.4875830">
	<ele>1518.80</ele>
	<time>2023-07-15T11:34:41.000Z</time>
</trkpt>
<trkpt lat="46.0352400" lon="9.4875390">
	<ele>1518.00</ele>
	<time>2023-07-15T11:34:45.000Z</time>
</trkpt>
<trkpt lat="46.0352260" lon="9.4875110">
	<ele>1517.40</ele>
	<time>2023-07-15T11:34:47.000Z</time>
</trkpt>
<trkpt lat="46.0352290" lon="9.4874960">
	<ele>1517.20</ele>
	<time>2023-07-15T11:34:48.000Z</time>
</trkpt>
<trkpt lat="46.0352270" lon="9.4874800">
	<ele>1517.00</ele>
	<time>2023-07-15T11:34:49.000Z</time>
</trkpt>
<trkpt lat="46.0351880" lon="9.4874510">
	<ele>1516.20</ele>
	<time>2023-07-15T11:34:52.000Z</time>
</trkpt>
<trkpt lat="46.0351800" lon="9.4874220">
	<ele>1516.00</ele>
	<time>2023-07-15T11:34:54.000Z</time>
</trkpt>
<trkpt lat="46.0351700" lon="9.4873360">
	<ele>1515.00</ele>
	<time>2023-07-15T11:35:00.000Z</time>
</trkpt>
<trkpt lat="46.0351590" lon="9.4873230">
	<ele>1514.80</ele>
	<time>2023-07-15T11:35:01.000Z</time>
</trkpt>
<trkpt lat="46.0351320" lon="9.4872740">
	<ele>1514.20</ele>
	<time>2023-07-15T11:35:04.000Z</time>
</trkpt>
<trkpt lat="46.0351290" lon="9.4872400">
	<ele>1513.80</ele>
	<time>2023-07-15T11:35:06.000Z</time>
</trkpt>
<trkpt lat="46.0351060" lon="9.4872210">
	<ele>1513.20</ele>
	<time>2023-07-15T11:35:08.000Z</time>
</trkpt>
<trkpt lat="46.0350770" lon="9.4871240">
	<ele>1512.40</ele>
	<time>2023-07-15T11:35:13.000Z</time>
</trkpt>
<trkpt lat="46.0350680" lon="9.4871160">
	<ele>1512.20</ele>
	<time>2023-07-15T11:35:14.000Z</time>
</trkpt>
<trkpt lat="46.0349750" lon="9.4870190">
	<ele>1511.40</ele>
	<time>2023-07-15T11:35:21.000Z</time>
</trkpt>
<trkpt lat="46.0349270" lon="9.4869750">
	<ele>1510.20</ele>
	<time>2023-07-15T11:35:25.000Z</time>
</trkpt>
<trkpt lat="46.0349260" lon="9.4869510">
	<ele>1510.00</ele>
	<time>2023-07-15T11:35:26.000Z</time>
</trkpt>
<trkpt lat="46.0348820" lon="9.4869420">
	<ele>1509.60</ele>
	<time>2023-07-15T11:35:28.000Z</time>
</trkpt>
<trkpt lat="46.0348510" lon="9.4869100">
	<ele>1509.00</ele>
	<time>2023-07-15T11:35:30.000Z</time>
</trkpt>
<trkpt lat="46.0347760" lon="9.4868870">
	<ele>1507.80</ele>
	<time>2023-07-15T11:35:35.000Z</time>
</trkpt>
<trkpt lat="46.0346780" lon="9.4868740">
	<ele>1506.80</ele>
	<time>2023-07-15T11:35:41.000Z</time>
</trkpt>
<trkpt lat="46.0346380" lon="9.4868310">
	<ele>1505.80</ele>
	<time>2023-07-15T11:35:46.000Z</time>
</trkpt>
<trkpt lat="46.0346390" lon="9.4868200">
	<ele>1505.60</ele>
	<time>2023-07-15T11:35:47.000Z</time>
</trkpt>
<trkpt lat="46.0346490" lon="9.4868060">
	<ele>1505.20</ele>
	<time>2023-07-15T11:35:48.000Z</time>
</trkpt>
<trkpt lat="46.0346770" lon="9.4867930">
	<ele>1504.60</ele>
	<time>2023-07-15T11:35:50.000Z</time>
</trkpt>
<trkpt lat="46.0347170" lon="9.4867860">
	<ele>1503.80</ele>
	<time>2023-07-15T11:35:53.000Z</time>
</trkpt>
<trkpt lat="46.0347240" lon="9.4867820">
	<ele>1503.60</ele>
	<time>2023-07-15T11:35:54.000Z</time>
</trkpt>
<trkpt lat="46.0347290" lon="9.4867730">
	<ele>1503.40</ele>
	<time>2023-07-15T11:35:55.000Z</time>
</trkpt>
<trkpt lat="46.0347730" lon="9.4867340">
	<ele>1502.80</ele>
	<time>2023-07-15T11:35:59.000Z</time>
</trkpt>
<trkpt lat="46.0347800" lon="9.4867200">
	<ele>1502.20</ele>
	<time>2023-07-15T11:36:00.000Z</time>
</trkpt>
<trkpt lat="46.0347820" lon="9.4867080">
	<ele>1502.00</ele>
	<time>2023-07-15T11:36:01.000Z</time>
</trkpt>
<trkpt lat="46.0347810" lon="9.4866930">
	<ele>1501.60</ele>
	<time>2023-07-15T11:36:03.000Z</time>
</trkpt>
<trkpt lat="46.0347670" lon="9.4866820">
	<ele>1501.40</ele>
	<time>2023-07-15T11:36:05.000Z</time>
</trkpt>
<trkpt lat="46.0347460" lon="9.4866820">
	<ele>1501.40</ele>
	<time>2023-07-15T11:36:07.000Z</time>
</trkpt>
<trkpt lat="46.0347380" lon="9.4867030">
	<ele>1501.20</ele>
	<time>2023-07-15T11:36:08.000Z</time>
</trkpt>
<trkpt lat="46.0346920" lon="9.4867040">
	<ele>1500.60</ele>
	<time>2023-07-15T11:36:12.000Z</time>
</trkpt>
<trkpt lat="46.0346530" lon="9.4867270">
	<ele>1500.40</ele>
	<time>2023-07-15T11:36:15.000Z</time>
</trkpt>
<trkpt lat="46.0346430" lon="9.4867310">
	<ele>1500.20</ele>
	<time>2023-07-15T11:36:16.000Z</time>
</trkpt>
<trkpt lat="46.0346310" lon="9.4867320">
	<ele>1500.00</ele>
	<time>2023-07-15T11:36:17.000Z</time>
</trkpt>
<trkpt lat="46.0346200" lon="9.4867320">
	<ele>1499.80</ele>
	<time>2023-07-15T11:36:18.000Z</time>
</trkpt>
<trkpt lat="46.0346090" lon="9.4867270">
	<ele>1499.60</ele>
	<time>2023-07-15T11:36:19.000Z</time>
</trkpt>
<trkpt lat="46.0345740" lon="9.4867360">
	<ele>1499.20</ele>
	<time>2023-07-15T11:36:22.000Z</time>
</trkpt>
<trkpt lat="46.0345670" lon="9.4867430">
	<ele>1499.00</ele>
	<time>2023-07-15T11:36:23.000Z</time>
</trkpt>
<trkpt lat="46.0345600" lon="9.4867750">
	<ele>1498.40</ele>
	<time>2023-07-15T11:36:26.000Z</time>
</trkpt>
<trkpt lat="46.0345450" lon="9.4868340">
	<ele>1498.00</ele>
	<time>2023-07-15T11:36:30.000Z</time>
</trkpt>
<trkpt lat="46.0345360" lon="9.4868670">
	<ele>1497.40</ele>
	<time>2023-07-15T11:36:32.000Z</time>
</trkpt>
<trkpt lat="46.0345280" lon="9.4868790">
	<ele>1497.20</ele>
	<time>2023-07-15T11:36:33.000Z</time>
</trkpt>
<trkpt lat="46.0345180" lon="9.4868910">
	<ele>1497.00</ele>
	<time>2023-07-15T11:36:34.000Z</time>
</trkpt>
<trkpt lat="46.0344860" lon="9.4869800">
	<ele>1496.00</ele>
	<time>2023-07-15T11:36:41.000Z</time>
</trkpt>
<trkpt lat="46.0344910" lon="9.4869880">
	<ele>1495.60</ele>
	<time>2023-07-15T11:36:42.000Z</time>
</trkpt>
<trkpt lat="46.0345010" lon="9.4870170">
	<ele>1494.60</ele>
	<time>2023-07-15T11:36:47.000Z</time>
</trkpt>
<trkpt lat="46.0345070" lon="9.4870310">
	<ele>1494.20</ele>
	<time>2023-07-15T11:36:48.000Z</time>
</trkpt>
<trkpt lat="46.0345080" lon="9.4870600">
	<ele>1493.40</ele>
	<time>2023-07-15T11:36:50.000Z</time>
</trkpt>
<trkpt lat="46.0344840" lon="9.4871220">
	<ele>1492.60</ele>
	<time>2023-07-15T11:36:54.000Z</time>
</trkpt>
<trkpt lat="46.0344540" lon="9.4871750">
	<ele>1492.20</ele>
	<time>2023-07-15T11:36:57.000Z</time>
</trkpt>
<trkpt lat="46.0344250" lon="9.4872310">
	<ele>1491.60</ele>
	<time>2023-07-15T11:37:00.000Z</time>
</trkpt>
<trkpt lat="46.0344180" lon="9.4872440">
	<ele>1491.20</ele>
	<time>2023-07-15T11:37:01.000Z</time>
</trkpt>
<trkpt lat="46.0344100" lon="9.4872420">
	<ele>1491.00</ele>
	<time>2023-07-15T11:37:02.000Z</time>
</trkpt>
<trkpt lat="46.0343970" lon="9.4872490">
	<ele>1490.80</ele>
	<time>2023-07-15T11:37:03.000Z</time>
</trkpt>
<trkpt lat="46.0343870" lon="9.4872680">
	<ele>1490.40</ele>
	<time>2023-07-15T11:37:04.000Z</time>
</trkpt>
<trkpt lat="46.0343500" lon="9.4873160">
	<ele>1490.20</ele>
	<time>2023-07-15T11:37:07.000Z</time>
</trkpt>
<trkpt lat="46.0343240" lon="9.4873300">
	<ele>1489.60</ele>
	<time>2023-07-15T11:37:09.000Z</time>
</trkpt>
<trkpt lat="46.0343130" lon="9.4873360">
	<ele>1489.40</ele>
	<time>2023-07-15T11:37:10.000Z</time>
</trkpt>
<trkpt lat="46.0342860" lon="9.4873970">
	<ele>1489.00</ele>
	<time>2023-07-15T11:37:14.000Z</time>
</trkpt>
<trkpt lat="46.0342730" lon="9.4874330">
	<ele>1488.60</ele>
	<time>2023-07-15T11:37:16.000Z</time>
</trkpt>
<trkpt lat="46.0342640" lon="9.4874390">
	<ele>1488.60</ele>
	<time>2023-07-15T11:37:17.000Z</time>
</trkpt>
<trkpt lat="46.0342470" lon="9.4874410">
	<ele>1488.40</ele>
	<time>2023-07-15T11:37:19.000Z</time>
</trkpt>
<trkpt lat="46.0342200" lon="9.4874640">
	<ele>1487.60</ele>
	<time>2023-07-15T11:37:22.000Z</time>
</trkpt>
<trkpt lat="46.0342060" lon="9.4874640">
	<ele>1487.40</ele>
	<time>2023-07-15T11:37:23.000Z</time>
</trkpt>
<trkpt lat="46.0341900" lon="9.4874630">
	<ele>1487.20</ele>
	<time>2023-07-15T11:37:24.000Z</time>
</trkpt>
<trkpt lat="46.0341590" lon="9.4874550">
	<ele>1487.00</ele>
	<time>2023-07-15T11:37:26.000Z</time>
</trkpt>
<trkpt lat="46.0341480" lon="9.4874510">
	<ele>1486.80</ele>
	<time>2023-07-15T11:37:27.000Z</time>
</trkpt>
<trkpt lat="46.0340970" lon="9.4874450">
	<ele>1486.20</ele>
	<time>2023-07-15T11:37:32.000Z</time>
</trkpt>
<trkpt lat="46.0340780" lon="9.4874440">
	<ele>1486.00</ele>
	<time>2023-07-15T11:37:33.000Z</time>
</trkpt>
<trkpt lat="46.0340320" lon="9.4874900">
	<ele>1485.20</ele>
	<time>2023-07-15T11:37:36.000Z</time>
</trkpt>
<trkpt lat="46.0340210" lon="9.4874790">
	<ele>1485.20</ele>
	<time>2023-07-15T11:37:37.000Z</time>
</trkpt>
<trkpt lat="46.0340040" lon="9.4874660">
	<ele>1485.00</ele>
	<time>2023-07-15T11:37:38.000Z</time>
</trkpt>
<trkpt lat="46.0339780" lon="9.4874670">
	<ele>1484.60</ele>
	<time>2023-07-15T11:37:40.000Z</time>
</trkpt>
<trkpt lat="46.0339650" lon="9.4874500">
	<ele>1484.40</ele>
	<time>2023-07-15T11:37:42.000Z</time>
</trkpt>
<trkpt lat="46.0339370" lon="9.4874340">
	<ele>1484.20</ele>
	<time>2023-07-15T11:37:44.000Z</time>
</trkpt>
<trkpt lat="46.0339260" lon="9.4874400">
	<ele>1483.60</ele>
	<time>2023-07-15T11:37:47.000Z</time>
</trkpt>
<trkpt lat="46.0339220" lon="9.4874330">
	<ele>1483.40</ele>
	<time>2023-07-15T11:37:48.000Z</time>
</trkpt>
<trkpt lat="46.0339210" lon="9.4874310">
	<ele>1483.20</ele>
	<time>2023-07-15T11:37:49.000Z</time>
</trkpt>
<trkpt lat="46.0339230" lon="9.4874310">
	<ele>1483.00</ele>
	<time>2023-07-15T11:37:50.000Z</time>
</trkpt>
<trkpt lat="46.0339250" lon="9.4874270">
	<ele>1482.80</ele>
	<time>2023-07-15T11:37:52.000Z</time>
</trkpt>
<trkpt lat="46.0339370" lon="9.4874220">
	<ele>1482.80</ele>
	<time>2023-07-15T11:37:54.000Z</time>
</trkpt>
<trkpt lat="46.0339400" lon="9.4874030">
	<ele>1482.80</ele>
	<time>2023-07-15T11:37:57.000Z</time>
</trkpt>
<trkpt lat="46.0339140" lon="9.4873950">
	<ele>1482.40</ele>
	<time>2023-07-15T11:38:00.000Z</time>
</trkpt>
<trkpt lat="46.0338610" lon="9.4873840">
	<ele>1482.00</ele>
	<time>2023-07-15T11:38:05.000Z</time>
</trkpt>
<trkpt lat="46.0338200" lon="9.4873830">
	<ele>1481.60</ele>
	<time>2023-07-15T11:38:08.000Z</time>
</trkpt>
<trkpt lat="46.0337530" lon="9.4873580">
	<ele>1481.00</ele>
	<time>2023-07-15T11:38:14.000Z</time>
</trkpt>
<trkpt lat="46.0337470" lon="9.4873520">
	<ele>1480.80</ele>
	<time>2023-07-15T11:38:15.000Z</time>
</trkpt>
<trkpt lat="46.0337320" lon="9.4873400">
	<ele>1479.80</ele>
	<time>2023-07-15T11:38:18.000Z</time>
</trkpt>
<trkpt lat="46.0337200" lon="9.4873270">
	<ele>1479.40</ele>
	<time>2023-07-15T11:38:20.000Z</time>
</trkpt>
<trkpt lat="46.0336950" lon="9.4873210">
	<ele>1479.00</ele>
	<time>2023-07-15T11:38:22.000Z</time>
</trkpt>
<trkpt lat="46.0336720" lon="9.4873230">
	<ele>1478.60</ele>
	<time>2023-07-15T11:38:24.000Z</time>
</trkpt>
<trkpt lat="46.0336620" lon="9.4873240">
	<ele>1478.20</ele>
	<time>2023-07-15T11:38:26.000Z</time>
</trkpt>
<trkpt lat="46.0336480" lon="9.4873250">
	<ele>1477.80</ele>
	<time>2023-07-15T11:38:27.000Z</time>
</trkpt>
<trkpt lat="46.0336290" lon="9.4873120">
	<ele>1477.60</ele>
	<time>2023-07-15T11:38:29.000Z</time>
</trkpt>
<trkpt lat="46.0336160" lon="9.4873090">
	<ele>1477.40</ele>
	<time>2023-07-15T11:38:31.000Z</time>
</trkpt>
<trkpt lat="46.0335840" lon="9.4872970">
	<ele>1477.00</ele>
	<time>2023-07-15T11:38:34.000Z</time>
</trkpt>
<trkpt lat="46.0335450" lon="9.4872790">
	<ele>1476.40</ele>
	<time>2023-07-15T11:38:37.000Z</time>
</trkpt>
<trkpt lat="46.0335320" lon="9.4872780">
	<ele>1476.20</ele>
	<time>2023-07-15T11:38:38.000Z</time>
</trkpt>
<trkpt lat="46.0334850" lon="9.4872790">
	<ele>1475.40</ele>
	<time>2023-07-15T11:38:43.000Z</time>
</trkpt>
<trkpt lat="46.0334830" lon="9.4872690">
	<ele>1475.20</ele>
	<time>2023-07-15T11:38:44.000Z</time>
</trkpt>
<trkpt lat="46.0334560" lon="9.4871610">
	<ele>1474.40</ele>
	<time>2023-07-15T11:38:51.000Z</time>
</trkpt>
<trkpt lat="46.0334690" lon="9.4871000">
	<ele>1473.60</ele>
	<time>2023-07-15T11:38:55.000Z</time>
</trkpt>
<trkpt lat="46.0334740" lon="9.4870980">
	<ele>1473.40</ele>
	<time>2023-07-15T11:38:56.000Z</time>
</trkpt>
<trkpt lat="46.0334730" lon="9.4871090">
	<ele>1473.20</ele>
	<time>2023-07-15T11:38:57.000Z</time>
</trkpt>
<trkpt lat="46.0334780" lon="9.4871100">
	<ele>1473.00</ele>
	<time>2023-07-15T11:38:58.000Z</time>
</trkpt>
<trkpt lat="46.0334940" lon="9.4871240">
	<ele>1473.00</ele>
	<time>2023-07-15T11:39:00.000Z</time>
</trkpt>
<trkpt lat="46.0335340" lon="9.4871350">
	<ele>1472.20</ele>
	<time>2023-07-15T11:39:04.000Z</time>
</trkpt>
<trkpt lat="46.0335810" lon="9.4871270">
	<ele>1471.00</ele>
	<time>2023-07-15T11:39:09.000Z</time>
</trkpt>
<trkpt lat="46.0336010" lon="9.4871280">
	<ele>1470.80</ele>
	<time>2023-07-15T11:39:11.000Z</time>
</trkpt>
<trkpt lat="46.0336530" lon="9.4871210">
	<ele>1470.20</ele>
	<time>2023-07-15T11:39:18.000Z</time>
</trkpt>
<trkpt lat="46.0336580" lon="9.4871200">
	<ele>1470.00</ele>
	<time>2023-07-15T11:39:19.000Z</time>
</trkpt>
<trkpt lat="46.0336860" lon="9.4871100">
	<ele>1469.00</ele>
	<time>2023-07-15T11:39:22.000Z</time>
</trkpt>
<trkpt lat="46.0336920" lon="9.4871030">
	<ele>1468.80</ele>
	<time>2023-07-15T11:39:23.000Z</time>
</trkpt>
<trkpt lat="46.0337030" lon="9.4870950">
	<ele>1468.60</ele>
	<time>2023-07-15T11:39:24.000Z</time>
</trkpt>
<trkpt lat="46.0337120" lon="9.4870970">
	<ele>1468.60</ele>
	<time>2023-07-15T11:39:25.000Z</time>
</trkpt>
<trkpt lat="46.0337500" lon="9.4871030">
	<ele>1468.00</ele>
	<time>2023-07-15T11:39:29.000Z</time>
</trkpt>
<trkpt lat="46.0337660" lon="9.4870830">
	<ele>1467.60</ele>
	<time>2023-07-15T11:39:31.000Z</time>
</trkpt>
<trkpt lat="46.0337730" lon="9.4870690">
	<ele>1467.40</ele>
	<time>2023-07-15T11:39:32.000Z</time>
</trkpt>
<trkpt lat="46.0338310" lon="9.4870600">
	<ele>1466.60</ele>
	<time>2023-07-15T11:39:36.000Z</time>
</trkpt>
<trkpt lat="46.0338380" lon="9.4870640">
	<ele>1466.40</ele>
	<time>2023-07-15T11:39:37.000Z</time>
</trkpt>
<trkpt lat="46.0338580" lon="9.4870630">
	<ele>1466.20</ele>
	<time>2023-07-15T11:39:39.000Z</time>
</trkpt>
<trkpt lat="46.0339070" lon="9.4870740">
	<ele>1465.20</ele>
	<time>2023-07-15T11:39:43.000Z</time>
</trkpt>
<trkpt lat="46.0339750" lon="9.4870880">
	<ele>1464.40</ele>
	<time>2023-07-15T11:39:49.000Z</time>
</trkpt>
<trkpt lat="46.0339960" lon="9.4870900">
	<ele>1464.00</ele>
	<time>2023-07-15T11:39:51.000Z</time>
</trkpt>
<trkpt lat="46.0340080" lon="9.4870820">
	<ele>1463.80</ele>
	<time>2023-07-15T11:39:52.000Z</time>
</trkpt>
<trkpt lat="46.0340380" lon="9.4870310">
	<ele>1463.40</ele>
	<time>2023-07-15T11:39:55.000Z</time>
</trkpt>
<trkpt lat="46.0340330" lon="9.4870200">
	<ele>1463.00</ele>
	<time>2023-07-15T11:39:57.000Z</time>
</trkpt>
<trkpt lat="46.0340260" lon="9.4870130">
	<ele>1462.80</ele>
	<time>2023-07-15T11:39:58.000Z</time>
</trkpt>
<trkpt lat="46.0340180" lon="9.4870120">
	<ele>1462.40</ele>
	<time>2023-07-15T11:40:00.000Z</time>
</trkpt>
<trkpt lat="46.0340110" lon="9.4870200">
	<ele>1462.20</ele>
	<time>2023-07-15T11:40:01.000Z</time>
</trkpt>
<trkpt lat="46.0339910" lon="9.4870350">
	<ele>1461.60</ele>
	<time>2023-07-15T11:40:03.000Z</time>
</trkpt>
<trkpt lat="46.0339800" lon="9.4870320">
	<ele>1461.20</ele>
	<time>2023-07-15T11:40:05.000Z</time>
</trkpt>
<trkpt lat="46.0339730" lon="9.4870340">
	<ele>1461.00</ele>
	<time>2023-07-15T11:40:07.000Z</time>
</trkpt>
<trkpt lat="46.0339730" lon="9.4870340">
	<ele>1461.00</ele>
	<time>2023-07-15T11:40:08.000Z</time>
</trkpt>
<trkpt lat="46.0339770" lon="9.4870330">
	<ele>1460.60</ele>
	<time>2023-07-15T11:40:10.000Z</time>
</trkpt>
<trkpt lat="46.0339620" lon="9.4870120">
	<ele>1459.80</ele>
	<time>2023-07-15T11:40:13.000Z</time>
</trkpt>
<trkpt lat="46.0339530" lon="9.4869950">
	<ele>1459.40</ele>
	<time>2023-07-15T11:40:15.000Z</time>
</trkpt>
<trkpt lat="46.0339240" lon="9.4869710">
	<ele>1458.80</ele>
	<time>2023-07-15T11:40:18.000Z</time>
</trkpt>
<trkpt lat="46.0338880" lon="9.4869640">
	<ele>1458.40</ele>
	<time>2023-07-15T11:40:20.000Z</time>
</trkpt>
<trkpt lat="46.0338610" lon="9.4869530">
	<ele>1458.40</ele>
	<time>2023-07-15T11:40:22.000Z</time>
</trkpt>
<trkpt lat="46.0338510" lon="9.4869420">
	<ele>1458.20</ele>
	<time>2023-07-15T11:40:23.000Z</time>
</trkpt>
<trkpt lat="46.0338290" lon="9.4869190">
	<ele>1457.80</ele>
	<time>2023-07-15T11:40:25.000Z</time>
</trkpt>
<trkpt lat="46.0337990" lon="9.4868940">
	<ele>1457.40</ele>
	<time>2023-07-15T11:40:28.000Z</time>
</trkpt>
<trkpt lat="46.0337740" lon="9.4868780">
	<ele>1456.80</ele>
	<time>2023-07-15T11:40:30.000Z</time>
</trkpt>
<trkpt lat="46.0337350" lon="9.4868670">
	<ele>1456.20</ele>
	<time>2023-07-15T11:40:33.000Z</time>
</trkpt>
<trkpt lat="46.0337280" lon="9.4868650">
	<ele>1456.20</ele>
	<time>2023-07-15T11:40:34.000Z</time>
</trkpt>
<trkpt lat="46.0337230" lon="9.4868480">
	<ele>1455.80</ele>
	<time>2023-07-15T11:40:36.000Z</time>
</trkpt>
<trkpt lat="46.0337060" lon="9.4868460">
	<ele>1455.40</ele>
	<time>2023-07-15T11:40:38.000Z</time>
</trkpt>
<trkpt lat="46.0336920" lon="9.4868380">
	<ele>1455.20</ele>
	<time>2023-07-15T11:40:39.000Z</time>
</trkpt>
<trkpt lat="46.0336870" lon="9.4868280">
	<ele>1455.00</ele>
	<time>2023-07-15T11:40:40.000Z</time>
</trkpt>
<trkpt lat="46.0336760" lon="9.4867920">
	<ele>1454.40</ele>
	<time>2023-07-15T11:40:43.000Z</time>
</trkpt>
<trkpt lat="46.0336740" lon="9.4867820">
	<ele>1454.20</ele>
	<time>2023-07-15T11:40:44.000Z</time>
</trkpt>
<trkpt lat="46.0337070" lon="9.4867500">
	<ele>1453.40</ele>
	<time>2023-07-15T11:40:49.000Z</time>
</trkpt>
<trkpt lat="46.0337230" lon="9.4867490">
	<ele>1453.20</ele>
	<time>2023-07-15T11:40:50.000Z</time>
</trkpt>
<trkpt lat="46.0337330" lon="9.4867400">
	<ele>1453.00</ele>
	<time>2023-07-15T11:40:51.000Z</time>
</trkpt>
<trkpt lat="46.0337540" lon="9.4867220">
	<ele>1452.20</ele>
	<time>2023-07-15T11:40:54.000Z</time>
</trkpt>
<trkpt lat="46.0337670" lon="9.4867010">
	<ele>1452.00</ele>
	<time>2023-07-15T11:40:56.000Z</time>
</trkpt>
<trkpt lat="46.0337870" lon="9.4866730">
	<ele>1451.80</ele>
	<time>2023-07-15T11:40:59.000Z</time>
</trkpt>
<trkpt lat="46.0338070" lon="9.4866500">
	<ele>1451.40</ele>
	<time>2023-07-15T11:41:01.000Z</time>
</trkpt>
<trkpt lat="46.0338240" lon="9.4866300">
	<ele>1451.20</ele>
	<time>2023-07-15T11:41:03.000Z</time>
</trkpt>
<trkpt lat="46.0338530" lon="9.4866220">
	<ele>1450.60</ele>
	<time>2023-07-15T11:41:06.000Z</time>
</trkpt>
<trkpt lat="46.0338910" lon="9.4866360">
	<ele>1450.40</ele>
	<time>2023-07-15T11:41:09.000Z</time>
</trkpt>
<trkpt lat="46.0339060" lon="9.4866380">
	<ele>1450.20</ele>
	<time>2023-07-15T11:41:10.000Z</time>
</trkpt>
<trkpt lat="46.0339210" lon="9.4866430">
	<ele>1450.00</ele>
	<time>2023-07-15T11:41:11.000Z</time>
</trkpt>
<trkpt lat="46.0339610" lon="9.4866520">
	<ele>1449.60</ele>
	<time>2023-07-15T11:41:14.000Z</time>
</trkpt>
<trkpt lat="46.0340320" lon="9.4866600">
	<ele>1448.80</ele>
	<time>2023-07-15T11:41:19.000Z</time>
</trkpt>
<trkpt lat="46.0340710" lon="9.4866490">
	<ele>1448.40</ele>
	<time>2023-07-15T11:41:23.000Z</time>
</trkpt>
<trkpt lat="46.0340850" lon="9.4866330">
	<ele>1448.00</ele>
	<time>2023-07-15T11:41:26.000Z</time>
</trkpt>
<trkpt lat="46.0340830" lon="9.4866260">
	<ele>1447.80</ele>
	<time>2023-07-15T11:41:28.000Z</time>
</trkpt>
<trkpt lat="46.0340860" lon="9.4866200">
	<ele>1447.60</ele>
	<time>2023-07-15T11:41:29.000Z</time>
</trkpt>
<trkpt lat="46.0340650" lon="9.4865760">
	<ele>1447.00</ele>
	<time>2023-07-15T11:41:32.000Z</time>
</trkpt>
<trkpt lat="46.0340530" lon="9.4865760">
	<ele>1446.80</ele>
	<time>2023-07-15T11:41:33.000Z</time>
</trkpt>
<trkpt lat="46.0340350" lon="9.4865790">
	<ele>1446.80</ele>
	<time>2023-07-15T11:41:34.000Z</time>
</trkpt>
<trkpt lat="46.0340210" lon="9.4865770">
	<ele>1446.40</ele>
	<time>2023-07-15T11:41:35.000Z</time>
</trkpt>
<trkpt lat="46.0340150" lon="9.4865870">
	<ele>1446.20</ele>
	<time>2023-07-15T11:41:36.000Z</time>
</trkpt>
<trkpt lat="46.0340060" lon="9.4865930">
	<ele>1445.80</ele>
	<time>2023-07-15T11:41:37.000Z</time>
</trkpt>
<trkpt lat="46.0339990" lon="9.4865940">
	<ele>1445.60</ele>
	<time>2023-07-15T11:41:38.000Z</time>
</trkpt>
<trkpt lat="46.0339840" lon="9.4865980">
	<ele>1445.40</ele>
	<time>2023-07-15T11:41:40.000Z</time>
</trkpt>
<trkpt lat="46.0339340" lon="9.4865820">
	<ele>1444.60</ele>
	<time>2023-07-15T11:41:47.000Z</time>
</trkpt>
<trkpt lat="46.0339290" lon="9.4865720">
	<ele>1444.20</ele>
	<time>2023-07-15T11:41:49.000Z</time>
</trkpt>
<trkpt lat="46.0339180" lon="9.4865610">
	<ele>1444.00</ele>
	<time>2023-07-15T11:41:51.000Z</time>
</trkpt>
<trkpt lat="46.0338990" lon="9.4865590">
	<ele>1443.40</ele>
	<time>2023-07-15T11:41:53.000Z</time>
</trkpt>
<trkpt lat="46.0338890" lon="9.4865610">
	<ele>1443.20</ele>
	<time>2023-07-15T11:41:54.000Z</time>
</trkpt>
<trkpt lat="46.0338780" lon="9.4865420">
	<ele>1442.40</ele>
	<time>2023-07-15T11:41:57.000Z</time>
</trkpt>
<trkpt lat="46.0338750" lon="9.4865370">
	<ele>1442.20</ele>
	<time>2023-07-15T11:41:58.000Z</time>
</trkpt>
<trkpt lat="46.0338640" lon="9.4865360">
	<ele>1442.00</ele>
	<time>2023-07-15T11:41:59.000Z</time>
</trkpt>
<trkpt lat="46.0338430" lon="9.4865150">
	<ele>1441.40</ele>
	<time>2023-07-15T11:42:01.000Z</time>
</trkpt>
<trkpt lat="46.0338350" lon="9.4865070">
	<ele>1441.20</ele>
	<time>2023-07-15T11:42:02.000Z</time>
</trkpt>
<trkpt lat="46.0337990" lon="9.4864850">
	<ele>1440.80</ele>
	<time>2023-07-15T11:42:06.000Z</time>
</trkpt>
<trkpt lat="46.0337880" lon="9.4864840">
	<ele>1440.40</ele>
	<time>2023-07-15T11:42:08.000Z</time>
</trkpt>
<trkpt lat="46.0337820" lon="9.4864840">
	<ele>1440.20</ele>
	<time>2023-07-15T11:42:09.000Z</time>
</trkpt>
<trkpt lat="46.0337740" lon="9.4864810">
	<ele>1440.20</ele>
	<time>2023-07-15T11:42:10.000Z</time>
</trkpt>
<trkpt lat="46.0337660" lon="9.4864690">
	<ele>1440.00</ele>
	<time>2023-07-15T11:42:12.000Z</time>
</trkpt>
<trkpt lat="46.0337760" lon="9.4863970">
	<ele>1439.20</ele>
	<time>2023-07-15T11:42:16.000Z</time>
</trkpt>
<trkpt lat="46.0337840" lon="9.4863800">
	<ele>1439.00</ele>
	<time>2023-07-15T11:42:17.000Z</time>
</trkpt>
<trkpt lat="46.0337970" lon="9.4863670">
	<ele>1438.80</ele>
	<time>2023-07-15T11:42:18.000Z</time>
</trkpt>
<trkpt lat="46.0338270" lon="9.4863290">
	<ele>1438.00</ele>
	<time>2023-07-15T11:42:22.000Z</time>
</trkpt>
<trkpt lat="46.0338420" lon="9.4863220">
	<ele>1437.60</ele>
	<time>2023-07-15T11:42:24.000Z</time>
</trkpt>
<trkpt lat="46.0338500" lon="9.4863120">
	<ele>1437.20</ele>
	<time>2023-07-15T11:42:26.000Z</time>
</trkpt>
<trkpt lat="46.0338650" lon="9.4862940">
	<ele>1436.80</ele>
	<time>2023-07-15T11:42:28.000Z</time>
</trkpt>
<trkpt lat="46.0338810" lon="9.4862860">
	<ele>1436.20</ele>
	<time>2023-07-15T11:42:30.000Z</time>
</trkpt>
<trkpt lat="46.0339040" lon="9.4862850">
	<ele>1435.80</ele>
	<time>2023-07-15T11:42:33.000Z</time>
</trkpt>
<trkpt lat="46.0339040" lon="9.4862830">
	<ele>1435.80</ele>
	<time>2023-07-15T11:42:34.000Z</time>
</trkpt>
<trkpt lat="46.0339180" lon="9.4862930">
	<ele>1435.40</ele>
	<time>2023-07-15T11:42:36.000Z</time>
</trkpt>
<trkpt lat="46.0339440" lon="9.4862860">
	<ele>1435.00</ele>
	<time>2023-07-15T11:42:38.000Z</time>
</trkpt>
<trkpt lat="46.0339730" lon="9.4862740">
	<ele>1434.80</ele>
	<time>2023-07-15T11:42:40.000Z</time>
</trkpt>
<trkpt lat="46.0339860" lon="9.4862540">
	<ele>1433.60</ele>
	<time>2023-07-15T11:42:45.000Z</time>
</trkpt>
<trkpt lat="46.0339900" lon="9.4862420">
	<ele>1433.40</ele>
	<time>2023-07-15T11:42:46.000Z</time>
</trkpt>
<trkpt lat="46.0339930" lon="9.4862310">
	<ele>1433.20</ele>
	<time>2023-07-15T11:42:47.000Z</time>
</trkpt>
<trkpt lat="46.0340160" lon="9.4862110">
	<ele>1432.60</ele>
	<time>2023-07-15T11:42:50.000Z</time>
</trkpt>
<trkpt lat="46.0340440" lon="9.4861810">
	<ele>1432.20</ele>
	<time>2023-07-15T11:42:53.000Z</time>
</trkpt>
<trkpt lat="46.0340660" lon="9.4861530">
	<ele>1431.40</ele>
	<time>2023-07-15T11:42:56.000Z</time>
</trkpt>
<trkpt lat="46.0341080" lon="9.4861330">
	<ele>1430.80</ele>
	<time>2023-07-15T11:43:00.000Z</time>
</trkpt>
<trkpt lat="46.0341220" lon="9.4861280">
	<ele>1430.20</ele>
	<time>2023-07-15T11:43:03.000Z</time>
</trkpt>
<trkpt lat="46.0341410" lon="9.4861220">
	<ele>1429.40</ele>
	<time>2023-07-15T11:43:06.000Z</time>
</trkpt>
<trkpt lat="46.0341580" lon="9.4861160">
	<ele>1429.00</ele>
	<time>2023-07-15T11:43:08.000Z</time>
</trkpt>
<trkpt lat="46.0341610" lon="9.4861090">
	<ele>1428.80</ele>
	<time>2023-07-15T11:43:10.000Z</time>
</trkpt>
<trkpt lat="46.0341690" lon="9.4861070">
	<ele>1428.60</ele>
	<time>2023-07-15T11:43:11.000Z</time>
</trkpt>
<trkpt lat="46.0341880" lon="9.4861100">
	<ele>1428.40</ele>
	<time>2023-07-15T11:43:13.000Z</time>
</trkpt>
<trkpt lat="46.0342080" lon="9.4860980">
	<ele>1427.80</ele>
	<time>2023-07-15T11:43:16.000Z</time>
</trkpt>
<trkpt lat="46.0342310" lon="9.4860800">
	<ele>1426.60</ele>
	<time>2023-07-15T11:43:20.000Z</time>
</trkpt>
<trkpt lat="46.0342310" lon="9.4860780">
	<ele>1426.40</ele>
	<time>2023-07-15T11:43:21.000Z</time>
</trkpt>
<trkpt lat="46.0342310" lon="9.4860760">
	<ele>1426.20</ele>
	<time>2023-07-15T11:43:22.000Z</time>
</trkpt>
<trkpt lat="46.0342300" lon="9.4860690">
	<ele>1426.20</ele>
	<time>2023-07-15T11:43:23.000Z</time>
</trkpt>
<trkpt lat="46.0342140" lon="9.4860360">
	<ele>1425.60</ele>
	<time>2023-07-15T11:43:27.000Z</time>
</trkpt>
<trkpt lat="46.0342050" lon="9.4860350">
	<ele>1425.40</ele>
	<time>2023-07-15T11:43:28.000Z</time>
</trkpt>
<trkpt lat="46.0341770" lon="9.4859990">
	<ele>1424.40</ele>
	<time>2023-07-15T11:43:33.000Z</time>
</trkpt>
<trkpt lat="46.0341690" lon="9.4859840">
	<ele>1424.20</ele>
	<time>2023-07-15T11:43:34.000Z</time>
</trkpt>
<trkpt lat="46.0341690" lon="9.4859520">
	<ele>1423.20</ele>
	<time>2023-07-15T11:43:38.000Z</time>
</trkpt>
<trkpt lat="46.0341540" lon="9.4859160">
	<ele>1422.40</ele>
	<time>2023-07-15T11:43:41.000Z</time>
</trkpt>
<trkpt lat="46.0341530" lon="9.4859050">
	<ele>1422.20</ele>
	<time>2023-07-15T11:43:42.000Z</time>
</trkpt>
<trkpt lat="46.0341500" lon="9.4858910">
	<ele>1422.00</ele>
	<time>2023-07-15T11:43:43.000Z</time>
</trkpt>
<trkpt lat="46.0341390" lon="9.4858820">
	<ele>1421.60</ele>
	<time>2023-07-15T11:43:45.000Z</time>
</trkpt>
<trkpt lat="46.0341350" lon="9.4858740">
	<ele>1421.20</ele>
	<time>2023-07-15T11:43:47.000Z</time>
</trkpt>
<trkpt lat="46.0341360" lon="9.4858670">
	<ele>1421.20</ele>
	<time>2023-07-15T11:43:48.000Z</time>
</trkpt>
<trkpt lat="46.0340920" lon="9.4858480">
	<ele>1420.20</ele>
	<time>2023-07-15T11:43:54.000Z</time>
</trkpt>
<trkpt lat="46.0340880" lon="9.4858370">
	<ele>1420.00</ele>
	<time>2023-07-15T11:43:56.000Z</time>
</trkpt>
<trkpt lat="46.0340770" lon="9.4857860">
	<ele>1419.00</ele>
	<time>2023-07-15T11:44:01.000Z</time>
</trkpt>
<trkpt lat="46.0340680" lon="9.4857600">
	<ele>1418.20</ele>
	<time>2023-07-15T11:44:04.000Z</time>
</trkpt>
<trkpt lat="46.0340570" lon="9.4857510">
	<ele>1417.80</ele>
	<time>2023-07-15T11:44:06.000Z</time>
</trkpt>
<trkpt lat="46.0340540" lon="9.4857510">
	<ele>1417.60</ele>
	<time>2023-07-15T11:44:07.000Z</time>
</trkpt>
<trkpt lat="46.0340320" lon="9.4857180">
	<ele>1416.60</ele>
	<time>2023-07-15T11:44:11.000Z</time>
</trkpt>
<trkpt lat="46.0340250" lon="9.4857090">
	<ele>1416.40</ele>
	<time>2023-07-15T11:44:12.000Z</time>
</trkpt>
<trkpt lat="46.0340160" lon="9.4857120">
	<ele>1415.80</ele>
	<time>2023-07-15T11:44:14.000Z</time>
</trkpt>
<trkpt lat="46.0340140" lon="9.4857010">
	<ele>1415.40</ele>
	<time>2023-07-15T11:44:16.000Z</time>
</trkpt>
<trkpt lat="46.0340090" lon="9.4856840">
	<ele>1415.20</ele>
	<time>2023-07-15T11:44:18.000Z</time>
</trkpt>
<trkpt lat="46.0340010" lon="9.4856760">
	<ele>1414.80</ele>
	<time>2023-07-15T11:44:20.000Z</time>
</trkpt>
<trkpt lat="46.0339910" lon="9.4856630">
	<ele>1414.40</ele>
	<time>2023-07-15T11:44:21.000Z</time>
</trkpt>
<trkpt lat="46.0339720" lon="9.4856420">
	<ele>1413.80</ele>
	<time>2023-07-15T11:44:23.000Z</time>
</trkpt>
<trkpt lat="46.0339700" lon="9.4856370">
	<ele>1413.40</ele>
	<time>2023-07-15T11:44:24.000Z</time>
</trkpt>
<trkpt lat="46.0339680" lon="9.4856320">
	<ele>1413.20</ele>
	<time>2023-07-15T11:44:25.000Z</time>
</trkpt>
<trkpt lat="46.0339480" lon="9.4856240">
	<ele>1413.00</ele>
	<time>2023-07-15T11:44:28.000Z</time>
</trkpt>
<trkpt lat="46.0339380" lon="9.4856160">
	<ele>1412.60</ele>
	<time>2023-07-15T11:44:30.000Z</time>
</trkpt>
<trkpt lat="46.0339380" lon="9.4856260">
	<ele>1412.40</ele>
	<time>2023-07-15T11:44:31.000Z</time>
</trkpt>
<trkpt lat="46.0339290" lon="9.4856340">
	<ele>1412.40</ele>
	<time>2023-07-15T11:44:33.000Z</time>
</trkpt>
<trkpt lat="46.0339250" lon="9.4856420">
	<ele>1412.20</ele>
	<time>2023-07-15T11:44:34.000Z</time>
</trkpt>
<trkpt lat="46.0339360" lon="9.4856040">
	<ele>1412.00</ele>
	<time>2023-07-15T11:44:38.000Z</time>
</trkpt>
<trkpt lat="46.0339660" lon="9.4855550">
	<ele>1411.20</ele>
	<time>2023-07-15T11:44:45.000Z</time>
</trkpt>
<trkpt lat="46.0339730" lon="9.4855480">
	<ele>1411.00</ele>
	<time>2023-07-15T11:44:46.000Z</time>
</trkpt>
<trkpt lat="46.0339780" lon="9.4855350">
	<ele>1409.80</ele>
	<time>2023-07-15T11:44:49.000Z</time>
</trkpt>
<trkpt lat="46.0339810" lon="9.4855250">
	<ele>1409.20</ele>
	<time>2023-07-15T11:44:51.000Z</time>
</trkpt>
<trkpt lat="46.0339840" lon="9.4855220">
	<ele>1408.80</ele>
	<time>2023-07-15T11:44:52.000Z</time>
</trkpt>
<trkpt lat="46.0339830" lon="9.4855190">
	<ele>1408.60</ele>
	<time>2023-07-15T11:44:53.000Z</time>
</trkpt>
<trkpt lat="46.0339970" lon="9.4854810">
	<ele>1407.40</ele>
	<time>2023-07-15T11:44:57.000Z</time>
</trkpt>
<trkpt lat="46.0340090" lon="9.4854240">
	<ele>1405.80</ele>
	<time>2023-07-15T11:45:01.000Z</time>
</trkpt>
<trkpt lat="46.0340150" lon="9.4854160">
	<ele>1405.60</ele>
	<time>2023-07-15T11:45:02.000Z</time>
</trkpt>
<trkpt lat="46.0340240" lon="9.4854040">
	<ele>1404.80</ele>
	<time>2023-07-15T11:45:04.000Z</time>
</trkpt>
<trkpt lat="46.0340030" lon="9.4853890">
	<ele>1403.80</ele>
	<time>2023-07-15T11:45:07.000Z</time>
</trkpt>
<trkpt lat="46.0340020" lon="9.4853530">
	<ele>1402.60</ele>
	<time>2023-07-15T11:45:10.000Z</time>
</trkpt>
<trkpt lat="46.0339870" lon="9.4853350">
	<ele>1401.60</ele>
	<time>2023-07-15T11:45:13.000Z</time>
</trkpt>
<trkpt lat="46.0339640" lon="9.4853160">
	<ele>1400.60</ele>
	<time>2023-07-15T11:45:16.000Z</time>
</trkpt>
<trkpt lat="46.0339500" lon="9.4852740">
	<ele>1399.20</ele>
	<time>2023-07-15T11:45:19.000Z</time>
</trkpt>
<trkpt lat="46.0339450" lon="9.4852530">
	<ele>1399.00</ele>
	<time>2023-07-15T11:45:20.000Z</time>
</trkpt>
<trkpt lat="46.0339720" lon="9.4851870">
	<ele>1398.00</ele>
	<time>2023-07-15T11:45:23.000Z</time>
</trkpt>
<trkpt lat="46.0339740" lon="9.4851440">
	<ele>1397.00</ele>
	<time>2023-07-15T11:45:26.000Z</time>
</trkpt>
<trkpt lat="46.0339150" lon="9.4851000">
	<ele>1395.80</ele>
	<time>2023-07-15T11:45:31.000Z</time>
</trkpt>
<trkpt lat="46.0339150" lon="9.4850910">
	<ele>1395.40</ele>
	<time>2023-07-15T11:45:32.000Z</time>
</trkpt>
<trkpt lat="46.0339280" lon="9.4850750">
	<ele>1394.60</ele>
	<time>2023-07-15T11:45:35.000Z</time>
</trkpt>
<trkpt lat="46.0339340" lon="9.4850740">
	<ele>1394.40</ele>
	<time>2023-07-15T11:45:36.000Z</time>
</trkpt>
<trkpt lat="46.0339290" lon="9.4850460">
	<ele>1393.60</ele>
	<time>2023-07-15T11:45:40.000Z</time>
</trkpt>
<trkpt lat="46.0339640" lon="9.4850310">
	<ele>1392.40</ele>
	<time>2023-07-15T11:45:44.000Z</time>
</trkpt>
<trkpt lat="46.0339640" lon="9.4850220">
	<ele>1392.20</ele>
	<time>2023-07-15T11:45:46.000Z</time>
</trkpt>
<trkpt lat="46.0339810" lon="9.4849840">
	<ele>1391.60</ele>
	<time>2023-07-15T11:45:51.000Z</time>
</trkpt>
<trkpt lat="46.0339860" lon="9.4849660">
	<ele>1391.40</ele>
	<time>2023-07-15T11:45:54.000Z</time>
</trkpt>
<trkpt lat="46.0339960" lon="9.4849670">
	<ele>1391.80</ele>
	<time>2023-07-15T11:45:57.000Z</time>
</trkpt>
<trkpt lat="46.0340000" lon="9.4849740">
	<ele>1391.80</ele>
	<time>2023-07-15T11:46:00.000Z</time>
</trkpt>
<trkpt lat="46.0339990" lon="9.4849770">
	<ele>1391.60</ele>
	<time>2023-07-15T11:46:03.000Z</time>
</trkpt>
<trkpt lat="46.0339750" lon="9.4849730">
	<ele>1390.40</ele>
	<time>2023-07-15T11:46:08.000Z</time>
</trkpt>
<trkpt lat="46.0339810" lon="9.4849240">
	<ele>1389.00</ele>
	<time>2023-07-15T11:46:15.000Z</time>
</trkpt>
<trkpt lat="46.0339830" lon="9.4849150">
	<ele>1387.80</ele>
	<time>2023-07-15T11:46:19.000Z</time>
</trkpt>
<trkpt lat="46.0339880" lon="9.4848930">
	<ele>1386.80</ele>
	<time>2023-07-15T11:46:22.000Z</time>
</trkpt>
<trkpt lat="46.0340180" lon="9.4848390">
	<ele>1385.40</ele>
	<time>2023-07-15T11:46:26.000Z</time>
</trkpt>
<trkpt lat="46.0340250" lon="9.4848360">
	<ele>1384.60</ele>
	<time>2023-07-15T11:46:28.000Z</time>
</trkpt>
<trkpt lat="46.0340230" lon="9.4848260">
	<ele>1384.40</ele>
	<time>2023-07-15T11:46:29.000Z</time>
</trkpt>
<trkpt lat="46.0340340" lon="9.4848170">
	<ele>1383.80</ele>
	<time>2023-07-15T11:46:31.000Z</time>
</trkpt>
<trkpt lat="46.0340430" lon="9.4848120">
	<ele>1383.40</ele>
	<time>2023-07-15T11:46:32.000Z</time>
</trkpt>
<trkpt lat="46.0340470" lon="9.4847930">
	<ele>1383.00</ele>
	<time>2023-07-15T11:46:33.000Z</time>
</trkpt>
<trkpt lat="46.0340640" lon="9.4847400">
	<ele>1382.20</ele>
	<time>2023-07-15T11:46:35.000Z</time>
</trkpt>
<trkpt lat="46.0340710" lon="9.4847360">
	<ele>1381.80</ele>
	<time>2023-07-15T11:46:36.000Z</time>
</trkpt>
<trkpt lat="46.0340750" lon="9.4847320">
	<ele>1381.40</ele>
	<time>2023-07-15T11:46:37.000Z</time>
</trkpt>
<trkpt lat="46.0340720" lon="9.4847140">
	<ele>1380.80</ele>
	<time>2023-07-15T11:46:40.000Z</time>
</trkpt>
<trkpt lat="46.0340690" lon="9.4846890">
	<ele>1380.60</ele>
	<time>2023-07-15T11:46:42.000Z</time>
</trkpt>
<trkpt lat="46.0340650" lon="9.4846590">
	<ele>1379.80</ele>
	<time>2023-07-15T11:46:45.000Z</time>
</trkpt>
<trkpt lat="46.0340810" lon="9.4846580">
	<ele>1379.20</ele>
	<time>2023-07-15T11:46:49.000Z</time>
</trkpt>
<trkpt lat="46.0340960" lon="9.4846550">
	<ele>1378.60</ele>
	<time>2023-07-15T11:46:51.000Z</time>
</trkpt>
<trkpt lat="46.0341540" lon="9.4846790">
	<ele>1378.00</ele>
	<time>2023-07-15T11:46:56.000Z</time>
</trkpt>
<trkpt lat="46.0341640" lon="9.4846840">
	<ele>1378.60</ele>
	<time>2023-07-15T11:47:00.000Z</time>
</trkpt>
<trkpt lat="46.0341690" lon="9.4846820">
	<ele>1378.60</ele>
	<time>2023-07-15T11:47:03.000Z</time>
</trkpt>
<trkpt lat="46.0341500" lon="9.4846300">
	<ele>1377.80</ele>
	<time>2023-07-15T11:47:08.000Z</time>
</trkpt>
<trkpt lat="46.0341360" lon="9.4846250">
	<ele>1377.60</ele>
	<time>2023-07-15T11:47:12.000Z</time>
</trkpt>
<trkpt lat="46.0341380" lon="9.4846240">
	<ele>1377.60</ele>
	<time>2023-07-15T11:47:13.000Z</time>
</trkpt>
<trkpt lat="46.0341380" lon="9.4845970">
	<ele>1377.00</ele>
	<time>2023-07-15T11:47:18.000Z</time>
</trkpt>
<trkpt lat="46.0341260" lon="9.4845770">
	<ele>1376.60</ele>
	<time>2023-07-15T11:47:20.000Z</time>
</trkpt>
<trkpt lat="46.0340870" lon="9.4845530">
	<ele>1375.80</ele>
	<time>2023-07-15T11:47:24.000Z</time>
</trkpt>
<trkpt lat="46.0340760" lon="9.4845340">
	<ele>1375.40</ele>
	<time>2023-07-15T11:47:26.000Z</time>
</trkpt>
<trkpt lat="46.0340780" lon="9.4845100">
	<ele>1374.60</ele>
	<time>2023-07-15T11:47:30.000Z</time>
</trkpt>
<trkpt lat="46.0340770" lon="9.4844950">
	<ele>1374.00</ele>
	<time>2023-07-15T11:47:32.000Z</time>
</trkpt>
<trkpt lat="46.0340890" lon="9.4844890">
	<ele>1373.20</ele>
	<time>2023-07-15T11:47:35.000Z</time>
</trkpt>
<trkpt lat="46.0340820" lon="9.4844850">
	<ele>1372.80</ele>
	<time>2023-07-15T11:47:36.000Z</time>
</trkpt>
<trkpt lat="46.0340880" lon="9.4844800">
	<ele>1371.80</ele>
	<time>2023-07-15T11:47:40.000Z</time>
</trkpt>
<trkpt lat="46.0340920" lon="9.4843990">
	<ele>1370.80</ele>
	<time>2023-07-15T11:47:44.000Z</time>
</trkpt>
<trkpt lat="46.0340970" lon="9.4843700">
	<ele>1370.00</ele>
	<time>2023-07-15T11:47:46.000Z</time>
</trkpt>
<trkpt lat="46.0341060" lon="9.4843440">
	<ele>1369.40</ele>
	<time>2023-07-15T11:47:48.000Z</time>
</trkpt>
<trkpt lat="46.0341200" lon="9.4842920">
	<ele>1368.40</ele>
	<time>2023-07-15T11:47:52.000Z</time>
</trkpt>
<trkpt lat="46.0341270" lon="9.4842760">
	<ele>1368.00</ele>
	<time>2023-07-15T11:47:53.000Z</time>
</trkpt>
<trkpt lat="46.0341410" lon="9.4842180">
	<ele>1367.20</ele>
	<time>2023-07-15T11:47:56.000Z</time>
</trkpt>
<trkpt lat="46.0341450" lon="9.4842040">
	<ele>1366.80</ele>
	<time>2023-07-15T11:47:57.000Z</time>
</trkpt>
<trkpt lat="46.0341460" lon="9.4841700">
	<ele>1366.20</ele>
	<time>2023-07-15T11:48:00.000Z</time>
</trkpt>
<trkpt lat="46.0341150" lon="9.4841160">
	<ele>1365.40</ele>
	<time>2023-07-15T11:48:03.000Z</time>
</trkpt>
<trkpt lat="46.0341120" lon="9.4841080">
	<ele>1365.00</ele>
	<time>2023-07-15T11:48:04.000Z</time>
</trkpt>
<trkpt lat="46.0340760" lon="9.4840570">
	<ele>1364.20</ele>
	<time>2023-07-15T11:48:09.000Z</time>
</trkpt>
<trkpt lat="46.0340910" lon="9.4840060">
	<ele>1363.80</ele>
	<time>2023-07-15T11:48:12.000Z</time>
</trkpt>
<trkpt lat="46.0341350" lon="9.4839750">
	<ele>1363.00</ele>
	<time>2023-07-15T11:48:16.000Z</time>
</trkpt>
<trkpt lat="46.0341380" lon="9.4839830">
	<ele>1362.60</ele>
	<time>2023-07-15T11:48:17.000Z</time>
</trkpt>
<trkpt lat="46.0341310" lon="9.4840080">
	<ele>1361.40</ele>
	<time>2023-07-15T11:48:21.000Z</time>
</trkpt>
<trkpt lat="46.0341290" lon="9.4840100">
	<ele>1361.40</ele>
	<time>2023-07-15T11:48:22.000Z</time>
</trkpt>
<trkpt lat="46.0341310" lon="9.4840070">
	<ele>1361.20</ele>
	<time>2023-07-15T11:48:33.000Z</time>
</trkpt>
<trkpt lat="46.0341530" lon="9.4839710">
	<ele>1360.80</ele>
	<time>2023-07-15T11:49:28.000Z</time>
</trkpt>
<trkpt lat="46.0341530" lon="9.4839690">
	<ele>1360.60</ele>
	<time>2023-07-15T11:49:40.000Z</time>
</trkpt>
<trkpt lat="46.0341580" lon="9.4839780">
	<ele>1360.60</ele>
	<time>2023-07-15T11:49:44.000Z</time>
</trkpt>
<trkpt lat="46.0341680" lon="9.4839850">
	<ele>1360.40</ele>
	<time>2023-07-15T11:49:47.000Z</time>
</trkpt>
<trkpt lat="46.0341660" lon="9.4839850">
	<ele>1360.60</ele>
	<time>2023-07-15T11:49:48.000Z</time>
</trkpt>
<trkpt lat="46.0341620" lon="9.4839910">
	<ele>1361.20</ele>
	<time>2023-07-15T11:49:54.000Z</time>
</trkpt>
<trkpt lat="46.0341740" lon="9.4839840">
	<ele>1361.20</ele>
	<time>2023-07-15T11:50:00.000Z</time>
</trkpt>
<trkpt lat="46.0342090" lon="9.4839280">
	<ele>1360.40</ele>
	<time>2023-07-15T11:50:07.000Z</time>
</trkpt>
<trkpt lat="46.0342220" lon="9.4839190">
	<ele>1360.40</ele>
	<time>2023-07-15T11:50:08.000Z</time>
</trkpt>
<trkpt lat="46.0342450" lon="9.4839030">
	<ele>1359.80</ele>
	<time>2023-07-15T11:50:11.000Z</time>
</trkpt>
<trkpt lat="46.0342460" lon="9.4839070">
	<ele>1359.60</ele>
	<time>2023-07-15T11:50:14.000Z</time>
</trkpt>
<trkpt lat="46.0342570" lon="9.4838850">
	<ele>1359.60</ele>
	<time>2023-07-15T11:50:19.000Z</time>
</trkpt>
<trkpt lat="46.0342450" lon="9.4839000">
	<ele>1359.60</ele>
	<time>2023-07-15T11:50:21.000Z</time>
</trkpt>
<trkpt lat="46.0342400" lon="9.4839230">
	<ele>1360.00</ele>
	<time>2023-07-15T11:50:27.000Z</time>
</trkpt>
<trkpt lat="46.0342440" lon="9.4839190">
	<ele>1360.20</ele>
	<time>2023-07-15T11:50:37.000Z</time>
</trkpt>
<trkpt lat="46.0342560" lon="9.4839070">
	<ele>1359.80</ele>
	<time>2023-07-15T11:50:38.000Z</time>
</trkpt>
<trkpt lat="46.0342750" lon="9.4838810">
	<ele>1359.60</ele>
	<time>2023-07-15T11:50:40.000Z</time>
</trkpt>
<trkpt lat="46.0343000" lon="9.4838550">
	<ele>1359.60</ele>
	<time>2023-07-15T11:50:42.000Z</time>
</trkpt>
<trkpt lat="46.0343110" lon="9.4838430">
	<ele>1359.40</ele>
	<time>2023-07-15T11:50:43.000Z</time>
</trkpt>
<trkpt lat="46.0343230" lon="9.4838270">
	<ele>1359.40</ele>
	<time>2023-07-15T11:50:44.000Z</time>
</trkpt>
<trkpt lat="46.0343820" lon="9.4837420">
	<ele>1358.80</ele>
	<time>2023-07-15T11:50:48.000Z</time>
</trkpt>
<trkpt lat="46.0343990" lon="9.4837230">
	<ele>1358.60</ele>
	<time>2023-07-15T11:50:49.000Z</time>
</trkpt>
<trkpt lat="46.0344240" lon="9.4837030">
	<ele>1358.20</ele>
	<time>2023-07-15T11:50:51.000Z</time>
</trkpt>
<trkpt lat="46.0344290" lon="9.4836810">
	<ele>1357.80</ele>
	<time>2023-07-15T11:50:53.000Z</time>
</trkpt>
<trkpt lat="46.0344140" lon="9.4836330">
	<ele>1357.60</ele>
	<time>2023-07-15T11:50:55.000Z</time>
</trkpt>
<trkpt lat="46.0344070" lon="9.4835460">
	<ele>1357.00</ele>
	<time>2023-07-15T11:51:00.000Z</time>
</trkpt>
<trkpt lat="46.0344070" lon="9.4835320">
	<ele>1356.80</ele>
	<time>2023-07-15T11:51:01.000Z</time>
</trkpt>
<trkpt lat="46.0344140" lon="9.4834550">
	<ele>1356.00</ele>
	<time>2023-07-15T11:51:05.000Z</time>
</trkpt>
<trkpt lat="46.0344290" lon="9.4833770">
	<ele>1355.20</ele>
	<time>2023-07-15T11:51:09.000Z</time>
</trkpt>
<trkpt lat="46.0344230" lon="9.4833630">
	<ele>1355.00</ele>
	<time>2023-07-15T11:51:10.000Z</time>
</trkpt>
<trkpt lat="46.0344330" lon="9.4832290">
	<ele>1353.80</ele>
	<time>2023-07-15T11:51:15.000Z</time>
</trkpt>
<trkpt lat="46.0344350" lon="9.4832230">
	<ele>1353.80</ele>
	<time>2023-07-15T11:51:16.000Z</time>
</trkpt>
<trkpt lat="46.0344310" lon="9.4832080">
	<ele>1353.40</ele>
	<time>2023-07-15T11:51:18.000Z</time>
</trkpt>
<trkpt lat="46.0344370" lon="9.4831550">
	<ele>1352.60</ele>
	<time>2023-07-15T11:51:21.000Z</time>
</trkpt>
<trkpt lat="46.0344390" lon="9.4830820">
	<ele>1351.80</ele>
	<time>2023-07-15T11:51:24.000Z</time>
</trkpt>
<trkpt lat="46.0344410" lon="9.4830660">
	<ele>1351.40</ele>
	<time>2023-07-15T11:51:25.000Z</time>
</trkpt>
<trkpt lat="46.0344520" lon="9.4830030">
	<ele>1350.40</ele>
	<time>2023-07-15T11:51:30.000Z</time>
</trkpt>
<trkpt lat="46.0344600" lon="9.4829950">
	<ele>1350.20</ele>
	<time>2023-07-15T11:51:31.000Z</time>
</trkpt>
<trkpt lat="46.0344680" lon="9.4829840">
	<ele>1350.00</ele>
	<time>2023-07-15T11:51:32.000Z</time>
</trkpt>
<trkpt lat="46.0345020" lon="9.4829620">
	<ele>1349.40</ele>
	<time>2023-07-15T11:51:35.000Z</time>
</trkpt>
<trkpt lat="46.0345200" lon="9.4829430">
	<ele>1349.00</ele>
	<time>2023-07-15T11:51:37.000Z</time>
</trkpt>
<trkpt lat="46.0345250" lon="9.4829320">
	<ele>1348.80</ele>
	<time>2023-07-15T11:51:38.000Z</time>
</trkpt>
<trkpt lat="46.0345060" lon="9.4829240">
	<ele>1348.60</ele>
	<time>2023-07-15T11:51:40.000Z</time>
</trkpt>
<trkpt lat="46.0345000" lon="9.4828920">
	<ele>1348.20</ele>
	<time>2023-07-15T11:51:42.000Z</time>
</trkpt>
<trkpt lat="46.0345030" lon="9.4828810">
	<ele>1348.20</ele>
	<time>2023-07-15T11:51:43.000Z</time>
</trkpt>
<trkpt lat="46.0345050" lon="9.4828300">
	<ele>1347.60</ele>
	<time>2023-07-15T11:51:46.000Z</time>
</trkpt>
<trkpt lat="46.0345140" lon="9.4827860">
	<ele>1347.20</ele>
	<time>2023-07-15T11:51:48.000Z</time>
</trkpt>
<trkpt lat="46.0345120" lon="9.4827640">
	<ele>1347.20</ele>
	<time>2023-07-15T11:51:49.000Z</time>
</trkpt>
<trkpt lat="46.0345110" lon="9.4827000">
	<ele>1346.20</ele>
	<time>2023-07-15T11:51:52.000Z</time>
</trkpt>
<trkpt lat="46.0345560" lon="9.4825850">
	<ele>1345.60</ele>
	<time>2023-07-15T11:51:56.000Z</time>
</trkpt>
<trkpt lat="46.0345650" lon="9.4825620">
	<ele>1345.20</ele>
	<time>2023-07-15T11:51:58.000Z</time>
</trkpt>
<trkpt lat="46.0345740" lon="9.4825520">
	<ele>1344.00</ele>
	<time>2023-07-15T11:52:02.000Z</time>
</trkpt>
<trkpt lat="46.0345590" lon="9.4824900">
	<ele>1343.60</ele>
	<time>2023-07-15T11:52:06.000Z</time>
</trkpt>
<trkpt lat="46.0345600" lon="9.4824890">
	<ele>1343.40</ele>
	<time>2023-07-15T11:52:07.000Z</time>
</trkpt>
<trkpt lat="46.0345460" lon="9.4824810">
	<ele>1342.80</ele>
	<time>2023-07-15T11:52:09.000Z</time>
</trkpt>
<trkpt lat="46.0345310" lon="9.4824700">
	<ele>1342.40</ele>
	<time>2023-07-15T11:52:14.000Z</time>
</trkpt>
<trkpt lat="46.0344910" lon="9.4824900">
	<ele>1342.80</ele>
	<time>2023-07-15T11:52:19.000Z</time>
</trkpt>
<trkpt lat="46.0344490" lon="9.4825290">
	<ele>1342.00</ele>
	<time>2023-07-15T11:52:24.000Z</time>
</trkpt>
<trkpt lat="46.0344380" lon="9.4825460">
	<ele>1341.80</ele>
	<time>2023-07-15T11:52:25.000Z</time>
</trkpt>
<trkpt lat="46.0343790" lon="9.4825810">
	<ele>1340.80</ele>
	<time>2023-07-15T11:52:30.000Z</time>
</trkpt>
<trkpt lat="46.0343540" lon="9.4826160">
	<ele>1340.40</ele>
	<time>2023-07-15T11:52:32.000Z</time>
</trkpt>
<trkpt lat="46.0343080" lon="9.4826690">
	<ele>1339.40</ele>
	<time>2023-07-15T11:52:37.000Z</time>
</trkpt>
<trkpt lat="46.0342830" lon="9.4826810">
	<ele>1339.00</ele>
	<time>2023-07-15T11:52:40.000Z</time>
</trkpt>
<trkpt lat="46.0342330" lon="9.4827010">
	<ele>1338.60</ele>
	<time>2023-07-15T11:52:42.000Z</time>
</trkpt>
<trkpt lat="46.0342120" lon="9.4826980">
	<ele>1338.20</ele>
	<time>2023-07-15T11:52:43.000Z</time>
</trkpt>
<trkpt lat="46.0341770" lon="9.4826460">
	<ele>1337.20</ele>
	<time>2023-07-15T11:52:48.000Z</time>
</trkpt>
<trkpt lat="46.0341790" lon="9.4826370">
	<ele>1337.20</ele>
	<time>2023-07-15T11:52:49.000Z</time>
</trkpt>
<trkpt lat="46.0341930" lon="9.4825910">
	<ele>1336.60</ele>
	<time>2023-07-15T11:52:54.000Z</time>
</trkpt>
<trkpt lat="46.0341940" lon="9.4825430">
	<ele>1336.20</ele>
	<time>2023-07-15T11:52:57.000Z</time>
</trkpt>
<trkpt lat="46.0341880" lon="9.4825220">
	<ele>1336.00</ele>
	<time>2023-07-15T11:52:59.000Z</time>
</trkpt>
<trkpt lat="46.0341790" lon="9.4824620">
	<ele>1335.20</ele>
	<time>2023-07-15T11:53:03.000Z</time>
</trkpt>
<trkpt lat="46.0341790" lon="9.4824630">
	<ele>1335.00</ele>
	<time>2023-07-15T11:53:04.000Z</time>
</trkpt>
<trkpt lat="46.0342380" lon="9.4824240">
	<ele>1334.40</ele>
	<time>2023-07-15T11:53:07.000Z</time>
</trkpt>
<trkpt lat="46.0342400" lon="9.4823980">
	<ele>1334.00</ele>
	<time>2023-07-15T11:53:09.000Z</time>
</trkpt>
<trkpt lat="46.0342430" lon="9.4823740">
	<ele>1333.80</ele>
	<time>2023-07-15T11:53:10.000Z</time>
</trkpt>
<trkpt lat="46.0342520" lon="9.4823090">
	<ele>1333.00</ele>
	<time>2023-07-15T11:53:15.000Z</time>
</trkpt>
<trkpt lat="46.0342540" lon="9.4822960">
	<ele>1332.80</ele>
	<time>2023-07-15T11:53:16.000Z</time>
</trkpt>
<trkpt lat="46.0342610" lon="9.4822800">
	<ele>1332.60</ele>
	<time>2023-07-15T11:53:17.000Z</time>
</trkpt>
<trkpt lat="46.0342770" lon="9.4822290">
	<ele>1332.20</ele>
	<time>2023-07-15T11:53:20.000Z</time>
</trkpt>
<trkpt lat="46.0342850" lon="9.4822070">
	<ele>1332.00</ele>
	<time>2023-07-15T11:53:21.000Z</time>
</trkpt>
<trkpt lat="46.0342970" lon="9.4821800">
	<ele>1331.60</ele>
	<time>2023-07-15T11:53:23.000Z</time>
</trkpt>
<trkpt lat="46.0342910" lon="9.4821270">
	<ele>1331.20</ele>
	<time>2023-07-15T11:53:25.000Z</time>
</trkpt>
<trkpt lat="46.0342880" lon="9.4821120">
	<ele>1331.00</ele>
	<time>2023-07-15T11:53:27.000Z</time>
</trkpt>
<trkpt lat="46.0342870" lon="9.4821020">
	<ele>1330.80</ele>
	<time>2023-07-15T11:53:28.000Z</time>
</trkpt>
<trkpt lat="46.0342850" lon="9.4820860">
	<ele>1330.40</ele>
	<time>2023-07-15T11:53:29.000Z</time>
</trkpt>
<trkpt lat="46.0342910" lon="9.4820760">
	<ele>1330.00</ele>
	<time>2023-07-15T11:53:30.000Z</time>
</trkpt>
<trkpt lat="46.0342950" lon="9.4820760">
	<ele>1329.80</ele>
	<time>2023-07-15T11:53:31.000Z</time>
</trkpt>
<trkpt lat="46.0343140" lon="9.4820420">
	<ele>1329.40</ele>
	<time>2023-07-15T11:53:33.000Z</time>
</trkpt>
<trkpt lat="46.0343370" lon="9.4819850">
	<ele>1329.20</ele>
	<time>2023-07-15T11:53:35.000Z</time>
</trkpt>
<trkpt lat="46.0343590" lon="9.4819510">
	<ele>1328.80</ele>
	<time>2023-07-15T11:53:37.000Z</time>
</trkpt>
<trkpt lat="46.0343960" lon="9.4819070">
	<ele>1328.20</ele>
	<time>2023-07-15T11:53:39.000Z</time>
</trkpt>
<trkpt lat="46.0344100" lon="9.4818830">
	<ele>1328.00</ele>
	<time>2023-07-15T11:53:41.000Z</time>
</trkpt>
<trkpt lat="46.0344150" lon="9.4818690">
	<ele>1327.20</ele>
	<time>2023-07-15T11:53:46.000Z</time>
</trkpt>
<trkpt lat="46.0344200" lon="9.4818530">
	<ele>1327.00</ele>
	<time>2023-07-15T11:53:47.000Z</time>
</trkpt>
<trkpt lat="46.0344320" lon="9.4818320">
	<ele>1326.20</ele>
	<time>2023-07-15T11:53:50.000Z</time>
</trkpt>
<trkpt lat="46.0344450" lon="9.4818240">
	<ele>1325.60</ele>
	<time>2023-07-15T11:53:52.000Z</time>
</trkpt>
<trkpt lat="46.0344620" lon="9.4817820">
	<ele>1324.80</ele>
	<time>2023-07-15T11:53:56.000Z</time>
</trkpt>
<trkpt lat="46.0344620" lon="9.4817770">
	<ele>1324.40</ele>
	<time>2023-07-15T11:53:58.000Z</time>
</trkpt>
<trkpt lat="46.0344980" lon="9.4816930">
	<ele>1323.60</ele>
	<time>2023-07-15T11:54:02.000Z</time>
</trkpt>
<trkpt lat="46.0345070" lon="9.4816760">
	<ele>1323.40</ele>
	<time>2023-07-15T11:54:04.000Z</time>
</trkpt>
<trkpt lat="46.0345120" lon="9.4816690">
	<ele>1323.20</ele>
	<time>2023-07-15T11:54:05.000Z</time>
</trkpt>
<trkpt lat="46.0345330" lon="9.4816460">
	<ele>1322.40</ele>
	<time>2023-07-15T11:54:08.000Z</time>
</trkpt>
<trkpt lat="46.0345390" lon="9.4816300">
	<ele>1322.20</ele>
	<time>2023-07-15T11:54:09.000Z</time>
</trkpt>
<trkpt lat="46.0345740" lon="9.4815980">
	<ele>1321.80</ele>
	<time>2023-07-15T11:54:13.000Z</time>
</trkpt>
<trkpt lat="46.0345880" lon="9.4815670">
	<ele>1321.40</ele>
	<time>2023-07-15T11:54:16.000Z</time>
</trkpt>
<trkpt lat="46.0345960" lon="9.4815660">
	<ele>1321.40</ele>
	<time>2023-07-15T11:54:18.000Z</time>
</trkpt>
<trkpt lat="46.0346140" lon="9.4815570">
	<ele>1321.20</ele>
	<time>2023-07-15T11:54:19.000Z</time>
</trkpt>
<trkpt lat="46.0346570" lon="9.4815340">
	<ele>1321.00</ele>
	<time>2023-07-15T11:54:22.000Z</time>
</trkpt>
<trkpt lat="46.0346800" lon="9.4814940">
	<ele>1320.80</ele>
	<time>2023-07-15T11:54:24.000Z</time>
</trkpt>
<trkpt lat="46.0346840" lon="9.4814770">
	<ele>1320.60</ele>
	<time>2023-07-15T11:54:25.000Z</time>
</trkpt>
<trkpt lat="46.0346970" lon="9.4814360">
	<ele>1320.40</ele>
	<time>2023-07-15T11:54:27.000Z</time>
</trkpt>
<trkpt lat="46.0347300" lon="9.4814050">
	<ele>1320.00</ele>
	<time>2023-07-15T11:54:29.000Z</time>
</trkpt>
<trkpt lat="46.0347580" lon="9.4813850">
	<ele>1320.00</ele>
	<time>2023-07-15T11:54:31.000Z</time>
</trkpt>
<trkpt lat="46.0348110" lon="9.4813510">
	<ele>1319.60</ele>
	<time>2023-07-15T11:54:35.000Z</time>
</trkpt>
<trkpt lat="46.0348480" lon="9.4812900">
	<ele>1319.20</ele>
	<time>2023-07-15T11:54:38.000Z</time>
</trkpt>
<trkpt lat="46.0348510" lon="9.4812760">
	<ele>1318.80</ele>
	<time>2023-07-15T11:54:39.000Z</time>
</trkpt>
<trkpt lat="46.0348710" lon="9.4812390">
	<ele>1318.60</ele>
	<time>2023-07-15T11:54:41.000Z</time>
</trkpt>
<trkpt lat="46.0348910" lon="9.4812010">
	<ele>1318.40</ele>
	<time>2023-07-15T11:54:43.000Z</time>
</trkpt>
<trkpt lat="46.0349280" lon="9.4811610">
	<ele>1318.20</ele>
	<time>2023-07-15T11:54:45.000Z</time>
</trkpt>
<trkpt lat="46.0349510" lon="9.4811280">
	<ele>1318.20</ele>
	<time>2023-07-15T11:54:46.000Z</time>
</trkpt>
<trkpt lat="46.0349700" lon="9.4810980">
	<ele>1318.00</ele>
	<time>2023-07-15T11:54:47.000Z</time>
</trkpt>
<trkpt lat="46.0349860" lon="9.4810790">
	<ele>1317.80</ele>
	<time>2023-07-15T11:54:48.000Z</time>
</trkpt>
<trkpt lat="46.0350140" lon="9.4810890">
	<ele>1317.80</ele>
	<time>2023-07-15T11:54:49.000Z</time>
</trkpt>
<trkpt lat="46.0350290" lon="9.4810810">
	<ele>1317.60</ele>
	<time>2023-07-15T11:54:50.000Z</time>
</trkpt>
<trkpt lat="46.0350560" lon="9.4810510">
	<ele>1316.80</ele>
	<time>2023-07-15T11:54:54.000Z</time>
</trkpt>
<trkpt lat="46.0350670" lon="9.4810250">
	<ele>1316.60</ele>
	<time>2023-07-15T11:54:56.000Z</time>
</trkpt>
<trkpt lat="46.0350670" lon="9.4810100">
	<ele>1316.20</ele>
	<time>2023-07-15T11:54:57.000Z</time>
</trkpt>
<trkpt lat="46.0350700" lon="9.4809280">
	<ele>1315.80</ele>
	<time>2023-07-15T11:55:00.000Z</time>
</trkpt>
<trkpt lat="46.0350730" lon="9.4809120">
	<ele>1315.60</ele>
	<time>2023-07-15T11:55:01.000Z</time>
</trkpt>
<trkpt lat="46.0350750" lon="9.4809070">
	<ele>1315.40</ele>
	<time>2023-07-15T11:55:02.000Z</time>
</trkpt>
<trkpt lat="46.0350890" lon="9.4808860">
	<ele>1315.00</ele>
	<time>2023-07-15T11:55:04.000Z</time>
</trkpt>
<trkpt lat="46.0350920" lon="9.4808860">
	<ele>1314.80</ele>
	<time>2023-07-15T11:55:07.000Z</time>
</trkpt>
<trkpt lat="46.0350920" lon="9.4808860">
	<ele>1315.00</ele>
	<time>2023-07-15T11:55:08.000Z</time>
</trkpt>
<trkpt lat="46.0351000" lon="9.4808800">
	<ele>1315.00</ele>
	<time>2023-07-15T11:55:10.000Z</time>
</trkpt>
<trkpt lat="46.0351170" lon="9.4808690">
	<ele>1315.00</ele>
	<time>2023-07-15T11:55:12.000Z</time>
</trkpt>
<trkpt lat="46.0351200" lon="9.4808310">
	<ele>1314.60</ele>
	<time>2023-07-15T11:55:14.000Z</time>
</trkpt>
<trkpt lat="46.0351490" lon="9.4807700">
	<ele>1313.60</ele>
	<time>2023-07-15T11:55:19.000Z</time>
</trkpt>
<trkpt lat="46.0351660" lon="9.4807560">
	<ele>1313.40</ele>
	<time>2023-07-15T11:55:20.000Z</time>
</trkpt>
<trkpt lat="46.0352430" lon="9.4806910">
	<ele>1312.60</ele>
	<time>2023-07-15T11:55:26.000Z</time>
</trkpt>
<trkpt lat="46.0352500" lon="9.4806820">
	<ele>1312.40</ele>
	<time>2023-07-15T11:55:27.000Z</time>
</trkpt>
<trkpt lat="46.0352600" lon="9.4806380">
	<ele>1312.20</ele>
	<time>2023-07-15T11:55:30.000Z</time>
</trkpt>
<trkpt lat="46.0352610" lon="9.4806200">
	<ele>1312.20</ele>
	<time>2023-07-15T11:55:31.000Z</time>
</trkpt>
<trkpt lat="46.0352700" lon="9.4805750">
	<ele>1311.80</ele>
	<time>2023-07-15T11:55:33.000Z</time>
</trkpt>
<trkpt lat="46.0352950" lon="9.4804860">
	<ele>1311.60</ele>
	<time>2023-07-15T11:55:37.000Z</time>
</trkpt>
<trkpt lat="46.0353090" lon="9.4804470">
	<ele>1311.60</ele>
	<time>2023-07-15T11:55:40.000Z</time>
</trkpt>
<trkpt lat="46.0353330" lon="9.4804150">
	<ele>1311.40</ele>
	<time>2023-07-15T11:55:42.000Z</time>
</trkpt>
<trkpt lat="46.0353800" lon="9.4803450">
	<ele>1311.40</ele>
	<time>2023-07-15T11:55:45.000Z</time>
</trkpt>
<trkpt lat="46.0353900" lon="9.4802940">
	<ele>1310.80</ele>
	<time>2023-07-15T11:55:49.000Z</time>
</trkpt>
<trkpt lat="46.0353970" lon="9.4802810">
	<ele>1310.40</ele>
	<time>2023-07-15T11:55:51.000Z</time>
</trkpt>
<trkpt lat="46.0354060" lon="9.4802730">
	<ele>1310.20</ele>
	<time>2023-07-15T11:55:52.000Z</time>
</trkpt>
<trkpt lat="46.0354410" lon="9.4801660">
	<ele>1309.40</ele>
	<time>2023-07-15T11:55:59.000Z</time>
</trkpt>
<trkpt lat="46.0354460" lon="9.4801430">
	<ele>1309.40</ele>
	<time>2023-07-15T11:56:01.000Z</time>
</trkpt>
<trkpt lat="46.0354560" lon="9.4801270">
	<ele>1309.20</ele>
	<time>2023-07-15T11:56:03.000Z</time>
</trkpt>
<trkpt lat="46.0355010" lon="9.4800920">
	<ele>1308.80</ele>
	<time>2023-07-15T11:56:07.000Z</time>
</trkpt>
<trkpt lat="46.0355360" lon="9.4800790">
	<ele>1308.40</ele>
	<time>2023-07-15T11:56:09.000Z</time>
</trkpt>
<trkpt lat="46.0355510" lon="9.4800640">
	<ele>1308.20</ele>
	<time>2023-07-15T11:56:10.000Z</time>
</trkpt>
<trkpt lat="46.0356140" lon="9.4800260">
	<ele>1307.40</ele>
	<time>2023-07-15T11:56:15.000Z</time>
</trkpt>
<trkpt lat="46.0356190" lon="9.4800120">
	<ele>1307.20</ele>
	<time>2023-07-15T11:56:16.000Z</time>
</trkpt>
<trkpt lat="46.0356280" lon="9.4799640">
	<ele>1306.60</ele>
	<time>2023-07-15T11:56:19.000Z</time>
</trkpt>
<trkpt lat="46.0356340" lon="9.4799470">
	<ele>1306.60</ele>
	<time>2023-07-15T11:56:20.000Z</time>
</trkpt>
<trkpt lat="46.0356640" lon="9.4798660">
	<ele>1306.20</ele>
	<time>2023-07-15T11:56:24.000Z</time>
</trkpt>
<trkpt lat="46.0356890" lon="9.4798220">
	<ele>1306.20</ele>
	<time>2023-07-15T11:56:27.000Z</time>
</trkpt>
<trkpt lat="46.0357360" lon="9.4797550">
	<ele>1305.40</ele>
	<time>2023-07-15T11:56:31.000Z</time>
</trkpt>
<trkpt lat="46.0357570" lon="9.4797160">
	<ele>1305.00</ele>
	<time>2023-07-15T11:56:34.000Z</time>
</trkpt>
<trkpt lat="46.0358130" lon="9.4796280">
	<ele>1304.40</ele>
	<time>2023-07-15T11:56:40.000Z</time>
</trkpt>
<trkpt lat="46.0358500" lon="9.4795890">
	<ele>1304.00</ele>
	<time>2023-07-15T11:56:44.000Z</time>
</trkpt>
<trkpt lat="46.0359060" lon="9.4795390">
	<ele>1303.40</ele>
	<time>2023-07-15T11:56:49.000Z</time>
</trkpt>
<trkpt lat="46.0359210" lon="9.4795370">
	<ele>1303.20</ele>
	<time>2023-07-15T11:56:50.000Z</time>
</trkpt>
<trkpt lat="46.0359730" lon="9.4795280">
	<ele>1303.20</ele>
	<time>2023-07-15T11:56:54.000Z</time>
</trkpt>
<trkpt lat="46.0360150" lon="9.4794920">
	<ele>1303.00</ele>
	<time>2023-07-15T11:56:59.000Z</time>
</trkpt>
<trkpt lat="46.0360250" lon="9.4794820">
	<ele>1302.60</ele>
	<time>2023-07-15T11:57:01.000Z</time>
</trkpt>
<trkpt lat="46.0360350" lon="9.4794720">
	<ele>1302.60</ele>
	<time>2023-07-15T11:57:02.000Z</time>
</trkpt>
<trkpt lat="46.0360450" lon="9.4794620">
	<ele>1302.60</ele>
	<time>2023-07-15T11:57:03.000Z</time>
</trkpt>
<trkpt lat="46.0360760" lon="9.4794310">
	<ele>1302.40</ele>
	<time>2023-07-15T11:57:06.000Z</time>
</trkpt>
<trkpt lat="46.0360970" lon="9.4794190">
	<ele>1302.20</ele>
	<time>2023-07-15T11:57:08.000Z</time>
</trkpt>
<trkpt lat="46.0361170" lon="9.4794040">
	<ele>1302.00</ele>
	<time>2023-07-15T11:57:11.000Z</time>
</trkpt>
<trkpt lat="46.0361200" lon="9.4794040">
	<ele>1301.80</ele>
	<time>2023-07-15T11:57:12.000Z</time>
</trkpt>
<trkpt lat="46.0361220" lon="9.4793960">
	<ele>1301.80</ele>
	<time>2023-07-15T11:57:13.000Z</time>
</trkpt>
<trkpt lat="46.0361340" lon="9.4793990">
	<ele>1301.60</ele>
	<time>2023-07-15T11:57:15.000Z</time>
</trkpt>
<trkpt lat="46.0361330" lon="9.4794090">
	<ele>1301.40</ele>
	<time>2023-07-15T11:57:17.000Z</time>
</trkpt>
<trkpt lat="46.0361340" lon="9.4794170">
	<ele>1301.80</ele>
	<time>2023-07-15T11:57:20.000Z</time>
</trkpt>
<trkpt lat="46.0361380" lon="9.4794100">
	<ele>1302.00</ele>
	<time>2023-07-15T11:57:22.000Z</time>
</trkpt>
<trkpt lat="46.0361390" lon="9.4794090">
	<ele>1302.00</ele>
	<time>2023-07-15T11:57:23.000Z</time>
</trkpt>
<trkpt lat="46.0361390" lon="9.4794050">
	<ele>1302.00</ele>
	<time>2023-07-15T11:57:26.000Z</time>
</trkpt>
<trkpt lat="46.0361390" lon="9.4794050">
	<ele>1302.00</ele>
	<time>2023-07-15T11:57:27.000Z</time>
</trkpt>
<trkpt lat="46.0361390" lon="9.4794050">
	<ele>1302.00</ele>
	<time>2023-07-15T11:57:28.000Z</time>
</trkpt>
<trkpt lat="46.0361390" lon="9.4794050">
	<ele>1301.80</ele>
	<time>2023-07-15T11:57:29.000Z</time>
</trkpt>
<trkpt lat="46.0361470" lon="9.4793820">
	<ele>1301.60</ele>
	<time>2023-07-15T11:57:33.000Z</time>
</trkpt>
<trkpt lat="46.0361600" lon="9.4793620">
	<ele>1301.60</ele>
	<time>2023-07-15T11:57:34.000Z</time>
</trkpt>
<trkpt lat="46.0362090" lon="9.4792670">
	<ele>1301.60</ele>
	<time>2023-07-15T11:57:39.000Z</time>
</trkpt>
<trkpt lat="46.0362220" lon="9.4793000">
	<ele>1301.60</ele>
	<time>2023-07-15T11:57:42.000Z</time>
</trkpt>
<trkpt lat="46.0362290" lon="9.4793190">
	<ele>1301.40</ele>
	<time>2023-07-15T11:57:44.000Z</time>
</trkpt>
<trkpt lat="46.0362010" lon="9.4792800">
	<ele>1301.80</ele>
	<time>2023-07-15T11:57:47.000Z</time>
</trkpt>
<trkpt lat="46.0361900" lon="9.4792730">
	<ele>1302.00</ele>
	<time>2023-07-15T11:57:50.000Z</time>
</trkpt>
<trkpt lat="46.0361870" lon="9.4792670">
	<ele>1302.00</ele>
	<time>2023-07-15T11:57:51.000Z</time>
</trkpt>
<trkpt lat="46.0361880" lon="9.4792600">
	<ele>1302.00</ele>
	<time>2023-07-15T11:57:52.000Z</time>
</trkpt>
<trkpt lat="46.0361930" lon="9.4792470">
	<ele>1302.00</ele>
	<time>2023-07-15T11:57:55.000Z</time>
</trkpt>
<trkpt lat="46.0361960" lon="9.4792160">
	<ele>1301.80</ele>
	<time>2023-07-15T11:57:57.000Z</time>
</trkpt>
<trkpt lat="46.0362000" lon="9.4791810">
	<ele>1301.60</ele>
	<time>2023-07-15T11:57:59.000Z</time>
</trkpt>
<trkpt lat="46.0362050" lon="9.4791620">
	<ele>1301.00</ele>
	<time>2023-07-15T11:58:01.000Z</time>
</trkpt>
<trkpt lat="46.0362110" lon="9.4791420">
	<ele>1301.00</ele>
	<time>2023-07-15T11:58:02.000Z</time>
</trkpt>
<trkpt lat="46.0362070" lon="9.4791340">
	<ele>1300.80</ele>
	<time>2023-07-15T11:58:03.000Z</time>
</trkpt>
<trkpt lat="46.0362170" lon="9.4790720">
	<ele>1300.20</ele>
	<time>2023-07-15T11:58:06.000Z</time>
</trkpt>
<trkpt lat="46.0362400" lon="9.4790210">
	<ele>1299.80</ele>
	<time>2023-07-15T11:58:09.000Z</time>
</trkpt>
<trkpt lat="46.0362680" lon="9.4789840">
	<ele>1299.60</ele>
	<time>2023-07-15T11:58:12.000Z</time>
</trkpt>
<trkpt lat="46.0362920" lon="9.4789760">
	<ele>1298.80</ele>
	<time>2023-07-15T11:58:16.000Z</time>
</trkpt>
<trkpt lat="46.0363000" lon="9.4789670">
	<ele>1298.60</ele>
	<time>2023-07-15T11:58:18.000Z</time>
</trkpt>
<trkpt lat="46.0363010" lon="9.4789570">
	<ele>1298.60</ele>
	<time>2023-07-15T11:58:19.000Z</time>
</trkpt>
<trkpt lat="46.0363090" lon="9.4789460">
	<ele>1298.40</ele>
	<time>2023-07-15T11:58:21.000Z</time>
</trkpt>
<trkpt lat="46.0363090" lon="9.4789360">
	<ele>1298.20</ele>
	<time>2023-07-15T11:58:23.000Z</time>
</trkpt>
<trkpt lat="46.0363120" lon="9.4789210">
	<ele>1298.00</ele>
	<time>2023-07-15T11:58:24.000Z</time>
</trkpt>
<trkpt lat="46.0363170" lon="9.4788970">
	<ele>1297.60</ele>
	<time>2023-07-15T11:58:26.000Z</time>
</trkpt>
<trkpt lat="46.0363170" lon="9.4788790">
	<ele>1297.40</ele>
	<time>2023-07-15T11:58:27.000Z</time>
</trkpt>
<trkpt lat="46.0363290" lon="9.4788520">
	<ele>1297.20</ele>
	<time>2023-07-15T11:58:29.000Z</time>
</trkpt>
<trkpt lat="46.0363370" lon="9.4788360">
	<ele>1297.00</ele>
	<time>2023-07-15T11:58:30.000Z</time>
</trkpt>
<trkpt lat="46.0363840" lon="9.4787530">
	<ele>1296.60</ele>
	<time>2023-07-15T11:58:35.000Z</time>
</trkpt>
<trkpt lat="46.0363880" lon="9.4787410">
	<ele>1296.40</ele>
	<time>2023-07-15T11:58:36.000Z</time>
</trkpt>
<trkpt lat="46.0363810" lon="9.4787140">
	<ele>1295.60</ele>
	<time>2023-07-15T11:58:40.000Z</time>
</trkpt>
<trkpt lat="46.0363820" lon="9.4787090">
	<ele>1295.40</ele>
	<time>2023-07-15T11:58:41.000Z</time>
</trkpt>
<trkpt lat="46.0363990" lon="9.4787000">
	<ele>1295.20</ele>
	<time>2023-07-15T11:58:42.000Z</time>
</trkpt>
<trkpt lat="46.0364160" lon="9.4786940">
	<ele>1295.00</ele>
	<time>2023-07-15T11:58:44.000Z</time>
</trkpt>
<trkpt lat="46.0364220" lon="9.4786300">
	<ele>1294.80</ele>
	<time>2023-07-15T11:58:46.000Z</time>
</trkpt>
<trkpt lat="46.0364280" lon="9.4785990">
	<ele>1294.60</ele>
	<time>2023-07-15T11:58:47.000Z</time>
</trkpt>
<trkpt lat="46.0364570" lon="9.4785290">
	<ele>1294.20</ele>
	<time>2023-07-15T11:58:50.000Z</time>
</trkpt>
<trkpt lat="46.0364610" lon="9.4785230">
	<ele>1294.20</ele>
	<time>2023-07-15T11:58:51.000Z</time>
</trkpt>
<trkpt lat="46.0364690" lon="9.4785020">
	<ele>1293.60</ele>
	<time>2023-07-15T11:58:53.000Z</time>
</trkpt>
<trkpt lat="46.0364760" lon="9.4784780">
	<ele>1293.20</ele>
	<time>2023-07-15T11:58:56.000Z</time>
</trkpt>
<trkpt lat="46.0365020" lon="9.4784420">
	<ele>1292.80</ele>
	<time>2023-07-15T11:58:59.000Z</time>
</trkpt>
<trkpt lat="46.0365340" lon="9.4784060">
	<ele>1292.60</ele>
	<time>2023-07-15T11:59:02.000Z</time>
</trkpt>
<trkpt lat="46.0365450" lon="9.4783680">
	<ele>1292.40</ele>
	<time>2023-07-15T11:59:04.000Z</time>
</trkpt>
<trkpt lat="46.0365590" lon="9.4783400">
	<ele>1292.40</ele>
	<time>2023-07-15T11:59:06.000Z</time>
</trkpt>
<trkpt lat="46.0365640" lon="9.4783210">
	<ele>1292.20</ele>
	<time>2023-07-15T11:59:07.000Z</time>
</trkpt>
<trkpt lat="46.0365620" lon="9.4783040">
	<ele>1292.00</ele>
	<time>2023-07-15T11:59:08.000Z</time>
</trkpt>
<trkpt lat="46.0365610" lon="9.4782770">
	<ele>1291.20</ele>
	<time>2023-07-15T11:59:11.000Z</time>
</trkpt>
<trkpt lat="46.0365680" lon="9.4782720">
	<ele>1291.20</ele>
	<time>2023-07-15T11:59:12.000Z</time>
</trkpt>
<trkpt lat="46.0365840" lon="9.4782650">
	<ele>1290.80</ele>
	<time>2023-07-15T11:59:14.000Z</time>
</trkpt>
<trkpt lat="46.0366080" lon="9.4782290">
	<ele>1290.60</ele>
	<time>2023-07-15T11:59:17.000Z</time>
</trkpt>
<trkpt lat="46.0366490" lon="9.4782050">
	<ele>1290.60</ele>
	<time>2023-07-15T11:59:20.000Z</time>
</trkpt>
<trkpt lat="46.0366740" lon="9.4781810">
	<ele>1290.40</ele>
	<time>2023-07-15T11:59:21.000Z</time>
</trkpt>
<trkpt lat="46.0366960" lon="9.4781510">
	<ele>1290.40</ele>
	<time>2023-07-15T11:59:22.000Z</time>
</trkpt>
<trkpt lat="46.0367340" lon="9.4781130">
	<ele>1289.80</ele>
	<time>2023-07-15T11:59:25.000Z</time>
</trkpt>
<trkpt lat="46.0367570" lon="9.4780740">
	<ele>1289.60</ele>
	<time>2023-07-15T11:59:27.000Z</time>
</trkpt>
<trkpt lat="46.0367920" lon="9.4779820">
	<ele>1289.00</ele>
	<time>2023-07-15T11:59:33.000Z</time>
</trkpt>
<trkpt lat="46.0367960" lon="9.4779760">
	<ele>1288.80</ele>
	<time>2023-07-15T11:59:34.000Z</time>
</trkpt>
<trkpt lat="46.0367980" lon="9.4779660">
	<ele>1288.80</ele>
	<time>2023-07-15T11:59:35.000Z</time>
</trkpt>
<trkpt lat="46.0368250" lon="9.4779300">
	<ele>1288.20</ele>
	<time>2023-07-15T11:59:39.000Z</time>
</trkpt>
<trkpt lat="46.0368350" lon="9.4779410">
	<ele>1288.00</ele>
	<time>2023-07-15T11:59:40.000Z</time>
</trkpt>
<trkpt lat="46.0368540" lon="9.4778800">
	<ele>1287.60</ele>
	<time>2023-07-15T11:59:44.000Z</time>
</trkpt>
<trkpt lat="46.0368440" lon="9.4778390">
	<ele>1287.40</ele>
	<time>2023-07-15T11:59:46.000Z</time>
</trkpt>
<trkpt lat="46.0369020" lon="9.4777040">
	<ele>1286.60</ele>
	<time>2023-07-15T11:59:53.000Z</time>
</trkpt>
<trkpt lat="46.0369100" lon="9.4776860">
	<ele>1286.40</ele>
	<time>2023-07-15T11:59:54.000Z</time>
</trkpt>
<trkpt lat="46.0369670" lon="9.4776220">
	<ele>1285.60</ele>
	<time>2023-07-15T11:59:58.000Z</time>
</trkpt>
<trkpt lat="46.0369860" lon="9.4776290">
	<ele>1285.60</ele>
	<time>2023-07-15T11:59:59.000Z</time>
</trkpt>
<trkpt lat="46.0370110" lon="9.4776230">
	<ele>1285.20</ele>
	<time>2023-07-15T12:00:01.000Z</time>
</trkpt>
<trkpt lat="46.0370470" lon="9.4775680">
	<ele>1284.60</ele>
	<time>2023-07-15T12:00:04.000Z</time>
</trkpt>
<trkpt lat="46.0370820" lon="9.4775200">
	<ele>1284.40</ele>
	<time>2023-07-15T12:00:07.000Z</time>
</trkpt>
<trkpt lat="46.0371310" lon="9.4774650">
	<ele>1284.20</ele>
	<time>2023-07-15T12:00:11.000Z</time>
</trkpt>
<trkpt lat="46.0371430" lon="9.4774580">
	<ele>1284.00</ele>
	<time>2023-07-15T12:00:12.000Z</time>
</trkpt>
<trkpt lat="46.0371740" lon="9.4774080">
	<ele>1283.60</ele>
	<time>2023-07-15T12:00:16.000Z</time>
</trkpt>
<trkpt lat="46.0371810" lon="9.4773550">
	<ele>1283.00</ele>
	<time>2023-07-15T12:00:19.000Z</time>
</trkpt>
<trkpt lat="46.0371840" lon="9.4773390">
	<ele>1282.40</ele>
	<time>2023-07-15T12:00:23.000Z</time>
</trkpt>
<trkpt lat="46.0371930" lon="9.4773310">
	<ele>1282.20</ele>
	<time>2023-07-15T12:00:24.000Z</time>
</trkpt>
<trkpt lat="46.0372110" lon="9.4773100">
	<ele>1282.00</ele>
	<time>2023-07-15T12:00:26.000Z</time>
</trkpt>
<trkpt lat="46.0372500" lon="9.4772560">
	<ele>1281.00</ele>
	<time>2023-07-15T12:00:31.000Z</time>
</trkpt>
<trkpt lat="46.0372590" lon="9.4772400">
	<ele>1280.80</ele>
	<time>2023-07-15T12:00:33.000Z</time>
</trkpt>
<trkpt lat="46.0372620" lon="9.4771950">
	<ele>1280.20</ele>
	<time>2023-07-15T12:00:36.000Z</time>
</trkpt>
<trkpt lat="46.0372620" lon="9.4771730">
	<ele>1280.20</ele>
	<time>2023-07-15T12:00:37.000Z</time>
</trkpt>
<trkpt lat="46.0372690" lon="9.4771630">
	<ele>1280.00</ele>
	<time>2023-07-15T12:00:38.000Z</time>
</trkpt>
<trkpt lat="46.0372790" lon="9.4771520">
	<ele>1279.80</ele>
	<time>2023-07-15T12:00:40.000Z</time>
</trkpt>
<trkpt lat="46.0372860" lon="9.4771410">
	<ele>1279.60</ele>
	<time>2023-07-15T12:00:41.000Z</time>
</trkpt>
<trkpt lat="46.0373060" lon="9.4771010">
	<ele>1279.40</ele>
	<time>2023-07-15T12:00:44.000Z</time>
</trkpt>
<trkpt lat="46.0373700" lon="9.4770570">
	<ele>1278.80</ele>
	<time>2023-07-15T12:00:48.000Z</time>
</trkpt>
<trkpt lat="46.0374090" lon="9.4770610">
	<ele>1278.60</ele>
	<time>2023-07-15T12:00:51.000Z</time>
</trkpt>
<trkpt lat="46.0374520" lon="9.4770130">
	<ele>1278.00</ele>
	<time>2023-07-15T12:00:55.000Z</time>
</trkpt>
<trkpt lat="46.0374630" lon="9.4769960">
	<ele>1277.80</ele>
	<time>2023-07-15T12:00:56.000Z</time>
</trkpt>
<trkpt lat="46.0374750" lon="9.4769900">
	<ele>1277.40</ele>
	<time>2023-07-15T12:00:57.000Z</time>
</trkpt>
<trkpt lat="46.0375120" lon="9.4769520">
	<ele>1276.60</ele>
	<time>2023-07-15T12:01:01.000Z</time>
</trkpt>
<trkpt lat="46.0375350" lon="9.4769190">
	<ele>1276.40</ele>
	<time>2023-07-15T12:01:03.000Z</time>
</trkpt>
<trkpt lat="46.0375570" lon="9.4768890">
	<ele>1276.20</ele>
	<time>2023-07-15T12:01:05.000Z</time>
</trkpt>
<trkpt lat="46.0375570" lon="9.4768500">
	<ele>1276.00</ele>
	<time>2023-07-15T12:01:07.000Z</time>
</trkpt>
<trkpt lat="46.0375670" lon="9.4768420">
	<ele>1275.80</ele>
	<time>2023-07-15T12:01:08.000Z</time>
</trkpt>
<trkpt lat="46.0375990" lon="9.4768130">
	<ele>1275.80</ele>
	<time>2023-07-15T12:01:11.000Z</time>
</trkpt>
<trkpt lat="46.0376020" lon="9.4767400">
	<ele>1275.60</ele>
	<time>2023-07-15T12:01:13.000Z</time>
</trkpt>
<trkpt lat="46.0376180" lon="9.4766990">
	<ele>1275.60</ele>
	<time>2023-07-15T12:01:15.000Z</time>
</trkpt>
<trkpt lat="46.0376260" lon="9.4766340">
	<ele>1275.00</ele>
	<time>2023-07-15T12:01:18.000Z</time>
</trkpt>
<trkpt lat="46.0376270" lon="9.4765850">
	<ele>1274.60</ele>
	<time>2023-07-15T12:01:20.000Z</time>
</trkpt>
<trkpt lat="46.0376330" lon="9.4765210">
	<ele>1274.00</ele>
	<time>2023-07-15T12:01:24.000Z</time>
</trkpt>
<trkpt lat="46.0376920" lon="9.4763890">
	<ele>1273.60</ele>
	<time>2023-07-15T12:01:31.000Z</time>
</trkpt>
<trkpt lat="46.0376950" lon="9.4763810">
	<ele>1273.40</ele>
	<time>2023-07-15T12:01:32.000Z</time>
</trkpt>
<trkpt lat="46.0377020" lon="9.4763740">
	<ele>1273.00</ele>
	<time>2023-07-15T12:01:33.000Z</time>
</trkpt>
<trkpt lat="46.0377160" lon="9.4763390">
	<ele>1272.60</ele>
	<time>2023-07-15T12:01:37.000Z</time>
</trkpt>
<trkpt lat="46.0377260" lon="9.4763280">
	<ele>1272.40</ele>
	<time>2023-07-15T12:01:39.000Z</time>
</trkpt>
<trkpt lat="46.0377300" lon="9.4762780">
	<ele>1271.80</ele>
	<time>2023-07-15T12:01:43.000Z</time>
</trkpt>
<trkpt lat="46.0377520" lon="9.4761740">
	<ele>1271.20</ele>
	<time>2023-07-15T12:01:49.000Z</time>
</trkpt>
<trkpt lat="46.0377460" lon="9.4761360">
	<ele>1270.80</ele>
	<time>2023-07-15T12:01:51.000Z</time>
</trkpt>
<trkpt lat="46.0377420" lon="9.4761010">
	<ele>1270.60</ele>
	<time>2023-07-15T12:01:53.000Z</time>
</trkpt>
<trkpt lat="46.0377420" lon="9.4760810">
	<ele>1270.20</ele>
	<time>2023-07-15T12:01:54.000Z</time>
</trkpt>
<trkpt lat="46.0377300" lon="9.4760070">
	<ele>1269.80</ele>
	<time>2023-07-15T12:01:58.000Z</time>
</trkpt>
<trkpt lat="46.0376980" lon="9.4759510">
	<ele>1269.80</ele>
	<time>2023-07-15T12:02:01.000Z</time>
</trkpt>
<trkpt lat="46.0376160" lon="9.4757630">
	<ele>1269.20</ele>
	<time>2023-07-15T12:02:07.000Z</time>
</trkpt>
<trkpt lat="46.0376240" lon="9.4757390">
	<ele>1269.20</ele>
	<time>2023-07-15T12:02:09.000Z</time>
</trkpt>
<trkpt lat="46.0376360" lon="9.4757310">
	<ele>1269.20</ele>
	<time>2023-07-15T12:02:10.000Z</time>
</trkpt>
<trkpt lat="46.0376480" lon="9.4757250">
	<ele>1269.20</ele>
	<time>2023-07-15T12:02:11.000Z</time>
</trkpt>
<trkpt lat="46.0377090" lon="9.4756780">
	<ele>1268.80</ele>
	<time>2023-07-15T12:02:16.000Z</time>
</trkpt>
<trkpt lat="46.0377090" lon="9.4756670">
	<ele>1268.80</ele>
	<time>2023-07-15T12:02:17.000Z</time>
</trkpt>
<trkpt lat="46.0377090" lon="9.4755850">
	<ele>1268.00</ele>
	<time>2023-07-15T12:02:21.000Z</time>
</trkpt>
<trkpt lat="46.0377140" lon="9.4755510">
	<ele>1267.60</ele>
	<time>2023-07-15T12:02:24.000Z</time>
</trkpt>
<trkpt lat="46.0377350" lon="9.4755050">
	<ele>1267.40</ele>
	<time>2023-07-15T12:02:26.000Z</time>
</trkpt>
<trkpt lat="46.0377440" lon="9.4754760">
	<ele>1267.40</ele>
	<time>2023-07-15T12:02:28.000Z</time>
</trkpt>
<trkpt lat="46.0377470" lon="9.4754540">
	<ele>1267.20</ele>
	<time>2023-07-15T12:02:30.000Z</time>
</trkpt>
<trkpt lat="46.0377690" lon="9.4754020">
	<ele>1267.20</ele>
	<time>2023-07-15T12:02:36.000Z</time>
</trkpt>
<trkpt lat="46.0377740" lon="9.4754020">
	<ele>1267.00</ele>
	<time>2023-07-15T12:02:39.000Z</time>
</trkpt>
<trkpt lat="46.0377740" lon="9.4753890">
	<ele>1267.00</ele>
	<time>2023-07-15T12:02:41.000Z</time>
</trkpt>
<trkpt lat="46.0377720" lon="9.4753790">
	<ele>1267.00</ele>
	<time>2023-07-15T12:02:42.000Z</time>
</trkpt>
<trkpt lat="46.0377710" lon="9.4753770">
	<ele>1267.00</ele>
	<time>2023-07-15T12:02:44.000Z</time>
</trkpt>
<trkpt lat="46.0377860" lon="9.4753440">
	<ele>1267.00</ele>
	<time>2023-07-15T12:02:49.000Z</time>
</trkpt>
<trkpt lat="46.0377830" lon="9.4753390">
	<ele>1267.00</ele>
	<time>2023-07-15T12:02:50.000Z</time>
</trkpt>
<trkpt lat="46.0377870" lon="9.4753260">
	<ele>1267.00</ele>
	<time>2023-07-15T12:02:52.000Z</time>
</trkpt>
<trkpt lat="46.0377860" lon="9.4752870">
	<ele>1266.80</ele>
	<time>2023-07-15T12:02:54.000Z</time>
</trkpt>
<trkpt lat="46.0377850" lon="9.4751530">
	<ele>1266.40</ele>
	<time>2023-07-15T12:03:00.000Z</time>
</trkpt>
<trkpt lat="46.0377880" lon="9.4751040">
	<ele>1266.40</ele>
	<time>2023-07-15T12:03:02.000Z</time>
</trkpt>
<trkpt lat="46.0378060" lon="9.4750270">
	<ele>1266.00</ele>
	<time>2023-07-15T12:03:06.000Z</time>
</trkpt>
<trkpt lat="46.0378050" lon="9.4750150">
	<ele>1266.00</ele>
	<time>2023-07-15T12:03:07.000Z</time>
</trkpt>
<trkpt lat="46.0378110" lon="9.4749510">
	<ele>1265.60</ele>
	<time>2023-07-15T12:03:10.000Z</time>
</trkpt>
<trkpt lat="46.0378200" lon="9.4748690">
	<ele>1265.40</ele>
	<time>2023-07-15T12:03:13.000Z</time>
</trkpt>
<trkpt lat="46.0378240" lon="9.4747860">
	<ele>1265.00</ele>
	<time>2023-07-15T12:03:18.000Z</time>
</trkpt>
<trkpt lat="46.0378250" lon="9.4747330">
	<ele>1264.80</ele>
	<time>2023-07-15T12:03:20.000Z</time>
</trkpt>
<trkpt lat="46.0378160" lon="9.4746880">
	<ele>1264.60</ele>
	<time>2023-07-15T12:03:23.000Z</time>
</trkpt>
<trkpt lat="46.0378230" lon="9.4746490">
	<ele>1264.60</ele>
	<time>2023-07-15T12:03:25.000Z</time>
</trkpt>
<trkpt lat="46.0378350" lon="9.4745790">
	<ele>1264.80</ele>
	<time>2023-07-15T12:03:30.000Z</time>
</trkpt>
<trkpt lat="46.0378280" lon="9.4745500">
	<ele>1264.80</ele>
	<time>2023-07-15T12:03:31.000Z</time>
</trkpt>
<trkpt lat="46.0378030" lon="9.4744770">
	<ele>1265.20</ele>
	<time>2023-07-15T12:03:35.000Z</time>
</trkpt>
<trkpt lat="46.0377970" lon="9.4744510">
	<ele>1265.20</ele>
	<time>2023-07-15T12:03:37.000Z</time>
</trkpt>
<trkpt lat="46.0377590" lon="9.4743990">
	<ele>1265.40</ele>
	<time>2023-07-15T12:03:42.000Z</time>
</trkpt>
<trkpt lat="46.0378160" lon="9.4743510">
	<ele>1265.80</ele>
	<time>2023-07-15T12:03:46.000Z</time>
</trkpt>
<trkpt lat="46.0378260" lon="9.4743340">
	<ele>1266.00</ele>
	<time>2023-07-15T12:03:48.000Z</time>
</trkpt>
<trkpt lat="46.0378360" lon="9.4743170">
	<ele>1266.20</ele>
	<time>2023-07-15T12:03:51.000Z</time>
</trkpt>
<trkpt lat="46.0378380" lon="9.4743060">
	<ele>1266.20</ele>
	<time>2023-07-15T12:03:52.000Z</time>
</trkpt>
<trkpt lat="46.0378420" lon="9.4742900">
	<ele>1266.20</ele>
	<time>2023-07-15T12:03:53.000Z</time>
</trkpt>
<trkpt lat="46.0378700" lon="9.4742510">
	<ele>1266.20</ele>
	<time>2023-07-15T12:03:56.000Z</time>
</trkpt>
<trkpt lat="46.0378860" lon="9.4742430">
	<ele>1266.40</ele>
	<time>2023-07-15T12:03:57.000Z</time>
</trkpt>
<trkpt lat="46.0379180" lon="9.4742290">
	<ele>1266.40</ele>
	<time>2023-07-15T12:03:59.000Z</time>
</trkpt>
<trkpt lat="46.0379530" lon="9.4742050">
	<ele>1266.20</ele>
	<time>2023-07-15T12:04:02.000Z</time>
</trkpt>
<trkpt lat="46.0380060" lon="9.4741930">
	<ele>1266.00</ele>
	<time>2023-07-15T12:04:05.000Z</time>
</trkpt>
<trkpt lat="46.0381280" lon="9.4739910">
	<ele>1265.80</ele>
	<time>2023-07-15T12:04:13.000Z</time>
</trkpt>
<trkpt lat="46.0381350" lon="9.4739850">
	<ele>1265.80</ele>
	<time>2023-07-15T12:04:14.000Z</time>
</trkpt>
<trkpt lat="46.0381410" lon="9.4739760">
	<ele>1265.80</ele>
	<time>2023-07-15T12:04:15.000Z</time>
</trkpt>
<trkpt lat="46.0381730" lon="9.4739250">
	<ele>1266.00</ele>
	<time>2023-07-15T12:04:18.000Z</time>
</trkpt>
<trkpt lat="46.0382010" lon="9.4739150">
	<ele>1266.00</ele>
	<time>2023-07-15T12:04:22.000Z</time>
</trkpt>
<trkpt lat="46.0382160" lon="9.4739180">
	<ele>1266.00</ele>
	<time>2023-07-15T12:04:23.000Z</time>
</trkpt>
<trkpt lat="46.0382940" lon="9.4739200">
	<ele>1265.60</ele>
	<time>2023-07-15T12:04:28.000Z</time>
</trkpt>
<trkpt lat="46.0383250" lon="9.4739540">
	<ele>1265.60</ele>
	<time>2023-07-15T12:04:30.000Z</time>
</trkpt>
<trkpt lat="46.0383990" lon="9.4739780">
	<ele>1265.60</ele>
	<time>2023-07-15T12:04:34.000Z</time>
</trkpt>
<trkpt lat="46.0384080" lon="9.4739820">
	<ele>1265.60</ele>
	<time>2023-07-15T12:04:35.000Z</time>
</trkpt>
<trkpt lat="46.0384400" lon="9.4740280">
	<ele>1265.60</ele>
	<time>2023-07-15T12:04:42.000Z</time>
</trkpt>
<trkpt lat="46.0384700" lon="9.4740570">
	<ele>1265.80</ele>
	<time>2023-07-15T12:04:46.000Z</time>
</trkpt>
<trkpt lat="46.0385230" lon="9.4740710">
	<ele>1265.80</ele>
	<time>2023-07-15T12:04:49.000Z</time>
</trkpt>
<trkpt lat="46.0385630" lon="9.4740270">
	<ele>1266.00</ele>
	<time>2023-07-15T12:04:52.000Z</time>
</trkpt>
<trkpt lat="46.0385710" lon="9.4740900">
	<ele>1266.00</ele>
	<time>2023-07-15T12:04:56.000Z</time>
</trkpt>
<trkpt lat="46.0385780" lon="9.4740890">
	<ele>1266.00</ele>
	<time>2023-07-15T12:04:58.000Z</time>
</trkpt>
<trkpt lat="46.0385920" lon="9.4740960">
	<ele>1266.00</ele>
	<time>2023-07-15T12:05:00.000Z</time>
</trkpt>
<trkpt lat="46.0385980" lon="9.4740970">
	<ele>1265.80</ele>
	<time>2023-07-15T12:05:02.000Z</time>
</trkpt>
<trkpt lat="46.0386250" lon="9.4741020">
	<ele>1266.20</ele>
	<time>2023-07-15T12:05:08.000Z</time>
</trkpt>
<trkpt lat="46.0386270" lon="9.4741080">
	<ele>1266.60</ele>
	<time>2023-07-15T12:05:14.000Z</time>
</trkpt>
<trkpt lat="46.0386340" lon="9.4740130">
	<ele>1265.80</ele>
	<time>2023-07-15T12:05:21.000Z</time>
</trkpt>
<trkpt lat="46.0386430" lon="9.4739460">
	<ele>1265.20</ele>
	<time>2023-07-15T12:05:29.000Z</time>
</trkpt>
<trkpt lat="46.0386450" lon="9.4738920">
	<ele>1265.00</ele>
	<time>2023-07-15T12:05:38.000Z</time>
</trkpt>
<trkpt lat="46.0386420" lon="9.4738750">
	<ele>1265.00</ele>
	<time>2023-07-15T12:05:39.000Z</time>
</trkpt>
<trkpt lat="46.0386680" lon="9.4738000">
	<ele>1264.60</ele>
	<time>2023-07-15T12:05:45.000Z</time>
</trkpt>
<trkpt lat="46.0386980" lon="9.4737170">
	<ele>1264.20</ele>
	<time>2023-07-15T12:05:50.000Z</time>
</trkpt>
<trkpt lat="46.0387000" lon="9.4737070">
	<ele>1264.00</ele>
	<time>2023-07-15T12:05:51.000Z</time>
</trkpt>
<trkpt lat="46.0387000" lon="9.4736860">
	<ele>1263.60</ele>
	<time>2023-07-15T12:05:53.000Z</time>
</trkpt>
<trkpt lat="46.0387090" lon="9.4736320">
	<ele>1263.40</ele>
	<time>2023-07-15T12:05:56.000Z</time>
</trkpt>
<trkpt lat="46.0387060" lon="9.4735920">
	<ele>1263.40</ele>
	<time>2023-07-15T12:05:58.000Z</time>
</trkpt>
<trkpt lat="46.0387210" lon="9.4735730">
	<ele>1263.00</ele>
	<time>2023-07-15T12:06:00.000Z</time>
</trkpt>
<trkpt lat="46.0387380" lon="9.4735750">
	<ele>1263.00</ele>
	<time>2023-07-15T12:06:01.000Z</time>
</trkpt>
<trkpt lat="46.0387930" lon="9.4735320">
	<ele>1262.60</ele>
	<time>2023-07-15T12:06:06.000Z</time>
</trkpt>
<trkpt lat="46.0388270" lon="9.4734790">
	<ele>1262.60</ele>
	<time>2023-07-15T12:06:09.000Z</time>
</trkpt>
<trkpt lat="46.0388580" lon="9.4733590">
	<ele>1262.60</ele>
	<time>2023-07-15T12:06:16.000Z</time>
</trkpt>
<trkpt lat="46.0388590" lon="9.4733160">
	<ele>1262.60</ele>
	<time>2023-07-15T12:06:18.000Z</time>
</trkpt>
<trkpt lat="46.0388490" lon="9.4732930">
	<ele>1262.40</ele>
	<time>2023-07-15T12:06:19.000Z</time>
</trkpt>
<trkpt lat="46.0388490" lon="9.4732350">
	<ele>1262.40</ele>
	<time>2023-07-15T12:06:22.000Z</time>
</trkpt>
<trkpt lat="46.0388230" lon="9.4731290">
	<ele>1262.00</ele>
	<time>2023-07-15T12:06:28.000Z</time>
</trkpt>
<trkpt lat="46.0388230" lon="9.4730590">
	<ele>1262.00</ele>
	<time>2023-07-15T12:06:32.000Z</time>
</trkpt>
<trkpt lat="46.0388280" lon="9.4730460">
	<ele>1262.00</ele>
	<time>2023-07-15T12:06:33.000Z</time>
</trkpt>
<trkpt lat="46.0388490" lon="9.4730090">
	<ele>1262.00</ele>
	<time>2023-07-15T12:06:36.000Z</time>
</trkpt>
<trkpt lat="46.0388600" lon="9.4729970">
	<ele>1262.00</ele>
	<time>2023-07-15T12:06:37.000Z</time>
</trkpt>
<trkpt lat="46.0389080" lon="9.4729520">
	<ele>1261.20</ele>
	<time>2023-07-15T12:06:42.000Z</time>
</trkpt>
<trkpt lat="46.0389290" lon="9.4729450">
	<ele>1260.80</ele>
	<time>2023-07-15T12:06:44.000Z</time>
</trkpt>
<trkpt lat="46.0389350" lon="9.4729510">
	<ele>1260.80</ele>
	<time>2023-07-15T12:06:45.000Z</time>
</trkpt>
<trkpt lat="46.0389740" lon="9.4729590">
	<ele>1260.20</ele>
	<time>2023-07-15T12:06:49.000Z</time>
</trkpt>
<trkpt lat="46.0390110" lon="9.4729730">
	<ele>1259.80</ele>
	<time>2023-07-15T12:06:52.000Z</time>
</trkpt>
<trkpt lat="46.0390650" lon="9.4729880">
	<ele>1259.40</ele>
	<time>2023-07-15T12:06:56.000Z</time>
</trkpt>
<trkpt lat="46.0390940" lon="9.4730050">
	<ele>1259.40</ele>
	<time>2023-07-15T12:06:58.000Z</time>
</trkpt>
<trkpt lat="46.0391130" lon="9.4730110">
	<ele>1259.40</ele>
	<time>2023-07-15T12:06:59.000Z</time>
</trkpt>
<trkpt lat="46.0391300" lon="9.4730150">
	<ele>1259.20</ele>
	<time>2023-07-15T12:07:01.000Z</time>
</trkpt>
<trkpt lat="46.0391420" lon="9.4730010">
	<ele>1259.00</ele>
	<time>2023-07-15T12:07:02.000Z</time>
</trkpt>
<trkpt lat="46.0391480" lon="9.4729810">
	<ele>1259.00</ele>
	<time>2023-07-15T12:07:03.000Z</time>
</trkpt>
<trkpt lat="46.0391580" lon="9.4729440">
	<ele>1258.60</ele>
	<time>2023-07-15T12:07:04.000Z</time>
</trkpt>
<trkpt lat="46.0391880" lon="9.4728600">
	<ele>1257.80</ele>
	<time>2023-07-15T12:07:08.000Z</time>
</trkpt>
<trkpt lat="46.0391890" lon="9.4728530">
	<ele>1257.60</ele>
	<time>2023-07-15T12:07:09.000Z</time>
</trkpt>
<trkpt lat="46.0392240" lon="9.4728120">
	<ele>1257.00</ele>
	<time>2023-07-15T12:07:12.000Z</time>
</trkpt>
<trkpt lat="46.0392400" lon="9.4728090">
	<ele>1256.80</ele>
	<time>2023-07-15T12:07:13.000Z</time>
</trkpt>
<trkpt lat="46.0392510" lon="9.4728110">
	<ele>1256.80</ele>
	<time>2023-07-15T12:07:14.000Z</time>
</trkpt>
<trkpt lat="46.0392580" lon="9.4727780">
	<ele>1256.60</ele>
	<time>2023-07-15T12:07:19.000Z</time>
</trkpt>
<trkpt lat="46.0392530" lon="9.4727640">
	<ele>1256.80</ele>
	<time>2023-07-15T12:07:24.000Z</time>
</trkpt>
<trkpt lat="46.0392700" lon="9.4727180">
	<ele>1256.40</ele>
	<time>2023-07-15T12:07:29.000Z</time>
</trkpt>
<trkpt lat="46.0393020" lon="9.4726230">
	<ele>1255.60</ele>
	<time>2023-07-15T12:07:35.000Z</time>
</trkpt>
<trkpt lat="46.0393330" lon="9.4725860">
	<ele>1255.40</ele>
	<time>2023-07-15T12:07:38.000Z</time>
</trkpt>
<trkpt lat="46.0393810" lon="9.4724760">
	<ele>1254.20</ele>
	<time>2023-07-15T12:07:44.000Z</time>
</trkpt>
<trkpt lat="46.0393880" lon="9.4724560">
	<ele>1254.00</ele>
	<time>2023-07-15T12:07:45.000Z</time>
</trkpt>
<trkpt lat="46.0394030" lon="9.4724210">
	<ele>1253.60</ele>
	<time>2023-07-15T12:07:47.000Z</time>
</trkpt>
<trkpt lat="46.0394290" lon="9.4723910">
	<ele>1253.40</ele>
	<time>2023-07-15T12:07:49.000Z</time>
</trkpt>
<trkpt lat="46.0394360" lon="9.4723760">
	<ele>1253.40</ele>
	<time>2023-07-15T12:07:50.000Z</time>
</trkpt>
<trkpt lat="46.0394600" lon="9.4723600">
	<ele>1253.20</ele>
	<time>2023-07-15T12:07:52.000Z</time>
</trkpt>
<trkpt lat="46.0394630" lon="9.4723510">
	<ele>1253.00</ele>
	<time>2023-07-15T12:07:53.000Z</time>
</trkpt>
<trkpt lat="46.0394800" lon="9.4723260">
	<ele>1252.60</ele>
	<time>2023-07-15T12:07:55.000Z</time>
</trkpt>
<trkpt lat="46.0395040" lon="9.4722620">
	<ele>1251.80</ele>
	<time>2023-07-15T12:07:59.000Z</time>
</trkpt>
<trkpt lat="46.0395120" lon="9.4722520">
	<ele>1251.60</ele>
	<time>2023-07-15T12:08:00.000Z</time>
</trkpt>
<trkpt lat="46.0395220" lon="9.4722260">
	<ele>1251.40</ele>
	<time>2023-07-15T12:08:02.000Z</time>
</trkpt>
<trkpt lat="46.0395390" lon="9.4721960">
	<ele>1251.20</ele>
	<time>2023-07-15T12:08:04.000Z</time>
</trkpt>
<trkpt lat="46.0395730" lon="9.4721620">
	<ele>1251.00</ele>
	<time>2023-07-15T12:08:07.000Z</time>
</trkpt>
<trkpt lat="46.0395820" lon="9.4721450">
	<ele>1250.80</ele>
	<time>2023-07-15T12:08:08.000Z</time>
</trkpt>
<trkpt lat="46.0395830" lon="9.4721400">
	<ele>1250.40</ele>
	<time>2023-07-15T12:08:10.000Z</time>
</trkpt>
<trkpt lat="46.0395890" lon="9.4721310">
	<ele>1250.20</ele>
	<time>2023-07-15T12:08:11.000Z</time>
</trkpt>
<trkpt lat="46.0396350" lon="9.4720850">
	<ele>1249.80</ele>
	<time>2023-07-15T12:08:15.000Z</time>
</trkpt>
<trkpt lat="46.0396390" lon="9.4720730">
	<ele>1249.80</ele>
	<time>2023-07-15T12:08:16.000Z</time>
</trkpt>
<trkpt lat="46.0396460" lon="9.4720520">
	<ele>1249.60</ele>
	<time>2023-07-15T12:08:18.000Z</time>
</trkpt>
<trkpt lat="46.0396590" lon="9.4720230">
	<ele>1249.40</ele>
	<time>2023-07-15T12:08:21.000Z</time>
</trkpt>
<trkpt lat="46.0397150" lon="9.4718660">
	<ele>1249.40</ele>
	<time>2023-07-15T12:08:28.000Z</time>
</trkpt>
<trkpt lat="46.0397640" lon="9.4718120">
	<ele>1248.60</ele>
	<time>2023-07-15T12:08:31.000Z</time>
</trkpt>
<trkpt lat="46.0397830" lon="9.4717440">
	<ele>1248.20</ele>
	<time>2023-07-15T12:08:34.000Z</time>
</trkpt>
<trkpt lat="46.0398020" lon="9.4716900">
	<ele>1247.60</ele>
	<time>2023-07-15T12:08:37.000Z</time>
</trkpt>
<trkpt lat="46.0398360" lon="9.4716240">
	<ele>1247.20</ele>
	<time>2023-07-15T12:08:41.000Z</time>
</trkpt>
<trkpt lat="46.0398270" lon="9.4715690">
	<ele>1246.80</ele>
	<time>2023-07-15T12:08:45.000Z</time>
</trkpt>
<trkpt lat="46.0398310" lon="9.4715080">
	<ele>1246.60</ele>
	<time>2023-07-15T12:08:49.000Z</time>
</trkpt>
<trkpt lat="46.0398460" lon="9.4714920">
	<ele>1246.60</ele>
	<time>2023-07-15T12:08:50.000Z</time>
</trkpt>
<trkpt lat="46.0398480" lon="9.4714760">
	<ele>1246.40</ele>
	<time>2023-07-15T12:08:51.000Z</time>
</trkpt>
<trkpt lat="46.0398480" lon="9.4714330">
	<ele>1246.40</ele>
	<time>2023-07-15T12:08:53.000Z</time>
</trkpt>
<trkpt lat="46.0398530" lon="9.4714120">
	<ele>1246.20</ele>
	<time>2023-07-15T12:08:54.000Z</time>
</trkpt>
<trkpt lat="46.0398540" lon="9.4713730">
	<ele>1245.80</ele>
	<time>2023-07-15T12:08:56.000Z</time>
</trkpt>
<trkpt lat="46.0398540" lon="9.4713520">
	<ele>1245.60</ele>
	<time>2023-07-15T12:08:57.000Z</time>
</trkpt>
<trkpt lat="46.0398490" lon="9.4713090">
	<ele>1245.40</ele>
	<time>2023-07-15T12:08:59.000Z</time>
</trkpt>
<trkpt lat="46.0398300" lon="9.4712300">
	<ele>1245.40</ele>
	<time>2023-07-15T12:09:02.000Z</time>
</trkpt>
<trkpt lat="46.0398110" lon="9.4712180">
	<ele>1245.00</ele>
	<time>2023-07-15T12:09:04.000Z</time>
</trkpt>
<trkpt lat="46.0398080" lon="9.4711460">
	<ele>1244.80</ele>
	<time>2023-07-15T12:09:07.000Z</time>
</trkpt>
<trkpt lat="46.0397900" lon="9.4710710">
	<ele>1244.80</ele>
	<time>2023-07-15T12:09:11.000Z</time>
</trkpt>
<trkpt lat="46.0397870" lon="9.4709780">
	<ele>1244.40</ele>
	<time>2023-07-15T12:09:16.000Z</time>
</trkpt>
<trkpt lat="46.0397840" lon="9.4709590">
	<ele>1244.20</ele>
	<time>2023-07-15T12:09:17.000Z</time>
</trkpt>
<trkpt lat="46.0397510" lon="9.4708480">
	<ele>1243.20</ele>
	<time>2023-07-15T12:09:22.000Z</time>
</trkpt>
<trkpt lat="46.0397730" lon="9.4706320">
	<ele>1243.00</ele>
	<time>2023-07-15T12:09:31.000Z</time>
</trkpt>
<trkpt lat="46.0397750" lon="9.4706010">
	<ele>1243.00</ele>
	<time>2023-07-15T12:09:32.000Z</time>
</trkpt>
<trkpt lat="46.0397840" lon="9.4705080">
	<ele>1242.40</ele>
	<time>2023-07-15T12:09:37.000Z</time>
</trkpt>
<trkpt lat="46.0397840" lon="9.4704760">
	<ele>1242.20</ele>
	<time>2023-07-15T12:09:39.000Z</time>
</trkpt>
<trkpt lat="46.0397890" lon="9.4704540">
	<ele>1241.80</ele>
	<time>2023-07-15T12:09:41.000Z</time>
</trkpt>
<trkpt lat="46.0397850" lon="9.4704390">
	<ele>1241.80</ele>
	<time>2023-07-15T12:09:42.000Z</time>
</trkpt>
<trkpt lat="46.0397900" lon="9.4704080">
	<ele>1241.60</ele>
	<time>2023-07-15T12:09:44.000Z</time>
</trkpt>
<trkpt lat="46.0397990" lon="9.4703330">
	<ele>1241.00</ele>
	<time>2023-07-15T12:09:49.000Z</time>
</trkpt>
<trkpt lat="46.0398050" lon="9.4702800">
	<ele>1240.40</ele>
	<time>2023-07-15T12:09:52.000Z</time>
</trkpt>
<trkpt lat="46.0398130" lon="9.4701920">
	<ele>1239.80</ele>
	<time>2023-07-15T12:09:56.000Z</time>
</trkpt>
<trkpt lat="46.0398180" lon="9.4701620">
	<ele>1239.60</ele>
	<time>2023-07-15T12:09:58.000Z</time>
</trkpt>
<trkpt lat="46.0398190" lon="9.4701510">
	<ele>1239.40</ele>
	<time>2023-07-15T12:10:00.000Z</time>
</trkpt>
<trkpt lat="46.0398240" lon="9.4700980">
	<ele>1239.20</ele>
	<time>2023-07-15T12:10:03.000Z</time>
</trkpt>
<trkpt lat="46.0398130" lon="9.4700570">
	<ele>1238.80</ele>
	<time>2023-07-15T12:10:05.000Z</time>
</trkpt>
<trkpt lat="46.0398080" lon="9.4700330">
	<ele>1238.60</ele>
	<time>2023-07-15T12:10:06.000Z</time>
</trkpt>
<trkpt lat="46.0398070" lon="9.4700070">
	<ele>1238.40</ele>
	<time>2023-07-15T12:10:07.000Z</time>
</trkpt>
<trkpt lat="46.0398060" lon="9.4699150">
	<ele>1238.00</ele>
	<time>2023-07-15T12:10:11.000Z</time>
</trkpt>
<trkpt lat="46.0398020" lon="9.4699120">
	<ele>1238.00</ele>
	<time>2023-07-15T12:10:12.000Z</time>
</trkpt>
<trkpt lat="46.0397900" lon="9.4699060">
	<ele>1238.00</ele>
	<time>2023-07-15T12:10:14.000Z</time>
</trkpt>
<trkpt lat="46.0397900" lon="9.4698750">
	<ele>1237.60</ele>
	<time>2023-07-15T12:10:16.000Z</time>
</trkpt>
<trkpt lat="46.0398030" lon="9.4698420">
	<ele>1237.40</ele>
	<time>2023-07-15T12:10:18.000Z</time>
</trkpt>
<trkpt lat="46.0398140" lon="9.4697790">
	<ele>1237.40</ele>
	<time>2023-07-15T12:10:21.000Z</time>
</trkpt>
<trkpt lat="46.0397490" lon="9.4696120">
	<ele>1236.60</ele>
	<time>2023-07-15T12:10:28.000Z</time>
</trkpt>
<trkpt lat="46.0397440" lon="9.4695980">
	<ele>1236.40</ele>
	<time>2023-07-15T12:10:29.000Z</time>
</trkpt>
<trkpt lat="46.0397270" lon="9.4695450">
	<ele>1236.40</ele>
	<time>2023-07-15T12:10:31.000Z</time>
</trkpt>
<trkpt lat="46.0397220" lon="9.4695030">
	<ele>1236.00</ele>
	<time>2023-07-15T12:10:34.000Z</time>
</trkpt>
<trkpt lat="46.0397260" lon="9.4695000">
	<ele>1235.80</ele>
	<time>2023-07-15T12:10:35.000Z</time>
</trkpt>
<trkpt lat="46.0397380" lon="9.4694670">
	<ele>1235.80</ele>
	<time>2023-07-15T12:10:38.000Z</time>
</trkpt>
<trkpt lat="46.0397450" lon="9.4694390">
	<ele>1235.60</ele>
	<time>2023-07-15T12:10:40.000Z</time>
</trkpt>
<trkpt lat="46.0397540" lon="9.4694170">
	<ele>1235.00</ele>
	<time>2023-07-15T12:10:44.000Z</time>
</trkpt>
<trkpt lat="46.0397530" lon="9.4693750">
	<ele>1234.40</ele>
	<time>2023-07-15T12:10:46.000Z</time>
</trkpt>
<trkpt lat="46.0397510" lon="9.4693490">
	<ele>1234.40</ele>
	<time>2023-07-15T12:10:47.000Z</time>
</trkpt>
<trkpt lat="46.0397510" lon="9.4693280">
	<ele>1234.20</ele>
	<time>2023-07-15T12:10:48.000Z</time>
</trkpt>
<trkpt lat="46.0397560" lon="9.4692790">
	<ele>1234.00</ele>
	<time>2023-07-15T12:10:51.000Z</time>
</trkpt>
<trkpt lat="46.0397530" lon="9.4692600">
	<ele>1233.60</ele>
	<time>2023-07-15T12:10:53.000Z</time>
</trkpt>
<trkpt lat="46.0397520" lon="9.4692490">
	<ele>1233.40</ele>
	<time>2023-07-15T12:10:54.000Z</time>
</trkpt>
<trkpt lat="46.0397600" lon="9.4691820">
	<ele>1233.20</ele>
	<time>2023-07-15T12:10:57.000Z</time>
</trkpt>
<trkpt lat="46.0397570" lon="9.4691180">
	<ele>1233.00</ele>
	<time>2023-07-15T12:11:01.000Z</time>
</trkpt>
<trkpt lat="46.0397460" lon="9.4690720">
	<ele>1232.40</ele>
	<time>2023-07-15T12:11:04.000Z</time>
</trkpt>
<trkpt lat="46.0397350" lon="9.4690300">
	<ele>1232.20</ele>
	<time>2023-07-15T12:11:06.000Z</time>
</trkpt>
<trkpt lat="46.0397340" lon="9.4689230">
	<ele>1231.40</ele>
	<time>2023-07-15T12:11:12.000Z</time>
</trkpt>
<trkpt lat="46.0397340" lon="9.4689090">
	<ele>1231.40</ele>
	<time>2023-07-15T12:11:14.000Z</time>
</trkpt>
<trkpt lat="46.0397380" lon="9.4688950">
	<ele>1231.20</ele>
	<time>2023-07-15T12:11:15.000Z</time>
</trkpt>
<trkpt lat="46.0397390" lon="9.4688440">
	<ele>1231.00</ele>
	<time>2023-07-15T12:11:18.000Z</time>
</trkpt>
<trkpt lat="46.0397580" lon="9.4687880">
	<ele>1230.60</ele>
	<time>2023-07-15T12:11:21.000Z</time>
</trkpt>
<trkpt lat="46.0397680" lon="9.4687300">
	<ele>1230.20</ele>
	<time>2023-07-15T12:11:25.000Z</time>
</trkpt>
<trkpt lat="46.0397930" lon="9.4686900">
	<ele>1229.80</ele>
	<time>2023-07-15T12:11:28.000Z</time>
</trkpt>
<trkpt lat="46.0397990" lon="9.4686880">
	<ele>1229.60</ele>
	<time>2023-07-15T12:11:30.000Z</time>
</trkpt>
<trkpt lat="46.0398350" lon="9.4686620">
	<ele>1229.40</ele>
	<time>2023-07-15T12:11:34.000Z</time>
</trkpt>
<trkpt lat="46.0398810" lon="9.4686030">
	<ele>1229.20</ele>
	<time>2023-07-15T12:11:39.000Z</time>
</trkpt>
<trkpt lat="46.0398860" lon="9.4686000">
	<ele>1229.00</ele>
	<time>2023-07-15T12:11:40.000Z</time>
</trkpt>
<trkpt lat="46.0398890" lon="9.4685920">
	<ele>1228.80</ele>
	<time>2023-07-15T12:11:41.000Z</time>
</trkpt>
<trkpt lat="46.0398970" lon="9.4685810">
	<ele>1228.80</ele>
	<time>2023-07-15T12:11:42.000Z</time>
</trkpt>
<trkpt lat="46.0399010" lon="9.4685620">
	<ele>1228.60</ele>
	<time>2023-07-15T12:11:43.000Z</time>
</trkpt>
<trkpt lat="46.0399220" lon="9.4685200">
	<ele>1228.40</ele>
	<time>2023-07-15T12:11:45.000Z</time>
</trkpt>
<trkpt lat="46.0399470" lon="9.4684890">
	<ele>1228.00</ele>
	<time>2023-07-15T12:11:47.000Z</time>
</trkpt>
<trkpt lat="46.0399700" lon="9.4684640">
	<ele>1227.00</ele>
	<time>2023-07-15T12:11:51.000Z</time>
</trkpt>
<trkpt lat="46.0400320" lon="9.4684600">
	<ele>1226.20</ele>
	<time>2023-07-15T12:11:58.000Z</time>
</trkpt>
<trkpt lat="46.0400570" lon="9.4684420">
	<ele>1225.80</ele>
	<time>2023-07-15T12:12:00.000Z</time>
</trkpt>
<trkpt lat="46.0400880" lon="9.4684360">
	<ele>1225.40</ele>
	<time>2023-07-15T12:12:04.000Z</time>
</trkpt>
<trkpt lat="46.0401040" lon="9.4684320">
	<ele>1225.00</ele>
	<time>2023-07-15T12:12:06.000Z</time>
</trkpt>
<trkpt lat="46.0401140" lon="9.4684270">
	<ele>1225.00</ele>
	<time>2023-07-15T12:12:07.000Z</time>
</trkpt>
<trkpt lat="46.0401240" lon="9.4684280">
	<ele>1224.80</ele>
	<time>2023-07-15T12:12:08.000Z</time>
</trkpt>
<trkpt lat="46.0401470" lon="9.4684020">
	<ele>1223.80</ele>
	<time>2023-07-15T12:12:13.000Z</time>
</trkpt>
<trkpt lat="46.0401570" lon="9.4683950">
	<ele>1223.60</ele>
	<time>2023-07-15T12:12:14.000Z</time>
</trkpt>
<trkpt lat="46.0402170" lon="9.4683700">
	<ele>1223.40</ele>
	<time>2023-07-15T12:12:19.000Z</time>
</trkpt>
<trkpt lat="46.0402290" lon="9.4683470">
	<ele>1223.40</ele>
	<time>2023-07-15T12:12:21.000Z</time>
</trkpt>
<trkpt lat="46.0402390" lon="9.4683100">
	<ele>1223.20</ele>
	<time>2023-07-15T12:12:23.000Z</time>
</trkpt>
<trkpt lat="46.0402390" lon="9.4682790">
	<ele>1223.00</ele>
	<time>2023-07-15T12:12:25.000Z</time>
</trkpt>
<trkpt lat="46.0402440" lon="9.4682540">
	<ele>1222.80</ele>
	<time>2023-07-15T12:12:27.000Z</time>
</trkpt>
<trkpt lat="46.0402560" lon="9.4682240">
	<ele>1222.60</ele>
	<time>2023-07-15T12:12:29.000Z</time>
</trkpt>
<trkpt lat="46.0402930" lon="9.4681740">
	<ele>1222.20</ele>
	<time>2023-07-15T12:12:34.000Z</time>
</trkpt>
<trkpt lat="46.0403080" lon="9.4681360">
	<ele>1221.40</ele>
	<time>2023-07-15T12:12:38.000Z</time>
</trkpt>
<trkpt lat="46.0403120" lon="9.4681220">
	<ele>1221.00</ele>
	<time>2023-07-15T12:12:39.000Z</time>
</trkpt>
<trkpt lat="46.0403310" lon="9.4680470">
	<ele>1220.60</ele>
	<time>2023-07-15T12:12:43.000Z</time>
</trkpt>
<trkpt lat="46.0403400" lon="9.4679960">
	<ele>1220.20</ele>
	<time>2023-07-15T12:12:46.000Z</time>
</trkpt>
<trkpt lat="46.0403380" lon="9.4679330">
	<ele>1219.20</ele>
	<time>2023-07-15T12:12:50.000Z</time>
</trkpt>
<trkpt lat="46.0403330" lon="9.4679080">
	<ele>1218.80</ele>
	<time>2023-07-15T12:12:51.000Z</time>
</trkpt>
<trkpt lat="46.0402940" lon="9.4678620">
	<ele>1218.00</ele>
	<time>2023-07-15T12:12:55.000Z</time>
</trkpt>
<trkpt lat="46.0402910" lon="9.4678540">
	<ele>1217.60</ele>
	<time>2023-07-15T12:12:56.000Z</time>
</trkpt>
<trkpt lat="46.0402890" lon="9.4678410">
	<ele>1217.40</ele>
	<time>2023-07-15T12:12:57.000Z</time>
</trkpt>
<trkpt lat="46.0402780" lon="9.4678370">
	<ele>1217.40</ele>
	<time>2023-07-15T12:12:58.000Z</time>
</trkpt>
<trkpt lat="46.0402700" lon="9.4677970">
	<ele>1216.80</ele>
	<time>2023-07-15T12:13:01.000Z</time>
</trkpt>
<trkpt lat="46.0402720" lon="9.4677860">
	<ele>1216.60</ele>
	<time>2023-07-15T12:13:03.000Z</time>
</trkpt>
<trkpt lat="46.0402730" lon="9.4677860">
	<ele>1216.40</ele>
	<time>2023-07-15T12:13:04.000Z</time>
</trkpt>
<trkpt lat="46.0402730" lon="9.4677790">
	<ele>1216.40</ele>
	<time>2023-07-15T12:13:13.000Z</time>
</trkpt>
<trkpt lat="46.0402730" lon="9.4677820">
	<ele>1216.60</ele>
	<time>2023-07-15T12:13:18.000Z</time>
</trkpt>
<trkpt lat="46.0402720" lon="9.4677850">
	<ele>1216.40</ele>
	<time>2023-07-15T12:13:34.000Z</time>
</trkpt>
<trkpt lat="46.0402500" lon="9.4677740">
	<ele>1216.20</ele>
	<time>2023-07-15T12:13:38.000Z</time>
</trkpt>
<trkpt lat="46.0402460" lon="9.4677660">
	<ele>1216.00</ele>
	<time>2023-07-15T12:13:40.000Z</time>
</trkpt>
<trkpt lat="46.0402430" lon="9.4677640">
	<ele>1216.60</ele>
	<time>2023-07-15T12:13:45.000Z</time>
</trkpt>
<trkpt lat="46.0402430" lon="9.4677640">
	<ele>1216.60</ele>
	<time>2023-07-15T12:13:46.000Z</time>
</trkpt>
<trkpt lat="46.0402360" lon="9.4677620">
	<ele>1216.40</ele>
	<time>2023-07-15T12:13:54.000Z</time>
</trkpt>
<trkpt lat="46.0402360" lon="9.4677600">
	<ele>1216.40</ele>
	<time>2023-07-15T12:13:58.000Z</time>
</trkpt>
<trkpt lat="46.0402360" lon="9.4677600">
	<ele>1216.60</ele>
	<time>2023-07-15T12:14:00.000Z</time>
</trkpt>
<trkpt lat="46.0402360" lon="9.4677590">
	<ele>1216.60</ele>
	<time>2023-07-15T12:14:03.000Z</time>
</trkpt>
<trkpt lat="46.0402460" lon="9.4677050">
	<ele>1216.20</ele>
	<time>2023-07-15T12:14:21.000Z</time>
</trkpt>
<trkpt lat="46.0402550" lon="9.4676930">
	<ele>1216.20</ele>
	<time>2023-07-15T12:14:22.000Z</time>
</trkpt>
<trkpt lat="46.0403030" lon="9.4676560">
	<ele>1216.20</ele>
	<time>2023-07-15T12:14:25.000Z</time>
</trkpt>
<trkpt lat="46.0403550" lon="9.4676260">
	<ele>1216.20</ele>
	<time>2023-07-15T12:14:29.000Z</time>
</trkpt>
<trkpt lat="46.0403620" lon="9.4676190">
	<ele>1214.60</ele>
	<time>2023-07-15T12:14:30.000Z</time>
</trkpt>
<trkpt lat="46.0403810" lon="9.4676000">
	<ele>1213.20</ele>
	<time>2023-07-15T12:14:32.000Z</time>
</trkpt>
<trkpt lat="46.0404140" lon="9.4675660">
	<ele>1212.20</ele>
	<time>2023-07-15T12:14:36.000Z</time>
</trkpt>
<trkpt lat="46.0404520" lon="9.4674910">
	<ele>1211.20</ele>
	<time>2023-07-15T12:14:41.000Z</time>
</trkpt>
<trkpt lat="46.0404700" lon="9.4674620">
	<ele>1210.40</ele>
	<time>2023-07-15T12:14:44.000Z</time>
</trkpt>
<trkpt lat="46.0404860" lon="9.4674410">
	<ele>1210.00</ele>
	<time>2023-07-15T12:14:46.000Z</time>
</trkpt>
<trkpt lat="46.0405120" lon="9.4673610">
	<ele>1209.20</ele>
	<time>2023-07-15T12:14:51.000Z</time>
</trkpt>
<trkpt lat="46.0405220" lon="9.4673470">
	<ele>1209.00</ele>
	<time>2023-07-15T12:14:52.000Z</time>
</trkpt>
<trkpt lat="46.0405640" lon="9.4673000">
	<ele>1208.20</ele>
	<time>2023-07-15T12:14:57.000Z</time>
</trkpt>
<trkpt lat="46.0406050" lon="9.4672410">
	<ele>1207.40</ele>
	<time>2023-07-15T12:15:01.000Z</time>
</trkpt>
<trkpt lat="46.0406400" lon="9.4671870">
	<ele>1206.40</ele>
	<time>2023-07-15T12:15:05.000Z</time>
</trkpt>
<trkpt lat="46.0406850" lon="9.4671680">
	<ele>1205.40</ele>
	<time>2023-07-15T12:15:10.000Z</time>
</trkpt>
<trkpt lat="46.0406980" lon="9.4671760">
	<ele>1205.40</ele>
	<time>2023-07-15T12:15:11.000Z</time>
</trkpt>
<trkpt lat="46.0407200" lon="9.4671650">
	<ele>1205.20</ele>
	<time>2023-07-15T12:15:13.000Z</time>
</trkpt>
<trkpt lat="46.0407300" lon="9.4670980">
	<ele>1204.40</ele>
	<time>2023-07-15T12:15:16.000Z</time>
</trkpt>
<trkpt lat="46.0407330" lon="9.4670890">
	<ele>1204.00</ele>
	<time>2023-07-15T12:15:17.000Z</time>
</trkpt>
<trkpt lat="46.0407380" lon="9.4670840">
	<ele>1203.80</ele>
	<time>2023-07-15T12:15:18.000Z</time>
</trkpt>
<trkpt lat="46.0407440" lon="9.4670750">
	<ele>1203.80</ele>
	<time>2023-07-15T12:15:19.000Z</time>
</trkpt>
<trkpt lat="46.0407960" lon="9.4670580">
	<ele>1203.00</ele>
	<time>2023-07-15T12:15:23.000Z</time>
</trkpt>
<trkpt lat="46.0408350" lon="9.4670010">
	<ele>1202.00</ele>
	<time>2023-07-15T12:15:29.000Z</time>
</trkpt>
<trkpt lat="46.0408600" lon="9.4669550">
	<ele>1201.00</ele>
	<time>2023-07-15T12:15:34.000Z</time>
</trkpt>
<trkpt lat="46.0408740" lon="9.4669330">
	<ele>1200.80</ele>
	<time>2023-07-15T12:15:36.000Z</time>
</trkpt>
<trkpt lat="46.0408810" lon="9.4669190">
	<ele>1200.80</ele>
	<time>2023-07-15T12:15:37.000Z</time>
</trkpt>
<trkpt lat="46.0408910" lon="9.4669010">
	<ele>1200.80</ele>
	<time>2023-07-15T12:15:38.000Z</time>
</trkpt>
<trkpt lat="46.0409060" lon="9.4668770">
	<ele>1199.80</ele>
	<time>2023-07-15T12:15:41.000Z</time>
</trkpt>
<trkpt lat="46.0409250" lon="9.4668400">
	<ele>1199.20</ele>
	<time>2023-07-15T12:15:44.000Z</time>
</trkpt>
<trkpt lat="46.0409440" lon="9.4668000">
	<ele>1198.80</ele>
	<time>2023-07-15T12:15:47.000Z</time>
</trkpt>
<trkpt lat="46.0409510" lon="9.4667950">
	<ele>1198.60</ele>
	<time>2023-07-15T12:15:48.000Z</time>
</trkpt>
<trkpt lat="46.0409580" lon="9.4667790">
	<ele>1198.00</ele>
	<time>2023-07-15T12:15:50.000Z</time>
</trkpt>
<trkpt lat="46.0409640" lon="9.4667710">
	<ele>1198.00</ele>
	<time>2023-07-15T12:15:51.000Z</time>
</trkpt>
<trkpt lat="46.0409700" lon="9.4667570">
	<ele>1197.80</ele>
	<time>2023-07-15T12:15:52.000Z</time>
</trkpt>
<trkpt lat="46.0410130" lon="9.4666920">
	<ele>1196.80</ele>
	<time>2023-07-15T12:15:58.000Z</time>
</trkpt>
<trkpt lat="46.0410200" lon="9.4666830">
	<ele>1196.60</ele>
	<time>2023-07-15T12:15:59.000Z</time>
</trkpt>
<trkpt lat="46.0410550" lon="9.4666210">
	<ele>1195.40</ele>
	<time>2023-07-15T12:16:05.000Z</time>
</trkpt>
<trkpt lat="46.0410620" lon="9.4666080">
	<ele>1195.20</ele>
	<time>2023-07-15T12:16:06.000Z</time>
</trkpt>
<trkpt lat="46.0410910" lon="9.4665840">
	<ele>1195.00</ele>
	<time>2023-07-15T12:16:10.000Z</time>
</trkpt>
<trkpt lat="46.0411050" lon="9.4665730">
	<ele>1194.80</ele>
	<time>2023-07-15T12:16:12.000Z</time>
</trkpt>
<trkpt lat="46.0411110" lon="9.4665130">
	<ele>1194.40</ele>
	<time>2023-07-15T12:16:14.000Z</time>
</trkpt>
<trkpt lat="46.0411320" lon="9.4664420">
	<ele>1193.20</ele>
	<time>2023-07-15T12:16:18.000Z</time>
</trkpt>
<trkpt lat="46.0411380" lon="9.4664300">
	<ele>1193.00</ele>
	<time>2023-07-15T12:16:19.000Z</time>
</trkpt>
<trkpt lat="46.0411690" lon="9.4663770">
	<ele>1192.20</ele>
	<time>2023-07-15T12:16:23.000Z</time>
</trkpt>
<trkpt lat="46.0411960" lon="9.4663370">
	<ele>1191.80</ele>
	<time>2023-07-15T12:16:27.000Z</time>
</trkpt>
<trkpt lat="46.0412160" lon="9.4663060">
	<ele>1191.00</ele>
	<time>2023-07-15T12:16:31.000Z</time>
</trkpt>
<trkpt lat="46.0412370" lon="9.4662860">
	<ele>1190.80</ele>
	<time>2023-07-15T12:16:34.000Z</time>
</trkpt>
<trkpt lat="46.0412580" lon="9.4662320">
	<ele>1190.00</ele>
	<time>2023-07-15T12:16:38.000Z</time>
</trkpt>
<trkpt lat="46.0412660" lon="9.4661510">
	<ele>1189.40</ele>
	<time>2023-07-15T12:16:42.000Z</time>
</trkpt>
<trkpt lat="46.0412870" lon="9.4661150">
	<ele>1188.80</ele>
	<time>2023-07-15T12:16:45.000Z</time>
</trkpt>
<trkpt lat="46.0413270" lon="9.4660930">
	<ele>1188.20</ele>
	<time>2023-07-15T12:16:50.000Z</time>
</trkpt>
<trkpt lat="46.0413460" lon="9.4660870">
	<ele>1187.80</ele>
	<time>2023-07-15T12:16:53.000Z</time>
</trkpt>
<trkpt lat="46.0413540" lon="9.4660810">
	<ele>1187.60</ele>
	<time>2023-07-15T12:16:54.000Z</time>
</trkpt>
<trkpt lat="46.0413550" lon="9.4660690">
	<ele>1187.40</ele>
	<time>2023-07-15T12:16:55.000Z</time>
</trkpt>
<trkpt lat="46.0413650" lon="9.4660520">
	<ele>1186.80</ele>
	<time>2023-07-15T12:16:57.000Z</time>
</trkpt>
<trkpt lat="46.0413660" lon="9.4660400">
	<ele>1186.40</ele>
	<time>2023-07-15T12:16:58.000Z</time>
</trkpt>
<trkpt lat="46.0413920" lon="9.4660160">
	<ele>1186.00</ele>
	<time>2023-07-15T12:17:01.000Z</time>
</trkpt>
<trkpt lat="46.0413970" lon="9.4660060">
	<ele>1186.00</ele>
	<time>2023-07-15T12:17:02.000Z</time>
</trkpt>
<trkpt lat="46.0414030" lon="9.4659910">
	<ele>1185.60</ele>
	<time>2023-07-15T12:17:04.000Z</time>
</trkpt>
<trkpt lat="46.0414070" lon="9.4659740">
	<ele>1185.20</ele>
	<time>2023-07-15T12:17:05.000Z</time>
</trkpt>
<trkpt lat="46.0414260" lon="9.4659520">
	<ele>1184.80</ele>
	<time>2023-07-15T12:17:08.000Z</time>
</trkpt>
<trkpt lat="46.0414320" lon="9.4659680">
	<ele>1184.80</ele>
	<time>2023-07-15T12:17:09.000Z</time>
</trkpt>
<trkpt lat="46.0414290" lon="9.4659740">
	<ele>1184.80</ele>
	<time>2023-07-15T12:17:13.000Z</time>
</trkpt>
<trkpt lat="46.0414360" lon="9.4659590">
	<ele>1185.00</ele>
	<time>2023-07-15T12:17:18.000Z</time>
</trkpt>
<trkpt lat="46.0414350" lon="9.4659590">
	<ele>1185.00</ele>
	<time>2023-07-15T12:17:19.000Z</time>
</trkpt>
<trkpt lat="46.0414270" lon="9.4659640">
	<ele>1185.00</ele>
	<time>2023-07-15T12:17:25.000Z</time>
</trkpt>
<trkpt lat="46.0414200" lon="9.4659550">
	<ele>1185.00</ele>
	<time>2023-07-15T12:17:35.000Z</time>
</trkpt>
<trkpt lat="46.0414050" lon="9.4659620">
	<ele>1185.20</ele>
	<time>2023-07-15T12:17:42.000Z</time>
</trkpt>
<trkpt lat="46.0414040" lon="9.4659600">
	<ele>1185.20</ele>
	<time>2023-07-15T12:17:53.000Z</time>
</trkpt>
<trkpt lat="46.0414020" lon="9.4659570">
	<ele>1185.80</ele>
	<time>2023-07-15T12:18:09.000Z</time>
</trkpt>
<trkpt lat="46.0414000" lon="9.4659580">
	<ele>1184.60</ele>
	<time>2023-07-15T12:18:33.000Z</time>
</trkpt>
<trkpt lat="46.0413890" lon="9.4658910">
	<ele>1184.60</ele>
	<time>2023-07-15T12:19:16.000Z</time>
</trkpt>
<trkpt lat="46.0414160" lon="9.4657940">
	<ele>1184.60</ele>
	<time>2023-07-15T12:19:21.000Z</time>
</trkpt>
<trkpt lat="46.0414260" lon="9.4657410">
	<ele>1184.60</ele>
	<time>2023-07-15T12:19:25.000Z</time>
</trkpt>
<trkpt lat="46.0414320" lon="9.4657300">
	<ele>1184.60</ele>
	<time>2023-07-15T12:19:26.000Z</time>
</trkpt>
<trkpt lat="46.0414390" lon="9.4657180">
	<ele>1183.60</ele>
	<time>2023-07-15T12:19:27.000Z</time>
</trkpt>
<trkpt lat="46.0414420" lon="9.4657050">
	<ele>1183.00</ele>
	<time>2023-07-15T12:19:28.000Z</time>
</trkpt>
<trkpt lat="46.0414490" lon="9.4656950">
	<ele>1182.60</ele>
	<time>2023-07-15T12:19:29.000Z</time>
</trkpt>
<trkpt lat="46.0414620" lon="9.4656340">
	<ele>1182.00</ele>
	<time>2023-07-15T12:19:32.000Z</time>
</trkpt>
<trkpt lat="46.0414750" lon="9.4656060">
	<ele>1181.40</ele>
	<time>2023-07-15T12:19:34.000Z</time>
</trkpt>
<trkpt lat="46.0415220" lon="9.4655150">
	<ele>1180.80</ele>
	<time>2023-07-15T12:19:40.000Z</time>
</trkpt>
<trkpt lat="46.0415280" lon="9.4655020">
	<ele>1180.40</ele>
	<time>2023-07-15T12:19:41.000Z</time>
</trkpt>
<trkpt lat="46.0415590" lon="9.4654510">
	<ele>1179.20</ele>
	<time>2023-07-15T12:19:45.000Z</time>
</trkpt>
<trkpt lat="46.0415950" lon="9.4654080">
	<ele>1178.40</ele>
	<time>2023-07-15T12:19:49.000Z</time>
</trkpt>
<trkpt lat="46.0416080" lon="9.4654030">
	<ele>1178.20</ele>
	<time>2023-07-15T12:19:50.000Z</time>
</trkpt>
<trkpt lat="46.0416190" lon="9.4654000">
	<ele>1178.00</ele>
	<time>2023-07-15T12:19:51.000Z</time>
</trkpt>
<trkpt lat="46.0416310" lon="9.4653850">
	<ele>1177.80</ele>
	<time>2023-07-15T12:19:53.000Z</time>
</trkpt>
<trkpt lat="46.0416400" lon="9.4653590">
	<ele>1177.40</ele>
	<time>2023-07-15T12:19:55.000Z</time>
</trkpt>
<trkpt lat="46.0416720" lon="9.4653410">
	<ele>1176.80</ele>
	<time>2023-07-15T12:19:59.000Z</time>
</trkpt>
<trkpt lat="46.0416980" lon="9.4653160">
	<ele>1176.20</ele>
	<time>2023-07-15T12:20:02.000Z</time>
</trkpt>
<trkpt lat="46.0417130" lon="9.4653070">
	<ele>1175.80</ele>
	<time>2023-07-15T12:20:04.000Z</time>
</trkpt>
<trkpt lat="46.0417290" lon="9.4652880">
	<ele>1175.40</ele>
	<time>2023-07-15T12:20:06.000Z</time>
</trkpt>
<trkpt lat="46.0417650" lon="9.4652640">
	<ele>1175.00</ele>
	<time>2023-07-15T12:20:09.000Z</time>
</trkpt>
<trkpt lat="46.0417810" lon="9.4652280">
	<ele>1174.80</ele>
	<time>2023-07-15T12:20:11.000Z</time>
</trkpt>
<trkpt lat="46.0418090" lon="9.4652360">
	<ele>1174.20</ele>
	<time>2023-07-15T12:20:13.000Z</time>
</trkpt>
<trkpt lat="46.0418350" lon="9.4652520">
	<ele>1173.80</ele>
	<time>2023-07-15T12:20:15.000Z</time>
</trkpt>
<trkpt lat="46.0418440" lon="9.4652550">
	<ele>1173.60</ele>
	<time>2023-07-15T12:20:16.000Z</time>
</trkpt>
<trkpt lat="46.0419050" lon="9.4652430">
	<ele>1172.60</ele>
	<time>2023-07-15T12:20:23.000Z</time>
</trkpt>
<trkpt lat="46.0419490" lon="9.4652210">
	<ele>1171.20</ele>
	<time>2023-07-15T12:20:28.000Z</time>
</trkpt>
<trkpt lat="46.0419780" lon="9.4652290">
	<ele>1170.80</ele>
	<time>2023-07-15T12:20:30.000Z</time>
</trkpt>
<trkpt lat="46.0419950" lon="9.4652310">
	<ele>1170.60</ele>
	<time>2023-07-15T12:20:32.000Z</time>
</trkpt>
<trkpt lat="46.0420200" lon="9.4652360">
	<ele>1170.20</ele>
	<time>2023-07-15T12:20:34.000Z</time>
</trkpt>
<trkpt lat="46.0420330" lon="9.4652370">
	<ele>1170.00</ele>
	<time>2023-07-15T12:20:35.000Z</time>
</trkpt>
<trkpt lat="46.0420740" lon="9.4652190">
	<ele>1169.20</ele>
	<time>2023-07-15T12:20:39.000Z</time>
</trkpt>
<trkpt lat="46.0420810" lon="9.4652180">
	<ele>1169.00</ele>
	<time>2023-07-15T12:20:40.000Z</time>
</trkpt>
<trkpt lat="46.0421310" lon="9.4651940">
	<ele>1167.80</ele>
	<time>2023-07-15T12:20:45.000Z</time>
</trkpt>
<trkpt lat="46.0421440" lon="9.4651940">
	<ele>1167.80</ele>
	<time>2023-07-15T12:20:46.000Z</time>
</trkpt>
<trkpt lat="46.0421520" lon="9.4651890">
	<ele>1167.60</ele>
	<time>2023-07-15T12:20:47.000Z</time>
</trkpt>
<trkpt lat="46.0421990" lon="9.4651890">
	<ele>1166.80</ele>
	<time>2023-07-15T12:20:50.000Z</time>
</trkpt>
<trkpt lat="46.0422130" lon="9.4651960">
	<ele>1166.60</ele>
	<time>2023-07-15T12:20:51.000Z</time>
</trkpt>
<trkpt lat="46.0422950" lon="9.4652420">
	<ele>1165.80</ele>
	<time>2023-07-15T12:20:56.000Z</time>
</trkpt>
<trkpt lat="46.0423130" lon="9.4652220">
	<ele>1165.60</ele>
	<time>2023-07-15T12:20:58.000Z</time>
</trkpt>
<trkpt lat="46.0423220" lon="9.4652010">
	<ele>1165.40</ele>
	<time>2023-07-15T12:20:59.000Z</time>
</trkpt>
<trkpt lat="46.0423430" lon="9.4651860">
	<ele>1164.80</ele>
	<time>2023-07-15T12:21:02.000Z</time>
</trkpt>
<trkpt lat="46.0423690" lon="9.4651890">
	<ele>1164.60</ele>
	<time>2023-07-15T12:21:04.000Z</time>
</trkpt>
<trkpt lat="46.0424130" lon="9.4651560">
	<ele>1163.40</ele>
	<time>2023-07-15T12:21:09.000Z</time>
</trkpt>
<trkpt lat="46.0424220" lon="9.4651610">
	<ele>1163.20</ele>
	<time>2023-07-15T12:21:10.000Z</time>
</trkpt>
<trkpt lat="46.0424950" lon="9.4651120">
	<ele>1162.40</ele>
	<time>2023-07-15T12:21:18.000Z</time>
</trkpt>
<trkpt lat="46.0424990" lon="9.4651000">
	<ele>1162.20</ele>
	<time>2023-07-15T12:21:19.000Z</time>
</trkpt>
<trkpt lat="46.0425100" lon="9.4650710">
	<ele>1161.40</ele>
	<time>2023-07-15T12:21:21.000Z</time>
</trkpt>
<trkpt lat="46.0425240" lon="9.4650560">
	<ele>1161.00</ele>
	<time>2023-07-15T12:21:23.000Z</time>
</trkpt>
<trkpt lat="46.0425410" lon="9.4650280">
	<ele>1160.60</ele>
	<time>2023-07-15T12:21:26.000Z</time>
</trkpt>
<trkpt lat="46.0425510" lon="9.4650020">
	<ele>1160.40</ele>
	<time>2023-07-15T12:21:28.000Z</time>
</trkpt>
<trkpt lat="46.0425580" lon="9.4649900">
	<ele>1160.40</ele>
	<time>2023-07-15T12:21:29.000Z</time>
</trkpt>
<trkpt lat="46.0425770" lon="9.4649720">
	<ele>1160.20</ele>
	<time>2023-07-15T12:21:31.000Z</time>
</trkpt>
<trkpt lat="46.0426050" lon="9.4649350">
	<ele>1159.20</ele>
	<time>2023-07-15T12:21:34.000Z</time>
</trkpt>
<trkpt lat="46.0426130" lon="9.4649270">
	<ele>1158.80</ele>
	<time>2023-07-15T12:21:35.000Z</time>
</trkpt>
<trkpt lat="46.0426410" lon="9.4648960">
	<ele>1158.00</ele>
	<time>2023-07-15T12:21:38.000Z</time>
</trkpt>
<trkpt lat="46.0426570" lon="9.4648620">
	<ele>1157.40</ele>
	<time>2023-07-15T12:21:41.000Z</time>
</trkpt>
<trkpt lat="46.0426640" lon="9.4648530">
	<ele>1157.40</ele>
	<time>2023-07-15T12:21:42.000Z</time>
</trkpt>
<trkpt lat="46.0426920" lon="9.4647940">
	<ele>1157.00</ele>
	<time>2023-07-15T12:21:46.000Z</time>
</trkpt>
<trkpt lat="46.0427200" lon="9.4647600">
	<ele>1156.20</ele>
	<time>2023-07-15T12:21:49.000Z</time>
</trkpt>
<trkpt lat="46.0427240" lon="9.4647450">
	<ele>1155.80</ele>
	<time>2023-07-15T12:21:50.000Z</time>
</trkpt>
<trkpt lat="46.0427430" lon="9.4647000">
	<ele>1154.60</ele>
	<time>2023-07-15T12:21:54.000Z</time>
</trkpt>
<trkpt lat="46.0427680" lon="9.4646690">
	<ele>1154.20</ele>
	<time>2023-07-15T12:21:57.000Z</time>
</trkpt>
<trkpt lat="46.0427880" lon="9.4646620">
	<ele>1154.00</ele>
	<time>2023-07-15T12:22:00.000Z</time>
</trkpt>
<trkpt lat="46.0427950" lon="9.4646550">
	<ele>1154.00</ele>
	<time>2023-07-15T12:22:02.000Z</time>
</trkpt>
<trkpt lat="46.0427930" lon="9.4646530">
	<ele>1153.80</ele>
	<time>2023-07-15T12:22:03.000Z</time>
</trkpt>
<trkpt lat="46.0427920" lon="9.4646520">
	<ele>1153.80</ele>
	<time>2023-07-15T12:22:05.000Z</time>
</trkpt>
<trkpt lat="46.0428010" lon="9.4646420">
	<ele>1154.00</ele>
	<time>2023-07-15T12:22:09.000Z</time>
</trkpt>
<trkpt lat="46.0428040" lon="9.4646390">
	<ele>1153.60</ele>
	<time>2023-07-15T12:22:25.000Z</time>
</trkpt>
<trkpt lat="46.0428310" lon="9.4646030">
	<ele>1153.20</ele>
	<time>2023-07-15T12:22:28.000Z</time>
</trkpt>
<trkpt lat="46.0428650" lon="9.4645550">
	<ele>1152.80</ele>
	<time>2023-07-15T12:22:32.000Z</time>
</trkpt>
<trkpt lat="46.0428730" lon="9.4645530">
	<ele>1152.60</ele>
	<time>2023-07-15T12:22:33.000Z</time>
</trkpt>
<trkpt lat="46.0428840" lon="9.4645540">
	<ele>1152.40</ele>
	<time>2023-07-15T12:22:34.000Z</time>
</trkpt>
<trkpt lat="46.0429020" lon="9.4645370">
	<ele>1152.20</ele>
	<time>2023-07-15T12:22:37.000Z</time>
</trkpt>
<trkpt lat="46.0429180" lon="9.4644990">
	<ele>1151.40</ele>
	<time>2023-07-15T12:22:40.000Z</time>
</trkpt>
<trkpt lat="46.0429300" lon="9.4644720">
	<ele>1151.20</ele>
	<time>2023-07-15T12:22:43.000Z</time>
</trkpt>
<trkpt lat="46.0429430" lon="9.4644410">
	<ele>1150.80</ele>
	<time>2023-07-15T12:22:46.000Z</time>
</trkpt>
<trkpt lat="46.0429440" lon="9.4644340">
	<ele>1150.80</ele>
	<time>2023-07-15T12:22:47.000Z</time>
</trkpt>
<trkpt lat="46.0429510" lon="9.4644390">
	<ele>1150.40</ele>
	<time>2023-07-15T12:22:48.000Z</time>
</trkpt>
<trkpt lat="46.0429600" lon="9.4644400">
	<ele>1150.20</ele>
	<time>2023-07-15T12:22:49.000Z</time>
</trkpt>
<trkpt lat="46.0429710" lon="9.4644450">
	<ele>1150.20</ele>
	<time>2023-07-15T12:22:50.000Z</time>
</trkpt>
<trkpt lat="46.0429770" lon="9.4644280">
	<ele>1150.00</ele>
	<time>2023-07-15T12:22:51.000Z</time>
</trkpt>
<trkpt lat="46.0430160" lon="9.4643900">
	<ele>1149.40</ele>
	<time>2023-07-15T12:22:55.000Z</time>
</trkpt>
<trkpt lat="46.0430280" lon="9.4643700">
	<ele>1149.00</ele>
	<time>2023-07-15T12:22:57.000Z</time>
</trkpt>
<trkpt lat="46.0430700" lon="9.4643100">
	<ele>1148.40</ele>
	<time>2023-07-15T12:23:02.000Z</time>
</trkpt>
<trkpt lat="46.0430890" lon="9.4642220">
	<ele>1147.80</ele>
	<time>2023-07-15T12:23:07.000Z</time>
</trkpt>
<trkpt lat="46.0431220" lon="9.4641980">
	<ele>1147.20</ele>
	<time>2023-07-15T12:23:12.000Z</time>
</trkpt>
<trkpt lat="46.0431240" lon="9.4641990">
	<ele>1146.80</ele>
	<time>2023-07-15T12:23:13.000Z</time>
</trkpt>
<trkpt lat="46.0431230" lon="9.4641850">
	<ele>1147.00</ele>
	<time>2023-07-15T12:23:23.000Z</time>
</trkpt>
<trkpt lat="46.0431230" lon="9.4641850">
	<ele>1146.80</ele>
	<time>2023-07-15T12:23:31.000Z</time>
</trkpt>
<trkpt lat="46.0431530" lon="9.4641170">
	<ele>1146.00</ele>
	<time>2023-07-15T12:23:35.000Z</time>
</trkpt>
<trkpt lat="46.0431570" lon="9.4640970">
	<ele>1145.80</ele>
	<time>2023-07-15T12:23:36.000Z</time>
</trkpt>
<trkpt lat="46.0431660" lon="9.4640750">
	<ele>1145.60</ele>
	<time>2023-07-15T12:23:37.000Z</time>
</trkpt>
<trkpt lat="46.0432250" lon="9.4639790">
	<ele>1145.00</ele>
	<time>2023-07-15T12:23:44.000Z</time>
</trkpt>
<trkpt lat="46.0432290" lon="9.4639700">
	<ele>1144.60</ele>
	<time>2023-07-15T12:23:45.000Z</time>
</trkpt>
<trkpt lat="46.0432680" lon="9.4639530">
	<ele>1144.20</ele>
	<time>2023-07-15T12:23:51.000Z</time>
</trkpt>
<trkpt lat="46.0432700" lon="9.4639510">
	<ele>1144.00</ele>
	<time>2023-07-15T12:23:52.000Z</time>
</trkpt>
<trkpt lat="46.0432720" lon="9.4639410">
	<ele>1143.80</ele>
	<time>2023-07-15T12:23:55.000Z</time>
</trkpt>
<trkpt lat="46.0432800" lon="9.4639320">
	<ele>1143.80</ele>
	<time>2023-07-15T12:23:56.000Z</time>
</trkpt>
<trkpt lat="46.0432840" lon="9.4639190">
	<ele>1143.80</ele>
	<time>2023-07-15T12:23:57.000Z</time>
</trkpt>
<trkpt lat="46.0432900" lon="9.4639110">
	<ele>1143.80</ele>
	<time>2023-07-15T12:23:58.000Z</time>
</trkpt>
<trkpt lat="46.0433080" lon="9.4638350">
	<ele>1143.00</ele>
	<time>2023-07-15T12:24:03.000Z</time>
</trkpt>
<trkpt lat="46.0433210" lon="9.4637670">
	<ele>1142.60</ele>
	<time>2023-07-15T12:24:07.000Z</time>
</trkpt>
<trkpt lat="46.0433470" lon="9.4636850">
	<ele>1142.20</ele>
	<time>2023-07-15T12:24:12.000Z</time>
</trkpt>
<trkpt lat="46.0433750" lon="9.4636690">
	<ele>1141.80</ele>
	<time>2023-07-15T12:24:16.000Z</time>
</trkpt>
<trkpt lat="46.0433840" lon="9.4636570">
	<ele>1141.60</ele>
	<time>2023-07-15T12:24:17.000Z</time>
</trkpt>
<trkpt lat="46.0433960" lon="9.4636330">
	<ele>1141.20</ele>
	<time>2023-07-15T12:24:19.000Z</time>
</trkpt>
<trkpt lat="46.0434210" lon="9.4635750">
	<ele>1140.60</ele>
	<time>2023-07-15T12:24:25.000Z</time>
</trkpt>
<trkpt lat="46.0434270" lon="9.4635430">
	<ele>1140.40</ele>
	<time>2023-07-15T12:24:27.000Z</time>
</trkpt>
<trkpt lat="46.0434320" lon="9.4634750">
	<ele>1140.20</ele>
	<time>2023-07-15T12:24:33.000Z</time>
</trkpt>
<trkpt lat="46.0434310" lon="9.4634570">
	<ele>1140.20</ele>
	<time>2023-07-15T12:24:34.000Z</time>
</trkpt>
<trkpt lat="46.0434280" lon="9.4634330">
	<ele>1140.20</ele>
	<time>2023-07-15T12:24:36.000Z</time>
</trkpt>
<trkpt lat="46.0434290" lon="9.4633870">
	<ele>1139.40</ele>
	<time>2023-07-15T12:24:41.000Z</time>
</trkpt>
<trkpt lat="46.0434560" lon="9.4632930">
	<ele>1138.60</ele>
	<time>2023-07-15T12:24:49.000Z</time>
</trkpt>
<trkpt lat="46.0434720" lon="9.4632680">
	<ele>1138.40</ele>
	<time>2023-07-15T12:24:51.000Z</time>
</trkpt>
<trkpt lat="46.0435080" lon="9.4631630">
	<ele>1137.40</ele>
	<time>2023-07-15T12:24:59.000Z</time>
</trkpt>
<trkpt lat="46.0435080" lon="9.4631610">
	<ele>1137.40</ele>
	<time>2023-07-15T12:25:00.000Z</time>
</trkpt>
<trkpt lat="46.0435270" lon="9.4631500">
	<ele>1137.40</ele>
	<time>2023-07-15T12:25:04.000Z</time>
</trkpt>
<trkpt lat="46.0435290" lon="9.4631360">
	<ele>1137.40</ele>
	<time>2023-07-15T12:25:05.000Z</time>
</trkpt>
<trkpt lat="46.0435380" lon="9.4631220">
	<ele>1137.40</ele>
	<time>2023-07-15T12:25:06.000Z</time>
</trkpt>
<trkpt lat="46.0435380" lon="9.4631060">
	<ele>1137.00</ele>
	<time>2023-07-15T12:25:09.000Z</time>
</trkpt>
<trkpt lat="46.0435420" lon="9.4630910">
	<ele>1136.80</ele>
	<time>2023-07-15T12:25:10.000Z</time>
</trkpt>
<trkpt lat="46.0435320" lon="9.4630730">
	<ele>1136.40</ele>
	<time>2023-07-15T12:25:13.000Z</time>
</trkpt>
<trkpt lat="46.0435310" lon="9.4630710">
	<ele>1136.20</ele>
	<time>2023-07-15T12:25:14.000Z</time>
</trkpt>
<trkpt lat="46.0435330" lon="9.4630640">
	<ele>1136.20</ele>
	<time>2023-07-15T12:25:15.000Z</time>
</trkpt>
<trkpt lat="46.0435320" lon="9.4630520">
	<ele>1135.80</ele>
	<time>2023-07-15T12:25:17.000Z</time>
</trkpt>
<trkpt lat="46.0435400" lon="9.4629800">
	<ele>1135.20</ele>
	<time>2023-07-15T12:25:23.000Z</time>
</trkpt>
<trkpt lat="46.0435350" lon="9.4629450">
	<ele>1135.00</ele>
	<time>2023-07-15T12:25:25.000Z</time>
</trkpt>
<trkpt lat="46.0435070" lon="9.4628440">
	<ele>1134.00</ele>
	<time>2023-07-15T12:25:31.000Z</time>
</trkpt>
<trkpt lat="46.0435060" lon="9.4628280">
	<ele>1134.00</ele>
	<time>2023-07-15T12:25:32.000Z</time>
</trkpt>
<trkpt lat="46.0434920" lon="9.4627840">
	<ele>1133.40</ele>
	<time>2023-07-15T12:25:35.000Z</time>
</trkpt>
<trkpt lat="46.0434760" lon="9.4627400">
	<ele>1132.80</ele>
	<time>2023-07-15T12:25:38.000Z</time>
</trkpt>
<trkpt lat="46.0434480" lon="9.4626730">
	<ele>1132.00</ele>
	<time>2023-07-15T12:25:42.000Z</time>
</trkpt>
<trkpt lat="46.0434410" lon="9.4626580">
	<ele>1131.80</ele>
	<time>2023-07-15T12:25:44.000Z</time>
</trkpt>
<trkpt lat="46.0434120" lon="9.4625600">
	<ele>1131.00</ele>
	<time>2023-07-15T12:25:49.000Z</time>
</trkpt>
<trkpt lat="46.0434050" lon="9.4625340">
	<ele>1130.80</ele>
	<time>2023-07-15T12:25:51.000Z</time>
</trkpt>
<trkpt lat="46.0434130" lon="9.4625080">
	<ele>1130.60</ele>
	<time>2023-07-15T12:25:52.000Z</time>
</trkpt>
<trkpt lat="46.0434930" lon="9.4624200">
	<ele>1130.40</ele>
	<time>2023-07-15T12:25:58.000Z</time>
</trkpt>
<trkpt lat="46.0435070" lon="9.4623600">
	<ele>1130.20</ele>
	<time>2023-07-15T12:26:01.000Z</time>
</trkpt>
<trkpt lat="46.0435180" lon="9.4623360">
	<ele>1130.00</ele>
	<time>2023-07-15T12:26:03.000Z</time>
</trkpt>
<trkpt lat="46.0435260" lon="9.4623380">
	<ele>1129.80</ele>
	<time>2023-07-15T12:26:05.000Z</time>
</trkpt>
<trkpt lat="46.0435320" lon="9.4623430">
	<ele>1129.60</ele>
	<time>2023-07-15T12:26:07.000Z</time>
</trkpt>
<trkpt lat="46.0435330" lon="9.4623440">
	<ele>1129.60</ele>
	<time>2023-07-15T12:26:08.000Z</time>
</trkpt>
<trkpt lat="46.0435380" lon="9.4623320">
	<ele>1130.20</ele>
	<time>2023-07-15T12:26:17.000Z</time>
</trkpt>
<trkpt lat="46.0435350" lon="9.4623100">
	<ele>1129.20</ele>
	<time>2023-07-15T12:26:43.000Z</time>
</trkpt>
<trkpt lat="46.0435370" lon="9.4623150">
	<ele>1129.20</ele>
	<time>2023-07-15T12:26:46.000Z</time>
</trkpt>
<trkpt lat="46.0435440" lon="9.4623530">
	<ele>1129.40</ele>
	<time>2023-07-15T12:26:48.000Z</time>
</trkpt>
<trkpt lat="46.0435470" lon="9.4623640">
	<ele>1129.60</ele>
	<time>2023-07-15T12:26:49.000Z</time>
</trkpt>
<trkpt lat="46.0435600" lon="9.4623700">
	<ele>1129.20</ele>
	<time>2023-07-15T12:26:53.000Z</time>
</trkpt>
<trkpt lat="46.0435640" lon="9.4623600">
	<ele>1127.00</ele>
	<time>2023-07-15T12:26:55.000Z</time>
</trkpt>
<trkpt lat="46.0435720" lon="9.4623570">
	<ele>1125.20</ele>
	<time>2023-07-15T12:26:56.000Z</time>
</trkpt>
<trkpt lat="46.0435800" lon="9.4623430">
	<ele>1124.00</ele>
	<time>2023-07-15T12:26:58.000Z</time>
</trkpt>
<trkpt lat="46.0435940" lon="9.4622380">
	<ele>1123.60</ele>
	<time>2023-07-15T12:27:04.000Z</time>
</trkpt>
<trkpt lat="46.0435910" lon="9.4621810">
	<ele>1122.80</ele>
	<time>2023-07-15T12:27:07.000Z</time>
</trkpt>
<trkpt lat="46.0435960" lon="9.4621330">
	<ele>1122.40</ele>
	<time>2023-07-15T12:27:09.000Z</time>
</trkpt>
<trkpt lat="46.0435970" lon="9.4620550">
	<ele>1121.60</ele>
	<time>2023-07-15T12:27:13.000Z</time>
</trkpt>
<trkpt lat="46.0435850" lon="9.4619900">
	<ele>1121.60</ele>
	<time>2023-07-15T12:27:16.000Z</time>
</trkpt>
<trkpt lat="46.0435810" lon="9.4619280">
	<ele>1122.20</ele>
	<time>2023-07-15T12:27:19.000Z</time>
</trkpt>
<trkpt lat="46.0435640" lon="9.4618740">
	<ele>1122.00</ele>
	<time>2023-07-15T12:27:23.000Z</time>
</trkpt>
<trkpt lat="46.0435610" lon="9.4618350">
	<ele>1124.20</ele>
	<time>2023-07-15T12:27:25.000Z</time>
</trkpt>
<trkpt lat="46.0435600" lon="9.4618000">
	<ele>1124.20</ele>
	<time>2023-07-15T12:27:27.000Z</time>
</trkpt>
<trkpt lat="46.0435560" lon="9.4617350">
	<ele>1124.20</ele>
	<time>2023-07-15T12:27:31.000Z</time>
</trkpt>
<trkpt lat="46.0435620" lon="9.4617120">
	<ele>1126.00</ele>
	<time>2023-07-15T12:27:32.000Z</time>
</trkpt>
<trkpt lat="46.0435820" lon="9.4616870">
	<ele>1127.40</ele>
	<time>2023-07-15T12:27:34.000Z</time>
</trkpt>
<trkpt lat="46.0436070" lon="9.4616330">
	<ele>1127.60</ele>
	<time>2023-07-15T12:27:37.000Z</time>
</trkpt>
<trkpt lat="46.0436110" lon="9.4616120">
	<ele>1127.60</ele>
	<time>2023-07-15T12:27:38.000Z</time>
</trkpt>
<trkpt lat="46.0436150" lon="9.4615690">
	<ele>1126.40</ele>
	<time>2023-07-15T12:27:41.000Z</time>
</trkpt>
<trkpt lat="46.0436130" lon="9.4615550">
	<ele>1126.00</ele>
	<time>2023-07-15T12:27:44.000Z</time>
</trkpt>
<trkpt lat="46.0436130" lon="9.4615540">
	<ele>1126.00</ele>
	<time>2023-07-15T12:27:45.000Z</time>
</trkpt>
<trkpt lat="46.0436310" lon="9.4615780">
	<ele>1125.40</ele>
	<time>2023-07-15T12:27:50.000Z</time>
</trkpt>
<trkpt lat="46.0436380" lon="9.4615810">
	<ele>1125.20</ele>
	<time>2023-07-15T12:27:51.000Z</time>
</trkpt>
<trkpt lat="46.0436530" lon="9.4615840">
	<ele>1125.20</ele>
	<time>2023-07-15T12:27:57.000Z</time>
</trkpt>
<trkpt lat="46.0436460" lon="9.4615760">
	<ele>1126.80</ele>
	<time>2023-07-15T12:27:59.000Z</time>
</trkpt>
<trkpt lat="46.0436460" lon="9.4615790">
	<ele>1127.80</ele>
	<time>2023-07-15T12:28:00.000Z</time>
</trkpt>
<trkpt lat="46.0436620" lon="9.4615690">
	<ele>1128.40</ele>
	<time>2023-07-15T12:28:01.000Z</time>
</trkpt>
<trkpt lat="46.0436510" lon="9.4615780">
	<ele>1128.60</ele>
	<time>2023-07-15T12:28:02.000Z</time>
</trkpt>
<trkpt lat="46.0436550" lon="9.4615850">
	<ele>1128.80</ele>
	<time>2023-07-15T12:28:04.000Z</time>
</trkpt>
<trkpt lat="46.0436530" lon="9.4615970">
	<ele>1127.60</ele>
	<time>2023-07-15T12:28:07.000Z</time>
</trkpt>
<trkpt lat="46.0436590" lon="9.4615990">
	<ele>1126.60</ele>
	<time>2023-07-15T12:28:08.000Z</time>
</trkpt>
<trkpt lat="46.0436570" lon="9.4616020">
	<ele>1125.60</ele>
	<time>2023-07-15T12:28:11.000Z</time>
</trkpt>
<trkpt lat="46.0436570" lon="9.4616020">
	<ele>1125.20</ele>
	<time>2023-07-15T12:28:13.000Z</time>
</trkpt>
<trkpt lat="46.0436570" lon="9.4616020">
	<ele>1124.00</ele>
	<time>2023-07-15T12:28:15.000Z</time>
</trkpt>
<trkpt lat="46.0436570" lon="9.4616010">
	<ele>1125.40</ele>
	<time>2023-07-15T12:28:19.000Z</time>
</trkpt>
<trkpt lat="46.0436570" lon="9.4616010">
	<ele>1126.60</ele>
	<time>2023-07-15T12:28:20.000Z</time>
</trkpt>
<trkpt lat="46.0436560" lon="9.4616000">
	<ele>1127.80</ele>
	<time>2023-07-15T12:28:22.000Z</time>
</trkpt>
<trkpt lat="46.0436560" lon="9.4615900">
	<ele>1128.40</ele>
	<time>2023-07-15T12:28:35.000Z</time>
</trkpt>
<trkpt lat="46.0436860" lon="9.4615110">
	<ele>1127.80</ele>
	<time>2023-07-15T12:28:40.000Z</time>
</trkpt>
<trkpt lat="46.0437200" lon="9.4614610">
	<ele>1127.60</ele>
	<time>2023-07-15T12:28:46.000Z</time>
</trkpt>
<trkpt lat="46.0437470" lon="9.4614080">
	<ele>1126.80</ele>
	<time>2023-07-15T12:28:52.000Z</time>
</trkpt>
<trkpt lat="46.0437640" lon="9.4613920">
	<ele>1126.60</ele>
	<time>2023-07-15T12:28:54.000Z</time>
</trkpt>
<trkpt lat="46.0437860" lon="9.4612740">
	<ele>1126.40</ele>
	<time>2023-07-15T12:29:00.000Z</time>
</trkpt>
<trkpt lat="46.0438340" lon="9.4612150">
	<ele>1128.80</ele>
	<time>2023-07-15T12:29:07.000Z</time>
</trkpt>
<trkpt lat="46.0438600" lon="9.4611760">
	<ele>1129.80</ele>
	<time>2023-07-15T12:29:10.000Z</time>
</trkpt>
<trkpt lat="46.0438670" lon="9.4611640">
	<ele>1130.00</ele>
	<time>2023-07-15T12:29:11.000Z</time>
</trkpt>
<trkpt lat="46.0438900" lon="9.4611310">
	<ele>1128.40</ele>
	<time>2023-07-15T12:29:14.000Z</time>
</trkpt>
<trkpt lat="46.0439000" lon="9.4611200">
	<ele>1126.00</ele>
	<time>2023-07-15T12:29:16.000Z</time>
</trkpt>
<trkpt lat="46.0439050" lon="9.4611070">
	<ele>1125.00</ele>
	<time>2023-07-15T12:29:17.000Z</time>
</trkpt>
<trkpt lat="46.0439070" lon="9.4610650">
	<ele>1123.80</ele>
	<time>2023-07-15T12:29:19.000Z</time>
</trkpt>
<trkpt lat="46.0439410" lon="9.4609960">
	<ele>1123.00</ele>
	<time>2023-07-15T12:29:24.000Z</time>
</trkpt>
<trkpt lat="46.0439470" lon="9.4609810">
	<ele>1122.80</ele>
	<time>2023-07-15T12:29:25.000Z</time>
</trkpt>
<trkpt lat="46.0439880" lon="9.4609280">
	<ele>1121.60</ele>
	<time>2023-07-15T12:29:32.000Z</time>
</trkpt>
<trkpt lat="46.0439980" lon="9.4609200">
	<ele>1121.60</ele>
	<time>2023-07-15T12:29:33.000Z</time>
</trkpt>
<trkpt lat="46.0440210" lon="9.4608990">
	<ele>1120.80</ele>
	<time>2023-07-15T12:29:36.000Z</time>
</trkpt>
<trkpt lat="46.0440230" lon="9.4608830">
	<ele>1120.60</ele>
	<time>2023-07-15T12:29:37.000Z</time>
</trkpt>
<trkpt lat="46.0440290" lon="9.4608490">
	<ele>1120.20</ele>
	<time>2023-07-15T12:29:39.000Z</time>
</trkpt>
<trkpt lat="46.0440250" lon="9.4607820">
	<ele>1119.40</ele>
	<time>2023-07-15T12:29:43.000Z</time>
</trkpt>
<trkpt lat="46.0440240" lon="9.4607720">
	<ele>1119.20</ele>
	<time>2023-07-15T12:29:44.000Z</time>
</trkpt>
<trkpt lat="46.0440310" lon="9.4607590">
	<ele>1119.00</ele>
	<time>2023-07-15T12:29:45.000Z</time>
</trkpt>
<trkpt lat="46.0440650" lon="9.4607000">
	<ele>1118.40</ele>
	<time>2023-07-15T12:29:49.000Z</time>
</trkpt>
<trkpt lat="46.0440580" lon="9.4606940">
	<ele>1118.20</ele>
	<time>2023-07-15T12:29:50.000Z</time>
</trkpt>
<trkpt lat="46.0440510" lon="9.4606760">
	<ele>1117.80</ele>
	<time>2023-07-15T12:29:52.000Z</time>
</trkpt>
<trkpt lat="46.0440510" lon="9.4606430">
	<ele>1117.60</ele>
	<time>2023-07-15T12:29:54.000Z</time>
</trkpt>
<trkpt lat="46.0440580" lon="9.4606160">
	<ele>1117.20</ele>
	<time>2023-07-15T12:29:56.000Z</time>
</trkpt>
<trkpt lat="46.0440520" lon="9.4606070">
	<ele>1117.00</ele>
	<time>2023-07-15T12:29:57.000Z</time>
</trkpt>
<trkpt lat="46.0440490" lon="9.4605950">
	<ele>1117.00</ele>
	<time>2023-07-15T12:29:58.000Z</time>
</trkpt>
<trkpt lat="46.0440620" lon="9.4605610">
	<ele>1116.00</ele>
	<time>2023-07-15T12:30:01.000Z</time>
</trkpt>
<trkpt lat="46.0440980" lon="9.4605410">
	<ele>1115.60</ele>
	<time>2023-07-15T12:30:04.000Z</time>
</trkpt>
<trkpt lat="46.0441080" lon="9.4605090">
	<ele>1115.20</ele>
	<time>2023-07-15T12:30:06.000Z</time>
</trkpt>
<trkpt lat="46.0441140" lon="9.4604910">
	<ele>1115.00</ele>
	<time>2023-07-15T12:30:07.000Z</time>
</trkpt>
<trkpt lat="46.0441350" lon="9.4604250">
	<ele>1114.20</ele>
	<time>2023-07-15T12:30:12.000Z</time>
</trkpt>
<trkpt lat="46.0441350" lon="9.4604080">
	<ele>1113.80</ele>
	<time>2023-07-15T12:30:14.000Z</time>
</trkpt>
<trkpt lat="46.0441470" lon="9.4603850">
	<ele>1113.60</ele>
	<time>2023-07-15T12:30:16.000Z</time>
</trkpt>
<trkpt lat="46.0441410" lon="9.4603730">
	<ele>1113.40</ele>
	<time>2023-07-15T12:30:17.000Z</time>
</trkpt>
<trkpt lat="46.0441270" lon="9.4603480">
	<ele>1113.00</ele>
	<time>2023-07-15T12:30:19.000Z</time>
</trkpt>
<trkpt lat="46.0441160" lon="9.4603100">
	<ele>1112.60</ele>
	<time>2023-07-15T12:30:22.000Z</time>
</trkpt>
<trkpt lat="46.0441290" lon="9.4602740">
	<ele>1112.20</ele>
	<time>2023-07-15T12:30:25.000Z</time>
</trkpt>
<trkpt lat="46.0441580" lon="9.4602290">
	<ele>1111.80</ele>
	<time>2023-07-15T12:30:28.000Z</time>
</trkpt>
<trkpt lat="46.0441650" lon="9.4602090">
	<ele>1111.60</ele>
	<time>2023-07-15T12:30:29.000Z</time>
</trkpt>
<trkpt lat="46.0441730" lon="9.4601390">
	<ele>1110.40</ele>
	<time>2023-07-15T12:30:33.000Z</time>
</trkpt>
<trkpt lat="46.0441940" lon="9.4600760">
	<ele>1109.80</ele>
	<time>2023-07-15T12:30:36.000Z</time>
</trkpt>
<trkpt lat="46.0442030" lon="9.4600520">
	<ele>1109.20</ele>
	<time>2023-07-15T12:30:37.000Z</time>
</trkpt>
<trkpt lat="46.0442520" lon="9.4599170">
	<ele>1108.00</ele>
	<time>2023-07-15T12:30:43.000Z</time>
</trkpt>
<trkpt lat="46.0442600" lon="9.4599050">
	<ele>1108.00</ele>
	<time>2023-07-15T12:30:44.000Z</time>
</trkpt>
<trkpt lat="46.0442990" lon="9.4598710">
	<ele>1107.00</ele>
	<time>2023-07-15T12:30:48.000Z</time>
</trkpt>
<trkpt lat="46.0443240" lon="9.4597940">
	<ele>1106.40</ele>
	<time>2023-07-15T12:30:53.000Z</time>
</trkpt>
<trkpt lat="46.0443330" lon="9.4597810">
	<ele>1106.00</ele>
	<time>2023-07-15T12:30:55.000Z</time>
</trkpt>
<trkpt lat="46.0443690" lon="9.4597270">
	<ele>1105.20</ele>
	<time>2023-07-15T12:30:59.000Z</time>
</trkpt>
<trkpt lat="46.0443790" lon="9.4597000">
	<ele>1104.80</ele>
	<time>2023-07-15T12:31:01.000Z</time>
</trkpt>
<trkpt lat="46.0443940" lon="9.4596820">
	<ele>1104.20</ele>
	<time>2023-07-15T12:31:04.000Z</time>
</trkpt>
<trkpt lat="46.0444140" lon="9.4596700">
	<ele>1104.00</ele>
	<time>2023-07-15T12:31:06.000Z</time>
</trkpt>
<trkpt lat="46.0444450" lon="9.4596730">
	<ele>1103.80</ele>
	<time>2023-07-15T12:31:08.000Z</time>
</trkpt>
<trkpt lat="46.0444900" lon="9.4596190">
	<ele>1103.20</ele>
	<time>2023-07-15T12:31:12.000Z</time>
</trkpt>
<trkpt lat="46.0445240" lon="9.4596040">
	<ele>1103.00</ele>
	<time>2023-07-15T12:31:14.000Z</time>
</trkpt>
<trkpt lat="46.0445340" lon="9.4595970">
	<ele>1102.80</ele>
	<time>2023-07-15T12:31:15.000Z</time>
</trkpt>
<trkpt lat="46.0445530" lon="9.4595830">
	<ele>1102.60</ele>
	<time>2023-07-15T12:31:17.000Z</time>
</trkpt>
<trkpt lat="46.0445580" lon="9.4595740">
	<ele>1102.60</ele>
	<time>2023-07-15T12:31:18.000Z</time>
</trkpt>
<trkpt lat="46.0445730" lon="9.4595520">
	<ele>1102.40</ele>
	<time>2023-07-15T12:31:20.000Z</time>
</trkpt>
<trkpt lat="46.0445890" lon="9.4595420">
	<ele>1101.80</ele>
	<time>2023-07-15T12:31:22.000Z</time>
</trkpt>
<trkpt lat="46.0446120" lon="9.4595370">
	<ele>1101.60</ele>
	<time>2023-07-15T12:31:24.000Z</time>
</trkpt>
<trkpt lat="46.0446450" lon="9.4595110">
	<ele>1101.00</ele>
	<time>2023-07-15T12:31:27.000Z</time>
</trkpt>
<trkpt lat="46.0446620" lon="9.4594920">
	<ele>1100.40</ele>
	<time>2023-07-15T12:31:30.000Z</time>
</trkpt>
<trkpt lat="46.0446890" lon="9.4594010">
	<ele>1099.80</ele>
	<time>2023-07-15T12:31:35.000Z</time>
</trkpt>
<trkpt lat="46.0447140" lon="9.4593740">
	<ele>1099.60</ele>
	<time>2023-07-15T12:31:37.000Z</time>
</trkpt>
<trkpt lat="46.0447420" lon="9.4593600">
	<ele>1099.40</ele>
	<time>2023-07-15T12:31:39.000Z</time>
</trkpt>
<trkpt lat="46.0448030" lon="9.4593390">
	<ele>1098.80</ele>
	<time>2023-07-15T12:31:43.000Z</time>
</trkpt>
<trkpt lat="46.0448200" lon="9.4593430">
	<ele>1098.20</ele>
	<time>2023-07-15T12:31:46.000Z</time>
</trkpt>
<trkpt lat="46.0448440" lon="9.4593320">
	<ele>1097.60</ele>
	<time>2023-07-15T12:31:49.000Z</time>
</trkpt>
<trkpt lat="46.0448810" lon="9.4593150">
	<ele>1097.20</ele>
	<time>2023-07-15T12:31:52.000Z</time>
</trkpt>
<trkpt lat="46.0448890" lon="9.4593060">
	<ele>1097.00</ele>
	<time>2023-07-15T12:31:53.000Z</time>
</trkpt>
<trkpt lat="46.0449300" lon="9.4593090">
	<ele>1096.60</ele>
	<time>2023-07-15T12:31:56.000Z</time>
</trkpt>
<trkpt lat="46.0449310" lon="9.4593070">
	<ele>1096.00</ele>
	<time>2023-07-15T12:31:59.000Z</time>
</trkpt>
<trkpt lat="46.0449260" lon="9.4592990">
	<ele>1095.80</ele>
	<time>2023-07-15T12:32:00.000Z</time>
</trkpt>
<trkpt lat="46.0449380" lon="9.4592840">
	<ele>1095.60</ele>
	<time>2023-07-15T12:32:02.000Z</time>
</trkpt>
<trkpt lat="46.0449430" lon="9.4592830">
	<ele>1095.60</ele>
	<time>2023-07-15T12:32:04.000Z</time>
</trkpt>
<trkpt lat="46.0449410" lon="9.4592560">
	<ele>1095.40</ele>
	<time>2023-07-15T12:32:08.000Z</time>
</trkpt>
<trkpt lat="46.0449340" lon="9.4592400">
	<ele>1095.40</ele>
	<time>2023-07-15T12:32:09.000Z</time>
</trkpt>
<trkpt lat="46.0449330" lon="9.4592140">
	<ele>1095.00</ele>
	<time>2023-07-15T12:32:11.000Z</time>
</trkpt>
<trkpt lat="46.0449280" lon="9.4591560">
	<ele>1094.40</ele>
	<time>2023-07-15T12:32:14.000Z</time>
</trkpt>
<trkpt lat="46.0449510" lon="9.4591010">
	<ele>1094.00</ele>
	<time>2023-07-15T12:32:18.000Z</time>
</trkpt>
<trkpt lat="46.0449630" lon="9.4590640">
	<ele>1093.40</ele>
	<time>2023-07-15T12:32:21.000Z</time>
</trkpt>
<trkpt lat="46.0450150" lon="9.4590030">
	<ele>1092.80</ele>
	<time>2023-07-15T12:32:25.000Z</time>
</trkpt>
<trkpt lat="46.0450510" lon="9.4589950">
	<ele>1092.60</ele>
	<time>2023-07-15T12:32:27.000Z</time>
</trkpt>
<trkpt lat="46.0450650" lon="9.4589830">
	<ele>1092.40</ele>
	<time>2023-07-15T12:32:28.000Z</time>
</trkpt>
<trkpt lat="46.0450790" lon="9.4589560">
	<ele>1091.80</ele>
	<time>2023-07-15T12:32:31.000Z</time>
</trkpt>
<trkpt lat="46.0450830" lon="9.4589080">
	<ele>1091.40</ele>
	<time>2023-07-15T12:32:34.000Z</time>
</trkpt>
<trkpt lat="46.0450940" lon="9.4588880">
	<ele>1091.20</ele>
	<time>2023-07-15T12:32:35.000Z</time>
</trkpt>
<trkpt lat="46.0450880" lon="9.4588730">
	<ele>1090.80</ele>
	<time>2023-07-15T12:32:37.000Z</time>
</trkpt>
<trkpt lat="46.0450890" lon="9.4588610">
	<ele>1090.60</ele>
	<time>2023-07-15T12:32:38.000Z</time>
</trkpt>
<trkpt lat="46.0450810" lon="9.4588480">
	<ele>1090.40</ele>
	<time>2023-07-15T12:32:39.000Z</time>
</trkpt>
<trkpt lat="46.0450740" lon="9.4588350">
	<ele>1090.40</ele>
	<time>2023-07-15T12:32:40.000Z</time>
</trkpt>
<trkpt lat="46.0450620" lon="9.4588240">
	<ele>1090.20</ele>
	<time>2023-07-15T12:32:41.000Z</time>
</trkpt>
<trkpt lat="46.0450560" lon="9.4588060">
	<ele>1089.80</ele>
	<time>2023-07-15T12:32:43.000Z</time>
</trkpt>
<trkpt lat="46.0450700" lon="9.4587780">
	<ele>1089.60</ele>
	<time>2023-07-15T12:32:45.000Z</time>
</trkpt>
<trkpt lat="46.0451120" lon="9.4587160">
	<ele>1089.00</ele>
	<time>2023-07-15T12:32:48.000Z</time>
</trkpt>
<trkpt lat="46.0451420" lon="9.4586530">
	<ele>1088.40</ele>
	<time>2023-07-15T12:32:51.000Z</time>
</trkpt>
<trkpt lat="46.0451790" lon="9.4586090">
	<ele>1087.80</ele>
	<time>2023-07-15T12:32:54.000Z</time>
</trkpt>
<trkpt lat="46.0452200" lon="9.4585880">
	<ele>1087.40</ele>
	<time>2023-07-15T12:32:57.000Z</time>
</trkpt>
<trkpt lat="46.0452020" lon="9.4585610">
	<ele>1087.00</ele>
	<time>2023-07-15T12:33:01.000Z</time>
</trkpt>
<trkpt lat="46.0452010" lon="9.4585630">
	<ele>1087.00</ele>
	<time>2023-07-15T12:33:02.000Z</time>
</trkpt>
<trkpt lat="46.0451940" lon="9.4585530">
	<ele>1087.00</ele>
	<time>2023-07-15T12:33:06.000Z</time>
</trkpt>
<trkpt lat="46.0452000" lon="9.4585500">
	<ele>1086.80</ele>
	<time>2023-07-15T12:33:08.000Z</time>
</trkpt>
<trkpt lat="46.0452380" lon="9.4585320">
	<ele>1086.80</ele>
	<time>2023-07-15T12:33:11.000Z</time>
</trkpt>
<trkpt lat="46.0452520" lon="9.4585280">
	<ele>1086.80</ele>
	<time>2023-07-15T12:33:12.000Z</time>
</trkpt>
<trkpt lat="46.0454510" lon="9.4584800">
	<ele>1086.80</ele>
	<time>2023-07-15T12:33:19.000Z</time>
</trkpt>
<trkpt lat="46.0454440" lon="9.4584690">
	<ele>1086.80</ele>
	<time>2023-07-15T12:33:21.000Z</time>
</trkpt>
<trkpt lat="46.0453920" lon="9.4584680">
	<ele>1086.80</ele>
	<time>2023-07-15T12:33:22.000Z</time>
</trkpt>
<trkpt lat="46.0453760" lon="9.4584530">
	<ele>1086.80</ele>
	<time>2023-07-15T12:33:24.000Z</time>
</trkpt>
<trkpt lat="46.0453810" lon="9.4584420">
	<ele>1086.80</ele>
	<time>2023-07-15T12:33:26.000Z</time>
</trkpt>
<trkpt lat="46.0453860" lon="9.4584330">
	<ele>1086.40</ele>
	<time>2023-07-15T12:33:28.000Z</time>
</trkpt>
<trkpt lat="46.0454320" lon="9.4584100">
	<ele>1085.80</ele>
	<time>2023-07-15T12:33:32.000Z</time>
</trkpt>
<trkpt lat="46.0454940" lon="9.4584160">
	<ele>1085.20</ele>
	<time>2023-07-15T12:33:36.000Z</time>
</trkpt>
<trkpt lat="46.0455190" lon="9.4584200">
	<ele>1085.00</ele>
	<time>2023-07-15T12:33:37.000Z</time>
</trkpt>
<trkpt lat="46.0455820" lon="9.4583790">
	<ele>1084.60</ele>
	<time>2023-07-15T12:33:41.000Z</time>
</trkpt>
<trkpt lat="46.0456110" lon="9.4583480">
	<ele>1084.20</ele>
	<time>2023-07-15T12:33:43.000Z</time>
</trkpt>
<trkpt lat="46.0456200" lon="9.4583300">
	<ele>1084.00</ele>
	<time>2023-07-15T12:33:44.000Z</time>
</trkpt>
<trkpt lat="46.0456380" lon="9.4583130">
	<ele>1083.40</ele>
	<time>2023-07-15T12:33:47.000Z</time>
</trkpt>
<trkpt lat="46.0456490" lon="9.4582630">
	<ele>1083.00</ele>
	<time>2023-07-15T12:33:50.000Z</time>
</trkpt>
<trkpt lat="46.0456550" lon="9.4582030">
	<ele>1082.20</ele>
	<time>2023-07-15T12:33:54.000Z</time>
</trkpt>
<trkpt lat="46.0456590" lon="9.4581850">
	<ele>1081.80</ele>
	<time>2023-07-15T12:33:55.000Z</time>
</trkpt>
<trkpt lat="46.0456880" lon="9.4580800">
	<ele>1081.00</ele>
	<time>2023-07-15T12:34:02.000Z</time>
</trkpt>
<trkpt lat="46.0457000" lon="9.4580790">
	<ele>1080.80</ele>
	<time>2023-07-15T12:34:03.000Z</time>
</trkpt>
<trkpt lat="46.0457490" lon="9.4580660">
	<ele>1080.00</ele>
	<time>2023-07-15T12:34:07.000Z</time>
</trkpt>
<trkpt lat="46.0457680" lon="9.4580590">
	<ele>1079.60</ele>
	<time>2023-07-15T12:34:09.000Z</time>
</trkpt>
<trkpt lat="46.0458140" lon="9.4580510">
	<ele>1078.60</ele>
	<time>2023-07-15T12:34:14.000Z</time>
</trkpt>
<trkpt lat="46.0458320" lon="9.4580640">
	<ele>1078.20</ele>
	<time>2023-07-15T12:34:15.000Z</time>
</trkpt>
<trkpt lat="46.0458360" lon="9.4580660">
	<ele>1078.20</ele>
	<time>2023-07-15T12:34:16.000Z</time>
</trkpt>
<trkpt lat="46.0458370" lon="9.4580730">
	<ele>1077.80</ele>
	<time>2023-07-15T12:34:18.000Z</time>
</trkpt>
<trkpt lat="46.0458350" lon="9.4580750">
	<ele>1077.80</ele>
	<time>2023-07-15T12:34:19.000Z</time>
</trkpt>
<trkpt lat="46.0458340" lon="9.4580770">
	<ele>1077.80</ele>
	<time>2023-07-15T12:34:20.000Z</time>
</trkpt>
<trkpt lat="46.0458120" lon="9.4580500">
	<ele>1077.80</ele>
	<time>2023-07-15T12:34:27.000Z</time>
</trkpt>
<trkpt lat="46.0458650" lon="9.4580680">
	<ele>1077.40</ele>
	<time>2023-07-15T12:34:31.000Z</time>
</trkpt>
<trkpt lat="46.0459120" lon="9.4580400">
	<ele>1076.60</ele>
	<time>2023-07-15T12:34:36.000Z</time>
</trkpt>
<trkpt lat="46.0459140" lon="9.4580350">
	<ele>1076.20</ele>
	<time>2023-07-15T12:34:37.000Z</time>
</trkpt>
<trkpt lat="46.0459190" lon="9.4580320">
	<ele>1076.20</ele>
	<time>2023-07-15T12:34:38.000Z</time>
</trkpt>
<trkpt lat="46.0459370" lon="9.4580120">
	<ele>1075.60</ele>
	<time>2023-07-15T12:34:42.000Z</time>
</trkpt>
<trkpt lat="46.0459110" lon="9.4579800">
	<ele>1075.20</ele>
	<time>2023-07-15T12:34:44.000Z</time>
</trkpt>
<trkpt lat="46.0458490" lon="9.4579430">
	<ele>1074.20</ele>
	<time>2023-07-15T12:34:49.000Z</time>
</trkpt>
<trkpt lat="46.0458470" lon="9.4579160">
	<ele>1073.00</ele>
	<time>2023-07-15T12:34:53.000Z</time>
</trkpt>
<trkpt lat="46.0458660" lon="9.4578970">
	<ele>1072.00</ele>
	<time>2023-07-15T12:34:56.000Z</time>
</trkpt>
<trkpt lat="46.0458670" lon="9.4578930">
	<ele>1071.80</ele>
	<time>2023-07-15T12:34:57.000Z</time>
</trkpt>
<trkpt lat="46.0458700" lon="9.4578850">
	<ele>1071.40</ele>
	<time>2023-07-15T12:34:58.000Z</time>
</trkpt>
<trkpt lat="46.0458680" lon="9.4578540">
	<ele>1070.80</ele>
	<time>2023-07-15T12:35:00.000Z</time>
</trkpt>
<trkpt lat="46.0459000" lon="9.4578210">
	<ele>1069.60</ele>
	<time>2023-07-15T12:35:03.000Z</time>
</trkpt>
<trkpt lat="46.0459300" lon="9.4577970">
	<ele>1069.00</ele>
	<time>2023-07-15T12:35:05.000Z</time>
</trkpt>
<trkpt lat="46.0459550" lon="9.4577600">
	<ele>1068.20</ele>
	<time>2023-07-15T12:35:08.000Z</time>
</trkpt>
<trkpt lat="46.0459800" lon="9.4577550">
	<ele>1067.40</ele>
	<time>2023-07-15T12:35:10.000Z</time>
</trkpt>
<trkpt lat="46.0459910" lon="9.4577350">
	<ele>1067.00</ele>
	<time>2023-07-15T12:35:12.000Z</time>
</trkpt>
<trkpt lat="46.0460020" lon="9.4576940">
	<ele>1066.00</ele>
	<time>2023-07-15T12:35:16.000Z</time>
</trkpt>
<trkpt lat="46.0460100" lon="9.4576840">
	<ele>1065.80</ele>
	<time>2023-07-15T12:35:17.000Z</time>
</trkpt>
<trkpt lat="46.0460350" lon="9.4576420">
	<ele>1065.00</ele>
	<time>2023-07-15T12:35:20.000Z</time>
</trkpt>
<trkpt lat="46.0460400" lon="9.4576300">
	<ele>1064.80</ele>
	<time>2023-07-15T12:35:21.000Z</time>
</trkpt>
<trkpt lat="46.0460580" lon="9.4576070">
	<ele>1063.80</ele>
	<time>2023-07-15T12:35:24.000Z</time>
</trkpt>
<trkpt lat="46.0460680" lon="9.4576010">
	<ele>1063.60</ele>
	<time>2023-07-15T12:35:25.000Z</time>
</trkpt>
<trkpt lat="46.0460650" lon="9.4575900">
	<ele>1063.00</ele>
	<time>2023-07-15T12:35:28.000Z</time>
</trkpt>
<trkpt lat="46.0460490" lon="9.4575480">
	<ele>1062.40</ele>
	<time>2023-07-15T12:35:31.000Z</time>
</trkpt>
<trkpt lat="46.0460640" lon="9.4575390">
	<ele>1062.40</ele>
	<time>2023-07-15T12:35:32.000Z</time>
</trkpt>
<trkpt lat="46.0461020" lon="9.4575290">
	<ele>1061.40</ele>
	<time>2023-07-15T12:35:36.000Z</time>
</trkpt>
<trkpt lat="46.0461300" lon="9.4575160">
	<ele>1061.00</ele>
	<time>2023-07-15T12:35:39.000Z</time>
</trkpt>
<trkpt lat="46.0461590" lon="9.4575060">
	<ele>1060.20</ele>
	<time>2023-07-15T12:35:42.000Z</time>
</trkpt>
<trkpt lat="46.0461690" lon="9.4574900">
	<ele>1059.40</ele>
	<time>2023-07-15T12:35:45.000Z</time>
</trkpt>
<trkpt lat="46.0461670" lon="9.4574860">
	<ele>1059.40</ele>
	<time>2023-07-15T12:35:46.000Z</time>
</trkpt>
<trkpt lat="46.0461450" lon="9.4574940">
	<ele>1059.20</ele>
	<time>2023-07-15T12:35:49.000Z</time>
</trkpt>
<trkpt lat="46.0461330" lon="9.4574990">
	<ele>1059.20</ele>
	<time>2023-07-15T12:35:52.000Z</time>
</trkpt>
<trkpt lat="46.0461240" lon="9.4575010">
	<ele>1059.20</ele>
	<time>2023-07-15T12:35:54.000Z</time>
</trkpt>
<trkpt lat="46.0461220" lon="9.4575020">
	<ele>1059.20</ele>
	<time>2023-07-15T12:35:56.000Z</time>
</trkpt>
<trkpt lat="46.0461130" lon="9.4574990">
	<ele>1059.20</ele>
	<time>2023-07-15T12:35:59.000Z</time>
</trkpt>
<trkpt lat="46.0461140" lon="9.4575070">
	<ele>1059.00</ele>
	<time>2023-07-15T12:36:01.000Z</time>
</trkpt>
<trkpt lat="46.0461100" lon="9.4575100">
	<ele>1059.00</ele>
	<time>2023-07-15T12:36:03.000Z</time>
</trkpt>
<trkpt lat="46.0461020" lon="9.4575190">
	<ele>1059.20</ele>
	<time>2023-07-15T12:36:06.000Z</time>
</trkpt>
<trkpt lat="46.0461030" lon="9.4575260">
	<ele>1059.40</ele>
	<time>2023-07-15T12:36:07.000Z</time>
</trkpt>
<trkpt lat="46.0461010" lon="9.4575430">
	<ele>1059.40</ele>
	<time>2023-07-15T12:36:10.000Z</time>
</trkpt>
<trkpt lat="46.0460920" lon="9.4575410">
	<ele>1059.40</ele>
	<time>2023-07-15T12:36:12.000Z</time>
</trkpt>
<trkpt lat="46.0460740" lon="9.4575240">
	<ele>1059.40</ele>
	<time>2023-07-15T12:36:14.000Z</time>
</trkpt>
<trkpt lat="46.0460540" lon="9.4575110">
	<ele>1059.40</ele>
	<time>2023-07-15T12:36:16.000Z</time>
</trkpt>
<trkpt lat="46.0460570" lon="9.4575170">
	<ele>1059.20</ele>
	<time>2023-07-15T12:36:18.000Z</time>
</trkpt>
<trkpt lat="46.0460590" lon="9.4575200">
	<ele>1059.20</ele>
	<time>2023-07-15T12:36:19.000Z</time>
</trkpt>
<trkpt lat="46.0460600" lon="9.4575220">
	<ele>1059.20</ele>
	<time>2023-07-15T12:36:21.000Z</time>
</trkpt>
<trkpt lat="46.0460690" lon="9.4575250">
	<ele>1059.00</ele>
	<time>2023-07-15T12:36:24.000Z</time>
</trkpt>
<trkpt lat="46.0461320" lon="9.4574790">
	<ele>1058.20</ele>
	<time>2023-07-15T12:36:30.000Z</time>
</trkpt>
<trkpt lat="46.0461420" lon="9.4574630">
	<ele>1058.20</ele>
	<time>2023-07-15T12:36:31.000Z</time>
</trkpt>
<trkpt lat="46.0462340" lon="9.4573660">
	<ele>1057.00</ele>
	<time>2023-07-15T12:36:36.000Z</time>
</trkpt>
<trkpt lat="46.0462620" lon="9.4573600">
	<ele>1056.60</ele>
	<time>2023-07-15T12:36:38.000Z</time>
</trkpt>
<trkpt lat="46.0463080" lon="9.4573500">
	<ele>1056.00</ele>
	<time>2023-07-15T12:36:43.000Z</time>
</trkpt>
<trkpt lat="46.0463270" lon="9.4573520">
	<ele>1055.80</ele>
	<time>2023-07-15T12:36:45.000Z</time>
</trkpt>
<trkpt lat="46.0463810" lon="9.4573780">
	<ele>1054.60</ele>
	<time>2023-07-15T12:36:50.000Z</time>
</trkpt>
<trkpt lat="46.0464100" lon="9.4574090">
	<ele>1053.80</ele>
	<time>2023-07-15T12:36:54.000Z</time>
</trkpt>
<trkpt lat="46.0464290" lon="9.4574160">
	<ele>1053.60</ele>
	<time>2023-07-15T12:36:55.000Z</time>
</trkpt>
<trkpt lat="46.0464880" lon="9.4574160">
	<ele>1052.80</ele>
	<time>2023-07-15T12:36:59.000Z</time>
</trkpt>
<trkpt lat="46.0465120" lon="9.4574150">
	<ele>1052.40</ele>
	<time>2023-07-15T12:37:01.000Z</time>
</trkpt>
<trkpt lat="46.0465290" lon="9.4574280">
	<ele>1052.00</ele>
	<time>2023-07-15T12:37:03.000Z</time>
</trkpt>
<trkpt lat="46.0465470" lon="9.4574340">
	<ele>1051.80</ele>
	<time>2023-07-15T12:37:05.000Z</time>
</trkpt>
<trkpt lat="46.0465790" lon="9.4574300">
	<ele>1051.20</ele>
	<time>2023-07-15T12:37:07.000Z</time>
</trkpt>
<trkpt lat="46.0466250" lon="9.4574170">
	<ele>1050.60</ele>
	<time>2023-07-15T12:37:10.000Z</time>
</trkpt>
<trkpt lat="46.0466440" lon="9.4574120">
	<ele>1050.20</ele>
	<time>2023-07-15T12:37:11.000Z</time>
</trkpt>
<trkpt lat="46.0466990" lon="9.4573800">
	<ele>1049.20</ele>
	<time>2023-07-15T12:37:17.000Z</time>
</trkpt>
<trkpt lat="46.0467040" lon="9.4573720">
	<ele>1049.00</ele>
	<time>2023-07-15T12:37:18.000Z</time>
</trkpt>
<trkpt lat="46.0466860" lon="9.4573690">
	<ele>1048.80</ele>
	<time>2023-07-15T12:37:19.000Z</time>
</trkpt>
<trkpt lat="46.0466780" lon="9.4573670">
	<ele>1048.40</ele>
	<time>2023-07-15T12:37:21.000Z</time>
</trkpt>
<trkpt lat="46.0466730" lon="9.4573740">
	<ele>1048.20</ele>
	<time>2023-07-15T12:37:22.000Z</time>
</trkpt>
<trkpt lat="46.0466650" lon="9.4573770">
	<ele>1048.00</ele>
	<time>2023-07-15T12:37:23.000Z</time>
</trkpt>
<trkpt lat="46.0466640" lon="9.4573860">
	<ele>1047.80</ele>
	<time>2023-07-15T12:37:24.000Z</time>
</trkpt>
<trkpt lat="46.0466440" lon="9.4574080">
	<ele>1047.20</ele>
	<time>2023-07-15T12:37:27.000Z</time>
</trkpt>
<trkpt lat="46.0466270" lon="9.4573980">
	<ele>1047.00</ele>
	<time>2023-07-15T12:37:28.000Z</time>
</trkpt>
<trkpt lat="46.0465330" lon="9.4573400">
	<ele>1046.20</ele>
	<time>2023-07-15T12:37:35.000Z</time>
</trkpt>
<trkpt lat="46.0465270" lon="9.4573270">
	<ele>1046.20</ele>
	<time>2023-07-15T12:37:36.000Z</time>
</trkpt>
<trkpt lat="46.0465220" lon="9.4573130">
	<ele>1046.00</ele>
	<time>2023-07-15T12:37:37.000Z</time>
</trkpt>
<trkpt lat="46.0465240" lon="9.4573040">
	<ele>1046.00</ele>
	<time>2023-07-15T12:37:38.000Z</time>
</trkpt>
<trkpt lat="46.0465270" lon="9.4572940">
	<ele>1045.80</ele>
	<time>2023-07-15T12:37:39.000Z</time>
</trkpt>
<trkpt lat="46.0465340" lon="9.4572860">
	<ele>1045.80</ele>
	<time>2023-07-15T12:37:41.000Z</time>
</trkpt>
<trkpt lat="46.0465710" lon="9.4572770">
	<ele>1045.60</ele>
	<time>2023-07-15T12:37:45.000Z</time>
</trkpt>
<trkpt lat="46.0466140" lon="9.4572750">
	<ele>1044.80</ele>
	<time>2023-07-15T12:37:48.000Z</time>
</trkpt>
<trkpt lat="46.0466270" lon="9.4572850">
	<ele>1044.60</ele>
	<time>2023-07-15T12:37:49.000Z</time>
</trkpt>
<trkpt lat="46.0466520" lon="9.4572870">
	<ele>1044.00</ele>
	<time>2023-07-15T12:37:51.000Z</time>
</trkpt>
<trkpt lat="46.0466580" lon="9.4572790">
	<ele>1043.80</ele>
	<time>2023-07-15T12:37:52.000Z</time>
</trkpt>
<trkpt lat="46.0466600" lon="9.4572700">
	<ele>1043.60</ele>
	<time>2023-07-15T12:37:53.000Z</time>
</trkpt>
<trkpt lat="46.0466760" lon="9.4572290">
	<ele>1042.80</ele>
	<time>2023-07-15T12:37:58.000Z</time>
</trkpt>
<trkpt lat="46.0466950" lon="9.4572100">
	<ele>1042.80</ele>
	<time>2023-07-15T12:38:00.000Z</time>
</trkpt>
<trkpt lat="46.0467120" lon="9.4572080">
	<ele>1042.40</ele>
	<time>2023-07-15T12:38:01.000Z</time>
</trkpt>
<trkpt lat="46.0467560" lon="9.4572030">
	<ele>1041.80</ele>
	<time>2023-07-15T12:38:04.000Z</time>
</trkpt>
<trkpt lat="46.0468060" lon="9.4571920">
	<ele>1041.40</ele>
	<time>2023-07-15T12:38:07.000Z</time>
</trkpt>
<trkpt lat="46.0468700" lon="9.4571510">
	<ele>1040.60</ele>
	<time>2023-07-15T12:38:13.000Z</time>
</trkpt>
<trkpt lat="46.0469060" lon="9.4571420">
	<ele>1040.20</ele>
	<time>2023-07-15T12:38:15.000Z</time>
</trkpt>
<trkpt lat="46.0469500" lon="9.4571110">
	<ele>1039.80</ele>
	<time>2023-07-15T12:38:20.000Z</time>
</trkpt>
<trkpt lat="46.0469980" lon="9.4570830">
	<ele>1039.20</ele>
	<time>2023-07-15T12:38:25.000Z</time>
</trkpt>
<trkpt lat="46.0470200" lon="9.4570690">
	<ele>1039.00</ele>
	<time>2023-07-15T12:38:28.000Z</time>
</trkpt>
<trkpt lat="46.0470310" lon="9.4570700">
	<ele>1039.00</ele>
	<time>2023-07-15T12:38:29.000Z</time>
</trkpt>
<trkpt lat="46.0470480" lon="9.4570400">
	<ele>1038.60</ele>
	<time>2023-07-15T12:38:32.000Z</time>
</trkpt>
<trkpt lat="46.0470590" lon="9.4570260">
	<ele>1038.40</ele>
	<time>2023-07-15T12:38:34.000Z</time>
</trkpt>
<trkpt lat="46.0470810" lon="9.4569980">
	<ele>1038.00</ele>
	<time>2023-07-15T12:38:37.000Z</time>
</trkpt>
<trkpt lat="46.0470830" lon="9.4569830">
	<ele>1037.80</ele>
	<time>2023-07-15T12:38:39.000Z</time>
</trkpt>
<trkpt lat="46.0470740" lon="9.4569680">
	<ele>1037.80</ele>
	<time>2023-07-15T12:38:40.000Z</time>
</trkpt>
<trkpt lat="46.0470550" lon="9.4569230">
	<ele>1037.40</ele>
	<time>2023-07-15T12:38:42.000Z</time>
</trkpt>
<trkpt lat="46.0470630" lon="9.4569080">
	<ele>1037.00</ele>
	<time>2023-07-15T12:38:43.000Z</time>
</trkpt>
<trkpt lat="46.0470760" lon="9.4569020">
	<ele>1036.80</ele>
	<time>2023-07-15T12:38:44.000Z</time>
</trkpt>
<trkpt lat="46.0470920" lon="9.4568810">
	<ele>1036.60</ele>
	<time>2023-07-15T12:38:46.000Z</time>
</trkpt>
<trkpt lat="46.0471210" lon="9.4568570">
	<ele>1036.40</ele>
	<time>2023-07-15T12:38:49.000Z</time>
</trkpt>
<trkpt lat="46.0471380" lon="9.4568410">
	<ele>1036.20</ele>
	<time>2023-07-15T12:38:51.000Z</time>
</trkpt>
<trkpt lat="46.0471490" lon="9.4568290">
	<ele>1035.80</ele>
	<time>2023-07-15T12:38:53.000Z</time>
</trkpt>
<trkpt lat="46.0471530" lon="9.4568190">
	<ele>1035.60</ele>
	<time>2023-07-15T12:38:54.000Z</time>
</trkpt>
<trkpt lat="46.0471710" lon="9.4567870">
	<ele>1035.20</ele>
	<time>2023-07-15T12:38:57.000Z</time>
</trkpt>
<trkpt lat="46.0471780" lon="9.4567690">
	<ele>1035.20</ele>
	<time>2023-07-15T12:38:58.000Z</time>
</trkpt>
<trkpt lat="46.0472410" lon="9.4567410">
	<ele>1034.80</ele>
	<time>2023-07-15T12:39:02.000Z</time>
</trkpt>
<trkpt lat="46.0472520" lon="9.4567340">
	<ele>1034.80</ele>
	<time>2023-07-15T12:39:03.000Z</time>
</trkpt>
<trkpt lat="46.0472890" lon="9.4567190">
	<ele>1034.60</ele>
	<time>2023-07-15T12:39:06.000Z</time>
</trkpt>
<trkpt lat="46.0473440" lon="9.4566650">
	<ele>1034.40</ele>
	<time>2023-07-15T12:39:10.000Z</time>
</trkpt>
<trkpt lat="46.0473490" lon="9.4566570">
	<ele>1034.20</ele>
	<time>2023-07-15T12:39:11.000Z</time>
</trkpt>
<trkpt lat="46.0473540" lon="9.4566260">
	<ele>1034.20</ele>
	<time>2023-07-15T12:39:13.000Z</time>
</trkpt>
<trkpt lat="46.0473790" lon="9.4566050">
	<ele>1033.60</ele>
	<time>2023-07-15T12:39:15.000Z</time>
</trkpt>
<trkpt lat="46.0473870" lon="9.4565910">
	<ele>1033.60</ele>
	<time>2023-07-15T12:39:16.000Z</time>
</trkpt>
<trkpt lat="46.0474410" lon="9.4565550">
	<ele>1033.20</ele>
	<time>2023-07-15T12:39:20.000Z</time>
</trkpt>
<trkpt lat="46.0475050" lon="9.4565290">
	<ele>1032.60</ele>
	<time>2023-07-15T12:39:25.000Z</time>
</trkpt>
<trkpt lat="46.0475180" lon="9.4565050">
	<ele>1032.60</ele>
	<time>2023-07-15T12:39:27.000Z</time>
</trkpt>
<trkpt lat="46.0475350" lon="9.4565010">
	<ele>1032.40</ele>
	<time>2023-07-15T12:39:28.000Z</time>
</trkpt>
<trkpt lat="46.0475780" lon="9.4564600">
	<ele>1032.20</ele>
	<time>2023-07-15T12:39:32.000Z</time>
</trkpt>
<trkpt lat="46.0475880" lon="9.4564410">
	<ele>1031.80</ele>
	<time>2023-07-15T12:39:34.000Z</time>
</trkpt>
<trkpt lat="46.0476020" lon="9.4564220">
	<ele>1031.80</ele>
	<time>2023-07-15T12:39:36.000Z</time>
</trkpt>
<trkpt lat="46.0476200" lon="9.4563990">
	<ele>1031.80</ele>
	<time>2023-07-15T12:39:38.000Z</time>
</trkpt>
<trkpt lat="46.0476720" lon="9.4563380">
	<ele>1031.60</ele>
	<time>2023-07-15T12:39:43.000Z</time>
</trkpt>
<trkpt lat="46.0476990" lon="9.4563250">
	<ele>1031.40</ele>
	<time>2023-07-15T12:39:45.000Z</time>
</trkpt>
<trkpt lat="46.0477160" lon="9.4562810">
	<ele>1031.20</ele>
	<time>2023-07-15T12:39:48.000Z</time>
</trkpt>
<trkpt lat="46.0477580" lon="9.4562450">
	<ele>1031.00</ele>
	<time>2023-07-15T12:39:51.000Z</time>
</trkpt>
<trkpt lat="46.0477650" lon="9.4562260">
	<ele>1030.80</ele>
	<time>2023-07-15T12:39:52.000Z</time>
</trkpt>
<trkpt lat="46.0477860" lon="9.4562040">
	<ele>1030.40</ele>
	<time>2023-07-15T12:39:54.000Z</time>
</trkpt>
<trkpt lat="46.0478230" lon="9.4561410">
	<ele>1030.20</ele>
	<time>2023-07-15T12:39:58.000Z</time>
</trkpt>
<trkpt lat="46.0478410" lon="9.4561170">
	<ele>1030.00</ele>
	<time>2023-07-15T12:40:01.000Z</time>
</trkpt>
<trkpt lat="46.0478910" lon="9.4560690">
	<ele>1030.00</ele>
	<time>2023-07-15T12:40:05.000Z</time>
</trkpt>
<trkpt lat="46.0479100" lon="9.4560070">
	<ele>1029.40</ele>
	<time>2023-07-15T12:40:11.000Z</time>
</trkpt>
<trkpt lat="46.0479280" lon="9.4559440">
	<ele>1029.20</ele>
	<time>2023-07-15T12:40:15.000Z</time>
</trkpt>
<trkpt lat="46.0479130" lon="9.4558550">
	<ele>1028.40</ele>
	<time>2023-07-15T12:40:21.000Z</time>
</trkpt>
<trkpt lat="46.0479130" lon="9.4558440">
	<ele>1028.40</ele>
	<time>2023-07-15T12:40:22.000Z</time>
</trkpt>
<trkpt lat="46.0479180" lon="9.4558180">
	<ele>1028.20</ele>
	<time>2023-07-15T12:40:24.000Z</time>
</trkpt>
<trkpt lat="46.0479150" lon="9.4557610">
	<ele>1027.80</ele>
	<time>2023-07-15T12:40:28.000Z</time>
</trkpt>
<trkpt lat="46.0479310" lon="9.4556610">
	<ele>1027.40</ele>
	<time>2023-07-15T12:40:33.000Z</time>
</trkpt>
<trkpt lat="46.0479380" lon="9.4556400">
	<ele>1027.40</ele>
	<time>2023-07-15T12:40:35.000Z</time>
</trkpt>
<trkpt lat="46.0479590" lon="9.4556050">
	<ele>1027.40</ele>
	<time>2023-07-15T12:40:37.000Z</time>
</trkpt>
<trkpt lat="46.0480260" lon="9.4554460">
	<ele>1027.60</ele>
	<time>2023-07-15T12:40:47.000Z</time>
</trkpt>
<trkpt lat="46.0480310" lon="9.4554110">
	<ele>1027.40</ele>
	<time>2023-07-15T12:40:49.000Z</time>
</trkpt>
<trkpt lat="46.0480600" lon="9.4553870">
	<ele>1026.80</ele>
	<time>2023-07-15T12:40:52.000Z</time>
</trkpt>
<trkpt lat="46.0480800" lon="9.4553920">
	<ele>1026.60</ele>
	<time>2023-07-15T12:40:53.000Z</time>
</trkpt>
<trkpt lat="46.0481100" lon="9.4553930">
	<ele>1026.20</ele>
	<time>2023-07-15T12:40:54.000Z</time>
</trkpt>
<trkpt lat="46.0481750" lon="9.4553960">
	<ele>1025.60</ele>
	<time>2023-07-15T12:40:59.000Z</time>
</trkpt>
<trkpt lat="46.0481890" lon="9.4554030">
	<ele>1025.40</ele>
	<time>2023-07-15T12:41:00.000Z</time>
</trkpt>
<trkpt lat="46.0482210" lon="9.4554200">
	<ele>1025.00</ele>
	<time>2023-07-15T12:41:02.000Z</time>
</trkpt>
<trkpt lat="46.0482340" lon="9.4554260">
	<ele>1024.60</ele>
	<time>2023-07-15T12:41:04.000Z</time>
</trkpt>
<trkpt lat="46.0482500" lon="9.4554300">
	<ele>1024.20</ele>
	<time>2023-07-15T12:41:06.000Z</time>
</trkpt>
<trkpt lat="46.0482620" lon="9.4554370">
	<ele>1024.00</ele>
	<time>2023-07-15T12:41:07.000Z</time>
</trkpt>
<trkpt lat="46.0483220" lon="9.4555000">
	<ele>1023.00</ele>
	<time>2023-07-15T12:41:13.000Z</time>
</trkpt>
<trkpt lat="46.0483300" lon="9.4555070">
	<ele>1022.80</ele>
	<time>2023-07-15T12:41:14.000Z</time>
</trkpt>
<trkpt lat="46.0483390" lon="9.4555170">
	<ele>1022.60</ele>
	<time>2023-07-15T12:41:16.000Z</time>
</trkpt>
<trkpt lat="46.0483230" lon="9.4555100">
	<ele>1022.40</ele>
	<time>2023-07-15T12:41:18.000Z</time>
</trkpt>
<trkpt lat="46.0483180" lon="9.4555020">
	<ele>1022.20</ele>
	<time>2023-07-15T12:41:19.000Z</time>
</trkpt>
<trkpt lat="46.0483120" lon="9.4554970">
	<ele>1022.00</ele>
	<time>2023-07-15T12:41:20.000Z</time>
</trkpt>
<trkpt lat="46.0482950" lon="9.4554840">
	<ele>1021.60</ele>
	<time>2023-07-15T12:41:22.000Z</time>
</trkpt>
<trkpt lat="46.0482770" lon="9.4554770">
	<ele>1021.20</ele>
	<time>2023-07-15T12:41:25.000Z</time>
</trkpt>
<trkpt lat="46.0482680" lon="9.4554830">
	<ele>1021.20</ele>
	<time>2023-07-15T12:41:27.000Z</time>
</trkpt>
<trkpt lat="46.0482600" lon="9.4554720">
	<ele>1021.20</ele>
	<time>2023-07-15T12:41:32.000Z</time>
</trkpt>
<trkpt lat="46.0482470" lon="9.4554760">
	<ele>1021.20</ele>
	<time>2023-07-15T12:41:33.000Z</time>
</trkpt>
<trkpt lat="46.0482170" lon="9.4555020">
	<ele>1020.80</ele>
	<time>2023-07-15T12:41:39.000Z</time>
</trkpt>
<trkpt lat="46.0482280" lon="9.4554740">
	<ele>1020.60</ele>
	<time>2023-07-15T12:41:43.000Z</time>
</trkpt>
<trkpt lat="46.0482270" lon="9.4554610">
	<ele>1020.60</ele>
	<time>2023-07-15T12:41:44.000Z</time>
</trkpt>
<trkpt lat="46.0482110" lon="9.4554360">
	<ele>1020.40</ele>
	<time>2023-07-15T12:41:46.000Z</time>
</trkpt>
<trkpt lat="46.0482080" lon="9.4554210">
	<ele>1020.20</ele>
	<time>2023-07-15T12:41:47.000Z</time>
</trkpt>
<trkpt lat="46.0482050" lon="9.4553910">
	<ele>1019.80</ele>
	<time>2023-07-15T12:41:49.000Z</time>
</trkpt>
<trkpt lat="46.0481930" lon="9.4553720">
	<ele>1019.80</ele>
	<time>2023-07-15T12:41:50.000Z</time>
</trkpt>
<trkpt lat="46.0481810" lon="9.4553540">
	<ele>1019.60</ele>
	<time>2023-07-15T12:41:51.000Z</time>
</trkpt>
<trkpt lat="46.0481860" lon="9.4552960">
	<ele>1018.60</ele>
	<time>2023-07-15T12:41:55.000Z</time>
</trkpt>
<trkpt lat="46.0481880" lon="9.4552830">
	<ele>1018.60</ele>
	<time>2023-07-15T12:41:56.000Z</time>
</trkpt>
<trkpt lat="46.0481920" lon="9.4552180">
	<ele>1018.20</ele>
	<time>2023-07-15T12:41:59.000Z</time>
</trkpt>
<trkpt lat="46.0482060" lon="9.4551870">
	<ele>1018.00</ele>
	<time>2023-07-15T12:42:01.000Z</time>
</trkpt>
<trkpt lat="46.0482070" lon="9.4551860">
	<ele>1018.00</ele>
	<time>2023-07-15T12:42:02.000Z</time>
</trkpt>
<trkpt lat="46.0482030" lon="9.4551920">
	<ele>1017.40</ele>
	<time>2023-07-15T12:42:04.000Z</time>
</trkpt>
<trkpt lat="46.0482100" lon="9.4551980">
	<ele>1017.20</ele>
	<time>2023-07-15T12:42:05.000Z</time>
</trkpt>
<trkpt lat="46.0482180" lon="9.4552060">
	<ele>1017.00</ele>
	<time>2023-07-15T12:42:06.000Z</time>
</trkpt>
<trkpt lat="46.0482620" lon="9.4552200">
	<ele>1016.40</ele>
	<time>2023-07-15T12:42:10.000Z</time>
</trkpt>
<trkpt lat="46.0482750" lon="9.4552240">
	<ele>1016.00</ele>
	<time>2023-07-15T12:42:11.000Z</time>
</trkpt>
<trkpt lat="46.0482910" lon="9.4552340">
	<ele>1016.00</ele>
	<time>2023-07-15T12:42:12.000Z</time>
</trkpt>
<trkpt lat="46.0483450" lon="9.4552710">
	<ele>1015.00</ele>
	<time>2023-07-15T12:42:16.000Z</time>
</trkpt>
<trkpt lat="46.0483600" lon="9.4552880">
	<ele>1014.80</ele>
	<time>2023-07-15T12:42:17.000Z</time>
</trkpt>
<trkpt lat="46.0483770" lon="9.4553040">
	<ele>1014.60</ele>
	<time>2023-07-15T12:42:18.000Z</time>
</trkpt>
<trkpt lat="46.0483970" lon="9.4553210">
	<ele>1014.00</ele>
	<time>2023-07-15T12:42:21.000Z</time>
</trkpt>
<trkpt lat="46.0484050" lon="9.4553510">
	<ele>1013.60</ele>
	<time>2023-07-15T12:42:24.000Z</time>
</trkpt>
<trkpt lat="46.0484000" lon="9.4553620">
	<ele>1013.20</ele>
	<time>2023-07-15T12:42:25.000Z</time>
</trkpt>
<trkpt lat="46.0483850" lon="9.4553830">
	<ele>1013.00</ele>
	<time>2023-07-15T12:42:27.000Z</time>
</trkpt>
<trkpt lat="46.0484010" lon="9.4554030">
	<ele>1012.20</ele>
	<time>2023-07-15T12:42:30.000Z</time>
</trkpt>
<trkpt lat="46.0484170" lon="9.4554260">
	<ele>1011.80</ele>
	<time>2023-07-15T12:42:32.000Z</time>
</trkpt>
<trkpt lat="46.0484540" lon="9.4554550">
	<ele>1011.20</ele>
	<time>2023-07-15T12:42:35.000Z</time>
</trkpt>
<trkpt lat="46.0484730" lon="9.4554630">
	<ele>1010.60</ele>
	<time>2023-07-15T12:42:38.000Z</time>
</trkpt>
<trkpt lat="46.0484790" lon="9.4554500">
	<ele>1010.40</ele>
	<time>2023-07-15T12:42:39.000Z</time>
</trkpt>
<trkpt lat="46.0484950" lon="9.4554670">
	<ele>1009.80</ele>
	<time>2023-07-15T12:42:42.000Z</time>
</trkpt>
<trkpt lat="46.0485110" lon="9.4554680">
	<ele>1009.60</ele>
	<time>2023-07-15T12:42:43.000Z</time>
</trkpt>
<trkpt lat="46.0485400" lon="9.4554810">
	<ele>1008.80</ele>
	<time>2023-07-15T12:42:47.000Z</time>
</trkpt>
<trkpt lat="46.0485530" lon="9.4555020">
	<ele>1008.60</ele>
	<time>2023-07-15T12:42:49.000Z</time>
</trkpt>
<trkpt lat="46.0485720" lon="9.4555310">
	<ele>1008.00</ele>
	<time>2023-07-15T12:42:51.000Z</time>
</trkpt>
<trkpt lat="46.0485710" lon="9.4555460">
	<ele>1007.80</ele>
	<time>2023-07-15T12:42:52.000Z</time>
</trkpt>
<trkpt lat="46.0485810" lon="9.4555800">
	<ele>1007.40</ele>
	<time>2023-07-15T12:42:54.000Z</time>
</trkpt>
<trkpt lat="46.0486100" lon="9.4556370">
	<ele>1006.40</ele>
	<time>2023-07-15T12:42:59.000Z</time>
</trkpt>
<trkpt lat="46.0486240" lon="9.4556450">
	<ele>1006.20</ele>
	<time>2023-07-15T12:43:00.000Z</time>
</trkpt>
<trkpt lat="46.0486400" lon="9.4556480">
	<ele>1006.00</ele>
	<time>2023-07-15T12:43:01.000Z</time>
</trkpt>
<trkpt lat="46.0486800" lon="9.4556480">
	<ele>1005.40</ele>
	<time>2023-07-15T12:43:05.000Z</time>
</trkpt>
<trkpt lat="46.0486960" lon="9.4556520">
	<ele>1005.00</ele>
	<time>2023-07-15T12:43:07.000Z</time>
</trkpt>
<trkpt lat="46.0486860" lon="9.4556460">
	<ele>1005.00</ele>
	<time>2023-07-15T12:43:08.000Z</time>
</trkpt>
<trkpt lat="46.0486690" lon="9.4556390">
	<ele>1004.40</ele>
	<time>2023-07-15T12:43:10.000Z</time>
</trkpt>
<trkpt lat="46.0486720" lon="9.4556360">
	<ele>1004.00</ele>
	<time>2023-07-15T12:43:12.000Z</time>
</trkpt>
<trkpt lat="46.0487000" lon="9.4556350">
	<ele>1003.80</ele>
	<time>2023-07-15T12:43:14.000Z</time>
</trkpt>
<trkpt lat="46.0487300" lon="9.4556370">
	<ele>1003.80</ele>
	<time>2023-07-15T12:43:17.000Z</time>
</trkpt>
<trkpt lat="46.0487640" lon="9.4556370">
	<ele>1004.00</ele>
	<time>2023-07-15T12:43:19.000Z</time>
</trkpt>
<trkpt lat="46.0487880" lon="9.4556300">
	<ele>1004.00</ele>
	<time>2023-07-15T12:43:21.000Z</time>
</trkpt>
<trkpt lat="46.0488090" lon="9.4555910">
	<ele>1004.00</ele>
	<time>2023-07-15T12:43:25.000Z</time>
</trkpt>
<trkpt lat="46.0488220" lon="9.4555810">
	<ele>1004.00</ele>
	<time>2023-07-15T12:43:26.000Z</time>
</trkpt>
<trkpt lat="46.0488320" lon="9.4555740">
	<ele>1003.20</ele>
	<time>2023-07-15T12:43:28.000Z</time>
</trkpt>
<trkpt lat="46.0488350" lon="9.4555700">
	<ele>1003.00</ele>
	<time>2023-07-15T12:43:29.000Z</time>
</trkpt>
<trkpt lat="46.0488310" lon="9.4555550">
	<ele>1002.80</ele>
	<time>2023-07-15T12:43:30.000Z</time>
</trkpt>
<trkpt lat="46.0488200" lon="9.4555370">
	<ele>1002.80</ele>
	<time>2023-07-15T12:43:31.000Z</time>
</trkpt>
<trkpt lat="46.0488240" lon="9.4555100">
	<ele>1002.20</ele>
	<time>2023-07-15T12:43:34.000Z</time>
</trkpt>
<trkpt lat="46.0488220" lon="9.4555060">
	<ele>1001.80</ele>
	<time>2023-07-15T12:43:35.000Z</time>
</trkpt>
<trkpt lat="46.0488290" lon="9.4555030">
	<ele>1001.60</ele>
	<time>2023-07-15T12:43:36.000Z</time>
</trkpt>
<trkpt lat="46.0488400" lon="9.4554680">
	<ele>1000.80</ele>
	<time>2023-07-15T12:43:39.000Z</time>
</trkpt>
<trkpt lat="46.0488440" lon="9.4554450">
	<ele>1000.40</ele>
	<time>2023-07-15T12:43:41.000Z</time>
</trkpt>
<trkpt lat="46.0488560" lon="9.4554380">
	<ele>1000.20</ele>
	<time>2023-07-15T12:43:42.000Z</time>
</trkpt>
<trkpt lat="46.0488770" lon="9.4554130">
	<ele>999.80</ele>
	<time>2023-07-15T12:43:44.000Z</time>
</trkpt>
<trkpt lat="46.0489260" lon="9.4553580">
	<ele>999.00</ele>
	<time>2023-07-15T12:43:47.000Z</time>
</trkpt>
<trkpt lat="46.0489550" lon="9.4553010">
	<ele>998.60</ele>
	<time>2023-07-15T12:43:50.000Z</time>
</trkpt>
<trkpt lat="46.0489610" lon="9.4552980">
	<ele>998.20</ele>
	<time>2023-07-15T12:43:51.000Z</time>
</trkpt>
<trkpt lat="46.0489670" lon="9.4553030">
	<ele>997.80</ele>
	<time>2023-07-15T12:43:53.000Z</time>
</trkpt>
<trkpt lat="46.0489940" lon="9.4553170">
	<ele>997.60</ele>
	<time>2023-07-15T12:43:55.000Z</time>
</trkpt>
<trkpt lat="46.0489900" lon="9.4553140">
	<ele>997.60</ele>
	<time>2023-07-15T12:43:56.000Z</time>
</trkpt>
<trkpt lat="46.0489870" lon="9.4553150">
	<ele>997.40</ele>
	<time>2023-07-15T12:43:57.000Z</time>
</trkpt>
<trkpt lat="46.0489750" lon="9.4553440">
	<ele>997.20</ele>
	<time>2023-07-15T12:44:00.000Z</time>
</trkpt>
<trkpt lat="46.0489630" lon="9.4553510">
	<ele>997.00</ele>
	<time>2023-07-15T12:44:01.000Z</time>
</trkpt>
<trkpt lat="46.0489550" lon="9.4553550">
	<ele>996.80</ele>
	<time>2023-07-15T12:44:02.000Z</time>
</trkpt>
<trkpt lat="46.0489520" lon="9.4553610">
	<ele>996.60</ele>
	<time>2023-07-15T12:44:03.000Z</time>
</trkpt>
<trkpt lat="46.0489540" lon="9.4553720">
	<ele>996.40</ele>
	<time>2023-07-15T12:44:04.000Z</time>
</trkpt>
<trkpt lat="46.0489500" lon="9.4553830">
	<ele>996.20</ele>
	<time>2023-07-15T12:44:05.000Z</time>
</trkpt>
<trkpt lat="46.0489470" lon="9.4553960">
	<ele>996.00</ele>
	<time>2023-07-15T12:44:06.000Z</time>
</trkpt>
<trkpt lat="46.0489550" lon="9.4554310">
	<ele>995.80</ele>
	<time>2023-07-15T12:44:08.000Z</time>
</trkpt>
<trkpt lat="46.0489470" lon="9.4554310">
	<ele>995.60</ele>
	<time>2023-07-15T12:44:09.000Z</time>
</trkpt>
<trkpt lat="46.0489460" lon="9.4554210">
	<ele>995.40</ele>
	<time>2023-07-15T12:44:11.000Z</time>
</trkpt>
<trkpt lat="46.0489370" lon="9.4554050">
	<ele>995.20</ele>
	<time>2023-07-15T12:44:12.000Z</time>
</trkpt>
<trkpt lat="46.0489280" lon="9.4553830">
	<ele>995.20</ele>
	<time>2023-07-15T12:44:13.000Z</time>
</trkpt>
<trkpt lat="46.0489180" lon="9.4553620">
	<ele>995.20</ele>
	<time>2023-07-15T12:44:14.000Z</time>
</trkpt>
<trkpt lat="46.0489160" lon="9.4552920">
	<ele>994.20</ele>
	<time>2023-07-15T12:44:19.000Z</time>
</trkpt>
<trkpt lat="46.0489380" lon="9.4552460">
	<ele>993.20</ele>
	<time>2023-07-15T12:44:23.000Z</time>
</trkpt>
<trkpt lat="46.0489420" lon="9.4552350">
	<ele>992.80</ele>
	<time>2023-07-15T12:44:24.000Z</time>
</trkpt>
<trkpt lat="46.0489470" lon="9.4552030">
	<ele>992.40</ele>
	<time>2023-07-15T12:44:26.000Z</time>
</trkpt>
<trkpt lat="46.0489790" lon="9.4551530">
	<ele>991.80</ele>
	<time>2023-07-15T12:44:29.000Z</time>
</trkpt>
<trkpt lat="46.0489950" lon="9.4550830">
	<ele>990.80</ele>
	<time>2023-07-15T12:44:33.000Z</time>
</trkpt>
<trkpt lat="46.0490310" lon="9.4550430">
	<ele>990.20</ele>
	<time>2023-07-15T12:44:37.000Z</time>
</trkpt>
<trkpt lat="46.0490530" lon="9.4550070">
	<ele>989.60</ele>
	<time>2023-07-15T12:44:40.000Z</time>
</trkpt>
<trkpt lat="46.0490800" lon="9.4549750">
	<ele>988.40</ele>
	<time>2023-07-15T12:44:44.000Z</time>
</trkpt>
<trkpt lat="46.0490890" lon="9.4549790">
	<ele>988.20</ele>
	<time>2023-07-15T12:44:45.000Z</time>
</trkpt>
<trkpt lat="46.0491130" lon="9.4549760">
	<ele>987.40</ele>
	<time>2023-07-15T12:44:50.000Z</time>
</trkpt>
<trkpt lat="46.0491180" lon="9.4549630">
	<ele>987.20</ele>
	<time>2023-07-15T12:44:51.000Z</time>
</trkpt>
<trkpt lat="46.0491170" lon="9.4549470">
	<ele>987.00</ele>
	<time>2023-07-15T12:44:52.000Z</time>
</trkpt>
<trkpt lat="46.0491130" lon="9.4549080">
	<ele>986.20</ele>
	<time>2023-07-15T12:44:55.000Z</time>
</trkpt>
<trkpt lat="46.0491050" lon="9.4549080">
	<ele>986.00</ele>
	<time>2023-07-15T12:44:56.000Z</time>
</trkpt>
<trkpt lat="46.0490920" lon="9.4549100">
	<ele>985.80</ele>
	<time>2023-07-15T12:44:57.000Z</time>
</trkpt>
<trkpt lat="46.0490720" lon="9.4549200">
	<ele>985.40</ele>
	<time>2023-07-15T12:44:59.000Z</time>
</trkpt>
<trkpt lat="46.0490700" lon="9.4549310">
	<ele>985.20</ele>
	<time>2023-07-15T12:45:00.000Z</time>
</trkpt>
<trkpt lat="46.0490660" lon="9.4549410">
	<ele>985.00</ele>
	<time>2023-07-15T12:45:01.000Z</time>
</trkpt>
<trkpt lat="46.0490580" lon="9.4549490">
	<ele>984.60</ele>
	<time>2023-07-15T12:45:03.000Z</time>
</trkpt>
<trkpt lat="46.0490470" lon="9.4549470">
	<ele>984.00</ele>
	<time>2023-07-15T12:45:05.000Z</time>
</trkpt>
<trkpt lat="46.0490450" lon="9.4549460">
	<ele>984.00</ele>
	<time>2023-07-15T12:45:06.000Z</time>
</trkpt>
<trkpt lat="46.0490530" lon="9.4549560">
	<ele>983.60</ele>
	<time>2023-07-15T12:45:10.000Z</time>
</trkpt>
<trkpt lat="46.0490540" lon="9.4549570">
	<ele>983.60</ele>
	<time>2023-07-15T12:45:14.000Z</time>
</trkpt>
<trkpt lat="46.0490550" lon="9.4549560">
	<ele>983.80</ele>
	<time>2023-07-15T12:45:18.000Z</time>
</trkpt>
<trkpt lat="46.0490470" lon="9.4549600">
	<ele>983.60</ele>
	<time>2023-07-15T12:45:24.000Z</time>
</trkpt>
<trkpt lat="46.0490150" lon="9.4549650">
	<ele>983.60</ele>
	<time>2023-07-15T12:45:32.000Z</time>
</trkpt>
<trkpt lat="46.0490050" lon="9.4549930">
	<ele>983.40</ele>
	<time>2023-07-15T12:45:37.000Z</time>
</trkpt>
<trkpt lat="46.0490040" lon="9.4550100">
	<ele>982.80</ele>
	<time>2023-07-15T12:45:41.000Z</time>
</trkpt>
<trkpt lat="46.0489910" lon="9.4550120">
	<ele>982.60</ele>
	<time>2023-07-15T12:45:44.000Z</time>
</trkpt>
<trkpt lat="46.0489680" lon="9.4549580">
	<ele>982.00</ele>
	<time>2023-07-15T12:45:48.000Z</time>
</trkpt>
<trkpt lat="46.0489660" lon="9.4549360">
	<ele>981.80</ele>
	<time>2023-07-15T12:45:49.000Z</time>
</trkpt>
<trkpt lat="46.0489860" lon="9.4548480">
	<ele>980.80</ele>
	<time>2023-07-15T12:45:57.000Z</time>
</trkpt>
<trkpt lat="46.0490430" lon="9.4548190">
	<ele>980.00</ele>
	<time>2023-07-15T12:46:01.000Z</time>
</trkpt>
<trkpt lat="46.0490800" lon="9.4548020">
	<ele>979.40</ele>
	<time>2023-07-15T12:46:04.000Z</time>
</trkpt>
<trkpt lat="46.0490900" lon="9.4547980">
	<ele>978.60</ele>
	<time>2023-07-15T12:46:06.000Z</time>
</trkpt>
<trkpt lat="46.0491050" lon="9.4547810">
	<ele>978.40</ele>
	<time>2023-07-15T12:46:08.000Z</time>
</trkpt>
<trkpt lat="46.0491550" lon="9.4547700">
	<ele>977.60</ele>
	<time>2023-07-15T12:46:13.000Z</time>
</trkpt>
<trkpt lat="46.0491620" lon="9.4547550">
	<ele>977.20</ele>
	<time>2023-07-15T12:46:14.000Z</time>
</trkpt>
<trkpt lat="46.0491570" lon="9.4547370">
	<ele>977.00</ele>
	<time>2023-07-15T12:46:15.000Z</time>
</trkpt>
<trkpt lat="46.0491520" lon="9.4547120">
	<ele>976.40</ele>
	<time>2023-07-15T12:46:17.000Z</time>
</trkpt>
<trkpt lat="46.0491670" lon="9.4547030">
	<ele>976.20</ele>
	<time>2023-07-15T12:46:20.000Z</time>
</trkpt>
<trkpt lat="46.0491790" lon="9.4546830">
	<ele>976.00</ele>
	<time>2023-07-15T12:46:22.000Z</time>
</trkpt>
<trkpt lat="46.0492080" lon="9.4546590">
	<ele>975.60</ele>
	<time>2023-07-15T12:46:25.000Z</time>
</trkpt>
<trkpt lat="46.0492290" lon="9.4546310">
	<ele>975.20</ele>
	<time>2023-07-15T12:46:27.000Z</time>
</trkpt>
<trkpt lat="46.0492640" lon="9.4546020">
	<ele>975.00</ele>
	<time>2023-07-15T12:46:29.000Z</time>
</trkpt>
<trkpt lat="46.0492740" lon="9.4545360">
	<ele>974.80</ele>
	<time>2023-07-15T12:46:32.000Z</time>
</trkpt>
<trkpt lat="46.0492610" lon="9.4545000">
	<ele>974.40</ele>
	<time>2023-07-15T12:46:34.000Z</time>
</trkpt>
<trkpt lat="46.0492540" lon="9.4544580">
	<ele>974.00</ele>
	<time>2023-07-15T12:46:36.000Z</time>
</trkpt>
<trkpt lat="46.0492480" lon="9.4543950">
	<ele>973.40</ele>
	<time>2023-07-15T12:46:39.000Z</time>
</trkpt>
<trkpt lat="46.0492100" lon="9.4543520">
	<ele>973.20</ele>
	<time>2023-07-15T12:46:41.000Z</time>
</trkpt>
<trkpt lat="46.0491400" lon="9.4542960">
	<ele>973.00</ele>
	<time>2023-07-15T12:46:43.000Z</time>
</trkpt>
<trkpt lat="46.0490860" lon="9.4542680">
	<ele>972.80</ele>
	<time>2023-07-15T12:46:44.000Z</time>
</trkpt>
<trkpt lat="46.0490650" lon="9.4542490">
	<ele>972.60</ele>
	<time>2023-07-15T12:46:45.000Z</time>
</trkpt>
<trkpt lat="46.0490550" lon="9.4542430">
	<ele>972.60</ele>
	<time>2023-07-15T12:46:46.000Z</time>
</trkpt>
<trkpt lat="46.0490720" lon="9.4542320">
	<ele>971.80</ele>
	<time>2023-07-15T12:46:49.000Z</time>
</trkpt>
<trkpt lat="46.0490910" lon="9.4542040">
	<ele>971.60</ele>
	<time>2023-07-15T12:46:52.000Z</time>
</trkpt>
<trkpt lat="46.0491030" lon="9.4541470">
	<ele>970.60</ele>
	<time>2023-07-15T12:46:56.000Z</time>
</trkpt>
<trkpt lat="46.0490920" lon="9.4540990">
	<ele>969.60</ele>
	<time>2023-07-15T12:47:00.000Z</time>
</trkpt>
<trkpt lat="46.0490800" lon="9.4540920">
	<ele>969.20</ele>
	<time>2023-07-15T12:47:01.000Z</time>
</trkpt>
<trkpt lat="46.0490540" lon="9.4540470">
	<ele>969.00</ele>
	<time>2023-07-15T12:47:04.000Z</time>
</trkpt>
<trkpt lat="46.0490490" lon="9.4540360">
	<ele>969.00</ele>
	<time>2023-07-15T12:47:05.000Z</time>
</trkpt>
<trkpt lat="46.0490590" lon="9.4540290">
	<ele>968.80</ele>
	<time>2023-07-15T12:47:06.000Z</time>
</trkpt>
<trkpt lat="46.0490630" lon="9.4540190">
	<ele>968.40</ele>
	<time>2023-07-15T12:47:07.000Z</time>
</trkpt>
<trkpt lat="46.0490800" lon="9.4539850">
	<ele>968.00</ele>
	<time>2023-07-15T12:47:09.000Z</time>
</trkpt>
<trkpt lat="46.0491000" lon="9.4538760">
	<ele>967.40</ele>
	<time>2023-07-15T12:47:14.000Z</time>
</trkpt>
<trkpt lat="46.0491000" lon="9.4538320">
	<ele>967.00</ele>
	<time>2023-07-15T12:47:16.000Z</time>
</trkpt>
<trkpt lat="46.0490940" lon="9.4538080">
	<ele>966.80</ele>
	<time>2023-07-15T12:47:17.000Z</time>
</trkpt>
<trkpt lat="46.0491010" lon="9.4537970">
	<ele>966.60</ele>
	<time>2023-07-15T12:47:19.000Z</time>
</trkpt>
<trkpt lat="46.0491210" lon="9.4537610">
	<ele>966.20</ele>
	<time>2023-07-15T12:47:21.000Z</time>
</trkpt>
<trkpt lat="46.0491170" lon="9.4537380">
	<ele>966.00</ele>
	<time>2023-07-15T12:47:22.000Z</time>
</trkpt>
<trkpt lat="46.0491130" lon="9.4536760">
	<ele>965.40</ele>
	<time>2023-07-15T12:47:24.000Z</time>
</trkpt>
<trkpt lat="46.0491360" lon="9.4536620">
	<ele>965.40</ele>
	<time>2023-07-15T12:47:25.000Z</time>
</trkpt>
<trkpt lat="46.0491940" lon="9.4536370">
	<ele>965.00</ele>
	<time>2023-07-15T12:47:27.000Z</time>
</trkpt>
<trkpt lat="46.0493720" lon="9.4535890">
	<ele>964.00</ele>
	<time>2023-07-15T12:47:33.000Z</time>
</trkpt>
<trkpt lat="46.0493790" lon="9.4535720">
	<ele>963.60</ele>
	<time>2023-07-15T12:47:34.000Z</time>
</trkpt>
<trkpt lat="46.0494290" lon="9.4534660">
	<ele>962.40</ele>
	<time>2023-07-15T12:47:41.000Z</time>
</trkpt>
<trkpt lat="46.0494990" lon="9.4534540">
	<ele>962.00</ele>
	<time>2023-07-15T12:47:43.000Z</time>
</trkpt>
<trkpt lat="46.0495450" lon="9.4534430">
	<ele>961.40</ele>
	<time>2023-07-15T12:47:45.000Z</time>
</trkpt>
<trkpt lat="46.0495700" lon="9.4534230">
	<ele>961.20</ele>
	<time>2023-07-15T12:47:47.000Z</time>
</trkpt>
<trkpt lat="46.0495600" lon="9.4533890">
	<ele>961.00</ele>
	<time>2023-07-15T12:47:49.000Z</time>
</trkpt>
<trkpt lat="46.0495460" lon="9.4533710">
	<ele>960.80</ele>
	<time>2023-07-15T12:47:50.000Z</time>
</trkpt>
<trkpt lat="46.0495280" lon="9.4533470">
	<ele>960.40</ele>
	<time>2023-07-15T12:47:52.000Z</time>
</trkpt>
<trkpt lat="46.0495120" lon="9.4533280">
	<ele>960.40</ele>
	<time>2023-07-15T12:47:53.000Z</time>
</trkpt>
<trkpt lat="46.0494750" lon="9.4532730">
	<ele>959.80</ele>
	<time>2023-07-15T12:47:56.000Z</time>
</trkpt>
<trkpt lat="46.0494430" lon="9.4532530">
	<ele>959.80</ele>
	<time>2023-07-15T12:47:57.000Z</time>
</trkpt>
<trkpt lat="46.0494070" lon="9.4532410">
	<ele>959.60</ele>
	<time>2023-07-15T12:47:58.000Z</time>
</trkpt>
<trkpt lat="46.0493800" lon="9.4532290">
	<ele>959.60</ele>
	<time>2023-07-15T12:47:59.000Z</time>
</trkpt>
<trkpt lat="46.0493770" lon="9.4532140">
	<ele>959.40</ele>
	<time>2023-07-15T12:48:00.000Z</time>
</trkpt>
<trkpt lat="46.0493840" lon="9.4532050">
	<ele>959.20</ele>
	<time>2023-07-15T12:48:01.000Z</time>
</trkpt>
<trkpt lat="46.0494220" lon="9.4531880">
	<ele>958.80</ele>
	<time>2023-07-15T12:48:03.000Z</time>
</trkpt>
<trkpt lat="46.0494300" lon="9.4531480">
	<ele>958.20</ele>
	<time>2023-07-15T12:48:05.000Z</time>
</trkpt>
<trkpt lat="46.0494680" lon="9.4530710">
	<ele>957.00</ele>
	<time>2023-07-15T12:48:09.000Z</time>
</trkpt>
<trkpt lat="46.0494940" lon="9.4530280">
	<ele>956.40</ele>
	<time>2023-07-15T12:48:12.000Z</time>
</trkpt>
<trkpt lat="46.0495270" lon="9.4530120">
	<ele>956.20</ele>
	<time>2023-07-15T12:48:14.000Z</time>
</trkpt>
<trkpt lat="46.0495430" lon="9.4530030">
	<ele>956.00</ele>
	<time>2023-07-15T12:48:15.000Z</time>
</trkpt>
<trkpt lat="46.0495600" lon="9.4529900">
	<ele>956.00</ele>
	<time>2023-07-15T12:48:16.000Z</time>
</trkpt>
<trkpt lat="46.0495880" lon="9.4529460">
	<ele>955.60</ele>
	<time>2023-07-15T12:48:18.000Z</time>
</trkpt>
<trkpt lat="46.0496260" lon="9.4529110">
	<ele>955.00</ele>
	<time>2023-07-15T12:48:22.000Z</time>
</trkpt>
<trkpt lat="46.0496590" lon="9.4528930">
	<ele>954.60</ele>
	<time>2023-07-15T12:48:24.000Z</time>
</trkpt>
<trkpt lat="46.0496750" lon="9.4528820">
	<ele>954.40</ele>
	<time>2023-07-15T12:48:25.000Z</time>
</trkpt>
<trkpt lat="46.0497150" lon="9.4528350">
	<ele>953.80</ele>
	<time>2023-07-15T12:48:29.000Z</time>
</trkpt>
<trkpt lat="46.0497260" lon="9.4528070">
	<ele>953.40</ele>
	<time>2023-07-15T12:48:31.000Z</time>
</trkpt>
<trkpt lat="46.0497580" lon="9.4527580">
	<ele>952.40</ele>
	<time>2023-07-15T12:48:34.000Z</time>
</trkpt>
<trkpt lat="46.0497750" lon="9.4527180">
	<ele>952.00</ele>
	<time>2023-07-15T12:48:36.000Z</time>
</trkpt>
<trkpt lat="46.0497990" lon="9.4526510">
	<ele>951.40</ele>
	<time>2023-07-15T12:48:39.000Z</time>
</trkpt>
<trkpt lat="46.0498050" lon="9.4526470">
	<ele>951.20</ele>
	<time>2023-07-15T12:48:40.000Z</time>
</trkpt>
<trkpt lat="46.0498780" lon="9.4525960">
	<ele>950.20</ele>
	<time>2023-07-15T12:48:45.000Z</time>
</trkpt>
<trkpt lat="46.0498850" lon="9.4525890">
	<ele>949.80</ele>
	<time>2023-07-15T12:48:46.000Z</time>
</trkpt>
<trkpt lat="46.0499210" lon="9.4525830">
	<ele>949.00</ele>
	<time>2023-07-15T12:48:49.000Z</time>
</trkpt>
<trkpt lat="46.0499550" lon="9.4525670">
	<ele>948.60</ele>
	<time>2023-07-15T12:48:51.000Z</time>
</trkpt>
<trkpt lat="46.0500120" lon="9.4525730">
	<ele>947.80</ele>
	<time>2023-07-15T12:48:55.000Z</time>
</trkpt>
<trkpt lat="46.0500280" lon="9.4525750">
	<ele>947.60</ele>
	<time>2023-07-15T12:48:56.000Z</time>
</trkpt>
<trkpt lat="46.0500560" lon="9.4525760">
	<ele>947.40</ele>
	<time>2023-07-15T12:48:58.000Z</time>
</trkpt>
<trkpt lat="46.0500930" lon="9.4525640">
	<ele>946.80</ele>
	<time>2023-07-15T12:49:00.000Z</time>
</trkpt>
<trkpt lat="46.0501370" lon="9.4525180">
	<ele>946.20</ele>
	<time>2023-07-15T12:49:04.000Z</time>
</trkpt>
<trkpt lat="46.0501500" lon="9.4524890">
	<ele>945.60</ele>
	<time>2023-07-15T12:49:06.000Z</time>
</trkpt>
<trkpt lat="46.0501550" lon="9.4524700">
	<ele>945.40</ele>
	<time>2023-07-15T12:49:07.000Z</time>
</trkpt>
<trkpt lat="46.0501620" lon="9.4524600">
	<ele>945.20</ele>
	<time>2023-07-15T12:49:09.000Z</time>
</trkpt>
<trkpt lat="46.0501770" lon="9.4524430">
	<ele>945.00</ele>
	<time>2023-07-15T12:49:11.000Z</time>
</trkpt>
<trkpt lat="46.0501850" lon="9.4524120">
	<ele>944.40</ele>
	<time>2023-07-15T12:49:13.000Z</time>
</trkpt>
<trkpt lat="46.0501930" lon="9.4524120">
	<ele>944.20</ele>
	<time>2023-07-15T12:49:14.000Z</time>
</trkpt>
<trkpt lat="46.0502270" lon="9.4523910">
	<ele>943.80</ele>
	<time>2023-07-15T12:49:17.000Z</time>
</trkpt>
<trkpt lat="46.0502500" lon="9.4523640">
	<ele>943.20</ele>
	<time>2023-07-15T12:49:19.000Z</time>
</trkpt>
<trkpt lat="46.0503380" lon="9.4524040">
	<ele>942.20</ele>
	<time>2023-07-15T12:49:26.000Z</time>
</trkpt>
<trkpt lat="46.0503440" lon="9.4524080">
	<ele>942.20</ele>
	<time>2023-07-15T12:49:27.000Z</time>
</trkpt>
<trkpt lat="46.0503880" lon="9.4523700">
	<ele>941.40</ele>
	<time>2023-07-15T12:49:32.000Z</time>
</trkpt>
<trkpt lat="46.0503960" lon="9.4523560">
	<ele>941.40</ele>
	<time>2023-07-15T12:49:34.000Z</time>
</trkpt>
<trkpt lat="46.0503740" lon="9.4523410">
	<ele>941.40</ele>
	<time>2023-07-15T12:49:36.000Z</time>
</trkpt>
<trkpt lat="46.0503610" lon="9.4523180">
	<ele>941.40</ele>
	<time>2023-07-15T12:49:38.000Z</time>
</trkpt>
<trkpt lat="46.0503460" lon="9.4522930">
	<ele>941.20</ele>
	<time>2023-07-15T12:49:40.000Z</time>
</trkpt>
<trkpt lat="46.0503340" lon="9.4522800">
	<ele>941.20</ele>
	<time>2023-07-15T12:49:41.000Z</time>
</trkpt>
<trkpt lat="46.0503290" lon="9.4522640">
	<ele>941.00</ele>
	<time>2023-07-15T12:49:42.000Z</time>
</trkpt>
<trkpt lat="46.0503060" lon="9.4521720">
	<ele>940.80</ele>
	<time>2023-07-15T12:49:47.000Z</time>
</trkpt>
<trkpt lat="46.0503320" lon="9.4521330">
	<ele>940.60</ele>
	<time>2023-07-15T12:49:50.000Z</time>
</trkpt>
<trkpt lat="46.0503430" lon="9.4521210">
	<ele>940.40</ele>
	<time>2023-07-15T12:49:51.000Z</time>
</trkpt>
<trkpt lat="46.0503530" lon="9.4520900">
	<ele>940.40</ele>
	<time>2023-07-15T12:49:53.000Z</time>
</trkpt>
<trkpt lat="46.0503620" lon="9.4520790">
	<ele>940.40</ele>
	<time>2023-07-15T12:49:54.000Z</time>
</trkpt>
<trkpt lat="46.0503850" lon="9.4520530">
	<ele>940.20</ele>
	<time>2023-07-15T12:49:56.000Z</time>
</trkpt>
<trkpt lat="46.0503950" lon="9.4520360">
	<ele>940.20</ele>
	<time>2023-07-15T12:49:58.000Z</time>
</trkpt>
<trkpt lat="46.0504000" lon="9.4519940">
	<ele>940.20</ele>
	<time>2023-07-15T12:50:02.000Z</time>
</trkpt>
<trkpt lat="46.0504150" lon="9.4519890">
	<ele>940.20</ele>
	<time>2023-07-15T12:50:03.000Z</time>
</trkpt>
<trkpt lat="46.0504170" lon="9.4519810">
	<ele>940.20</ele>
	<time>2023-07-15T12:50:04.000Z</time>
</trkpt>
<trkpt lat="46.0504560" lon="9.4519480">
	<ele>939.80</ele>
	<time>2023-07-15T12:50:07.000Z</time>
</trkpt>
<trkpt lat="46.0504610" lon="9.4519340">
	<ele>939.60</ele>
	<time>2023-07-15T12:50:08.000Z</time>
</trkpt>
<trkpt lat="46.0504690" lon="9.4518790">
	<ele>939.40</ele>
	<time>2023-07-15T12:50:11.000Z</time>
</trkpt>
<trkpt lat="46.0504740" lon="9.4518460">
	<ele>939.20</ele>
	<time>2023-07-15T12:50:13.000Z</time>
</trkpt>
<trkpt lat="46.0504820" lon="9.4518400">
	<ele>939.00</ele>
	<time>2023-07-15T12:50:14.000Z</time>
</trkpt>
<trkpt lat="46.0504890" lon="9.4518140">
	<ele>938.40</ele>
	<time>2023-07-15T12:50:16.000Z</time>
</trkpt>
<trkpt lat="46.0504900" lon="9.4517850">
	<ele>938.00</ele>
	<time>2023-07-15T12:50:18.000Z</time>
</trkpt>
<trkpt lat="46.0505040" lon="9.4517520">
	<ele>937.40</ele>
	<time>2023-07-15T12:50:20.000Z</time>
</trkpt>
<trkpt lat="46.0505020" lon="9.4517270">
	<ele>937.00</ele>
	<time>2023-07-15T12:50:22.000Z</time>
</trkpt>
<trkpt lat="46.0505000" lon="9.4517200">
	<ele>936.80</ele>
	<time>2023-07-15T12:50:23.000Z</time>
</trkpt>
<trkpt lat="46.0504970" lon="9.4517070">
	<ele>936.40</ele>
	<time>2023-07-15T12:50:24.000Z</time>
</trkpt>
<trkpt lat="46.0505120" lon="9.4516830">
	<ele>935.80</ele>
	<time>2023-07-15T12:50:27.000Z</time>
</trkpt>
<trkpt lat="46.0505130" lon="9.4516540">
	<ele>935.80</ele>
	<time>2023-07-15T12:50:29.000Z</time>
</trkpt>
<trkpt lat="46.0505100" lon="9.4516400">
	<ele>935.40</ele>
	<time>2023-07-15T12:50:33.000Z</time>
</trkpt>
<trkpt lat="46.0505100" lon="9.4516310">
	<ele>935.40</ele>
	<time>2023-07-15T12:50:34.000Z</time>
</trkpt>
<trkpt lat="46.0505400" lon="9.4516040">
	<ele>935.40</ele>
	<time>2023-07-15T12:50:38.000Z</time>
</trkpt>
<trkpt lat="46.0505620" lon="9.4515600">
	<ele>934.60</ele>
	<time>2023-07-15T12:50:43.000Z</time>
</trkpt>
<trkpt lat="46.0505730" lon="9.4515470">
	<ele>934.60</ele>
	<time>2023-07-15T12:50:44.000Z</time>
</trkpt>
<trkpt lat="46.0506360" lon="9.4515090">
	<ele>933.60</ele>
	<time>2023-07-15T12:50:49.000Z</time>
</trkpt>
<trkpt lat="46.0506410" lon="9.4514930">
	<ele>933.40</ele>
	<time>2023-07-15T12:50:50.000Z</time>
</trkpt>
<trkpt lat="46.0506510" lon="9.4514730">
	<ele>933.40</ele>
	<time>2023-07-15T12:50:51.000Z</time>
</trkpt>
<trkpt lat="46.0507370" lon="9.4514300">
	<ele>932.80</ele>
	<time>2023-07-15T12:50:55.000Z</time>
</trkpt>
<trkpt lat="46.0507770" lon="9.4514080">
	<ele>932.60</ele>
	<time>2023-07-15T12:50:57.000Z</time>
</trkpt>
<trkpt lat="46.0508300" lon="9.4513460">
	<ele>932.40</ele>
	<time>2023-07-15T12:51:01.000Z</time>
</trkpt>
<trkpt lat="46.0508320" lon="9.4513300">
	<ele>931.80</ele>
	<time>2023-07-15T12:51:02.000Z</time>
</trkpt>
<trkpt lat="46.0508480" lon="9.4513240">
	<ele>931.40</ele>
	<time>2023-07-15T12:51:03.000Z</time>
</trkpt>
<trkpt lat="46.0508750" lon="9.4512920">
	<ele>931.00</ele>
	<time>2023-07-15T12:51:05.000Z</time>
</trkpt>
<trkpt lat="46.0509100" lon="9.4512150">
	<ele>930.20</ele>
	<time>2023-07-15T12:51:09.000Z</time>
</trkpt>
<trkpt lat="46.0509290" lon="9.4512010">
	<ele>930.00</ele>
	<time>2023-07-15T12:51:10.000Z</time>
</trkpt>
<trkpt lat="46.0509490" lon="9.4511950">
	<ele>930.00</ele>
	<time>2023-07-15T12:51:11.000Z</time>
</trkpt>
<trkpt lat="46.0509860" lon="9.4511690">
	<ele>929.60</ele>
	<time>2023-07-15T12:51:14.000Z</time>
</trkpt>
<trkpt lat="46.0509940" lon="9.4511390">
	<ele>929.40</ele>
	<time>2023-07-15T12:51:16.000Z</time>
</trkpt>
<trkpt lat="46.0510110" lon="9.4511060">
	<ele>929.40</ele>
	<time>2023-07-15T12:51:18.000Z</time>
</trkpt>
<trkpt lat="46.0510780" lon="9.4510700">
	<ele>929.40</ele>
	<time>2023-07-15T12:51:21.000Z</time>
</trkpt>
<trkpt lat="46.0510850" lon="9.4510530">
	<ele>929.40</ele>
	<time>2023-07-15T12:51:22.000Z</time>
</trkpt>
<trkpt lat="46.0510730" lon="9.4510200">
	<ele>929.40</ele>
	<time>2023-07-15T12:51:24.000Z</time>
</trkpt>
<trkpt lat="46.0510650" lon="9.4510030">
	<ele>929.40</ele>
	<time>2023-07-15T12:51:25.000Z</time>
</trkpt>
<trkpt lat="46.0510570" lon="9.4509730">
	<ele>929.40</ele>
	<time>2023-07-15T12:51:27.000Z</time>
</trkpt>
<trkpt lat="46.0509930" lon="9.4509330">
	<ele>929.20</ele>
	<time>2023-07-15T12:51:29.000Z</time>
</trkpt>
<trkpt lat="46.0509720" lon="9.4509040">
	<ele>929.20</ele>
	<time>2023-07-15T12:51:30.000Z</time>
</trkpt>
<trkpt lat="46.0509100" lon="9.4508110">
	<ele>929.00</ele>
	<time>2023-07-15T12:51:34.000Z</time>
</trkpt>
<trkpt lat="46.0508780" lon="9.4507650">
	<ele>929.00</ele>
	<time>2023-07-15T12:51:37.000Z</time>
</trkpt>
<trkpt lat="46.0508890" lon="9.4507370">
	<ele>929.20</ele>
	<time>2023-07-15T12:51:39.000Z</time>
</trkpt>
<trkpt lat="46.0508990" lon="9.4507110">
	<ele>929.20</ele>
	<time>2023-07-15T12:51:41.000Z</time>
</trkpt>
<trkpt lat="46.0508930" lon="9.4506630">
	<ele>929.60</ele>
	<time>2023-07-15T12:51:44.000Z</time>
</trkpt>
<trkpt lat="46.0509010" lon="9.4506420">
	<ele>929.60</ele>
	<time>2023-07-15T12:51:45.000Z</time>
</trkpt>
<trkpt lat="46.0509480" lon="9.4505930">
	<ele>929.80</ele>
	<time>2023-07-15T12:51:48.000Z</time>
</trkpt>
<trkpt lat="46.0510080" lon="9.4505790">
	<ele>929.80</ele>
	<time>2023-07-15T12:51:50.000Z</time>
</trkpt>
<trkpt lat="46.0510110" lon="9.4505580">
	<ele>930.00</ele>
	<time>2023-07-15T12:51:51.000Z</time>
</trkpt>
<trkpt lat="46.0510560" lon="9.4505260">
	<ele>930.40</ele>
	<time>2023-07-15T12:51:53.000Z</time>
</trkpt>
<trkpt lat="46.0510940" lon="9.4505060">
	<ele>930.60</ele>
	<time>2023-07-15T12:51:55.000Z</time>
</trkpt>
<trkpt lat="46.0511450" lon="9.4504470">
	<ele>931.00</ele>
	<time>2023-07-15T12:52:00.000Z</time>
</trkpt>
<trkpt lat="46.0511730" lon="9.4503700">
	<ele>931.20</ele>
	<time>2023-07-15T12:52:03.000Z</time>
</trkpt>
<trkpt lat="46.0512150" lon="9.4503150">
	<ele>931.20</ele>
	<time>2023-07-15T12:52:07.000Z</time>
</trkpt>
<trkpt lat="46.0512460" lon="9.4503060">
	<ele>931.20</ele>
	<time>2023-07-15T12:52:09.000Z</time>
</trkpt>
<trkpt lat="46.0512620" lon="9.4502740">
	<ele>931.60</ele>
	<time>2023-07-15T12:52:11.000Z</time>
</trkpt>
<trkpt lat="46.0512980" lon="9.4502390">
	<ele>931.80</ele>
	<time>2023-07-15T12:52:14.000Z</time>
</trkpt>
<trkpt lat="46.0513080" lon="9.4502100">
	<ele>932.00</ele>
	<time>2023-07-15T12:52:16.000Z</time>
</trkpt>
<trkpt lat="46.0513200" lon="9.4501880">
	<ele>932.20</ele>
	<time>2023-07-15T12:52:18.000Z</time>
</trkpt>
<trkpt lat="46.0513520" lon="9.4501520">
	<ele>932.60</ele>
	<time>2023-07-15T12:52:21.000Z</time>
</trkpt>
<trkpt lat="46.0513630" lon="9.4501420">
	<ele>932.60</ele>
	<time>2023-07-15T12:52:22.000Z</time>
</trkpt>
<trkpt lat="46.0514100" lon="9.4501180">
	<ele>932.40</ele>
	<time>2023-07-15T12:52:25.000Z</time>
</trkpt>
<trkpt lat="46.0514050" lon="9.4500980">
	<ele>932.40</ele>
	<time>2023-07-15T12:52:26.000Z</time>
</trkpt>
<trkpt lat="46.0514060" lon="9.4500740">
	<ele>932.40</ele>
	<time>2023-07-15T12:52:27.000Z</time>
</trkpt>
<trkpt lat="46.0514200" lon="9.4500390">
	<ele>932.00</ele>
	<time>2023-07-15T12:52:29.000Z</time>
</trkpt>
<trkpt lat="46.0514150" lon="9.4500090">
	<ele>931.60</ele>
	<time>2023-07-15T12:52:31.000Z</time>
</trkpt>
<trkpt lat="46.0514200" lon="9.4500000">
	<ele>931.60</ele>
	<time>2023-07-15T12:52:32.000Z</time>
</trkpt>
<trkpt lat="46.0514140" lon="9.4499680">
	<ele>931.00</ele>
	<time>2023-07-15T12:52:34.000Z</time>
</trkpt>
<trkpt lat="46.0514380" lon="9.4499380">
	<ele>930.40</ele>
	<time>2023-07-15T12:52:36.000Z</time>
</trkpt>
<trkpt lat="46.0514490" lon="9.4499230">
	<ele>930.40</ele>
	<time>2023-07-15T12:52:37.000Z</time>
</trkpt>
<trkpt lat="46.0514850" lon="9.4498890">
	<ele>929.40</ele>
	<time>2023-07-15T12:52:40.000Z</time>
</trkpt>
<trkpt lat="46.0515120" lon="9.4498660">
	<ele>929.20</ele>
	<time>2023-07-15T12:52:42.000Z</time>
</trkpt>
<trkpt lat="46.0515120" lon="9.4498450">
	<ele>929.00</ele>
	<time>2023-07-15T12:52:43.000Z</time>
</trkpt>
<trkpt lat="46.0515160" lon="9.4498120">
	<ele>928.20</ele>
	<time>2023-07-15T12:52:45.000Z</time>
</trkpt>
<trkpt lat="46.0515220" lon="9.4498010">
	<ele>928.00</ele>
	<time>2023-07-15T12:52:46.000Z</time>
</trkpt>
<trkpt lat="46.0515670" lon="9.4497670">
	<ele>927.40</ele>
	<time>2023-07-15T12:52:49.000Z</time>
</trkpt>
<trkpt lat="46.0515700" lon="9.4497320">
	<ele>926.80</ele>
	<time>2023-07-15T12:52:51.000Z</time>
</trkpt>
<trkpt lat="46.0515830" lon="9.4497050">
	<ele>926.40</ele>
	<time>2023-07-15T12:52:53.000Z</time>
</trkpt>
<trkpt lat="46.0515950" lon="9.4496810">
	<ele>926.00</ele>
	<time>2023-07-15T12:52:55.000Z</time>
</trkpt>
<trkpt lat="46.0515940" lon="9.4496670">
	<ele>925.80</ele>
	<time>2023-07-15T12:52:56.000Z</time>
</trkpt>
<trkpt lat="46.0515860" lon="9.4496480">
	<ele>925.60</ele>
	<time>2023-07-15T12:52:57.000Z</time>
</trkpt>
<trkpt lat="46.0516360" lon="9.4496080">
	<ele>924.60</ele>
	<time>2023-07-15T12:53:00.000Z</time>
</trkpt>
<trkpt lat="46.0516360" lon="9.4495920">
	<ele>924.40</ele>
	<time>2023-07-15T12:53:01.000Z</time>
</trkpt>
<trkpt lat="46.0516420" lon="9.4495910">
	<ele>924.20</ele>
	<time>2023-07-15T12:53:02.000Z</time>
</trkpt>
<trkpt lat="46.0516450" lon="9.4496100">
	<ele>924.00</ele>
	<time>2023-07-15T12:53:04.000Z</time>
</trkpt>
<trkpt lat="46.0516490" lon="9.4496210">
	<ele>923.80</ele>
	<time>2023-07-15T12:53:05.000Z</time>
</trkpt>
<trkpt lat="46.0516460" lon="9.4496330">
	<ele>923.60</ele>
	<time>2023-07-15T12:53:06.000Z</time>
</trkpt>
<trkpt lat="46.0516210" lon="9.4496750">
	<ele>922.80</ele>
	<time>2023-07-15T12:53:09.000Z</time>
</trkpt>
<trkpt lat="46.0516080" lon="9.4497130">
	<ele>922.40</ele>
	<time>2023-07-15T12:53:11.000Z</time>
</trkpt>
<trkpt lat="46.0515980" lon="9.4497560">
	<ele>922.00</ele>
	<time>2023-07-15T12:53:13.000Z</time>
</trkpt>
<trkpt lat="46.0515920" lon="9.4497960">
	<ele>921.40</ele>
	<time>2023-07-15T12:53:16.000Z</time>
</trkpt>
<trkpt lat="46.0515790" lon="9.4498150">
	<ele>920.80</ele>
	<time>2023-07-15T12:53:18.000Z</time>
</trkpt>
<trkpt lat="46.0515510" lon="9.4497940">
	<ele>920.40</ele>
	<time>2023-07-15T12:53:20.000Z</time>
</trkpt>
<trkpt lat="46.0515460" lon="9.4497840">
	<ele>920.20</ele>
	<time>2023-07-15T12:53:21.000Z</time>
</trkpt>
<trkpt lat="46.0515430" lon="9.4497610">
	<ele>920.00</ele>
	<time>2023-07-15T12:53:23.000Z</time>
</trkpt>
<trkpt lat="46.0515620" lon="9.4497290">
	<ele>920.00</ele>
	<time>2023-07-15T12:53:25.000Z</time>
</trkpt>
<trkpt lat="46.0515820" lon="9.4497060">
	<ele>919.60</ele>
	<time>2023-07-15T12:53:27.000Z</time>
</trkpt>
<trkpt lat="46.0515850" lon="9.4496920">
	<ele>919.40</ele>
	<time>2023-07-15T12:53:28.000Z</time>
</trkpt>
<trkpt lat="46.0515810" lon="9.4496810">
	<ele>919.20</ele>
	<time>2023-07-15T12:53:29.000Z</time>
</trkpt>
<trkpt lat="46.0515820" lon="9.4496710">
	<ele>919.20</ele>
	<time>2023-07-15T12:53:30.000Z</time>
</trkpt>
<trkpt lat="46.0516110" lon="9.4496190">
	<ele>918.60</ele>
	<time>2023-07-15T12:53:34.000Z</time>
</trkpt>
<trkpt lat="46.0516120" lon="9.4495880">
	<ele>918.20</ele>
	<time>2023-07-15T12:53:36.000Z</time>
</trkpt>
<trkpt lat="46.0516200" lon="9.4495140">
	<ele>917.80</ele>
	<time>2023-07-15T12:53:40.000Z</time>
</trkpt>
<trkpt lat="46.0516360" lon="9.4494900">
	<ele>917.60</ele>
	<time>2023-07-15T12:53:42.000Z</time>
</trkpt>
<trkpt lat="46.0516460" lon="9.4494550">
	<ele>917.00</ele>
	<time>2023-07-15T12:53:44.000Z</time>
</trkpt>
<trkpt lat="46.0516630" lon="9.4494440">
	<ele>916.20</ele>
	<time>2023-07-15T12:53:46.000Z</time>
</trkpt>
<trkpt lat="46.0516780" lon="9.4494370">
	<ele>916.00</ele>
	<time>2023-07-15T12:53:47.000Z</time>
</trkpt>
<trkpt lat="46.0516890" lon="9.4494160">
	<ele>915.60</ele>
	<time>2023-07-15T12:53:49.000Z</time>
</trkpt>
<trkpt lat="46.0516840" lon="9.4493780">
	<ele>915.40</ele>
	<time>2023-07-15T12:53:51.000Z</time>
</trkpt>
<trkpt lat="46.0516850" lon="9.4493630">
	<ele>915.00</ele>
	<time>2023-07-15T12:53:52.000Z</time>
</trkpt>
<trkpt lat="46.0516860" lon="9.4493490">
	<ele>914.80</ele>
	<time>2023-07-15T12:53:53.000Z</time>
</trkpt>
<trkpt lat="46.0516930" lon="9.4493390">
	<ele>914.60</ele>
	<time>2023-07-15T12:53:54.000Z</time>
</trkpt>
<trkpt lat="46.0517200" lon="9.4493050">
	<ele>913.80</ele>
	<time>2023-07-15T12:53:57.000Z</time>
</trkpt>
<trkpt lat="46.0517440" lon="9.4492850">
	<ele>913.20</ele>
	<time>2023-07-15T12:53:59.000Z</time>
</trkpt>
<trkpt lat="46.0517600" lon="9.4492580">
	<ele>912.60</ele>
	<time>2023-07-15T12:54:01.000Z</time>
</trkpt>
<trkpt lat="46.0517700" lon="9.4492190">
	<ele>912.40</ele>
	<time>2023-07-15T12:54:03.000Z</time>
</trkpt>
<trkpt lat="46.0517740" lon="9.4492040">
	<ele>912.20</ele>
	<time>2023-07-15T12:54:04.000Z</time>
</trkpt>
<trkpt lat="46.0517670" lon="9.4491850">
	<ele>912.00</ele>
	<time>2023-07-15T12:54:05.000Z</time>
</trkpt>
<trkpt lat="46.0517660" lon="9.4491580">
	<ele>911.60</ele>
	<time>2023-07-15T12:54:07.000Z</time>
</trkpt>
<trkpt lat="46.0517750" lon="9.4491340">
	<ele>911.20</ele>
	<time>2023-07-15T12:54:09.000Z</time>
</trkpt>
<trkpt lat="46.0517730" lon="9.4491230">
	<ele>911.00</ele>
	<time>2023-07-15T12:54:10.000Z</time>
</trkpt>
<trkpt lat="46.0517660" lon="9.4490900">
	<ele>910.80</ele>
	<time>2023-07-15T12:54:12.000Z</time>
</trkpt>
<trkpt lat="46.0517680" lon="9.4490570">
	<ele>910.60</ele>
	<time>2023-07-15T12:54:14.000Z</time>
</trkpt>
<trkpt lat="46.0517510" lon="9.4490380">
	<ele>910.40</ele>
	<time>2023-07-15T12:54:15.000Z</time>
</trkpt>
<trkpt lat="46.0517370" lon="9.4490100">
	<ele>910.00</ele>
	<time>2023-07-15T12:54:17.000Z</time>
</trkpt>
<trkpt lat="46.0517510" lon="9.4489990">
	<ele>909.60</ele>
	<time>2023-07-15T12:54:18.000Z</time>
</trkpt>
<trkpt lat="46.0517440" lon="9.4489790">
	<ele>909.40</ele>
	<time>2023-07-15T12:54:19.000Z</time>
</trkpt>
<trkpt lat="46.0517380" lon="9.4489600">
	<ele>909.40</ele>
	<time>2023-07-15T12:54:20.000Z</time>
</trkpt>
<trkpt lat="46.0517390" lon="9.4489360">
	<ele>909.20</ele>
	<time>2023-07-15T12:54:21.000Z</time>
</trkpt>
<trkpt lat="46.0517260" lon="9.4488730">
	<ele>908.80</ele>
	<time>2023-07-15T12:54:24.000Z</time>
</trkpt>
<trkpt lat="46.0516950" lon="9.4488320">
	<ele>908.60</ele>
	<time>2023-07-15T12:54:26.000Z</time>
</trkpt>
<trkpt lat="46.0516900" lon="9.4488160">
	<ele>908.60</ele>
	<time>2023-07-15T12:54:27.000Z</time>
</trkpt>
<trkpt lat="46.0516700" lon="9.4487900">
	<ele>908.00</ele>
	<time>2023-07-15T12:54:29.000Z</time>
</trkpt>
<trkpt lat="46.0516060" lon="9.4487190">
	<ele>907.60</ele>
	<time>2023-07-15T12:54:33.000Z</time>
</trkpt>
<trkpt lat="46.0516370" lon="9.4486910">
	<ele>907.60</ele>
	<time>2023-07-15T12:54:38.000Z</time>
</trkpt>
<trkpt lat="46.0516330" lon="9.4486280">
	<ele>907.60</ele>
	<time>2023-07-15T12:54:47.000Z</time>
</trkpt>
<trkpt lat="46.0516350" lon="9.4486280">
	<ele>907.60</ele>
	<time>2023-07-15T12:54:48.000Z</time>
</trkpt>
<trkpt lat="46.0516490" lon="9.4486370">
	<ele>907.60</ele>
	<time>2023-07-15T12:54:53.000Z</time>
</trkpt>
<trkpt lat="46.0516540" lon="9.4486410">
	<ele>907.60</ele>
	<time>2023-07-15T12:54:57.000Z</time>
</trkpt>
<trkpt lat="46.0516520" lon="9.4486370">
	<ele>907.80</ele>
	<time>2023-07-15T12:55:01.000Z</time>
</trkpt>
<trkpt lat="46.0516520" lon="9.4486370">
	<ele>907.80</ele>
	<time>2023-07-15T12:55:04.000Z</time>
</trkpt>
<trkpt lat="46.0516440" lon="9.4486200">
	<ele>907.20</ele>
	<time>2023-07-15T12:55:07.000Z</time>
</trkpt>
<trkpt lat="46.0516250" lon="9.4485910">
	<ele>906.80</ele>
	<time>2023-07-15T12:55:09.000Z</time>
</trkpt>
<trkpt lat="46.0516340" lon="9.4485770">
	<ele>906.60</ele>
	<time>2023-07-15T12:55:11.000Z</time>
</trkpt>
<trkpt lat="46.0516250" lon="9.4484720">
	<ele>906.40</ele>
	<time>2023-07-15T12:55:15.000Z</time>
</trkpt>
<trkpt lat="46.0516410" lon="9.4484420">
	<ele>906.40</ele>
	<time>2023-07-15T12:55:17.000Z</time>
</trkpt>
<trkpt lat="46.0516130" lon="9.4483940">
	<ele>906.20</ele>
	<time>2023-07-15T12:55:19.000Z</time>
</trkpt>
<trkpt lat="46.0516010" lon="9.4483590">
	<ele>906.00</ele>
	<time>2023-07-15T12:55:21.000Z</time>
</trkpt>
<trkpt lat="46.0516030" lon="9.4483260">
	<ele>905.80</ele>
	<time>2023-07-15T12:55:23.000Z</time>
</trkpt>
<trkpt lat="46.0515920" lon="9.4482740">
	<ele>905.60</ele>
	<time>2023-07-15T12:55:26.000Z</time>
</trkpt>
<trkpt lat="46.0516380" lon="9.4482600">
	<ele>905.60</ele>
	<time>2023-07-15T12:55:28.000Z</time>
</trkpt>
<trkpt lat="46.0516430" lon="9.4482410">
	<ele>905.60</ele>
	<time>2023-07-15T12:55:29.000Z</time>
</trkpt>
<trkpt lat="46.0517320" lon="9.4481530">
	<ele>905.80</ele>
	<time>2023-07-15T12:55:34.000Z</time>
</trkpt>
<trkpt lat="46.0517190" lon="9.4481420">
	<ele>905.80</ele>
	<time>2023-07-15T12:55:35.000Z</time>
</trkpt>
<trkpt lat="46.0517020" lon="9.4480980">
	<ele>906.00</ele>
	<time>2023-07-15T12:55:38.000Z</time>
</trkpt>
<trkpt lat="46.0517540" lon="9.4480640">
	<ele>906.60</ele>
	<time>2023-07-15T12:55:43.000Z</time>
</trkpt>
<trkpt lat="46.0517660" lon="9.4480350">
	<ele>906.60</ele>
	<time>2023-07-15T12:55:45.000Z</time>
</trkpt>
<trkpt lat="46.0517650" lon="9.4480150">
	<ele>906.80</ele>
	<time>2023-07-15T12:55:46.000Z</time>
</trkpt>
<trkpt lat="46.0517670" lon="9.4480020">
	<ele>906.80</ele>
	<time>2023-07-15T12:55:47.000Z</time>
</trkpt>
<trkpt lat="46.0517720" lon="9.4479710">
	<ele>906.80</ele>
	<time>2023-07-15T12:55:49.000Z</time>
</trkpt>
<trkpt lat="46.0517890" lon="9.4479630">
	<ele>907.00</ele>
	<time>2023-07-15T12:55:50.000Z</time>
</trkpt>
<trkpt lat="46.0518160" lon="9.4479490">
	<ele>907.40</ele>
	<time>2023-07-15T12:55:52.000Z</time>
</trkpt>
<trkpt lat="46.0518170" lon="9.4479120">
	<ele>907.60</ele>
	<time>2023-07-15T12:55:54.000Z</time>
</trkpt>
<trkpt lat="46.0518120" lon="9.4478870">
	<ele>907.60</ele>
	<time>2023-07-15T12:55:55.000Z</time>
</trkpt>
<trkpt lat="46.0518110" lon="9.4478690">
	<ele>907.80</ele>
	<time>2023-07-15T12:55:56.000Z</time>
</trkpt>
<trkpt lat="46.0517920" lon="9.4478350">
	<ele>908.00</ele>
	<time>2023-07-15T12:55:58.000Z</time>
</trkpt>
<trkpt lat="46.0517860" lon="9.4478160">
	<ele>908.20</ele>
	<time>2023-07-15T12:55:59.000Z</time>
</trkpt>
<trkpt lat="46.0517850" lon="9.4477860">
	<ele>908.40</ele>
	<time>2023-07-15T12:56:01.000Z</time>
</trkpt>
<trkpt lat="46.0517750" lon="9.4477380">
	<ele>908.60</ele>
	<time>2023-07-15T12:56:04.000Z</time>
</trkpt>
<trkpt lat="46.0517830" lon="9.4477090">
	<ele>908.80</ele>
	<time>2023-07-15T12:56:06.000Z</time>
</trkpt>
<trkpt lat="46.0518170" lon="9.4476660">
	<ele>909.00</ele>
	<time>2023-07-15T12:56:08.000Z</time>
</trkpt>
<trkpt lat="46.0518070" lon="9.4476340">
	<ele>909.20</ele>
	<time>2023-07-15T12:56:09.000Z</time>
</trkpt>
<trkpt lat="46.0517930" lon="9.4475800">
	<ele>909.20</ele>
	<time>2023-07-15T12:56:11.000Z</time>
</trkpt>
<trkpt lat="46.0517920" lon="9.4475530">
	<ele>909.60</ele>
	<time>2023-07-15T12:56:13.000Z</time>
</trkpt>
<trkpt lat="46.0517880" lon="9.4475200">
	<ele>910.00</ele>
	<time>2023-07-15T12:56:15.000Z</time>
</trkpt>
<trkpt lat="46.0518100" lon="9.4474890">
	<ele>910.20</ele>
	<time>2023-07-15T12:56:18.000Z</time>
</trkpt>
<trkpt lat="46.0518400" lon="9.4473710">
	<ele>910.60</ele>
	<time>2023-07-15T12:56:23.000Z</time>
</trkpt>
<trkpt lat="46.0518520" lon="9.4473620">
	<ele>910.80</ele>
	<time>2023-07-15T12:56:24.000Z</time>
</trkpt>
<trkpt lat="46.0518690" lon="9.4473540">
	<ele>911.00</ele>
	<time>2023-07-15T12:56:25.000Z</time>
</trkpt>
<trkpt lat="46.0519090" lon="9.4473270">
	<ele>911.60</ele>
	<time>2023-07-15T12:56:28.000Z</time>
</trkpt>
<trkpt lat="46.0519110" lon="9.4473040">
	<ele>911.60</ele>
	<time>2023-07-15T12:56:29.000Z</time>
</trkpt>
<trkpt lat="46.0519260" lon="9.4472900">
	<ele>911.60</ele>
	<time>2023-07-15T12:56:30.000Z</time>
</trkpt>
<trkpt lat="46.0519510" lon="9.4472690">
	<ele>911.80</ele>
	<time>2023-07-15T12:56:32.000Z</time>
</trkpt>
<trkpt lat="46.0519670" lon="9.4472560">
	<ele>912.20</ele>
	<time>2023-07-15T12:56:33.000Z</time>
</trkpt>
<trkpt lat="46.0519670" lon="9.4472310">
	<ele>912.20</ele>
	<time>2023-07-15T12:56:34.000Z</time>
</trkpt>
<trkpt lat="46.0519480" lon="9.4471450">
	<ele>913.00</ele>
	<time>2023-07-15T12:56:37.000Z</time>
</trkpt>
<trkpt lat="46.0519570" lon="9.4471240">
	<ele>913.20</ele>
	<time>2023-07-15T12:56:38.000Z</time>
</trkpt>
<trkpt lat="46.0519660" lon="9.4471040">
	<ele>913.40</ele>
	<time>2023-07-15T12:56:39.000Z</time>
</trkpt>
<trkpt lat="46.0519850" lon="9.4470630">
	<ele>913.80</ele>
	<time>2023-07-15T12:56:41.000Z</time>
</trkpt>
<trkpt lat="46.0519940" lon="9.4470390">
	<ele>913.80</ele>
	<time>2023-07-15T12:56:42.000Z</time>
</trkpt>
<trkpt lat="46.0520310" lon="9.4469330">
	<ele>914.20</ele>
	<time>2023-07-15T12:56:48.000Z</time>
</trkpt>
<trkpt lat="46.0520500" lon="9.4469240">
	<ele>914.20</ele>
	<time>2023-07-15T12:56:49.000Z</time>
</trkpt>
<trkpt lat="46.0520600" lon="9.4468990">
	<ele>914.20</ele>
	<time>2023-07-15T12:56:51.000Z</time>
</trkpt>
<trkpt lat="46.0520640" lon="9.4468760">
	<ele>914.20</ele>
	<time>2023-07-15T12:56:52.000Z</time>
</trkpt>
<trkpt lat="46.0520810" lon="9.4468410">
	<ele>914.20</ele>
	<time>2023-07-15T12:56:53.000Z</time>
</trkpt>
<trkpt lat="46.0521700" lon="9.4467330">
	<ele>913.60</ele>
	<time>2023-07-15T12:56:58.000Z</time>
</trkpt>
<trkpt lat="46.0521830" lon="9.4466950">
	<ele>913.40</ele>
	<time>2023-07-15T12:57:00.000Z</time>
</trkpt>
<trkpt lat="46.0521630" lon="9.4466210">
	<ele>913.20</ele>
	<time>2023-07-15T12:57:03.000Z</time>
</trkpt>
<trkpt lat="46.0521460" lon="9.4465620">
	<ele>913.00</ele>
	<time>2023-07-15T12:57:06.000Z</time>
</trkpt>
<trkpt lat="46.0521460" lon="9.4465370">
	<ele>912.80</ele>
	<time>2023-07-15T12:57:08.000Z</time>
</trkpt>
<trkpt lat="46.0521480" lon="9.4465220">
	<ele>912.60</ele>
	<time>2023-07-15T12:57:09.000Z</time>
</trkpt>
<trkpt lat="46.0521510" lon="9.4464950">
	<ele>912.40</ele>
	<time>2023-07-15T12:57:11.000Z</time>
</trkpt>
<trkpt lat="46.0521380" lon="9.4464680">
	<ele>912.20</ele>
	<time>2023-07-15T12:57:13.000Z</time>
</trkpt>
<trkpt lat="46.0521320" lon="9.4464500">
	<ele>912.20</ele>
	<time>2023-07-15T12:57:14.000Z</time>
</trkpt>
<trkpt lat="46.0521370" lon="9.4464110">
	<ele>911.40</ele>
	<time>2023-07-15T12:57:18.000Z</time>
</trkpt>
<trkpt lat="46.0521420" lon="9.4464140">
	<ele>911.20</ele>
	<time>2023-07-15T12:57:19.000Z</time>
</trkpt>
<trkpt lat="46.0521430" lon="9.4464330">
	<ele>911.00</ele>
	<time>2023-07-15T12:57:20.000Z</time>
</trkpt>
<trkpt lat="46.0521030" lon="9.4463940">
	<ele>910.80</ele>
	<time>2023-07-15T12:57:24.000Z</time>
</trkpt>
<trkpt lat="46.0521710" lon="9.4464070">
	<ele>911.00</ele>
	<time>2023-07-15T12:57:28.000Z</time>
</trkpt>
<trkpt lat="46.0521670" lon="9.4463950">
	<ele>911.00</ele>
	<time>2023-07-15T12:57:31.000Z</time>
</trkpt>
<trkpt lat="46.0521950" lon="9.4463820">
	<ele>911.00</ele>
	<time>2023-07-15T12:57:34.000Z</time>
</trkpt>
<trkpt lat="46.0522210" lon="9.4463680">
	<ele>910.80</ele>
	<time>2023-07-15T12:57:37.000Z</time>
</trkpt>
<trkpt lat="46.0522430" lon="9.4463220">
	<ele>910.60</ele>
	<time>2023-07-15T12:57:39.000Z</time>
</trkpt>
<trkpt lat="46.0522700" lon="9.4462920">
	<ele>910.40</ele>
	<time>2023-07-15T12:57:41.000Z</time>
</trkpt>
<trkpt lat="46.0522760" lon="9.4462880">
	<ele>910.20</ele>
	<time>2023-07-15T12:57:42.000Z</time>
</trkpt>
<trkpt lat="46.0522640" lon="9.4462630">
	<ele>910.00</ele>
	<time>2023-07-15T12:57:45.000Z</time>
</trkpt>
<trkpt lat="46.0522670" lon="9.4462650">
	<ele>910.00</ele>
	<time>2023-07-15T12:57:46.000Z</time>
</trkpt>
<trkpt lat="46.0523200" lon="9.4462650">
	<ele>910.00</ele>
	<time>2023-07-15T12:57:47.000Z</time>
</trkpt>
<trkpt lat="46.0523410" lon="9.4462730">
	<ele>910.00</ele>
	<time>2023-07-15T12:57:48.000Z</time>
</trkpt>
<trkpt lat="46.0523440" lon="9.4462760">
	<ele>909.80</ele>
	<time>2023-07-15T12:57:51.000Z</time>
</trkpt>
<trkpt lat="46.0523320" lon="9.4462730">
	<ele>909.80</ele>
	<time>2023-07-15T12:57:52.000Z</time>
</trkpt>
<trkpt lat="46.0523210" lon="9.4462590">
	<ele>909.80</ele>
	<time>2023-07-15T12:57:55.000Z</time>
</trkpt>
<trkpt lat="46.0523400" lon="9.4462560">
	<ele>910.00</ele>
	<time>2023-07-15T12:57:58.000Z</time>
</trkpt>
<trkpt lat="46.0523490" lon="9.4462550">
	<ele>910.00</ele>
	<time>2023-07-15T12:57:59.000Z</time>
</trkpt>
<trkpt lat="46.0522850" lon="9.4462280">
	<ele>910.00</ele>
	<time>2023-07-15T12:58:01.000Z</time>
</trkpt>
<trkpt lat="46.0522870" lon="9.4462220">
	<ele>909.80</ele>
	<time>2023-07-15T12:58:02.000Z</time>
</trkpt>
<trkpt lat="46.0522660" lon="9.4462140">
	<ele>909.80</ele>
	<time>2023-07-15T12:58:03.000Z</time>
</trkpt>
<trkpt lat="46.0522530" lon="9.4461850">
	<ele>909.80</ele>
	<time>2023-07-15T12:58:05.000Z</time>
</trkpt>
<trkpt lat="46.0522090" lon="9.4461310">
	<ele>909.60</ele>
	<time>2023-07-15T12:58:08.000Z</time>
</trkpt>
<trkpt lat="46.0521920" lon="9.4460950">
	<ele>909.40</ele>
	<time>2023-07-15T12:58:10.000Z</time>
</trkpt>
<trkpt lat="46.0522110" lon="9.4460770">
	<ele>909.00</ele>
	<time>2023-07-15T12:58:12.000Z</time>
</trkpt>
<trkpt lat="46.0522330" lon="9.4460750">
	<ele>908.80</ele>
	<time>2023-07-15T12:58:13.000Z</time>
</trkpt>
<trkpt lat="46.0522370" lon="9.4460790">
	<ele>908.60</ele>
	<time>2023-07-15T12:58:15.000Z</time>
</trkpt>
<trkpt lat="46.0522160" lon="9.4460570">
	<ele>908.60</ele>
	<time>2023-07-15T12:58:16.000Z</time>
</trkpt>
<trkpt lat="46.0522230" lon="9.4460710">
	<ele>908.60</ele>
	<time>2023-07-15T12:58:20.000Z</time>
</trkpt>
<trkpt lat="46.0522130" lon="9.4460220">
	<ele>908.60</ele>
	<time>2023-07-15T12:58:23.000Z</time>
</trkpt>
<trkpt lat="46.0521980" lon="9.4460050">
	<ele>908.40</ele>
	<time>2023-07-15T12:58:24.000Z</time>
</trkpt>
<trkpt lat="46.0521800" lon="9.4459840">
	<ele>908.40</ele>
	<time>2023-07-15T12:58:26.000Z</time>
</trkpt>
<trkpt lat="46.0521970" lon="9.4459610">
	<ele>908.20</ele>
	<time>2023-07-15T12:58:29.000Z</time>
</trkpt>
<trkpt lat="46.0522310" lon="9.4459260">
	<ele>907.80</ele>
	<time>2023-07-15T12:58:32.000Z</time>
</trkpt>
<trkpt lat="46.0522420" lon="9.4459150">
	<ele>907.80</ele>
	<time>2023-07-15T12:58:33.000Z</time>
</trkpt>
<trkpt lat="46.0522600" lon="9.4459100">
	<ele>907.80</ele>
	<time>2023-07-15T12:58:34.000Z</time>
</trkpt>
<trkpt lat="46.0522620" lon="9.4458950">
	<ele>907.60</ele>
	<time>2023-07-15T12:58:35.000Z</time>
</trkpt>
<trkpt lat="46.0522410" lon="9.4458520">
	<ele>907.60</ele>
	<time>2023-07-15T12:58:37.000Z</time>
</trkpt>
<trkpt lat="46.0522370" lon="9.4458330">
	<ele>907.40</ele>
	<time>2023-07-15T12:58:38.000Z</time>
</trkpt>
<trkpt lat="46.0522660" lon="9.4458060">
	<ele>907.20</ele>
	<time>2023-07-15T12:58:40.000Z</time>
</trkpt>
<trkpt lat="46.0522540" lon="9.4457830">
	<ele>907.00</ele>
	<time>2023-07-15T12:58:41.000Z</time>
</trkpt>
<trkpt lat="46.0522230" lon="9.4457310">
	<ele>907.00</ele>
	<time>2023-07-15T12:58:43.000Z</time>
</trkpt>
<trkpt lat="46.0522100" lon="9.4457090">
	<ele>907.00</ele>
	<time>2023-07-15T12:58:44.000Z</time>
</trkpt>
<trkpt lat="46.0522220" lon="9.4456780">
	<ele>906.80</ele>
	<time>2023-07-15T12:58:46.000Z</time>
</trkpt>
<trkpt lat="46.0521990" lon="9.4456520">
	<ele>906.80</ele>
	<time>2023-07-15T12:58:47.000Z</time>
</trkpt>
<trkpt lat="46.0521690" lon="9.4456020">
	<ele>906.60</ele>
	<time>2023-07-15T12:58:49.000Z</time>
</trkpt>
<trkpt lat="46.0521620" lon="9.4455660">
	<ele>906.20</ele>
	<time>2023-07-15T12:58:51.000Z</time>
</trkpt>
<trkpt lat="46.0521680" lon="9.4455490">
	<ele>906.20</ele>
	<time>2023-07-15T12:58:52.000Z</time>
</trkpt>
<trkpt lat="46.0521770" lon="9.4455410">
	<ele>906.00</ele>
	<time>2023-07-15T12:58:53.000Z</time>
</trkpt>
<trkpt lat="46.0522120" lon="9.4455200">
	<ele>905.80</ele>
	<time>2023-07-15T12:58:55.000Z</time>
</trkpt>
<trkpt lat="46.0522350" lon="9.4454890">
	<ele>905.60</ele>
	<time>2023-07-15T12:58:57.000Z</time>
</trkpt>
<trkpt lat="46.0522720" lon="9.4454490">
	<ele>905.00</ele>
	<time>2023-07-15T12:59:00.000Z</time>
</trkpt>
<trkpt lat="46.0522520" lon="9.4453720">
	<ele>904.60</ele>
	<time>2023-07-15T12:59:03.000Z</time>
</trkpt>
<trkpt lat="46.0522510" lon="9.4453580">
	<ele>904.40</ele>
	<time>2023-07-15T12:59:04.000Z</time>
</trkpt>
<trkpt lat="46.0522320" lon="9.4453180">
	<ele>904.00</ele>
	<time>2023-07-15T12:59:06.000Z</time>
</trkpt>
<trkpt lat="46.0522130" lon="9.4453000">
	<ele>904.00</ele>
	<time>2023-07-15T12:59:07.000Z</time>
</trkpt>
<trkpt lat="46.0521830" lon="9.4452530">
	<ele>903.80</ele>
	<time>2023-07-15T12:59:09.000Z</time>
</trkpt>
<trkpt lat="46.0521190" lon="9.4451750">
	<ele>903.60</ele>
	<time>2023-07-15T12:59:12.000Z</time>
</trkpt>
<trkpt lat="46.0521100" lon="9.4451710">
	<ele>903.40</ele>
	<time>2023-07-15T12:59:13.000Z</time>
</trkpt>
<trkpt lat="46.0521120" lon="9.4451580">
	<ele>903.00</ele>
	<time>2023-07-15T12:59:14.000Z</time>
</trkpt>
<trkpt lat="46.0521090" lon="9.4451350">
	<ele>903.00</ele>
	<time>2023-07-15T12:59:15.000Z</time>
</trkpt>
<trkpt lat="46.0521160" lon="9.4451120">
	<ele>902.80</ele>
	<time>2023-07-15T12:59:16.000Z</time>
</trkpt>
<trkpt lat="46.0521340" lon="9.4450700">
	<ele>902.40</ele>
	<time>2023-07-15T12:59:18.000Z</time>
</trkpt>
<trkpt lat="46.0521390" lon="9.4450480">
	<ele>902.20</ele>
	<time>2023-07-15T12:59:19.000Z</time>
</trkpt>
<trkpt lat="46.0521230" lon="9.4450290">
	<ele>902.00</ele>
	<time>2023-07-15T12:59:20.000Z</time>
</trkpt>
<trkpt lat="46.0520950" lon="9.4450150">
	<ele>901.80</ele>
	<time>2023-07-15T12:59:21.000Z</time>
</trkpt>
<trkpt lat="46.0521470" lon="9.4450170">
	<ele>901.60</ele>
	<time>2023-07-15T12:59:22.000Z</time>
</trkpt>
<trkpt lat="46.0521540" lon="9.4450030">
	<ele>901.60</ele>
	<time>2023-07-15T12:59:23.000Z</time>
</trkpt>
<trkpt lat="46.0521720" lon="9.4449920">
	<ele>901.40</ele>
	<time>2023-07-15T12:59:24.000Z</time>
</trkpt>
<trkpt lat="46.0521850" lon="9.4449640">
	<ele>901.20</ele>
	<time>2023-07-15T12:59:26.000Z</time>
</trkpt>
<trkpt lat="46.0521990" lon="9.4449540">
	<ele>901.00</ele>
	<time>2023-07-15T12:59:27.000Z</time>
</trkpt>
<trkpt lat="46.0521890" lon="9.4449320">
	<ele>901.00</ele>
	<time>2023-07-15T12:59:28.000Z</time>
</trkpt>
<trkpt lat="46.0521660" lon="9.4448900">
	<ele>900.60</ele>
	<time>2023-07-15T12:59:30.000Z</time>
</trkpt>
<trkpt lat="46.0521850" lon="9.4448790">
	<ele>900.40</ele>
	<time>2023-07-15T12:59:31.000Z</time>
</trkpt>
<trkpt lat="46.0522140" lon="9.4448170">
	<ele>900.20</ele>
	<time>2023-07-15T12:59:34.000Z</time>
</trkpt>
<trkpt lat="46.0522810" lon="9.4447980">
	<ele>899.80</ele>
	<time>2023-07-15T12:59:36.000Z</time>
</trkpt>
<trkpt lat="46.0522900" lon="9.4447670">
	<ele>899.40</ele>
	<time>2023-07-15T12:59:38.000Z</time>
</trkpt>
<trkpt lat="46.0522910" lon="9.4447320">
	<ele>899.20</ele>
	<time>2023-07-15T12:59:40.000Z</time>
</trkpt>
<trkpt lat="46.0522980" lon="9.4446970">
	<ele>899.00</ele>
	<time>2023-07-15T12:59:42.000Z</time>
</trkpt>
<trkpt lat="46.0522930" lon="9.4446780">
	<ele>899.00</ele>
	<time>2023-07-15T12:59:43.000Z</time>
</trkpt>
<trkpt lat="46.0522840" lon="9.4446580">
	<ele>898.80</ele>
	<time>2023-07-15T12:59:44.000Z</time>
</trkpt>
<trkpt lat="46.0522860" lon="9.4446410">
	<ele>898.60</ele>
	<time>2023-07-15T12:59:45.000Z</time>
</trkpt>
<trkpt lat="46.0523010" lon="9.4446290">
	<ele>898.60</ele>
	<time>2023-07-15T12:59:46.000Z</time>
</trkpt>
<trkpt lat="46.0522920" lon="9.4446090">
	<ele>898.40</ele>
	<time>2023-07-15T12:59:47.000Z</time>
</trkpt>
<trkpt lat="46.0522640" lon="9.4445610">
	<ele>898.40</ele>
	<time>2023-07-15T12:59:49.000Z</time>
</trkpt>
<trkpt lat="46.0522260" lon="9.4444980">
	<ele>898.20</ele>
	<time>2023-07-15T12:59:52.000Z</time>
</trkpt>
<trkpt lat="46.0522110" lon="9.4444740">
	<ele>898.20</ele>
	<time>2023-07-15T12:59:53.000Z</time>
</trkpt>
<trkpt lat="46.0521890" lon="9.4444320">
	<ele>897.80</ele>
	<time>2023-07-15T12:59:55.000Z</time>
</trkpt>
<trkpt lat="46.0521530" lon="9.4443040">
	<ele>897.00</ele>
	<time>2023-07-15T13:00:01.000Z</time>
</trkpt>
<trkpt lat="46.0521560" lon="9.4442690">
	<ele>897.00</ele>
	<time>2023-07-15T13:00:03.000Z</time>
</trkpt>
<trkpt lat="46.0521450" lon="9.4442230">
	<ele>896.80</ele>
	<time>2023-07-15T13:00:05.000Z</time>
</trkpt>
<trkpt lat="46.0521400" lon="9.4441910">
	<ele>896.60</ele>
	<time>2023-07-15T13:00:07.000Z</time>
</trkpt>
<trkpt lat="46.0521700" lon="9.4441100">
	<ele>895.80</ele>
	<time>2023-07-15T13:00:11.000Z</time>
</trkpt>
<trkpt lat="46.0521770" lon="9.4440850">
	<ele>895.60</ele>
	<time>2023-07-15T13:00:12.000Z</time>
</trkpt>
<trkpt lat="46.0521780" lon="9.4440750">
	<ele>895.60</ele>
	<time>2023-07-15T13:00:13.000Z</time>
</trkpt>
<trkpt lat="46.0521970" lon="9.4440500">
	<ele>895.20</ele>
	<time>2023-07-15T13:00:15.000Z</time>
</trkpt>
<trkpt lat="46.0521770" lon="9.4440550">
	<ele>895.00</ele>
	<time>2023-07-15T13:00:17.000Z</time>
</trkpt>
<trkpt lat="46.0521480" lon="9.4440160">
	<ele>895.00</ele>
	<time>2023-07-15T13:00:20.000Z</time>
</trkpt>
<trkpt lat="46.0521600" lon="9.4440110">
	<ele>894.80</ele>
	<time>2023-07-15T13:00:21.000Z</time>
</trkpt>
<trkpt lat="46.0521520" lon="9.4439980">
	<ele>894.80</ele>
	<time>2023-07-15T13:00:22.000Z</time>
</trkpt>
<trkpt lat="46.0521350" lon="9.4439840">
	<ele>894.80</ele>
	<time>2023-07-15T13:00:23.000Z</time>
</trkpt>
<trkpt lat="46.0521770" lon="9.4439740">
	<ele>894.80</ele>
	<time>2023-07-15T13:00:24.000Z</time>
</trkpt>
<trkpt lat="46.0522130" lon="9.4439680">
	<ele>894.60</ele>
	<time>2023-07-15T13:00:25.000Z</time>
</trkpt>
<trkpt lat="46.0522190" lon="9.4439520">
	<ele>894.60</ele>
	<time>2023-07-15T13:00:26.000Z</time>
</trkpt>
<trkpt lat="46.0522120" lon="9.4439330">
	<ele>894.60</ele>
	<time>2023-07-15T13:00:27.000Z</time>
</trkpt>
<trkpt lat="46.0522370" lon="9.4439270">
	<ele>894.60</ele>
	<time>2023-07-15T13:00:28.000Z</time>
</trkpt>
<trkpt lat="46.0522660" lon="9.4439020">
	<ele>894.20</ele>
	<time>2023-07-15T13:00:31.000Z</time>
</trkpt>
<trkpt lat="46.0522640" lon="9.4438830">
	<ele>894.20</ele>
	<time>2023-07-15T13:00:32.000Z</time>
</trkpt>
<trkpt lat="46.0522820" lon="9.4438700">
	<ele>894.20</ele>
	<time>2023-07-15T13:00:33.000Z</time>
</trkpt>
<trkpt lat="46.0522990" lon="9.4438410">
	<ele>894.20</ele>
	<time>2023-07-15T13:00:35.000Z</time>
</trkpt>
<trkpt lat="46.0523090" lon="9.4437800">
	<ele>893.80</ele>
	<time>2023-07-15T13:00:38.000Z</time>
</trkpt>
<trkpt lat="46.0523460" lon="9.4437460">
	<ele>893.60</ele>
	<time>2023-07-15T13:00:40.000Z</time>
</trkpt>
<trkpt lat="46.0523940" lon="9.4437440">
	<ele>893.40</ele>
	<time>2023-07-15T13:00:41.000Z</time>
</trkpt>
<trkpt lat="46.0524290" lon="9.4437200">
	<ele>893.20</ele>
	<time>2023-07-15T13:00:43.000Z</time>
</trkpt>
<trkpt lat="46.0523930" lon="9.4436490">
	<ele>892.80</ele>
	<time>2023-07-15T13:00:47.000Z</time>
</trkpt>
<trkpt lat="46.0523820" lon="9.4436400">
	<ele>892.60</ele>
	<time>2023-07-15T13:00:48.000Z</time>
</trkpt>
<trkpt lat="46.0523760" lon="9.4436070">
	<ele>892.40</ele>
	<time>2023-07-15T13:00:50.000Z</time>
</trkpt>
<trkpt lat="46.0523660" lon="9.4435910">
	<ele>892.20</ele>
	<time>2023-07-15T13:00:51.000Z</time>
</trkpt>
<trkpt lat="46.0523900" lon="9.4435850">
	<ele>892.00</ele>
	<time>2023-07-15T13:00:53.000Z</time>
</trkpt>
<trkpt lat="46.0523230" lon="9.4435410">
	<ele>891.60</ele>
	<time>2023-07-15T13:00:56.000Z</time>
</trkpt>
<trkpt lat="46.0523200" lon="9.4435230">
	<ele>891.40</ele>
	<time>2023-07-15T13:00:58.000Z</time>
</trkpt>
<trkpt lat="46.0523080" lon="9.4435020">
	<ele>891.20</ele>
	<time>2023-07-15T13:01:00.000Z</time>
</trkpt>
<trkpt lat="46.0522660" lon="9.4434710">
	<ele>891.00</ele>
	<time>2023-07-15T13:01:03.000Z</time>
</trkpt>
<trkpt lat="46.0522600" lon="9.4434560">
	<ele>890.80</ele>
	<time>2023-07-15T13:01:06.000Z</time>
</trkpt>
<trkpt lat="46.0522600" lon="9.4434540">
	<ele>891.00</ele>
	<time>2023-07-15T13:01:08.000Z</time>
</trkpt>
<trkpt lat="46.0522370" lon="9.4434360">
	<ele>891.20</ele>
	<time>2023-07-15T13:01:14.000Z</time>
</trkpt>
<trkpt lat="46.0522190" lon="9.4433970">
	<ele>891.20</ele>
	<time>2023-07-15T13:01:16.000Z</time>
</trkpt>
<trkpt lat="46.0522150" lon="9.4433790">
	<ele>891.20</ele>
	<time>2023-07-15T13:01:17.000Z</time>
</trkpt>
<trkpt lat="46.0521920" lon="9.4433180">
	<ele>890.80</ele>
	<time>2023-07-15T13:01:20.000Z</time>
</trkpt>
<trkpt lat="46.0521900" lon="9.4432500">
	<ele>890.20</ele>
	<time>2023-07-15T13:01:23.000Z</time>
</trkpt>
<trkpt lat="46.0521840" lon="9.4432280">
	<ele>890.00</ele>
	<time>2023-07-15T13:01:24.000Z</time>
</trkpt>
<trkpt lat="46.0521560" lon="9.4431000">
	<ele>889.20</ele>
	<time>2023-07-15T13:01:30.000Z</time>
</trkpt>
<trkpt lat="46.0521400" lon="9.4430570">
	<ele>888.60</ele>
	<time>2023-07-15T13:01:32.000Z</time>
</trkpt>
<trkpt lat="46.0521190" lon="9.4430230">
	<ele>888.20</ele>
	<time>2023-07-15T13:01:34.000Z</time>
</trkpt>
<trkpt lat="46.0521350" lon="9.4430240">
	<ele>888.00</ele>
	<time>2023-07-15T13:01:35.000Z</time>
</trkpt>
<trkpt lat="46.0521240" lon="9.4429850">
	<ele>887.60</ele>
	<time>2023-07-15T13:01:38.000Z</time>
</trkpt>
<trkpt lat="46.0521170" lon="9.4429600">
	<ele>887.40</ele>
	<time>2023-07-15T13:01:39.000Z</time>
</trkpt>
<trkpt lat="46.0520830" lon="9.4429260">
	<ele>887.40</ele>
	<time>2023-07-15T13:01:42.000Z</time>
</trkpt>
<trkpt lat="46.0520520" lon="9.4428810">
	<ele>887.60</ele>
	<time>2023-07-15T13:01:45.000Z</time>
</trkpt>
<trkpt lat="46.0519840" lon="9.4428440">
	<ele>887.60</ele>
	<time>2023-07-15T13:01:48.000Z</time>
</trkpt>
<trkpt lat="46.0518950" lon="9.4428110">
	<ele>887.80</ele>
	<time>2023-07-15T13:01:51.000Z</time>
</trkpt>
<trkpt lat="46.0519180" lon="9.4427990">
	<ele>888.00</ele>
	<time>2023-07-15T13:01:54.000Z</time>
</trkpt>
<trkpt lat="46.0519110" lon="9.4427860">
	<ele>888.20</ele>
	<time>2023-07-15T13:01:56.000Z</time>
</trkpt>
<trkpt lat="46.0518780" lon="9.4427730">
	<ele>888.20</ele>
	<time>2023-07-15T13:01:57.000Z</time>
</trkpt>
<trkpt lat="46.0518500" lon="9.4427360">
	<ele>888.60</ele>
	<time>2023-07-15T13:02:01.000Z</time>
</trkpt>
<trkpt lat="46.0518530" lon="9.4427470">
	<ele>888.80</ele>
	<time>2023-07-15T13:02:02.000Z</time>
</trkpt>
<trkpt lat="46.0518560" lon="9.4427560">
	<ele>889.00</ele>
	<time>2023-07-15T13:02:03.000Z</time>
</trkpt>
<trkpt lat="46.0518400" lon="9.4427500">
	<ele>889.20</ele>
	<time>2023-07-15T13:02:05.000Z</time>
</trkpt>
<trkpt lat="46.0518270" lon="9.4427170">
	<ele>889.40</ele>
	<time>2023-07-15T13:02:07.000Z</time>
</trkpt>
<trkpt lat="46.0518300" lon="9.4426960">
	<ele>889.60</ele>
	<time>2023-07-15T13:02:10.000Z</time>
</trkpt>
<trkpt lat="46.0518370" lon="9.4426890">
	<ele>889.60</ele>
	<time>2023-07-15T13:02:11.000Z</time>
</trkpt>
<trkpt lat="46.0518410" lon="9.4426960">
	<ele>889.80</ele>
	<time>2023-07-15T13:02:12.000Z</time>
</trkpt>
<trkpt lat="46.0517990" lon="9.4426930">
	<ele>890.00</ele>
	<time>2023-07-15T13:02:14.000Z</time>
</trkpt>
<trkpt lat="46.0517550" lon="9.4426660">
	<ele>890.60</ele>
	<time>2023-07-15T13:02:18.000Z</time>
</trkpt>
<trkpt lat="46.0517100" lon="9.4426350">
	<ele>890.60</ele>
	<time>2023-07-15T13:02:19.000Z</time>
</trkpt>
<trkpt lat="46.0516510" lon="9.4426230">
	<ele>891.00</ele>
	<time>2023-07-15T13:02:21.000Z</time>
</trkpt>
<trkpt lat="46.0516220" lon="9.4426160">
	<ele>891.00</ele>
	<time>2023-07-15T13:02:22.000Z</time>
</trkpt>
<trkpt lat="46.0515630" lon="9.4426090">
	<ele>891.20</ele>
	<time>2023-07-15T13:02:24.000Z</time>
</trkpt>
<trkpt lat="46.0514560" lon="9.4426000">
	<ele>891.60</ele>
	<time>2023-07-15T13:02:29.000Z</time>
</trkpt>
<trkpt lat="46.0514410" lon="9.4426030">
	<ele>891.80</ele>
	<time>2023-07-15T13:02:30.000Z</time>
</trkpt>
<trkpt lat="46.0513800" lon="9.4426130">
	<ele>892.20</ele>
	<time>2023-07-15T13:02:33.000Z</time>
</trkpt>
<trkpt lat="46.0513690" lon="9.4426080">
	<ele>892.60</ele>
	<time>2023-07-15T13:02:35.000Z</time>
</trkpt>
<trkpt lat="46.0513740" lon="9.4425990">
	<ele>893.00</ele>
	<time>2023-07-15T13:02:37.000Z</time>
</trkpt>
<trkpt lat="46.0513730" lon="9.4425830">
	<ele>893.00</ele>
	<time>2023-07-15T13:02:38.000Z</time>
</trkpt>
<trkpt lat="46.0513650" lon="9.4425680">
	<ele>893.00</ele>
	<time>2023-07-15T13:02:39.000Z</time>
</trkpt>
<trkpt lat="46.0512900" lon="9.4425000">
	<ele>892.80</ele>
	<time>2023-07-15T13:02:43.000Z</time>
</trkpt>
<trkpt lat="46.0512490" lon="9.4424410">
	<ele>892.60</ele>
	<time>2023-07-15T13:02:47.000Z</time>
</trkpt>
<trkpt lat="46.0512220" lon="9.4423970">
	<ele>892.40</ele>
	<time>2023-07-15T13:02:51.000Z</time>
</trkpt>
<trkpt lat="46.0512600" lon="9.4423740">
	<ele>892.60</ele>
	<time>2023-07-15T13:02:53.000Z</time>
</trkpt>
<trkpt lat="46.0512170" lon="9.4423320">
	<ele>893.00</ele>
	<time>2023-07-15T13:02:56.000Z</time>
</trkpt>
<trkpt lat="46.0512310" lon="9.4423210">
	<ele>893.00</ele>
	<time>2023-07-15T13:02:57.000Z</time>
</trkpt>
<trkpt lat="46.0512410" lon="9.4422980">
	<ele>893.00</ele>
	<time>2023-07-15T13:02:59.000Z</time>
</trkpt>
<trkpt lat="46.0512550" lon="9.4422810">
	<ele>893.00</ele>
	<time>2023-07-15T13:03:00.000Z</time>
</trkpt>
<trkpt lat="46.0512570" lon="9.4422650">
	<ele>893.00</ele>
	<time>2023-07-15T13:03:01.000Z</time>
</trkpt>
<trkpt lat="46.0512650" lon="9.4422600">
	<ele>893.00</ele>
	<time>2023-07-15T13:03:03.000Z</time>
</trkpt>
<trkpt lat="46.0512450" lon="9.4422330">
	<ele>893.00</ele>
	<time>2023-07-15T13:03:05.000Z</time>
</trkpt>
<trkpt lat="46.0512430" lon="9.4421950">
	<ele>893.20</ele>
	<time>2023-07-15T13:03:07.000Z</time>
</trkpt>
<trkpt lat="46.0512370" lon="9.4421790">
	<ele>893.20</ele>
	<time>2023-07-15T13:03:08.000Z</time>
</trkpt>
<trkpt lat="46.0512340" lon="9.4421410">
	<ele>893.20</ele>
	<time>2023-07-15T13:03:11.000Z</time>
</trkpt>
<trkpt lat="46.0512610" lon="9.4420970">
	<ele>893.60</ele>
	<time>2023-07-15T13:03:14.000Z</time>
</trkpt>
<trkpt lat="46.0512830" lon="9.4420600">
	<ele>893.80</ele>
	<time>2023-07-15T13:03:16.000Z</time>
</trkpt>
<trkpt lat="46.0513140" lon="9.4420280">
	<ele>894.20</ele>
	<time>2023-07-15T13:03:18.000Z</time>
</trkpt>
<trkpt lat="46.0513230" lon="9.4420090">
	<ele>894.40</ele>
	<time>2023-07-15T13:03:19.000Z</time>
</trkpt>
<trkpt lat="46.0513210" lon="9.4419880">
	<ele>894.60</ele>
	<time>2023-07-15T13:03:20.000Z</time>
</trkpt>
<trkpt lat="46.0513510" lon="9.4419410">
	<ele>895.20</ele>
	<time>2023-07-15T13:03:24.000Z</time>
</trkpt>
<trkpt lat="46.0513870" lon="9.4419270">
	<ele>895.80</ele>
	<time>2023-07-15T13:03:26.000Z</time>
</trkpt>
<trkpt lat="46.0514070" lon="9.4418920">
	<ele>896.20</ele>
	<time>2023-07-15T13:03:28.000Z</time>
</trkpt>
<trkpt lat="46.0514220" lon="9.4418600">
	<ele>896.40</ele>
	<time>2023-07-15T13:03:30.000Z</time>
</trkpt>
<trkpt lat="46.0514350" lon="9.4418500">
	<ele>896.40</ele>
	<time>2023-07-15T13:03:31.000Z</time>
</trkpt>
<trkpt lat="46.0514780" lon="9.4418410">
	<ele>896.60</ele>
	<time>2023-07-15T13:03:33.000Z</time>
</trkpt>
<trkpt lat="46.0515030" lon="9.4418350">
	<ele>896.80</ele>
	<time>2023-07-15T13:03:34.000Z</time>
</trkpt>
<trkpt lat="46.0516260" lon="9.4418070">
	<ele>897.20</ele>
	<time>2023-07-15T13:03:39.000Z</time>
</trkpt>
<trkpt lat="46.0516980" lon="9.4418270">
	<ele>897.60</ele>
	<time>2023-07-15T13:03:41.000Z</time>
</trkpt>
<trkpt lat="46.0517870" lon="9.4418280">
	<ele>897.80</ele>
	<time>2023-07-15T13:03:44.000Z</time>
</trkpt>
<trkpt lat="46.0518500" lon="9.4417980">
	<ele>898.00</ele>
	<time>2023-07-15T13:03:47.000Z</time>
</trkpt>
<trkpt lat="46.0518750" lon="9.4417650">
	<ele>898.20</ele>
	<time>2023-07-15T13:03:49.000Z</time>
</trkpt>
<trkpt lat="46.0518970" lon="9.4417280">
	<ele>898.60</ele>
	<time>2023-07-15T13:03:51.000Z</time>
</trkpt>
<trkpt lat="46.0519890" lon="9.4416570">
	<ele>899.40</ele>
	<time>2023-07-15T13:03:57.000Z</time>
</trkpt>
<trkpt lat="46.0519970" lon="9.4416110">
	<ele>899.60</ele>
	<time>2023-07-15T13:03:59.000Z</time>
</trkpt>
<trkpt lat="46.0520130" lon="9.4415990">
	<ele>899.60</ele>
	<time>2023-07-15T13:04:00.000Z</time>
</trkpt>
<trkpt lat="46.0520580" lon="9.4415840">
	<ele>899.80</ele>
	<time>2023-07-15T13:04:03.000Z</time>
</trkpt>
<trkpt lat="46.0520640" lon="9.4415790">
	<ele>899.80</ele>
	<time>2023-07-15T13:04:04.000Z</time>
</trkpt>
<trkpt lat="46.0520930" lon="9.4415650">
	<ele>899.40</ele>
	<time>2023-07-15T13:04:08.000Z</time>
</trkpt>
<trkpt lat="46.0520920" lon="9.4415390">
	<ele>899.20</ele>
	<time>2023-07-15T13:04:10.000Z</time>
</trkpt>
<trkpt lat="46.0521870" lon="9.4414880">
	<ele>898.80</ele>
	<time>2023-07-15T13:04:16.000Z</time>
</trkpt>
<trkpt lat="46.0522090" lon="9.4414550">
	<ele>898.60</ele>
	<time>2023-07-15T13:04:18.000Z</time>
</trkpt>
<trkpt lat="46.0522080" lon="9.4414000">
	<ele>898.40</ele>
	<time>2023-07-15T13:04:21.000Z</time>
</trkpt>
<trkpt lat="46.0522050" lon="9.4413720">
	<ele>898.40</ele>
	<time>2023-07-15T13:04:22.000Z</time>
</trkpt>
<trkpt lat="46.0522140" lon="9.4413280">
	<ele>898.20</ele>
	<time>2023-07-15T13:04:24.000Z</time>
</trkpt>
<trkpt lat="46.0522150" lon="9.4412990">
	<ele>898.00</ele>
	<time>2023-07-15T13:04:25.000Z</time>
</trkpt>
<trkpt lat="46.0522280" lon="9.4412750">
	<ele>898.00</ele>
	<time>2023-07-15T13:04:26.000Z</time>
</trkpt>
<trkpt lat="46.0522610" lon="9.4412140">
	<ele>897.80</ele>
	<time>2023-07-15T13:04:29.000Z</time>
</trkpt>
<trkpt lat="46.0522810" lon="9.4411880">
	<ele>897.80</ele>
	<time>2023-07-15T13:04:31.000Z</time>
</trkpt>
<trkpt lat="46.0522940" lon="9.4411770">
	<ele>898.00</ele>
	<time>2023-07-15T13:04:32.000Z</time>
</trkpt>
<trkpt lat="46.0523350" lon="9.4411470">
	<ele>898.40</ele>
	<time>2023-07-15T13:04:35.000Z</time>
</trkpt>
<trkpt lat="46.0523390" lon="9.4411110">
	<ele>898.40</ele>
	<time>2023-07-15T13:04:38.000Z</time>
</trkpt>
<trkpt lat="46.0523580" lon="9.4411010">
	<ele>898.40</ele>
	<time>2023-07-15T13:04:39.000Z</time>
</trkpt>
<trkpt lat="46.0524080" lon="9.4410830">
	<ele>898.40</ele>
	<time>2023-07-15T13:04:42.000Z</time>
</trkpt>
<trkpt lat="46.0524430" lon="9.4410900">
	<ele>898.40</ele>
	<time>2023-07-15T13:04:43.000Z</time>
</trkpt>
<trkpt lat="46.0524790" lon="9.4410700">
	<ele>898.40</ele>
	<time>2023-07-15T13:04:48.000Z</time>
</trkpt>
<trkpt lat="46.0524500" lon="9.4410130">
	<ele>898.40</ele>
	<time>2023-07-15T13:04:51.000Z</time>
</trkpt>
<trkpt lat="46.0524610" lon="9.4409950">
	<ele>898.40</ele>
	<time>2023-07-15T13:04:54.000Z</time>
</trkpt>
<trkpt lat="46.0524970" lon="9.4409870">
	<ele>898.40</ele>
	<time>2023-07-15T13:04:56.000Z</time>
</trkpt>
<trkpt lat="46.0524830" lon="9.4409590">
	<ele>898.60</ele>
	<time>2023-07-15T13:04:58.000Z</time>
</trkpt>
<trkpt lat="46.0524680" lon="9.4409410">
	<ele>898.60</ele>
	<time>2023-07-15T13:04:59.000Z</time>
</trkpt>
<trkpt lat="46.0524650" lon="9.4409360">
	<ele>898.60</ele>
	<time>2023-07-15T13:05:01.000Z</time>
</trkpt>
<trkpt lat="46.0524540" lon="9.4409130">
	<ele>898.80</ele>
	<time>2023-07-15T13:05:03.000Z</time>
</trkpt>
<trkpt lat="46.0524430" lon="9.4409020">
	<ele>898.80</ele>
	<time>2023-07-15T13:05:04.000Z</time>
</trkpt>
<trkpt lat="46.0524480" lon="9.4408990">
	<ele>899.00</ele>
	<time>2023-07-15T13:05:06.000Z</time>
</trkpt>
<trkpt lat="46.0524700" lon="9.4409030">
	<ele>899.00</ele>
	<time>2023-07-15T13:05:07.000Z</time>
</trkpt>
<trkpt lat="46.0524640" lon="9.4408900">
	<ele>899.00</ele>
	<time>2023-07-15T13:05:08.000Z</time>
</trkpt>
<trkpt lat="46.0524500" lon="9.4408740">
	<ele>899.00</ele>
	<time>2023-07-15T13:05:09.000Z</time>
</trkpt>
<trkpt lat="46.0523440" lon="9.4408090">
	<ele>898.80</ele>
	<time>2023-07-15T13:05:13.000Z</time>
</trkpt>
<trkpt lat="46.0523220" lon="9.4407850">
	<ele>898.40</ele>
	<time>2023-07-15T13:05:16.000Z</time>
</trkpt>
<trkpt lat="46.0522950" lon="9.4407680">
	<ele>898.00</ele>
	<time>2023-07-15T13:05:19.000Z</time>
</trkpt>
<trkpt lat="46.0522820" lon="9.4407580">
	<ele>897.80</ele>
	<time>2023-07-15T13:05:20.000Z</time>
</trkpt>
<trkpt lat="46.0522830" lon="9.4407560">
	<ele>897.60</ele>
	<time>2023-07-15T13:05:21.000Z</time>
</trkpt>
<trkpt lat="46.0522480" lon="9.4407300">
	<ele>897.20</ele>
	<time>2023-07-15T13:05:23.000Z</time>
</trkpt>
<trkpt lat="46.0522470" lon="9.4407180">
	<ele>896.60</ele>
	<time>2023-07-15T13:05:25.000Z</time>
</trkpt>
<trkpt lat="46.0522410" lon="9.4407020">
	<ele>896.40</ele>
	<time>2023-07-15T13:05:26.000Z</time>
</trkpt>
<trkpt lat="46.0522160" lon="9.4406590">
	<ele>896.20</ele>
	<time>2023-07-15T13:05:28.000Z</time>
</trkpt>
<trkpt lat="46.0521840" lon="9.4406040">
	<ele>896.00</ele>
	<time>2023-07-15T13:05:31.000Z</time>
</trkpt>
<trkpt lat="46.0521560" lon="9.4405530">
	<ele>895.40</ele>
	<time>2023-07-15T13:05:34.000Z</time>
</trkpt>
<trkpt lat="46.0521100" lon="9.4404480">
	<ele>894.80</ele>
	<time>2023-07-15T13:05:40.000Z</time>
</trkpt>
<trkpt lat="46.0520930" lon="9.4404110">
	<ele>894.40</ele>
	<time>2023-07-15T13:05:42.000Z</time>
</trkpt>
<trkpt lat="46.0520790" lon="9.4403370">
	<ele>893.60</ele>
	<time>2023-07-15T13:05:46.000Z</time>
</trkpt>
<trkpt lat="46.0520780" lon="9.4403260">
	<ele>893.40</ele>
	<time>2023-07-15T13:05:48.000Z</time>
</trkpt>
<trkpt lat="46.0520760" lon="9.4402830">
	<ele>893.00</ele>
	<time>2023-07-15T13:05:50.000Z</time>
</trkpt>
<trkpt lat="46.0520790" lon="9.4402110">
	<ele>892.80</ele>
	<time>2023-07-15T13:05:53.000Z</time>
</trkpt>
<trkpt lat="46.0520680" lon="9.4401540">
	<ele>892.80</ele>
	<time>2023-07-15T13:05:55.000Z</time>
</trkpt>
<trkpt lat="46.0520800" lon="9.4401340">
	<ele>892.60</ele>
	<time>2023-07-15T13:05:57.000Z</time>
</trkpt>
<trkpt lat="46.0520910" lon="9.4401320">
	<ele>892.40</ele>
	<time>2023-07-15T13:05:58.000Z</time>
</trkpt>
<trkpt lat="46.0521010" lon="9.4401230">
	<ele>892.40</ele>
	<time>2023-07-15T13:05:59.000Z</time>
</trkpt>
<trkpt lat="46.0521710" lon="9.4400980">
	<ele>891.60</ele>
	<time>2023-07-15T13:06:05.000Z</time>
</trkpt>
<trkpt lat="46.0522110" lon="9.4400800">
	<ele>891.40</ele>
	<time>2023-07-15T13:06:09.000Z</time>
</trkpt>
<trkpt lat="46.0522590" lon="9.4400340">
	<ele>890.40</ele>
	<time>2023-07-15T13:06:14.000Z</time>
</trkpt>
<trkpt lat="46.0522710" lon="9.4400230">
	<ele>890.20</ele>
	<time>2023-07-15T13:06:15.000Z</time>
</trkpt>
<trkpt lat="46.0522900" lon="9.4400200">
	<ele>890.20</ele>
	<time>2023-07-15T13:06:16.000Z</time>
</trkpt>
<trkpt lat="46.0523240" lon="9.4399950">
	<ele>889.40</ele>
	<time>2023-07-15T13:06:19.000Z</time>
</trkpt>
<trkpt lat="46.0523200" lon="9.4399800">
	<ele>889.20</ele>
	<time>2023-07-15T13:06:20.000Z</time>
</trkpt>
<trkpt lat="46.0523220" lon="9.4399330">
	<ele>888.80</ele>
	<time>2023-07-15T13:06:23.000Z</time>
</trkpt>
<trkpt lat="46.0523260" lon="9.4399230">
	<ele>888.80</ele>
	<time>2023-07-15T13:06:24.000Z</time>
</trkpt>
<trkpt lat="46.0523630" lon="9.4398660">
	<ele>888.40</ele>
	<time>2023-07-15T13:06:28.000Z</time>
</trkpt>
<trkpt lat="46.0523710" lon="9.4398530">
	<ele>888.20</ele>
	<time>2023-07-15T13:06:29.000Z</time>
</trkpt>
<trkpt lat="46.0523840" lon="9.4398520">
	<ele>888.00</ele>
	<time>2023-07-15T13:06:30.000Z</time>
</trkpt>
<trkpt lat="46.0524200" lon="9.4398500">
	<ele>887.80</ele>
	<time>2023-07-15T13:06:32.000Z</time>
</trkpt>
<trkpt lat="46.0524330" lon="9.4398340">
	<ele>887.60</ele>
	<time>2023-07-15T13:06:34.000Z</time>
</trkpt>
<trkpt lat="46.0524600" lon="9.4398230">
	<ele>887.40</ele>
	<time>2023-07-15T13:06:37.000Z</time>
</trkpt>
<trkpt lat="46.0524770" lon="9.4398220">
	<ele>887.20</ele>
	<time>2023-07-15T13:06:38.000Z</time>
</trkpt>
<trkpt lat="46.0525050" lon="9.4398180">
	<ele>887.20</ele>
	<time>2023-07-15T13:06:40.000Z</time>
</trkpt>
<trkpt lat="46.0525900" lon="9.4397930">
	<ele>887.40</ele>
	<time>2023-07-15T13:06:47.000Z</time>
</trkpt>
<trkpt lat="46.0526260" lon="9.4397780">
	<ele>887.60</ele>
	<time>2023-07-15T13:06:50.000Z</time>
</trkpt>
<trkpt lat="46.0526490" lon="9.4397530">
	<ele>887.60</ele>
	<time>2023-07-15T13:06:52.000Z</time>
</trkpt>
<trkpt lat="46.0526590" lon="9.4397390">
	<ele>887.60</ele>
	<time>2023-07-15T13:06:53.000Z</time>
</trkpt>
<trkpt lat="46.0526610" lon="9.4397230">
	<ele>887.60</ele>
	<time>2023-07-15T13:06:54.000Z</time>
</trkpt>
<trkpt lat="46.0526570" lon="9.4396860">
	<ele>887.20</ele>
	<time>2023-07-15T13:06:56.000Z</time>
</trkpt>
<trkpt lat="46.0526590" lon="9.4396680">
	<ele>887.00</ele>
	<time>2023-07-15T13:06:57.000Z</time>
</trkpt>
<trkpt lat="46.0526500" lon="9.4396380">
	<ele>886.60</ele>
	<time>2023-07-15T13:06:59.000Z</time>
</trkpt>
<trkpt lat="46.0526880" lon="9.4396380">
	<ele>886.20</ele>
	<time>2023-07-15T13:07:01.000Z</time>
</trkpt>
<trkpt lat="46.0527420" lon="9.4396450">
	<ele>886.00</ele>
	<time>2023-07-15T13:07:03.000Z</time>
</trkpt>
<trkpt lat="46.0527410" lon="9.4396390">
	<ele>886.00</ele>
	<time>2023-07-15T13:07:04.000Z</time>
</trkpt>
<trkpt lat="46.0527390" lon="9.4396270">
	<ele>886.00</ele>
	<time>2023-07-15T13:07:05.000Z</time>
</trkpt>
<trkpt lat="46.0527320" lon="9.4396050">
	<ele>886.00</ele>
	<time>2023-07-15T13:07:08.000Z</time>
</trkpt>
<trkpt lat="46.0527230" lon="9.4395960">
	<ele>886.00</ele>
	<time>2023-07-15T13:07:10.000Z</time>
</trkpt>
<trkpt lat="46.0527190" lon="9.4395890">
	<ele>885.80</ele>
	<time>2023-07-15T13:07:12.000Z</time>
</trkpt>
<trkpt lat="46.0527190" lon="9.4395410">
	<ele>885.00</ele>
	<time>2023-07-15T13:07:18.000Z</time>
</trkpt>
<trkpt lat="46.0527060" lon="9.4395280">
	<ele>884.60</ele>
	<time>2023-07-15T13:07:19.000Z</time>
</trkpt>
<trkpt lat="46.0526920" lon="9.4395160">
	<ele>884.60</ele>
	<time>2023-07-15T13:07:20.000Z</time>
</trkpt>
<trkpt lat="46.0526390" lon="9.4394680">
	<ele>883.80</ele>
	<time>2023-07-15T13:07:24.000Z</time>
</trkpt>
<trkpt lat="46.0525600" lon="9.4393880">
	<ele>882.60</ele>
	<time>2023-07-15T13:07:29.000Z</time>
</trkpt>
<trkpt lat="46.0525320" lon="9.4393410">
	<ele>882.00</ele>
	<time>2023-07-15T13:07:32.000Z</time>
</trkpt>
<trkpt lat="46.0525180" lon="9.4393130">
	<ele>881.40</ele>
	<time>2023-07-15T13:07:34.000Z</time>
</trkpt>
<trkpt lat="46.0524670" lon="9.4392380">
	<ele>880.20</ele>
	<time>2023-07-15T13:07:38.000Z</time>
</trkpt>
<trkpt lat="46.0524420" lon="9.4392040">
	<ele>879.80</ele>
	<time>2023-07-15T13:07:40.000Z</time>
</trkpt>
<trkpt lat="46.0524000" lon="9.4392300">
	<ele>879.40</ele>
	<time>2023-07-15T13:07:43.000Z</time>
</trkpt>
<trkpt lat="46.0524050" lon="9.4392490">
	<ele>879.20</ele>
	<time>2023-07-15T13:07:45.000Z</time>
</trkpt>
<trkpt lat="46.0524180" lon="9.4392790">
	<ele>878.80</ele>
	<time>2023-07-15T13:07:47.000Z</time>
</trkpt>
<trkpt lat="46.0524270" lon="9.4393550">
	<ele>878.00</ele>
	<time>2023-07-15T13:07:51.000Z</time>
</trkpt>
<trkpt lat="46.0524190" lon="9.4394070">
	<ele>877.40</ele>
	<time>2023-07-15T13:07:54.000Z</time>
</trkpt>
<trkpt lat="46.0523900" lon="9.4393820">
	<ele>877.20</ele>
	<time>2023-07-15T13:07:57.000Z</time>
</trkpt>
<trkpt lat="46.0523830" lon="9.4393640">
	<ele>877.00</ele>
	<time>2023-07-15T13:07:58.000Z</time>
</trkpt>
<trkpt lat="46.0523540" lon="9.4393020">
	<ele>876.40</ele>
	<time>2023-07-15T13:08:01.000Z</time>
</trkpt>
<trkpt lat="46.0523410" lon="9.4392610">
	<ele>875.80</ele>
	<time>2023-07-15T13:08:04.000Z</time>
</trkpt>
<trkpt lat="46.0523260" lon="9.4392320">
	<ele>875.40</ele>
	<time>2023-07-15T13:08:06.000Z</time>
</trkpt>
<trkpt lat="46.0522880" lon="9.4391890">
	<ele>874.60</ele>
	<time>2023-07-15T13:08:10.000Z</time>
</trkpt>
<trkpt lat="46.0522410" lon="9.4391600">
	<ele>874.00</ele>
	<time>2023-07-15T13:08:13.000Z</time>
</trkpt>
<trkpt lat="46.0522200" lon="9.4391180">
	<ele>873.60</ele>
	<time>2023-07-15T13:08:15.000Z</time>
</trkpt>
<trkpt lat="46.0521920" lon="9.4390880">
	<ele>873.40</ele>
	<time>2023-07-15T13:08:17.000Z</time>
</trkpt>
<trkpt lat="46.0521810" lon="9.4390660">
	<ele>872.80</ele>
	<time>2023-07-15T13:08:19.000Z</time>
</trkpt>
<trkpt lat="46.0521690" lon="9.4390460">
	<ele>872.60</ele>
	<time>2023-07-15T13:08:20.000Z</time>
</trkpt>
<trkpt lat="46.0521630" lon="9.4390240">
	<ele>872.40</ele>
	<time>2023-07-15T13:08:21.000Z</time>
</trkpt>
<trkpt lat="46.0521680" lon="9.4390110">
	<ele>872.20</ele>
	<time>2023-07-15T13:08:22.000Z</time>
</trkpt>
<trkpt lat="46.0521330" lon="9.4389520">
	<ele>871.60</ele>
	<time>2023-07-15T13:08:25.000Z</time>
</trkpt>
<trkpt lat="46.0521140" lon="9.4389320">
	<ele>871.40</ele>
	<time>2023-07-15T13:08:26.000Z</time>
</trkpt>
<trkpt lat="46.0520660" lon="9.4388410">
	<ele>870.20</ele>
	<time>2023-07-15T13:08:31.000Z</time>
</trkpt>
<trkpt lat="46.0520620" lon="9.4388280">
	<ele>870.00</ele>
	<time>2023-07-15T13:08:32.000Z</time>
</trkpt>
<trkpt lat="46.0520240" lon="9.4387570">
	<ele>869.40</ele>
	<time>2023-07-15T13:08:36.000Z</time>
</trkpt>
<trkpt lat="46.0520420" lon="9.4387580">
	<ele>869.20</ele>
	<time>2023-07-15T13:08:37.000Z</time>
</trkpt>
<trkpt lat="46.0520510" lon="9.4387530">
	<ele>869.00</ele>
	<time>2023-07-15T13:08:38.000Z</time>
</trkpt>
<trkpt lat="46.0520700" lon="9.4387310">
	<ele>868.40</ele>
	<time>2023-07-15T13:08:40.000Z</time>
</trkpt>
<trkpt lat="46.0520700" lon="9.4387150">
	<ele>868.20</ele>
	<time>2023-07-15T13:08:41.000Z</time>
</trkpt>
<trkpt lat="46.0520850" lon="9.4387030">
	<ele>868.00</ele>
	<time>2023-07-15T13:08:42.000Z</time>
</trkpt>
<trkpt lat="46.0520920" lon="9.4387050">
	<ele>867.20</ele>
	<time>2023-07-15T13:08:45.000Z</time>
</trkpt>
<trkpt lat="46.0520920" lon="9.4387070">
	<ele>867.00</ele>
	<time>2023-07-15T13:08:46.000Z</time>
</trkpt>
<trkpt lat="46.0520900" lon="9.4387100">
	<ele>867.00</ele>
	<time>2023-07-15T13:08:47.000Z</time>
</trkpt>
<trkpt lat="46.0521180" lon="9.4387340">
	<ele>866.80</ele>
	<time>2023-07-15T13:08:50.000Z</time>
</trkpt>
<trkpt lat="46.0521460" lon="9.4387580">
	<ele>866.80</ele>
	<time>2023-07-15T13:08:51.000Z</time>
</trkpt>
<trkpt lat="46.0521780" lon="9.4387880">
	<ele>866.80</ele>
	<time>2023-07-15T13:08:52.000Z</time>
</trkpt>
<trkpt lat="46.0521780" lon="9.4387740">
	<ele>866.60</ele>
	<time>2023-07-15T13:08:54.000Z</time>
</trkpt>
<trkpt lat="46.0521880" lon="9.4387390">
	<ele>866.20</ele>
	<time>2023-07-15T13:08:58.000Z</time>
</trkpt>
<trkpt lat="46.0521970" lon="9.4387130">
	<ele>866.20</ele>
	<time>2023-07-15T13:09:00.000Z</time>
</trkpt>
<trkpt lat="46.0522130" lon="9.4387030">
	<ele>866.00</ele>
	<time>2023-07-15T13:09:01.000Z</time>
</trkpt>
<trkpt lat="46.0522340" lon="9.4386290">
	<ele>865.40</ele>
	<time>2023-07-15T13:09:05.000Z</time>
</trkpt>
<trkpt lat="46.0522290" lon="9.4386120">
	<ele>865.20</ele>
	<time>2023-07-15T13:09:06.000Z</time>
</trkpt>
<trkpt lat="46.0522060" lon="9.4385170">
	<ele>864.80</ele>
	<time>2023-07-15T13:09:10.000Z</time>
</trkpt>
<trkpt lat="46.0521970" lon="9.4384940">
	<ele>864.60</ele>
	<time>2023-07-15T13:09:11.000Z</time>
</trkpt>
<trkpt lat="46.0521690" lon="9.4384010">
	<ele>864.40</ele>
	<time>2023-07-15T13:09:14.000Z</time>
</trkpt>
<trkpt lat="46.0521660" lon="9.4383600">
	<ele>864.40</ele>
	<time>2023-07-15T13:09:16.000Z</time>
</trkpt>
<trkpt lat="46.0521500" lon="9.4383330">
	<ele>864.00</ele>
	<time>2023-07-15T13:09:18.000Z</time>
</trkpt>
<trkpt lat="46.0521300" lon="9.4383020">
	<ele>863.60</ele>
	<time>2023-07-15T13:09:21.000Z</time>
</trkpt>
<trkpt lat="46.0521240" lon="9.4382660">
	<ele>863.20</ele>
	<time>2023-07-15T13:09:23.000Z</time>
</trkpt>
<trkpt lat="46.0521030" lon="9.4382100">
	<ele>862.60</ele>
	<time>2023-07-15T13:09:26.000Z</time>
</trkpt>
<trkpt lat="46.0520880" lon="9.4381910">
	<ele>862.60</ele>
	<time>2023-07-15T13:09:27.000Z</time>
</trkpt>
<trkpt lat="46.0519710" lon="9.4380660">
	<ele>862.00</ele>
	<time>2023-07-15T13:09:35.000Z</time>
</trkpt>
<trkpt lat="46.0519580" lon="9.4380290">
	<ele>862.00</ele>
	<time>2023-07-15T13:09:37.000Z</time>
</trkpt>
<trkpt lat="46.0519340" lon="9.4379860">
	<ele>861.60</ele>
	<time>2023-07-15T13:09:39.000Z</time>
</trkpt>
<trkpt lat="46.0519160" lon="9.4379670">
	<ele>861.60</ele>
	<time>2023-07-15T13:09:40.000Z</time>
</trkpt>
<trkpt lat="46.0518440" lon="9.4378550">
	<ele>861.00</ele>
	<time>2023-07-15T13:09:46.000Z</time>
</trkpt>
<trkpt lat="46.0518050" lon="9.4378250">
	<ele>860.80</ele>
	<time>2023-07-15T13:09:48.000Z</time>
</trkpt>
<trkpt lat="46.0517570" lon="9.4377910">
	<ele>860.60</ele>
	<time>2023-07-15T13:09:51.000Z</time>
</trkpt>
<trkpt lat="46.0517050" lon="9.4377690">
	<ele>860.40</ele>
	<time>2023-07-15T13:09:53.000Z</time>
</trkpt>
<trkpt lat="46.0516930" lon="9.4377420">
	<ele>860.00</ele>
	<time>2023-07-15T13:09:55.000Z</time>
</trkpt>
<trkpt lat="46.0516800" lon="9.4377590">
	<ele>860.00</ele>
	<time>2023-07-15T13:09:56.000Z</time>
</trkpt>
<trkpt lat="46.0516780" lon="9.4377630">
	<ele>859.40</ele>
	<time>2023-07-15T13:09:58.000Z</time>
</trkpt>
<trkpt lat="46.0516620" lon="9.4377570">
	<ele>858.20</ele>
	<time>2023-07-15T13:10:01.000Z</time>
</trkpt>
<trkpt lat="46.0516350" lon="9.4377110">
	<ele>857.60</ele>
	<time>2023-07-15T13:10:04.000Z</time>
</trkpt>
<trkpt lat="46.0516320" lon="9.4377000">
	<ele>857.40</ele>
	<time>2023-07-15T13:10:05.000Z</time>
</trkpt>
<trkpt lat="46.0516230" lon="9.4376870">
	<ele>857.40</ele>
	<time>2023-07-15T13:10:06.000Z</time>
</trkpt>
<trkpt lat="46.0516110" lon="9.4376760">
	<ele>857.20</ele>
	<time>2023-07-15T13:10:07.000Z</time>
</trkpt>
<trkpt lat="46.0515980" lon="9.4376810">
	<ele>856.40</ele>
	<time>2023-07-15T13:10:11.000Z</time>
</trkpt>
<trkpt lat="46.0515800" lon="9.4376890">
	<ele>856.20</ele>
	<time>2023-07-15T13:10:12.000Z</time>
</trkpt>
<trkpt lat="46.0515490" lon="9.4376950">
	<ele>855.40</ele>
	<time>2023-07-15T13:10:14.000Z</time>
</trkpt>
<trkpt lat="46.0514850" lon="9.4376660">
	<ele>855.20</ele>
	<time>2023-07-15T13:10:17.000Z</time>
</trkpt>
<trkpt lat="46.0514490" lon="9.4376560">
	<ele>854.80</ele>
	<time>2023-07-15T13:10:18.000Z</time>
</trkpt>
<trkpt lat="46.0514280" lon="9.4376440">
	<ele>854.00</ele>
	<time>2023-07-15T13:10:21.000Z</time>
</trkpt>
<trkpt lat="46.0514180" lon="9.4376380">
	<ele>854.00</ele>
	<time>2023-07-15T13:10:22.000Z</time>
</trkpt>
<trkpt lat="46.0513840" lon="9.4376340">
	<ele>853.60</ele>
	<time>2023-07-15T13:10:25.000Z</time>
</trkpt>
<trkpt lat="46.0513570" lon="9.4376460">
	<ele>852.80</ele>
	<time>2023-07-15T13:10:28.000Z</time>
</trkpt>
<trkpt lat="46.0513400" lon="9.4376580">
	<ele>852.60</ele>
	<time>2023-07-15T13:10:30.000Z</time>
</trkpt>
<trkpt lat="46.0513230" lon="9.4376680">
	<ele>852.20</ele>
	<time>2023-07-15T13:10:32.000Z</time>
</trkpt>
<trkpt lat="46.0513080" lon="9.4376770">
	<ele>851.80</ele>
	<time>2023-07-15T13:10:34.000Z</time>
</trkpt>
<trkpt lat="46.0513020" lon="9.4376860">
	<ele>851.40</ele>
	<time>2023-07-15T13:10:39.000Z</time>
</trkpt>
<trkpt lat="46.0513000" lon="9.4376780">
	<ele>851.80</ele>
	<time>2023-07-15T13:10:42.000Z</time>
</trkpt>
<trkpt lat="46.0512820" lon="9.4376730">
	<ele>851.80</ele>
	<time>2023-07-15T13:10:45.000Z</time>
</trkpt>
<trkpt lat="46.0512730" lon="9.4376780">
	<ele>851.60</ele>
	<time>2023-07-15T13:10:46.000Z</time>
</trkpt>
<trkpt lat="46.0512320" lon="9.4376940">
	<ele>851.60</ele>
	<time>2023-07-15T13:10:51.000Z</time>
</trkpt>
<trkpt lat="46.0511680" lon="9.4376710">
	<ele>851.40</ele>
	<time>2023-07-15T13:10:55.000Z</time>
</trkpt>
<trkpt lat="46.0511580" lon="9.4376550">
	<ele>851.40</ele>
	<time>2023-07-15T13:10:59.000Z</time>
</trkpt>
<trkpt lat="46.0511420" lon="9.4376320">
	<ele>852.20</ele>
	<time>2023-07-15T13:11:04.000Z</time>
</trkpt>
<trkpt lat="46.0511170" lon="9.4375890">
	<ele>852.60</ele>
	<time>2023-07-15T13:11:07.000Z</time>
</trkpt>
<trkpt lat="46.0511090" lon="9.4375760">
	<ele>852.80</ele>
	<time>2023-07-15T13:11:08.000Z</time>
</trkpt>
<trkpt lat="46.0510830" lon="9.4375540">
	<ele>853.20</ele>
	<time>2023-07-15T13:11:11.000Z</time>
</trkpt>
<trkpt lat="46.0510630" lon="9.4375490">
	<ele>853.40</ele>
	<time>2023-07-15T13:11:13.000Z</time>
</trkpt>
<trkpt lat="46.0510220" lon="9.4375540">
	<ele>853.40</ele>
	<time>2023-07-15T13:11:16.000Z</time>
</trkpt>
<trkpt lat="46.0509510" lon="9.4375110">
	<ele>853.60</ele>
	<time>2023-07-15T13:11:21.000Z</time>
</trkpt>
<trkpt lat="46.0509180" lon="9.4374660">
	<ele>853.80</ele>
	<time>2023-07-15T13:11:23.000Z</time>
</trkpt>
<trkpt lat="46.0509050" lon="9.4374510">
	<ele>853.80</ele>
	<time>2023-07-15T13:11:24.000Z</time>
</trkpt>
<trkpt lat="46.0508870" lon="9.4374200">
	<ele>853.80</ele>
	<time>2023-07-15T13:11:26.000Z</time>
</trkpt>
<trkpt lat="46.0508690" lon="9.4373560">
	<ele>853.60</ele>
	<time>2023-07-15T13:11:31.000Z</time>
</trkpt>
<trkpt lat="46.0507570" lon="9.4372350">
	<ele>853.20</ele>
	<time>2023-07-15T13:11:38.000Z</time>
</trkpt>
<trkpt lat="46.0506960" lon="9.4371710">
	<ele>852.80</ele>
	<time>2023-07-15T13:11:45.000Z</time>
</trkpt>
<trkpt lat="46.0506710" lon="9.4371350">
	<ele>852.60</ele>
	<time>2023-07-15T13:11:47.000Z</time>
</trkpt>
<trkpt lat="46.0506470" lon="9.4370780">
	<ele>851.60</ele>
	<time>2023-07-15T13:11:51.000Z</time>
</trkpt>
<trkpt lat="46.0506420" lon="9.4370630">
	<ele>851.60</ele>
	<time>2023-07-15T13:11:52.000Z</time>
</trkpt>
<trkpt lat="46.0505850" lon="9.4369070">
	<ele>850.60</ele>
	<time>2023-07-15T13:11:59.000Z</time>
</trkpt>
<trkpt lat="46.0505670" lon="9.4368420">
	<ele>850.40</ele>
	<time>2023-07-15T13:12:03.000Z</time>
</trkpt>
<trkpt lat="46.0505720" lon="9.4368290">
	<ele>850.40</ele>
	<time>2023-07-15T13:12:04.000Z</time>
</trkpt>
<trkpt lat="46.0505650" lon="9.4367920">
	<ele>850.20</ele>
	<time>2023-07-15T13:12:06.000Z</time>
</trkpt>
<trkpt lat="46.0505600" lon="9.4367730">
	<ele>850.20</ele>
	<time>2023-07-15T13:12:07.000Z</time>
</trkpt>
<trkpt lat="46.0505480" lon="9.4367520">
	<ele>850.00</ele>
	<time>2023-07-15T13:12:08.000Z</time>
</trkpt>
<trkpt lat="46.0505370" lon="9.4367240">
	<ele>849.80</ele>
	<time>2023-07-15T13:12:09.000Z</time>
</trkpt>
<trkpt lat="46.0505390" lon="9.4367090">
	<ele>849.80</ele>
	<time>2023-07-15T13:12:10.000Z</time>
</trkpt>
<trkpt lat="46.0505330" lon="9.4366830">
	<ele>849.60</ele>
	<time>2023-07-15T13:12:11.000Z</time>
</trkpt>
<trkpt lat="46.0505420" lon="9.4366400">
	<ele>849.40</ele>
	<time>2023-07-15T13:12:13.000Z</time>
</trkpt>
<trkpt lat="46.0505480" lon="9.4366220">
	<ele>849.40</ele>
	<time>2023-07-15T13:12:14.000Z</time>
</trkpt>
<trkpt lat="46.0505510" lon="9.4365980">
	<ele>849.40</ele>
	<time>2023-07-15T13:12:15.000Z</time>
</trkpt>
<trkpt lat="46.0505690" lon="9.4365630">
	<ele>849.20</ele>
	<time>2023-07-15T13:12:17.000Z</time>
</trkpt>
<trkpt lat="46.0505830" lon="9.4365570">
	<ele>849.20</ele>
	<time>2023-07-15T13:12:18.000Z</time>
</trkpt>
<trkpt lat="46.0505780" lon="9.4365290">
	<ele>849.20</ele>
	<time>2023-07-15T13:12:21.000Z</time>
</trkpt>
<trkpt lat="46.0505760" lon="9.4365130">
	<ele>849.20</ele>
	<time>2023-07-15T13:12:22.000Z</time>
</trkpt>
<trkpt lat="46.0505740" lon="9.4364970">
	<ele>849.00</ele>
	<time>2023-07-15T13:12:23.000Z</time>
</trkpt>
<trkpt lat="46.0505530" lon="9.4364470">
	<ele>848.80</ele>
	<time>2023-07-15T13:12:25.000Z</time>
</trkpt>
<trkpt lat="46.0505580" lon="9.4364130">
	<ele>848.60</ele>
	<time>2023-07-15T13:12:27.000Z</time>
</trkpt>
<trkpt lat="46.0505750" lon="9.4364140">
	<ele>848.60</ele>
	<time>2023-07-15T13:12:28.000Z</time>
</trkpt>
<trkpt lat="46.0505640" lon="9.4363780">
	<ele>848.20</ele>
	<time>2023-07-15T13:12:30.000Z</time>
</trkpt>
<trkpt lat="46.0505560" lon="9.4363220">
	<ele>847.40</ele>
	<time>2023-07-15T13:12:33.000Z</time>
</trkpt>
<trkpt lat="46.0505580" lon="9.4363080">
	<ele>847.00</ele>
	<time>2023-07-15T13:12:34.000Z</time>
</trkpt>
<trkpt lat="46.0505700" lon="9.4363030">
	<ele>846.80</ele>
	<time>2023-07-15T13:12:35.000Z</time>
</trkpt>
<trkpt lat="46.0505760" lon="9.4362700">
	<ele>846.60</ele>
	<time>2023-07-15T13:12:37.000Z</time>
</trkpt>
<trkpt lat="46.0505790" lon="9.4362570">
	<ele>846.40</ele>
	<time>2023-07-15T13:12:38.000Z</time>
</trkpt>
<trkpt lat="46.0505860" lon="9.4362500">
	<ele>846.00</ele>
	<time>2023-07-15T13:12:39.000Z</time>
</trkpt>
<trkpt lat="46.0505890" lon="9.4362430">
	<ele>845.80</ele>
	<time>2023-07-15T13:12:40.000Z</time>
</trkpt>
<trkpt lat="46.0506050" lon="9.4362300">
	<ele>845.60</ele>
	<time>2023-07-15T13:12:42.000Z</time>
</trkpt>
<trkpt lat="46.0506050" lon="9.4362120">
	<ele>845.20</ele>
	<time>2023-07-15T13:12:43.000Z</time>
</trkpt>
<trkpt lat="46.0506020" lon="9.4361890">
	<ele>845.00</ele>
	<time>2023-07-15T13:12:44.000Z</time>
</trkpt>
<trkpt lat="46.0506080" lon="9.4361730">
	<ele>845.00</ele>
	<time>2023-07-15T13:12:45.000Z</time>
</trkpt>
<trkpt lat="46.0506430" lon="9.4361610">
	<ele>844.60</ele>
	<time>2023-07-15T13:12:47.000Z</time>
</trkpt>
<trkpt lat="46.0506570" lon="9.4361530">
	<ele>844.20</ele>
	<time>2023-07-15T13:12:48.000Z</time>
</trkpt>
<trkpt lat="46.0506440" lon="9.4361310">
	<ele>844.00</ele>
	<time>2023-07-15T13:12:49.000Z</time>
</trkpt>
<trkpt lat="46.0506340" lon="9.4361090">
	<ele>843.80</ele>
	<time>2023-07-15T13:12:50.000Z</time>
</trkpt>
<trkpt lat="46.0506340" lon="9.4361000">
	<ele>843.60</ele>
	<time>2023-07-15T13:12:51.000Z</time>
</trkpt>
<trkpt lat="46.0506260" lon="9.4359790">
	<ele>843.00</ele>
	<time>2023-07-15T13:12:56.000Z</time>
</trkpt>
<trkpt lat="46.0506370" lon="9.4359590">
	<ele>842.60</ele>
	<time>2023-07-15T13:12:57.000Z</time>
</trkpt>
<trkpt lat="46.0506620" lon="9.4358860">
	<ele>841.80</ele>
	<time>2023-07-15T13:13:01.000Z</time>
</trkpt>
<trkpt lat="46.0506820" lon="9.4358500">
	<ele>841.40</ele>
	<time>2023-07-15T13:13:03.000Z</time>
</trkpt>
<trkpt lat="46.0506810" lon="9.4357750">
	<ele>840.80</ele>
	<time>2023-07-15T13:13:06.000Z</time>
</trkpt>
<trkpt lat="46.0506850" lon="9.4357420">
	<ele>840.40</ele>
	<time>2023-07-15T13:13:08.000Z</time>
</trkpt>
<trkpt lat="46.0506900" lon="9.4357300">
	<ele>840.20</ele>
	<time>2023-07-15T13:13:09.000Z</time>
</trkpt>
<trkpt lat="46.0507030" lon="9.4357010">
	<ele>840.00</ele>
	<time>2023-07-15T13:13:12.000Z</time>
</trkpt>
<trkpt lat="46.0507000" lon="9.4356620">
	<ele>839.80</ele>
	<time>2023-07-15T13:13:14.000Z</time>
</trkpt>
<trkpt lat="46.0507060" lon="9.4356500">
	<ele>839.60</ele>
	<time>2023-07-15T13:13:15.000Z</time>
</trkpt>
<trkpt lat="46.0507220" lon="9.4356250">
	<ele>839.40</ele>
	<time>2023-07-15T13:13:17.000Z</time>
</trkpt>
<trkpt lat="46.0507240" lon="9.4356080">
	<ele>839.20</ele>
	<time>2023-07-15T13:13:18.000Z</time>
</trkpt>
<trkpt lat="46.0507360" lon="9.4355860">
	<ele>838.80</ele>
	<time>2023-07-15T13:13:21.000Z</time>
</trkpt>
<trkpt lat="46.0507360" lon="9.4355550">
	<ele>838.60</ele>
	<time>2023-07-15T13:13:23.000Z</time>
</trkpt>
<trkpt lat="46.0507340" lon="9.4355400">
	<ele>838.40</ele>
	<time>2023-07-15T13:13:24.000Z</time>
</trkpt>
<trkpt lat="46.0507460" lon="9.4355240">
	<ele>838.20</ele>
	<time>2023-07-15T13:13:26.000Z</time>
</trkpt>
<trkpt lat="46.0507440" lon="9.4355090">
	<ele>838.20</ele>
	<time>2023-07-15T13:13:27.000Z</time>
</trkpt>
<trkpt lat="46.0507430" lon="9.4354950">
	<ele>838.00</ele>
	<time>2023-07-15T13:13:28.000Z</time>
</trkpt>
<trkpt lat="46.0507380" lon="9.4354810">
	<ele>838.00</ele>
	<time>2023-07-15T13:13:29.000Z</time>
</trkpt>
<trkpt lat="46.0507340" lon="9.4354570">
	<ele>837.80</ele>
	<time>2023-07-15T13:13:31.000Z</time>
</trkpt>
<trkpt lat="46.0507270" lon="9.4354210">
	<ele>837.60</ele>
	<time>2023-07-15T13:13:33.000Z</time>
</trkpt>
<trkpt lat="46.0507130" lon="9.4354020">
	<ele>837.60</ele>
	<time>2023-07-15T13:13:34.000Z</time>
</trkpt>
<trkpt lat="46.0506920" lon="9.4353750">
	<ele>837.00</ele>
	<time>2023-07-15T13:13:37.000Z</time>
</trkpt>
<trkpt lat="46.0506780" lon="9.4353580">
	<ele>837.00</ele>
	<time>2023-07-15T13:13:38.000Z</time>
</trkpt>
<trkpt lat="46.0506680" lon="9.4353350">
	<ele>837.00</ele>
	<time>2023-07-15T13:13:41.000Z</time>
</trkpt>
<trkpt lat="46.0506570" lon="9.4353150">
	<ele>837.20</ele>
	<time>2023-07-15T13:13:43.000Z</time>
</trkpt>
<trkpt lat="46.0506310" lon="9.4352650">
	<ele>837.20</ele>
	<time>2023-07-15T13:13:48.000Z</time>
</trkpt>
<trkpt lat="46.0506060" lon="9.4352320">
	<ele>836.80</ele>
	<time>2023-07-15T13:13:50.000Z</time>
</trkpt>
<trkpt lat="46.0505040" lon="9.4350900">
	<ele>836.40</ele>
	<time>2023-07-15T13:13:55.000Z</time>
</trkpt>
<trkpt lat="46.0504130" lon="9.4349950">
	<ele>836.20</ele>
	<time>2023-07-15T13:13:58.000Z</time>
</trkpt>
<trkpt lat="46.0503770" lon="9.4349330">
	<ele>836.00</ele>
	<time>2023-07-15T13:14:00.000Z</time>
</trkpt>
<trkpt lat="46.0503710" lon="9.4349040">
	<ele>835.80</ele>
	<time>2023-07-15T13:14:01.000Z</time>
</trkpt>
<trkpt lat="46.0503730" lon="9.4348880">
	<ele>835.80</ele>
	<time>2023-07-15T13:14:02.000Z</time>
</trkpt>
<trkpt lat="46.0503860" lon="9.4348440">
	<ele>835.20</ele>
	<time>2023-07-15T13:14:05.000Z</time>
</trkpt>
<trkpt lat="46.0503840" lon="9.4348180">
	<ele>835.20</ele>
	<time>2023-07-15T13:14:06.000Z</time>
</trkpt>
<trkpt lat="46.0503730" lon="9.4347760">
	<ele>835.00</ele>
	<time>2023-07-15T13:14:08.000Z</time>
</trkpt>
<trkpt lat="46.0503570" lon="9.4347310">
	<ele>835.00</ele>
	<time>2023-07-15T13:14:10.000Z</time>
</trkpt>
<trkpt lat="46.0503360" lon="9.4347000">
	<ele>834.80</ele>
	<time>2023-07-15T13:14:11.000Z</time>
</trkpt>
<trkpt lat="46.0503010" lon="9.4346360">
	<ele>834.60</ele>
	<time>2023-07-15T13:14:14.000Z</time>
</trkpt>
<trkpt lat="46.0502770" lon="9.4345940">
	<ele>834.60</ele>
	<time>2023-07-15T13:14:17.000Z</time>
</trkpt>
<trkpt lat="46.0502470" lon="9.4345620">
	<ele>834.60</ele>
	<time>2023-07-15T13:14:19.000Z</time>
</trkpt>
<trkpt lat="46.0502430" lon="9.4345450">
	<ele>834.60</ele>
	<time>2023-07-15T13:14:20.000Z</time>
</trkpt>
<trkpt lat="46.0502570" lon="9.4345170">
	<ele>834.60</ele>
	<time>2023-07-15T13:14:22.000Z</time>
</trkpt>
<trkpt lat="46.0502930" lon="9.4345090">
	<ele>834.40</ele>
	<time>2023-07-15T13:14:25.000Z</time>
</trkpt>
<trkpt lat="46.0502600" lon="9.4344600">
	<ele>834.40</ele>
	<time>2023-07-15T13:14:27.000Z</time>
</trkpt>
<trkpt lat="46.0502540" lon="9.4344250">
	<ele>834.20</ele>
	<time>2023-07-15T13:14:29.000Z</time>
</trkpt>
<trkpt lat="46.0502600" lon="9.4343940">
	<ele>834.00</ele>
	<time>2023-07-15T13:14:31.000Z</time>
</trkpt>
<trkpt lat="46.0502730" lon="9.4343840">
	<ele>834.00</ele>
	<time>2023-07-15T13:14:32.000Z</time>
</trkpt>
<trkpt lat="46.0502830" lon="9.4343790">
	<ele>833.80</ele>
	<time>2023-07-15T13:14:34.000Z</time>
</trkpt>
<trkpt lat="46.0502790" lon="9.4343650">
	<ele>833.80</ele>
	<time>2023-07-15T13:14:35.000Z</time>
</trkpt>
<trkpt lat="46.0502420" lon="9.4342800">
	<ele>833.40</ele>
	<time>2023-07-15T13:14:40.000Z</time>
</trkpt>
<trkpt lat="46.0502630" lon="9.4342710">
	<ele>833.40</ele>
	<time>2023-07-15T13:14:42.000Z</time>
</trkpt>
<trkpt lat="46.0502630" lon="9.4342400">
	<ele>833.40</ele>
	<time>2023-07-15T13:14:44.000Z</time>
</trkpt>
<trkpt lat="46.0502710" lon="9.4342340">
	<ele>833.00</ele>
	<time>2023-07-15T13:14:46.000Z</time>
</trkpt>
<trkpt lat="46.0502720" lon="9.4342190">
	<ele>833.00</ele>
	<time>2023-07-15T13:14:47.000Z</time>
</trkpt>
<trkpt lat="46.0502770" lon="9.4342010">
	<ele>832.80</ele>
	<time>2023-07-15T13:14:48.000Z</time>
</trkpt>
<trkpt lat="46.0502620" lon="9.4341480">
	<ele>832.60</ele>
	<time>2023-07-15T13:14:50.000Z</time>
</trkpt>
<trkpt lat="46.0501790" lon="9.4340020">
	<ele>832.40</ele>
	<time>2023-07-15T13:14:56.000Z</time>
</trkpt>
<trkpt lat="46.0501220" lon="9.4339230">
	<ele>832.20</ele>
	<time>2023-07-15T13:15:00.000Z</time>
</trkpt>
<trkpt lat="46.0500930" lon="9.4338280">
	<ele>832.00</ele>
	<time>2023-07-15T13:15:05.000Z</time>
</trkpt>
<trkpt lat="46.0500740" lon="9.4338070">
	<ele>832.00</ele>
	<time>2023-07-15T13:15:06.000Z</time>
</trkpt>
<trkpt lat="46.0500520" lon="9.4337910">
	<ele>831.80</ele>
	<time>2023-07-15T13:15:08.000Z</time>
</trkpt>
<trkpt lat="46.0499990" lon="9.4337350">
	<ele>831.20</ele>
	<time>2023-07-15T13:15:13.000Z</time>
</trkpt>
<trkpt lat="46.0499560" lon="9.4336940">
	<ele>830.80</ele>
	<time>2023-07-15T13:15:16.000Z</time>
</trkpt>
<trkpt lat="46.0499610" lon="9.4336890">
	<ele>830.80</ele>
	<time>2023-07-15T13:15:17.000Z</time>
</trkpt>
<trkpt lat="46.0499740" lon="9.4336900">
	<ele>830.60</ele>
	<time>2023-07-15T13:15:18.000Z</time>
</trkpt>
<trkpt lat="46.0499860" lon="9.4336810">
	<ele>830.60</ele>
	<time>2023-07-15T13:15:20.000Z</time>
</trkpt>
<trkpt lat="46.0499660" lon="9.4336520">
	<ele>830.20</ele>
	<time>2023-07-15T13:15:23.000Z</time>
</trkpt>
<trkpt lat="46.0499530" lon="9.4336410">
	<ele>830.20</ele>
	<time>2023-07-15T13:15:24.000Z</time>
</trkpt>
<trkpt lat="46.0498940" lon="9.4336090">
	<ele>830.20</ele>
	<time>2023-07-15T13:15:29.000Z</time>
</trkpt>
<trkpt lat="46.0498640" lon="9.4335630">
	<ele>829.80</ele>
	<time>2023-07-15T13:15:32.000Z</time>
</trkpt>
<trkpt lat="46.0498240" lon="9.4335280">
	<ele>829.20</ele>
	<time>2023-07-15T13:15:36.000Z</time>
</trkpt>
<trkpt lat="46.0497970" lon="9.4334520">
	<ele>828.80</ele>
	<time>2023-07-15T13:15:39.000Z</time>
</trkpt>
<trkpt lat="46.0498160" lon="9.4334350">
	<ele>828.80</ele>
	<time>2023-07-15T13:15:40.000Z</time>
</trkpt>
<trkpt lat="46.0498290" lon="9.4334350">
	<ele>828.60</ele>
	<time>2023-07-15T13:15:41.000Z</time>
</trkpt>
<trkpt lat="46.0498100" lon="9.4334350">
	<ele>828.60</ele>
	<time>2023-07-15T13:15:44.000Z</time>
</trkpt>
<trkpt lat="46.0498020" lon="9.4334300">
	<ele>828.40</ele>
	<time>2023-07-15T13:15:45.000Z</time>
</trkpt>
<trkpt lat="46.0497860" lon="9.4334090">
	<ele>828.20</ele>
	<time>2023-07-15T13:15:49.000Z</time>
</trkpt>
<trkpt lat="46.0497860" lon="9.4333860">
	<ele>828.20</ele>
	<time>2023-07-15T13:15:52.000Z</time>
</trkpt>
<trkpt lat="46.0497830" lon="9.4333690">
	<ele>828.00</ele>
	<time>2023-07-15T13:15:53.000Z</time>
</trkpt>
<trkpt lat="46.0497510" lon="9.4333070">
	<ele>827.80</ele>
	<time>2023-07-15T13:15:57.000Z</time>
</trkpt>
<trkpt lat="46.0497440" lon="9.4332570">
	<ele>827.60</ele>
	<time>2023-07-15T13:15:58.000Z</time>
</trkpt>
<trkpt lat="46.0496910" lon="9.4330940">
	<ele>827.60</ele>
	<time>2023-07-15T13:16:02.000Z</time>
</trkpt>
<trkpt lat="46.0496980" lon="9.4329560">
	<ele>827.20</ele>
	<time>2023-07-15T13:16:07.000Z</time>
</trkpt>
<trkpt lat="46.0496900" lon="9.4328930">
	<ele>827.00</ele>
	<time>2023-07-15T13:16:09.000Z</time>
</trkpt>
<trkpt lat="46.0496740" lon="9.4327810">
	<ele>826.80</ele>
	<time>2023-07-15T13:16:12.000Z</time>
</trkpt>
<trkpt lat="46.0496640" lon="9.4326860">
	<ele>826.60</ele>
	<time>2023-07-15T13:16:15.000Z</time>
</trkpt>
<trkpt lat="46.0496930" lon="9.4326410">
	<ele>826.60</ele>
	<time>2023-07-15T13:16:17.000Z</time>
</trkpt>
<trkpt lat="46.0497210" lon="9.4325630">
	<ele>826.40</ele>
	<time>2023-07-15T13:16:20.000Z</time>
</trkpt>
<trkpt lat="46.0498000" lon="9.4324990">
	<ele>826.20</ele>
	<time>2023-07-15T13:16:25.000Z</time>
</trkpt>
<trkpt lat="46.0497450" lon="9.4323590">
	<ele>826.20</ele>
	<time>2023-07-15T13:16:27.000Z</time>
</trkpt>
<trkpt lat="46.0497520" lon="9.4323140">
	<ele>826.20</ele>
	<time>2023-07-15T13:16:29.000Z</time>
</trkpt>
<trkpt lat="46.0497530" lon="9.4323130">
	<ele>826.20</ele>
	<time>2023-07-15T13:16:30.000Z</time>
</trkpt>
<trkpt lat="46.0497410" lon="9.4322990">
	<ele>826.00</ele>
	<time>2023-07-15T13:16:32.000Z</time>
</trkpt>
<trkpt lat="46.0497080" lon="9.4322480">
	<ele>826.00</ele>
	<time>2023-07-15T13:16:33.000Z</time>
</trkpt>
<trkpt lat="46.0496970" lon="9.4322260">
	<ele>825.80</ele>
	<time>2023-07-15T13:16:34.000Z</time>
</trkpt>
<trkpt lat="46.0496940" lon="9.4321330">
	<ele>825.80</ele>
	<time>2023-07-15T13:16:37.000Z</time>
</trkpt>
<trkpt lat="46.0496810" lon="9.4320810">
	<ele>826.00</ele>
	<time>2023-07-15T13:16:39.000Z</time>
</trkpt>
<trkpt lat="46.0496750" lon="9.4320700">
	<ele>826.00</ele>
	<time>2023-07-15T13:16:40.000Z</time>
</trkpt>
<trkpt lat="46.0496870" lon="9.4320620">
	<ele>825.80</ele>
	<time>2023-07-15T13:16:45.000Z</time>
</trkpt>
<trkpt lat="46.0496760" lon="9.4320550">
	<ele>825.80</ele>
	<time>2023-07-15T13:16:46.000Z</time>
</trkpt>
<trkpt lat="46.0496650" lon="9.4320060">
	<ele>825.80</ele>
	<time>2023-07-15T13:16:47.000Z</time>
</trkpt>
<trkpt lat="46.0496450" lon="9.4319940">
	<ele>825.60</ele>
	<time>2023-07-15T13:16:48.000Z</time>
</trkpt>
<trkpt lat="46.0496110" lon="9.4319640">
	<ele>825.80</ele>
	<time>2023-07-15T13:16:49.000Z</time>
</trkpt>
<trkpt lat="46.0495710" lon="9.4319170">
	<ele>825.60</ele>
	<time>2023-07-15T13:16:52.000Z</time>
</trkpt>
<trkpt lat="46.0495270" lon="9.4319560">
	<ele>825.40</ele>
	<time>2023-07-15T13:16:55.000Z</time>
</trkpt>
<trkpt lat="46.0495250" lon="9.4319660">
	<ele>825.40</ele>
	<time>2023-07-15T13:16:56.000Z</time>
</trkpt>
<trkpt lat="46.0495270" lon="9.4319620">
	<ele>825.40</ele>
	<time>2023-07-15T13:16:57.000Z</time>
</trkpt>
<trkpt lat="46.0495510" lon="9.4319730">
	<ele>825.20</ele>
	<time>2023-07-15T13:16:59.000Z</time>
</trkpt>
<trkpt lat="46.0495840" lon="9.4319800">
	<ele>825.00</ele>
	<time>2023-07-15T13:17:02.000Z</time>
</trkpt>
<trkpt lat="46.0495780" lon="9.4319530">
	<ele>824.80</ele>
	<time>2023-07-15T13:17:04.000Z</time>
</trkpt>
<trkpt lat="46.0495820" lon="9.4319420">
	<ele>824.80</ele>
	<time>2023-07-15T13:17:05.000Z</time>
</trkpt>
<trkpt lat="46.0496060" lon="9.4319340">
	<ele>824.60</ele>
	<time>2023-07-15T13:17:07.000Z</time>
</trkpt>
<trkpt lat="46.0496120" lon="9.4318950">
	<ele>824.40</ele>
	<time>2023-07-15T13:17:09.000Z</time>
</trkpt>
<trkpt lat="46.0496360" lon="9.4318330">
	<ele>824.40</ele>
	<time>2023-07-15T13:17:14.000Z</time>
</trkpt>
<trkpt lat="46.0496080" lon="9.4318420">
	<ele>824.40</ele>
	<time>2023-07-15T13:17:16.000Z</time>
</trkpt>
<trkpt lat="46.0495870" lon="9.4318560">
	<ele>824.40</ele>
	<time>2023-07-15T13:17:17.000Z</time>
</trkpt>
<trkpt lat="46.0496020" lon="9.4319010">
	<ele>824.80</ele>
	<time>2023-07-15T13:17:19.000Z</time>
</trkpt>
<trkpt lat="46.0496340" lon="9.4319080">
	<ele>825.00</ele>
	<time>2023-07-15T13:17:21.000Z</time>
</trkpt>
<trkpt lat="46.0496720" lon="9.4319170">
	<ele>825.20</ele>
	<time>2023-07-15T13:17:24.000Z</time>
</trkpt>
<trkpt lat="46.0497080" lon="9.4319170">
	<ele>824.60</ele>
	<time>2023-07-15T13:17:27.000Z</time>
</trkpt>
<trkpt lat="46.0497520" lon="9.4318360">
	<ele>824.40</ele>
	<time>2023-07-15T13:17:30.000Z</time>
</trkpt>
<trkpt lat="46.0497420" lon="9.4318200">
	<ele>824.40</ele>
	<time>2023-07-15T13:17:32.000Z</time>
</trkpt>
<trkpt lat="46.0497360" lon="9.4318030">
	<ele>824.40</ele>
	<time>2023-07-15T13:17:33.000Z</time>
</trkpt>
<trkpt lat="46.0497320" lon="9.4317860">
	<ele>824.20</ele>
	<time>2023-07-15T13:17:34.000Z</time>
</trkpt>
<trkpt lat="46.0497050" lon="9.4316950">
	<ele>824.00</ele>
	<time>2023-07-15T13:17:37.000Z</time>
</trkpt>
<trkpt lat="46.0496930" lon="9.4315890">
	<ele>823.80</ele>
	<time>2023-07-15T13:17:41.000Z</time>
</trkpt>
<trkpt lat="46.0496720" lon="9.4314700">
	<ele>823.80</ele>
	<time>2023-07-15T13:17:47.000Z</time>
</trkpt>
<trkpt lat="46.0496910" lon="9.4313970">
	<ele>823.60</ele>
	<time>2023-07-15T13:17:50.000Z</time>
</trkpt>
<trkpt lat="46.0496980" lon="9.4313710">
	<ele>823.60</ele>
	<time>2023-07-15T13:17:51.000Z</time>
</trkpt>
<trkpt lat="46.0496950" lon="9.4313650">
	<ele>823.40</ele>
	<time>2023-07-15T13:17:52.000Z</time>
</trkpt>
<trkpt lat="46.0496990" lon="9.4313280">
	<ele>823.20</ele>
	<time>2023-07-15T13:17:54.000Z</time>
</trkpt>
<trkpt lat="46.0497160" lon="9.4312760">
	<ele>823.00</ele>
	<time>2023-07-15T13:17:59.000Z</time>
</trkpt>
<trkpt lat="46.0497160" lon="9.4312600">
	<ele>823.00</ele>
	<time>2023-07-15T13:18:00.000Z</time>
</trkpt>
<trkpt lat="46.0497630" lon="9.4312500">
	<ele>822.80</ele>
	<time>2023-07-15T13:18:04.000Z</time>
</trkpt>
<trkpt lat="46.0498120" lon="9.4312990">
	<ele>822.60</ele>
	<time>2023-07-15T13:18:06.000Z</time>
</trkpt>
<trkpt lat="46.0498120" lon="9.4312790">
	<ele>822.60</ele>
	<time>2023-07-15T13:18:07.000Z</time>
</trkpt>
<trkpt lat="46.0498160" lon="9.4312650">
	<ele>822.40</ele>
	<time>2023-07-15T13:18:09.000Z</time>
</trkpt>
<trkpt lat="46.0498120" lon="9.4312410">
	<ele>822.40</ele>
	<time>2023-07-15T13:18:10.000Z</time>
</trkpt>
<trkpt lat="46.0498180" lon="9.4312120">
	<ele>822.20</ele>
	<time>2023-07-15T13:18:12.000Z</time>
</trkpt>
<trkpt lat="46.0498080" lon="9.4311800">
	<ele>822.20</ele>
	<time>2023-07-15T13:18:13.000Z</time>
</trkpt>
<trkpt lat="46.0498260" lon="9.4311370">
	<ele>822.00</ele>
	<time>2023-07-15T13:18:15.000Z</time>
</trkpt>
<trkpt lat="46.0498750" lon="9.4310770">
	<ele>821.60</ele>
	<time>2023-07-15T13:18:18.000Z</time>
</trkpt>
<trkpt lat="46.0498930" lon="9.4310710">
	<ele>821.40</ele>
	<time>2023-07-15T13:18:20.000Z</time>
</trkpt>
<trkpt lat="46.0498720" lon="9.4310430">
	<ele>821.20</ele>
	<time>2023-07-15T13:18:22.000Z</time>
</trkpt>
<trkpt lat="46.0498300" lon="9.4310120">
	<ele>821.00</ele>
	<time>2023-07-15T13:18:25.000Z</time>
</trkpt>
<trkpt lat="46.0497850" lon="9.4310130">
	<ele>820.60</ele>
	<time>2023-07-15T13:18:28.000Z</time>
</trkpt>
<trkpt lat="46.0497140" lon="9.4309790">
	<ele>820.40</ele>
	<time>2023-07-15T13:18:31.000Z</time>
</trkpt>
<trkpt lat="46.0496930" lon="9.4309790">
	<ele>820.40</ele>
	<time>2023-07-15T13:18:33.000Z</time>
</trkpt>
<trkpt lat="46.0496520" lon="9.4309440">
	<ele>820.20</ele>
	<time>2023-07-15T13:18:35.000Z</time>
</trkpt>
<trkpt lat="46.0496550" lon="9.4309430">
	<ele>820.20</ele>
	<time>2023-07-15T13:18:36.000Z</time>
</trkpt>
<trkpt lat="46.0496410" lon="9.4309430">
	<ele>820.00</ele>
	<time>2023-07-15T13:18:38.000Z</time>
</trkpt>
<trkpt lat="46.0496200" lon="9.4309240">
	<ele>819.80</ele>
	<time>2023-07-15T13:18:39.000Z</time>
</trkpt>
<trkpt lat="46.0495100" lon="9.4308640">
	<ele>819.40</ele>
	<time>2023-07-15T13:18:44.000Z</time>
</trkpt>
<trkpt lat="46.0494680" lon="9.4308370">
	<ele>819.40</ele>
	<time>2023-07-15T13:18:46.000Z</time>
</trkpt>
<trkpt lat="46.0494610" lon="9.4308350">
	<ele>819.40</ele>
	<time>2023-07-15T13:18:47.000Z</time>
</trkpt>
<trkpt lat="46.0493860" lon="9.4307910">
	<ele>819.20</ele>
	<time>2023-07-15T13:18:49.000Z</time>
</trkpt>
<trkpt lat="46.0493720" lon="9.4307850">
	<ele>819.20</ele>
	<time>2023-07-15T13:18:50.000Z</time>
</trkpt>
<trkpt lat="46.0493350" lon="9.4307610">
	<ele>818.60</ele>
	<time>2023-07-15T13:18:54.000Z</time>
</trkpt>
<trkpt lat="46.0493290" lon="9.4307660">
	<ele>818.40</ele>
	<time>2023-07-15T13:18:55.000Z</time>
</trkpt>
<trkpt lat="46.0493430" lon="9.4307780">
	<ele>818.20</ele>
	<time>2023-07-15T13:18:57.000Z</time>
</trkpt>
<trkpt lat="46.0493750" lon="9.4307970">
	<ele>818.00</ele>
	<time>2023-07-15T13:18:59.000Z</time>
</trkpt>
<trkpt lat="46.0493860" lon="9.4307860">
	<ele>817.80</ele>
	<time>2023-07-15T13:19:00.000Z</time>
</trkpt>
<trkpt lat="46.0493930" lon="9.4307690">
	<ele>817.80</ele>
	<time>2023-07-15T13:19:01.000Z</time>
</trkpt>
<trkpt lat="46.0494110" lon="9.4307640">
	<ele>817.80</ele>
	<time>2023-07-15T13:19:02.000Z</time>
</trkpt>
<trkpt lat="46.0494050" lon="9.4307460">
	<ele>817.80</ele>
	<time>2023-07-15T13:19:03.000Z</time>
</trkpt>
<trkpt lat="46.0494260" lon="9.4307430">
	<ele>817.80</ele>
	<time>2023-07-15T13:19:05.000Z</time>
</trkpt>
<trkpt lat="46.0494220" lon="9.4307210">
	<ele>817.60</ele>
	<time>2023-07-15T13:19:07.000Z</time>
</trkpt>
<trkpt lat="46.0493900" lon="9.4306890">
	<ele>817.40</ele>
	<time>2023-07-15T13:19:08.000Z</time>
</trkpt>
<trkpt lat="46.0493590" lon="9.4306640">
	<ele>817.40</ele>
	<time>2023-07-15T13:19:09.000Z</time>
</trkpt>
<trkpt lat="46.0493300" lon="9.4306430">
	<ele>817.40</ele>
	<time>2023-07-15T13:19:10.000Z</time>
</trkpt>
<trkpt lat="46.0492720" lon="9.4305760">
	<ele>817.20</ele>
	<time>2023-07-15T13:19:13.000Z</time>
</trkpt>
<trkpt lat="46.0492850" lon="9.4305670">
	<ele>817.00</ele>
	<time>2023-07-15T13:19:15.000Z</time>
</trkpt>
<trkpt lat="46.0492880" lon="9.4305560">
	<ele>817.00</ele>
	<time>2023-07-15T13:19:16.000Z</time>
</trkpt>
<trkpt lat="46.0492860" lon="9.4304600">
	<ele>816.80</ele>
	<time>2023-07-15T13:19:21.000Z</time>
</trkpt>
<trkpt lat="46.0492520" lon="9.4303850">
	<ele>816.80</ele>
	<time>2023-07-15T13:19:26.000Z</time>
</trkpt>
<trkpt lat="46.0492400" lon="9.4303680">
	<ele>816.80</ele>
	<time>2023-07-15T13:19:27.000Z</time>
</trkpt>
<trkpt lat="46.0492430" lon="9.4303540">
	<ele>816.60</ele>
	<time>2023-07-15T13:19:29.000Z</time>
</trkpt>
<trkpt lat="46.0492460" lon="9.4303500">
	<ele>816.40</ele>
	<time>2023-07-15T13:19:30.000Z</time>
</trkpt>
<trkpt lat="46.0492660" lon="9.4303590">
	<ele>816.40</ele>
	<time>2023-07-15T13:19:31.000Z</time>
</trkpt>
<trkpt lat="46.0492570" lon="9.4303450">
	<ele>816.40</ele>
	<time>2023-07-15T13:19:33.000Z</time>
</trkpt>
<trkpt lat="46.0492610" lon="9.4303410">
	<ele>816.20</ele>
	<time>2023-07-15T13:19:34.000Z</time>
</trkpt>
<trkpt lat="46.0492730" lon="9.4303390">
	<ele>816.20</ele>
	<time>2023-07-15T13:19:35.000Z</time>
</trkpt>
<trkpt lat="46.0492740" lon="9.4303320">
	<ele>816.20</ele>
	<time>2023-07-15T13:19:36.000Z</time>
</trkpt>
<trkpt lat="46.0492740" lon="9.4303240">
	<ele>816.20</ele>
	<time>2023-07-15T13:19:37.000Z</time>
</trkpt>
<trkpt lat="46.0492330" lon="9.4302520">
	<ele>816.00</ele>
	<time>2023-07-15T13:19:41.000Z</time>
</trkpt>
<trkpt lat="46.0492370" lon="9.4302530">
	<ele>815.60</ele>
	<time>2023-07-15T13:19:43.000Z</time>
</trkpt>
<trkpt lat="46.0492570" lon="9.4302500">
	<ele>815.20</ele>
	<time>2023-07-15T13:19:44.000Z</time>
</trkpt>
<trkpt lat="46.0492650" lon="9.4302490">
	<ele>815.20</ele>
	<time>2023-07-15T13:19:45.000Z</time>
</trkpt>
<trkpt lat="46.0492640" lon="9.4302100">
	<ele>815.00</ele>
	<time>2023-07-15T13:19:48.000Z</time>
</trkpt>
<trkpt lat="46.0492360" lon="9.4301760">
	<ele>814.80</ele>
	<time>2023-07-15T13:19:49.000Z</time>
</trkpt>
<trkpt lat="46.0492000" lon="9.4301320">
	<ele>814.60</ele>
	<time>2023-07-15T13:19:50.000Z</time>
</trkpt>
<trkpt lat="46.0491790" lon="9.4300850">
	<ele>814.60</ele>
	<time>2023-07-15T13:19:53.000Z</time>
</trkpt>
<trkpt lat="46.0491690" lon="9.4300660">
	<ele>814.60</ele>
	<time>2023-07-15T13:19:54.000Z</time>
</trkpt>
<trkpt lat="46.0491320" lon="9.4299900">
	<ele>814.60</ele>
	<time>2023-07-15T13:19:58.000Z</time>
</trkpt>
<trkpt lat="46.0491500" lon="9.4299940">
	<ele>814.60</ele>
	<time>2023-07-15T13:19:59.000Z</time>
</trkpt>
<trkpt lat="46.0492110" lon="9.4300080">
	<ele>814.40</ele>
	<time>2023-07-15T13:20:03.000Z</time>
</trkpt>
<trkpt lat="46.0492070" lon="9.4299900">
	<ele>814.20</ele>
	<time>2023-07-15T13:20:05.000Z</time>
</trkpt>
<trkpt lat="46.0492300" lon="9.4299390">
	<ele>814.20</ele>
	<time>2023-07-15T13:20:06.000Z</time>
</trkpt>
<trkpt lat="46.0492650" lon="9.4298150">
	<ele>814.20</ele>
	<time>2023-07-15T13:20:11.000Z</time>
</trkpt>
<trkpt lat="46.0492290" lon="9.4297410">
	<ele>814.20</ele>
	<time>2023-07-15T13:20:14.000Z</time>
</trkpt>
<trkpt lat="46.0492410" lon="9.4297370">
	<ele>814.20</ele>
	<time>2023-07-15T13:20:15.000Z</time>
</trkpt>
<trkpt lat="46.0492360" lon="9.4297150">
	<ele>814.40</ele>
	<time>2023-07-15T13:20:16.000Z</time>
</trkpt>
<trkpt lat="46.0492110" lon="9.4296480">
	<ele>814.60</ele>
	<time>2023-07-15T13:20:19.000Z</time>
</trkpt>
<trkpt lat="46.0491990" lon="9.4296300">
	<ele>814.60</ele>
	<time>2023-07-15T13:20:20.000Z</time>
</trkpt>
<trkpt lat="46.0491740" lon="9.4296040">
	<ele>814.60</ele>
	<time>2023-07-15T13:20:21.000Z</time>
</trkpt>
<trkpt lat="46.0491360" lon="9.4295500">
	<ele>814.40</ele>
	<time>2023-07-15T13:20:24.000Z</time>
</trkpt>
<trkpt lat="46.0491340" lon="9.4295230">
	<ele>814.20</ele>
	<time>2023-07-15T13:20:27.000Z</time>
</trkpt>
<trkpt lat="46.0491280" lon="9.4295070">
	<ele>814.20</ele>
	<time>2023-07-15T13:20:28.000Z</time>
</trkpt>
<trkpt lat="46.0490740" lon="9.4294340">
	<ele>814.20</ele>
	<time>2023-07-15T13:20:30.000Z</time>
</trkpt>
<trkpt lat="46.0490610" lon="9.4293930">
	<ele>814.00</ele>
	<time>2023-07-15T13:20:32.000Z</time>
</trkpt>
<trkpt lat="46.0490650" lon="9.4293790">
	<ele>814.00</ele>
	<time>2023-07-15T13:20:33.000Z</time>
</trkpt>
<trkpt lat="46.0491000" lon="9.4293740">
	<ele>813.80</ele>
	<time>2023-07-15T13:20:35.000Z</time>
</trkpt>
<trkpt lat="46.0491350" lon="9.4293930">
	<ele>813.80</ele>
	<time>2023-07-15T13:20:36.000Z</time>
</trkpt>
<trkpt lat="46.0491470" lon="9.4293660">
	<ele>814.00</ele>
	<time>2023-07-15T13:20:39.000Z</time>
</trkpt>
<trkpt lat="46.0491200" lon="9.4293080">
	<ele>814.20</ele>
	<time>2023-07-15T13:20:41.000Z</time>
</trkpt>
<trkpt lat="46.0490860" lon="9.4292490">
	<ele>814.20</ele>
	<time>2023-07-15T13:20:43.000Z</time>
</trkpt>
<trkpt lat="46.0490660" lon="9.4291830">
	<ele>814.40</ele>
	<time>2023-07-15T13:20:46.000Z</time>
</trkpt>
<trkpt lat="46.0490600" lon="9.4291320">
	<ele>814.60</ele>
	<time>2023-07-15T13:20:49.000Z</time>
</trkpt>
<trkpt lat="46.0490660" lon="9.4291240">
	<ele>814.60</ele>
	<time>2023-07-15T13:20:50.000Z</time>
</trkpt>
<trkpt lat="46.0491000" lon="9.4291020">
	<ele>814.80</ele>
	<time>2023-07-15T13:20:53.000Z</time>
</trkpt>
<trkpt lat="46.0490810" lon="9.4290680">
	<ele>814.80</ele>
	<time>2023-07-15T13:20:54.000Z</time>
</trkpt>
<trkpt lat="46.0490630" lon="9.4290080">
	<ele>814.80</ele>
	<time>2023-07-15T13:20:57.000Z</time>
</trkpt>
<trkpt lat="46.0490460" lon="9.4289780">
	<ele>814.80</ele>
	<time>2023-07-15T13:20:58.000Z</time>
</trkpt>
<trkpt lat="46.0490010" lon="9.4288700">
	<ele>814.80</ele>
	<time>2023-07-15T13:21:03.000Z</time>
</trkpt>
<trkpt lat="46.0489990" lon="9.4288510">
	<ele>814.60</ele>
	<time>2023-07-15T13:21:04.000Z</time>
</trkpt>
<trkpt lat="46.0489540" lon="9.4286940">
	<ele>814.40</ele>
	<time>2023-07-15T13:21:09.000Z</time>
</trkpt>
<trkpt lat="46.0489370" lon="9.4286390">
	<ele>814.20</ele>
	<time>2023-07-15T13:21:11.000Z</time>
</trkpt>
<trkpt lat="46.0489480" lon="9.4286320">
	<ele>814.20</ele>
	<time>2023-07-15T13:21:12.000Z</time>
</trkpt>
<trkpt lat="46.0489490" lon="9.4286170">
	<ele>814.20</ele>
	<time>2023-07-15T13:21:13.000Z</time>
</trkpt>
<trkpt lat="46.0489490" lon="9.4285850">
	<ele>814.20</ele>
	<time>2023-07-15T13:21:15.000Z</time>
</trkpt>
<trkpt lat="46.0489670" lon="9.4285750">
	<ele>814.20</ele>
	<time>2023-07-15T13:21:17.000Z</time>
</trkpt>
<trkpt lat="46.0489840" lon="9.4285780">
	<ele>814.20</ele>
	<time>2023-07-15T13:21:19.000Z</time>
</trkpt>
<trkpt lat="46.0489820" lon="9.4285690">
	<ele>814.20</ele>
	<time>2023-07-15T13:21:20.000Z</time>
</trkpt>
<trkpt lat="46.0489710" lon="9.4285450">
	<ele>814.00</ele>
	<time>2023-07-15T13:21:22.000Z</time>
</trkpt>
<trkpt lat="46.0489670" lon="9.4285190">
	<ele>813.80</ele>
	<time>2023-07-15T13:21:24.000Z</time>
</trkpt>
<trkpt lat="46.0489410" lon="9.4284730">
	<ele>813.80</ele>
	<time>2023-07-15T13:21:26.000Z</time>
</trkpt>
<trkpt lat="46.0488590" lon="9.4283710">
	<ele>813.60</ele>
	<time>2023-07-15T13:21:29.000Z</time>
</trkpt>
<trkpt lat="46.0488220" lon="9.4283270">
	<ele>813.60</ele>
	<time>2023-07-15T13:21:31.000Z</time>
</trkpt>
<trkpt lat="46.0488220" lon="9.4283220">
	<ele>813.40</ele>
	<time>2023-07-15T13:21:32.000Z</time>
</trkpt>
<trkpt lat="46.0488000" lon="9.4283010">
	<ele>813.20</ele>
	<time>2023-07-15T13:21:35.000Z</time>
</trkpt>
<trkpt lat="46.0487930" lon="9.4282950">
	<ele>813.00</ele>
	<time>2023-07-15T13:21:36.000Z</time>
</trkpt>
<trkpt lat="46.0487780" lon="9.4282830">
	<ele>812.80</ele>
	<time>2023-07-15T13:21:37.000Z</time>
</trkpt>
<trkpt lat="46.0487220" lon="9.4282290">
	<ele>812.40</ele>
	<time>2023-07-15T13:21:40.000Z</time>
</trkpt>
<trkpt lat="46.0486910" lon="9.4282020">
	<ele>812.00</ele>
	<time>2023-07-15T13:21:42.000Z</time>
</trkpt>
<trkpt lat="46.0486720" lon="9.4281890">
	<ele>811.20</ele>
	<time>2023-07-15T13:21:45.000Z</time>
</trkpt>
<trkpt lat="46.0486480" lon="9.4281660">
	<ele>811.00</ele>
	<time>2023-07-15T13:21:47.000Z</time>
</trkpt>
<trkpt lat="46.0486310" lon="9.4281510">
	<ele>810.80</ele>
	<time>2023-07-15T13:21:48.000Z</time>
</trkpt>
<trkpt lat="46.0486090" lon="9.4281300">
	<ele>810.40</ele>
	<time>2023-07-15T13:21:50.000Z</time>
</trkpt>
<trkpt lat="46.0486040" lon="9.4281300">
	<ele>810.20</ele>
	<time>2023-07-15T13:21:51.000Z</time>
</trkpt>
<trkpt lat="46.0485620" lon="9.4281150">
	<ele>809.80</ele>
	<time>2023-07-15T13:21:55.000Z</time>
</trkpt>
<trkpt lat="46.0485190" lon="9.4280680">
	<ele>809.20</ele>
	<time>2023-07-15T13:21:57.000Z</time>
</trkpt>
<trkpt lat="46.0484860" lon="9.4280410">
	<ele>808.60</ele>
	<time>2023-07-15T13:21:59.000Z</time>
</trkpt>
<trkpt lat="46.0485220" lon="9.4280770">
	<ele>808.00</ele>
	<time>2023-07-15T13:22:02.000Z</time>
</trkpt>
<trkpt lat="46.0485220" lon="9.4280810">
	<ele>807.80</ele>
	<time>2023-07-15T13:22:05.000Z</time>
</trkpt>
<trkpt lat="46.0485080" lon="9.4280680">
	<ele>807.80</ele>
	<time>2023-07-15T13:22:06.000Z</time>
</trkpt>
<trkpt lat="46.0484780" lon="9.4280420">
	<ele>807.60</ele>
	<time>2023-07-15T13:22:08.000Z</time>
</trkpt>
<trkpt lat="46.0484430" lon="9.4280540">
	<ele>806.40</ele>
	<time>2023-07-15T13:22:12.000Z</time>
</trkpt>
<trkpt lat="46.0484420" lon="9.4280610">
	<ele>806.20</ele>
	<time>2023-07-15T13:22:13.000Z</time>
</trkpt>
<trkpt lat="46.0484200" lon="9.4280480">
	<ele>806.00</ele>
	<time>2023-07-15T13:22:15.000Z</time>
</trkpt>
<trkpt lat="46.0483970" lon="9.4280170">
	<ele>805.60</ele>
	<time>2023-07-15T13:22:17.000Z</time>
</trkpt>
<trkpt lat="46.0483820" lon="9.4279910">
	<ele>805.40</ele>
	<time>2023-07-15T13:22:18.000Z</time>
</trkpt>
<trkpt lat="46.0483310" lon="9.4279350">
	<ele>804.80</ele>
	<time>2023-07-15T13:22:20.000Z</time>
</trkpt>
<trkpt lat="46.0482580" lon="9.4278890">
	<ele>804.20</ele>
	<time>2023-07-15T13:22:24.000Z</time>
</trkpt>
<trkpt lat="46.0482340" lon="9.4278760">
	<ele>804.00</ele>
	<time>2023-07-15T13:22:25.000Z</time>
</trkpt>
<trkpt lat="46.0481900" lon="9.4278610">
	<ele>804.00</ele>
	<time>2023-07-15T13:22:27.000Z</time>
</trkpt>
<trkpt lat="46.0481590" lon="9.4278490">
	<ele>803.80</ele>
	<time>2023-07-15T13:22:30.000Z</time>
</trkpt>
<trkpt lat="46.0481390" lon="9.4278270">
	<ele>803.20</ele>
	<time>2023-07-15T13:22:32.000Z</time>
</trkpt>
<trkpt lat="46.0481190" lon="9.4277970">
	<ele>803.20</ele>
	<time>2023-07-15T13:22:33.000Z</time>
</trkpt>
<trkpt lat="46.0480610" lon="9.4277300">
	<ele>802.60</ele>
	<time>2023-07-15T13:22:39.000Z</time>
</trkpt>
<trkpt lat="46.0480530" lon="9.4277050">
	<ele>802.40</ele>
	<time>2023-07-15T13:22:42.000Z</time>
</trkpt>
<trkpt lat="46.0480830" lon="9.4276430">
	<ele>802.20</ele>
	<time>2023-07-15T13:22:45.000Z</time>
</trkpt>
<trkpt lat="46.0480910" lon="9.4276320">
	<ele>802.20</ele>
	<time>2023-07-15T13:22:46.000Z</time>
</trkpt>
<trkpt lat="46.0481010" lon="9.4276010">
	<ele>801.40</ele>
	<time>2023-07-15T13:22:51.000Z</time>
</trkpt>
<trkpt lat="46.0480990" lon="9.4275820">
	<ele>801.00</ele>
	<time>2023-07-15T13:22:52.000Z</time>
</trkpt>
<trkpt lat="46.0480860" lon="9.4275360">
	<ele>800.60</ele>
	<time>2023-07-15T13:22:55.000Z</time>
</trkpt>
<trkpt lat="46.0480620" lon="9.4275110">
	<ele>800.40</ele>
	<time>2023-07-15T13:22:56.000Z</time>
</trkpt>
<trkpt lat="46.0480090" lon="9.4274450">
	<ele>800.00</ele>
	<time>2023-07-15T13:22:59.000Z</time>
</trkpt>
<trkpt lat="46.0480030" lon="9.4274130">
	<ele>799.60</ele>
	<time>2023-07-15T13:23:02.000Z</time>
</trkpt>
<trkpt lat="46.0480050" lon="9.4273940">
	<ele>799.20</ele>
	<time>2023-07-15T13:23:04.000Z</time>
</trkpt>
<trkpt lat="46.0479870" lon="9.4273750">
	<ele>799.00</ele>
	<time>2023-07-15T13:23:05.000Z</time>
</trkpt>
<trkpt lat="46.0479460" lon="9.4273450">
	<ele>798.40</ele>
	<time>2023-07-15T13:23:08.000Z</time>
</trkpt>
<trkpt lat="46.0479460" lon="9.4273360">
	<ele>798.20</ele>
	<time>2023-07-15T13:23:09.000Z</time>
</trkpt>
<trkpt lat="46.0479180" lon="9.4272960">
	<ele>798.00</ele>
	<time>2023-07-15T13:23:11.000Z</time>
</trkpt>
<trkpt lat="46.0479210" lon="9.4272860">
	<ele>797.80</ele>
	<time>2023-07-15T13:23:12.000Z</time>
</trkpt>
<trkpt lat="46.0479360" lon="9.4272750">
	<ele>797.60</ele>
	<time>2023-07-15T13:23:13.000Z</time>
</trkpt>
<trkpt lat="46.0479380" lon="9.4272750">
	<ele>797.20</ele>
	<time>2023-07-15T13:23:15.000Z</time>
</trkpt>
<trkpt lat="46.0479260" lon="9.4272610">
	<ele>797.00</ele>
	<time>2023-07-15T13:23:16.000Z</time>
</trkpt>
<trkpt lat="46.0479300" lon="9.4272540">
	<ele>796.80</ele>
	<time>2023-07-15T13:23:17.000Z</time>
</trkpt>
<trkpt lat="46.0479060" lon="9.4272060">
	<ele>796.60</ele>
	<time>2023-07-15T13:23:20.000Z</time>
</trkpt>
<trkpt lat="46.0478940" lon="9.4271550">
	<ele>796.40</ele>
	<time>2023-07-15T13:23:23.000Z</time>
</trkpt>
<trkpt lat="46.0479040" lon="9.4271370">
	<ele>796.00</ele>
	<time>2023-07-15T13:23:25.000Z</time>
</trkpt>
<trkpt lat="46.0479330" lon="9.4271510">
	<ele>795.80</ele>
	<time>2023-07-15T13:23:26.000Z</time>
</trkpt>
<trkpt lat="46.0479920" lon="9.4271370">
	<ele>795.00</ele>
	<time>2023-07-15T13:23:30.000Z</time>
</trkpt>
<trkpt lat="46.0479980" lon="9.4271160">
	<ele>794.80</ele>
	<time>2023-07-15T13:23:32.000Z</time>
</trkpt>
<trkpt lat="46.0479880" lon="9.4270790">
	<ele>794.60</ele>
	<time>2023-07-15T13:23:34.000Z</time>
</trkpt>
<trkpt lat="46.0479690" lon="9.4270450">
	<ele>794.80</ele>
	<time>2023-07-15T13:23:36.000Z</time>
</trkpt>
<trkpt lat="46.0479680" lon="9.4270340">
	<ele>794.80</ele>
	<time>2023-07-15T13:23:38.000Z</time>
</trkpt>
<trkpt lat="46.0479670" lon="9.4270340">
	<ele>794.80</ele>
	<time>2023-07-15T13:23:39.000Z</time>
</trkpt>
<trkpt lat="46.0479680" lon="9.4270350">
	<ele>794.80</ele>
	<time>2023-07-15T13:23:41.000Z</time>
</trkpt>
<trkpt lat="46.0479720" lon="9.4270320">
	<ele>794.80</ele>
	<time>2023-07-15T13:23:45.000Z</time>
</trkpt>
<trkpt lat="46.0479750" lon="9.4270170">
	<ele>794.40</ele>
	<time>2023-07-15T13:23:47.000Z</time>
</trkpt>
<trkpt lat="46.0479610" lon="9.4269990">
	<ele>794.20</ele>
	<time>2023-07-15T13:23:48.000Z</time>
</trkpt>
<trkpt lat="46.0479270" lon="9.4269570">
	<ele>794.20</ele>
	<time>2023-07-15T13:23:51.000Z</time>
</trkpt>
<trkpt lat="46.0479290" lon="9.4269590">
	<ele>794.20</ele>
	<time>2023-07-15T13:23:52.000Z</time>
</trkpt>
<trkpt lat="46.0479340" lon="9.4269630">
	<ele>794.20</ele>
	<time>2023-07-15T13:23:57.000Z</time>
</trkpt>
<trkpt lat="46.0479340" lon="9.4269640">
	<ele>794.40</ele>
	<time>2023-07-15T13:23:59.000Z</time>
</trkpt>
<trkpt lat="46.0479570" lon="9.4269560">
	<ele>794.40</ele>
	<time>2023-07-15T13:24:02.000Z</time>
</trkpt>
<trkpt lat="46.0479700" lon="9.4269500">
	<ele>794.20</ele>
	<time>2023-07-15T13:24:04.000Z</time>
</trkpt>
<trkpt lat="46.0479720" lon="9.4269500">
	<ele>794.20</ele>
	<time>2023-07-15T13:24:06.000Z</time>
</trkpt>
<trkpt lat="46.0479790" lon="9.4269580">
	<ele>794.40</ele>
	<time>2023-07-15T13:24:08.000Z</time>
</trkpt>
<trkpt lat="46.0479790" lon="9.4269580">
	<ele>794.40</ele>
	<time>2023-07-15T13:24:09.000Z</time>
</trkpt>
<trkpt lat="46.0479810" lon="9.4269590">
	<ele>794.40</ele>
	<time>2023-07-15T13:24:11.000Z</time>
</trkpt>
<trkpt lat="46.0480030" lon="9.4269790">
	<ele>794.20</ele>
	<time>2023-07-15T13:24:13.000Z</time>
</trkpt>
<trkpt lat="46.0480650" lon="9.4270190">
	<ele>794.00</ele>
	<time>2023-07-15T13:24:16.000Z</time>
</trkpt>
<trkpt lat="46.0480790" lon="9.4270110">
	<ele>794.00</ele>
	<time>2023-07-15T13:24:18.000Z</time>
</trkpt>
<trkpt lat="46.0480980" lon="9.4270180">
	<ele>794.20</ele>
	<time>2023-07-15T13:24:19.000Z</time>
</trkpt>
<trkpt lat="46.0481360" lon="9.4270260">
	<ele>794.20</ele>
	<time>2023-07-15T13:24:21.000Z</time>
</trkpt>
<trkpt lat="46.0481530" lon="9.4270000">
	<ele>794.00</ele>
	<time>2023-07-15T13:24:24.000Z</time>
</trkpt>
<trkpt lat="46.0481520" lon="9.4269730">
	<ele>794.00</ele>
	<time>2023-07-15T13:24:26.000Z</time>
</trkpt>
<trkpt lat="46.0481430" lon="9.4269320">
	<ele>794.00</ele>
	<time>2023-07-15T13:24:28.000Z</time>
</trkpt>
<trkpt lat="46.0481440" lon="9.4269160">
	<ele>794.00</ele>
	<time>2023-07-15T13:24:29.000Z</time>
</trkpt>
<trkpt lat="46.0481230" lon="9.4268690">
	<ele>794.20</ele>
	<time>2023-07-15T13:24:31.000Z</time>
</trkpt>
<trkpt lat="46.0481180" lon="9.4268030">
	<ele>794.60</ele>
	<time>2023-07-15T13:24:34.000Z</time>
</trkpt>
<trkpt lat="46.0481250" lon="9.4267950">
	<ele>794.80</ele>
	<time>2023-07-15T13:24:35.000Z</time>
</trkpt>
<trkpt lat="46.0481350" lon="9.4267930">
	<ele>794.80</ele>
	<time>2023-07-15T13:24:36.000Z</time>
</trkpt>
<trkpt lat="46.0481320" lon="9.4267750">
	<ele>795.00</ele>
	<time>2023-07-15T13:24:37.000Z</time>
</trkpt>
<trkpt lat="46.0481250" lon="9.4267470">
	<ele>795.00</ele>
	<time>2023-07-15T13:24:39.000Z</time>
</trkpt>
<trkpt lat="46.0481170" lon="9.4267310">
	<ele>795.00</ele>
	<time>2023-07-15T13:24:40.000Z</time>
</trkpt>
<trkpt lat="46.0480730" lon="9.4266870">
	<ele>795.20</ele>
	<time>2023-07-15T13:24:44.000Z</time>
</trkpt>
<trkpt lat="46.0480350" lon="9.4266150">
	<ele>795.20</ele>
	<time>2023-07-15T13:24:48.000Z</time>
</trkpt>
<trkpt lat="46.0479940" lon="9.4265650">
	<ele>795.20</ele>
	<time>2023-07-15T13:24:49.000Z</time>
</trkpt>
<trkpt lat="46.0479540" lon="9.4265140">
	<ele>795.20</ele>
	<time>2023-07-15T13:24:51.000Z</time>
</trkpt>
<trkpt lat="46.0479530" lon="9.4264970">
	<ele>795.20</ele>
	<time>2023-07-15T13:24:52.000Z</time>
</trkpt>
<trkpt lat="46.0479550" lon="9.4264800">
	<ele>795.20</ele>
	<time>2023-07-15T13:24:55.000Z</time>
</trkpt>
<trkpt lat="46.0479800" lon="9.4265090">
	<ele>795.20</ele>
	<time>2023-07-15T13:24:59.000Z</time>
</trkpt>
<trkpt lat="46.0479830" lon="9.4265510">
	<ele>795.00</ele>
	<time>2023-07-15T13:25:01.000Z</time>
</trkpt>
<trkpt lat="46.0479850" lon="9.4265750">
	<ele>795.00</ele>
	<time>2023-07-15T13:25:05.000Z</time>
</trkpt>
<trkpt lat="46.0479850" lon="9.4265720">
	<ele>795.00</ele>
	<time>2023-07-15T13:25:06.000Z</time>
</trkpt>
<trkpt lat="46.0479820" lon="9.4265760">
	<ele>795.00</ele>
	<time>2023-07-15T13:25:08.000Z</time>
</trkpt>
<trkpt lat="46.0479830" lon="9.4265760">
	<ele>795.00</ele>
	<time>2023-07-15T13:25:10.000Z</time>
</trkpt>
<trkpt lat="46.0479850" lon="9.4265860">
	<ele>795.00</ele>
	<time>2023-07-15T13:25:13.000Z</time>
</trkpt>
<trkpt lat="46.0479910" lon="9.4266010">
	<ele>795.00</ele>
	<time>2023-07-15T13:25:15.000Z</time>
</trkpt>
<trkpt lat="46.0479930" lon="9.4266160">
	<ele>795.00</ele>
	<time>2023-07-15T13:25:23.000Z</time>
</trkpt>
<trkpt lat="46.0479920" lon="9.4266170">
	<ele>795.00</ele>
	<time>2023-07-15T13:25:26.000Z</time>
</trkpt>
<trkpt lat="46.0479240" lon="9.4265530">
	<ele>794.80</ele>
	<time>2023-07-15T13:25:33.000Z</time>
</trkpt>
<trkpt lat="46.0479150" lon="9.4265400">
	<ele>794.80</ele>
	<time>2023-07-15T13:25:35.000Z</time>
</trkpt>
<trkpt lat="46.0478970" lon="9.4265280">
	<ele>794.80</ele>
	<time>2023-07-15T13:25:38.000Z</time>
</trkpt>
<trkpt lat="46.0478540" lon="9.4265320">
	<ele>795.00</ele>
	<time>2023-07-15T13:25:45.000Z</time>
</trkpt>
<trkpt lat="46.0477310" lon="9.4265190">
	<ele>795.00</ele>
	<time>2023-07-15T13:25:55.000Z</time>
</trkpt>
<trkpt lat="46.0476950" lon="9.4265270">
	<ele>794.60</ele>
	<time>2023-07-15T13:25:58.000Z</time>
</trkpt>
<trkpt lat="46.0476810" lon="9.4265310">
	<ele>794.60</ele>
	<time>2023-07-15T13:26:00.000Z</time>
</trkpt>
<trkpt lat="46.0476750" lon="9.4265280">
	<ele>795.40</ele>
	<time>2023-07-15T13:26:08.000Z</time>
</trkpt>
<trkpt lat="46.0476760" lon="9.4265270">
	<ele>795.40</ele>
	<time>2023-07-15T13:26:10.000Z</time>
</trkpt>
<trkpt lat="46.0476690" lon="9.4265230">
	<ele>795.20</ele>
	<time>2023-07-15T13:26:12.000Z</time>
</trkpt>
<trkpt lat="46.0477010" lon="9.4265430">
	<ele>795.00</ele>
	<time>2023-07-15T13:26:15.000Z</time>
</trkpt>
<trkpt lat="46.0476970" lon="9.4265300">
	<ele>794.60</ele>
	<time>2023-07-15T13:26:21.000Z</time>
</trkpt>
<trkpt lat="46.0476850" lon="9.4265230">
	<ele>794.80</ele>
	<time>2023-07-15T13:26:24.000Z</time>
</trkpt>
<trkpt lat="46.0476840" lon="9.4265150">
	<ele>794.80</ele>
	<time>2023-07-15T13:26:26.000Z</time>
</trkpt>
<trkpt lat="46.0477100" lon="9.4265400">
	<ele>794.80</ele>
	<time>2023-07-15T13:26:27.000Z</time>
</trkpt>
<trkpt lat="46.0477440" lon="9.4265580">
	<ele>794.80</ele>
	<time>2023-07-15T13:26:31.000Z</time>
</trkpt>
<trkpt lat="46.0477400" lon="9.4264960">
	<ele>794.80</ele>
	<time>2023-07-15T13:26:36.000Z</time>
</trkpt>
<trkpt lat="46.0477400" lon="9.4264670">
	<ele>794.80</ele>
	<time>2023-07-15T13:26:43.000Z</time>
</trkpt>
<trkpt lat="46.0477520" lon="9.4264620">
	<ele>794.80</ele>
	<time>2023-07-15T13:26:45.000Z</time>
</trkpt>
<trkpt lat="46.0477490" lon="9.4264450">
	<ele>794.80</ele>
	<time>2023-07-15T13:26:48.000Z</time>
</trkpt>
<trkpt lat="46.0477840" lon="9.4264310">
	<ele>794.80</ele>
	<time>2023-07-15T13:26:53.000Z</time>
</trkpt>
<trkpt lat="46.0477800" lon="9.4264100">
	<ele>794.80</ele>
	<time>2023-07-15T13:26:55.000Z</time>
</trkpt>
<trkpt lat="46.0477650" lon="9.4263800">
	<ele>794.80</ele>
	<time>2023-07-15T13:26:57.000Z</time>
</trkpt>
<trkpt lat="46.0477810" lon="9.4264000">
	<ele>795.40</ele>
	<time>2023-07-15T13:27:03.000Z</time>
</trkpt>
<trkpt lat="46.0477760" lon="9.4264120">
	<ele>795.40</ele>
	<time>2023-07-15T13:27:06.000Z</time>
</trkpt>
<trkpt lat="46.0477730" lon="9.4264150">
	<ele>795.00</ele>
	<time>2023-07-15T13:27:10.000Z</time>
</trkpt>
<trkpt lat="46.0477670" lon="9.4264090">
	<ele>794.80</ele>
	<time>2023-07-15T13:27:11.000Z</time>
</trkpt>
<trkpt lat="46.0477640" lon="9.4264050">
	<ele>794.80</ele>
	<time>2023-07-15T13:27:13.000Z</time>
</trkpt>
<trkpt lat="46.0477630" lon="9.4263950">
	<ele>794.80</ele>
	<time>2023-07-15T13:27:16.000Z</time>
</trkpt>
<trkpt lat="46.0477440" lon="9.4263570">
	<ele>794.80</ele>
	<time>2023-07-15T13:27:25.000Z</time>
</trkpt>
<trkpt lat="46.0477340" lon="9.4263470">
	<ele>794.80</ele>
	<time>2023-07-15T13:27:26.000Z</time>
</trkpt>
<trkpt lat="46.0477420" lon="9.4263560">
	<ele>794.80</ele>
	<time>2023-07-15T13:27:30.000Z</time>
</trkpt>
<trkpt lat="46.0477510" lon="9.4263600">
	<ele>794.80</ele>
	<time>2023-07-15T13:27:31.000Z</time>
</trkpt>
<trkpt lat="46.0477530" lon="9.4263750">
	<ele>794.80</ele>
	<time>2023-07-15T13:27:33.000Z</time>
</trkpt>
<trkpt lat="46.0477490" lon="9.4263820">
	<ele>794.80</ele>
	<time>2023-07-15T13:27:35.000Z</time>
</trkpt>
<trkpt lat="46.0477550" lon="9.4263980">
	<ele>794.80</ele>
	<time>2023-07-15T13:27:38.000Z</time>
</trkpt>
<trkpt lat="46.0477400" lon="9.4264140">
	<ele>794.60</ele>
	<time>2023-07-15T13:27:41.000Z</time>
</trkpt>
<trkpt lat="46.0477450" lon="9.4264270">
	<ele>794.60</ele>
	<time>2023-07-15T13:27:43.000Z</time>
</trkpt>
<trkpt lat="46.0477560" lon="9.4264360">
	<ele>794.60</ele>
	<time>2023-07-15T13:27:45.000Z</time>
</trkpt>
<trkpt lat="46.0477320" lon="9.4264020">
	<ele>794.80</ele>
	<time>2023-07-15T13:27:49.000Z</time>
</trkpt>
<trkpt lat="46.0476870" lon="9.4263350">
	<ele>794.80</ele>
	<time>2023-07-15T13:27:56.000Z</time>
</trkpt>
<trkpt lat="46.0476820" lon="9.4262450">
	<ele>794.60</ele>
	<time>2023-07-15T13:28:01.000Z</time>
</trkpt>
<trkpt lat="46.0477150" lon="9.4261470">
	<ele>794.40</ele>
	<time>2023-07-15T13:28:08.000Z</time>
</trkpt>
<trkpt lat="46.0477160" lon="9.4260840">
	<ele>794.00</ele>
	<time>2023-07-15T13:28:11.000Z</time>
</trkpt>
<trkpt lat="46.0477720" lon="9.4260360">
	<ele>793.80</ele>
	<time>2023-07-15T13:28:16.000Z</time>
</trkpt>
<trkpt lat="46.0477660" lon="9.4260070">
	<ele>793.80</ele>
	<time>2023-07-15T13:28:17.000Z</time>
</trkpt>
<trkpt lat="46.0477490" lon="9.4259450">
	<ele>793.80</ele>
	<time>2023-07-15T13:28:19.000Z</time>
</trkpt>
<trkpt lat="46.0477410" lon="9.4259150">
	<ele>793.60</ele>
	<time>2023-07-15T13:28:20.000Z</time>
</trkpt>
<trkpt lat="46.0477260" lon="9.4258780">
	<ele>793.60</ele>
	<time>2023-07-15T13:28:21.000Z</time>
</trkpt>
<trkpt lat="46.0476890" lon="9.4257490">
	<ele>793.40</ele>
	<time>2023-07-15T13:28:25.000Z</time>
</trkpt>
<trkpt lat="46.0476860" lon="9.4256850">
	<ele>793.20</ele>
	<time>2023-07-15T13:28:28.000Z</time>
</trkpt>
<trkpt lat="46.0477110" lon="9.4256630">
	<ele>793.20</ele>
	<time>2023-07-15T13:28:31.000Z</time>
</trkpt>
<trkpt lat="46.0477210" lon="9.4256630">
	<ele>793.20</ele>
	<time>2023-07-15T13:28:32.000Z</time>
</trkpt>
<trkpt lat="46.0477290" lon="9.4256050">
	<ele>793.20</ele>
	<time>2023-07-15T13:28:35.000Z</time>
</trkpt>
<trkpt lat="46.0477450" lon="9.4255850">
	<ele>793.20</ele>
	<time>2023-07-15T13:28:37.000Z</time>
</trkpt>
<trkpt lat="46.0477700" lon="9.4256130">
	<ele>793.20</ele>
	<time>2023-07-15T13:28:38.000Z</time>
</trkpt>
<trkpt lat="46.0478430" lon="9.4256790">
	<ele>793.20</ele>
	<time>2023-07-15T13:28:42.000Z</time>
</trkpt>
<trkpt lat="46.0478450" lon="9.4256630">
	<ele>793.20</ele>
	<time>2023-07-15T13:28:43.000Z</time>
</trkpt>
<trkpt lat="46.0478350" lon="9.4256380">
	<ele>793.20</ele>
	<time>2023-07-15T13:28:44.000Z</time>
</trkpt>
<trkpt lat="46.0478610" lon="9.4256280">
	<ele>793.20</ele>
	<time>2023-07-15T13:28:46.000Z</time>
</trkpt>
<trkpt lat="46.0478570" lon="9.4256090">
	<ele>793.20</ele>
	<time>2023-07-15T13:28:47.000Z</time>
</trkpt>
<trkpt lat="46.0478730" lon="9.4255960">
	<ele>793.20</ele>
	<time>2023-07-15T13:28:49.000Z</time>
</trkpt>
<trkpt lat="46.0478720" lon="9.4255850">
	<ele>793.20</ele>
	<time>2023-07-15T13:28:50.000Z</time>
</trkpt>
<trkpt lat="46.0478700" lon="9.4255580">
	<ele>793.20</ele>
	<time>2023-07-15T13:28:53.000Z</time>
</trkpt>
<trkpt lat="46.0479000" lon="9.4255930">
	<ele>793.20</ele>
	<time>2023-07-15T13:28:55.000Z</time>
</trkpt>
<trkpt lat="46.0478850" lon="9.4255710">
	<ele>793.20</ele>
	<time>2023-07-15T13:28:56.000Z</time>
</trkpt>
<trkpt lat="46.0478830" lon="9.4255600">
	<ele>793.20</ele>
	<time>2023-07-15T13:28:57.000Z</time>
</trkpt>
<trkpt lat="46.0478910" lon="9.4255650">
	<ele>793.20</ele>
	<time>2023-07-15T13:28:58.000Z</time>
</trkpt>
<trkpt lat="46.0478660" lon="9.4255430">
	<ele>793.20</ele>
	<time>2023-07-15T13:28:59.000Z</time>
</trkpt>
<trkpt lat="46.0478530" lon="9.4255170">
	<ele>793.20</ele>
	<time>2023-07-15T13:29:01.000Z</time>
</trkpt>
<trkpt lat="46.0478620" lon="9.4255060">
	<ele>793.40</ele>
	<time>2023-07-15T13:29:03.000Z</time>
</trkpt>
<trkpt lat="46.0478400" lon="9.4254720">
	<ele>793.40</ele>
	<time>2023-07-15T13:29:04.000Z</time>
</trkpt>
<trkpt lat="46.0478130" lon="9.4254280">
	<ele>793.40</ele>
	<time>2023-07-15T13:29:06.000Z</time>
</trkpt>
<trkpt lat="46.0478170" lon="9.4254210">
	<ele>793.40</ele>
	<time>2023-07-15T13:29:07.000Z</time>
</trkpt>
<trkpt lat="46.0478170" lon="9.4254040">
	<ele>793.20</ele>
	<time>2023-07-15T13:29:08.000Z</time>
</trkpt>
<trkpt lat="46.0477690" lon="9.4252140">
	<ele>793.40</ele>
	<time>2023-07-15T13:29:14.000Z</time>
</trkpt>
<trkpt lat="46.0477530" lon="9.4251540">
	<ele>793.40</ele>
	<time>2023-07-15T13:29:16.000Z</time>
</trkpt>
<trkpt lat="46.0477500" lon="9.4251080">
	<ele>793.40</ele>
	<time>2023-07-15T13:29:18.000Z</time>
</trkpt>
<trkpt lat="46.0477540" lon="9.4250480">
	<ele>793.40</ele>
	<time>2023-07-15T13:29:21.000Z</time>
</trkpt>
<trkpt lat="46.0477590" lon="9.4250180">
	<ele>793.40</ele>
	<time>2023-07-15T13:29:23.000Z</time>
</trkpt>
<trkpt lat="46.0477120" lon="9.4247610">
	<ele>793.00</ele>
	<time>2023-07-15T13:29:32.000Z</time>
</trkpt>
<trkpt lat="46.0477090" lon="9.4247360">
	<ele>793.00</ele>
	<time>2023-07-15T13:29:33.000Z</time>
</trkpt>
<trkpt lat="46.0477110" lon="9.4246920">
	<ele>793.00</ele>
	<time>2023-07-15T13:29:35.000Z</time>
</trkpt>
<trkpt lat="46.0477080" lon="9.4246520">
	<ele>793.00</ele>
	<time>2023-07-15T13:29:37.000Z</time>
</trkpt>
<trkpt lat="46.0477100" lon="9.4246390">
	<ele>793.00</ele>
	<time>2023-07-15T13:29:38.000Z</time>
</trkpt>
<trkpt lat="46.0477090" lon="9.4245820">
	<ele>792.80</ele>
	<time>2023-07-15T13:29:42.000Z</time>
</trkpt>
<trkpt lat="46.0477150" lon="9.4245520">
	<ele>792.60</ele>
	<time>2023-07-15T13:29:44.000Z</time>
</trkpt>
<trkpt lat="46.0476950" lon="9.4244770">
	<ele>792.00</ele>
	<time>2023-07-15T13:29:48.000Z</time>
</trkpt>
<trkpt lat="46.0476840" lon="9.4244070">
	<ele>791.60</ele>
	<time>2023-07-15T13:29:51.000Z</time>
</trkpt>
<trkpt lat="46.0476820" lon="9.4243910">
	<ele>791.60</ele>
	<time>2023-07-15T13:29:52.000Z</time>
</trkpt>
<trkpt lat="46.0476740" lon="9.4243490">
	<ele>791.20</ele>
	<time>2023-07-15T13:29:54.000Z</time>
</trkpt>
<trkpt lat="46.0476510" lon="9.4242670">
	<ele>790.80</ele>
	<time>2023-07-15T13:29:58.000Z</time>
</trkpt>
<trkpt lat="46.0476460" lon="9.4242510">
	<ele>790.80</ele>
	<time>2023-07-15T13:29:59.000Z</time>
</trkpt>
<trkpt lat="46.0476560" lon="9.4242470">
	<ele>790.60</ele>
	<time>2023-07-15T13:30:01.000Z</time>
</trkpt>
<trkpt lat="46.0476650" lon="9.4242350">
	<ele>790.40</ele>
	<time>2023-07-15T13:30:03.000Z</time>
</trkpt>
<trkpt lat="46.0476620" lon="9.4242230">
	<ele>790.40</ele>
	<time>2023-07-15T13:30:04.000Z</time>
</trkpt>
<trkpt lat="46.0476570" lon="9.4242100">
	<ele>790.40</ele>
	<time>2023-07-15T13:30:05.000Z</time>
</trkpt>
<trkpt lat="46.0476340" lon="9.4241220">
	<ele>790.00</ele>
	<time>2023-07-15T13:30:11.000Z</time>
</trkpt>
<trkpt lat="46.0476060" lon="9.4240560">
	<ele>789.80</ele>
	<time>2023-07-15T13:30:14.000Z</time>
</trkpt>
<trkpt lat="46.0475780" lon="9.4239510">
	<ele>789.60</ele>
	<time>2023-07-15T13:30:19.000Z</time>
</trkpt>
<trkpt lat="46.0475680" lon="9.4239320">
	<ele>789.40</ele>
	<time>2023-07-15T13:30:20.000Z</time>
</trkpt>
<trkpt lat="46.0475550" lon="9.4238990">
	<ele>789.40</ele>
	<time>2023-07-15T13:30:22.000Z</time>
</trkpt>
<trkpt lat="46.0474590" lon="9.4236860">
	<ele>788.40</ele>
	<time>2023-07-15T13:30:32.000Z</time>
</trkpt>
<trkpt lat="46.0473960" lon="9.4235350">
	<ele>787.80</ele>
	<time>2023-07-15T13:30:39.000Z</time>
</trkpt>
<trkpt lat="46.0473870" lon="9.4235130">
	<ele>787.60</ele>
	<time>2023-07-15T13:30:40.000Z</time>
</trkpt>
<trkpt lat="46.0473800" lon="9.4234190">
	<ele>787.60</ele>
	<time>2023-07-15T13:30:45.000Z</time>
</trkpt>
<trkpt lat="46.0473360" lon="9.4232670">
	<ele>787.40</ele>
	<time>2023-07-15T13:30:50.000Z</time>
</trkpt>
<trkpt lat="46.0473130" lon="9.4232140">
	<ele>787.20</ele>
	<time>2023-07-15T13:30:52.000Z</time>
</trkpt>
<trkpt lat="46.0472890" lon="9.4231290">
	<ele>787.40</ele>
	<time>2023-07-15T13:30:56.000Z</time>
</trkpt>
<trkpt lat="46.0472800" lon="9.4230880">
	<ele>787.40</ele>
	<time>2023-07-15T13:30:58.000Z</time>
</trkpt>
<trkpt lat="46.0472780" lon="9.4230420">
	<ele>787.20</ele>
	<time>2023-07-15T13:31:00.000Z</time>
</trkpt>
<trkpt lat="46.0472760" lon="9.4230190">
	<ele>787.20</ele>
	<time>2023-07-15T13:31:01.000Z</time>
</trkpt>
<trkpt lat="46.0472660" lon="9.4229730">
	<ele>787.20</ele>
	<time>2023-07-15T13:31:03.000Z</time>
</trkpt>
<trkpt lat="46.0472650" lon="9.4229560">
	<ele>787.20</ele>
	<time>2023-07-15T13:31:04.000Z</time>
</trkpt>
<trkpt lat="46.0472720" lon="9.4228410">
	<ele>787.20</ele>
	<time>2023-07-15T13:31:10.000Z</time>
</trkpt>
<trkpt lat="46.0472770" lon="9.4227820">
	<ele>787.00</ele>
	<time>2023-07-15T13:31:13.000Z</time>
</trkpt>
<trkpt lat="46.0472740" lon="9.4227620">
	<ele>787.00</ele>
	<time>2023-07-15T13:31:14.000Z</time>
</trkpt>
<trkpt lat="46.0472840" lon="9.4227520">
	<ele>787.20</ele>
	<time>2023-07-15T13:31:15.000Z</time>
</trkpt>
<trkpt lat="46.0473040" lon="9.4227360">
	<ele>787.00</ele>
	<time>2023-07-15T13:31:17.000Z</time>
</trkpt>
<trkpt lat="46.0473190" lon="9.4227310">
	<ele>787.00</ele>
	<time>2023-07-15T13:31:18.000Z</time>
</trkpt>
<trkpt lat="46.0473460" lon="9.4226950">
	<ele>786.80</ele>
	<time>2023-07-15T13:31:21.000Z</time>
</trkpt>
<trkpt lat="46.0473600" lon="9.4226930">
	<ele>786.80</ele>
	<time>2023-07-15T13:31:22.000Z</time>
</trkpt>
<trkpt lat="46.0474020" lon="9.4226590">
	<ele>786.60</ele>
	<time>2023-07-15T13:31:27.000Z</time>
</trkpt>
<trkpt lat="46.0474210" lon="9.4226550">
	<ele>786.60</ele>
	<time>2023-07-15T13:31:28.000Z</time>
</trkpt>
<trkpt lat="46.0474540" lon="9.4226320">
	<ele>786.80</ele>
	<time>2023-07-15T13:31:31.000Z</time>
</trkpt>
<trkpt lat="46.0474560" lon="9.4226170">
	<ele>786.80</ele>
	<time>2023-07-15T13:31:34.000Z</time>
</trkpt>
<trkpt lat="46.0474550" lon="9.4226150">
	<ele>786.80</ele>
	<time>2023-07-15T13:31:35.000Z</time>
</trkpt>
<trkpt lat="46.0474600" lon="9.4226210">
	<ele>786.80</ele>
	<time>2023-07-15T13:31:37.000Z</time>
</trkpt>
<trkpt lat="46.0474780" lon="9.4226200">
	<ele>786.80</ele>
	<time>2023-07-15T13:31:39.000Z</time>
</trkpt>
<trkpt lat="46.0474800" lon="9.4226170">
	<ele>786.60</ele>
	<time>2023-07-15T13:31:40.000Z</time>
</trkpt>
<trkpt lat="46.0474730" lon="9.4226020">
	<ele>786.60</ele>
	<time>2023-07-15T13:31:43.000Z</time>
</trkpt>
<trkpt lat="46.0474720" lon="9.4226010">
	<ele>786.60</ele>
	<time>2023-07-15T13:31:47.000Z</time>
</trkpt>
<trkpt lat="46.0474750" lon="9.4226040">
	<ele>786.60</ele>
	<time>2023-07-15T13:31:54.000Z</time>
</trkpt>
<trkpt lat="46.0474780" lon="9.4226050">
	<ele>786.60</ele>
	<time>2023-07-15T13:31:55.000Z</time>
</trkpt>
<trkpt lat="46.0474840" lon="9.4226110">
	<ele>786.60</ele>
	<time>2023-07-15T13:31:58.000Z</time>
</trkpt>
<trkpt lat="46.0475070" lon="9.4226270">
	<ele>786.80</ele>
	<time>2023-07-15T13:32:01.000Z</time>
</trkpt>
<trkpt lat="46.0475250" lon="9.4226500">
	<ele>787.00</ele>
	<time>2023-07-15T13:32:07.000Z</time>
</trkpt>
<trkpt lat="46.0475540" lon="9.4226730">
	<ele>786.60</ele>
	<time>2023-07-15T13:32:12.000Z</time>
</trkpt>
<trkpt lat="46.0475610" lon="9.4226860">
	<ele>786.20</ele>
	<time>2023-07-15T13:32:17.000Z</time>
</trkpt>
<trkpt lat="46.0475550" lon="9.4226770">
	<ele>786.00</ele>
	<time>2023-07-15T13:32:21.000Z</time>
</trkpt>
<trkpt lat="46.0475810" lon="9.4227110">
	<ele>786.00</ele>
	<time>2023-07-15T13:32:24.000Z</time>
</trkpt>
<trkpt lat="46.0475720" lon="9.4227120">
	<ele>786.20</ele>
	<time>2023-07-15T13:32:28.000Z</time>
</trkpt>
<trkpt lat="46.0475920" lon="9.4227230">
	<ele>786.20</ele>
	<time>2023-07-15T13:32:32.000Z</time>
</trkpt>
<trkpt lat="46.0475970" lon="9.4227280">
	<ele>786.20</ele>
	<time>2023-07-15T13:32:34.000Z</time>
</trkpt>
<trkpt lat="46.0476080" lon="9.4227350">
	<ele>786.00</ele>
	<time>2023-07-15T13:32:40.000Z</time>
</trkpt>
<trkpt lat="46.0475890" lon="9.4227140">
	<ele>786.40</ele>
	<time>2023-07-15T13:32:44.000Z</time>
</trkpt>
<trkpt lat="46.0475910" lon="9.4227170">
	<ele>786.20</ele>
	<time>2023-07-15T13:32:45.000Z</time>
</trkpt>
<trkpt lat="46.0475520" lon="9.4226840">
	<ele>786.20</ele>
	<time>2023-07-15T13:32:49.000Z</time>
</trkpt>
<trkpt lat="46.0475520" lon="9.4226670">
	<ele>786.20</ele>
	<time>2023-07-15T13:32:53.000Z</time>
</trkpt>
<trkpt lat="46.0475670" lon="9.4226590">
	<ele>787.20</ele>
	<time>2023-07-15T13:32:57.000Z</time>
</trkpt>
<trkpt lat="46.0475750" lon="9.4226640">
	<ele>787.20</ele>
	<time>2023-07-15T13:33:00.000Z</time>
</trkpt>
</trkseg>
</trk>
</gpx>
